<?xml version='1.0' encoding='UTF-8'?><gpx version="1.1" creator="JPX - https://github.com/jenetics/jpx" xmlns="http://www.topografix.com/GPX/1/1"><trk><trkseg><trkpt lat="38.146913378519294" lon="13.32726117947222"><ele>49.0</ele><time>2026-04-09T07:46:22Z</time></trkpt><trkpt lat="38.146948861353636" lon="13.327334329004527"><ele>49.0</ele><time>2026-04-09T07:46:25Z</time></trkpt><trkpt lat="38.1468784915189" lon="13.327441174182903"><ele>49.0</ele><time>2026-04-09T07:46:27Z</time></trkpt><trkpt lat="38.14681586899376" lon="13.327497774363477"><ele>49.0</ele><time>2026-04-09T07:46:28Z</time></trkpt><trkpt lat="38.146725251549455" lon="13.327577981265607"><ele>49.0</ele><time>2026-04-09T07:46:29Z</time></trkpt><trkpt lat="38.146635502101624" lon="13.32767242988415"><ele>49.25</ele><time>2026-04-09T07:46:30Z</time></trkpt><trkpt lat="38.14651997223824" lon="13.327793346799433"><ele>49.5</ele><time>2026-04-09T07:46:31Z</time></trkpt><trkpt lat="38.14640811202079" lon="13.32791365120886"><ele>49.75</ele><time>2026-04-09T07:46:32Z</time></trkpt><trkpt lat="38.1462990540228" lon="13.328022233963948"><ele>50.0</ele><time>2026-04-09T07:46:33Z</time></trkpt><trkpt lat="38.14619717996089" lon="13.32812925490854"><ele>50.0</ele><time>2026-04-09T07:46:34Z</time></trkpt><trkpt lat="38.14609854363564" lon="13.328234268858715"><ele>50.0</ele><time>2026-04-09T07:46:35Z</time></trkpt><trkpt lat="38.146001177024516" lon="13.328336439068758"><ele>50.0</ele><time>2026-04-09T07:46:36Z</time></trkpt><trkpt lat="38.145905102261885" lon="13.328433579647761"><ele>50.0</ele><time>2026-04-09T07:46:37Z</time></trkpt><trkpt lat="38.14581415134403" lon="13.328525515333146"><ele>50.0</ele><time>2026-04-09T07:46:38Z</time></trkpt><trkpt lat="38.145737494456434" lon="13.328611992718127"><ele>50.0</ele><time>2026-04-09T07:46:39Z</time></trkpt><trkpt lat="38.14567211345204" lon="13.328696274118156"><ele>50.0</ele><time>2026-04-09T07:46:40Z</time></trkpt><trkpt lat="38.14561928656371" lon="13.328783623047897"><ele>50.0</ele><time>2026-04-09T07:46:41Z</time></trkpt><trkpt lat="38.14554849724573" lon="13.328883149367677"><ele>50.0</ele><time>2026-04-09T07:46:42Z</time></trkpt><trkpt lat="38.14544435140621" lon="13.328997831396816"><ele>49.66666666666667</ele><time>2026-04-09T07:46:43Z</time></trkpt><trkpt lat="38.14535189990286" lon="13.329113867738444"><ele>49.33333333333333</ele><time>2026-04-09T07:46:44Z</time></trkpt><trkpt lat="38.145220322866756" lon="13.3292440933676"><ele>49.0</ele><time>2026-04-09T07:46:45Z</time></trkpt><trkpt lat="38.1450729429831" lon="13.32939316106291"><ele>49.0</ele><time>2026-04-09T07:46:46Z</time></trkpt><trkpt lat="38.14490717018345" lon="13.329549419250512"><ele>49.0</ele><time>2026-04-09T07:46:47Z</time></trkpt><trkpt lat="38.14474196703559" lon="13.329712513087633"><ele>49.0</ele><time>2026-04-09T07:46:48Z</time></trkpt><trkpt lat="38.14459026484588" lon="13.329876570029185"><ele>48.33333333333333</ele><time>2026-04-09T07:46:49Z</time></trkpt><trkpt lat="38.14445207590267" lon="13.330015161771998"><ele>47.666666666666664</ele><time>2026-04-09T07:46:50Z</time></trkpt><trkpt lat="38.14432468591555" lon="13.330142551729882"><ele>47.0</ele><time>2026-04-09T07:46:51Z</time></trkpt><trkpt lat="38.14418916222968" lon="13.330279527850218"><ele>47.0</ele><time>2026-04-09T07:46:52Z</time></trkpt><trkpt lat="38.14403007991184" lon="13.3304303452024"><ele>47.0</ele><time>2026-04-09T07:46:53Z</time></trkpt><trkpt lat="38.14384592584358" lon="13.330577956578912"><ele>47.0</ele><time>2026-04-09T07:46:54Z</time></trkpt><trkpt lat="38.143635312141036" lon="13.33071820853815"><ele>47.0</ele><time>2026-04-09T07:46:55Z</time></trkpt><trkpt lat="38.143406287598395" lon="13.330860907906931"><ele>47.0</ele><time>2026-04-09T07:46:56Z</time></trkpt><trkpt lat="38.14317822755434" lon="13.33098230872742"><ele>47.0</ele><time>2026-04-09T07:46:57Z</time></trkpt><trkpt lat="38.142947094949506" lon="13.331089792529992"><ele>47.0</ele><time>2026-04-09T07:46:58Z</time></trkpt><trkpt lat="38.142715239580916" lon="13.331184911722964"><ele>47.0</ele><time>2026-04-09T07:46:59Z</time></trkpt><trkpt lat="38.14248630849582" lon="13.33126098104233"><ele>47.0</ele><time>2026-04-09T07:47:00Z</time></trkpt><trkpt lat="38.14226816664018" lon="13.331315766494718"><ele>46.666666666666664</ele><time>2026-04-09T07:47:01Z</time></trkpt><trkpt lat="38.14205981736273" lon="13.331349008611417"><ele>46.333333333333336</ele><time>2026-04-09T07:47:02Z</time></trkpt><trkpt lat="38.14185344501663" lon="13.331362780698566"><ele>46.0</ele><time>2026-04-09T07:47:03Z</time></trkpt><trkpt lat="38.141645704676364" lon="13.331374086994623"><ele>46.0</ele><time>2026-04-09T07:47:04Z</time></trkpt><trkpt lat="38.14143964382215" lon="13.331374810691797"><ele>46.0</ele><time>2026-04-09T07:47:05Z</time></trkpt><trkpt lat="38.14124372147478" lon="13.331358173367645"><ele>46.0</ele><time>2026-04-09T07:47:06Z</time></trkpt><trkpt lat="38.14107854792254" lon="13.331299148467465"><ele>46.0</ele><time>2026-04-09T07:47:07Z</time></trkpt><trkpt lat="38.14090897204421" lon="13.331277904169884"><ele>46.0</ele><time>2026-04-09T07:47:08Z</time></trkpt><trkpt lat="38.14074830157384" lon="13.331252259638417"><ele>46.0</ele><time>2026-04-09T07:47:09Z</time></trkpt><trkpt lat="38.14058534011442" lon="13.331225564546225"><ele>45.333333333333336</ele><time>2026-04-09T07:47:10Z</time></trkpt><trkpt lat="38.14041518884027" lon="13.331206738805003"><ele>44.666666666666664</ele><time>2026-04-09T07:47:11Z</time></trkpt><trkpt lat="38.14024423079649" lon="13.33118409623403"><ele>44.0</ele><time>2026-04-09T07:47:12Z</time></trkpt><trkpt lat="38.14007901798319" lon="13.331167816451174"><ele>44.0</ele><time>2026-04-09T07:47:13Z</time></trkpt><trkpt lat="38.1399156579528" lon="13.331148943168925"><ele>44.0</ele><time>2026-04-09T07:47:14Z</time></trkpt><trkpt lat="38.13975123941853" lon="13.331125433162804"><ele>44.0</ele><time>2026-04-09T07:47:15Z</time></trkpt><trkpt lat="38.13958109736842" lon="13.331101932421307"><ele>44.0</ele><time>2026-04-09T07:47:16Z</time></trkpt><trkpt lat="38.1394031607687" lon="13.33108071544326"><ele>44.0</ele><time>2026-04-09T07:47:17Z</time></trkpt><trkpt lat="38.13922074222936" lon="13.331057387390535"><ele>44.0</ele><time>2026-04-09T07:47:17.999Z</time></trkpt><trkpt lat="38.13904006017622" lon="13.331031279280822"><ele>44.0</ele><time>2026-04-09T07:47:18.999Z</time></trkpt><trkpt lat="38.138859534040094" lon="13.331005383494695"><ele>44.0</ele><time>2026-04-09T07:47:19.999Z</time></trkpt><trkpt lat="38.13870771316447" lon="13.330979438292234"><ele>44.0</ele><time>2026-04-09T07:47:20.999Z</time></trkpt><trkpt lat="38.13856345465667" lon="13.33095650667555"><ele>44.0</ele><time>2026-04-09T07:47:21.999Z</time></trkpt><trkpt lat="38.13842291785091" lon="13.33093838980907"><ele>44.0</ele><time>2026-04-09T07:47:22.999Z</time></trkpt><trkpt lat="38.13828209581778" lon="13.330923481800202"><ele>44.0</ele><time>2026-04-09T07:47:23.999Z</time></trkpt><trkpt lat="38.138142910903824" lon="13.330908224815762"><ele>44.0</ele><time>2026-04-09T07:47:24.999Z</time></trkpt><trkpt lat="38.138006215165696" lon="13.330893144422534"><ele>44.0</ele><time>2026-04-09T07:47:25.999Z</time></trkpt><trkpt lat="38.137869483113754" lon="13.330876738889913"><ele>44.0</ele><time>2026-04-09T07:47:26.999Z</time></trkpt><trkpt lat="38.137727613621806" lon="13.330861879880775"><ele>44.0</ele><time>2026-04-09T07:47:27.999Z</time></trkpt><trkpt lat="38.13757386368054" lon="13.330841928101885"><ele>44.0</ele><time>2026-04-09T07:47:28.999Z</time></trkpt><trkpt lat="38.13740224236859" lon="13.33082008311139"><ele>44.33333333333333</ele><time>2026-04-09T07:47:30Z</time></trkpt><trkpt lat="38.13722150645789" lon="13.330796439455437"><ele>44.666666666666664</ele><time>2026-04-09T07:47:31Z</time></trkpt><trkpt lat="38.13703731404056" lon="13.330772713739128"><ele>45.0</ele><time>2026-04-09T07:47:32Z</time></trkpt><trkpt lat="38.13684543416492" lon="13.330742466281118"><ele>45.0</ele><time>2026-04-09T07:47:33Z</time></trkpt><trkpt lat="38.136646907503874" lon="13.330709015192568"><ele>45.0</ele><time>2026-04-09T07:47:34Z</time></trkpt><trkpt lat="38.13644164787913" lon="13.330677463301349"><ele>45.0</ele><time>2026-04-09T07:47:35Z</time></trkpt><trkpt lat="38.13624400177812" lon="13.330655104836506"><ele>45.333333333333336</ele><time>2026-04-09T07:47:36Z</time></trkpt><trkpt lat="38.136042666640066" lon="13.330626086786644"><ele>45.66666666666667</ele><time>2026-04-09T07:47:37Z</time></trkpt><trkpt lat="38.135834246176344" lon="13.330608849258697"><ele>46.0</ele><time>2026-04-09T07:47:38Z</time></trkpt><trkpt lat="38.135626588018994" lon="13.330581414735578"><ele>46.0</ele><time>2026-04-09T07:47:39Z</time></trkpt><trkpt lat="38.13541787025223" lon="13.330556029355721"><ele>46.0</ele><time>2026-04-09T07:47:40Z</time></trkpt><trkpt lat="38.13521872487723" lon="13.330532593486602"><ele>46.0</ele><time>2026-04-09T07:47:41Z</time></trkpt><trkpt lat="38.13502996979368" lon="13.330510789091642"><ele>46.333333333333336</ele><time>2026-04-09T07:47:42Z</time></trkpt><trkpt lat="38.13483316206847" lon="13.330487364830638"><ele>46.666666666666664</ele><time>2026-04-09T07:47:43Z</time></trkpt><trkpt lat="38.13464354909147" lon="13.330458397275049"><ele>47.0</ele><time>2026-04-09T07:47:44Z</time></trkpt><trkpt lat="38.1344679681202" lon="13.330422818713036"><ele>47.0</ele><time>2026-04-09T07:47:45Z</time></trkpt><trkpt lat="38.13428981941648" lon="13.330386154074118"><ele>47.0</ele><time>2026-04-09T07:47:46Z</time></trkpt><trkpt lat="38.134119316364064" lon="13.330347045000394"><ele>47.0</ele><time>2026-04-09T07:47:47Z</time></trkpt><trkpt lat="38.13395236522242" lon="13.330309440557516"><ele>47.0</ele><time>2026-04-09T07:47:48Z</time></trkpt><trkpt lat="38.1337930596995" lon="13.330280867861735"><ele>47.0</ele><time>2026-04-09T07:47:49Z</time></trkpt><trkpt lat="38.13364539376418" lon="13.330266276132422"><ele>47.0</ele><time>2026-04-09T07:47:50Z</time></trkpt><trkpt lat="38.13351354649959" lon="13.330247935860575"><ele>47.0</ele><time>2026-04-09T07:47:51Z</time></trkpt><trkpt lat="38.133411877075005" lon="13.330237226530004"><ele>47.0</ele><time>2026-04-09T07:47:52Z</time></trkpt><trkpt lat="38.13332382872183" lon="13.330219371599755"><ele>47.0</ele><time>2026-04-09T07:47:53Z</time></trkpt><trkpt lat="38.133254862737374" lon="13.330204002902601"><ele>47.0</ele><time>2026-04-09T07:47:54Z</time></trkpt><trkpt lat="38.133118194678346" lon="13.330180663181924"><ele>47.0</ele><time>2026-04-09T07:47:56Z</time></trkpt><trkpt lat="38.13302253608086" lon="13.330172820234928"><ele>47.0</ele><time>2026-04-09T07:47:57Z</time></trkpt><trkpt lat="38.132911001520746" lon="13.330162000866936"><ele>47.0</ele><time>2026-04-09T07:47:58Z</time></trkpt><trkpt lat="38.132777503721314" lon="13.330145815895397"><ele>47.0</ele><time>2026-04-09T07:47:59Z</time></trkpt><trkpt lat="38.13264189758693" lon="13.33012325197001"><ele>47.0</ele><time>2026-04-09T07:48:00Z</time></trkpt><trkpt lat="38.132506647003154" lon="13.330099118470603"><ele>47.0</ele><time>2026-04-09T07:48:01Z</time></trkpt><trkpt lat="38.13235245869934" lon="13.330078804851263"><ele>47.666666666666664</ele><time>2026-04-09T07:48:02Z</time></trkpt><trkpt lat="38.13219087597091" lon="13.330053935769694"><ele>48.33333333333333</ele><time>2026-04-09T07:48:03Z</time></trkpt><trkpt lat="38.132028255943936" lon="13.330045220599265"><ele>49.0</ele><time>2026-04-09T07:48:04Z</time></trkpt><trkpt lat="38.131873060617664" lon="13.330027061708225"><ele>49.0</ele><time>2026-04-09T07:48:05Z</time></trkpt><trkpt lat="38.13172285851746" lon="13.33000677943008"><ele>49.0</ele><time>2026-04-09T07:48:06Z</time></trkpt><trkpt lat="38.13157643795612" lon="13.329993498719146"><ele>49.0</ele><time>2026-04-09T07:48:07Z</time></trkpt><trkpt lat="38.13142770456404" lon="13.329991318742982"><ele>49.0</ele><time>2026-04-09T07:48:08Z</time></trkpt><trkpt lat="38.13127394938721" lon="13.32999210425998"><ele>48.33333333333333</ele><time>2026-04-09T07:48:09Z</time></trkpt><trkpt lat="38.13111167754322" lon="13.329966581372107"><ele>47.666666666666664</ele><time>2026-04-09T07:48:10Z</time></trkpt><trkpt lat="38.13094257247529" lon="13.329931825034762"><ele>47.0</ele><time>2026-04-09T07:48:11Z</time></trkpt><trkpt lat="38.13075487582339" lon="13.329904180982728"><ele>48.5</ele><time>2026-04-09T07:48:12Z</time></trkpt><trkpt lat="38.13053492224463" lon="13.32987269146468"><ele>50.0</ele><time>2026-04-09T07:48:13Z</time></trkpt><trkpt lat="38.130295370423866" lon="13.32984108925975"><ele>50.0</ele><time>2026-04-09T07:48:14Z</time></trkpt><trkpt lat="38.13003991855512" lon="13.329808452681657"><ele>50.0</ele><time>2026-04-09T07:48:15Z</time></trkpt><trkpt lat="38.129768657436756" lon="13.329774486291516"><ele>50.5</ele><time>2026-04-09T07:48:16Z</time></trkpt><trkpt lat="38.129497143894426" lon="13.329740624673093"><ele>51.0</ele><time>2026-04-09T07:48:17Z</time></trkpt><trkpt lat="38.12924770411346" lon="13.32970382462454"><ele>50.0</ele><time>2026-04-09T07:48:18Z</time></trkpt><trkpt lat="38.12900997669936" lon="13.3296652482785"><ele>49.0</ele><time>2026-04-09T07:48:19Z</time></trkpt><trkpt lat="38.128760088293575" lon="13.329654703286677"><ele>49.0</ele><time>2026-04-09T07:48:20Z</time></trkpt><trkpt lat="38.12852821168183" lon="13.329628235886851"><ele>49.0</ele><time>2026-04-09T07:48:21Z</time></trkpt><trkpt lat="38.12829435272318" lon="13.329610539395357"><ele>52.0</ele><time>2026-04-09T07:48:22Z</time></trkpt><trkpt lat="38.12806026340299" lon="13.329594334063342"><ele>55.0</ele><time>2026-04-09T07:48:23Z</time></trkpt><trkpt lat="38.12781635375687" lon="13.32956024158867"><ele>54.0</ele><time>2026-04-09T07:48:24Z</time></trkpt><trkpt lat="38.127349156613285" lon="13.329502400261092"><ele>54.0</ele><time>2026-04-09T07:48:26Z</time></trkpt><trkpt lat="38.12711683719441" lon="13.329474191876843"><ele>54.0</ele><time>2026-04-09T07:48:27Z</time></trkpt><trkpt lat="38.12688583714675" lon="13.329448415713847"><ele>54.0</ele><time>2026-04-09T07:48:28Z</time></trkpt><trkpt lat="38.12666189417312" lon="13.329422873151362"><ele>54.0</ele><time>2026-04-09T07:48:29Z</time></trkpt><trkpt lat="38.12643880307467" lon="13.329396151019722"><ele>54.0</ele><time>2026-04-09T07:48:30Z</time></trkpt><trkpt lat="38.12621967329791" lon="13.329369189726645"><ele>56.0</ele><time>2026-04-09T07:48:31Z</time></trkpt><trkpt lat="38.12600390728477" lon="13.329340257492557"><ele>58.0</ele><time>2026-04-09T07:48:32Z</time></trkpt><trkpt lat="38.12578183093747" lon="13.329315016939345"><ele>60.0</ele><time>2026-04-09T07:48:33Z</time></trkpt><trkpt lat="38.12555629638709" lon="13.329288147198143"><ele>60.0</ele><time>2026-04-09T07:48:34Z</time></trkpt><trkpt lat="38.12533007899157" lon="13.329260870373751"><ele>60.0</ele><time>2026-04-09T07:48:35Z</time></trkpt><trkpt lat="38.12510875598507" lon="13.329235790101178"><ele>60.0</ele><time>2026-04-09T07:48:36Z</time></trkpt><trkpt lat="38.124888423661055" lon="13.329213266074989"><ele>62.0</ele><time>2026-04-09T07:48:37Z</time></trkpt><trkpt lat="38.12467225881827" lon="13.32919247675424"><ele>64.0</ele><time>2026-04-09T07:48:38Z</time></trkpt><trkpt lat="38.1244559867789" lon="13.329179422636216"><ele>66.0</ele><time>2026-04-09T07:48:39Z</time></trkpt><trkpt lat="38.12423859174758" lon="13.32916361028934"><ele>63.66666666666667</ele><time>2026-04-09T07:48:40Z</time></trkpt><trkpt lat="38.12401988881691" lon="13.329139583282196"><ele>61.333333333333336</ele><time>2026-04-09T07:48:41Z</time></trkpt><trkpt lat="38.12379725826436" lon="13.329107311919946"><ele>59.0</ele><time>2026-04-09T07:48:42Z</time></trkpt><trkpt lat="38.12357620209824" lon="13.32908308460685"><ele>59.0</ele><time>2026-04-09T07:48:43Z</time></trkpt><trkpt lat="38.12335520748132" lon="13.32905453386304"><ele>59.0</ele><time>2026-04-09T07:48:44Z</time></trkpt><trkpt lat="38.12312852288094" lon="13.329020096899034"><ele>60.5</ele><time>2026-04-09T07:48:45Z</time></trkpt><trkpt lat="38.12290408451413" lon="13.328984731248124"><ele>62.0</ele><time>2026-04-09T07:48:46Z</time></trkpt><trkpt lat="38.12267959276647" lon="13.328960977175848"><ele>62.0</ele><time>2026-04-09T07:48:47Z</time></trkpt><trkpt lat="38.122459594699706" lon="13.3289373245723"><ele>62.0</ele><time>2026-04-09T07:48:48Z</time></trkpt><trkpt lat="38.12223302081618" lon="13.32891291518325"><ele>62.0</ele><time>2026-04-09T07:48:49Z</time></trkpt><trkpt lat="38.12201793972056" lon="13.328883971740229"><ele>62.0</ele><time>2026-04-09T07:48:50Z</time></trkpt><trkpt lat="38.12180163085919" lon="13.32885879726073"><ele>62.0</ele><time>2026-04-09T07:48:51Z</time></trkpt><trkpt lat="38.12158394188823" lon="13.328840027504588"><ele>62.0</ele><time>2026-04-09T07:48:52Z</time></trkpt><trkpt lat="38.12136694426368" lon="13.328823210239394"><ele>62.0</ele><time>2026-04-09T07:48:53Z</time></trkpt><trkpt lat="38.12116404131884" lon="13.328796428091117"><ele>62.0</ele><time>2026-04-09T07:48:54Z</time></trkpt><trkpt lat="38.12097221106077" lon="13.328781025308922"><ele>62.0</ele><time>2026-04-09T07:48:55Z</time></trkpt><trkpt lat="38.120794470838284" lon="13.328772438491164"><ele>62.333333333333336</ele><time>2026-04-09T07:48:56Z</time></trkpt><trkpt lat="38.12062121576369" lon="13.328756717466932"><ele>62.66666666666667</ele><time>2026-04-09T07:48:57Z</time></trkpt><trkpt lat="38.12046276131889" lon="13.328739758375034"><ele>63.0</ele><time>2026-04-09T07:48:58Z</time></trkpt><trkpt lat="38.120315563277195" lon="13.328722994179543"><ele>63.0</ele><time>2026-04-09T07:48:59Z</time></trkpt><trkpt lat="38.12018088428554" lon="13.328705825142022"><ele>63.0</ele><time>2026-04-09T07:49:00Z</time></trkpt><trkpt lat="38.12006072548297" lon="13.328698270357496"><ele>63.0</ele><time>2026-04-09T07:49:01Z</time></trkpt><trkpt lat="38.11994028897999" lon="13.328690564229094"><ele>63.0</ele><time>2026-04-09T07:49:02Z</time></trkpt><trkpt lat="38.119833578537104" lon="13.328686019799738"><ele>63.833333333333336</ele><time>2026-04-09T07:49:03Z</time></trkpt><trkpt lat="38.11974576126853" lon="13.328679787684132"><ele>64.66666666666667</ele><time>2026-04-09T07:49:04Z</time></trkpt><trkpt lat="38.11967517294671" lon="13.328682666002715"><ele>65.5</ele><time>2026-04-09T07:49:05Z</time></trkpt><trkpt lat="38.11957910821437" lon="13.328689651650459"><ele>66.33333333333334</ele><time>2026-04-09T07:49:07Z</time></trkpt><trkpt lat="38.1194975103272" lon="13.328697760613776"><ele>67.16666666666667</ele><time>2026-04-09T07:49:23.999Z</time></trkpt><trkpt lat="38.119423208235695" lon="13.328687730348442"><ele>68.0</ele><time>2026-04-09T07:49:24.999Z</time></trkpt><trkpt lat="38.11932403900699" lon="13.328691674056905"><ele>68.0</ele><time>2026-04-09T07:49:25.999Z</time></trkpt><trkpt lat="38.11920942519087" lon="13.32868853736035"><ele>68.0</ele><time>2026-04-09T07:49:26.999Z</time></trkpt><trkpt lat="38.11906923471743" lon="13.328690135799057"><ele>68.0</ele><time>2026-04-09T07:49:27.999Z</time></trkpt><trkpt lat="38.11892360321243" lon="13.32869178903594"><ele>68.0</ele><time>2026-04-09T07:49:28.999Z</time></trkpt><trkpt lat="38.11875740978431" lon="13.328701096498069"><ele>69.0</ele><time>2026-04-09T07:49:29.999Z</time></trkpt><trkpt lat="38.11859093612426" lon="13.328712292121379"><ele>70.0</ele><time>2026-04-09T07:49:30.999Z</time></trkpt><trkpt lat="38.118408153853885" lon="13.32872996616276"><ele>71.0</ele><time>2026-04-09T07:49:31.999Z</time></trkpt><trkpt lat="38.11821742012449" lon="13.328756344464058"><ele>72.33333333333334</ele><time>2026-04-09T07:49:32.999Z</time></trkpt><trkpt lat="38.11802459674956" lon="13.328777200447911"><ele>73.66666666666667</ele><time>2026-04-09T07:49:33.999Z</time></trkpt><trkpt lat="38.11783124398432" lon="13.328801790282087"><ele>75.0</ele><time>2026-04-09T07:49:34.999Z</time></trkpt><trkpt lat="38.11763444151406" lon="13.328826456390654"><ele>75.0</ele><time>2026-04-09T07:49:36Z</time></trkpt><trkpt lat="38.11743793214109" lon="13.3288534841495"><ele>75.0</ele><time>2026-04-09T07:49:37Z</time></trkpt><trkpt lat="38.11722998843675" lon="13.32887836293404"><ele>75.0</ele><time>2026-04-09T07:49:38Z</time></trkpt><trkpt lat="38.11701776330859" lon="13.328906202884006"><ele>73.0</ele><time>2026-04-09T07:49:39Z</time></trkpt><trkpt lat="38.11681714001783" lon="13.328924822593509"><ele>71.0</ele><time>2026-04-09T07:49:40Z</time></trkpt><trkpt lat="38.11660912163922" lon="13.328954751829063"><ele>69.0</ele><time>2026-04-09T07:49:41Z</time></trkpt><trkpt lat="38.11639544023544" lon="13.328983707558228"><ele>69.0</ele><time>2026-04-09T07:49:42Z</time></trkpt><trkpt lat="38.11617850805649" lon="13.329010576477218"><ele>69.0</ele><time>2026-04-09T07:49:43Z</time></trkpt><trkpt lat="38.115959990440814" lon="13.329039948614684"><ele>69.0</ele><time>2026-04-09T07:49:44Z</time></trkpt><trkpt lat="38.115738157000784" lon="13.329068391790694"><ele>69.0</ele><time>2026-04-09T07:49:45Z</time></trkpt><trkpt lat="38.11551597940282" lon="13.329096607210033"><ele>69.0</ele><time>2026-04-09T07:49:46Z</time></trkpt><trkpt lat="38.11529571973154" lon="13.329126184796094"><ele>69.0</ele><time>2026-04-09T07:49:47Z</time></trkpt><trkpt lat="38.1150727715753" lon="13.329159497543483"><ele>70.0</ele><time>2026-04-09T07:49:48Z</time></trkpt><trkpt lat="38.11484856566157" lon="13.329190709856046"><ele>71.0</ele><time>2026-04-09T07:49:49Z</time></trkpt><trkpt lat="38.114621130085105" lon="13.329221861642962"><ele>71.0</ele><time>2026-04-09T07:49:50Z</time></trkpt><trkpt lat="38.1143939515878" lon="13.329250664149892"><ele>71.0</ele><time>2026-04-09T07:49:51Z</time></trkpt><trkpt lat="38.114165026444866" lon="13.329277623054988"><ele>73.0</ele><time>2026-04-09T07:49:52Z</time></trkpt><trkpt lat="38.113936117937385" lon="13.329306363034988"><ele>75.0</ele><time>2026-04-09T07:49:53Z</time></trkpt><trkpt lat="38.11370781685463" lon="13.329337307499468"><ele>75.0</ele><time>2026-04-09T07:49:54Z</time></trkpt><trkpt lat="38.113477733443716" lon="13.329368156302218"><ele>75.0</ele><time>2026-04-09T07:49:55Z</time></trkpt><trkpt lat="38.11324388833072" lon="13.329394222326739"><ele>73.5</ele><time>2026-04-09T07:49:56Z</time></trkpt><trkpt lat="38.11300740824527" lon="13.329420635153106"><ele>72.0</ele><time>2026-04-09T07:49:57Z</time></trkpt><trkpt lat="38.11277335559305" lon="13.329450148829745"><ele>72.0</ele><time>2026-04-09T07:49:58Z</time></trkpt><trkpt lat="38.11253684219024" lon="13.329482451058185"><ele>72.0</ele><time>2026-04-09T07:49:59Z</time></trkpt><trkpt lat="38.11229786603552" lon="13.32951638240247"><ele>72.5</ele><time>2026-04-09T07:50:00Z</time></trkpt><trkpt lat="38.11205471764693" lon="13.329550160607015"><ele>73.0</ele><time>2026-04-09T07:50:01Z</time></trkpt><trkpt lat="38.11181286127228" lon="13.329584495108467"><ele>73.5</ele><time>2026-04-09T07:50:02Z</time></trkpt><trkpt lat="38.11156621246951" lon="13.329619853199247"><ele>74.0</ele><time>2026-04-09T07:50:03Z</time></trkpt><trkpt lat="38.11132083531065" lon="13.329651556006331"><ele>74.0</ele><time>2026-04-09T07:50:04Z</time></trkpt><trkpt lat="38.11107148981385" lon="13.329684613853841"><ele>74.0</ele><time>2026-04-09T07:50:05Z</time></trkpt><trkpt lat="38.11082118450592" lon="13.329717870414797"><ele>73.5</ele><time>2026-04-09T07:50:06Z</time></trkpt><trkpt lat="38.11057187502172" lon="13.329749226200216"><ele>73.0</ele><time>2026-04-09T07:50:07Z</time></trkpt><trkpt lat="38.11031965037541" lon="13.329783926976509"><ele>73.0</ele><time>2026-04-09T07:50:08Z</time></trkpt><trkpt lat="38.11006294395015" lon="13.329813956103797"><ele>73.0</ele><time>2026-04-09T07:50:09Z</time></trkpt><trkpt lat="38.10981400237458" lon="13.3298432988022"><ele>74.5</ele><time>2026-04-09T07:50:10Z</time></trkpt><trkpt lat="38.10957239392451" lon="13.329867893992107"><ele>76.0</ele><time>2026-04-09T07:50:11Z</time></trkpt><trkpt lat="38.10933657356274" lon="13.329891393492346"><ele>76.0</ele><time>2026-04-09T07:50:12Z</time></trkpt><trkpt lat="38.10910051574899" lon="13.329912046429387"><ele>76.0</ele><time>2026-04-09T07:50:13Z</time></trkpt><trkpt lat="38.10887164220749" lon="13.329929259401554"><ele>75.0</ele><time>2026-04-09T07:50:14Z</time></trkpt><trkpt lat="38.10864997521131" lon="13.329945042129618"><ele>74.0</ele><time>2026-04-09T07:50:15Z</time></trkpt><trkpt lat="38.10843253123168" lon="13.329963565373713"><ele>73.0</ele><time>2026-04-09T07:50:16Z</time></trkpt><trkpt lat="38.10822575854083" lon="13.329982317769726"><ele>73.0</ele><time>2026-04-09T07:50:17Z</time></trkpt><trkpt lat="38.10803498794406" lon="13.330000109149996"><ele>73.0</ele><time>2026-04-09T07:50:18Z</time></trkpt><trkpt lat="38.10784733147704" lon="13.330016814250731"><ele>73.0</ele><time>2026-04-09T07:50:19Z</time></trkpt><trkpt lat="38.10767055041859" lon="13.330026505246053"><ele>73.0</ele><time>2026-04-09T07:50:20Z</time></trkpt><trkpt lat="38.10749918375263" lon="13.330037298113963"><ele>73.0</ele><time>2026-04-09T07:50:21Z</time></trkpt><trkpt lat="38.10733621622228" lon="13.33004471364638"><ele>73.0</ele><time>2026-04-09T07:50:22Z</time></trkpt><trkpt lat="38.10718084626912" lon="13.330059707050593"><ele>73.5</ele><time>2026-04-09T07:50:23Z</time></trkpt><trkpt lat="38.1070328418322" lon="13.330074533192194"><ele>74.0</ele><time>2026-04-09T07:50:24Z</time></trkpt><trkpt lat="38.106896995039904" lon="13.33008961496441"><ele>74.5</ele><time>2026-04-09T07:50:25Z</time></trkpt><trkpt lat="38.10675598931794" lon="13.330110864098591"><ele>75.0</ele><time>2026-04-09T07:50:26Z</time></trkpt><trkpt lat="38.10662310519714" lon="13.330133491850326"><ele>76.0</ele><time>2026-04-09T07:50:27Z</time></trkpt><trkpt lat="38.10648678451807" lon="13.330167098479903"><ele>77.0</ele><time>2026-04-09T07:50:28Z</time></trkpt><trkpt lat="38.106342982934365" lon="13.33020071561982"><ele>78.0</ele><time>2026-04-09T07:50:29Z</time></trkpt><trkpt lat="38.106187651005044" lon="13.33022945859099"><ele>79.0</ele><time>2026-04-09T07:50:30Z</time></trkpt><trkpt lat="38.106012526422646" lon="13.330247268547888"><ele>79.0</ele><time>2026-04-09T07:50:31Z</time></trkpt><trkpt lat="38.105832561072624" lon="13.330292006855482"><ele>79.0</ele><time>2026-04-09T07:50:32Z</time></trkpt><trkpt lat="38.10563065738306" lon="13.330215749603529"><ele>79.0</ele><time>2026-04-09T07:50:33Z</time></trkpt><trkpt lat="38.10541998751525" lon="13.330232422391319"><ele>80.0</ele><time>2026-04-09T07:50:34Z</time></trkpt><trkpt lat="38.10519638272289" lon="13.33024595616895"><ele>81.0</ele><time>2026-04-09T07:50:35Z</time></trkpt><trkpt lat="38.10496103630552" lon="13.330258133254032"><ele>80.5</ele><time>2026-04-09T07:50:36Z</time></trkpt><trkpt lat="38.10470712651637" lon="13.330268075472837"><ele>80.0</ele><time>2026-04-09T07:50:37Z</time></trkpt><trkpt lat="38.10446454310287" lon="13.33027286797413"><ele>80.0</ele><time>2026-04-09T07:50:38Z</time></trkpt><trkpt lat="38.10423793926267" lon="13.330283243836245"><ele>80.0</ele><time>2026-04-09T07:50:39Z</time></trkpt><trkpt lat="38.10401668657705" lon="13.33029467194263"><ele>80.0</ele><time>2026-04-09T07:50:40Z</time></trkpt><trkpt lat="38.10379104584927" lon="13.330312950620456"><ele>80.0</ele><time>2026-04-09T07:50:41Z</time></trkpt><trkpt lat="38.10356572221111" lon="13.330334939318824"><ele>80.0</ele><time>2026-04-09T07:50:42Z</time></trkpt><trkpt lat="38.10332996248994" lon="13.330349532042431"><ele>79.0</ele><time>2026-04-09T07:50:43Z</time></trkpt><trkpt lat="38.103074814289485" lon="13.330364339549025"><ele>78.0</ele><time>2026-04-09T07:50:44Z</time></trkpt><trkpt lat="38.10281696314031" lon="13.330383933449863"><ele>78.0</ele><time>2026-04-09T07:50:45Z</time></trkpt><trkpt lat="38.1025885031821" lon="13.33040272156316"><ele>78.0</ele><time>2026-04-09T07:50:46Z</time></trkpt><trkpt lat="38.10236832408064" lon="13.330427678343181"><ele>79.33333333333333</ele><time>2026-04-09T07:50:47Z</time></trkpt><trkpt lat="38.102146126843955" lon="13.330447964631059"><ele>80.66666666666666</ele><time>2026-04-09T07:50:48Z</time></trkpt><trkpt lat="38.10192139027395" lon="13.330471763381171"><ele>82.0</ele><time>2026-04-09T07:50:49Z</time></trkpt><trkpt lat="38.10169482179099" lon="13.33051532080023"><ele>83.0</ele><time>2026-04-09T07:50:50Z</time></trkpt><trkpt lat="38.10148303102478" lon="13.330591386798293"><ele>84.0</ele><time>2026-04-09T07:50:51Z</time></trkpt><trkpt lat="38.101290095519666" lon="13.330676139921442"><ele>85.0</ele><time>2026-04-09T07:50:52Z</time></trkpt><trkpt lat="38.10109766073993" lon="13.330765407677564"><ele>85.0</ele><time>2026-04-09T07:50:53Z</time></trkpt><trkpt lat="38.10090203233228" lon="13.330868491886319"><ele>85.0</ele><time>2026-04-09T07:50:54Z</time></trkpt><trkpt lat="38.10070400902434" lon="13.331009730408661"><ele>85.0</ele><time>2026-04-09T07:50:55Z</time></trkpt><trkpt lat="38.10053975882726" lon="13.331184910696166"><ele>85.0</ele><time>2026-04-09T07:50:56Z</time></trkpt><trkpt lat="38.100373557940195" lon="13.33137913361224"><ele>85.0</ele><time>2026-04-09T07:50:57Z</time></trkpt><trkpt lat="38.10020075265912" lon="13.331579845852275"><ele>83.5</ele><time>2026-04-09T07:50:58Z</time></trkpt><trkpt lat="38.100014178268204" lon="13.33177022097853"><ele>82.0</ele><time>2026-04-09T07:50:59Z</time></trkpt><trkpt lat="38.09982622470647" lon="13.331957895077059"><ele>81.5</ele><time>2026-04-09T07:51:00Z</time></trkpt><trkpt lat="38.09963168170246" lon="13.332141677081887"><ele>81.0</ele><time>2026-04-09T07:51:01Z</time></trkpt><trkpt lat="38.09943367706534" lon="13.332332745826466"><ele>82.0</ele><time>2026-04-09T07:51:02Z</time></trkpt><trkpt lat="38.09922336548485" lon="13.332522297814144"><ele>83.0</ele><time>2026-04-09T07:51:03Z</time></trkpt><trkpt lat="38.09901413303589" lon="13.332713044503931"><ele>81.5</ele><time>2026-04-09T07:51:04Z</time></trkpt><trkpt lat="38.09881249829928" lon="13.332890173848826"><ele>80.0</ele><time>2026-04-09T07:51:04.999Z</time></trkpt><trkpt lat="38.09861654119882" lon="13.333058183321315"><ele>80.0</ele><time>2026-04-09T07:51:05.999Z</time></trkpt><trkpt lat="38.09842450585234" lon="13.33322696836035"><ele>80.0</ele><time>2026-04-09T07:51:06.999Z</time></trkpt><trkpt lat="38.09823294767224" lon="13.333400295187507"><ele>81.0</ele><time>2026-04-09T07:51:07.999Z</time></trkpt><trkpt lat="38.09804398742099" lon="13.333579036830248"><ele>82.0</ele><time>2026-04-09T07:51:08.999Z</time></trkpt><trkpt lat="38.09785650527754" lon="13.333757454638565"><ele>82.0</ele><time>2026-04-09T07:51:09.999Z</time></trkpt><trkpt lat="38.09767155351471" lon="13.333940896759488"><ele>82.0</ele><time>2026-04-09T07:51:10.999Z</time></trkpt><trkpt lat="38.09748285340364" lon="13.334116198720142"><ele>79.5</ele><time>2026-04-09T07:51:11.999Z</time></trkpt><trkpt lat="38.09729820425017" lon="13.334295129150355"><ele>77.0</ele><time>2026-04-09T07:51:12.999Z</time></trkpt><trkpt lat="38.09712123936764" lon="13.33448365050537"><ele>77.0</ele><time>2026-04-09T07:51:13.999Z</time></trkpt><trkpt lat="38.09695709687114" lon="13.334690263849135"><ele>77.0</ele><time>2026-04-09T07:51:14.999Z</time></trkpt><trkpt lat="38.09680468608787" lon="13.334905803315856"><ele>77.0</ele><time>2026-04-09T07:51:15.999Z</time></trkpt><trkpt lat="38.09665293122073" lon="13.335122314304938"><ele>77.0</ele><time>2026-04-09T07:51:16.999Z</time></trkpt><trkpt lat="38.09649983046057" lon="13.33533638228534"><ele>77.0</ele><time>2026-04-09T07:51:17.999Z</time></trkpt><trkpt lat="38.09634986388405" lon="13.33555074939607"><ele>77.0</ele><time>2026-04-09T07:51:18.999Z</time></trkpt><trkpt lat="38.096197969121704" lon="13.335755318270113"><ele>77.0</ele><time>2026-04-09T07:51:19.999Z</time></trkpt><trkpt lat="38.096050345537236" lon="13.335960572974622"><ele>77.0</ele><time>2026-04-09T07:51:20.999Z</time></trkpt><trkpt lat="38.09590245632183" lon="13.336164184660513"><ele>77.0</ele><time>2026-04-09T07:51:21.999Z</time></trkpt><trkpt lat="38.095757373250834" lon="13.336360163394257"><ele>77.0</ele><time>2026-04-09T07:51:22.999Z</time></trkpt><trkpt lat="38.09561824041404" lon="13.336546289759635"><ele>77.0</ele><time>2026-04-09T07:51:23.999Z</time></trkpt><trkpt lat="38.0954670609443" lon="13.336730313936023"><ele>77.0</ele><time>2026-04-09T07:51:24.999Z</time></trkpt><trkpt lat="38.09532638063055" lon="13.336921243574986"><ele>77.0</ele><time>2026-04-09T07:51:25.999Z</time></trkpt><trkpt lat="38.095189236054836" lon="13.337109973959858"><ele>77.33333333333334</ele><time>2026-04-09T07:51:26.999Z</time></trkpt><trkpt lat="38.0950589055893" lon="13.337295439030923"><ele>77.66666666666667</ele><time>2026-04-09T07:51:27.999Z</time></trkpt><trkpt lat="38.09493453384065" lon="13.337466895550643"><ele>78.0</ele><time>2026-04-09T07:51:28.999Z</time></trkpt><trkpt lat="38.09481905189501" lon="13.337630179742954"><ele>78.0</ele><time>2026-04-09T07:51:29.999Z</time></trkpt><trkpt lat="38.094708645114615" lon="13.337786083718276"><ele>78.0</ele><time>2026-04-09T07:51:30.999Z</time></trkpt><trkpt lat="38.094601342194345" lon="13.337927786984809"><ele>78.0</ele><time>2026-04-09T07:51:31.999Z</time></trkpt><trkpt lat="38.094496488931505" lon="13.338068450541893"><ele>77.66666666666667</ele><time>2026-04-09T07:51:32.999Z</time></trkpt><trkpt lat="38.094395576030955" lon="13.338206737781615"><ele>77.33333333333334</ele><time>2026-04-09T07:51:33.999Z</time></trkpt><trkpt lat="38.09428440052623" lon="13.338351900886273"><ele>77.0</ele><time>2026-04-09T07:51:34.999Z</time></trkpt><trkpt lat="38.09418160214374" lon="13.338494708210474"><ele>77.0</ele><time>2026-04-09T07:51:35.999Z</time></trkpt><trkpt lat="38.09408305759953" lon="13.338628897021286"><ele>77.0</ele><time>2026-04-09T07:51:36.999Z</time></trkpt><trkpt lat="38.0939894540831" lon="13.338755733079646"><ele>77.0</ele><time>2026-04-09T07:51:37.999Z</time></trkpt><trkpt lat="38.093899286057855" lon="13.338878752384428"><ele>77.0</ele><time>2026-04-09T07:51:38.999Z</time></trkpt><trkpt lat="38.093803750811496" lon="13.339025428516289"><ele>77.0</ele><time>2026-04-09T07:51:39.999Z</time></trkpt><trkpt lat="38.09371325862369" lon="13.339163060361923"><ele>77.0</ele><time>2026-04-09T07:51:41Z</time></trkpt><trkpt lat="38.09361094688199" lon="13.339279737013698"><ele>77.0</ele><time>2026-04-09T07:51:42Z</time></trkpt><trkpt lat="38.093517544743584" lon="13.339412605615628"><ele>77.0</ele><time>2026-04-09T07:51:43Z</time></trkpt><trkpt lat="38.09342280511517" lon="13.339540137741059"><ele>77.0</ele><time>2026-04-09T07:51:44Z</time></trkpt><trkpt lat="38.09332994999493" lon="13.33967207730589"><ele>77.0</ele><time>2026-04-09T07:51:45Z</time></trkpt><trkpt lat="38.093233289961205" lon="13.339805630527414"><ele>77.0</ele><time>2026-04-09T07:51:46Z</time></trkpt><trkpt lat="38.09314005534903" lon="13.339938458570698"><ele>77.0</ele><time>2026-04-09T07:51:47Z</time></trkpt><trkpt lat="38.093046632850374" lon="13.340071077648206"><ele>75.33333333333334</ele><time>2026-04-09T07:51:48Z</time></trkpt><trkpt lat="38.092948167783575" lon="13.340201244241522"><ele>73.66666666666667</ele><time>2026-04-09T07:51:49Z</time></trkpt><trkpt lat="38.09284804310049" lon="13.340350050502597"><ele>72.0</ele><time>2026-04-09T07:51:50Z</time></trkpt><trkpt lat="38.09273630524387" lon="13.340522560293754"><ele>72.33333333333333</ele><time>2026-04-09T07:51:51Z</time></trkpt><trkpt lat="38.09260603469627" lon="13.340700610940765"><ele>72.66666666666666</ele><time>2026-04-09T07:51:52Z</time></trkpt><trkpt lat="38.092467297288366" lon="13.340874773923703"><ele>73.0</ele><time>2026-04-09T07:51:53Z</time></trkpt><trkpt lat="38.09231452307789" lon="13.34107506702098"><ele>73.33333333333333</ele><time>2026-04-09T07:51:54Z</time></trkpt><trkpt lat="38.09216814735196" lon="13.341270530845051"><ele>73.66666666666667</ele><time>2026-04-09T07:51:55Z</time></trkpt><trkpt lat="38.09202289853337" lon="13.34146976477776"><ele>74.0</ele><time>2026-04-09T07:51:56Z</time></trkpt><trkpt lat="38.0918791765968" lon="13.341668022822748"><ele>74.0</ele><time>2026-04-09T07:51:57Z</time></trkpt><trkpt lat="38.09173836351387" lon="13.341858951648238"><ele>74.0</ele><time>2026-04-09T07:51:58Z</time></trkpt><trkpt lat="38.091601727741725" lon="13.34204821712698"><ele>74.0</ele><time>2026-04-09T07:51:59Z</time></trkpt><trkpt lat="38.09146720375791" lon="13.342235097435193"><ele>74.66666666666667</ele><time>2026-04-09T07:52:00Z</time></trkpt><trkpt lat="38.09133504063705" lon="13.34241968992896"><ele>75.33333333333333</ele><time>2026-04-09T07:52:01Z</time></trkpt><trkpt lat="38.0912069210575" lon="13.342600325672601"><ele>76.0</ele><time>2026-04-09T07:52:02Z</time></trkpt><trkpt lat="38.09107845381216" lon="13.342777690729703"><ele>76.0</ele><time>2026-04-09T07:52:03Z</time></trkpt><trkpt lat="38.09095089671226" lon="13.342952292736836"><ele>76.0</ele><time>2026-04-09T07:52:04Z</time></trkpt><trkpt lat="38.0908249025409" lon="13.343127258593718"><ele>76.0</ele><time>2026-04-09T07:52:05Z</time></trkpt><trkpt lat="38.09070327054" lon="13.343299019669141"><ele>74.66666666666666</ele><time>2026-04-09T07:52:06Z</time></trkpt><trkpt lat="38.090581054274786" lon="13.343470457050017"><ele>73.33333333333333</ele><time>2026-04-09T07:52:07Z</time></trkpt><trkpt lat="38.0904615173498" lon="13.343647445162674"><ele>72.0</ele><time>2026-04-09T07:52:08Z</time></trkpt><trkpt lat="38.09033792074828" lon="13.343832679819167"><ele>68.66666666666667</ele><time>2026-04-09T07:52:09Z</time></trkpt><trkpt lat="38.090209653916844" lon="13.34401494469444"><ele>65.33333333333334</ele><time>2026-04-09T07:52:10Z</time></trkpt><trkpt lat="38.09007461005034" lon="13.344195544332777"><ele>62.0</ele><time>2026-04-09T07:52:11Z</time></trkpt><trkpt lat="38.08994048372524" lon="13.344378676634816"><ele>60.0</ele><time>2026-04-09T07:52:12Z</time></trkpt><trkpt lat="38.089804527418366" lon="13.344561295950621"><ele>58.0</ele><time>2026-04-09T07:52:13Z</time></trkpt><trkpt lat="38.0896697529986" lon="13.344743699177492"><ele>56.0</ele><time>2026-04-09T07:52:14Z</time></trkpt><trkpt lat="38.08954034454225" lon="13.34491929880194"><ele>61.333333333333336</ele><time>2026-04-09T07:52:15Z</time></trkpt><trkpt lat="38.08941718029625" lon="13.345083844323401"><ele>66.66666666666667</ele><time>2026-04-09T07:52:16Z</time></trkpt><trkpt lat="38.08930247530691" lon="13.34523984153815"><ele>72.0</ele><time>2026-04-09T07:52:17Z</time></trkpt><trkpt lat="38.089186850286815" lon="13.345392767776268"><ele>72.66666666666667</ele><time>2026-04-09T07:52:18Z</time></trkpt><trkpt lat="38.08907452871564" lon="13.345547863582404"><ele>73.33333333333334</ele><time>2026-04-09T07:52:19Z</time></trkpt><trkpt lat="38.088956840589915" lon="13.34570919349447"><ele>74.0</ele><time>2026-04-09T07:52:20Z</time></trkpt><trkpt lat="38.08883653043667" lon="13.345872275595767"><ele>74.0</ele><time>2026-04-09T07:52:21Z</time></trkpt><trkpt lat="38.08870242179362" lon="13.346040429988541"><ele>74.0</ele><time>2026-04-09T07:52:22Z</time></trkpt><trkpt lat="38.08855720691877" lon="13.346222523201742"><ele>74.0</ele><time>2026-04-09T07:52:23Z</time></trkpt><trkpt lat="38.08839581556777" lon="13.346429953009103"><ele>75.0</ele><time>2026-04-09T07:52:24Z</time></trkpt><trkpt lat="38.08823658918856" lon="13.34666240690698"><ele>76.0</ele><time>2026-04-09T07:52:25Z</time></trkpt><trkpt lat="38.08807817994428" lon="13.346893016094203"><ele>76.0</ele><time>2026-04-09T07:52:26Z</time></trkpt><trkpt lat="38.087911692322876" lon="13.347140128874186"><ele>76.0</ele><time>2026-04-09T07:52:27Z</time></trkpt><trkpt lat="38.08773979025455" lon="13.34740914260891"><ele>76.5</ele><time>2026-04-09T07:52:28Z</time></trkpt><trkpt lat="38.08756934653841" lon="13.34769221538693"><ele>77.0</ele><time>2026-04-09T07:52:29Z</time></trkpt><trkpt lat="38.08740921045308" lon="13.347983528130644"><ele>78.0</ele><time>2026-04-09T07:52:30Z</time></trkpt><trkpt lat="38.08725926830858" lon="13.348276981438609"><ele>79.0</ele><time>2026-04-09T07:52:31Z</time></trkpt><trkpt lat="38.087121271033126" lon="13.348571350508578"><ele>79.0</ele><time>2026-04-09T07:52:32Z</time></trkpt><trkpt lat="38.08699272466503" lon="13.348864832758071"><ele>79.0</ele><time>2026-04-09T07:52:33Z</time></trkpt><trkpt lat="38.086872464368646" lon="13.349158295516252"><ele>77.5</ele><time>2026-04-09T07:52:34Z</time></trkpt><trkpt lat="38.086757505456426" lon="13.349449598355191"><ele>76.0</ele><time>2026-04-09T07:52:35Z</time></trkpt><trkpt lat="38.08664443626998" lon="13.349741101615736"><ele>76.0</ele><time>2026-04-09T07:52:36Z</time></trkpt><trkpt lat="38.08654243341113" lon="13.350024987714358"><ele>76.0</ele><time>2026-04-09T07:52:37Z</time></trkpt><trkpt lat="38.08645108593918" lon="13.350306007045313"><ele>75.0</ele><time>2026-04-09T07:52:38Z</time></trkpt><trkpt lat="38.086371110649914" lon="13.350588137767861"><ele>74.0</ele><time>2026-04-09T07:52:39Z</time></trkpt><trkpt lat="38.08630475889045" lon="13.350860467837228"><ele>74.0</ele><time>2026-04-09T07:52:40Z</time></trkpt><trkpt lat="38.08625543308486" lon="13.351137566439702"><ele>74.0</ele><time>2026-04-09T07:52:41Z</time></trkpt><trkpt lat="38.08622955568912" lon="13.351421930965458"><ele>74.0</ele><time>2026-04-09T07:52:42Z</time></trkpt><trkpt lat="38.0862208975424" lon="13.351709303263554"><ele>74.0</ele><time>2026-04-09T07:52:43Z</time></trkpt><trkpt lat="38.08622440477385" lon="13.351993085980252"><ele>74.0</ele><time>2026-04-09T07:52:44Z</time></trkpt><trkpt lat="38.08623184284327" lon="13.352271872181669"><ele>74.0</ele><time>2026-04-09T07:52:45Z</time></trkpt><trkpt lat="38.08624782252366" lon="13.352548370087778"><ele>74.0</ele><time>2026-04-09T07:52:46Z</time></trkpt><trkpt lat="38.08625991523745" lon="13.352832875595007"><ele>74.0</ele><time>2026-04-09T07:52:47Z</time></trkpt><trkpt lat="38.086286971293255" lon="13.353113950621305"><ele>74.0</ele><time>2026-04-09T07:52:48Z</time></trkpt><trkpt lat="38.08629433932869" lon="13.353401276899335"><ele>73.66666666666667</ele><time>2026-04-09T07:52:49Z</time></trkpt><trkpt lat="38.0863588445039" lon="13.353678261094084"><ele>73.33333333333333</ele><time>2026-04-09T07:52:50Z</time></trkpt><trkpt lat="38.08640008830395" lon="13.353937678478275"><ele>73.0</ele><time>2026-04-09T07:52:51Z</time></trkpt><trkpt lat="38.08643442593908" lon="13.354186063207775"><ele>73.0</ele><time>2026-04-09T07:52:52Z</time></trkpt><trkpt lat="38.086472459433985" lon="13.354430008727013"><ele>73.0</ele><time>2026-04-09T07:52:53Z</time></trkpt><trkpt lat="38.0865083913865" lon="13.35467637463738"><ele>73.0</ele><time>2026-04-09T07:52:54Z</time></trkpt><trkpt lat="38.08654615687598" lon="13.354916820305219"><ele>73.0</ele><time>2026-04-09T07:52:55Z</time></trkpt><trkpt lat="38.086585342713114" lon="13.355162987922236"><ele>73.0</ele><time>2026-04-09T07:52:56Z</time></trkpt><trkpt lat="38.08662608057003" lon="13.355411531955687"><ele>73.0</ele><time>2026-04-09T07:52:57Z</time></trkpt><trkpt lat="38.086665946667715" lon="13.355653926751955"><ele>71.66666666666666</ele><time>2026-04-09T07:52:58Z</time></trkpt><trkpt lat="38.086704516149425" lon="13.355897221309368"><ele>70.33333333333333</ele><time>2026-04-09T07:52:59Z</time></trkpt><trkpt lat="38.0867427057644" lon="13.356135575060604"><ele>69.0</ele><time>2026-04-09T07:53:00Z</time></trkpt><trkpt lat="38.08678396118654" lon="13.356368945093138"><ele>69.33333333333333</ele><time>2026-04-09T07:53:01Z</time></trkpt><trkpt lat="38.08682790554198" lon="13.356604227984214"><ele>69.66666666666666</ele><time>2026-04-09T07:53:02Z</time></trkpt><trkpt lat="38.08686767103594" lon="13.35683819451674"><ele>70.0</ele><time>2026-04-09T07:53:03Z</time></trkpt><trkpt lat="38.08690730558209" lon="13.357073924761357"><ele>69.66666666666666</ele><time>2026-04-09T07:53:04Z</time></trkpt><trkpt lat="38.08694368039899" lon="13.35731384277041"><ele>69.33333333333333</ele><time>2026-04-09T07:53:05Z</time></trkpt><trkpt lat="38.0869828782968" lon="13.357556832150689"><ele>69.0</ele><time>2026-04-09T07:53:05.999Z</time></trkpt><trkpt lat="38.08702106240857" lon="13.357794714962264"><ele>68.66666666666667</ele><time>2026-04-09T07:53:06.999Z</time></trkpt><trkpt lat="38.08705981892596" lon="13.358037121783347"><ele>68.33333333333334</ele><time>2026-04-09T07:53:07.999Z</time></trkpt><trkpt lat="38.087095880695664" lon="13.358280265172613"><ele>68.0</ele><time>2026-04-09T07:53:08.999Z</time></trkpt><trkpt lat="38.087131945817056" lon="13.358521504333924"><ele>68.0</ele><time>2026-04-09T07:53:09.999Z</time></trkpt><trkpt lat="38.087170039578346" lon="13.358764035135817"><ele>68.0</ele><time>2026-04-09T07:53:10.999Z</time></trkpt><trkpt lat="38.08720467032297" lon="13.358999218329204"><ele>68.0</ele><time>2026-04-09T07:53:11.999Z</time></trkpt><trkpt lat="38.08723994122462" lon="13.359234106405866"><ele>67.33333333333334</ele><time>2026-04-09T07:53:12.999Z</time></trkpt><trkpt lat="38.08727183702026" lon="13.359473866230422"><ele>66.66666666666667</ele><time>2026-04-09T07:53:13.999Z</time></trkpt><trkpt lat="38.087308458814725" lon="13.359713854257944"><ele>66.0</ele><time>2026-04-09T07:53:14.999Z</time></trkpt><trkpt lat="38.08734592315669" lon="13.359948872785209"><ele>66.0</ele><time>2026-04-09T07:53:15.999Z</time></trkpt><trkpt lat="38.087380713686116" lon="13.360173860434188"><ele>66.0</ele><time>2026-04-09T07:53:16.999Z</time></trkpt><trkpt lat="38.087413803264134" lon="13.360388833250799"><ele>66.0</ele><time>2026-04-09T07:53:17.999Z</time></trkpt><trkpt lat="38.08744601117718" lon="13.360595855338818"><ele>64.33333333333333</ele><time>2026-04-09T07:53:18.999Z</time></trkpt><trkpt lat="38.0874819444698" lon="13.360782614415303"><ele>62.666666666666664</ele><time>2026-04-09T07:53:19.999Z</time></trkpt><trkpt lat="38.08751601042659" lon="13.360969178995042"><ele>61.0</ele><time>2026-04-09T07:53:20.999Z</time></trkpt><trkpt lat="38.08754977268942" lon="13.361155981442183"><ele>61.0</ele><time>2026-04-09T07:53:21.999Z</time></trkpt><trkpt lat="38.087580511452146" lon="13.361339923649581"><ele>61.0</ele><time>2026-04-09T07:53:22.999Z</time></trkpt><trkpt lat="38.087613435070544" lon="13.361529594829886"><ele>61.0</ele><time>2026-04-09T07:53:23.999Z</time></trkpt><trkpt lat="38.08764109992495" lon="13.361724939115177"><ele>61.0</ele><time>2026-04-09T07:53:24.999Z</time></trkpt><trkpt lat="38.08767361336057" lon="13.361936960946508"><ele>61.0</ele><time>2026-04-09T07:53:25.999Z</time></trkpt><trkpt lat="38.087709669941546" lon="13.362182418418827"><ele>61.0</ele><time>2026-04-09T07:53:26.999Z</time></trkpt><trkpt lat="38.08775059134133" lon="13.362451781069439"><ele>60.5</ele><time>2026-04-09T07:53:27.999Z</time></trkpt><trkpt lat="38.08779367177507" lon="13.362735042254698"><ele>60.0</ele><time>2026-04-09T07:53:28.999Z</time></trkpt><trkpt lat="38.08783786162352" lon="13.363033366961117"><ele>60.0</ele><time>2026-04-09T07:53:29.999Z</time></trkpt><trkpt lat="38.087886009755124" lon="13.363346680294226"><ele>60.0</ele><time>2026-04-09T07:53:30.999Z</time></trkpt><trkpt lat="38.08793018428458" lon="13.36365492299203"><ele>59.0</ele><time>2026-04-09T07:53:31.999Z</time></trkpt><trkpt lat="38.08798785003739" lon="13.363969188961603"><ele>58.0</ele><time>2026-04-09T07:53:32.999Z</time></trkpt><trkpt lat="38.08804800352576" lon="13.364302498161097"><ele>58.0</ele><time>2026-04-09T07:53:33.999Z</time></trkpt><trkpt lat="38.0881015778413" lon="13.364609243263702"><ele>58.0</ele><time>2026-04-09T07:53:34.999Z</time></trkpt><trkpt lat="38.088147070927086" lon="13.364906132520332"><ele>58.0</ele><time>2026-04-09T07:53:35.999Z</time></trkpt><trkpt lat="38.08819435332752" lon="13.365203148218779"><ele>58.0</ele><time>2026-04-09T07:53:36.999Z</time></trkpt><trkpt lat="38.08823814319876" lon="13.365485061052855"><ele>57.666666666666664</ele><time>2026-04-09T07:53:37.999Z</time></trkpt><trkpt lat="38.08828244027971" lon="13.365749060572883"><ele>57.33333333333333</ele><time>2026-04-09T07:53:38.999Z</time></trkpt><trkpt lat="38.088322191974214" lon="13.366007115541704"><ele>57.0</ele><time>2026-04-09T07:53:39.999Z</time></trkpt><trkpt lat="38.08835890009079" lon="13.366252826786555"><ele>57.0</ele><time>2026-04-09T07:53:40.999Z</time></trkpt><trkpt lat="38.08839856869478" lon="13.366498946070259"><ele>57.0</ele><time>2026-04-09T07:53:41.999Z</time></trkpt><trkpt lat="38.088440455869865" lon="13.36674392649587"><ele>57.0</ele><time>2026-04-09T07:53:42.999Z</time></trkpt><trkpt lat="38.088486980747284" lon="13.366986917564072"><ele>56.66666666666667</ele><time>2026-04-09T07:53:43.999Z</time></trkpt><trkpt lat="38.08852637437011" lon="13.367229169028223"><ele>56.333333333333336</ele><time>2026-04-09T07:53:44.999Z</time></trkpt><trkpt lat="38.08856194045172" lon="13.36748217333166"><ele>56.0</ele><time>2026-04-09T07:53:45.999Z</time></trkpt><trkpt lat="38.088596487826514" lon="13.36774941915123"><ele>55.0</ele><time>2026-04-09T07:53:47Z</time></trkpt><trkpt lat="38.08863538723834" lon="13.368033355604263"><ele>54.0</ele><time>2026-04-09T07:53:48Z</time></trkpt><trkpt lat="38.08868160124348" lon="13.368335972110554"><ele>54.0</ele><time>2026-04-09T07:53:49Z</time></trkpt><trkpt lat="38.0887349487319" lon="13.368628103900338"><ele>54.0</ele><time>2026-04-09T07:53:50Z</time></trkpt><trkpt lat="38.0887938801735" lon="13.368939533055512"><ele>53.5</ele><time>2026-04-09T07:53:51Z</time></trkpt><trkpt lat="38.08886016769179" lon="13.369253997054734"><ele>53.0</ele><time>2026-04-09T07:53:52Z</time></trkpt><trkpt lat="38.08892837194368" lon="13.369570131054077"><ele>53.0</ele><time>2026-04-09T07:53:53Z</time></trkpt><trkpt lat="38.089002940482935" lon="13.36988600202191"><ele>53.0</ele><time>2026-04-09T07:53:54Z</time></trkpt><trkpt lat="38.089083197319205" lon="13.370193062954636"><ele>52.5</ele><time>2026-04-09T07:53:55Z</time></trkpt><trkpt lat="38.08916466264662" lon="13.37050260847351"><ele>52.0</ele><time>2026-04-09T07:53:56Z</time></trkpt><trkpt lat="38.089200736719086" lon="13.370765689172217"><ele>51.5</ele><time>2026-04-09T07:53:57Z</time></trkpt><trkpt lat="38.08926299399756" lon="13.37105386131573"><ele>51.0</ele><time>2026-04-09T07:53:58Z</time></trkpt><trkpt lat="38.08932633455333" lon="13.371334887376682"><ele>51.0</ele><time>2026-04-09T07:53:59Z</time></trkpt><trkpt lat="38.089384176092715" lon="13.371616956628088"><ele>51.0</ele><time>2026-04-09T07:54:00Z</time></trkpt><trkpt lat="38.08944303689532" lon="13.371894984994594"><ele>51.0</ele><time>2026-04-09T07:54:01Z</time></trkpt><trkpt lat="38.08950059940201" lon="13.37217204009073"><ele>51.0</ele><time>2026-04-09T07:54:02Z</time></trkpt><trkpt lat="38.089558050631624" lon="13.372429052817695"><ele>51.0</ele><time>2026-04-09T07:54:03Z</time></trkpt><trkpt lat="38.08961380079099" lon="13.372674966964135"><ele>50.66666666666667</ele><time>2026-04-09T07:54:04Z</time></trkpt><trkpt lat="38.089662008410066" lon="13.372920489245544"><ele>50.333333333333336</ele><time>2026-04-09T07:54:05Z</time></trkpt><trkpt lat="38.089716806426196" lon="13.37315684958653"><ele>50.0</ele><time>2026-04-09T07:54:06Z</time></trkpt><trkpt lat="38.08976961269294" lon="13.373387361341393"><ele>50.0</ele><time>2026-04-09T07:54:07Z</time></trkpt><trkpt lat="38.08982171098343" lon="13.37361974072908"><ele>50.0</ele><time>2026-04-09T07:54:08Z</time></trkpt><trkpt lat="38.08987585583495" lon="13.373857251009262"><ele>50.0</ele><time>2026-04-09T07:54:09Z</time></trkpt><trkpt lat="38.08993611131601" lon="13.374104677339938"><ele>49.333333333333336</ele><time>2026-04-09T07:54:10Z</time></trkpt><trkpt lat="38.08999383688984" lon="13.374356723956002"><ele>48.66666666666667</ele><time>2026-04-09T07:54:11Z</time></trkpt><trkpt lat="38.09005453940385" lon="13.37461208392242"><ele>48.0</ele><time>2026-04-09T07:54:12Z</time></trkpt><trkpt lat="38.090107218924416" lon="13.374879810702078"><ele>47.5</ele><time>2026-04-09T07:54:13Z</time></trkpt><trkpt lat="38.09016550564039" lon="13.375172911569786"><ele>47.0</ele><time>2026-04-09T07:54:14Z</time></trkpt><trkpt lat="38.090226350970845" lon="13.375484891136818"><ele>46.0</ele><time>2026-04-09T07:54:15Z</time></trkpt><trkpt lat="38.090283837195756" lon="13.375777669089025"><ele>45.0</ele><time>2026-04-09T07:54:16Z</time></trkpt><trkpt lat="38.09034480170492" lon="13.376059758920478"><ele>45.0</ele><time>2026-04-09T07:54:17Z</time></trkpt><trkpt lat="38.090410453821846" lon="13.376341999713736"><ele>45.0</ele><time>2026-04-09T07:54:18Z</time></trkpt><trkpt lat="38.09046304957673" lon="13.376612010513332"><ele>44.333333333333336</ele><time>2026-04-09T07:54:19Z</time></trkpt><trkpt lat="38.09052088870281" lon="13.376872335129242"><ele>43.66666666666667</ele><time>2026-04-09T07:54:20Z</time></trkpt><trkpt lat="38.090571738099925" lon="13.3771204548719"><ele>43.0</ele><time>2026-04-09T07:54:21Z</time></trkpt><trkpt lat="38.09062421511507" lon="13.37736017460532"><ele>43.0</ele><time>2026-04-09T07:54:22Z</time></trkpt><trkpt lat="38.09067942201239" lon="13.377601314749889"><ele>43.0</ele><time>2026-04-09T07:54:23Z</time></trkpt><trkpt lat="38.090730430689234" lon="13.377847969645808"><ele>43.0</ele><time>2026-04-09T07:54:24Z</time></trkpt><trkpt lat="38.090785693503356" lon="13.378093436603319"><ele>42.333333333333336</ele><time>2026-04-09T07:54:25Z</time></trkpt><trkpt lat="38.090837064384715" lon="13.378343749958862"><ele>41.666666666666664</ele><time>2026-04-09T07:54:26Z</time></trkpt><trkpt lat="38.090875126877435" lon="13.378597037132055"><ele>41.0</ele><time>2026-04-09T07:54:27Z</time></trkpt><trkpt lat="38.090901262406845" lon="13.37885330270275"><ele>40.33333333333333</ele><time>2026-04-09T07:54:28Z</time></trkpt><trkpt lat="38.0909125486342" lon="13.379119000674097"><ele>39.666666666666664</ele><time>2026-04-09T07:54:29Z</time></trkpt><trkpt lat="38.0909170410676" lon="13.379386688210436"><ele>39.0</ele><time>2026-04-09T07:54:30Z</time></trkpt><trkpt lat="38.09091707900975" lon="13.379652386405278"><ele>38.333333333333336</ele><time>2026-04-09T07:54:31Z</time></trkpt><trkpt lat="38.09090973470123" lon="13.379921496084584"><ele>37.66666666666667</ele><time>2026-04-09T07:54:32Z</time></trkpt><trkpt lat="38.09089373455331" lon="13.380190922649358"><ele>37.0</ele><time>2026-04-09T07:54:33Z</time></trkpt><trkpt lat="38.09086647452962" lon="13.380487995512459"><ele>37.0</ele><time>2026-04-09T07:54:34Z</time></trkpt><trkpt lat="38.09083016948661" lon="13.38079468311573"><ele>37.0</ele><time>2026-04-09T07:54:35Z</time></trkpt><trkpt lat="38.090682270776114" lon="13.381083114022378"><ele>36.0</ele><time>2026-04-09T07:54:36Z</time></trkpt><trkpt lat="38.090649398118956" lon="13.381384667881898"><ele>35.0</ele><time>2026-04-09T07:54:37Z</time></trkpt><trkpt lat="38.09064353725036" lon="13.381689531751874"><ele>35.0</ele><time>2026-04-09T07:54:38Z</time></trkpt><trkpt lat="38.09055341089515" lon="13.381981337444689"><ele>35.0</ele><time>2026-04-09T07:54:39Z</time></trkpt><trkpt lat="38.090446195343716" lon="13.38228535988054"><ele>35.0</ele><time>2026-04-09T07:54:40Z</time></trkpt><trkpt lat="38.09033151104811" lon="13.382598784273767"><ele>35.0</ele><time>2026-04-09T07:54:41Z</time></trkpt><trkpt lat="38.09021773087202" lon="13.382900429903009"><ele>34.5</ele><time>2026-04-09T07:54:42Z</time></trkpt><trkpt lat="38.09011079152103" lon="13.383180218262185"><ele>34.0</ele><time>2026-04-09T07:54:43Z</time></trkpt><trkpt lat="38.090009215629166" lon="13.38345058008181"><ele>33.5</ele><time>2026-04-09T07:54:44Z</time></trkpt><trkpt lat="38.08990879665425" lon="13.383723715200304"><ele>33.0</ele><time>2026-04-09T07:54:45Z</time></trkpt><trkpt lat="38.08980827502996" lon="13.384003688144878"><ele>32.0</ele><time>2026-04-09T07:54:46Z</time></trkpt><trkpt lat="38.08970608340371" lon="13.384287670999509"><ele>31.0</ele><time>2026-04-09T07:54:47Z</time></trkpt><trkpt lat="38.0896064328832" lon="13.384566408839149"><ele>29.5</ele><time>2026-04-09T07:54:48Z</time></trkpt><trkpt lat="38.089506709508676" lon="13.384843367602429"><ele>28.0</ele><time>2026-04-09T07:54:49Z</time></trkpt><trkpt lat="38.08940531201834" lon="13.385118192339691"><ele>28.0</ele><time>2026-04-09T07:54:50Z</time></trkpt><trkpt lat="38.089317688150004" lon="13.385398597924398"><ele>28.0</ele><time>2026-04-09T07:54:51Z</time></trkpt><trkpt lat="38.08922927908641" lon="13.385674960304486"><ele>28.5</ele><time>2026-04-09T07:54:52Z</time></trkpt><trkpt lat="38.08913729908088" lon="13.385954003659991"><ele>29.0</ele><time>2026-04-09T07:54:53Z</time></trkpt><trkpt lat="38.08904790861341" lon="13.386241304140782"><ele>33.0</ele><time>2026-04-09T07:54:54Z</time></trkpt><trkpt lat="38.08896612299988" lon="13.386528733352723"><ele>37.0</ele><time>2026-04-09T07:54:55Z</time></trkpt><trkpt lat="38.08889035428985" lon="13.386816811623627"><ele>37.0</ele><time>2026-04-09T07:54:56Z</time></trkpt><trkpt lat="38.08881563685307" lon="13.387103287262402"><ele>37.0</ele><time>2026-04-09T07:54:57Z</time></trkpt><trkpt lat="38.08874606340452" lon="13.387389425570909"><ele>39.0</ele><time>2026-04-09T07:54:58Z</time></trkpt><trkpt lat="38.088682608234855" lon="13.387671330604743"><ele>41.0</ele><time>2026-04-09T07:54:59Z</time></trkpt><trkpt lat="38.08862461542909" lon="13.38794761207634"><ele>39.5</ele><time>2026-04-09T07:55:00Z</time></trkpt><trkpt lat="38.08856689416849" lon="13.388227993687522"><ele>38.0</ele><time>2026-04-09T07:55:01Z</time></trkpt><trkpt lat="38.08850952865384" lon="13.38850742934438"><ele>38.0</ele><time>2026-04-09T07:55:02Z</time></trkpt><trkpt lat="38.088453561413246" lon="13.38878222809822"><ele>38.0</ele><time>2026-04-09T07:55:03Z</time></trkpt><trkpt lat="38.088393067821954" lon="13.389055976980671"><ele>38.0</ele><time>2026-04-09T07:55:04Z</time></trkpt><trkpt lat="38.08832215765534" lon="13.389337141959807"><ele>36.0</ele><time>2026-04-09T07:55:05Z</time></trkpt><trkpt lat="38.08824766720713" lon="13.389646316032794"><ele>34.0</ele><time>2026-04-09T07:55:06Z</time></trkpt><trkpt lat="38.088174847442936" lon="13.389984196585779"><ele>34.0</ele><time>2026-04-09T07:55:07Z</time></trkpt><trkpt lat="38.08810470139515" lon="13.390336306728948"><ele>34.0</ele><time>2026-04-09T07:55:08Z</time></trkpt><trkpt lat="38.088033874971025" lon="13.390690154840152"><ele>32.5</ele><time>2026-04-09T07:55:09Z</time></trkpt><trkpt lat="38.08796300825524" lon="13.391046400695199"><ele>31.0</ele><time>2026-04-09T07:55:10Z</time></trkpt><trkpt lat="38.08789256834493" lon="13.391396451008452"><ele>30.0</ele><time>2026-04-09T07:55:11Z</time></trkpt><trkpt lat="38.087821892342944" lon="13.391743025547077"><ele>29.0</ele><time>2026-04-09T07:55:12Z</time></trkpt><trkpt lat="38.08775299352602" lon="13.39208414334265"><ele>30.0</ele><time>2026-04-09T07:55:13Z</time></trkpt><trkpt lat="38.08768997380431" lon="13.392419361834882"><ele>31.0</ele><time>2026-04-09T07:55:14Z</time></trkpt><trkpt lat="38.0876305919817" lon="13.392744455095848"><ele>31.0</ele><time>2026-04-09T07:55:15Z</time></trkpt><trkpt lat="38.087570950024016" lon="13.393064892602116"><ele>31.0</ele><time>2026-04-09T07:55:16Z</time></trkpt><trkpt lat="38.087515782923" lon="13.393378414355823"><ele>31.0</ele><time>2026-04-09T07:55:17Z</time></trkpt><trkpt lat="38.087466961038885" lon="13.393691012386991"><ele>31.0</ele><time>2026-04-09T07:55:18Z</time></trkpt><trkpt lat="38.08742235640928" lon="13.39400212405582"><ele>30.5</ele><time>2026-04-09T07:55:19Z</time></trkpt><trkpt lat="38.087382443051006" lon="13.394320716250183"><ele>30.0</ele><time>2026-04-09T07:55:20Z</time></trkpt><trkpt lat="38.08734730362364" lon="13.39464263813585"><ele>30.5</ele><time>2026-04-09T07:55:21Z</time></trkpt><trkpt lat="38.08731419106081" lon="13.394974494632581"><ele>31.0</ele><time>2026-04-09T07:55:22Z</time></trkpt><trkpt lat="38.08728205997034" lon="13.395306868584829"><ele>31.5</ele><time>2026-04-09T07:55:22.999Z</time></trkpt><trkpt lat="38.0872560553457" lon="13.395643929066939"><ele>32.0</ele><time>2026-04-09T07:55:23.999Z</time></trkpt><trkpt lat="38.08723216410391" lon="13.395980191823213"><ele>32.0</ele><time>2026-04-09T07:55:24.999Z</time></trkpt><trkpt lat="38.08720628835409" lon="13.396311239854416"><ele>32.0</ele><time>2026-04-09T07:55:25.999Z</time></trkpt><trkpt lat="38.08717837547739" lon="13.396640661780225"><ele>32.5</ele><time>2026-04-09T07:55:26.999Z</time></trkpt><trkpt lat="38.08714940548817" lon="13.396968141505806"><ele>33.0</ele><time>2026-04-09T07:55:27.999Z</time></trkpt><trkpt lat="38.08712156205173" lon="13.397299777064479"><ele>33.5</ele><time>2026-04-09T07:55:28.999Z</time></trkpt><trkpt lat="38.08709142953059" lon="13.39764781965469"><ele>34.0</ele><time>2026-04-09T07:55:29.999Z</time></trkpt><trkpt lat="38.08706188869916" lon="13.398013453640342"><ele>32.5</ele><time>2026-04-09T07:55:30.999Z</time></trkpt><trkpt lat="38.08702545249721" lon="13.39839585478721"><ele>31.0</ele><time>2026-04-09T07:55:31.999Z</time></trkpt><trkpt lat="38.086994646792434" lon="13.398790764060152"><ele>30.5</ele><time>2026-04-09T07:55:32.999Z</time></trkpt><trkpt lat="38.08696399338143" lon="13.399197631900392"><ele>30.0</ele><time>2026-04-09T07:55:33.999Z</time></trkpt><trkpt lat="38.08692777373169" lon="13.39960997341613"><ele>30.0</ele><time>2026-04-09T07:55:34.999Z</time></trkpt><trkpt lat="38.086884093220746" lon="13.400038181008812"><ele>30.0</ele><time>2026-04-09T07:55:35.999Z</time></trkpt><trkpt lat="38.086842981140904" lon="13.400460256794913"><ele>29.5</ele><time>2026-04-09T07:55:36.999Z</time></trkpt><trkpt lat="38.08680299143524" lon="13.400885276646237"><ele>29.0</ele><time>2026-04-09T07:55:37.999Z</time></trkpt><trkpt lat="38.08676735593976" lon="13.401301881086813"><ele>30.5</ele><time>2026-04-09T07:55:38.999Z</time></trkpt><trkpt lat="38.086729031347176" lon="13.401722754939112"><ele>32.0</ele><time>2026-04-09T07:55:39.999Z</time></trkpt><trkpt lat="38.0866907230785" lon="13.402136647751549"><ele>32.0</ele><time>2026-04-09T07:55:40.999Z</time></trkpt><trkpt lat="38.08665382848731" lon="13.40254877248548"><ele>32.0</ele><time>2026-04-09T07:55:41.999Z</time></trkpt><trkpt lat="38.08661761265374" lon="13.402957267214486"><ele>32.5</ele><time>2026-04-09T07:55:42.999Z</time></trkpt><trkpt lat="38.0865826392928" lon="13.40336132032795"><ele>33.0</ele><time>2026-04-09T07:55:43.999Z</time></trkpt><trkpt lat="38.08655025107236" lon="13.403762226848887"><ele>32.5</ele><time>2026-04-09T07:55:44.999Z</time></trkpt><trkpt lat="38.08651812766571" lon="13.404158316370884"><ele>32.0</ele><time>2026-04-09T07:55:45.999Z</time></trkpt><trkpt lat="38.08648509605345" lon="13.404553690604684"><ele>32.0</ele><time>2026-04-09T07:55:46.999Z</time></trkpt><trkpt lat="38.08645147598386" lon="13.404945562418611"><ele>32.0</ele><time>2026-04-09T07:55:47.999Z</time></trkpt><trkpt lat="38.08641469366152" lon="13.405345898890445"><ele>31.0</ele><time>2026-04-09T07:55:48.999Z</time></trkpt><trkpt lat="38.086385652631456" lon="13.405734891716989"><ele>30.0</ele><time>2026-04-09T07:55:49.999Z</time></trkpt><trkpt lat="38.08635190055848" lon="13.406126224890773"><ele>30.5</ele><time>2026-04-09T07:55:50.999Z</time></trkpt><trkpt lat="38.0863219967733" lon="13.406518948397418"><ele>31.0</ele><time>2026-04-09T07:55:51.999Z</time></trkpt><trkpt lat="38.08629143446739" lon="13.406909624447685"><ele>31.0</ele><time>2026-04-09T07:55:53Z</time></trkpt><trkpt lat="38.08626108695106" lon="13.40730177893012"><ele>31.0</ele><time>2026-04-09T07:55:54Z</time></trkpt><trkpt lat="38.086227774010496" lon="13.407690416489809"><ele>31.0</ele><time>2026-04-09T07:55:55Z</time></trkpt><trkpt lat="38.086193064587604" lon="13.408079706632469"><ele>31.0</ele><time>2026-04-09T07:55:56Z</time></trkpt><trkpt lat="38.08615712469145" lon="13.408467760885449"><ele>31.5</ele><time>2026-04-09T07:55:57Z</time></trkpt><trkpt lat="38.08612423516706" lon="13.408857477680296"><ele>32.0</ele><time>2026-04-09T07:55:58Z</time></trkpt><trkpt lat="38.08609152602102" lon="13.40924152065829"><ele>32.0</ele><time>2026-04-09T07:55:59Z</time></trkpt><trkpt lat="38.08605700797265" lon="13.40962299161241"><ele>32.0</ele><time>2026-04-09T07:56:00Z</time></trkpt><trkpt lat="38.08602095123616" lon="13.410003338262307"><ele>31.0</ele><time>2026-04-09T07:56:01Z</time></trkpt><trkpt lat="38.0859832248252" lon="13.41038705621527"><ele>30.0</ele><time>2026-04-09T07:56:02Z</time></trkpt><trkpt lat="38.085947584664254" lon="13.41076610477893"><ele>29.5</ele><time>2026-04-09T07:56:03Z</time></trkpt><trkpt lat="38.08591289181702" lon="13.411144404937575"><ele>29.0</ele><time>2026-04-09T07:56:04Z</time></trkpt><trkpt lat="38.085881527221495" lon="13.411534126094761"><ele>30.0</ele><time>2026-04-09T07:56:05Z</time></trkpt><trkpt lat="38.08585228216244" lon="13.411923780763761"><ele>31.0</ele><time>2026-04-09T07:56:06Z</time></trkpt><trkpt lat="38.08583087198338" lon="13.412320443668008"><ele>31.0</ele><time>2026-04-09T07:56:07Z</time></trkpt><trkpt lat="38.08581523652881" lon="13.412720718081703"><ele>31.0</ele><time>2026-04-09T07:56:08Z</time></trkpt><trkpt lat="38.08580803793659" lon="13.413125881614963"><ele>31.0</ele><time>2026-04-09T07:56:09Z</time></trkpt><trkpt lat="38.0858070577858" lon="13.413536428376185"><ele>31.0</ele><time>2026-04-09T07:56:10Z</time></trkpt><trkpt lat="38.0858127063598" lon="13.413944481236205"><ele>31.0</ele><time>2026-04-09T07:56:11Z</time></trkpt><trkpt lat="38.08582053470708" lon="13.414330188835585"><ele>31.0</ele><time>2026-04-09T07:56:12Z</time></trkpt><trkpt lat="38.08582798121378" lon="13.414705637871783"><ele>31.5</ele><time>2026-04-09T07:56:13Z</time></trkpt><trkpt lat="38.08583412742316" lon="13.41508943355554"><ele>32.0</ele><time>2026-04-09T07:56:14Z</time></trkpt><trkpt lat="38.085836489419805" lon="13.415476114400162"><ele>32.0</ele><time>2026-04-09T07:56:15Z</time></trkpt><trkpt lat="38.08583855695842" lon="13.415865908458514"><ele>32.0</ele><time>2026-04-09T07:56:16Z</time></trkpt><trkpt lat="38.08584021167196" lon="13.416251246280193"><ele>31.0</ele><time>2026-04-09T07:56:17Z</time></trkpt><trkpt lat="38.0858412275417" lon="13.416636775780852"><ele>30.0</ele><time>2026-04-09T07:56:18Z</time></trkpt><trkpt lat="38.085841714815444" lon="13.417022087592015"><ele>30.5</ele><time>2026-04-09T07:56:19Z</time></trkpt><trkpt lat="38.08584366211124" lon="13.417410752168578"><ele>31.0</ele><time>2026-04-09T07:56:20Z</time></trkpt><trkpt lat="38.08584494056499" lon="13.417796865361328"><ele>31.5</ele><time>2026-04-09T07:56:21Z</time></trkpt><trkpt lat="38.08584846137788" lon="13.41818317884798"><ele>32.0</ele><time>2026-04-09T07:56:22Z</time></trkpt><trkpt lat="38.085853072287044" lon="13.41857059939572"><ele>31.0</ele><time>2026-04-09T07:56:23Z</time></trkpt><trkpt lat="38.08585597905138" lon="13.418956206543761"><ele>30.0</ele><time>2026-04-09T07:56:24Z</time></trkpt><trkpt lat="38.085860256564814" lon="13.419339437411141"><ele>29.5</ele><time>2026-04-09T07:56:25Z</time></trkpt><trkpt lat="38.08586072770717" lon="13.419724298563297"><ele>29.0</ele><time>2026-04-09T07:56:26Z</time></trkpt><trkpt lat="38.08586036046086" lon="13.420105718347566"><ele>29.0</ele><time>2026-04-09T07:56:27Z</time></trkpt><trkpt lat="38.08585473468086" lon="13.420482905987706"><ele>29.0</ele><time>2026-04-09T07:56:28Z</time></trkpt><trkpt lat="38.08585719768999" lon="13.420863276814018"><ele>29.0</ele><time>2026-04-09T07:56:29Z</time></trkpt><trkpt lat="38.08586132040268" lon="13.421237387406133"><ele>29.0</ele><time>2026-04-09T07:56:30Z</time></trkpt><trkpt lat="38.0858635231082" lon="13.421615989282865"><ele>29.0</ele><time>2026-04-09T07:56:31Z</time></trkpt><trkpt lat="38.085866124460416" lon="13.421989296192852"><ele>29.0</ele><time>2026-04-09T07:56:32Z</time></trkpt><trkpt lat="38.08587424588575" lon="13.4223680782201"><ele>29.5</ele><time>2026-04-09T07:56:33Z</time></trkpt><trkpt lat="38.08588252588544" lon="13.42275967866397"><ele>30.0</ele><time>2026-04-09T07:56:34Z</time></trkpt><trkpt lat="38.08588788661254" lon="13.423168374769201"><ele>30.0</ele><time>2026-04-09T07:56:35Z</time></trkpt><trkpt lat="38.08588743972784" lon="13.423572995991961"><ele>30.0</ele><time>2026-04-09T07:56:36Z</time></trkpt><trkpt lat="38.085887986098314" lon="13.423970301861498"><ele>29.5</ele><time>2026-04-09T07:56:37Z</time></trkpt><trkpt lat="38.08588734854891" lon="13.4243631810341"><ele>29.0</ele><time>2026-04-09T07:56:38Z</time></trkpt><trkpt lat="38.085886703906226" lon="13.424753245062314"><ele>28.0</ele><time>2026-04-09T07:56:39Z</time></trkpt><trkpt lat="38.08588696521833" lon="13.425149839919396"><ele>27.0</ele><time>2026-04-09T07:56:40Z</time></trkpt><trkpt lat="38.085889568647325" lon="13.42554293629546"><ele>27.0</ele><time>2026-04-09T07:56:41Z</time></trkpt><trkpt lat="38.08589190940461" lon="13.42594047976506"><ele>27.0</ele><time>2026-04-09T07:56:42Z</time></trkpt><trkpt lat="38.08589507625828" lon="13.426334945891078"><ele>27.0</ele><time>2026-04-09T07:56:43Z</time></trkpt><trkpt lat="38.085898577201355" lon="13.426724653606183"><ele>27.0</ele><time>2026-04-09T07:56:44Z</time></trkpt><trkpt lat="38.08590346573065" lon="13.427113800830144"><ele>28.5</ele><time>2026-04-09T07:56:45Z</time></trkpt><trkpt lat="38.085907940858455" lon="13.427503881648356"><ele>30.0</ele><time>2026-04-09T07:56:46Z</time></trkpt><trkpt lat="38.0859138213397" lon="13.427894050833565"><ele>31.0</ele><time>2026-04-09T07:56:47Z</time></trkpt><trkpt lat="38.085920870477096" lon="13.428286788609476"><ele>32.0</ele><time>2026-04-09T07:56:48Z</time></trkpt><trkpt lat="38.08592975601248" lon="13.42867590114748"><ele>33.5</ele><time>2026-04-09T07:56:49Z</time></trkpt><trkpt lat="38.08593971292054" lon="13.429063540131734"><ele>35.0</ele><time>2026-04-09T07:56:50Z</time></trkpt><trkpt lat="38.08595118280039" lon="13.42944893154685"><ele>34.0</ele><time>2026-04-09T07:56:51Z</time></trkpt><trkpt lat="38.08596247007931" lon="13.429833432952142"><ele>33.0</ele><time>2026-04-09T07:56:52Z</time></trkpt><trkpt lat="38.08597466870002" lon="13.430214179346828"><ele>33.5</ele><time>2026-04-09T07:56:53Z</time></trkpt><trkpt lat="38.08599084183742" lon="13.430594414069544"><ele>34.0</ele><time>2026-04-09T07:56:54Z</time></trkpt><trkpt lat="38.08600762642973" lon="13.430973836492674"><ele>34.0</ele><time>2026-04-09T07:56:55Z</time></trkpt><trkpt lat="38.08601957071348" lon="13.431345237711515"><ele>34.0</ele><time>2026-04-09T07:56:56Z</time></trkpt><trkpt lat="38.086034247602534" lon="13.431699243004987"><ele>34.0</ele><time>2026-04-09T07:56:57Z</time></trkpt><trkpt lat="38.086056040793835" lon="13.432055646985097"><ele>34.0</ele><time>2026-04-09T07:56:58Z</time></trkpt><trkpt lat="38.086075129019235" lon="13.43241641973895"><ele>35.5</ele><time>2026-04-09T07:56:59Z</time></trkpt><trkpt lat="38.08608522560112" lon="13.432784192692871"><ele>37.0</ele><time>2026-04-09T07:57:00Z</time></trkpt><trkpt lat="38.08608128010186" lon="13.433157247552428"><ele>37.0</ele><time>2026-04-09T07:57:01Z</time></trkpt><trkpt lat="38.08606629883428" lon="13.433535922901507"><ele>37.0</ele><time>2026-04-09T07:57:02Z</time></trkpt><trkpt lat="38.086037273210785" lon="13.433914136290346"><ele>37.0</ele><time>2026-04-09T07:57:03Z</time></trkpt><trkpt lat="38.08597950304411" lon="13.434270403882326"><ele>37.0</ele><time>2026-04-09T07:57:04Z</time></trkpt><trkpt lat="38.08589274433471" lon="13.434601404218556"><ele>37.0</ele><time>2026-04-09T07:57:05Z</time></trkpt><trkpt lat="38.08577507291998" lon="13.434915302125702"><ele>37.0</ele><time>2026-04-09T07:57:06Z</time></trkpt><trkpt lat="38.08561980043665" lon="13.435208125120768"><ele>37.0</ele><time>2026-04-09T07:57:07Z</time></trkpt><trkpt lat="38.08543329732035" lon="13.43546718154696"><ele>37.0</ele><time>2026-04-09T07:57:08Z</time></trkpt><trkpt lat="38.08522578782722" lon="13.435709167320905"><ele>36.5</ele><time>2026-04-09T07:57:09Z</time></trkpt><trkpt lat="38.08501384245742" lon="13.435948953299247"><ele>36.0</ele><time>2026-04-09T07:57:10Z</time></trkpt><trkpt lat="38.08480845652375" lon="13.43620420586832"><ele>35.5</ele><time>2026-04-09T07:57:11Z</time></trkpt><trkpt lat="38.08461240159918" lon="13.436481396756928"><ele>35.0</ele><time>2026-04-09T07:57:12Z</time></trkpt><trkpt lat="38.084437046129246" lon="13.436775996555733"><ele>35.0</ele><time>2026-04-09T07:57:13Z</time></trkpt><trkpt lat="38.084269635783286" lon="13.437081186284571"><ele>35.0</ele><time>2026-04-09T07:57:14Z</time></trkpt><trkpt lat="38.084121605869456" lon="13.437400839684516"><ele>35.0</ele><time>2026-04-09T07:57:15Z</time></trkpt><trkpt lat="38.083995096833284" lon="13.43773892738545"><ele>35.0</ele><time>2026-04-09T07:57:16Z</time></trkpt><trkpt lat="38.083884607367175" lon="13.438087516651605"><ele>34.5</ele><time>2026-04-09T07:57:17Z</time></trkpt><trkpt lat="38.08376988608164" lon="13.4384380967737"><ele>34.0</ele><time>2026-04-09T07:57:18Z</time></trkpt><trkpt lat="38.0836510801094" lon="13.438790468941521"><ele>35.0</ele><time>2026-04-09T07:57:19Z</time></trkpt><trkpt lat="38.08353317253109" lon="13.439143463589586"><ele>36.0</ele><time>2026-04-09T07:57:20Z</time></trkpt><trkpt lat="38.08341582901119" lon="13.43949579313724"><ele>35.5</ele><time>2026-04-09T07:57:21Z</time></trkpt><trkpt lat="38.08329816739217" lon="13.439845727360368"><ele>35.0</ele><time>2026-04-09T07:57:22Z</time></trkpt><trkpt lat="38.083185999950224" lon="13.44019235329433"><ele>35.0</ele><time>2026-04-09T07:57:23Z</time></trkpt><trkpt lat="38.083090056687254" lon="13.440544563234235"><ele>35.0</ele><time>2026-04-09T07:57:23.999Z</time></trkpt><trkpt lat="38.08302022692214" lon="13.440907098920837"><ele>35.0</ele><time>2026-04-09T07:57:24.999Z</time></trkpt><trkpt lat="38.08297244024848" lon="13.441275004766247"><ele>35.0</ele><time>2026-04-09T07:57:25.999Z</time></trkpt><trkpt lat="38.08294425466719" lon="13.441644335899044"><ele>35.0</ele><time>2026-04-09T07:57:26.999Z</time></trkpt><trkpt lat="38.08293749109265" lon="13.442014335353557"><ele>35.0</ele><time>2026-04-09T07:57:27.999Z</time></trkpt><trkpt lat="38.08294898138616" lon="13.442383122171034"><ele>34.0</ele><time>2026-04-09T07:57:28.999Z</time></trkpt><trkpt lat="38.08297208306035" lon="13.442749077324807"><ele>33.0</ele><time>2026-04-09T07:57:29.999Z</time></trkpt><trkpt lat="38.082996271692025" lon="13.443114852343333"><ele>33.0</ele><time>2026-04-09T07:57:30.999Z</time></trkpt><trkpt lat="38.08302316536431" lon="13.443477751120703"><ele>33.0</ele><time>2026-04-09T07:57:31.999Z</time></trkpt><trkpt lat="38.08304798550178" lon="13.443841169502187"><ele>32.5</ele><time>2026-04-09T07:57:32.999Z</time></trkpt><trkpt lat="38.083069179414025" lon="13.444199929468079"><ele>32.0</ele><time>2026-04-09T07:57:33.999Z</time></trkpt><trkpt lat="38.08308836362769" lon="13.44455484229209"><ele>32.0</ele><time>2026-04-09T07:57:34.999Z</time></trkpt><trkpt lat="38.08310916560201" lon="13.44490712909676"><ele>32.0</ele><time>2026-04-09T07:57:35.999Z</time></trkpt><trkpt lat="38.08312855320116" lon="13.445253296148218"><ele>31.0</ele><time>2026-04-09T07:57:36.999Z</time></trkpt><trkpt lat="38.083148708150475" lon="13.445597616274908"><ele>30.0</ele><time>2026-04-09T07:57:37.999Z</time></trkpt><trkpt lat="38.083170928673034" lon="13.445937783645283"><ele>30.0</ele><time>2026-04-09T07:57:38.999Z</time></trkpt><trkpt lat="38.083194957817895" lon="13.446279555205786"><ele>30.0</ele><time>2026-04-09T07:57:39.999Z</time></trkpt><trkpt lat="38.08321918550818" lon="13.446619005509973"><ele>32.0</ele><time>2026-04-09T07:57:40.999Z</time></trkpt><trkpt lat="38.08324217658924" lon="13.44695749713523"><ele>34.0</ele><time>2026-04-09T07:57:41.999Z</time></trkpt><trkpt lat="38.083263811192964" lon="13.447293565525273"><ele>35.0</ele><time>2026-04-09T07:57:42.999Z</time></trkpt><trkpt lat="38.08328434650946" lon="13.44762577289424"><ele>36.0</ele><time>2026-04-09T07:57:43.999Z</time></trkpt><trkpt lat="38.08330422214881" lon="13.447957823730048"><ele>35.0</ele><time>2026-04-09T07:57:44.999Z</time></trkpt><trkpt lat="38.08332301048221" lon="13.448287951363609"><ele>34.0</ele><time>2026-04-09T07:57:45.999Z</time></trkpt><trkpt lat="38.08334207081295" lon="13.448613853660518"><ele>33.5</ele><time>2026-04-09T07:57:46.999Z</time></trkpt><trkpt lat="38.08336296163978" lon="13.44893963907767"><ele>33.0</ele><time>2026-04-09T07:57:47.999Z</time></trkpt><trkpt lat="38.08337747132551" lon="13.449262820478546"><ele>33.0</ele><time>2026-04-09T07:57:48.999Z</time></trkpt><trkpt lat="38.08338137280535" lon="13.449583359573987"><ele>33.0</ele><time>2026-04-09T07:57:49.999Z</time></trkpt><trkpt lat="38.0833754885703" lon="13.449901354089132"><ele>33.0</ele><time>2026-04-09T07:57:50.999Z</time></trkpt><trkpt lat="38.08336068539238" lon="13.450218022088196"><ele>33.0</ele><time>2026-04-09T07:57:51.999Z</time></trkpt><trkpt lat="38.083337775100816" lon="13.450535651541127"><ele>33.0</ele><time>2026-04-09T07:57:52.999Z</time></trkpt><trkpt lat="38.0833102811046" lon="13.450848483731324"><ele>33.0</ele><time>2026-04-09T07:57:53.999Z</time></trkpt><trkpt lat="38.08328295119407" lon="13.451165216023162"><ele>33.0</ele><time>2026-04-09T07:57:54.999Z</time></trkpt><trkpt lat="38.083258387704674" lon="13.451484448351401"><ele>33.0</ele><time>2026-04-09T07:57:55.999Z</time></trkpt><trkpt lat="38.08322902046995" lon="13.451818569909083"><ele>34.0</ele><time>2026-04-09T07:57:56.999Z</time></trkpt><trkpt lat="38.0831933375899" lon="13.452161932665566"><ele>35.0</ele><time>2026-04-09T07:57:57.999Z</time></trkpt><trkpt lat="38.0831470042918" lon="13.45250539842355"><ele>35.0</ele><time>2026-04-09T07:57:59Z</time></trkpt><trkpt lat="38.083097001863855" lon="13.452848731939648"><ele>35.0</ele><time>2026-04-09T07:58:00Z</time></trkpt><trkpt lat="38.083050767266215" lon="13.453182081988524"><ele>36.0</ele><time>2026-04-09T07:58:01Z</time></trkpt><trkpt lat="38.083008099509115" lon="13.453501878850497"><ele>37.0</ele><time>2026-04-09T07:58:02Z</time></trkpt><trkpt lat="38.08296687477367" lon="13.45381603494701"><ele>37.0</ele><time>2026-04-09T07:58:03Z</time></trkpt><trkpt lat="38.08292868575883" lon="13.45412754332966"><ele>37.0</ele><time>2026-04-09T07:58:04Z</time></trkpt><trkpt lat="38.08289245397106" lon="13.454435467543187"><ele>37.0</ele><time>2026-04-09T07:58:05Z</time></trkpt><trkpt lat="38.082856604973465" lon="13.454740562201387"><ele>37.0</ele><time>2026-04-09T07:58:06Z</time></trkpt><trkpt lat="38.082822238310364" lon="13.45504270582733"><ele>37.0</ele><time>2026-04-09T07:58:07Z</time></trkpt><trkpt lat="38.08278786349599" lon="13.455343947407663"><ele>37.0</ele><time>2026-04-09T07:58:08Z</time></trkpt><trkpt lat="38.082753221375135" lon="13.455639742615631"><ele>36.5</ele><time>2026-04-09T07:58:09Z</time></trkpt><trkpt lat="38.082718651699054" lon="13.455932946773327"><ele>36.0</ele><time>2026-04-09T07:58:10Z</time></trkpt><trkpt lat="38.08268418950616" lon="13.456219564261183"><ele>36.0</ele><time>2026-04-09T07:58:11Z</time></trkpt><trkpt lat="38.08264834372786" lon="13.45650537342621"><ele>36.0</ele><time>2026-04-09T07:58:12Z</time></trkpt><trkpt lat="38.08261252663411" lon="13.456790365572829"><ele>36.0</ele><time>2026-04-09T07:58:13Z</time></trkpt><trkpt lat="38.08257793640618" lon="13.457076457557266"><ele>36.0</ele><time>2026-04-09T07:58:14Z</time></trkpt><trkpt lat="38.08254313292933" lon="13.457356747181525"><ele>36.666666666666664</ele><time>2026-04-09T07:58:15Z</time></trkpt><trkpt lat="38.08250816243816" lon="13.45763716750407"><ele>37.33333333333333</ele><time>2026-04-09T07:58:16Z</time></trkpt><trkpt lat="38.082475208021236" lon="13.457918891623125"><ele>38.0</ele><time>2026-04-09T07:58:17Z</time></trkpt><trkpt lat="38.08244308893574" lon="13.458199051494054"><ele>39.33333333333333</ele><time>2026-04-09T07:58:18Z</time></trkpt><trkpt lat="38.08241125889027" lon="13.458480777607338"><ele>40.666666666666664</ele><time>2026-04-09T07:58:19Z</time></trkpt><trkpt lat="38.082379876813974" lon="13.458763654691648"><ele>42.0</ele><time>2026-04-09T07:58:20Z</time></trkpt><trkpt lat="38.08234756381338" lon="13.459041237454583"><ele>42.0</ele><time>2026-04-09T07:58:21Z</time></trkpt><trkpt lat="38.08231402065851" lon="13.459322241220665"><ele>42.0</ele><time>2026-04-09T07:58:22Z</time></trkpt><trkpt lat="38.08228010347181" lon="13.459603303292079"><ele>42.0</ele><time>2026-04-09T07:58:23Z</time></trkpt><trkpt lat="38.0822498941498" lon="13.459890848590668"><ele>42.0</ele><time>2026-04-09T07:58:24Z</time></trkpt><trkpt lat="38.082223640807314" lon="13.460188217082303"><ele>42.0</ele><time>2026-04-09T07:58:25Z</time></trkpt><trkpt lat="38.08219889579411" lon="13.460490922016701"><ele>43.0</ele><time>2026-04-09T07:58:26Z</time></trkpt><trkpt lat="38.082179715156464" lon="13.460806193382714"><ele>44.0</ele><time>2026-04-09T07:58:27Z</time></trkpt><trkpt lat="38.08216050965153" lon="13.461128565164316"><ele>44.0</ele><time>2026-04-09T07:58:28Z</time></trkpt><trkpt lat="38.08214223056729" lon="13.46146340684412"><ele>44.0</ele><time>2026-04-09T07:58:29Z</time></trkpt><trkpt lat="38.08212609381768" lon="13.461816913965585"><ele>44.5</ele><time>2026-04-09T07:58:30Z</time></trkpt><trkpt lat="38.08210550687926" lon="13.462180995548733"><ele>45.0</ele><time>2026-04-09T07:58:31Z</time></trkpt><trkpt lat="38.08208492261996" lon="13.462556804298263"><ele>45.0</ele><time>2026-04-09T07:58:32Z</time></trkpt><trkpt lat="38.08206412373846" lon="13.462943245587745"><ele>45.0</ele><time>2026-04-09T07:58:33Z</time></trkpt><trkpt lat="38.08204327668905" lon="13.463333385773046"><ele>45.5</ele><time>2026-04-09T07:58:34Z</time></trkpt><trkpt lat="38.082022820366234" lon="13.463733512835137"><ele>46.0</ele><time>2026-04-09T07:58:35Z</time></trkpt><trkpt lat="38.08200083053794" lon="13.46414627355576"><ele>46.5</ele><time>2026-04-09T07:58:36Z</time></trkpt><trkpt lat="38.08197688435824" lon="13.464567976760495"><ele>47.0</ele><time>2026-04-09T07:58:37Z</time></trkpt><trkpt lat="38.081952558280655" lon="13.464991325624993"><ele>46.5</ele><time>2026-04-09T07:58:38Z</time></trkpt><trkpt lat="38.081928776730784" lon="13.465421974859531"><ele>46.0</ele><time>2026-04-09T07:58:39Z</time></trkpt><trkpt lat="38.08190404887002" lon="13.465855620649316"><ele>46.5</ele><time>2026-04-09T07:58:40Z</time></trkpt><trkpt lat="38.08187674336225" lon="13.46629334099704"><ele>47.0</ele><time>2026-04-09T07:58:41Z</time></trkpt><trkpt lat="38.08184969221843" lon="13.466733836979248"><ele>47.5</ele><time>2026-04-09T07:58:42Z</time></trkpt><trkpt lat="38.08182380670757" lon="13.46717863187828"><ele>48.0</ele><time>2026-04-09T07:58:43Z</time></trkpt><trkpt lat="38.081797210335885" lon="13.467624277038663"><ele>49.5</ele><time>2026-04-09T07:58:44Z</time></trkpt><trkpt lat="38.081772327347444" lon="13.468073232616764"><ele>51.0</ele><time>2026-04-09T07:58:45Z</time></trkpt><trkpt lat="38.08174709033147" lon="13.468521075671534"><ele>51.0</ele><time>2026-04-09T07:58:46Z</time></trkpt><trkpt lat="38.0817222400126" lon="13.468971472840192"><ele>51.0</ele><time>2026-04-09T07:58:47Z</time></trkpt><trkpt lat="38.08169614531047" lon="13.469423087550743"><ele>52.0</ele><time>2026-04-09T07:58:48Z</time></trkpt><trkpt lat="38.081668251756646" lon="13.469872879917776"><ele>53.0</ele><time>2026-04-09T07:58:49Z</time></trkpt><trkpt lat="38.08163785513341" lon="13.470323432357738"><ele>53.0</ele><time>2026-04-09T07:58:50Z</time></trkpt><trkpt lat="38.08160480006072" lon="13.470771770849659"><ele>53.0</ele><time>2026-04-09T07:58:51Z</time></trkpt><trkpt lat="38.081564065353795" lon="13.471219553769458"><ele>53.5</ele><time>2026-04-09T07:58:52Z</time></trkpt><trkpt lat="38.08151212571832" lon="13.471670512019429"><ele>54.0</ele><time>2026-04-09T07:58:53Z</time></trkpt><trkpt lat="38.081455183970746" lon="13.472120359252111"><ele>54.5</ele><time>2026-04-09T07:58:54Z</time></trkpt><trkpt lat="38.08139710225186" lon="13.472571194134687"><ele>55.0</ele><time>2026-04-09T07:58:55Z</time></trkpt><trkpt lat="38.081340938074455" lon="13.473014890188738"><ele>55.0</ele><time>2026-04-09T07:58:56Z</time></trkpt><trkpt lat="38.08128598567574" lon="13.473451266530743"><ele>55.0</ele><time>2026-04-09T07:58:57Z</time></trkpt><trkpt lat="38.08123019915152" lon="13.473889351522784"><ele>50.5</ele><time>2026-04-09T07:58:58Z</time></trkpt><trkpt lat="38.0811713638722" lon="13.474318911946208"><ele>46.0</ele><time>2026-04-09T07:58:59Z</time></trkpt><trkpt lat="38.081115692118914" lon="13.474741613294471"><ele>38.5</ele><time>2026-04-09T07:59:00Z</time></trkpt><trkpt lat="38.08105822310224" lon="13.47516305460532"><ele>31.0</ele><time>2026-04-09T07:59:01Z</time></trkpt><trkpt lat="38.081001684522825" lon="13.475583769977431"><ele>30.0</ele><time>2026-04-09T07:59:02Z</time></trkpt><trkpt lat="38.080944988293574" lon="13.476011785854705"><ele>29.0</ele><time>2026-04-09T07:59:03Z</time></trkpt><trkpt lat="38.080887572849726" lon="13.476427320167046"><ele>31.5</ele><time>2026-04-09T07:59:04Z</time></trkpt><trkpt lat="38.080828031594656" lon="13.476842039037848"><ele>34.0</ele><time>2026-04-09T07:59:05Z</time></trkpt><trkpt lat="38.080770451794" lon="13.47725512704799"><ele>42.5</ele><time>2026-04-09T07:59:06Z</time></trkpt><trkpt lat="38.080711092359174" lon="13.47766918445168"><ele>51.0</ele><time>2026-04-09T07:59:07Z</time></trkpt><trkpt lat="38.08065132282925" lon="13.478085794724793"><ele>57.5</ele><time>2026-04-09T07:59:08Z</time></trkpt><trkpt lat="38.080594561518105" lon="13.478501407324636"><ele>64.0</ele><time>2026-04-09T07:59:09Z</time></trkpt><trkpt lat="38.08053918197452" lon="13.478913563277972"><ele>65.0</ele><time>2026-04-09T07:59:10Z</time></trkpt><trkpt lat="38.08048431658415" lon="13.47931340559241"><ele>66.0</ele><time>2026-04-09T07:59:11Z</time></trkpt><trkpt lat="38.08042908069683" lon="13.479726369412314"><ele>66.5</ele><time>2026-04-09T07:59:12Z</time></trkpt><trkpt lat="38.08037523954892" lon="13.48014019875638"><ele>67.0</ele><time>2026-04-09T07:59:13Z</time></trkpt><trkpt lat="38.080321672036554" lon="13.480545999869593"><ele>68.0</ele><time>2026-04-09T07:59:14Z</time></trkpt><trkpt lat="38.08026878999826" lon="13.480951701044116"><ele>69.0</ele><time>2026-04-09T07:59:15Z</time></trkpt><trkpt lat="38.08021475081339" lon="13.481353708131085"><ele>69.0</ele><time>2026-04-09T07:59:16Z</time></trkpt><trkpt lat="38.080159154215906" lon="13.481753069736392"><ele>69.0</ele><time>2026-04-09T07:59:17Z</time></trkpt><trkpt lat="38.08010610354408" lon="13.482152849613461"><ele>69.0</ele><time>2026-04-09T07:59:18Z</time></trkpt><trkpt lat="38.08005276529916" lon="13.482552389425287"><ele>69.0</ele><time>2026-04-09T07:59:19Z</time></trkpt><trkpt lat="38.07999703902636" lon="13.482947017561598"><ele>68.0</ele><time>2026-04-09T07:59:19.999Z</time></trkpt><trkpt lat="38.079940106245374" lon="13.483336698096181"><ele>67.0</ele><time>2026-04-09T07:59:20.999Z</time></trkpt><trkpt lat="38.079883592807185" lon="13.483724197186636"><ele>68.0</ele><time>2026-04-09T07:59:21.999Z</time></trkpt><trkpt lat="38.07983149383829" lon="13.484104874390646"><ele>69.0</ele><time>2026-04-09T07:59:22.999Z</time></trkpt><trkpt lat="38.079783486251195" lon="13.484466078888408"><ele>68.0</ele><time>2026-04-09T07:59:23.999Z</time></trkpt><trkpt lat="38.079734707390465" lon="13.484834401730224"><ele>67.0</ele><time>2026-04-09T07:59:24.999Z</time></trkpt><trkpt lat="38.07968661224679" lon="13.485205529125325"><ele>67.0</ele><time>2026-04-09T07:59:25.999Z</time></trkpt><trkpt lat="38.079636774344024" lon="13.485572354196604"><ele>67.0</ele><time>2026-04-09T07:59:26.999Z</time></trkpt><trkpt lat="38.079585460505" lon="13.485934960008933"><ele>66.5</ele><time>2026-04-09T07:59:27.999Z</time></trkpt><trkpt lat="38.07953329325264" lon="13.486293949795057"><ele>66.0</ele><time>2026-04-09T07:59:28.999Z</time></trkpt><trkpt lat="38.079481376322505" lon="13.486648713281745"><ele>66.0</ele><time>2026-04-09T07:59:29.999Z</time></trkpt><trkpt lat="38.07942463858247" lon="13.487008940957667"><ele>66.0</ele><time>2026-04-09T07:59:30.999Z</time></trkpt><trkpt lat="38.079358884158296" lon="13.487370798638748"><ele>69.0</ele><time>2026-04-09T07:59:31.999Z</time></trkpt><trkpt lat="38.07928411480323" lon="13.48773128563809"><ele>72.0</ele><time>2026-04-09T07:59:32.999Z</time></trkpt><trkpt lat="38.07920051102619" lon="13.488091078812962"><ele>74.0</ele><time>2026-04-09T07:59:33.999Z</time></trkpt><trkpt lat="38.07910691068947" lon="13.488453442160795"><ele>76.0</ele><time>2026-04-09T07:59:34.999Z</time></trkpt><trkpt lat="38.07900077070619" lon="13.488813590811358"><ele>86.5</ele><time>2026-04-09T07:59:35.999Z</time></trkpt><trkpt lat="38.07889201139725" lon="13.489174714722827"><ele>97.0</ele><time>2026-04-09T07:59:36.999Z</time></trkpt><trkpt lat="38.07876618071713" lon="13.489549328367573"><ele>94.5</ele><time>2026-04-09T07:59:37.999Z</time></trkpt><trkpt lat="38.07863121854621" lon="13.489929573586918"><ele>92.0</ele><time>2026-04-09T07:59:38.999Z</time></trkpt><trkpt lat="38.078494654246555" lon="13.490295705978914"><ele>88.0</ele><time>2026-04-09T07:59:39.999Z</time></trkpt><trkpt lat="38.07835575178104" lon="13.490661705800965"><ele>84.0</ele><time>2026-04-09T07:59:40.999Z</time></trkpt><trkpt lat="38.07822131190635" lon="13.491027203707977"><ele>94.5</ele><time>2026-04-09T07:59:41.999Z</time></trkpt><trkpt lat="38.07808833906293" lon="13.491386411593634"><ele>105.0</ele><time>2026-04-09T07:59:42.999Z</time></trkpt><trkpt lat="38.07795795545626" lon="13.491743020830874"><ele>96.5</ele><time>2026-04-09T07:59:43.999Z</time></trkpt><trkpt lat="38.07782916197516" lon="13.492099211993962"><ele>88.0</ele><time>2026-04-09T07:59:44.999Z</time></trkpt><trkpt lat="38.07770132337338" lon="13.492454502408608"><ele>88.0</ele><time>2026-04-09T07:59:45.999Z</time></trkpt><trkpt lat="38.0775721975929" lon="13.49281262824081"><ele>88.0</ele><time>2026-04-09T07:59:46.999Z</time></trkpt><trkpt lat="38.077441665155675" lon="13.493169935274828"><ele>90.5</ele><time>2026-04-09T07:59:47.999Z</time></trkpt><trkpt lat="38.077311711604644" lon="13.493523879718271"><ele>93.0</ele><time>2026-04-09T07:59:48.999Z</time></trkpt><trkpt lat="38.077185096422575" lon="13.493871858820084"><ele>88.0</ele><time>2026-04-09T07:59:49.999Z</time></trkpt><trkpt lat="38.07705911148785" lon="13.494212442586557"><ele>83.0</ele><time>2026-04-09T07:59:50.999Z</time></trkpt><trkpt lat="38.07692530473724" lon="13.494560046701256"><ele>81.5</ele><time>2026-04-09T07:59:51.999Z</time></trkpt><trkpt lat="38.07677963008999" lon="13.49490412237211"><ele>80.0</ele><time>2026-04-09T07:59:52.999Z</time></trkpt><trkpt lat="38.07662024462313" lon="13.49524253779619"><ele>82.0</ele><time>2026-04-09T07:59:53.999Z</time></trkpt><trkpt lat="38.076450993066366" lon="13.495571242197274"><ele>84.0</ele><time>2026-04-09T07:59:54.999Z</time></trkpt><trkpt lat="38.07627701942979" lon="13.495884056403812"><ele>84.0</ele><time>2026-04-09T07:59:55.999Z</time></trkpt><trkpt lat="38.076099993271775" lon="13.496192669572313"><ele>84.0</ele><time>2026-04-09T07:59:56.999Z</time></trkpt><trkpt lat="38.075919775352794" lon="13.49649637165838"><ele>86.0</ele><time>2026-04-09T07:59:57.999Z</time></trkpt><trkpt lat="38.07574384337808" lon="13.496789165578065"><ele>88.0</ele><time>2026-04-09T07:59:58.999Z</time></trkpt><trkpt lat="38.0755708356111" lon="13.49707672976045"><ele>88.0</ele><time>2026-04-09T07:59:59.999Z</time></trkpt><trkpt lat="38.07540038882382" lon="13.497364203369147"><ele>88.0</ele><time>2026-04-09T08:00:00.999Z</time></trkpt><trkpt lat="38.07523007942384" lon="13.49765140343262"><ele>88.0</ele><time>2026-04-09T08:00:01.999Z</time></trkpt><trkpt lat="38.0750608650032" lon="13.497939602048799"><ele>88.0</ele><time>2026-04-09T08:00:02.999Z</time></trkpt><trkpt lat="38.07489165251844" lon="13.498227356955454"><ele>89.5</ele><time>2026-04-09T08:00:03.999Z</time></trkpt><trkpt lat="38.074718194974466" lon="13.498517646214363"><ele>91.0</ele><time>2026-04-09T08:00:05Z</time></trkpt><trkpt lat="38.07454128628661" lon="13.498811333289726"><ele>91.5</ele><time>2026-04-09T08:00:06Z</time></trkpt><trkpt lat="38.07436310340104" lon="13.499108676075606"><ele>92.0</ele><time>2026-04-09T08:00:07Z</time></trkpt><trkpt lat="38.07418688828235" lon="13.499410782286976"><ele>95.0</ele><time>2026-04-09T08:00:08Z</time></trkpt><trkpt lat="38.07400797298382" lon="13.499718269879851"><ele>98.0</ele><time>2026-04-09T08:00:09Z</time></trkpt><trkpt lat="38.073828563170686" lon="13.500028153137455"><ele>98.0</ele><time>2026-04-09T08:00:10Z</time></trkpt><trkpt lat="38.07364875571768" lon="13.500340610860041"><ele>98.0</ele><time>2026-04-09T08:00:11Z</time></trkpt><trkpt lat="38.07346501498271" lon="13.500657104415735"><ele>97.5</ele><time>2026-04-09T08:00:12Z</time></trkpt><trkpt lat="38.07327464238097" lon="13.50098449559833"><ele>97.0</ele><time>2026-04-09T08:00:13Z</time></trkpt><trkpt lat="38.07308591015629" lon="13.50130830346666"><ele>100.0</ele><time>2026-04-09T08:00:14Z</time></trkpt><trkpt lat="38.07289186878501" lon="13.501628257751124"><ele>103.0</ele><time>2026-04-09T08:00:15Z</time></trkpt><trkpt lat="38.07269665011175" lon="13.501938459130244"><ele>103.0</ele><time>2026-04-09T08:00:16Z</time></trkpt><trkpt lat="38.07249843151135" lon="13.502239198983958"><ele>103.0</ele><time>2026-04-09T08:00:17Z</time></trkpt><trkpt lat="38.072293011332206" lon="13.502529208416632"><ele>103.0</ele><time>2026-04-09T08:00:18Z</time></trkpt><trkpt lat="38.072083049177735" lon="13.502803579393396"><ele>103.0</ele><time>2026-04-09T08:00:19Z</time></trkpt><trkpt lat="38.071868894909855" lon="13.503071522483946"><ele>103.0</ele><time>2026-04-09T08:00:20Z</time></trkpt><trkpt lat="38.071650410455874" lon="13.503340966441673"><ele>103.0</ele><time>2026-04-09T08:00:21Z</time></trkpt><trkpt lat="38.07142518431172" lon="13.503614172290744"><ele>103.5</ele><time>2026-04-09T08:00:22Z</time></trkpt><trkpt lat="38.071195305119815" lon="13.503887952498028"><ele>104.0</ele><time>2026-04-09T08:00:23Z</time></trkpt><trkpt lat="38.07096667795752" lon="13.504158980473603"><ele>105.5</ele><time>2026-04-09T08:00:24Z</time></trkpt><trkpt lat="38.07074144337879" lon="13.504427165044897"><ele>107.0</ele><time>2026-04-09T08:00:25Z</time></trkpt><trkpt lat="38.07051787456869" lon="13.504700553785726"><ele>108.0</ele><time>2026-04-09T08:00:26Z</time></trkpt><trkpt lat="38.070287547969016" lon="13.504980053651618"><ele>109.0</ele><time>2026-04-09T08:00:27Z</time></trkpt><trkpt lat="38.07004964073449" lon="13.505267137708925"><ele>112.0</ele><time>2026-04-09T08:00:28Z</time></trkpt><trkpt lat="38.06980276239492" lon="13.505558990018226"><ele>115.0</ele><time>2026-04-09T08:00:29Z</time></trkpt><trkpt lat="38.06956947040041" lon="13.505834973369716"><ele>115.0</ele><time>2026-04-09T08:00:30Z</time></trkpt><trkpt lat="38.06934544813265" lon="13.50610314912271"><ele>115.0</ele><time>2026-04-09T08:00:31Z</time></trkpt><trkpt lat="38.06912353877675" lon="13.506369704241362"><ele>116.0</ele><time>2026-04-09T08:00:32Z</time></trkpt><trkpt lat="38.06890628380047" lon="13.506629159545657"><ele>117.0</ele><time>2026-04-09T08:00:33Z</time></trkpt><trkpt lat="38.0686882524639" lon="13.506890184897886"><ele>116.5</ele><time>2026-04-09T08:00:34Z</time></trkpt><trkpt lat="38.068470007046635" lon="13.507149892065778"><ele>116.0</ele><time>2026-04-09T08:00:35Z</time></trkpt><trkpt lat="38.068253238540315" lon="13.507413141978942"><ele>116.0</ele><time>2026-04-09T08:00:36Z</time></trkpt><trkpt lat="38.0680350236634" lon="13.507676710519906"><ele>116.0</ele><time>2026-04-09T08:00:37Z</time></trkpt><trkpt lat="38.067815905373784" lon="13.507939278408974"><ele>115.5</ele><time>2026-04-09T08:00:38Z</time></trkpt><trkpt lat="38.06760475408198" lon="13.50819353116849"><ele>115.0</ele><time>2026-04-09T08:00:39Z</time></trkpt><trkpt lat="38.06740533299004" lon="13.50843560104337"><ele>116.0</ele><time>2026-04-09T08:00:40Z</time></trkpt><trkpt lat="38.06721201421647" lon="13.508671012934188"><ele>117.0</ele><time>2026-04-09T08:00:41Z</time></trkpt><trkpt lat="38.06701570424399" lon="13.508906560310972"><ele>117.0</ele><time>2026-04-09T08:00:42Z</time></trkpt><trkpt lat="38.06681833505008" lon="13.509142931305716"><ele>117.0</ele><time>2026-04-09T08:00:43Z</time></trkpt><trkpt lat="38.0666211339237" lon="13.509378775032744"><ele>117.5</ele><time>2026-04-09T08:00:44Z</time></trkpt><trkpt lat="38.06641781385725" lon="13.509614478389208"><ele>118.0</ele><time>2026-04-09T08:00:45Z</time></trkpt><trkpt lat="38.066210950691406" lon="13.509863162344091"><ele>118.0</ele><time>2026-04-09T08:00:46Z</time></trkpt><trkpt lat="38.06600012296059" lon="13.51011787200541"><ele>118.0</ele><time>2026-04-09T08:00:47Z</time></trkpt><trkpt lat="38.06578801273555" lon="13.510373166104221"><ele>118.0</ele><time>2026-04-09T08:00:48Z</time></trkpt><trkpt lat="38.06557102403419" lon="13.510633812622716"><ele>118.0</ele><time>2026-04-09T08:00:49Z</time></trkpt><trkpt lat="38.06534558891109" lon="13.51090311154466"><ele>118.0</ele><time>2026-04-09T08:00:50Z</time></trkpt><trkpt lat="38.06511476516831" lon="13.51118396416205"><ele>118.0</ele><time>2026-04-09T08:00:51Z</time></trkpt><trkpt lat="38.064889304889974" lon="13.511459806221659"><ele>116.5</ele><time>2026-04-09T08:00:52Z</time></trkpt><trkpt lat="38.06465241034886" lon="13.511743303865773"><ele>115.0</ele><time>2026-04-09T08:00:53Z</time></trkpt><trkpt lat="38.06440335847308" lon="13.512041838245981"><ele>112.0</ele><time>2026-04-09T08:00:54Z</time></trkpt><trkpt lat="38.064163488215755" lon="13.512329579576914"><ele>109.0</ele><time>2026-04-09T08:00:55Z</time></trkpt><trkpt lat="38.06393133867401" lon="13.512608472893735"><ele>108.5</ele><time>2026-04-09T08:00:56Z</time></trkpt><trkpt lat="38.06370063140531" lon="13.51288411500731"><ele>108.0</ele><time>2026-04-09T08:00:57Z</time></trkpt><trkpt lat="38.06347732332399" lon="13.513152116422784"><ele>102.0</ele><time>2026-04-09T08:00:58Z</time></trkpt><trkpt lat="38.06324865213626" lon="13.513424961401922"><ele>96.0</ele><time>2026-04-09T08:00:59Z</time></trkpt><trkpt lat="38.06302102880915" lon="13.513695486937518"><ele>96.0</ele><time>2026-04-09T08:01:00Z</time></trkpt><trkpt lat="38.06278914522929" lon="13.513977243261294"><ele>96.0</ele><time>2026-04-09T08:01:01Z</time></trkpt><trkpt lat="38.0625451234859" lon="13.514272926187513"><ele>101.0</ele><time>2026-04-09T08:01:02Z</time></trkpt><trkpt lat="38.06228816322472" lon="13.51458850456379"><ele>106.0</ele><time>2026-04-09T08:01:03Z</time></trkpt><trkpt lat="38.06202207954458" lon="13.51491594705088"><ele>106.0</ele><time>2026-04-09T08:01:04Z</time></trkpt><trkpt lat="38.06176567856799" lon="13.515237970127295"><ele>106.0</ele><time>2026-04-09T08:01:05Z</time></trkpt><trkpt lat="38.0615329407955" lon="13.515547818025425"><ele>99.5</ele><time>2026-04-09T08:01:06Z</time></trkpt><trkpt lat="38.06131284308344" lon="13.515875754530416"><ele>93.0</ele><time>2026-04-09T08:01:07Z</time></trkpt><trkpt lat="38.061108331072276" lon="13.516218564503173"><ele>88.0</ele><time>2026-04-09T08:01:08Z</time></trkpt><trkpt lat="38.060922921151025" lon="13.51657790627085"><ele>83.0</ele><time>2026-04-09T08:01:09Z</time></trkpt><trkpt lat="38.060756626363656" lon="13.516950573918379"><ele>78.5</ele><time>2026-04-09T08:01:10Z</time></trkpt><trkpt lat="38.06061277726119" lon="13.517336230414195"><ele>74.0</ele><time>2026-04-09T08:01:11Z</time></trkpt><trkpt lat="38.06048726621942" lon="13.517730998556095"><ele>76.0</ele><time>2026-04-09T08:01:12Z</time></trkpt><trkpt lat="38.06037443888543" lon="13.518127812059886"><ele>78.0</ele><time>2026-04-09T08:01:13Z</time></trkpt><trkpt lat="38.06028710111868" lon="13.518516924401796"><ele>81.0</ele><time>2026-04-09T08:01:14Z</time></trkpt><trkpt lat="38.060213451081225" lon="13.51891206135679"><ele>84.0</ele><time>2026-04-09T08:01:15Z</time></trkpt><trkpt lat="38.06016480744014" lon="13.519294827190953"><ele>86.0</ele><time>2026-04-09T08:01:16Z</time></trkpt><trkpt lat="38.06012942452691" lon="13.51968876735277"><ele>88.0</ele><time>2026-04-09T08:01:17Z</time></trkpt><trkpt lat="38.06011315450723" lon="13.520102070386253"><ele>88.0</ele><time>2026-04-09T08:01:17.999Z</time></trkpt><trkpt lat="38.06011622412449" lon="13.520511469800992"><ele>88.0</ele><time>2026-04-09T08:01:18.999Z</time></trkpt><trkpt lat="38.060138396268016" lon="13.520907024167279"><ele>85.0</ele><time>2026-04-09T08:01:19.999Z</time></trkpt><trkpt lat="38.06017260635772" lon="13.521299610501615"><ele>82.0</ele><time>2026-04-09T08:01:20.999Z</time></trkpt><trkpt lat="38.06021578547991" lon="13.521694984827157"><ele>81.0</ele><time>2026-04-09T08:01:21.999Z</time></trkpt><trkpt lat="38.060264701902675" lon="13.52208632012767"><ele>80.0</ele><time>2026-04-09T08:01:22.999Z</time></trkpt><trkpt lat="38.06031112235975" lon="13.522470611119225"><ele>80.0</ele><time>2026-04-09T08:01:23.999Z</time></trkpt><trkpt lat="38.06035613802253" lon="13.52284354308799"><ele>80.0</ele><time>2026-04-09T08:01:24.999Z</time></trkpt><trkpt lat="38.06039916342409" lon="13.523213245432547"><ele>78.0</ele><time>2026-04-09T08:01:25.999Z</time></trkpt><trkpt lat="38.0604459377639" lon="13.523601056271454"><ele>76.0</ele><time>2026-04-09T08:01:26.999Z</time></trkpt><trkpt lat="38.06049366899616" lon="13.523990182509733"><ele>73.5</ele><time>2026-04-09T08:01:27.999Z</time></trkpt><trkpt lat="38.06053727578921" lon="13.524375282465959"><ele>71.0</ele><time>2026-04-09T08:01:28.999Z</time></trkpt><trkpt lat="38.060574096733276" lon="13.524757053049843"><ele>71.0</ele><time>2026-04-09T08:01:29.999Z</time></trkpt><trkpt lat="38.06059612654011" lon="13.525141950284617"><ele>71.0</ele><time>2026-04-09T08:01:30.999Z</time></trkpt><trkpt lat="38.06060127714891" lon="13.525535149115363"><ele>70.0</ele><time>2026-04-09T08:01:31.999Z</time></trkpt><trkpt lat="38.0605887210446" lon="13.525927282871974"><ele>69.0</ele><time>2026-04-09T08:01:32.999Z</time></trkpt><trkpt lat="38.06055613191047" lon="13.526310944000528"><ele>68.0</ele><time>2026-04-09T08:01:33.999Z</time></trkpt><trkpt lat="38.06050463290969" lon="13.526679455436007"><ele>67.0</ele><time>2026-04-09T08:01:34.999Z</time></trkpt><trkpt lat="38.06043514976702" lon="13.527041447135002"><ele>66.0</ele><time>2026-04-09T08:01:35.999Z</time></trkpt><trkpt lat="38.06035706596102" lon="13.527382878958498"><ele>65.0</ele><time>2026-04-09T08:01:36.999Z</time></trkpt><trkpt lat="38.06026753499712" lon="13.527713267451334"><ele>65.0</ele><time>2026-04-09T08:01:37.999Z</time></trkpt><trkpt lat="38.060167570738656" lon="13.52803670799704"><ele>65.0</ele><time>2026-04-09T08:01:38.999Z</time></trkpt><trkpt lat="38.06006168684171" lon="13.528354272782673"><ele>65.0</ele><time>2026-04-09T08:01:39.999Z</time></trkpt><trkpt lat="38.059950425866646" lon="13.52866310660506"><ele>65.0</ele><time>2026-04-09T08:01:40.999Z</time></trkpt><trkpt lat="38.05983977356986" lon="13.528967084400806"><ele>55.5</ele><time>2026-04-09T08:01:41.999Z</time></trkpt><trkpt lat="38.05972848130721" lon="13.529269712522428"><ele>46.0</ele><time>2026-04-09T08:01:42.999Z</time></trkpt><trkpt lat="38.0596160830837" lon="13.52957653023341"><ele>42.5</ele><time>2026-04-09T08:01:43.999Z</time></trkpt><trkpt lat="38.059503279308544" lon="13.529891689318372"><ele>39.0</ele><time>2026-04-09T08:01:44.999Z</time></trkpt><trkpt lat="38.05938958003527" lon="13.530208995112819"><ele>40.0</ele><time>2026-04-09T08:01:45.999Z</time></trkpt><trkpt lat="38.059277098938416" lon="13.530522538283606"><ele>41.0</ele><time>2026-04-09T08:01:46.999Z</time></trkpt><trkpt lat="38.05916309685201" lon="13.530837402441906"><ele>50.5</ele><time>2026-04-09T08:01:47.999Z</time></trkpt><trkpt lat="38.059048337866905" lon="13.531152854691426"><ele>60.0</ele><time>2026-04-09T08:01:48.999Z</time></trkpt><trkpt lat="38.0589302505086" lon="13.531476390290758"><ele>60.0</ele><time>2026-04-09T08:01:49.999Z</time></trkpt><trkpt lat="38.058811062147534" lon="13.531809696278668"><ele>60.0</ele><time>2026-04-09T08:01:50.999Z</time></trkpt><trkpt lat="38.05868922492074" lon="13.532154155806047"><ele>62.0</ele><time>2026-04-09T08:01:51.999Z</time></trkpt><trkpt lat="38.0585603810341" lon="13.532507672100742"><ele>64.0</ele><time>2026-04-09T08:01:52.999Z</time></trkpt><trkpt lat="38.05842604758471" lon="13.532871232207725"><ele>64.0</ele><time>2026-04-09T08:01:53.999Z</time></trkpt><trkpt lat="38.058290077178874" lon="13.533245590742226"><ele>64.0</ele><time>2026-04-09T08:01:54.999Z</time></trkpt><trkpt lat="38.0581508759447" lon="13.5336211180917"><ele>66.5</ele><time>2026-04-09T08:01:55.999Z</time></trkpt><trkpt lat="38.058008966225216" lon="13.53399317503224"><ele>69.0</ele><time>2026-04-09T08:01:56.999Z</time></trkpt><trkpt lat="38.05786697262774" lon="13.53436276972612"><ele>69.0</ele><time>2026-04-09T08:01:57.999Z</time></trkpt><trkpt lat="38.05772923871966" lon="13.534728324468052"><ele>69.0</ele><time>2026-04-09T08:01:58.999Z</time></trkpt><trkpt lat="38.057593206436536" lon="13.535093559387876"><ele>68.5</ele><time>2026-04-09T08:01:59.999Z</time></trkpt><trkpt lat="38.057456540803486" lon="13.535460366010698"><ele>68.0</ele><time>2026-04-09T08:02:00.999Z</time></trkpt><trkpt lat="38.05731344579656" lon="13.535826036241051"><ele>68.0</ele><time>2026-04-09T08:02:01.999Z</time></trkpt><trkpt lat="38.05715039364042" lon="13.536194699765431"><ele>68.0</ele><time>2026-04-09T08:02:02.999Z</time></trkpt><trkpt lat="38.056967921733055" lon="13.536570896540592"><ele>67.5</ele><time>2026-04-09T08:02:03.999Z</time></trkpt><trkpt lat="38.05677238802216" lon="13.536946929374592"><ele>67.0</ele><time>2026-04-09T08:02:04.999Z</time></trkpt><trkpt lat="38.056566913932066" lon="13.537316359844406"><ele>66.5</ele><time>2026-04-09T08:02:05.999Z</time></trkpt><trkpt lat="38.05635040524873" lon="13.537683791991098"><ele>66.0</ele><time>2026-04-09T08:02:06.999Z</time></trkpt><trkpt lat="38.056125379825566" lon="13.538038090174853"><ele>64.0</ele><time>2026-04-09T08:02:07.999Z</time></trkpt><trkpt lat="38.055898606055095" lon="13.538390316210645"><ele>62.0</ele><time>2026-04-09T08:02:08.999Z</time></trkpt><trkpt lat="38.0556623617909" lon="13.538742539731341"><ele>56.5</ele><time>2026-04-09T08:02:09.999Z</time></trkpt><trkpt lat="38.05542442305662" lon="13.53909338000726"><ele>51.0</ele><time>2026-04-09T08:02:11Z</time></trkpt><trkpt lat="38.05519326941664" lon="13.539438882303633"><ele>50.5</ele><time>2026-04-09T08:02:12Z</time></trkpt><trkpt lat="38.05496770080516" lon="13.539783694360617"><ele>50.0</ele><time>2026-04-09T08:02:13Z</time></trkpt><trkpt lat="38.05474151419253" lon="13.54012523906066"><ele>43.0</ele><time>2026-04-09T08:02:14Z</time></trkpt><trkpt lat="38.05451912645258" lon="13.540462942724972"><ele>36.0</ele><time>2026-04-09T08:02:15Z</time></trkpt><trkpt lat="38.05429814764667" lon="13.540799154618128"><ele>44.5</ele><time>2026-04-09T08:02:16Z</time></trkpt><trkpt lat="38.05407732606659" lon="13.5411363507399"><ele>53.0</ele><time>2026-04-09T08:02:17Z</time></trkpt><trkpt lat="38.05386050706362" lon="13.54146718249218"><ele>53.0</ele><time>2026-04-09T08:02:18Z</time></trkpt><trkpt lat="38.053643269759355" lon="13.541798490468219"><ele>53.0</ele><time>2026-04-09T08:02:19Z</time></trkpt><trkpt lat="38.05342321611259" lon="13.54213161979099"><ele>42.5</ele><time>2026-04-09T08:02:20Z</time></trkpt><trkpt lat="38.05320310796945" lon="13.542459785310848"><ele>32.0</ele><time>2026-04-09T08:02:21Z</time></trkpt><trkpt lat="38.0529829778858" lon="13.542786176412104"><ele>31.5</ele><time>2026-04-09T08:02:22Z</time></trkpt><trkpt lat="38.052760425476826" lon="13.543118483065225"><ele>31.0</ele><time>2026-04-09T08:02:23Z</time></trkpt><trkpt lat="38.05253912030126" lon="13.543448526773975"><ele>40.0</ele><time>2026-04-09T08:02:24Z</time></trkpt><trkpt lat="38.052312995337154" lon="13.543792927130102"><ele>49.0</ele><time>2026-04-09T08:02:25Z</time></trkpt><trkpt lat="38.052088132774806" lon="13.544134111062567"><ele>49.0</ele><time>2026-04-09T08:02:26Z</time></trkpt><trkpt lat="38.05185956015897" lon="13.544471487735093"><ele>49.0</ele><time>2026-04-09T08:02:27Z</time></trkpt><trkpt lat="38.05163448181567" lon="13.544813002654827"><ele>45.5</ele><time>2026-04-09T08:02:28Z</time></trkpt><trkpt lat="38.05140904678264" lon="13.545152665956044"><ele>42.0</ele><time>2026-04-09T08:02:29Z</time></trkpt><trkpt lat="38.05118455021113" lon="13.545495039422436"><ele>42.0</ele><time>2026-04-09T08:02:30Z</time></trkpt><trkpt lat="38.05096202279931" lon="13.54583809682739"><ele>42.0</ele><time>2026-04-09T08:02:31Z</time></trkpt><trkpt lat="38.05073787919764" lon="13.546181669112732"><ele>29.0</ele><time>2026-04-09T08:02:32Z</time></trkpt><trkpt lat="38.05051567119743" lon="13.5465273418439"><ele>16.0</ele><time>2026-04-09T08:02:33Z</time></trkpt><trkpt lat="38.05028808047539" lon="13.54687793793083"><ele>15.0</ele><time>2026-04-09T08:02:34Z</time></trkpt><trkpt lat="38.05006102043385" lon="13.547224607866887"><ele>14.0</ele><time>2026-04-09T08:02:35Z</time></trkpt><trkpt lat="38.0498322635938" lon="13.5475683878046"><ele>13.5</ele><time>2026-04-09T08:02:36Z</time></trkpt><trkpt lat="38.04960480409637" lon="13.547910453490658"><ele>13.0</ele><time>2026-04-09T08:02:37Z</time></trkpt><trkpt lat="38.049375826298906" lon="13.548256081135666"><ele>13.0</ele><time>2026-04-09T08:02:38Z</time></trkpt><trkpt lat="38.049149770518284" lon="13.548598283487937"><ele>13.0</ele><time>2026-04-09T08:02:39Z</time></trkpt><trkpt lat="38.04892628200578" lon="13.548936877604644"><ele>16.5</ele><time>2026-04-09T08:02:40Z</time></trkpt><trkpt lat="38.04870229126442" lon="13.549275591408707"><ele>20.0</ele><time>2026-04-09T08:02:41Z</time></trkpt><trkpt lat="38.04847602784744" lon="13.549611031683305"><ele>31.5</ele><time>2026-04-09T08:02:42Z</time></trkpt><trkpt lat="38.04823986997333" lon="13.549949305263928"><ele>43.0</ele><time>2026-04-09T08:02:43Z</time></trkpt><trkpt lat="38.04798620156453" lon="13.550287178646148"><ele>42.5</ele><time>2026-04-09T08:02:44Z</time></trkpt><trkpt lat="38.04771060176314" lon="13.550624184353874"><ele>42.0</ele><time>2026-04-09T08:02:45Z</time></trkpt><trkpt lat="38.04742239872317" lon="13.550965994598963"><ele>31.5</ele><time>2026-04-09T08:02:46Z</time></trkpt><trkpt lat="38.047130610780066" lon="13.551306575831537"><ele>21.0</ele><time>2026-04-09T08:02:47Z</time></trkpt><trkpt lat="38.04683948163823" lon="13.551646849306351"><ele>22.0</ele><time>2026-04-09T08:02:48Z</time></trkpt><trkpt lat="38.0465598848561" lon="13.551979163293794"><ele>23.0</ele><time>2026-04-09T08:02:49Z</time></trkpt><trkpt lat="38.046285152461394" lon="13.552304496438722"><ele>23.0</ele><time>2026-04-09T08:02:50Z</time></trkpt><trkpt lat="38.04601282546455" lon="13.552629746275997"><ele>23.0</ele><time>2026-04-09T08:02:51Z</time></trkpt><trkpt lat="38.04574577633669" lon="13.552950140379565"><ele>23.5</ele><time>2026-04-09T08:02:52Z</time></trkpt><trkpt lat="38.045482510323275" lon="13.553273022663523"><ele>24.0</ele><time>2026-04-09T08:02:53Z</time></trkpt><trkpt lat="38.04521898039096" lon="13.553595596869823"><ele>27.0</ele><time>2026-04-09T08:02:54Z</time></trkpt><trkpt lat="38.04496146645544" lon="13.553907459338944"><ele>30.0</ele><time>2026-04-09T08:02:55Z</time></trkpt><trkpt lat="38.0447040825431" lon="13.554219213775015"><ele>30.0</ele><time>2026-04-09T08:02:56Z</time></trkpt><trkpt lat="38.044441231475076" lon="13.554536225717742"><ele>30.0</ele><time>2026-04-09T08:02:57Z</time></trkpt><trkpt lat="38.044187313393294" lon="13.55485306189903"><ele>31.0</ele><time>2026-04-09T08:02:58Z</time></trkpt><trkpt lat="38.04392259216077" lon="13.555170556257178"><ele>32.0</ele><time>2026-04-09T08:02:59Z</time></trkpt><trkpt lat="38.04366097851999" lon="13.555485904229448"><ele>30.0</ele><time>2026-04-09T08:03:00Z</time></trkpt><trkpt lat="38.04340171240191" lon="13.555799801134874"><ele>28.0</ele><time>2026-04-09T08:03:01Z</time></trkpt><trkpt lat="38.04315164503199" lon="13.55611454882949"><ele>30.0</ele><time>2026-04-09T08:03:02Z</time></trkpt><trkpt lat="38.042907202730504" lon="13.556442565045403"><ele>32.0</ele><time>2026-04-09T08:03:03Z</time></trkpt><trkpt lat="38.04267255853877" lon="13.556785663988258"><ele>44.0</ele><time>2026-04-09T08:03:04Z</time></trkpt><trkpt lat="38.04244983164614" lon="13.557136581003638"><ele>56.0</ele><time>2026-04-09T08:03:05Z</time></trkpt><trkpt lat="38.04222529949556" lon="13.557507476229784"><ele>51.5</ele><time>2026-04-09T08:03:06Z</time></trkpt><trkpt lat="38.041999536393305" lon="13.557876309444643"><ele>47.0</ele><time>2026-04-09T08:03:07Z</time></trkpt><trkpt lat="38.04177232022195" lon="13.55824217088946"><ele>50.5</ele><time>2026-04-09T08:03:08Z</time></trkpt><trkpt lat="38.04154345926964" lon="13.55860499563998"><ele>54.0</ele><time>2026-04-09T08:03:08.999Z</time></trkpt><trkpt lat="38.04131325921529" lon="13.558960471823122"><ele>46.5</ele><time>2026-04-09T08:03:09.999Z</time></trkpt><trkpt lat="38.041077980435595" lon="13.559309866543773"><ele>39.0</ele><time>2026-04-09T08:03:10.999Z</time></trkpt><trkpt lat="38.04083062736588" lon="13.55965620253106"><ele>47.0</ele><time>2026-04-09T08:03:11.999Z</time></trkpt><trkpt lat="38.04057627090557" lon="13.559994967484403"><ele>55.0</ele><time>2026-04-09T08:03:12.999Z</time></trkpt><trkpt lat="38.04031465211602" lon="13.560325935833232"><ele>52.5</ele><time>2026-04-09T08:03:13.999Z</time></trkpt><trkpt lat="38.040049830818695" lon="13.56064618687677"><ele>50.0</ele><time>2026-04-09T08:03:14.999Z</time></trkpt><trkpt lat="38.03978083737644" lon="13.560956538566263"><ele>50.5</ele><time>2026-04-09T08:03:15.999Z</time></trkpt><trkpt lat="38.039508750594294" lon="13.561254505995247"><ele>51.0</ele><time>2026-04-09T08:03:16.999Z</time></trkpt><trkpt lat="38.03923729733464" lon="13.561536955180816"><ele>43.0</ele><time>2026-04-09T08:03:17.999Z</time></trkpt><trkpt lat="38.03896314085236" lon="13.5618060518694"><ele>35.0</ele><time>2026-04-09T08:03:18.999Z</time></trkpt><trkpt lat="38.03868222307804" lon="13.56206324873704"><ele>32.5</ele><time>2026-04-09T08:03:19.999Z</time></trkpt><trkpt lat="38.03839572437832" lon="13.5623078137866"><ele>30.0</ele><time>2026-04-09T08:03:20.999Z</time></trkpt><trkpt lat="38.0381063200904" lon="13.56254351192916"><ele>30.0</ele><time>2026-04-09T08:03:21.999Z</time></trkpt><trkpt lat="38.03781509427837" lon="13.562768552601767"><ele>30.0</ele><time>2026-04-09T08:03:22.999Z</time></trkpt><trkpt lat="38.03751901369146" lon="13.562996448185835"><ele>44.5</ele><time>2026-04-09T08:03:23.999Z</time></trkpt><trkpt lat="38.037220333798004" lon="13.56322729710584"><ele>59.0</ele><time>2026-04-09T08:03:24.999Z</time></trkpt><trkpt lat="38.0369470732057" lon="13.56340689236987"><ele>59.0</ele><time>2026-04-09T08:03:25.999Z</time></trkpt><trkpt lat="38.036658420175094" lon="13.563615151471783"><ele>59.0</ele><time>2026-04-09T08:03:26.999Z</time></trkpt><trkpt lat="38.03637514416245" lon="13.563832100256757"><ele>63.5</ele><time>2026-04-09T08:03:27.999Z</time></trkpt><trkpt lat="38.036099243874" lon="13.564061733917528"><ele>68.0</ele><time>2026-04-09T08:03:28.999Z</time></trkpt><trkpt lat="38.03583289984021" lon="13.56430504918404"><ele>70.0</ele><time>2026-04-09T08:03:29.999Z</time></trkpt><trkpt lat="38.03558596868995" lon="13.56454723353984"><ele>72.0</ele><time>2026-04-09T08:03:30.999Z</time></trkpt><trkpt lat="38.03534843966741" lon="13.564803111331948"><ele>72.0</ele><time>2026-04-09T08:03:31.999Z</time></trkpt><trkpt lat="38.035119036624586" lon="13.565067631937431"><ele>72.0</ele><time>2026-04-09T08:03:32.999Z</time></trkpt><trkpt lat="38.03489901405785" lon="13.565343321360443"><ele>72.5</ele><time>2026-04-09T08:03:33.999Z</time></trkpt><trkpt lat="38.034691620463185" lon="13.565622774590178"><ele>73.0</ele><time>2026-04-09T08:03:34.999Z</time></trkpt><trkpt lat="38.03449246399951" lon="13.56591056029268"><ele>73.0</ele><time>2026-04-09T08:03:35.999Z</time></trkpt><trkpt lat="38.0343012945964" lon="13.566204678500506"><ele>73.0</ele><time>2026-04-09T08:03:36.999Z</time></trkpt><trkpt lat="38.03411133131786" lon="13.566512960473883"><ele>73.5</ele><time>2026-04-09T08:03:37.999Z</time></trkpt><trkpt lat="38.033924446672735" lon="13.566840938309024"><ele>74.0</ele><time>2026-04-09T08:03:38.999Z</time></trkpt><trkpt lat="38.03374564504326" lon="13.567185368634561"><ele>74.0</ele><time>2026-04-09T08:03:39.999Z</time></trkpt><trkpt lat="38.033569019666245" lon="13.567533191683268"><ele>74.0</ele><time>2026-04-09T08:03:40.999Z</time></trkpt><trkpt lat="38.03338870939934" lon="13.567887500005757"><ele>76.0</ele><time>2026-04-09T08:03:41.999Z</time></trkpt><trkpt lat="38.03320631089661" lon="13.568239773729136"><ele>78.0</ele><time>2026-04-09T08:03:42.999Z</time></trkpt><trkpt lat="38.0330211401011" lon="13.568588263412638"><ele>77.0</ele><time>2026-04-09T08:03:43.999Z</time></trkpt><trkpt lat="38.03283707869223" lon="13.568934431910298"><ele>76.0</ele><time>2026-04-09T08:03:44.999Z</time></trkpt><trkpt lat="38.03265913545412" lon="13.56927970067056"><ele>75.5</ele><time>2026-04-09T08:03:45.999Z</time></trkpt><trkpt lat="38.032480645301156" lon="13.569622029991299"><ele>75.0</ele><time>2026-04-09T08:03:46.999Z</time></trkpt><trkpt lat="38.03230109198778" lon="13.569961406666947"><ele>76.5</ele><time>2026-04-09T08:03:47.999Z</time></trkpt><trkpt lat="38.03212006439774" lon="13.570304407540453"><ele>78.0</ele><time>2026-04-09T08:03:48.999Z</time></trkpt><trkpt lat="38.03194488544788" lon="13.570639680318513"><ele>78.0</ele><time>2026-04-09T08:03:49.999Z</time></trkpt><trkpt lat="38.031768974949" lon="13.570979944426128"><ele>78.0</ele><time>2026-04-09T08:03:50.999Z</time></trkpt><trkpt lat="38.031603068961175" lon="13.571320676815587"><ele>77.5</ele><time>2026-04-09T08:03:51.999Z</time></trkpt><trkpt lat="38.031422380659315" lon="13.571654521016969"><ele>77.0</ele><time>2026-04-09T08:03:52.999Z</time></trkpt><trkpt lat="38.03124124656318" lon="13.571984798387229"><ele>75.0</ele><time>2026-04-09T08:03:53.999Z</time></trkpt><trkpt lat="38.03106132379891" lon="13.572314851113068"><ele>73.0</ele><time>2026-04-09T08:03:54.999Z</time></trkpt><trkpt lat="38.03089293498722" lon="13.57264940580671"><ele>75.5</ele><time>2026-04-09T08:03:55.999Z</time></trkpt><trkpt lat="38.03071196829883" lon="13.572982916464458"><ele>78.0</ele><time>2026-04-09T08:03:56.999Z</time></trkpt><trkpt lat="38.03053234987856" lon="13.573315658405031"><ele>78.0</ele><time>2026-04-09T08:03:57.999Z</time></trkpt><trkpt lat="38.030359595690136" lon="13.573652274982706"><ele>78.0</ele><time>2026-04-09T08:03:58.999Z</time></trkpt><trkpt lat="38.03018622948805" lon="13.573989867325546"><ele>78.5</ele><time>2026-04-09T08:03:59.999Z</time></trkpt><trkpt lat="38.0300195063715" lon="13.574304463431597"><ele>79.0</ele><time>2026-04-09T08:04:00.999Z</time></trkpt><trkpt lat="38.02985584939356" lon="13.574618138251909"><ele>81.0</ele><time>2026-04-09T08:04:01.999Z</time></trkpt><trkpt lat="38.02968687531403" lon="13.574930181835581"><ele>83.0</ele><time>2026-04-09T08:04:02.999Z</time></trkpt><trkpt lat="38.02952491338046" lon="13.575239465769705"><ele>81.5</ele><time>2026-04-09T08:04:03.999Z</time></trkpt><trkpt lat="38.0293595451147" lon="13.575556565821167"><ele>80.0</ele><time>2026-04-09T08:04:04.999Z</time></trkpt><trkpt lat="38.02920250550628" lon="13.575864351900691"><ele>82.0</ele><time>2026-04-09T08:04:05.999Z</time></trkpt><trkpt lat="38.029032972879904" lon="13.576169934188727"><ele>84.0</ele><time>2026-04-09T08:04:06.999Z</time></trkpt><trkpt lat="38.02887457280707" lon="13.576482516934412"><ele>84.0</ele><time>2026-04-09T08:04:07.999Z</time></trkpt><trkpt lat="38.028708986152246" lon="13.576787273622333"><ele>84.0</ele><time>2026-04-09T08:04:08.999Z</time></trkpt><trkpt lat="38.02854157675013" lon="13.577102658481923"><ele>83.0</ele><time>2026-04-09T08:04:09.999Z</time></trkpt><trkpt lat="38.028377828115644" lon="13.577410469674467"><ele>82.0</ele><time>2026-04-09T08:04:10.999Z</time></trkpt><trkpt lat="38.02821772066259" lon="13.57773716187788"><ele>84.5</ele><time>2026-04-09T08:04:11.999Z</time></trkpt><trkpt lat="38.02802069627728" lon="13.578078261711038"><ele>87.0</ele><time>2026-04-09T08:04:12.999Z</time></trkpt><trkpt lat="38.02786020495548" lon="13.578403686842824"><ele>86.5</ele><time>2026-04-09T08:04:13.999Z</time></trkpt><trkpt lat="38.02769629609082" lon="13.578724118954641"><ele>86.0</ele><time>2026-04-09T08:04:14.999Z</time></trkpt><trkpt lat="38.027522183703844" lon="13.5790511244368"><ele>89.0</ele><time>2026-04-09T08:04:15.999Z</time></trkpt><trkpt lat="38.02734098911816" lon="13.579373075252597"><ele>92.0</ele><time>2026-04-09T08:04:17Z</time></trkpt><trkpt lat="38.02716403650328" lon="13.57970023575171"><ele>92.0</ele><time>2026-04-09T08:04:18Z</time></trkpt><trkpt lat="38.02698610839952" lon="13.580031940814141"><ele>92.0</ele><time>2026-04-09T08:04:19Z</time></trkpt><trkpt lat="38.02680978535991" lon="13.580368277418865"><ele>94.5</ele><time>2026-04-09T08:04:20Z</time></trkpt><trkpt lat="38.02663538287156" lon="13.580701330493463"><ele>97.0</ele><time>2026-04-09T08:04:21Z</time></trkpt><trkpt lat="38.02646165702836" lon="13.581033995078995"><ele>97.5</ele><time>2026-04-09T08:04:22Z</time></trkpt><trkpt lat="38.02628297403669" lon="13.581367327062814"><ele>98.0</ele><time>2026-04-09T08:04:23Z</time></trkpt><trkpt lat="38.02610626759293" lon="13.581699034349926"><ele>98.5</ele><time>2026-04-09T08:04:24Z</time></trkpt><trkpt lat="38.02593013302419" lon="13.58203831052373"><ele>99.0</ele><time>2026-04-09T08:04:25Z</time></trkpt><trkpt lat="38.02575122697475" lon="13.582374952274073"><ele>101.5</ele><time>2026-04-09T08:04:26Z</time></trkpt><trkpt lat="38.02557312623855" lon="13.582718102279449"><ele>104.0</ele><time>2026-04-09T08:04:27Z</time></trkpt><trkpt lat="38.025392481197954" lon="13.583079318967107"><ele>104.0</ele><time>2026-04-09T08:04:28Z</time></trkpt><trkpt lat="38.02519934196796" lon="13.583447540296895"><ele>104.0</ele><time>2026-04-09T08:04:29Z</time></trkpt><trkpt lat="38.02500395007474" lon="13.583824062119458"><ele>106.0</ele><time>2026-04-09T08:04:30Z</time></trkpt><trkpt lat="38.024808755176714" lon="13.584196745497415"><ele>108.0</ele><time>2026-04-09T08:04:31Z</time></trkpt><trkpt lat="38.02460971049993" lon="13.584567856734335"><ele>108.0</ele><time>2026-04-09T08:04:32Z</time></trkpt><trkpt lat="38.02440962755931" lon="13.584943460717497"><ele>108.0</ele><time>2026-04-09T08:04:33Z</time></trkpt><trkpt lat="38.02421106080809" lon="13.585324975521969"><ele>106.5</ele><time>2026-04-09T08:04:34Z</time></trkpt><trkpt lat="38.02400695613312" lon="13.58570647110217"><ele>105.0</ele><time>2026-04-09T08:04:35Z</time></trkpt><trkpt lat="38.02380759701687" lon="13.586082286793278"><ele>103.0</ele><time>2026-04-09T08:04:36Z</time></trkpt><trkpt lat="38.02360749643625" lon="13.586463830210459"><ele>101.0</ele><time>2026-04-09T08:04:37Z</time></trkpt><trkpt lat="38.02340862791934" lon="13.5868467829768"><ele>99.5</ele><time>2026-04-09T08:04:38Z</time></trkpt><trkpt lat="38.023215265570194" lon="13.58722652447468"><ele>98.0</ele><time>2026-04-09T08:04:39Z</time></trkpt><trkpt lat="38.02301512821148" lon="13.587605879903585"><ele>96.5</ele><time>2026-04-09T08:04:40Z</time></trkpt><trkpt lat="38.02281947875615" lon="13.587980854005455"><ele>95.0</ele><time>2026-04-09T08:04:41Z</time></trkpt><trkpt lat="38.02261925042792" lon="13.588350697378742"><ele>93.5</ele><time>2026-04-09T08:04:42Z</time></trkpt><trkpt lat="38.02241774173351" lon="13.588717582986472"><ele>92.0</ele><time>2026-04-09T08:04:43Z</time></trkpt><trkpt lat="38.0222188151717" lon="13.589082950186897"><ele>92.0</ele><time>2026-04-09T08:04:44Z</time></trkpt><trkpt lat="38.02202679228026" lon="13.589448757670146"><ele>92.0</ele><time>2026-04-09T08:04:45Z</time></trkpt><trkpt lat="38.0218456456805" lon="13.5898142505792"><ele>95.0</ele><time>2026-04-09T08:04:46Z</time></trkpt><trkpt lat="38.02167498007069" lon="13.590187318600805"><ele>98.0</ele><time>2026-04-09T08:04:47Z</time></trkpt><trkpt lat="38.0215174683258" lon="13.590571515580596"><ele>105.0</ele><time>2026-04-09T08:04:48Z</time></trkpt><trkpt lat="38.02137423887549" lon="13.590963849760502"><ele>112.0</ele><time>2026-04-09T08:04:49Z</time></trkpt><trkpt lat="38.021236723024835" lon="13.5913824060169"><ele>112.0</ele><time>2026-04-09T08:04:50Z</time></trkpt><trkpt lat="38.021109373054905" lon="13.591810035476653"><ele>112.0</ele><time>2026-04-09T08:04:51Z</time></trkpt><trkpt lat="38.020997107777966" lon="13.592236657826513"><ele>113.0</ele><time>2026-04-09T08:04:52Z</time></trkpt><trkpt lat="38.020902991976854" lon="13.592661086351306"><ele>114.0</ele><time>2026-04-09T08:04:53Z</time></trkpt><trkpt lat="38.02082320741758" lon="13.593090479375283"><ele>116.5</ele><time>2026-04-09T08:04:54Z</time></trkpt><trkpt lat="38.02075560036648" lon="13.59352247650419"><ele>119.0</ele><time>2026-04-09T08:04:55Z</time></trkpt><trkpt lat="38.02069984954681" lon="13.593964957014352"><ele>119.0</ele><time>2026-04-09T08:04:56Z</time></trkpt><trkpt lat="38.02065233009891" lon="13.594420214889553"><ele>119.0</ele><time>2026-04-09T08:04:57Z</time></trkpt><trkpt lat="38.020615741546116" lon="13.594886757682417"><ele>107.5</ele><time>2026-04-09T08:04:58Z</time></trkpt><trkpt lat="38.02057677256578" lon="13.59537075471795"><ele>96.0</ele><time>2026-04-09T08:04:59Z</time></trkpt><trkpt lat="38.0205433959151" lon="13.59586155041353"><ele>98.5</ele><time>2026-04-09T08:05:00Z</time></trkpt><trkpt lat="38.020504561224" lon="13.596328870570296"><ele>101.0</ele><time>2026-04-09T08:05:01Z</time></trkpt><trkpt lat="38.02046456571896" lon="13.596783050569696"><ele>103.5</ele><time>2026-04-09T08:05:02Z</time></trkpt><trkpt lat="38.020417215982214" lon="13.597224783309908"><ele>106.0</ele><time>2026-04-09T08:05:03Z</time></trkpt><trkpt lat="38.020361807269175" lon="13.597668693147975"><ele>106.0</ele><time>2026-04-09T08:05:04Z</time></trkpt><trkpt lat="38.02028974562893" lon="13.598115354555647"><ele>106.0</ele><time>2026-04-09T08:05:05Z</time></trkpt><trkpt lat="38.02019834239859" lon="13.598568191036797"><ele>105.0</ele><time>2026-04-09T08:05:06Z</time></trkpt><trkpt lat="38.02009722806048" lon="13.599023837320757"><ele>104.0</ele><time>2026-04-09T08:05:07Z</time></trkpt><trkpt lat="38.019982150559656" lon="13.599467476690045"><ele>108.0</ele><time>2026-04-09T08:05:08Z</time></trkpt><trkpt lat="38.019853488519736" lon="13.599903008346864"><ele>112.0</ele><time>2026-04-09T08:05:09Z</time></trkpt><trkpt lat="38.019706749735455" lon="13.600328931953452"><ele>109.5</ele><time>2026-04-09T08:05:10Z</time></trkpt><trkpt lat="38.019545839844774" lon="13.60074758236174"><ele>107.0</ele><time>2026-04-09T08:05:11Z</time></trkpt><trkpt lat="38.0193713009029" lon="13.601154370842334"><ele>102.5</ele><time>2026-04-09T08:05:12Z</time></trkpt><trkpt lat="38.01918406241372" lon="13.601551821029442"><ele>98.0</ele><time>2026-04-09T08:05:13Z</time></trkpt><trkpt lat="38.018984339214505" lon="13.601937508725808"><ele>94.0</ele><time>2026-04-09T08:05:14Z</time></trkpt><trkpt lat="38.018774571560556" lon="13.6023129938489"><ele>90.0</ele><time>2026-04-09T08:05:15Z</time></trkpt><trkpt lat="38.01855590899949" lon="13.6026741774566"><ele>89.5</ele><time>2026-04-09T08:05:16Z</time></trkpt><trkpt lat="38.01832737819146" lon="13.603025344476265"><ele>89.0</ele><time>2026-04-09T08:05:17Z</time></trkpt><trkpt lat="38.01809014291673" lon="13.603364674295939"><ele>84.5</ele><time>2026-04-09T08:05:18Z</time></trkpt><trkpt lat="38.01784960894683" lon="13.603698011595435"><ele>80.0</ele><time>2026-04-09T08:05:19Z</time></trkpt><trkpt lat="38.01760566393681" lon="13.60402480830652"><ele>79.5</ele><time>2026-04-09T08:05:20Z</time></trkpt><trkpt lat="38.017362365594536" lon="13.60434876910356"><ele>79.0</ele><time>2026-04-09T08:05:21Z</time></trkpt><trkpt lat="38.017120173452085" lon="13.604670425887285"><ele>79.0</ele><time>2026-04-09T08:05:22Z</time></trkpt><trkpt lat="38.01687839347763" lon="13.604989957196294"><ele>79.0</ele><time>2026-04-09T08:05:23Z</time></trkpt><trkpt lat="38.01663682258742" lon="13.605303089656001"><ele>80.5</ele><time>2026-04-09T08:05:24Z</time></trkpt><trkpt lat="38.016396209969315" lon="13.605616066727592"><ele>82.0</ele><time>2026-04-09T08:05:25Z</time></trkpt><trkpt lat="38.01615286332853" lon="13.605925116015602"><ele>81.0</ele><time>2026-04-09T08:05:25.999Z</time></trkpt><trkpt lat="38.015909473383665" lon="13.606231926910285"><ele>80.0</ele><time>2026-04-09T08:05:26.999Z</time></trkpt><trkpt lat="38.01566881303309" lon="13.606539082815045"><ele>80.0</ele><time>2026-04-09T08:05:27.999Z</time></trkpt><trkpt lat="38.01542747175346" lon="13.606849273131514"><ele>80.0</ele><time>2026-04-09T08:05:28.999Z</time></trkpt><trkpt lat="38.01518775381896" lon="13.60715920424608"><ele>78.5</ele><time>2026-04-09T08:05:29.999Z</time></trkpt><trkpt lat="38.014950339908516" lon="13.607473083477673"><ele>77.0</ele><time>2026-04-09T08:05:30.999Z</time></trkpt><trkpt lat="38.01471325094958" lon="13.607785295719369"><ele>75.5</ele><time>2026-04-09T08:05:31.999Z</time></trkpt><trkpt lat="38.01448206983697" lon="13.608102307400323"><ele>74.0</ele><time>2026-04-09T08:05:32.999Z</time></trkpt><trkpt lat="38.01425452941371" lon="13.608431112196978"><ele>69.0</ele><time>2026-04-09T08:05:33.999Z</time></trkpt><trkpt lat="38.01403549863595" lon="13.608763317510675"><ele>64.0</ele><time>2026-04-09T08:05:34.999Z</time></trkpt><trkpt lat="38.01381630164426" lon="13.60910138161157"><ele>64.0</ele><time>2026-04-09T08:05:35.999Z</time></trkpt><trkpt lat="38.013603985444384" lon="13.609439589252618"><ele>64.0</ele><time>2026-04-09T08:05:36.999Z</time></trkpt><trkpt lat="38.01339132821868" lon="13.609774908538594"><ele>65.0</ele><time>2026-04-09T08:05:37.999Z</time></trkpt><trkpt lat="38.01318033584459" lon="13.610109789571013"><ele>66.0</ele><time>2026-04-09T08:05:38.999Z</time></trkpt><trkpt lat="38.012969231565414" lon="13.610442186443036"><ele>66.0</ele><time>2026-04-09T08:05:39.999Z</time></trkpt><trkpt lat="38.01276091967063" lon="13.610769993399408"><ele>66.0</ele><time>2026-04-09T08:05:40.999Z</time></trkpt><trkpt lat="38.01255130509601" lon="13.611098232260646"><ele>67.0</ele><time>2026-04-09T08:05:41.999Z</time></trkpt><trkpt lat="38.01234347097206" lon="13.611425152317326"><ele>68.0</ele><time>2026-04-09T08:05:42.999Z</time></trkpt><trkpt lat="38.012137764210294" lon="13.611752190831892"><ele>64.5</ele><time>2026-04-09T08:05:43.999Z</time></trkpt><trkpt lat="38.01193075805911" lon="13.612074106596541"><ele>61.0</ele><time>2026-04-09T08:05:44.999Z</time></trkpt><trkpt lat="38.011726558032876" lon="13.612399624078114"><ele>58.5</ele><time>2026-04-09T08:05:45.999Z</time></trkpt><trkpt lat="38.01152246955266" lon="13.612722185391117"><ele>56.0</ele><time>2026-04-09T08:05:46.999Z</time></trkpt><trkpt lat="38.01131811564432" lon="13.613045776849013"><ele>53.5</ele><time>2026-04-09T08:05:47.999Z</time></trkpt><trkpt lat="38.01111786050085" lon="13.613368695662562"><ele>51.0</ele><time>2026-04-09T08:05:48.999Z</time></trkpt><trkpt lat="38.010920273067995" lon="13.613690183406954"><ele>53.0</ele><time>2026-04-09T08:05:49.999Z</time></trkpt><trkpt lat="38.010725344415654" lon="13.614007128261571"><ele>55.0</ele><time>2026-04-09T08:05:50.999Z</time></trkpt><trkpt lat="38.01053101751172" lon="13.61431849463995"><ele>53.0</ele><time>2026-04-09T08:05:51.999Z</time></trkpt><trkpt lat="38.01033889460126" lon="13.614629548682187"><ele>51.0</ele><time>2026-04-09T08:05:52.999Z</time></trkpt><trkpt lat="38.01014529935392" lon="13.614945825646538"><ele>50.5</ele><time>2026-04-09T08:05:53.999Z</time></trkpt><trkpt lat="38.009953451917355" lon="13.615258390241864"><ele>50.0</ele><time>2026-04-09T08:05:54.999Z</time></trkpt><trkpt lat="38.00976861940401" lon="13.615560251662222"><ele>50.0</ele><time>2026-04-09T08:05:55.999Z</time></trkpt><trkpt lat="38.009586253979215" lon="13.615848305007207"><ele>50.0</ele><time>2026-04-09T08:05:56.999Z</time></trkpt><trkpt lat="38.0094108489072" lon="13.616125270696743"><ele>45.5</ele><time>2026-04-09T08:05:57.999Z</time></trkpt><trkpt lat="38.00923686495206" lon="13.616400060096964"><ele>41.0</ele><time>2026-04-09T08:05:58.999Z</time></trkpt><trkpt lat="38.00906421436231" lon="13.616674920276704"><ele>38.5</ele><time>2026-04-09T08:05:59.999Z</time></trkpt><trkpt lat="38.008894569108854" lon="13.616942686923473"><ele>36.0</ele><time>2026-04-09T08:06:00.999Z</time></trkpt><trkpt lat="38.00872751466831" lon="13.617206111519517"><ele>34.5</ele><time>2026-04-09T08:06:01.999Z</time></trkpt><trkpt lat="38.008561792925725" lon="13.61746480690559"><ele>33.0</ele><time>2026-04-09T08:06:02.999Z</time></trkpt><trkpt lat="38.00839653700158" lon="13.617723909485079"><ele>33.0</ele><time>2026-04-09T08:06:03.999Z</time></trkpt><trkpt lat="38.00822795647662" lon="13.61798948923848"><ele>33.0</ele><time>2026-04-09T08:06:04.999Z</time></trkpt><trkpt lat="38.00805835572558" lon="13.618259459037398"><ele>33.0</ele><time>2026-04-09T08:06:05.999Z</time></trkpt><trkpt lat="38.00788520183512" lon="13.618533770555189"><ele>33.0</ele><time>2026-04-09T08:06:06.999Z</time></trkpt><trkpt lat="38.0077088544106" lon="13.618810776763365"><ele>33.0</ele><time>2026-04-09T08:06:07.999Z</time></trkpt><trkpt lat="38.00753043870127" lon="13.619095154847763"><ele>33.0</ele><time>2026-04-09T08:06:08.999Z</time></trkpt><trkpt lat="38.007347910382315" lon="13.619381325862957"><ele>33.0</ele><time>2026-04-09T08:06:09.999Z</time></trkpt><trkpt lat="38.00716918970531" lon="13.619663538707023"><ele>33.0</ele><time>2026-04-09T08:06:10.999Z</time></trkpt><trkpt lat="38.006988106717074" lon="13.61995423267766"><ele>33.0</ele><time>2026-04-09T08:06:11.999Z</time></trkpt><trkpt lat="38.00679832659869" lon="13.620261488584935"><ele>33.0</ele><time>2026-04-09T08:06:12.999Z</time></trkpt><trkpt lat="38.006591929764035" lon="13.620578724613386"><ele>32.0</ele><time>2026-04-09T08:06:13.999Z</time></trkpt><trkpt lat="38.00638007756113" lon="13.620908095407083"><ele>31.0</ele><time>2026-04-09T08:06:14.999Z</time></trkpt><trkpt lat="38.00616333995572" lon="13.6212535175263"><ele>31.0</ele><time>2026-04-09T08:06:15.999Z</time></trkpt><trkpt lat="38.00594777431007" lon="13.621609201800759"><ele>31.0</ele><time>2026-04-09T08:06:16.999Z</time></trkpt><trkpt lat="38.00573625942693" lon="13.62198475700869"><ele>31.0</ele><time>2026-04-09T08:06:17.999Z</time></trkpt><trkpt lat="38.00553676518132" lon="13.622375378001985"><ele>31.0</ele><time>2026-04-09T08:06:18.999Z</time></trkpt><trkpt lat="38.005351751035285" lon="13.62277833056225"><ele>28.5</ele><time>2026-04-09T08:06:19.999Z</time></trkpt><trkpt lat="38.00518097390693" lon="13.623190465479526"><ele>26.0</ele><time>2026-04-09T08:06:20.999Z</time></trkpt><trkpt lat="38.00502017179336" lon="13.62361039608938"><ele>27.5</ele><time>2026-04-09T08:06:21.999Z</time></trkpt><trkpt lat="38.004866983666744" lon="13.62403553134317"><ele>29.0</ele><time>2026-04-09T08:06:23Z</time></trkpt><trkpt lat="38.00471757313748" lon="13.624461319710253"><ele>31.5</ele><time>2026-04-09T08:06:24Z</time></trkpt><trkpt lat="38.00457410598414" lon="13.624886682604675"><ele>34.0</ele><time>2026-04-09T08:06:25Z</time></trkpt><trkpt lat="38.00443473022493" lon="13.625314596809597"><ele>34.0</ele><time>2026-04-09T08:06:26Z</time></trkpt><trkpt lat="38.0042966712669" lon="13.62573803423984"><ele>34.0</ele><time>2026-04-09T08:06:27Z</time></trkpt><trkpt lat="38.00416228861861" lon="13.626159404088039"><ele>35.0</ele><time>2026-04-09T08:06:28Z</time></trkpt><trkpt lat="38.00403062961059" lon="13.626582849607027"><ele>36.0</ele><time>2026-04-09T08:06:29Z</time></trkpt><trkpt lat="38.00389893856336" lon="13.627002850515858"><ele>36.0</ele><time>2026-04-09T08:06:30Z</time></trkpt><trkpt lat="38.00376340302841" lon="13.627415579958463"><ele>36.0</ele><time>2026-04-09T08:06:31Z</time></trkpt><trkpt lat="38.00362509944672" lon="13.627824815410744"><ele>36.0</ele><time>2026-04-09T08:06:32Z</time></trkpt><trkpt lat="38.003486677754914" lon="13.628232735758338"><ele>36.0</ele><time>2026-04-09T08:06:33Z</time></trkpt><trkpt lat="38.00334653048614" lon="13.62863570792793"><ele>44.0</ele><time>2026-04-09T08:06:34Z</time></trkpt><trkpt lat="38.00320682094422" lon="13.629037322284523"><ele>52.0</ele><time>2026-04-09T08:06:35Z</time></trkpt><trkpt lat="38.00306940810853" lon="13.629435564263574"><ele>51.0</ele><time>2026-04-09T08:06:36Z</time></trkpt><trkpt lat="38.00293459528805" lon="13.629838118165726"><ele>50.0</ele><time>2026-04-09T08:06:37Z</time></trkpt><trkpt lat="38.0028032139662" lon="13.6302424853975"><ele>48.0</ele><time>2026-04-09T08:06:38Z</time></trkpt><trkpt lat="38.0026730537845" lon="13.630645116832891"><ele>46.0</ele><time>2026-04-09T08:06:39Z</time></trkpt><trkpt lat="38.00254119883086" lon="13.631049333199815"><ele>46.5</ele><time>2026-04-09T08:06:40Z</time></trkpt><trkpt lat="38.002411147255" lon="13.631446211221649"><ele>47.0</ele><time>2026-04-09T08:06:41Z</time></trkpt><trkpt lat="38.002282611966535" lon="13.631837826840004"><ele>41.5</ele><time>2026-04-09T08:06:42Z</time></trkpt><trkpt lat="38.00215626515371" lon="13.632228163202141"><ele>36.0</ele><time>2026-04-09T08:06:43Z</time></trkpt><trkpt lat="38.00202517762543" lon="13.632615860204496"><ele>34.5</ele><time>2026-04-09T08:06:44Z</time></trkpt><trkpt lat="38.001887206434155" lon="13.632997491399399"><ele>33.0</ele><time>2026-04-09T08:06:45Z</time></trkpt><trkpt lat="38.00173919408907" lon="13.633375204299606"><ele>36.0</ele><time>2026-04-09T08:06:46Z</time></trkpt><trkpt lat="38.001577446889286" lon="13.633755784027505"><ele>39.0</ele><time>2026-04-09T08:06:47Z</time></trkpt><trkpt lat="38.00139674741719" lon="13.634132422529122"><ele>41.5</ele><time>2026-04-09T08:06:48Z</time></trkpt><trkpt lat="38.00120170308798" lon="13.63450680882782"><ele>44.0</ele><time>2026-04-09T08:06:49Z</time></trkpt><trkpt lat="38.00099612147601" lon="13.634878769822574"><ele>46.0</ele><time>2026-04-09T08:06:50Z</time></trkpt><trkpt lat="38.00078385238421" lon="13.63525050353397"><ele>48.0</ele><time>2026-04-09T08:06:51Z</time></trkpt><trkpt lat="38.00057313373725" lon="13.635623824290581"><ele>48.0</ele><time>2026-04-09T08:06:52Z</time></trkpt><trkpt lat="38.00036866690703" lon="13.636007820789112"><ele>48.0</ele><time>2026-04-09T08:06:53Z</time></trkpt><trkpt lat="38.000176587038524" lon="13.636395956471523"><ele>47.5</ele><time>2026-04-09T08:06:54Z</time></trkpt><trkpt lat="37.99999612170896" lon="13.636796136537798"><ele>47.0</ele><time>2026-04-09T08:06:55Z</time></trkpt><trkpt lat="37.99982917102673" lon="13.637203196654307"><ele>46.5</ele><time>2026-04-09T08:06:56Z</time></trkpt><trkpt lat="37.999677763187805" lon="13.637613964896167"><ele>46.0</ele><time>2026-04-09T08:06:57Z</time></trkpt><trkpt lat="37.99953909742395" lon="13.638033247665588"><ele>44.5</ele><time>2026-04-09T08:06:58Z</time></trkpt><trkpt lat="37.9994105984322" lon="13.638468346891898"><ele>43.0</ele><time>2026-04-09T08:06:59Z</time></trkpt><trkpt lat="37.99929415776045" lon="13.638905751553638"><ele>42.0</ele><time>2026-04-09T08:07:00Z</time></trkpt><trkpt lat="37.999194286821606" lon="13.639348943798687"><ele>41.0</ele><time>2026-04-09T08:07:01Z</time></trkpt><trkpt lat="37.9991088092145" lon="13.63979691205856"><ele>52.5</ele><time>2026-04-09T08:07:02Z</time></trkpt><trkpt lat="37.99903380714071" lon="13.64024572647658"><ele>64.0</ele><time>2026-04-09T08:07:03Z</time></trkpt><trkpt lat="37.998965966033616" lon="13.640693152276361"><ele>60.5</ele><time>2026-04-09T08:07:04Z</time></trkpt><trkpt lat="37.99890040883393" lon="13.641142521255563"><ele>57.0</ele><time>2026-04-09T08:07:05Z</time></trkpt><trkpt lat="37.99882989373179" lon="13.641588091151288"><ele>55.5</ele><time>2026-04-09T08:07:06Z</time></trkpt><trkpt lat="37.998747428202506" lon="13.642031833083603"><ele>54.0</ele><time>2026-04-09T08:07:07Z</time></trkpt><trkpt lat="37.998649109647104" lon="13.64246533471359"><ele>51.5</ele><time>2026-04-09T08:07:08Z</time></trkpt><trkpt lat="37.99853650640173" lon="13.64289634093532"><ele>49.0</ele><time>2026-04-09T08:07:09Z</time></trkpt><trkpt lat="37.99840756578441" lon="13.6433163245749"><ele>62.5</ele><time>2026-04-09T08:07:10Z</time></trkpt><trkpt lat="37.99826449634327" lon="13.643722367746786"><ele>76.0</ele><time>2026-04-09T08:07:11Z</time></trkpt><trkpt lat="37.998108570034354" lon="13.644118203169688"><ele>72.0</ele><time>2026-04-09T08:07:12Z</time></trkpt><trkpt lat="37.99794120475541" lon="13.6445008745502"><ele>68.0</ele><time>2026-04-09T08:07:13Z</time></trkpt><trkpt lat="37.99776136101917" lon="13.644862936980648"><ele>68.0</ele><time>2026-04-09T08:07:14Z</time></trkpt><trkpt lat="37.997571922107085" lon="13.64520133726672"><ele>68.0</ele><time>2026-04-09T08:07:15Z</time></trkpt><trkpt lat="37.99737113878386" lon="13.64551953956802"><ele>84.0</ele><time>2026-04-09T08:07:16Z</time></trkpt><trkpt lat="37.99715453837965" lon="13.645824416665931"><ele>100.0</ele><time>2026-04-09T08:07:17Z</time></trkpt><trkpt lat="37.9969329057385" lon="13.64612291515073"><ele>93.0</ele><time>2026-04-09T08:07:18Z</time></trkpt><trkpt lat="37.99671243021921" lon="13.646416013070015"><ele>86.0</ele><time>2026-04-09T08:07:19Z</time></trkpt><trkpt lat="37.996493720941984" lon="13.64670367735739"><ele>98.0</ele><time>2026-04-09T08:07:20Z</time></trkpt><trkpt lat="37.99627695869726" lon="13.646987572847014"><ele>110.0</ele><time>2026-04-09T08:07:21Z</time></trkpt><trkpt lat="37.99604953298855" lon="13.64728325188806"><ele>110.0</ele><time>2026-04-09T08:07:22.061Z</time></trkpt><trkpt lat="37.9958395160952" lon="13.647554615792998"><ele>110.0</ele><time>2026-04-09T08:07:23.061Z</time></trkpt><trkpt lat="37.99543462882622" lon="13.648069351730102"><ele>102.0</ele><time>2026-04-09T08:07:25Z</time></trkpt><trkpt lat="37.995212887930634" lon="13.648517423352553"><ele>94.0</ele><time>2026-04-09T08:07:26Z</time></trkpt><trkpt lat="37.99497594329861" lon="13.648808672149915"><ele>94.0</ele><time>2026-04-09T08:07:27Z</time></trkpt><trkpt lat="37.994765409314944" lon="13.649104691786805"><ele>94.0</ele><time>2026-04-09T08:07:28Z</time></trkpt><trkpt lat="37.99455848811265" lon="13.649394415860755"><ele>88.5</ele><time>2026-04-09T08:07:28.999Z</time></trkpt><trkpt lat="37.99435773974088" lon="13.649683351117604"><ele>83.0</ele><time>2026-04-09T08:07:29.999Z</time></trkpt><trkpt lat="37.99416484038655" lon="13.649970671112197"><ele>95.5</ele><time>2026-04-09T08:07:30.999Z</time></trkpt><trkpt lat="37.99396903553487" lon="13.650258157689715"><ele>108.0</ele><time>2026-04-09T08:07:31.999Z</time></trkpt><trkpt lat="37.99377230340465" lon="13.650541165791495"><ele>109.0</ele><time>2026-04-09T08:07:32.999Z</time></trkpt><trkpt lat="37.99356772757854" lon="13.650829446058498"><ele>110.0</ele><time>2026-04-09T08:07:33.999Z</time></trkpt><trkpt lat="37.993356347777144" lon="13.651120011682607"><ele>123.0</ele><time>2026-04-09T08:07:34.999Z</time></trkpt><trkpt lat="37.99313938259979" lon="13.651416929058563"><ele>136.0</ele><time>2026-04-09T08:07:35.999Z</time></trkpt><trkpt lat="37.99293437842675" lon="13.651696955593268"><ele>122.0</ele><time>2026-04-09T08:07:36.999Z</time></trkpt><trkpt lat="37.992728794806574" lon="13.651974897171195"><ele>108.0</ele><time>2026-04-09T08:07:37.999Z</time></trkpt><trkpt lat="37.99250672943563" lon="13.652266747249634"><ele>114.5</ele><time>2026-04-09T08:07:39.074Z</time></trkpt><trkpt lat="37.992291376030224" lon="13.652534009651946"><ele>121.0</ele><time>2026-04-09T08:07:40.064Z</time></trkpt><trkpt lat="37.992068103223396" lon="13.652799350092435"><ele>93.0</ele><time>2026-04-09T08:07:41.058Z</time></trkpt><trkpt lat="37.99169044233758" lon="13.653189865955394"><ele>103.0</ele><time>2026-04-09T08:07:42.999Z</time></trkpt><trkpt lat="37.991476096663845" lon="13.653403661464973"><ele>113.0</ele><time>2026-04-09T08:07:43.999Z</time></trkpt><trkpt lat="37.99124662414896" lon="13.653587995526276"><ele>110.0</ele><time>2026-04-09T08:07:44.999Z</time></trkpt><trkpt lat="37.98975858690221" lon="13.654696148116138"><ele>110.0</ele><time>2026-04-09T08:07:50.999Z</time></trkpt><trkpt lat="37.989509938952956" lon="13.654823592150132"><ele>110.0</ele><time>2026-04-09T08:07:51.999Z</time></trkpt><trkpt lat="37.989100506717136" lon="13.655017270549214"><ele>115.0</ele><time>2026-04-09T08:07:52.999Z</time></trkpt><trkpt lat="37.98871339042394" lon="13.655158440146677"><ele>120.0</ele><time>2026-04-09T08:07:53.999Z</time></trkpt><trkpt lat="37.9883600359981" lon="13.655279119169832"><ele>114.0</ele><time>2026-04-09T08:07:54.999Z</time></trkpt><trkpt lat="37.98803055138377" lon="13.655416445039673"><ele>108.0</ele><time>2026-04-09T08:07:55.999Z</time></trkpt><trkpt lat="37.98771055205007" lon="13.65558509662234"><ele>115.5</ele><time>2026-04-09T08:07:56.999Z</time></trkpt><trkpt lat="37.98741060182678" lon="13.65576537895421"><ele>123.0</ele><time>2026-04-09T08:07:57.999Z</time></trkpt><trkpt lat="37.98711812190089" lon="13.655954333322343"><ele>119.0</ele><time>2026-04-09T08:07:58.999Z</time></trkpt><trkpt lat="37.9868324637294" lon="13.656154029864584"><ele>115.0</ele><time>2026-04-09T08:07:59.999Z</time></trkpt><trkpt lat="37.98655409060063" lon="13.656363403068738"><ele>115.0</ele><time>2026-04-09T08:08:00.999Z</time></trkpt><trkpt lat="37.986291736924684" lon="13.656577439117045"><ele>115.0</ele><time>2026-04-09T08:08:01.999Z</time></trkpt><trkpt lat="37.98604249102304" lon="13.65680110628488"><ele>117.5</ele><time>2026-04-09T08:08:02.999Z</time></trkpt><trkpt lat="37.98580355542354" lon="13.657030387752876"><ele>120.0</ele><time>2026-04-09T08:08:03.999Z</time></trkpt><trkpt lat="37.985569836814605" lon="13.657269422556078"><ele>120.0</ele><time>2026-04-09T08:08:04.999Z</time></trkpt><trkpt lat="37.98534742539242" lon="13.657520127677138"><ele>120.0</ele><time>2026-04-09T08:08:05.999Z</time></trkpt><trkpt lat="37.98513222266062" lon="13.657780087305742"><ele>125.0</ele><time>2026-04-09T08:08:06.999Z</time></trkpt><trkpt lat="37.98492265489736" lon="13.658051996195368"><ele>130.0</ele><time>2026-04-09T08:08:07.999Z</time></trkpt><trkpt lat="37.9847154481963" lon="13.658334456393462"><ele>128.5</ele><time>2026-04-09T08:08:08.999Z</time></trkpt><trkpt lat="37.98451415417203" lon="13.658626495186304"><ele>127.0</ele><time>2026-04-09T08:08:09.999Z</time></trkpt><trkpt lat="37.984321799176485" lon="13.658923295164568"><ele>130.0</ele><time>2026-04-09T08:08:10.999Z</time></trkpt><trkpt lat="37.984138495053784" lon="13.659228895700544"><ele>133.0</ele><time>2026-04-09T08:08:11.999Z</time></trkpt><trkpt lat="37.98396574458599" lon="13.659542372000326"><ele>133.0</ele><time>2026-04-09T08:08:12.999Z</time></trkpt><trkpt lat="37.98380528538465" lon="13.659860312295827"><ele>133.0</ele><time>2026-04-09T08:08:13.999Z</time></trkpt><trkpt lat="37.98365249833856" lon="13.660184357601995"><ele>129.0</ele><time>2026-04-09T08:08:14.999Z</time></trkpt><trkpt lat="37.98350884005444" lon="13.660514466707532"><ele>125.0</ele><time>2026-04-09T08:08:15.999Z</time></trkpt><trkpt lat="37.98337274460343" lon="13.660848668314342"><ele>131.5</ele><time>2026-04-09T08:08:16.999Z</time></trkpt><trkpt lat="37.98324469322389" lon="13.661190557547037"><ele>138.0</ele><time>2026-04-09T08:08:17.999Z</time></trkpt><trkpt lat="37.983124426624364" lon="13.661535655709987"><ele>138.0</ele><time>2026-04-09T08:08:18.999Z</time></trkpt><trkpt lat="37.98301497109562" lon="13.661877824409563"><ele>138.0</ele><time>2026-04-09T08:08:19.999Z</time></trkpt><trkpt lat="37.98291790981124" lon="13.662224755039862"><ele>134.5</ele><time>2026-04-09T08:08:20.999Z</time></trkpt><trkpt lat="37.982831098574486" lon="13.662579938707827"><ele>131.0</ele><time>2026-04-09T08:08:21.999Z</time></trkpt><trkpt lat="37.98274134616797" lon="13.662942545557291"><ele>128.0</ele><time>2026-04-09T08:08:22.999Z</time></trkpt><trkpt lat="37.98268126691219" lon="13.663328972365257"><ele>125.0</ele><time>2026-04-09T08:08:23.999Z</time></trkpt><trkpt lat="37.98260124066534" lon="13.663701102473134"><ele>124.0</ele><time>2026-04-09T08:08:24.999Z</time></trkpt><trkpt lat="37.98252204797677" lon="13.664070922689506"><ele>123.0</ele><time>2026-04-09T08:08:25.999Z</time></trkpt><trkpt lat="37.982446209439345" lon="13.66443378475151"><ele>126.5</ele><time>2026-04-09T08:08:26.999Z</time></trkpt><trkpt lat="37.98236956787297" lon="13.66479145938555"><ele>130.0</ele><time>2026-04-09T08:08:27.999Z</time></trkpt><trkpt lat="37.982294433604785" lon="13.665146905144944"><ele>128.0</ele><time>2026-04-09T08:08:29Z</time></trkpt><trkpt lat="37.98221265607455" lon="13.665511442869603"><ele>126.0</ele><time>2026-04-09T08:08:30Z</time></trkpt><trkpt lat="37.98212086119735" lon="13.665878613082342"><ele>125.0</ele><time>2026-04-09T08:08:31Z</time></trkpt><trkpt lat="37.98201970975471" lon="13.666244171990233"><ele>124.0</ele><time>2026-04-09T08:08:32Z</time></trkpt><trkpt lat="37.98191128921068" lon="13.666606112301963"><ele>124.0</ele><time>2026-04-09T08:08:33Z</time></trkpt><trkpt lat="37.98179961933197" lon="13.66696264490814"><ele>124.0</ele><time>2026-04-09T08:08:34Z</time></trkpt><trkpt lat="37.98168145717388" lon="13.66731857612695"><ele>124.5</ele><time>2026-04-09T08:08:35Z</time></trkpt><trkpt lat="37.981555137877024" lon="13.6676679463035"><ele>125.0</ele><time>2026-04-09T08:08:36Z</time></trkpt><trkpt lat="37.98142109457658" lon="13.668011953796796"><ele>125.0</ele><time>2026-04-09T08:08:37Z</time></trkpt><trkpt lat="37.98128035855989" lon="13.668350889754338"><ele>125.0</ele><time>2026-04-09T08:08:38Z</time></trkpt><trkpt lat="37.981134657065816" lon="13.668684151652036"><ele>122.5</ele><time>2026-04-09T08:08:39Z</time></trkpt><trkpt lat="37.98098677830184" lon="13.669010452085935"><ele>120.0</ele><time>2026-04-09T08:08:40Z</time></trkpt><trkpt lat="37.98083644605056" lon="13.669334370511827"><ele>108.5</ele><time>2026-04-09T08:08:41Z</time></trkpt><trkpt lat="37.98068635317998" lon="13.669654489209211"><ele>97.0</ele><time>2026-04-09T08:08:42Z</time></trkpt><trkpt lat="37.98054002440433" lon="13.669974322518314"><ele>87.5</ele><time>2026-04-09T08:08:43Z</time></trkpt><trkpt lat="37.980392228264705" lon="13.670291876994554"><ele>78.0</ele><time>2026-04-09T08:08:44Z</time></trkpt><trkpt lat="37.98024351899043" lon="13.670609420100453"><ele>78.0</ele><time>2026-04-09T08:08:45Z</time></trkpt><trkpt lat="37.98009501549259" lon="13.670926980220598"><ele>78.0</ele><time>2026-04-09T08:08:46Z</time></trkpt><trkpt lat="37.97994949364512" lon="13.671240476531242"><ele>79.0</ele><time>2026-04-09T08:08:47Z</time></trkpt><trkpt lat="37.97980502555973" lon="13.671555125010244"><ele>80.0</ele><time>2026-04-09T08:08:48Z</time></trkpt><trkpt lat="37.9796627001314" lon="13.671871459735238"><ele>60.0</ele><time>2026-04-09T08:08:49Z</time></trkpt><trkpt lat="37.97952055067677" lon="13.672188664761396"><ele>40.0</ele><time>2026-04-09T08:08:50Z</time></trkpt><trkpt lat="37.97937655452147" lon="13.672510060208658"><ele>34.5</ele><time>2026-04-09T08:08:51Z</time></trkpt><trkpt lat="37.97923266849958" lon="13.672834257420877"><ele>29.0</ele><time>2026-04-09T08:08:52Z</time></trkpt><trkpt lat="37.9790872896843" lon="13.673167107960479"><ele>46.0</ele><time>2026-04-09T08:08:53Z</time></trkpt><trkpt lat="37.97893587527074" lon="13.673520354350012"><ele>63.0</ele><time>2026-04-09T08:08:54Z</time></trkpt><trkpt lat="37.97877780648078" lon="13.673879183236481"><ele>75.0</ele><time>2026-04-09T08:08:55Z</time></trkpt><trkpt lat="37.97861284502132" lon="13.674243522123295"><ele>87.0</ele><time>2026-04-09T08:08:56Z</time></trkpt><trkpt lat="37.97844365951613" lon="13.674609102945645"><ele>89.5</ele><time>2026-04-09T08:08:57Z</time></trkpt><trkpt lat="37.97827450785768" lon="13.674974735481648"><ele>92.0</ele><time>2026-04-09T08:08:58Z</time></trkpt><trkpt lat="37.97810687397722" lon="13.675339579975011"><ele>92.0</ele><time>2026-04-09T08:08:59Z</time></trkpt><trkpt lat="37.97794139554671" lon="13.675702176213903"><ele>92.0</ele><time>2026-04-09T08:09:00Z</time></trkpt><trkpt lat="37.97777605693955" lon="13.67605906430858"><ele>88.5</ele><time>2026-04-09T08:09:01Z</time></trkpt><trkpt lat="37.97761532795752" lon="13.676405422892524"><ele>85.0</ele><time>2026-04-09T08:09:02Z</time></trkpt><trkpt lat="37.977455595166866" lon="13.676748202815743"><ele>92.0</ele><time>2026-04-09T08:09:03Z</time></trkpt><trkpt lat="37.9772917205102" lon="13.677095064270736"><ele>99.0</ele><time>2026-04-09T08:09:04Z</time></trkpt><trkpt lat="37.97713036704386" lon="13.677444341479333"><ele>92.5</ele><time>2026-04-09T08:09:05Z</time></trkpt><trkpt lat="37.97696782495825" lon="13.677794948041916"><ele>86.0</ele><time>2026-04-09T08:09:06Z</time></trkpt><trkpt lat="37.976804902551805" lon="13.678145942322182"><ele>85.5</ele><time>2026-04-09T08:09:07Z</time></trkpt><trkpt lat="37.97664080530903" lon="13.678497918334775"><ele>85.0</ele><time>2026-04-09T08:09:08Z</time></trkpt><trkpt lat="37.976478457154684" lon="13.678851570597523"><ele>85.0</ele><time>2026-04-09T08:09:09Z</time></trkpt><trkpt lat="37.97631751350391" lon="13.679210932538243"><ele>85.0</ele><time>2026-04-09T08:09:10Z</time></trkpt><trkpt lat="37.976153992417885" lon="13.679571298621681"><ele>87.5</ele><time>2026-04-09T08:09:11Z</time></trkpt><trkpt lat="37.975991217010716" lon="13.679928075002323"><ele>90.0</ele><time>2026-04-09T08:09:12Z</time></trkpt><trkpt lat="37.97582816045631" lon="13.680287048901699"><ele>90.0</ele><time>2026-04-09T08:09:13Z</time></trkpt><trkpt lat="37.97566617161135" lon="13.680640923093412"><ele>90.0</ele><time>2026-04-09T08:09:14Z</time></trkpt><trkpt lat="37.975503404066146" lon="13.680997220908873"><ele>86.5</ele><time>2026-04-09T08:09:15Z</time></trkpt><trkpt lat="37.97534329022823" lon="13.681358128874814"><ele>83.0</ele><time>2026-04-09T08:09:16Z</time></trkpt><trkpt lat="37.97519157548279" lon="13.681715109512616"><ele>83.0</ele><time>2026-04-09T08:09:17Z</time></trkpt><trkpt lat="37.97504694765986" lon="13.682072976375522"><ele>83.0</ele><time>2026-04-09T08:09:18Z</time></trkpt><trkpt lat="37.97490668249049" lon="13.682426253128808"><ele>93.0</ele><time>2026-04-09T08:09:19Z</time></trkpt><trkpt lat="37.97476784671989" lon="13.682774560059721"><ele>103.0</ele><time>2026-04-09T08:09:20Z</time></trkpt><trkpt lat="37.97463400576477" lon="13.683121398945747"><ele>103.0</ele><time>2026-04-09T08:09:21Z</time></trkpt><trkpt lat="37.97450055491535" lon="13.683471411507513"><ele>103.0</ele><time>2026-04-09T08:09:22Z</time></trkpt><trkpt lat="37.974367963706285" lon="13.683828156089064"><ele>103.0</ele><time>2026-04-09T08:09:23Z</time></trkpt><trkpt lat="37.9742401944527" lon="13.684188726363807"><ele>103.0</ele><time>2026-04-09T08:09:24Z</time></trkpt><trkpt lat="37.97412680040991" lon="13.684566082104784"><ele>103.0</ele><time>2026-04-09T08:09:25Z</time></trkpt><trkpt lat="37.97400332458086" lon="13.684965148494005"><ele>103.0</ele><time>2026-04-09T08:09:26.074Z</time></trkpt><trkpt lat="37.973887427986675" lon="13.685331296874303"><ele>96.5</ele><time>2026-04-09T08:09:27.069Z</time></trkpt><trkpt lat="37.97378724509304" lon="13.685716341069446"><ele>90.0</ele><time>2026-04-09T08:09:28.071Z</time></trkpt><trkpt lat="37.97369259204933" lon="13.686103630338826"><ele>84.66666666666667</ele><time>2026-04-09T08:09:29.063Z</time></trkpt><trkpt lat="37.973641439728425" lon="13.686257237581906"><ele>79.33333333333334</ele><time>2026-04-09T08:09:29.999Z</time></trkpt><trkpt lat="37.97358344171653" lon="13.686630168375052"><ele>74.0</ele><time>2026-04-09T08:09:30.999Z</time></trkpt><trkpt lat="37.97355428505735" lon="13.686950558170441"><ele>70.5</ele><time>2026-04-09T08:09:31.999Z</time></trkpt><trkpt lat="37.9735167125189" lon="13.687313843434612"><ele>67.0</ele><time>2026-04-09T08:09:32.999Z</time></trkpt><trkpt lat="37.973487191738606" lon="13.687697404278795"><ele>67.0</ele><time>2026-04-09T08:09:33.999Z</time></trkpt><trkpt lat="37.973467243260785" lon="13.688082550654677"><ele>67.0</ele><time>2026-04-09T08:09:34.999Z</time></trkpt><trkpt lat="37.97345467040083" lon="13.688481758352475"><ele>69.0</ele><time>2026-04-09T08:09:35.999Z</time></trkpt><trkpt lat="37.973452014562874" lon="13.688889504213767"><ele>71.0</ele><time>2026-04-09T08:09:36.999Z</time></trkpt><trkpt lat="37.97346016905923" lon="13.689304033408929"><ele>71.0</ele><time>2026-04-09T08:09:37.999Z</time></trkpt><trkpt lat="37.97347863256275" lon="13.689722345139307"><ele>71.0</ele><time>2026-04-09T08:09:38.999Z</time></trkpt><trkpt lat="37.97350505371434" lon="13.690144091389653"><ele>71.0</ele><time>2026-04-09T08:09:39.999Z</time></trkpt><trkpt lat="37.973543581128794" lon="13.690564139722246"><ele>71.0</ele><time>2026-04-09T08:09:40.999Z</time></trkpt><trkpt lat="37.97359520084548" lon="13.690977044634971"><ele>72.5</ele><time>2026-04-09T08:09:41.999Z</time></trkpt><trkpt lat="37.97365667036859" lon="13.691391454326755"><ele>74.0</ele><time>2026-04-09T08:09:42.999Z</time></trkpt><trkpt lat="37.97372668022012" lon="13.691801340242014"><ele>72.5</ele><time>2026-04-09T08:09:43.999Z</time></trkpt><trkpt lat="37.97380720396303" lon="13.692206940765221"><ele>71.0</ele><time>2026-04-09T08:09:44.999Z</time></trkpt><trkpt lat="37.97389906722066" lon="13.692608880007484"><ele>69.5</ele><time>2026-04-09T08:09:45.999Z</time></trkpt><trkpt lat="37.97400171004709" lon="13.693006862309193"><ele>68.0</ele><time>2026-04-09T08:09:46.999Z</time></trkpt><trkpt lat="37.97410875903497" lon="13.693402723453172"><ele>68.0</ele><time>2026-04-09T08:09:47.999Z</time></trkpt><trkpt lat="37.97421885881628" lon="13.693793876907819"><ele>68.0</ele><time>2026-04-09T08:09:48.999Z</time></trkpt><trkpt lat="37.97432775523828" lon="13.69418537405742"><ele>72.5</ele><time>2026-04-09T08:09:49.999Z</time></trkpt><trkpt lat="37.974434877353524" lon="13.694581315626923"><ele>77.0</ele><time>2026-04-09T08:09:50.999Z</time></trkpt><trkpt lat="37.974540921474215" lon="13.694980912178567"><ele>80.5</ele><time>2026-04-09T08:09:51.999Z</time></trkpt><trkpt lat="37.974646120683815" lon="13.695380544686683"><ele>84.0</ele><time>2026-04-09T08:09:52.999Z</time></trkpt><trkpt lat="37.97475185315636" lon="13.695781592723343"><ele>86.5</ele><time>2026-04-09T08:09:53.999Z</time></trkpt><trkpt lat="37.97485523341195" lon="13.696182692621607"><ele>89.0</ele><time>2026-04-09T08:09:54.999Z</time></trkpt><trkpt lat="37.97495058752001" lon="13.696581449115202"><ele>80.0</ele><time>2026-04-09T08:09:55.999Z</time></trkpt><trkpt lat="37.97503687366356" lon="13.696981565978165"><ele>71.0</ele><time>2026-04-09T08:09:56.999Z</time></trkpt><trkpt lat="37.97511165532003" lon="13.697382641182163"><ele>72.5</ele><time>2026-04-09T08:09:57.999Z</time></trkpt><trkpt lat="37.975176293278864" lon="13.697786198502852"><ele>74.0</ele><time>2026-04-09T08:09:58.999Z</time></trkpt><trkpt lat="37.97522700825023" lon="13.69819132275244"><ele>78.0</ele><time>2026-04-09T08:09:59.999Z</time></trkpt><trkpt lat="37.975270944964834" lon="13.698595272391831"><ele>82.0</ele><time>2026-04-09T08:10:00.999Z</time></trkpt><trkpt lat="37.975310934216246" lon="13.69900000177262"><ele>82.0</ele><time>2026-04-09T08:10:01.999Z</time></trkpt><trkpt lat="37.97534320939185" lon="13.699409162037401"><ele>82.0</ele><time>2026-04-09T08:10:02.999Z</time></trkpt><trkpt lat="37.97536607103171" lon="13.699823016967425"><ele>80.5</ele><time>2026-04-09T08:10:03.999Z</time></trkpt><trkpt lat="37.975384639539136" lon="13.700252651026775"><ele>79.0</ele><time>2026-04-09T08:10:04.999Z</time></trkpt><trkpt lat="37.97539107946076" lon="13.7006905315614"><ele>76.5</ele><time>2026-04-09T08:10:05.999Z</time></trkpt><trkpt lat="37.97538065311612" lon="13.701140529512902"><ele>74.0</ele><time>2026-04-09T08:10:06.999Z</time></trkpt><trkpt lat="37.97535907378695" lon="13.70159987800757"><ele>74.5</ele><time>2026-04-09T08:10:07.999Z</time></trkpt><trkpt lat="37.97532644313501" lon="13.702062991397273"><ele>75.0</ele><time>2026-04-09T08:10:08.999Z</time></trkpt><trkpt lat="37.97528318595971" lon="13.702509880548039"><ele>77.5</ele><time>2026-04-09T08:10:09.999Z</time></trkpt><trkpt lat="37.97522940232595" lon="13.702953596146877"><ele>80.0</ele><time>2026-04-09T08:10:10.999Z</time></trkpt><trkpt lat="37.97516795541723" lon="13.703398866067724"><ele>81.5</ele><time>2026-04-09T08:10:11.999Z</time></trkpt><trkpt lat="37.975096489415456" lon="13.703842536381046"><ele>83.0</ele><time>2026-04-09T08:10:12.999Z</time></trkpt><trkpt lat="37.975013128481585" lon="13.704287391714065"><ele>85.0</ele><time>2026-04-09T08:10:13.999Z</time></trkpt><trkpt lat="37.97491573997724" lon="13.704731752752195"><ele>87.0</ele><time>2026-04-09T08:10:14.999Z</time></trkpt><trkpt lat="37.974807639519746" lon="13.705174961222614"><ele>86.0</ele><time>2026-04-09T08:10:15.999Z</time></trkpt><trkpt lat="37.974687656176336" lon="13.70560951435645"><ele>85.0</ele><time>2026-04-09T08:10:16.999Z</time></trkpt><trkpt lat="37.97455508920491" lon="13.706037880127928"><ele>83.0</ele><time>2026-04-09T08:10:17.999Z</time></trkpt><trkpt lat="37.97441378500085" lon="13.706458060892208"><ele>81.0</ele><time>2026-04-09T08:10:18.999Z</time></trkpt><trkpt lat="37.97426987288728" lon="13.706867142656638"><ele>85.0</ele><time>2026-04-09T08:10:19.999Z</time></trkpt><trkpt lat="37.97411875190431" lon="13.707271068163784"><ele>89.0</ele><time>2026-04-09T08:10:20.999Z</time></trkpt><trkpt lat="37.97395619941514" lon="13.70766874810975"><ele>88.5</ele><time>2026-04-09T08:10:21.999Z</time></trkpt><trkpt lat="37.97378493401145" lon="13.708056837007188"><ele>88.0</ele><time>2026-04-09T08:10:22.999Z</time></trkpt><trkpt lat="37.97360960264787" lon="13.708434258148214"><ele>85.0</ele><time>2026-04-09T08:10:23.999Z</time></trkpt><trkpt lat="37.973425676822934" lon="13.708804211699462"><ele>82.0</ele><time>2026-04-09T08:10:24.999Z</time></trkpt><trkpt lat="37.97323668809719" lon="13.709166786170032"><ele>83.5</ele><time>2026-04-09T08:10:25.999Z</time></trkpt><trkpt lat="37.9730443676141" lon="13.709520620502825"><ele>85.0</ele><time>2026-04-09T08:10:26.999Z</time></trkpt><trkpt lat="37.97284332446975" lon="13.709863777567206"><ele>85.0</ele><time>2026-04-09T08:10:27.999Z</time></trkpt><trkpt lat="37.972629948537566" lon="13.710197351510997"><ele>85.0</ele><time>2026-04-09T08:10:28.999Z</time></trkpt><trkpt lat="37.97240973236939" lon="13.71052729297492"><ele>86.0</ele><time>2026-04-09T08:10:29.999Z</time></trkpt><trkpt lat="37.97218734780553" lon="13.710853063000995"><ele>87.0</ele><time>2026-04-09T08:10:30.999Z</time></trkpt><trkpt lat="37.971965142844695" lon="13.711180578461752"><ele>89.0</ele><time>2026-04-09T08:10:31.999Z</time></trkpt><trkpt lat="37.97174593264272" lon="13.711506953645712"><ele>91.0</ele><time>2026-04-09T08:10:32.999Z</time></trkpt><trkpt lat="37.97152770441962" lon="13.711835917895044"><ele>86.0</ele><time>2026-04-09T08:10:33.999Z</time></trkpt><trkpt lat="37.971304564043294" lon="13.712173140537882"><ele>81.0</ele><time>2026-04-09T08:10:35Z</time></trkpt><trkpt lat="37.97108014553944" lon="13.71251431884967"><ele>80.5</ele><time>2026-04-09T08:10:36Z</time></trkpt><trkpt lat="37.97085200178234" lon="13.712854461228162"><ele>80.0</ele><time>2026-04-09T08:10:37Z</time></trkpt><trkpt lat="37.97061897957798" lon="13.713192527152236"><ele>80.0</ele><time>2026-04-09T08:10:38Z</time></trkpt><trkpt lat="37.970384727504225" lon="13.713529500724409"><ele>80.0</ele><time>2026-04-09T08:10:39Z</time></trkpt><trkpt lat="37.97015235443643" lon="13.713864845211832"><ele>81.5</ele><time>2026-04-09T08:10:40Z</time></trkpt><trkpt lat="37.96992184108036" lon="13.714199935519055"><ele>83.0</ele><time>2026-04-09T08:10:41Z</time></trkpt><trkpt lat="37.969695197699345" lon="13.71453159161886"><ele>84.0</ele><time>2026-04-09T08:10:42Z</time></trkpt><trkpt lat="37.96947039645338" lon="13.71486235954121"><ele>85.0</ele><time>2026-04-09T08:10:43Z</time></trkpt><trkpt lat="37.96924967655606" lon="13.715194168716557"><ele>85.0</ele><time>2026-04-09T08:10:44Z</time></trkpt><trkpt lat="37.96903649506717" lon="13.715525198898286"><ele>85.0</ele><time>2026-04-09T08:10:45Z</time></trkpt><trkpt lat="37.96882856329297" lon="13.715858670407542"><ele>80.0</ele><time>2026-04-09T08:10:46Z</time></trkpt><trkpt lat="37.96862762033264" lon="13.716197297697871"><ele>75.0</ele><time>2026-04-09T08:10:47Z</time></trkpt><trkpt lat="37.96843730563812" lon="13.716540683698291"><ele>77.0</ele><time>2026-04-09T08:10:48Z</time></trkpt><trkpt lat="37.968257846711296" lon="13.716890298047675"><ele>79.0</ele><time>2026-04-09T08:10:49Z</time></trkpt><trkpt lat="37.9680959808442" lon="13.717248489908165"><ele>75.5</ele><time>2026-04-09T08:10:50Z</time></trkpt><trkpt lat="37.96794704315762" lon="13.717611376464582"><ele>72.0</ele><time>2026-04-09T08:10:51Z</time></trkpt><trkpt lat="37.96780519136378" lon="13.717986197308363"><ele>72.0</ele><time>2026-04-09T08:10:52Z</time></trkpt><trkpt lat="37.967666484625255" lon="13.718374687331915"><ele>72.0</ele><time>2026-04-09T08:10:53Z</time></trkpt><trkpt lat="37.96753160315691" lon="13.71877174913457"><ele>80.5</ele><time>2026-04-09T08:10:54Z</time></trkpt><trkpt lat="37.96740670204452" lon="13.71917295301527"><ele>89.0</ele><time>2026-04-09T08:10:55Z</time></trkpt><trkpt lat="37.96728927920873" lon="13.719581566498944"><ele>94.0</ele><time>2026-04-09T08:10:56Z</time></trkpt><trkpt lat="37.967183037838254" lon="13.719998199629243"><ele>99.0</ele><time>2026-04-09T08:10:57Z</time></trkpt><trkpt lat="37.967091260650186" lon="13.72042104815726"><ele>100.0</ele><time>2026-04-09T08:10:58Z</time></trkpt><trkpt lat="37.96701017311923" lon="13.720846561613707"><ele>101.0</ele><time>2026-04-09T08:10:59Z</time></trkpt><trkpt lat="37.96693773324575" lon="13.721275854195472"><ele>101.0</ele><time>2026-04-09T08:11:00Z</time></trkpt><trkpt lat="37.96687336895799" lon="13.72170948227948"><ele>101.0</ele><time>2026-04-09T08:11:01Z</time></trkpt><trkpt lat="37.96681719366873" lon="13.722144199141535"><ele>96.5</ele><time>2026-04-09T08:11:02Z</time></trkpt><trkpt lat="37.96676197463111" lon="13.722580910439303"><ele>92.0</ele><time>2026-04-09T08:11:03Z</time></trkpt><trkpt lat="37.96670640350341" lon="13.72301409700684"><ele>95.0</ele><time>2026-04-09T08:11:04Z</time></trkpt><trkpt lat="37.96665043537788" lon="13.723451873644477"><ele>98.0</ele><time>2026-04-09T08:11:05Z</time></trkpt><trkpt lat="37.96659120624192" lon="13.723887815585854"><ele>100.0</ele><time>2026-04-09T08:11:06Z</time></trkpt><trkpt lat="37.966534650723645" lon="13.724324347997353"><ele>102.0</ele><time>2026-04-09T08:11:07Z</time></trkpt><trkpt lat="37.96648002154976" lon="13.724763232686444"><ele>102.5</ele><time>2026-04-09T08:11:08Z</time></trkpt><trkpt lat="37.96642712672729" lon="13.725200957936957"><ele>103.0</ele><time>2026-04-09T08:11:09Z</time></trkpt><trkpt lat="37.96637013553659" lon="13.725638771754259"><ele>104.0</ele><time>2026-04-09T08:11:10Z</time></trkpt><trkpt lat="37.9663085160228" lon="13.726074358391894"><ele>105.0</ele><time>2026-04-09T08:11:11Z</time></trkpt><trkpt lat="37.966247130783735" lon="13.726504824889844"><ele>107.5</ele><time>2026-04-09T08:11:12Z</time></trkpt><trkpt lat="37.9661864459214" lon="13.72693090361638"><ele>110.0</ele><time>2026-04-09T08:11:13Z</time></trkpt><trkpt lat="37.96612787350108" lon="13.727358258247744"><ele>109.5</ele><time>2026-04-09T08:11:14Z</time></trkpt><trkpt lat="37.966073130523625" lon="13.727782954317837"><ele>109.0</ele><time>2026-04-09T08:11:15Z</time></trkpt><trkpt lat="37.966021149083716" lon="13.728206802973707"><ele>107.5</ele><time>2026-04-09T08:11:16Z</time></trkpt><trkpt lat="37.965966693417386" lon="13.728628448821226"><ele>106.0</ele><time>2026-04-09T08:11:17Z</time></trkpt><trkpt lat="37.96591043332588" lon="13.72904584912842"><ele>108.5</ele><time>2026-04-09T08:11:18Z</time></trkpt><trkpt lat="37.96585358876372" lon="13.729466049100772"><ele>111.0</ele><time>2026-04-09T08:11:19Z</time></trkpt><trkpt lat="37.965796836042266" lon="13.729883355979705"><ele>111.0</ele><time>2026-04-09T08:11:20Z</time></trkpt><trkpt lat="37.965742965298354" lon="13.730303636154881"><ele>111.0</ele><time>2026-04-09T08:11:21Z</time></trkpt><trkpt lat="37.96569564586469" lon="13.730723478646576"><ele>111.0</ele><time>2026-04-09T08:11:22Z</time></trkpt><trkpt lat="37.96564466125252" lon="13.731148971318072"><ele>111.0</ele><time>2026-04-09T08:11:23Z</time></trkpt><trkpt lat="37.96558840364551" lon="13.731575645419934"><ele>108.0</ele><time>2026-04-09T08:11:24Z</time></trkpt><trkpt lat="37.96552850306804" lon="13.732003033116111"><ele>105.0</ele><time>2026-04-09T08:11:25Z</time></trkpt><trkpt lat="37.96546710918726" lon="13.732429588847994"><ele>104.0</ele><time>2026-04-09T08:11:26Z</time></trkpt><trkpt lat="37.96540851968753" lon="13.73286094808038"><ele>103.0</ele><time>2026-04-09T08:11:26.999Z</time></trkpt><trkpt lat="37.965349006514096" lon="13.733292954523302"><ele>103.5</ele><time>2026-04-09T08:11:27.999Z</time></trkpt><trkpt lat="37.965288162280544" lon="13.733723285788198"><ele>104.0</ele><time>2026-04-09T08:11:28.999Z</time></trkpt><trkpt lat="37.965227008543756" lon="13.734153992958989"><ele>103.0</ele><time>2026-04-09T08:11:29.999Z</time></trkpt><trkpt lat="37.96516919976172" lon="13.734588398704863"><ele>102.0</ele><time>2026-04-09T08:11:30.999Z</time></trkpt><trkpt lat="37.96511379701898" lon="13.735022050008556"><ele>103.5</ele><time>2026-04-09T08:11:31.999Z</time></trkpt><trkpt lat="37.96505803421765" lon="13.735458582466485"><ele>105.0</ele><time>2026-04-09T08:11:32.999Z</time></trkpt><trkpt lat="37.96500090454811" lon="13.735898569043014"><ele>107.5</ele><time>2026-04-09T08:11:33.999Z</time></trkpt><trkpt lat="37.96494042044412" lon="13.736336146699468"><ele>110.0</ele><time>2026-04-09T08:11:34.999Z</time></trkpt><trkpt lat="37.96488199793436" lon="13.736769913620916"><ele>110.5</ele><time>2026-04-09T08:11:35.999Z</time></trkpt><trkpt lat="37.964824311947176" lon="13.737206815623797"><ele>111.0</ele><time>2026-04-09T08:11:36.999Z</time></trkpt><trkpt lat="37.96476467940607" lon="13.737641159414823"><ele>109.0</ele><time>2026-04-09T08:11:37.999Z</time></trkpt><trkpt lat="37.96470621206807" lon="13.738077500776976"><ele>107.0</ele><time>2026-04-09T08:11:38.999Z</time></trkpt><trkpt lat="37.96464721494219" lon="13.738513388031112"><ele>106.0</ele><time>2026-04-09T08:11:39.999Z</time></trkpt><trkpt lat="37.964588861883634" lon="13.7389513467216"><ele>105.0</ele><time>2026-04-09T08:11:40.999Z</time></trkpt><trkpt lat="37.96453246445214" lon="13.739391387812551"><ele>103.5</ele><time>2026-04-09T08:11:41.999Z</time></trkpt><trkpt lat="37.9644750761552" lon="13.739829280985823"><ele>102.0</ele><time>2026-04-09T08:11:42.999Z</time></trkpt><trkpt lat="37.96441651593155" lon="13.740269540903185"><ele>99.0</ele><time>2026-04-09T08:11:43.999Z</time></trkpt><trkpt lat="37.96435624462287" lon="13.74070743578549"><ele>96.0</ele><time>2026-04-09T08:11:44.999Z</time></trkpt><trkpt lat="37.964299180152466" lon="13.741146720659925"><ele>96.5</ele><time>2026-04-09T08:11:45.999Z</time></trkpt><trkpt lat="37.96424352673105" lon="13.741583250353239"><ele>97.0</ele><time>2026-04-09T08:11:46.999Z</time></trkpt><trkpt lat="37.964192500322575" lon="13.74202716517948"><ele>97.0</ele><time>2026-04-09T08:11:47.999Z</time></trkpt><trkpt lat="37.96414123990105" lon="13.742470628597697"><ele>97.0</ele><time>2026-04-09T08:11:48.999Z</time></trkpt><trkpt lat="37.96408415322852" lon="13.742915744987789"><ele>92.5</ele><time>2026-04-09T08:11:49.999Z</time></trkpt><trkpt lat="37.96402395342634" lon="13.74336291883325"><ele>88.0</ele><time>2026-04-09T08:11:50.999Z</time></trkpt><trkpt lat="37.96395862571663" lon="13.743802718054464"><ele>84.5</ele><time>2026-04-09T08:11:51.999Z</time></trkpt><trkpt lat="37.96389685132662" lon="13.744248479158603"><ele>81.0</ele><time>2026-04-09T08:11:52.999Z</time></trkpt><trkpt lat="37.963836021867365" lon="13.744695238945464"><ele>78.5</ele><time>2026-04-09T08:11:53.999Z</time></trkpt><trkpt lat="37.96377859790977" lon="13.745143001208655"><ele>76.0</ele><time>2026-04-09T08:11:54.999Z</time></trkpt><trkpt lat="37.963721474721375" lon="13.745593052863363"><ele>73.5</ele><time>2026-04-09T08:11:55.999Z</time></trkpt><trkpt lat="37.96366424288376" lon="13.746041923706139"><ele>71.0</ele><time>2026-04-09T08:11:56.999Z</time></trkpt><trkpt lat="37.96360827895398" lon="13.746492224515672"><ele>65.5</ele><time>2026-04-09T08:11:57.999Z</time></trkpt><trkpt lat="37.963551254108836" lon="13.746940262103402"><ele>60.0</ele><time>2026-04-09T08:11:58.999Z</time></trkpt><trkpt lat="37.963501682046406" lon="13.747390268484201"><ele>57.0</ele><time>2026-04-09T08:11:59.999Z</time></trkpt><trkpt lat="37.963459651770364" lon="13.74784504409417"><ele>54.0</ele><time>2026-04-09T08:12:00.999Z</time></trkpt><trkpt lat="37.96342639856758" lon="13.748295395697342"><ele>52.5</ele><time>2026-04-09T08:12:01.999Z</time></trkpt><trkpt lat="37.963401850966875" lon="13.748749541460827"><ele>51.0</ele><time>2026-04-09T08:12:02.999Z</time></trkpt><trkpt lat="37.9633854854273" lon="13.749203197464842"><ele>52.0</ele><time>2026-04-09T08:12:03.999Z</time></trkpt><trkpt lat="37.963376127474696" lon="13.74965696955427"><ele>53.0</ele><time>2026-04-09T08:12:04.999Z</time></trkpt><trkpt lat="37.9633748896443" lon="13.750112373961986"><ele>52.5</ele><time>2026-04-09T08:12:05.999Z</time></trkpt><trkpt lat="37.9633795248446" lon="13.750560629176562"><ele>52.0</ele><time>2026-04-09T08:12:06.999Z</time></trkpt><trkpt lat="37.96338851472365" lon="13.751012143218933"><ele>50.5</ele><time>2026-04-09T08:12:07.999Z</time></trkpt><trkpt lat="37.963400942108066" lon="13.751461619860398"><ele>49.0</ele><time>2026-04-09T08:12:08.999Z</time></trkpt><trkpt lat="37.96342240384468" lon="13.751911992182745"><ele>48.5</ele><time>2026-04-09T08:12:09.999Z</time></trkpt><trkpt lat="37.96345410238061" lon="13.752359008318523"><ele>48.0</ele><time>2026-04-09T08:12:10.999Z</time></trkpt><trkpt lat="37.96349222511199" lon="13.752806962363472"><ele>48.0</ele><time>2026-04-09T08:12:11.999Z</time></trkpt><trkpt lat="37.96353614781322" lon="13.75324920209946"><ele>48.0</ele><time>2026-04-09T08:12:12.999Z</time></trkpt><trkpt lat="37.96358717607684" lon="13.753692016822473"><ele>47.5</ele><time>2026-04-09T08:12:13.999Z</time></trkpt><trkpt lat="37.96363972135508" lon="13.754129729078382"><ele>47.0</ele><time>2026-04-09T08:12:14.999Z</time></trkpt><trkpt lat="37.9636906914303" lon="13.75457343733421"><ele>46.0</ele><time>2026-04-09T08:12:15.999Z</time></trkpt><trkpt lat="37.96373603957494" lon="13.75501159688353"><ele>45.0</ele><time>2026-04-09T08:12:16.999Z</time></trkpt><trkpt lat="37.963779213417546" lon="13.755455898417894"><ele>45.0</ele><time>2026-04-09T08:12:17.999Z</time></trkpt><trkpt lat="37.963815576900195" lon="13.755895511425623"><ele>45.0</ele><time>2026-04-09T08:12:18.999Z</time></trkpt><trkpt lat="37.96385581643214" lon="13.7563373982053"><ele>44.5</ele><time>2026-04-09T08:12:19.999Z</time></trkpt><trkpt lat="37.963898231285945" lon="13.756774488827398"><ele>44.0</ele><time>2026-04-09T08:12:20.999Z</time></trkpt><trkpt lat="37.96394647801118" lon="13.757205467219164"><ele>43.5</ele><time>2026-04-09T08:12:21.999Z</time></trkpt><trkpt lat="37.964001940903785" lon="13.757635415236614"><ele>43.0</ele><time>2026-04-09T08:12:22.999Z</time></trkpt><trkpt lat="37.96406528615339" lon="13.758063302211196"><ele>43.0</ele><time>2026-04-09T08:12:23.999Z</time></trkpt><trkpt lat="37.96413490509576" lon="13.758489710880081"><ele>43.0</ele><time>2026-04-09T08:12:24.999Z</time></trkpt><trkpt lat="37.96420593774519" lon="13.758912555759453"><ele>35.0</ele><time>2026-04-09T08:12:25.999Z</time></trkpt><trkpt lat="37.96428211881447" lon="13.759332736429553"><ele>27.0</ele><time>2026-04-09T08:12:26.999Z</time></trkpt><trkpt lat="37.96436742023528" lon="13.759751396791284"><ele>27.0</ele><time>2026-04-09T08:12:27.999Z</time></trkpt><trkpt lat="37.96445933299547" lon="13.76016953702792"><ele>27.0</ele><time>2026-04-09T08:12:28.999Z</time></trkpt><trkpt lat="37.96455229509365" lon="13.760589471164916"><ele>27.0</ele><time>2026-04-09T08:12:29.999Z</time></trkpt><trkpt lat="37.96464771878982" lon="13.76100878646082"><ele>27.0</ele><time>2026-04-09T08:12:30.999Z</time></trkpt><trkpt lat="37.96474697393875" lon="13.76142412320146"><ele>26.5</ele><time>2026-04-09T08:12:31.999Z</time></trkpt><trkpt lat="37.96485663162086" lon="13.761843210826909"><ele>26.0</ele><time>2026-04-09T08:12:32.999Z</time></trkpt><trkpt lat="37.96497120236448" lon="13.762256950573278"><ele>20.5</ele><time>2026-04-09T08:12:33.999Z</time></trkpt><trkpt lat="37.96508870613124" lon="13.76267193408062"><ele>15.0</ele><time>2026-04-09T08:12:34.999Z</time></trkpt><trkpt lat="37.96520671984465" lon="13.763086681394553"><ele>15.0</ele><time>2026-04-09T08:12:35.999Z</time></trkpt><trkpt lat="37.96532448967752" lon="13.763502415390205"><ele>15.0</ele><time>2026-04-09T08:12:36.999Z</time></trkpt><trkpt lat="37.965441845921724" lon="13.763918738527769"><ele>15.0</ele><time>2026-04-09T08:12:37.999Z</time></trkpt><trkpt lat="37.96555376882819" lon="13.764328114775077"><ele>15.0</ele><time>2026-04-09T08:12:38.999Z</time></trkpt><trkpt lat="37.965666437848014" lon="13.764741392855289"><ele>14.5</ele><time>2026-04-09T08:12:39.999Z</time></trkpt><trkpt lat="37.96577413695634" lon="13.765156282214543"><ele>14.0</ele><time>2026-04-09T08:12:41Z</time></trkpt><trkpt lat="37.96587538679753" lon="13.765580661942211"><ele>11.5</ele><time>2026-04-09T08:12:42Z</time></trkpt><trkpt lat="37.965971738785846" lon="13.766009855018742"><ele>9.0</ele><time>2026-04-09T08:12:43Z</time></trkpt><trkpt lat="37.96606490430649" lon="13.766442072013438"><ele>9.5</ele><time>2026-04-09T08:12:44Z</time></trkpt><trkpt lat="37.96615446237642" lon="13.766879943566178"><ele>10.0</ele><time>2026-04-09T08:12:45Z</time></trkpt><trkpt lat="37.96623498926169" lon="13.76731953806383"><ele>10.0</ele><time>2026-04-09T08:12:46Z</time></trkpt><trkpt lat="37.966300530348406" lon="13.767762119052943"><ele>10.0</ele><time>2026-04-09T08:12:47Z</time></trkpt><trkpt lat="37.96636236579984" lon="13.768207068844514"><ele>8.0</ele><time>2026-04-09T08:12:48Z</time></trkpt><trkpt lat="37.96641510335481" lon="13.768649954368806"><ele>6.0</ele><time>2026-04-09T08:12:49Z</time></trkpt><trkpt lat="37.966467915990776" lon="13.769095772835895"><ele>6.0</ele><time>2026-04-09T08:12:50Z</time></trkpt><trkpt lat="37.966523841931796" lon="13.769537887254701"><ele>6.0</ele><time>2026-04-09T08:12:51Z</time></trkpt><trkpt lat="37.966584960609374" lon="13.769982980287697"><ele>6.0</ele><time>2026-04-09T08:12:52Z</time></trkpt><trkpt lat="37.966649034435335" lon="13.770420967685729"><ele>6.0</ele><time>2026-04-09T08:12:53Z</time></trkpt><trkpt lat="37.96671143969236" lon="13.77085950674094"><ele>6.0</ele><time>2026-04-09T08:12:54Z</time></trkpt><trkpt lat="37.966772911446085" lon="13.77129835003817"><ele>6.0</ele><time>2026-04-09T08:12:55Z</time></trkpt><trkpt lat="37.966832259273694" lon="13.77173476098077"><ele>7.0</ele><time>2026-04-09T08:12:56Z</time></trkpt><trkpt lat="37.96689127229013" lon="13.772169503679727"><ele>8.0</ele><time>2026-04-09T08:12:57Z</time></trkpt><trkpt lat="37.96695331195796" lon="13.772601886269436"><ele>9.0</ele><time>2026-04-09T08:12:58Z</time></trkpt><trkpt lat="37.967017332171544" lon="13.773031764740288"><ele>10.0</ele><time>2026-04-09T08:12:59Z</time></trkpt><trkpt lat="37.96708411521729" lon="13.773457263467755"><ele>10.0</ele><time>2026-04-09T08:13:00Z</time></trkpt><trkpt lat="37.967151024153445" lon="13.77388547745078"><ele>10.0</ele><time>2026-04-09T08:13:01Z</time></trkpt><trkpt lat="37.96721562959991" lon="13.774318606357552"><ele>10.5</ele><time>2026-04-09T08:13:02Z</time></trkpt><trkpt lat="37.967278199540566" lon="13.774750117304995"><ele>11.0</ele><time>2026-04-09T08:13:03Z</time></trkpt><trkpt lat="37.967339065786135" lon="13.775184242554548"><ele>10.0</ele><time>2026-04-09T08:13:04Z</time></trkpt><trkpt lat="37.967400712197424" lon="13.775616768493224"><ele>9.0</ele><time>2026-04-09T08:13:05Z</time></trkpt><trkpt lat="37.96745995436393" lon="13.776056721326594"><ele>8.5</ele><time>2026-04-09T08:13:06Z</time></trkpt><trkpt lat="37.96751659452335" lon="13.77648540082582"><ele>8.0</ele><time>2026-04-09T08:13:07Z</time></trkpt><trkpt lat="37.96757758391615" lon="13.776922105755446"><ele>8.0</ele><time>2026-04-09T08:13:08Z</time></trkpt><trkpt lat="37.967638965907994" lon="13.777357498370181"><ele>8.0</ele><time>2026-04-09T08:13:09Z</time></trkpt><trkpt lat="37.96769942646131" lon="13.777787465766137"><ele>8.5</ele><time>2026-04-09T08:13:10Z</time></trkpt><trkpt lat="37.96776206533797" lon="13.778215907912257"><ele>9.0</ele><time>2026-04-09T08:13:11Z</time></trkpt><trkpt lat="37.96782232104497" lon="13.778644504314139"><ele>9.0</ele><time>2026-04-09T08:13:12Z</time></trkpt><trkpt lat="37.96788399316853" lon="13.779076674324532"><ele>9.0</ele><time>2026-04-09T08:13:13Z</time></trkpt><trkpt lat="37.96794606559232" lon="13.779505378966649"><ele>9.5</ele><time>2026-04-09T08:13:14Z</time></trkpt><trkpt lat="37.968005674758125" lon="13.779934534845243"><ele>10.0</ele><time>2026-04-09T08:13:15Z</time></trkpt><trkpt lat="37.968064836672646" lon="13.780354706551885"><ele>9.0</ele><time>2026-04-09T08:13:16Z</time></trkpt><trkpt lat="37.968122892842466" lon="13.78076928684913"><ele>8.0</ele><time>2026-04-09T08:13:17Z</time></trkpt><trkpt lat="37.96817832583776" lon="13.781176775835698"><ele>7.5</ele><time>2026-04-09T08:13:18Z</time></trkpt><trkpt lat="37.968234682645566" lon="13.781580095872792"><ele>7.0</ele><time>2026-04-09T08:13:19Z</time></trkpt><trkpt lat="37.96829116344154" lon="13.7819700057791"><ele>7.0</ele><time>2026-04-09T08:13:20Z</time></trkpt><trkpt lat="37.968345533384195" lon="13.782338535863849"><ele>7.0</ele><time>2026-04-09T08:13:21Z</time></trkpt><trkpt lat="37.96839730244816" lon="13.782707341487821"><ele>7.0</ele><time>2026-04-09T08:13:22Z</time></trkpt><trkpt lat="37.96845069226333" lon="13.783083059707357"><ele>7.0</ele><time>2026-04-09T08:13:23Z</time></trkpt><trkpt lat="37.96850577397133" lon="13.78347076160715"><ele>7.0</ele><time>2026-04-09T08:13:24Z</time></trkpt><trkpt lat="37.9685652648947" lon="13.783875042235632"><ele>7.0</ele><time>2026-04-09T08:13:25Z</time></trkpt><trkpt lat="37.96862578038109" lon="13.784293143741378"><ele>6.5</ele><time>2026-04-09T08:13:26Z</time></trkpt><trkpt lat="37.96868535665471" lon="13.784722184458253"><ele>6.0</ele><time>2026-04-09T08:13:27Z</time></trkpt><trkpt lat="37.968743330046685" lon="13.785160442009241"><ele>6.5</ele><time>2026-04-09T08:13:28Z</time></trkpt><trkpt lat="37.968803514705414" lon="13.785600977931026"><ele>7.0</ele><time>2026-04-09T08:13:28.999Z</time></trkpt><trkpt lat="37.96886440152959" lon="13.786045157679244"><ele>7.0</ele><time>2026-04-09T08:13:29.999Z</time></trkpt><trkpt lat="37.968927961395345" lon="13.786490295384318"><ele>7.0</ele><time>2026-04-09T08:13:30.999Z</time></trkpt><trkpt lat="37.96899562349553" lon="13.786936589614848"><ele>7.5</ele><time>2026-04-09T08:13:31.999Z</time></trkpt><trkpt lat="37.96906961388892" lon="13.787382666509348"><ele>8.0</ele><time>2026-04-09T08:13:32.999Z</time></trkpt><trkpt lat="37.9691459633302" lon="13.787832383702929"><ele>7.0</ele><time>2026-04-09T08:13:33.999Z</time></trkpt><trkpt lat="37.96922470173507" lon="13.788281242173097"><ele>6.0</ele><time>2026-04-09T08:13:34.999Z</time></trkpt><trkpt lat="37.96930980242676" lon="13.78872865535498"><ele>6.0</ele><time>2026-04-09T08:13:35.999Z</time></trkpt><trkpt lat="37.96939872102201" lon="13.789173782731112"><ele>6.0</ele><time>2026-04-09T08:13:36.999Z</time></trkpt><trkpt lat="37.969493535003366" lon="13.789623001711833"><ele>6.0</ele><time>2026-04-09T08:13:37.999Z</time></trkpt><trkpt lat="37.9695917317516" lon="13.790066855675924"><ele>6.0</ele><time>2026-04-09T08:13:38.999Z</time></trkpt><trkpt lat="37.96969394174009" lon="13.790506310245211"><ele>6.0</ele><time>2026-04-09T08:13:39.999Z</time></trkpt><trkpt lat="37.969798476041404" lon="13.79094569206613"><ele>6.0</ele><time>2026-04-09T08:13:40.999Z</time></trkpt><trkpt lat="37.969908815874014" lon="13.791383109952054"><ele>6.0</ele><time>2026-04-09T08:13:41.999Z</time></trkpt><trkpt lat="37.97002559631722" lon="13.791818686309295"><ele>6.0</ele><time>2026-04-09T08:13:42.999Z</time></trkpt><trkpt lat="37.970148007669046" lon="13.792251311322795"><ele>7.5</ele><time>2026-04-09T08:13:43.999Z</time></trkpt><trkpt lat="37.970269389924816" lon="13.79268106221193"><ele>9.0</ele><time>2026-04-09T08:13:44.999Z</time></trkpt><trkpt lat="37.97039157236202" lon="13.793107920399807"><ele>8.5</ele><time>2026-04-09T08:13:45.999Z</time></trkpt><trkpt lat="37.97051585207072" lon="13.793532480464414"><ele>8.0</ele><time>2026-04-09T08:13:46.999Z</time></trkpt><trkpt lat="37.97064006547082" lon="13.793958033527092"><ele>8.0</ele><time>2026-04-09T08:13:47.999Z</time></trkpt><trkpt lat="37.97076524423083" lon="13.794381912608694"><ele>8.0</ele><time>2026-04-09T08:13:48.999Z</time></trkpt><trkpt lat="37.97089276721447" lon="13.794807214288735"><ele>7.5</ele><time>2026-04-09T08:13:49.999Z</time></trkpt><trkpt lat="37.971021994667446" lon="13.795234183666912"><ele>7.0</ele><time>2026-04-09T08:13:50.999Z</time></trkpt><trkpt lat="37.971146941927316" lon="13.79566265905239"><ele>7.0</ele><time>2026-04-09T08:13:51.999Z</time></trkpt><trkpt lat="37.97127147053754" lon="13.796088941177558"><ele>7.0</ele><time>2026-04-09T08:13:52.999Z</time></trkpt><trkpt lat="37.97139459934978" lon="13.79651759431963"><ele>7.5</ele><time>2026-04-09T08:13:53.999Z</time></trkpt><trkpt lat="37.97151541216404" lon="13.796945070367828"><ele>8.0</ele><time>2026-04-09T08:13:54.999Z</time></trkpt><trkpt lat="37.97163743070084" lon="13.797371919754553"><ele>7.0</ele><time>2026-04-09T08:13:55.999Z</time></trkpt><trkpt lat="37.97176089463813" lon="13.797797919250138"><ele>6.0</ele><time>2026-04-09T08:13:56.999Z</time></trkpt><trkpt lat="37.97188368904847" lon="13.798222290677918"><ele>6.0</ele><time>2026-04-09T08:13:57.999Z</time></trkpt><trkpt lat="37.97200636757564" lon="13.798644602910956"><ele>6.0</ele><time>2026-04-09T08:13:58.999Z</time></trkpt><trkpt lat="37.97212757831478" lon="13.799066246243475"><ele>6.0</ele><time>2026-04-09T08:13:59.999Z</time></trkpt><trkpt lat="37.9722479145195" lon="13.799491345908367"><ele>6.0</ele><time>2026-04-09T08:14:00.999Z</time></trkpt><trkpt lat="37.972367369171664" lon="13.799917948153642"><ele>6.0</ele><time>2026-04-09T08:14:01.999Z</time></trkpt><trkpt lat="37.97248545132199" lon="13.800345062098156"><ele>6.0</ele><time>2026-04-09T08:14:02.999Z</time></trkpt><trkpt lat="37.972602584782784" lon="13.800766660842577"><ele>6.5</ele><time>2026-04-09T08:14:03.999Z</time></trkpt><trkpt lat="37.97272170952167" lon="13.801185053970675"><ele>7.0</ele><time>2026-04-09T08:14:04.999Z</time></trkpt><trkpt lat="37.972840528086834" lon="13.801601245300807"><ele>7.0</ele><time>2026-04-09T08:14:05.999Z</time></trkpt><trkpt lat="37.972959657605536" lon="13.802018207350574"><ele>7.0</ele><time>2026-04-09T08:14:06.999Z</time></trkpt><trkpt lat="37.97307725511995" lon="13.802432092116968"><ele>8.0</ele><time>2026-04-09T08:14:07.999Z</time></trkpt><trkpt lat="37.973194332886905" lon="13.802843588831713"><ele>9.0</ele><time>2026-04-09T08:14:08.999Z</time></trkpt><trkpt lat="37.97331017232928" lon="13.803255823781555"><ele>8.0</ele><time>2026-04-09T08:14:09.999Z</time></trkpt><trkpt lat="37.97342824793222" lon="13.80366660913721"><ele>7.0</ele><time>2026-04-09T08:14:10.999Z</time></trkpt><trkpt lat="37.97354847330507" lon="13.804075985932476"><ele>7.0</ele><time>2026-04-09T08:14:11.999Z</time></trkpt><trkpt lat="37.97366796190453" lon="13.804483553212677"><ele>7.0</ele><time>2026-04-09T08:14:12.999Z</time></trkpt><trkpt lat="37.97378728146922" lon="13.804892446343054"><ele>7.0</ele><time>2026-04-09T08:14:13.999Z</time></trkpt><trkpt lat="37.97390506058056" lon="13.805301329034366"><ele>7.0</ele><time>2026-04-09T08:14:14.999Z</time></trkpt><trkpt lat="37.974023744302166" lon="13.8057131132997"><ele>7.0</ele><time>2026-04-09T08:14:15.999Z</time></trkpt><trkpt lat="37.974144709752565" lon="13.80612304060571"><ele>7.0</ele><time>2026-04-09T08:14:16.999Z</time></trkpt><trkpt lat="37.97426809331959" lon="13.80653599123996"><ele>8.0</ele><time>2026-04-09T08:14:17.999Z</time></trkpt><trkpt lat="37.97439033312732" lon="13.806950087894098"><ele>9.0</ele><time>2026-04-09T08:14:18.999Z</time></trkpt><trkpt lat="37.97451211331663" lon="13.807368034849418"><ele>9.0</ele><time>2026-04-09T08:14:19.999Z</time></trkpt><trkpt lat="37.97463228347755" lon="13.807782754670118"><ele>9.0</ele><time>2026-04-09T08:14:20.999Z</time></trkpt><trkpt lat="37.974752419190196" lon="13.80819881277419"><ele>7.5</ele><time>2026-04-09T08:14:21.999Z</time></trkpt><trkpt lat="37.97487382463732" lon="13.808613916704964"><ele>6.0</ele><time>2026-04-09T08:14:22.999Z</time></trkpt><trkpt lat="37.97499427488581" lon="13.80902724039968"><ele>6.0</ele><time>2026-04-09T08:14:23.999Z</time></trkpt><trkpt lat="37.97511239074093" lon="13.809438327269989"><ele>6.0</ele><time>2026-04-09T08:14:24.999Z</time></trkpt><trkpt lat="37.97523091784784" lon="13.809850802188421"><ele>6.0</ele><time>2026-04-09T08:14:25.999Z</time></trkpt><trkpt lat="37.97534740507995" lon="13.81026305762496"><ele>6.0</ele><time>2026-04-09T08:14:26.999Z</time></trkpt><trkpt lat="37.975461861841325" lon="13.810676624744586"><ele>6.5</ele><time>2026-04-09T08:14:27.999Z</time></trkpt><trkpt lat="37.97557752196859" lon="13.811090102154262"><ele>7.0</ele><time>2026-04-09T08:14:28.999Z</time></trkpt><trkpt lat="37.97569557171689" lon="13.811502983814341"><ele>7.0</ele><time>2026-04-09T08:14:29.999Z</time></trkpt><trkpt lat="37.975816710809404" lon="13.811917031709582"><ele>7.0</ele><time>2026-04-09T08:14:30.999Z</time></trkpt><trkpt lat="37.975938025715124" lon="13.812332514265737"><ele>7.0</ele><time>2026-04-09T08:14:31.999Z</time></trkpt><trkpt lat="37.97605567158217" lon="13.812746468423786"><ele>7.0</ele><time>2026-04-09T08:14:32.999Z</time></trkpt><trkpt lat="37.976173713273916" lon="13.813160547513439"><ele>6.0</ele><time>2026-04-09T08:14:33.999Z</time></trkpt><trkpt lat="37.976294989846714" lon="13.813579587316731"><ele>5.0</ele><time>2026-04-09T08:14:34.999Z</time></trkpt><trkpt lat="37.97641245830631" lon="13.813997712985566"><ele>5.5</ele><time>2026-04-09T08:14:35.999Z</time></trkpt><trkpt lat="37.97652895854617" lon="13.814411241178545"><ele>6.0</ele><time>2026-04-09T08:14:36.999Z</time></trkpt><trkpt lat="37.97664441532987" lon="13.814822214287318"><ele>5.0</ele><time>2026-04-09T08:14:37.999Z</time></trkpt><trkpt lat="37.97675278711888" lon="13.815211796420915"><ele>4.0</ele><time>2026-04-09T08:14:38.999Z</time></trkpt><trkpt lat="37.97686524913074" lon="13.815607386244533"><ele>4.5</ele><time>2026-04-09T08:14:39.999Z</time></trkpt><trkpt lat="37.976980563560296" lon="13.816008724567377"><ele>5.0</ele><time>2026-04-09T08:14:40.999Z</time></trkpt><trkpt lat="37.97709189103591" lon="13.816414887842928"><ele>6.0</ele><time>2026-04-09T08:14:41.999Z</time></trkpt><trkpt lat="37.977202418310156" lon="13.816826395528317"><ele>7.0</ele><time>2026-04-09T08:14:42.999Z</time></trkpt><trkpt lat="37.97731451351268" lon="13.81724032913609"><ele>7.0</ele><time>2026-04-09T08:14:43.999Z</time></trkpt><trkpt lat="37.97742805808406" lon="13.817655710101796"><ele>7.0</ele><time>2026-04-09T08:14:44.999Z</time></trkpt><trkpt lat="37.97753841347514" lon="13.818046343379283"><ele>7.0</ele><time>2026-04-09T08:14:46Z</time></trkpt><trkpt lat="37.977660410422494" lon="13.81845044935485"><ele>7.0</ele><time>2026-04-09T08:14:47Z</time></trkpt><trkpt lat="37.9777753786833" lon="13.818870006805644"><ele>7.0</ele><time>2026-04-09T08:14:48Z</time></trkpt><trkpt lat="37.9778828231888" lon="13.819301166211387"><ele>7.0</ele><time>2026-04-09T08:14:49Z</time></trkpt><trkpt lat="37.977988685431136" lon="13.819724570385253"><ele>6.5</ele><time>2026-04-09T08:14:50Z</time></trkpt><trkpt lat="37.97809203691851" lon="13.820118031250326"><ele>6.0</ele><time>2026-04-09T08:14:51Z</time></trkpt><trkpt lat="37.97819032183055" lon="13.820488704337903"><ele>7.0</ele><time>2026-04-09T08:14:52Z</time></trkpt><trkpt lat="37.978285774712674" lon="13.820843847723783"><ele>8.0</ele><time>2026-04-09T08:14:53Z</time></trkpt><trkpt lat="37.97837890411932" lon="13.821196404430223"><ele>8.0</ele><time>2026-04-09T08:14:54Z</time></trkpt><trkpt lat="37.97847018853719" lon="13.821540041230378"><ele>8.0</ele><time>2026-04-09T08:14:55Z</time></trkpt><trkpt lat="37.97856056325284" lon="13.821873729407159"><ele>8.5</ele><time>2026-04-09T08:14:56Z</time></trkpt><trkpt lat="37.97864541326086" lon="13.822198799250211"><ele>9.0</ele><time>2026-04-09T08:14:57Z</time></trkpt><trkpt lat="37.97872560594328" lon="13.82251929745426"><ele>8.0</ele><time>2026-04-09T08:14:58Z</time></trkpt><trkpt lat="37.97880381208731" lon="13.822837642035541"><ele>7.0</ele><time>2026-04-09T08:14:59Z</time></trkpt><trkpt lat="37.97887717508319" lon="13.82314800888944"><ele>7.0</ele><time>2026-04-09T08:15:00Z</time></trkpt><trkpt lat="37.97893620798498" lon="13.823458990587623"><ele>7.0</ele><time>2026-04-09T08:15:01Z</time></trkpt><trkpt lat="37.97898446704201" lon="13.82378107246506"><ele>7.0</ele><time>2026-04-09T08:15:02Z</time></trkpt><trkpt lat="37.9790222348257" lon="13.824106243055304"><ele>7.0</ele><time>2026-04-09T08:15:03Z</time></trkpt><trkpt lat="37.979044559973474" lon="13.824432697864523"><ele>7.0</ele><time>2026-04-09T08:15:04Z</time></trkpt><trkpt lat="37.97905275664366" lon="13.824760858965698"><ele>7.0</ele><time>2026-04-09T08:15:05Z</time></trkpt><trkpt lat="37.979043206488335" lon="13.82508948951726"><ele>7.5</ele><time>2026-04-09T08:15:06Z</time></trkpt><trkpt lat="37.979020709814066" lon="13.825422064218662"><ele>8.0</ele><time>2026-04-09T08:15:07Z</time></trkpt><trkpt lat="37.97898161827489" lon="13.825755042726733"><ele>9.5</ele><time>2026-04-09T08:15:08Z</time></trkpt><trkpt lat="37.97892865720301" lon="13.826085679007207"><ele>11.0</ele><time>2026-04-09T08:15:09Z</time></trkpt><trkpt lat="37.97885944160988" lon="13.826411535080714"><ele>11.0</ele><time>2026-04-09T08:15:10Z</time></trkpt><trkpt lat="37.97877563774193" lon="13.826737542041075"><ele>11.0</ele><time>2026-04-09T08:15:11Z</time></trkpt><trkpt lat="37.97867348490982" lon="13.827055620285705"><ele>11.5</ele><time>2026-04-09T08:15:12Z</time></trkpt><trkpt lat="37.978555958881856" lon="13.827364732566654"><ele>12.0</ele><time>2026-04-09T08:15:13Z</time></trkpt><trkpt lat="37.978422126429535" lon="13.827661410512334"><ele>13.0</ele><time>2026-04-09T08:15:14Z</time></trkpt><trkpt lat="37.978272650280196" lon="13.827951382068758"><ele>14.0</ele><time>2026-04-09T08:15:15Z</time></trkpt><trkpt lat="37.97810518652178" lon="13.82823085697045"><ele>13.0</ele><time>2026-04-09T08:15:16Z</time></trkpt><trkpt lat="37.97792771493723" lon="13.828494462292317"><ele>12.0</ele><time>2026-04-09T08:15:17Z</time></trkpt><trkpt lat="37.97773826702769" lon="13.82874784964797"><ele>12.0</ele><time>2026-04-09T08:15:18Z</time></trkpt><trkpt lat="37.97754332984933" lon="13.82898866766925"><ele>12.0</ele><time>2026-04-09T08:15:19Z</time></trkpt><trkpt lat="37.97733365762925" lon="13.829211270493362"><ele>10.0</ele><time>2026-04-09T08:15:20Z</time></trkpt><trkpt lat="37.977109325872426" lon="13.829413473983038"><ele>8.0</ele><time>2026-04-09T08:15:21Z</time></trkpt><trkpt lat="37.976873712982496" lon="13.82959821905809"><ele>9.5</ele><time>2026-04-09T08:15:22Z</time></trkpt><trkpt lat="37.97663086177473" lon="13.829770193879414"><ele>11.0</ele><time>2026-04-09T08:15:23Z</time></trkpt><trkpt lat="37.97638164618245" lon="13.829930998184311"><ele>11.0</ele><time>2026-04-09T08:15:24Z</time></trkpt><trkpt lat="37.97612827008884" lon="13.830082848553612"><ele>11.0</ele><time>2026-04-09T08:15:25Z</time></trkpt><trkpt lat="37.97587360352015" lon="13.830228795114254"><ele>11.0</ele><time>2026-04-09T08:15:26Z</time></trkpt><trkpt lat="37.97561986236004" lon="13.830371679676082"><ele>11.0</ele><time>2026-04-09T08:15:26.999Z</time></trkpt><trkpt lat="37.97538091016062" lon="13.83050315110924"><ele>11.0</ele><time>2026-04-09T08:15:27.999Z</time></trkpt><trkpt lat="37.97515221492013" lon="13.830626044189117"><ele>11.0</ele><time>2026-04-09T08:15:28.999Z</time></trkpt><trkpt lat="37.97494001403839" lon="13.830741297061635"><ele>11.333333333333332</ele><time>2026-04-09T08:15:29.999Z</time></trkpt><trkpt lat="37.974739042778" lon="13.83084879358647"><ele>11.666666666666666</ele><time>2026-04-09T08:15:30.999Z</time></trkpt><trkpt lat="37.97455115213012" lon="13.830951310301662"><ele>12.0</ele><time>2026-04-09T08:15:31.999Z</time></trkpt><trkpt lat="37.97437625957278" lon="13.831048068849467"><ele>12.0</ele><time>2026-04-09T08:15:32.999Z</time></trkpt><trkpt lat="37.97421181461613" lon="13.831140782862029"><ele>12.0</ele><time>2026-04-09T08:15:33.999Z</time></trkpt><trkpt lat="37.97404776906508" lon="13.831227477280905"><ele>12.0</ele><time>2026-04-09T08:15:34.999Z</time></trkpt><trkpt lat="37.973894220586274" lon="13.83129556089339"><ele>13.0</ele><time>2026-04-09T08:15:35.999Z</time></trkpt><trkpt lat="37.97373374327681" lon="13.83134562462132"><ele>14.0</ele><time>2026-04-09T08:15:36.999Z</time></trkpt><trkpt lat="37.97357592173966" lon="13.831371622181871"><ele>15.0</ele><time>2026-04-09T08:15:37.999Z</time></trkpt><trkpt lat="37.97342802030561" lon="13.831371191440802"><ele>15.25</ele><time>2026-04-09T08:15:38.999Z</time></trkpt><trkpt lat="37.97328792135369" lon="13.831344482241258"><ele>15.5</ele><time>2026-04-09T08:15:39.999Z</time></trkpt><trkpt lat="37.97315861047674" lon="13.831289526102655"><ele>15.75</ele><time>2026-04-09T08:15:40.999Z</time></trkpt><trkpt lat="37.97303795541503" lon="13.83119781317078"><ele>16.0</ele><time>2026-04-09T08:15:41.999Z</time></trkpt><trkpt lat="37.972943557178986" lon="13.831072218724943"><ele>15.5</ele><time>2026-04-09T08:15:42.999Z</time></trkpt><trkpt lat="37.97287970498294" lon="13.830929577408401"><ele>15.0</ele><time>2026-04-09T08:15:43.999Z</time></trkpt><trkpt lat="37.9728513712685" lon="13.830772852158946"><ele>14.5</ele><time>2026-04-09T08:15:44.999Z</time></trkpt><trkpt lat="37.972854642540675" lon="13.830602334999858"><ele>14.0</ele><time>2026-04-09T08:15:45.999Z</time></trkpt><trkpt lat="37.97288316564815" lon="13.830439699070528"><ele>14.0</ele><time>2026-04-09T08:15:46.999Z</time></trkpt><trkpt lat="37.97293883996296" lon="13.830293709383293"><ele>14.0</ele><time>2026-04-09T08:15:47.999Z</time></trkpt><trkpt lat="37.97301961521521" lon="13.83016540995647"><ele>14.0</ele><time>2026-04-09T08:15:48.999Z</time></trkpt><trkpt lat="37.97311645492929" lon="13.830074367806779"><ele>14.0</ele><time>2026-04-09T08:15:49.999Z</time></trkpt><trkpt lat="37.973227764152796" lon="13.830015030100194"><ele>13.75</ele><time>2026-04-09T08:15:50.999Z</time></trkpt><trkpt lat="37.97334839640346" lon="13.829986734801558"><ele>13.5</ele><time>2026-04-09T08:15:51.999Z</time></trkpt><trkpt lat="37.97347017316076" lon="13.82999330907451"><ele>13.25</ele><time>2026-04-09T08:15:52.999Z</time></trkpt><trkpt lat="37.973590448321914" lon="13.830035358549418"><ele>13.0</ele><time>2026-04-09T08:15:53.999Z</time></trkpt><trkpt lat="37.97370439012236" lon="13.830109661491033"><ele>12.333333333333332</ele><time>2026-04-09T08:15:54.999Z</time></trkpt><trkpt lat="37.973800265430576" lon="13.83022828299901"><ele>11.666666666666666</ele><time>2026-04-09T08:15:55.999Z</time></trkpt><trkpt lat="37.97388171097836" lon="13.830379955408072"><ele>11.0</ele><time>2026-04-09T08:15:56.999Z</time></trkpt><trkpt lat="37.973961073739936" lon="13.830582411013024"><ele>11.0</ele><time>2026-04-09T08:15:57.999Z</time></trkpt><trkpt lat="37.97403969429545" lon="13.830806192741347"><ele>11.0</ele><time>2026-04-09T08:15:58.999Z</time></trkpt><trkpt lat="37.974122174839756" lon="13.831064713710814"><ele>11.0</ele><time>2026-04-09T08:15:59.999Z</time></trkpt><trkpt lat="37.974208981701885" lon="13.831317809643446"><ele>11.333333333333332</ele><time>2026-04-09T08:16:00.999Z</time></trkpt><trkpt lat="37.97429234362852" lon="13.8315526750267"><ele>11.666666666666666</ele><time>2026-04-09T08:16:01.999Z</time></trkpt><trkpt lat="37.97440136309875" lon="13.831789107397993"><ele>12.0</ele><time>2026-04-09T08:16:02.999Z</time></trkpt><trkpt lat="37.97453220364007" lon="13.832019821153622"><ele>12.0</ele><time>2026-04-09T08:16:03.999Z</time></trkpt><trkpt lat="37.974669993790066" lon="13.832214424367194"><ele>12.0</ele><time>2026-04-09T08:16:04.999Z</time></trkpt><trkpt lat="37.974819878096866" lon="13.832384163566164"><ele>12.0</ele><time>2026-04-09T08:16:05.999Z</time></trkpt><trkpt lat="37.974983608030506" lon="13.83253723004625"><ele>12.0</ele><time>2026-04-09T08:16:06.999Z</time></trkpt><trkpt lat="37.9751323744291" lon="13.832668192659273"><ele>12.0</ele><time>2026-04-09T08:16:07.999Z</time></trkpt><trkpt lat="37.975274261093396" lon="13.83278731013153"><ele>12.0</ele><time>2026-04-09T08:16:08.999Z</time></trkpt><trkpt lat="37.97543559102092" lon="13.832917607587124"><ele>12.0</ele><time>2026-04-09T08:16:09.999Z</time></trkpt><trkpt lat="37.975617424240895" lon="13.833059353605236"><ele>12.0</ele><time>2026-04-09T08:16:10.999Z</time></trkpt><trkpt lat="37.97580711307973" lon="13.833204869713493"><ele>12.0</ele><time>2026-04-09T08:16:11.999Z</time></trkpt><trkpt lat="37.97599852436272" lon="13.833357026262709"><ele>10.666666666666666</ele><time>2026-04-09T08:16:12.999Z</time></trkpt><trkpt lat="37.9761818742773" lon="13.833473693302752"><ele>9.333333333333332</ele><time>2026-04-09T08:16:13.999Z</time></trkpt><trkpt lat="37.97633522328994" lon="13.83364000094798"><ele>8.0</ele><time>2026-04-09T08:16:14.999Z</time></trkpt><trkpt lat="37.976487714884286" lon="13.833774048257244"><ele>8.0</ele><time>2026-04-09T08:16:15.999Z</time></trkpt><trkpt lat="37.97663356707197" lon="13.833903256194438"><ele>8.0</ele><time>2026-04-09T08:16:16.999Z</time></trkpt><trkpt lat="37.9767752734404" lon="13.834036513130386"><ele>8.0</ele><time>2026-04-09T08:16:17.999Z</time></trkpt><trkpt lat="37.97690866396551" lon="13.834180306105186"><ele>8.0</ele><time>2026-04-09T08:16:18.999Z</time></trkpt><trkpt lat="37.97702701368269" lon="13.834332853408178"><ele>8.0</ele><time>2026-04-09T08:16:19.999Z</time></trkpt><trkpt lat="37.977121119894015" lon="13.834488247943968"><ele>8.0</ele><time>2026-04-09T08:16:20.999Z</time></trkpt><trkpt lat="37.97722135144937" lon="13.834620199583986"><ele>8.0</ele><time>2026-04-09T08:16:21.999Z</time></trkpt><trkpt lat="37.9773169712884" lon="13.83476494559807"><ele>8.0</ele><time>2026-04-09T08:16:22.999Z</time></trkpt><trkpt lat="37.97737350734413" lon="13.834982271398971"><ele>8.0</ele><time>2026-04-09T08:16:23.999Z</time></trkpt><trkpt lat="37.977460337053444" lon="13.835191483755374"><ele>7.0</ele><time>2026-04-09T08:16:24.999Z</time></trkpt><trkpt lat="37.97754474873337" lon="13.835410320059578"><ele>6.0</ele><time>2026-04-09T08:16:25.999Z</time></trkpt><trkpt lat="37.977640444547845" lon="13.83559163280415"><ele>5.0</ele><time>2026-04-09T08:16:26.999Z</time></trkpt><trkpt lat="37.97772174177785" lon="13.835785496009544"><ele>5.0</ele><time>2026-04-09T08:16:27.999Z</time></trkpt><trkpt lat="37.97779830089829" lon="13.835962991472325"><ele>5.0</ele><time>2026-04-09T08:16:28.999Z</time></trkpt><trkpt lat="37.977862151401155" lon="13.836115921292187"><ele>5.0</ele><time>2026-04-09T08:16:29.999Z</time></trkpt><trkpt lat="37.97791614497725" lon="13.836249421488343"><ele>5.0</ele><time>2026-04-09T08:16:30.999Z</time></trkpt><trkpt lat="37.97795910368194" lon="13.83636503985708"><ele>5.2</ele><time>2026-04-09T08:16:31.999Z</time></trkpt><trkpt lat="37.97799121055797" lon="13.836470751963875"><ele>5.4</ele><time>2026-04-09T08:16:32.999Z</time></trkpt><trkpt lat="37.978010448351235" lon="13.836562510882324"><ele>5.6</ele><time>2026-04-09T08:16:33.999Z</time></trkpt><trkpt lat="37.977989015657286" lon="13.836674903416688"><ele>5.8</ele><time>2026-04-09T08:16:35.999Z</time></trkpt><trkpt lat="37.97790907574735" lon="13.836710984679804"><ele>6.0</ele><time>2026-04-09T08:16:38.999Z</time></trkpt><trkpt lat="37.977856401026216" lon="13.836880422553751"><ele>6.199999999999999</ele><time>2026-04-09T08:17:35.999Z</time></trkpt><trkpt lat="37.97800089572638" lon="13.836895890870595"><ele>6.3999999999999995</ele><time>2026-04-09T08:17:36.999Z</time></trkpt><trkpt lat="37.978018905913956" lon="13.836982875778858"><ele>6.6</ele><time>2026-04-09T08:17:37.999Z</time></trkpt><trkpt lat="37.978094282553286" lon="13.83708807570027"><ele>6.8</ele><time>2026-04-09T08:17:39.999Z</time></trkpt><trkpt lat="37.97816010278678" lon="13.83711955287589"><ele>7.0</ele><time>2026-04-09T08:17:41.999Z</time></trkpt><trkpt lat="37.97824724860505" lon="13.837219296455972"><ele>7.0</ele><time>2026-04-09T08:17:48.999Z</time></trkpt><trkpt lat="37.978293625269885" lon="13.837329834688337"><ele>7.0</ele><time>2026-04-09T08:17:49.999Z</time></trkpt><trkpt lat="37.978339317761225" lon="13.83745233263145"><ele>7.0</ele><time>2026-04-09T08:17:50.999Z</time></trkpt><trkpt lat="37.9783984308819" lon="13.837601863423936"><ele>7.0</ele><time>2026-04-09T08:17:51.999Z</time></trkpt><trkpt lat="37.978456843133344" lon="13.837758407241173"><ele>6.666666666666667</ele><time>2026-04-09T08:17:52.999Z</time></trkpt><trkpt lat="37.978520790804296" lon="13.83792614498894"><ele>6.333333333333334</ele><time>2026-04-09T08:17:53.999Z</time></trkpt><trkpt lat="37.97859042550769" lon="13.838109513074546"><ele>6.0</ele><time>2026-04-09T08:17:54.999Z</time></trkpt><trkpt lat="37.9786552192457" lon="13.838279280600643"><ele>6.0</ele><time>2026-04-09T08:17:55.999Z</time></trkpt><trkpt lat="37.97870836463765" lon="13.838423534158629"><ele>6.0</ele><time>2026-04-09T08:17:56.999Z</time></trkpt><trkpt lat="37.978762328879895" lon="13.83857164140603"><ele>6.0</ele><time>2026-04-09T08:17:57.999Z</time></trkpt><trkpt lat="37.97882099481521" lon="13.838731325777815"><ele>6.0</ele><time>2026-04-09T08:17:58.999Z</time></trkpt><trkpt lat="37.978882761550025" lon="13.83889946518739"><ele>7.0</ele><time>2026-04-09T08:17:59.999Z</time></trkpt><trkpt lat="37.97894830434147" lon="13.839076374600461"><ele>8.0</ele><time>2026-04-09T08:18:00.999Z</time></trkpt><trkpt lat="37.97902177652786" lon="13.839267583772676"><ele>9.0</ele><time>2026-04-09T08:18:01.999Z</time></trkpt><trkpt lat="37.97909217174788" lon="13.839468010892512"><ele>9.666666666666666</ele><time>2026-04-09T08:18:02.999Z</time></trkpt><trkpt lat="37.979155542202044" lon="13.839648265830675"><ele>10.333333333333332</ele><time>2026-04-09T08:18:03.999Z</time></trkpt><trkpt lat="37.97921833696804" lon="13.83982123632324"><ele>11.0</ele><time>2026-04-09T08:18:04.999Z</time></trkpt><trkpt lat="37.979283652591995" lon="13.839998984648892"><ele>10.666666666666666</ele><time>2026-04-09T08:18:05.999Z</time></trkpt><trkpt lat="37.97934969150784" lon="13.840179294008534"><ele>10.333333333333334</ele><time>2026-04-09T08:18:06.999Z</time></trkpt><trkpt lat="37.97941986866887" lon="13.840363418483841"><ele>10.0</ele><time>2026-04-09T08:18:07.999Z</time></trkpt><trkpt lat="37.979491898357836" lon="13.840554700578876"><ele>10.0</ele><time>2026-04-09T08:18:08.999Z</time></trkpt><trkpt lat="37.97956756692504" lon="13.840749963884498"><ele>10.0</ele><time>2026-04-09T08:18:09.999Z</time></trkpt><trkpt lat="37.97964439543411" lon="13.840949432237082"><ele>10.0</ele><time>2026-04-09T08:18:10.999Z</time></trkpt><trkpt lat="37.97971954436588" lon="13.841152909042455"><ele>10.333333333333334</ele><time>2026-04-09T08:18:11.999Z</time></trkpt><trkpt lat="37.97979845141234" lon="13.841356666427748"><ele>10.666666666666666</ele><time>2026-04-09T08:18:12.999Z</time></trkpt><trkpt lat="37.97987905431459" lon="13.841563591446981"><ele>11.0</ele><time>2026-04-09T08:18:13.999Z</time></trkpt><trkpt lat="37.979958585427156" lon="13.84176817057247"><ele>10.0</ele><time>2026-04-09T08:18:14.999Z</time></trkpt><trkpt lat="37.980036721580106" lon="13.84196851983076"><ele>9.0</ele><time>2026-04-09T08:18:15.999Z</time></trkpt><trkpt lat="37.980116433722365" lon="13.84216951888155"><ele>8.0</ele><time>2026-04-09T08:18:16.999Z</time></trkpt><trkpt lat="37.980189698054176" lon="13.842381618957711"><ele>8.0</ele><time>2026-04-09T08:18:17.999Z</time></trkpt><trkpt lat="37.98026150549492" lon="13.842570644330936"><ele>8.0</ele><time>2026-04-09T08:18:18.999Z</time></trkpt><trkpt lat="37.98032795787312" lon="13.842767819666486"><ele>8.0</ele><time>2026-04-09T08:18:19.999Z</time></trkpt><trkpt lat="37.980388065199485" lon="13.842955982442053"><ele>8.0</ele><time>2026-04-09T08:18:20.999Z</time></trkpt><trkpt lat="37.98045693331077" lon="13.8431486207167"><ele>8.0</ele><time>2026-04-09T08:18:21.999Z</time></trkpt><trkpt lat="37.980524962950106" lon="13.843336071816706"><ele>8.0</ele><time>2026-04-09T08:18:22.999Z</time></trkpt><trkpt lat="37.98059273864829" lon="13.84352815242451"><ele>8.0</ele><time>2026-04-09T08:18:23.999Z</time></trkpt><trkpt lat="37.980660164175966" lon="13.843715377999532"><ele>8.0</ele><time>2026-04-09T08:18:24.999Z</time></trkpt><trkpt lat="37.98073146276924" lon="13.84390290870712"><ele>8.0</ele><time>2026-04-09T08:18:25.999Z</time></trkpt><trkpt lat="37.98079921953023" lon="13.84408446671464"><ele>7.666666666666666</ele><time>2026-04-09T08:18:26.999Z</time></trkpt><trkpt lat="37.98086480140527" lon="13.844262061387514"><ele>7.333333333333334</ele><time>2026-04-09T08:18:27.999Z</time></trkpt><trkpt lat="37.980930298852066" lon="13.84444700775528"><ele>7.0</ele><time>2026-04-09T08:18:28.999Z</time></trkpt><trkpt lat="37.98099393408835" lon="13.84463945585828"><ele>7.0</ele><time>2026-04-09T08:18:29.999Z</time></trkpt><trkpt lat="37.98106589568401" lon="13.844837824377525"><ele>7.0</ele><time>2026-04-09T08:18:30.999Z</time></trkpt><trkpt lat="37.98113641179134" lon="13.845039622254717"><ele>7.0</ele><time>2026-04-09T08:18:31.999Z</time></trkpt><trkpt lat="37.98121321469092" lon="13.845239999959269"><ele>6.666666666666667</ele><time>2026-04-09T08:18:32.999Z</time></trkpt><trkpt lat="37.98128491356786" lon="13.84543837125006"><ele>6.333333333333334</ele><time>2026-04-09T08:18:33.999Z</time></trkpt><trkpt lat="37.981361297105714" lon="13.845639773390086"><ele>6.0</ele><time>2026-04-09T08:18:34.999Z</time></trkpt><trkpt lat="37.981442623295216" lon="13.845847622792006"><ele>6.0</ele><time>2026-04-09T08:18:35.999Z</time></trkpt><trkpt lat="37.981529389526386" lon="13.846057396446074"><ele>6.0</ele><time>2026-04-09T08:18:36.999Z</time></trkpt><trkpt lat="37.981613528827225" lon="13.846271007907953"><ele>6.0</ele><time>2026-04-09T08:18:37.999Z</time></trkpt><trkpt lat="37.981693546665134" lon="13.84648651228303"><ele>6.0</ele><time>2026-04-09T08:18:38.999Z</time></trkpt><trkpt lat="37.981767567158904" lon="13.84669725071106"><ele>6.0</ele><time>2026-04-09T08:18:39.999Z</time></trkpt><trkpt lat="37.98184163465835" lon="13.84690482583453"><ele>6.0</ele><time>2026-04-09T08:18:40.999Z</time></trkpt><trkpt lat="37.98191631919796" lon="13.847111333680932"><ele>6.0</ele><time>2026-04-09T08:18:41.999Z</time></trkpt><trkpt lat="37.98199723841275" lon="13.847327972169557"><ele>6.0</ele><time>2026-04-09T08:18:42.999Z</time></trkpt><trkpt lat="37.982086384442006" lon="13.84755782675177"><ele>6.0</ele><time>2026-04-09T08:18:43.999Z</time></trkpt><trkpt lat="37.98218994200355" lon="13.847814333450492"><ele>5.5</ele><time>2026-04-09T08:18:44.999Z</time></trkpt><trkpt lat="37.98230206292893" lon="13.848102938092017"><ele>5.0</ele><time>2026-04-09T08:18:45.999Z</time></trkpt><trkpt lat="37.98240737256241" lon="13.848397415498926"><ele>5.0</ele><time>2026-04-09T08:18:46.999Z</time></trkpt><trkpt lat="37.98251236509244" lon="13.84871199441991"><ele>5.0</ele><time>2026-04-09T08:18:47.999Z</time></trkpt><trkpt lat="37.98262214294994" lon="13.849039185690515"><ele>5.5</ele><time>2026-04-09T08:18:48.999Z</time></trkpt><trkpt lat="37.982740183568914" lon="13.849365111431572"><ele>6.0</ele><time>2026-04-09T08:18:49.999Z</time></trkpt><trkpt lat="37.98285578540282" lon="13.849678659981977"><ele>6.0</ele><time>2026-04-09T08:18:50.999Z</time></trkpt><trkpt lat="37.98297356691046" lon="13.849990916753566"><ele>6.0</ele><time>2026-04-09T08:18:51.999Z</time></trkpt><trkpt lat="37.98309067715279" lon="13.850300291545839"><ele>6.5</ele><time>2026-04-09T08:18:52.999Z</time></trkpt><trkpt lat="37.983202245682506" lon="13.850605757071898"><ele>7.0</ele><time>2026-04-09T08:18:53.999Z</time></trkpt><trkpt lat="37.98331263135201" lon="13.850909940733303"><ele>7.0</ele><time>2026-04-09T08:18:54.998Z</time></trkpt><trkpt lat="37.98342450577133" lon="13.85121125589124"><ele>7.0</ele><time>2026-04-09T08:18:55.998Z</time></trkpt><trkpt lat="37.983534315510724" lon="13.851508765048552"><ele>7.0</ele><time>2026-04-09T08:18:56.998Z</time></trkpt><trkpt lat="37.98363975941676" lon="13.851790723095318"><ele>7.0</ele><time>2026-04-09T08:18:58Z</time></trkpt><trkpt lat="37.983740056591074" lon="13.852065253445128"><ele>7.0</ele><time>2026-04-09T08:18:59Z</time></trkpt><trkpt lat="37.98383642636783" lon="13.852331923239886"><ele>7.0</ele><time>2026-04-09T08:19:00Z</time></trkpt><trkpt lat="37.983932956538915" lon="13.85259052914225"><ele>7.0</ele><time>2026-04-09T08:19:01Z</time></trkpt><trkpt lat="37.984028121626395" lon="13.852849476295749"><ele>7.0</ele><time>2026-04-09T08:19:02Z</time></trkpt><trkpt lat="37.9841199893259" lon="13.85310755327101"><ele>7.0</ele><time>2026-04-09T08:19:03Z</time></trkpt><trkpt lat="37.98421552137006" lon="13.853369014448122"><ele>6.666666666666667</ele><time>2026-04-09T08:19:04Z</time></trkpt><trkpt lat="37.98431678622346" lon="13.853628436807455"><ele>6.333333333333334</ele><time>2026-04-09T08:19:05Z</time></trkpt><trkpt lat="37.98440659027475" lon="13.853870608464256"><ele>6.0</ele><time>2026-04-09T08:19:06Z</time></trkpt><trkpt lat="37.98450210684868" lon="13.85411613004429"><ele>6.0</ele><time>2026-04-09T08:19:07Z</time></trkpt><trkpt lat="37.98460468850383" lon="13.854375571282702"><ele>6.0</ele><time>2026-04-09T08:19:08Z</time></trkpt><trkpt lat="37.98470356133197" lon="13.854650223908084"><ele>6.0</ele><time>2026-04-09T08:19:09Z</time></trkpt><trkpt lat="37.984799588216305" lon="13.854936888750565"><ele>6.0</ele><time>2026-04-09T08:19:10Z</time></trkpt><trkpt lat="37.98490049560778" lon="13.855230029953109"><ele>6.0</ele><time>2026-04-09T08:19:11Z</time></trkpt><trkpt lat="37.98500660378976" lon="13.85552983392802"><ele>6.0</ele><time>2026-04-09T08:19:12Z</time></trkpt><trkpt lat="37.985115728455405" lon="13.855834708600199"><ele>7.0</ele><time>2026-04-09T08:19:13Z</time></trkpt><trkpt lat="37.985226026143664" lon="13.856140571709206"><ele>8.0</ele><time>2026-04-09T08:19:14Z</time></trkpt><trkpt lat="37.985338004693105" lon="13.856449965470489"><ele>8.0</ele><time>2026-04-09T08:19:15Z</time></trkpt><trkpt lat="37.98544796837142" lon="13.856758166007614"><ele>8.0</ele><time>2026-04-09T08:19:16Z</time></trkpt><trkpt lat="37.98555913062769" lon="13.85707083357506"><ele>8.0</ele><time>2026-04-09T08:19:17Z</time></trkpt><trkpt lat="37.98567380531803" lon="13.857383323969072"><ele>8.0</ele><time>2026-04-09T08:19:18Z</time></trkpt><trkpt lat="37.985788475520934" lon="13.857695276230272"><ele>8.5</ele><time>2026-04-09T08:19:19Z</time></trkpt><trkpt lat="37.98590062479133" lon="13.857999407782845"><ele>9.0</ele><time>2026-04-09T08:19:20Z</time></trkpt><trkpt lat="37.986013623648795" lon="13.858299147840917"><ele>9.0</ele><time>2026-04-09T08:19:21Z</time></trkpt><trkpt lat="37.98613066043923" lon="13.858597669524581"><ele>9.0</ele><time>2026-04-09T08:19:22Z</time></trkpt><trkpt lat="37.98624534914744" lon="13.858893069535396"><ele>9.0</ele><time>2026-04-09T08:19:23Z</time></trkpt><trkpt lat="37.98635671043754" lon="13.859186667827913"><ele>9.0</ele><time>2026-04-09T08:19:24Z</time></trkpt><trkpt lat="37.98646331500004" lon="13.859477544856702"><ele>10.0</ele><time>2026-04-09T08:19:25Z</time></trkpt><trkpt lat="37.98656961150238" lon="13.85976776873504"><ele>11.0</ele><time>2026-04-09T08:19:26Z</time></trkpt><trkpt lat="37.98667373176943" lon="13.860058577774412"><ele>9.5</ele><time>2026-04-09T08:19:26.999Z</time></trkpt><trkpt lat="37.9867795932875" lon="13.860346111820721"><ele>8.0</ele><time>2026-04-09T08:19:27.999Z</time></trkpt><trkpt lat="37.98688663079371" lon="13.860630389507483"><ele>8.0</ele><time>2026-04-09T08:19:28.999Z</time></trkpt><trkpt lat="37.986993924551946" lon="13.860915829509993"><ele>8.0</ele><time>2026-04-09T08:19:29.999Z</time></trkpt><trkpt lat="37.98710019031364" lon="13.86119914356643"><ele>8.0</ele><time>2026-04-09T08:19:30.999Z</time></trkpt><trkpt lat="37.987205428204035" lon="13.861479673211887"><ele>8.0</ele><time>2026-04-09T08:19:31.999Z</time></trkpt><trkpt lat="37.98730938159765" lon="13.861756120100743"><ele>8.5</ele><time>2026-04-09T08:19:32.999Z</time></trkpt><trkpt lat="37.98741043735914" lon="13.862027537296"><ele>9.0</ele><time>2026-04-09T08:19:33.999Z</time></trkpt><trkpt lat="37.98750979793804" lon="13.862301162305386"><ele>8.5</ele><time>2026-04-09T08:19:34.999Z</time></trkpt><trkpt lat="37.987608857070676" lon="13.862574463245192"><ele>8.0</ele><time>2026-04-09T08:19:35.999Z</time></trkpt><trkpt lat="37.98770934588712" lon="13.86284624357781"><ele>7.5</ele><time>2026-04-09T08:19:36.999Z</time></trkpt><trkpt lat="37.987809528814346" lon="13.863117677961696"><ele>7.0</ele><time>2026-04-09T08:19:37.999Z</time></trkpt><trkpt lat="37.98790686960516" lon="13.86338640329897"><ele>7.0</ele><time>2026-04-09T08:19:38.999Z</time></trkpt><trkpt lat="37.988005222652255" lon="13.863657212760431"><ele>7.0</ele><time>2026-04-09T08:19:39.999Z</time></trkpt><trkpt lat="37.98810338268401" lon="13.86392653662743"><ele>7.0</ele><time>2026-04-09T08:19:40.999Z</time></trkpt><trkpt lat="37.98820286529273" lon="13.86419520865013"><ele>7.0</ele><time>2026-04-09T08:19:41.999Z</time></trkpt><trkpt lat="37.98830152259501" lon="13.864462538048306"><ele>7.0</ele><time>2026-04-09T08:19:42.999Z</time></trkpt><trkpt lat="37.988397932766084" lon="13.864727573346945"><ele>7.0</ele><time>2026-04-09T08:19:43.999Z</time></trkpt><trkpt lat="37.988494290332504" lon="13.86499196607657"><ele>7.5</ele><time>2026-04-09T08:19:44.999Z</time></trkpt><trkpt lat="37.98859059657362" lon="13.865251441301835"><ele>8.0</ele><time>2026-04-09T08:19:45.999Z</time></trkpt><trkpt lat="37.988686953452586" lon="13.86551246709379"><ele>8.0</ele><time>2026-04-09T08:19:46.999Z</time></trkpt><trkpt lat="37.9887827113243" lon="13.865774386451438"><ele>8.0</ele><time>2026-04-09T08:19:47.999Z</time></trkpt><trkpt lat="37.988877955470535" lon="13.86603727559191"><ele>9.5</ele><time>2026-04-09T08:19:48.999Z</time></trkpt><trkpt lat="37.98897407893453" lon="13.866298125239402"><ele>11.0</ele><time>2026-04-09T08:19:49.999Z</time></trkpt><trkpt lat="37.98907076107196" lon="13.866555201043973"><ele>11.0</ele><time>2026-04-09T08:19:50.999Z</time></trkpt><trkpt lat="37.98916625401391" lon="13.866807960113992"><ele>11.0</ele><time>2026-04-09T08:19:51.999Z</time></trkpt><trkpt lat="37.98926314297132" lon="13.867063586550625"><ele>11.0</ele><time>2026-04-09T08:19:52.999Z</time></trkpt><trkpt lat="37.989358080565516" lon="13.867317687442263"><ele>11.0</ele><time>2026-04-09T08:19:53.999Z</time></trkpt><trkpt lat="37.989451292937474" lon="13.867569583782355"><ele>11.0</ele><time>2026-04-09T08:19:54.999Z</time></trkpt><trkpt lat="37.98954160768509" lon="13.86782198166683"><ele>11.0</ele><time>2026-04-09T08:19:55.999Z</time></trkpt><trkpt lat="37.98963221401015" lon="13.868077009541397"><ele>11.0</ele><time>2026-04-09T08:19:56.999Z</time></trkpt><trkpt lat="37.98972301527715" lon="13.868328794021451"><ele>11.0</ele><time>2026-04-09T08:19:57.999Z</time></trkpt><trkpt lat="37.98981309017102" lon="13.868582066455826"><ele>11.0</ele><time>2026-04-09T08:19:58.999Z</time></trkpt><trkpt lat="37.98989962885693" lon="13.86883162477776"><ele>11.333333333333332</ele><time>2026-04-09T08:19:59.999Z</time></trkpt><trkpt lat="37.98997659703126" lon="13.869081260111887"><ele>11.666666666666666</ele><time>2026-04-09T08:20:00.999Z</time></trkpt><trkpt lat="37.99004646399289" lon="13.869333544328702"><ele>12.0</ele><time>2026-04-09T08:20:01.999Z</time></trkpt><trkpt lat="37.99010496332531" lon="13.869586193271184"><ele>12.0</ele><time>2026-04-09T08:20:02.999Z</time></trkpt><trkpt lat="37.990151860596605" lon="13.869844399968885"><ele>12.0</ele><time>2026-04-09T08:20:03.999Z</time></trkpt><trkpt lat="37.99019186319436" lon="13.870106021544231"><ele>12.0</ele><time>2026-04-09T08:20:04.999Z</time></trkpt><trkpt lat="37.99022223780811" lon="13.87037203578469"><ele>11.333333333333334</ele><time>2026-04-09T08:20:05.999Z</time></trkpt><trkpt lat="37.99024198176672" lon="13.870640299100183"><ele>10.666666666666668</ele><time>2026-04-09T08:20:06.999Z</time></trkpt><trkpt lat="37.99025033472273" lon="13.870909049326984"><ele>10.0</ele><time>2026-04-09T08:20:07.999Z</time></trkpt><trkpt lat="37.9902501837829" lon="13.871170975929282"><ele>10.0</ele><time>2026-04-09T08:20:08.999Z</time></trkpt><trkpt lat="37.99024306353047" lon="13.87143193150966"><ele>10.0</ele><time>2026-04-09T08:20:09.999Z</time></trkpt><trkpt lat="37.99022912546346" lon="13.871682873143373"><ele>10.0</ele><time>2026-04-09T08:20:10.999Z</time></trkpt><trkpt lat="37.990211375371054" lon="13.871924593006817"><ele>10.0</ele><time>2026-04-09T08:20:11.999Z</time></trkpt><trkpt lat="37.99019564257998" lon="13.872162870708928"><ele>10.0</ele><time>2026-04-09T08:20:12.999Z</time></trkpt><trkpt lat="37.99018020566204" lon="13.87240300765351"><ele>10.0</ele><time>2026-04-09T08:20:13.999Z</time></trkpt><trkpt lat="37.990171530153624" lon="13.872634832566392"><ele>10.0</ele><time>2026-04-09T08:20:14.999Z</time></trkpt><trkpt lat="37.99016540567086" lon="13.872849634172763"><ele>10.0</ele><time>2026-04-09T08:20:15.999Z</time></trkpt><trkpt lat="37.99016096461296" lon="13.873048210551072"><ele>10.0</ele><time>2026-04-09T08:20:16.999Z</time></trkpt><trkpt lat="37.99015601408803" lon="13.873240956575277"><ele>10.0</ele><time>2026-04-09T08:20:17.999Z</time></trkpt><trkpt lat="37.990141331569134" lon="13.873428836680352"><ele>10.0</ele><time>2026-04-09T08:20:18.999Z</time></trkpt><trkpt lat="37.99010815479578" lon="13.87361662592849"><ele>10.0</ele><time>2026-04-09T08:20:19.999Z</time></trkpt><trkpt lat="37.99006841558549" lon="13.873793971005318"><ele>10.0</ele><time>2026-04-09T08:20:20.999Z</time></trkpt><trkpt lat="37.99003843602148" lon="13.873970508393276"><ele>10.0</ele><time>2026-04-09T08:20:21.999Z</time></trkpt><trkpt lat="37.990021461925714" lon="13.874163849965349"><ele>10.0</ele><time>2026-04-09T08:20:22.999Z</time></trkpt><trkpt lat="37.99000834297341" lon="13.874383265934432"><ele>10.0</ele><time>2026-04-09T08:20:23.999Z</time></trkpt><trkpt lat="37.99003788766568" lon="13.874622662638599"><ele>10.0</ele><time>2026-04-09T08:20:24.999Z</time></trkpt><trkpt lat="37.99006274665206" lon="13.874850385061604"><ele>10.0</ele><time>2026-04-09T08:20:25.999Z</time></trkpt><trkpt lat="37.990106137049175" lon="13.87509262956343"><ele>10.0</ele><time>2026-04-09T08:20:26.999Z</time></trkpt><trkpt lat="37.99015316262476" lon="13.87535854920285"><ele>10.0</ele><time>2026-04-09T08:20:27.999Z</time></trkpt><trkpt lat="37.99019842257399" lon="13.875613118758368"><ele>10.0</ele><time>2026-04-09T08:20:28.999Z</time></trkpt><trkpt lat="37.99024094558233" lon="13.875843840477962"><ele>10.0</ele><time>2026-04-09T08:20:29.999Z</time></trkpt><trkpt lat="37.9902801509433" lon="13.876062527609905"><ele>11.333333333333334</ele><time>2026-04-09T08:20:30.999Z</time></trkpt><trkpt lat="37.99030513754426" lon="13.876270127619504"><ele>12.666666666666668</ele><time>2026-04-09T08:20:31.999Z</time></trkpt><trkpt lat="37.990313453231806" lon="13.876459420005975"><ele>14.0</ele><time>2026-04-09T08:20:32.999Z</time></trkpt><trkpt lat="37.990314363377955" lon="13.876666891145586"><ele>14.666666666666668</ele><time>2026-04-09T08:20:33.999Z</time></trkpt><trkpt lat="37.99030907323029" lon="13.876893077175819"><ele>15.333333333333332</ele><time>2026-04-09T08:20:34.999Z</time></trkpt><trkpt lat="37.9903006997692" lon="13.877144985625948"><ele>16.0</ele><time>2026-04-09T08:20:35.999Z</time></trkpt><trkpt lat="37.99029222335746" lon="13.877423581277085"><ele>17.5</ele><time>2026-04-09T08:20:36.999Z</time></trkpt><trkpt lat="37.99028436742487" lon="13.87770945826767"><ele>19.0</ele><time>2026-04-09T08:20:37.999Z</time></trkpt><trkpt lat="37.990276946171925" lon="13.878005464786897"><ele>19.0</ele><time>2026-04-09T08:20:38.999Z</time></trkpt><trkpt lat="37.99026511038725" lon="13.878270130863896"><ele>19.0</ele><time>2026-04-09T08:20:39.999Z</time></trkpt><trkpt lat="37.990253568113644" lon="13.878510529071528"><ele>19.0</ele><time>2026-04-09T08:20:40.999Z</time></trkpt><trkpt lat="37.99024926079038" lon="13.878745193090841"><ele>20.666666666666664</ele><time>2026-04-09T08:20:41.999Z</time></trkpt><trkpt lat="37.990272380595435" lon="13.878974968858653"><ele>22.333333333333332</ele><time>2026-04-09T08:20:42.999Z</time></trkpt><trkpt lat="37.99031668497704" lon="13.879182928488568"><ele>24.0</ele><time>2026-04-09T08:20:43.999Z</time></trkpt><trkpt lat="37.99036102748748" lon="13.879368826395492"><ele>24.666666666666664</ele><time>2026-04-09T08:20:44.999Z</time></trkpt><trkpt lat="37.990383778942466" lon="13.879563542639632"><ele>25.333333333333332</ele><time>2026-04-09T08:20:45.999Z</time></trkpt><trkpt lat="37.99038238572874" lon="13.879780890600575"><ele>26.0</ele><time>2026-04-09T08:20:46.999Z</time></trkpt><trkpt lat="37.99036611505174" lon="13.880011632987385"><ele>27.666666666666664</ele><time>2026-04-09T08:20:47.999Z</time></trkpt><trkpt lat="37.99034955765161" lon="13.88024508990459"><ele>29.333333333333336</ele><time>2026-04-09T08:20:48.999Z</time></trkpt><trkpt lat="37.990340333649755" lon="13.88047518179359"><ele>31.0</ele><time>2026-04-09T08:20:49.999Z</time></trkpt><trkpt lat="37.99034893859568" lon="13.88068651365574"><ele>31.0</ele><time>2026-04-09T08:20:50.999Z</time></trkpt><trkpt lat="37.99037048834032" lon="13.880894757928584"><ele>31.0</ele><time>2026-04-09T08:20:51.999Z</time></trkpt><trkpt lat="37.99040512203628" lon="13.881092033682943"><ele>31.0</ele><time>2026-04-09T08:20:52.999Z</time></trkpt><trkpt lat="37.99044652537085" lon="13.881273398677555"><ele>32.75</ele><time>2026-04-09T08:20:53.999Z</time></trkpt><trkpt lat="37.990488714890866" lon="13.881443034928052"><ele>34.5</ele><time>2026-04-09T08:20:54.998Z</time></trkpt><trkpt lat="37.99052463084275" lon="13.881590776690043"><ele>36.25</ele><time>2026-04-09T08:20:55.998Z</time></trkpt><trkpt lat="37.99055751732456" lon="13.881732096627129"><ele>38.0</ele><time>2026-04-09T08:20:56.998Z</time></trkpt><trkpt lat="37.990583273297595" lon="13.881869103383735"><ele>38.599999999999994</ele><time>2026-04-09T08:20:57.998Z</time></trkpt><trkpt lat="37.99060628977742" lon="13.882003987776644"><ele>39.199999999999996</ele><time>2026-04-09T08:20:58.998Z</time></trkpt><trkpt lat="37.990611031641556" lon="13.88214547158043"><ele>39.8</ele><time>2026-04-09T08:20:59.998Z</time></trkpt><trkpt lat="37.99059540486881" lon="13.882284430407926"><ele>40.4</ele><time>2026-04-09T08:21:00.998Z</time></trkpt><trkpt lat="37.990555094875226" lon="13.88242418551135"><ele>41.0</ele><time>2026-04-09T08:21:01.998Z</time></trkpt><trkpt lat="37.990492311030515" lon="13.882570729919436"><ele>43.199999999999996</ele><time>2026-04-09T08:21:02.998Z</time></trkpt><trkpt lat="37.99043970915993" lon="13.882692210138678"><ele>45.4</ele><time>2026-04-09T08:21:04Z</time></trkpt><trkpt lat="37.99039490151215" lon="13.882803602203625"><ele>47.6</ele><time>2026-04-09T08:21:05Z</time></trkpt><trkpt lat="37.99035633829548" lon="13.882903060193991"><ele>49.8</ele><time>2026-04-09T08:21:06Z</time></trkpt><trkpt lat="37.99032650688663" lon="13.88299942975933"><ele>52.0</ele><time>2026-04-09T08:21:07Z</time></trkpt><trkpt lat="37.990321778656444" lon="13.883095798921673"><ele>52.0</ele><time>2026-04-09T08:21:08Z</time></trkpt><trkpt lat="37.99033812586068" lon="13.88318594487861"><ele>52.0</ele><time>2026-04-09T08:21:09Z</time></trkpt><trkpt lat="37.99036956495836" lon="13.88326995252587"><ele>52.0</ele><time>2026-04-09T08:21:10Z</time></trkpt><trkpt lat="37.990410246979906" lon="13.883343030458901"><ele>52.0</ele><time>2026-04-09T08:21:11Z</time></trkpt><trkpt lat="37.99044459887371" lon="13.883478747348935"><ele>52.0</ele><time>2026-04-09T08:21:13Z</time></trkpt><trkpt lat="37.990394157183374" lon="13.883623514198472"><ele>54.0</ele><time>2026-04-09T08:21:15Z</time></trkpt><trkpt lat="37.99034061765291" lon="13.883683522661277"><ele>56.0</ele><time>2026-04-09T08:21:16Z</time></trkpt><trkpt lat="37.99028142183597" lon="13.88373059625658"><ele>58.0</ele><time>2026-04-09T08:21:17Z</time></trkpt><trkpt lat="37.9902178373443" lon="13.883779965803475"><ele>60.0</ele><time>2026-04-09T08:21:18Z</time></trkpt><trkpt lat="37.99015453116844" lon="13.883822382631768"><ele>62.0</ele><time>2026-04-09T08:21:19Z</time></trkpt><trkpt lat="37.99008385639287" lon="13.883840750639438"><ele>64.0</ele><time>2026-04-09T08:21:20Z</time></trkpt><trkpt lat="37.99000806277386" lon="13.883816580570185"><ele>66.0</ele><time>2026-04-09T08:21:21Z</time></trkpt><trkpt lat="37.989936889008646" lon="13.883804122141353"><ele>66.0</ele><time>2026-04-09T08:21:22Z</time></trkpt><trkpt lat="37.98987305686413" lon="13.883788808922796"><ele>66.0</ele><time>2026-04-09T08:21:22.999Z</time></trkpt><trkpt lat="37.98975381528678" lon="13.883766087781929"><ele>66.0</ele><time>2026-04-09T08:21:24.999Z</time></trkpt><trkpt lat="37.98968735199836" lon="13.883764073860855"><ele>66.0</ele><time>2026-04-09T08:21:25.999Z</time></trkpt><trkpt lat="37.98960862951343" lon="13.883777709310412"><ele>66.0</ele><time>2026-04-09T08:21:26.999Z</time></trkpt><trkpt lat="37.98953687977336" lon="13.883793967330417"><ele>66.0</ele><time>2026-04-09T08:21:27.999Z</time></trkpt><trkpt lat="37.98946374902245" lon="13.883811149390457"><ele>66.0</ele><time>2026-04-09T08:21:28.999Z</time></trkpt><trkpt lat="37.9893831238994" lon="13.883831318216775"><ele>66.0</ele><time>2026-04-09T08:21:30.999Z</time></trkpt><trkpt lat="37.98931069286868" lon="13.883849437247953"><ele>66.0</ele><time>2026-04-09T08:21:34.999Z</time></trkpt><trkpt lat="37.989232039106376" lon="13.883896691871092"><ele>66.0</ele><time>2026-04-09T08:21:36.999Z</time></trkpt><trkpt lat="37.98914705476615" lon="13.883926699714605"><ele>66.0</ele><time>2026-04-09T08:21:37.999Z</time></trkpt><trkpt lat="37.989049056434446" lon="13.883954391778168"><ele>66.0</ele><time>2026-04-09T08:21:38.999Z</time></trkpt><trkpt lat="37.988915658085745" lon="13.883981823790602"><ele>66.2</ele><time>2026-04-09T08:21:39.999Z</time></trkpt><trkpt lat="37.98879139230471" lon="13.884020808510392"><ele>66.39999999999999</ele><time>2026-04-09T08:21:40.999Z</time></trkpt><trkpt lat="37.988679336108625" lon="13.884049651863531"><ele>66.6</ele><time>2026-04-09T08:21:41.999Z</time></trkpt><trkpt lat="37.9885754707356" lon="13.884067264302335"><ele>66.8</ele><time>2026-04-09T08:21:42.999Z</time></trkpt><trkpt lat="37.98849132243412" lon="13.88406680695755"><ele>67.0</ele><time>2026-04-09T08:21:43.999Z</time></trkpt><trkpt lat="37.988421873186795" lon="13.88404679186359"><ele>67.4</ele><time>2026-04-09T08:21:44.999Z</time></trkpt><trkpt lat="37.988330035682345" lon="13.883958105005489"><ele>67.80000000000001</ele><time>2026-04-09T08:21:46.999Z</time></trkpt><trkpt lat="37.9882902558458" lon="13.883891206005913"><ele>68.2</ele><time>2026-04-09T08:21:47.999Z</time></trkpt><trkpt lat="37.98827067006438" lon="13.883773174843483"><ele>68.60000000000001</ele><time>2026-04-09T08:21:48.999Z</time></trkpt><trkpt lat="37.98823415009985" lon="13.88362966365083"><ele>69.0</ele><time>2026-04-09T08:21:49.999Z</time></trkpt><trkpt lat="37.98816468860417" lon="13.88351968103973"><ele>69.0</ele><time>2026-04-09T08:21:50.999Z</time></trkpt><trkpt lat="37.98810616055827" lon="13.883415741795787"><ele>69.0</ele><time>2026-04-09T08:21:51.999Z</time></trkpt><trkpt lat="37.988045546371815" lon="13.883320002185807"><ele>69.0</ele><time>2026-04-09T08:21:52.999Z</time></trkpt><trkpt lat="37.98795839684473" lon="13.883267499613684"><ele>69.0</ele><time>2026-04-09T08:21:53.999Z</time></trkpt><trkpt lat="37.98786489640882" lon="13.883231301895949"><ele>69.0</ele><time>2026-04-09T08:21:54.999Z</time></trkpt><trkpt lat="37.9877788475238" lon="13.883196700195725"><ele>69.0</ele><time>2026-04-09T08:21:55.999Z</time></trkpt><trkpt lat="37.98770560810452" lon="13.88312562929348"><ele>69.0</ele><time>2026-04-09T08:21:56.999Z</time></trkpt><trkpt lat="37.987663657041196" lon="13.883047956059455"><ele>69.0</ele><time>2026-04-09T08:21:57.999Z</time></trkpt><trkpt lat="37.98759359261579" lon="13.882956049987135"><ele>69.0</ele><time>2026-04-09T08:21:59.999Z</time></trkpt><trkpt lat="37.98748775468291" lon="13.882930895432477"><ele>69.0</ele><time>2026-04-09T08:22:01.999Z</time></trkpt><trkpt lat="37.98740675291887" lon="13.882963281512318"><ele>70.0</ele><time>2026-04-09T08:22:02.999Z</time></trkpt><trkpt lat="37.987312298464516" lon="13.883036635750464"><ele>71.0</ele><time>2026-04-09T08:22:03.999Z</time></trkpt><trkpt lat="37.98720638443217" lon="13.883127318150347"><ele>72.0</ele><time>2026-04-09T08:22:04.999Z</time></trkpt><trkpt lat="37.98709034382314" lon="13.88322793828336"><ele>73.0</ele><time>2026-04-09T08:22:05.999Z</time></trkpt><trkpt lat="37.986941162938194" lon="13.883314726721137"><ele>72.66666666666666</ele><time>2026-04-09T08:22:06.999Z</time></trkpt><trkpt lat="37.9867805272672" lon="13.883431457420114"><ele>72.33333333333333</ele><time>2026-04-09T08:22:07.999Z</time></trkpt><trkpt lat="37.98663750338839" lon="13.883551795840807"><ele>72.0</ele><time>2026-04-09T08:22:08.999Z</time></trkpt><trkpt lat="37.98648642957159" lon="13.883655635024349"><ele>73.0</ele><time>2026-04-09T08:22:09.999Z</time></trkpt><trkpt lat="37.98636536482844" lon="13.883745717815636"><ele>74.0</ele><time>2026-04-09T08:22:10.999Z</time></trkpt><trkpt lat="37.98628438774083" lon="13.883808282930774"><ele>75.0</ele><time>2026-04-09T08:22:11.999Z</time></trkpt><trkpt lat="37.98617803077962" lon="13.883836168284127"><ele>76.0</ele><time>2026-04-09T08:22:13.999Z</time></trkpt><trkpt lat="37.986106320060976" lon="13.883861312204953"><ele>77.0</ele><time>2026-04-09T08:22:14.999Z</time></trkpt><trkpt lat="37.986023091350255" lon="13.883914489625429"><ele>77.0</ele><time>2026-04-09T08:22:15.999Z</time></trkpt><trkpt lat="37.985914525914524" lon="13.883949792776225"><ele>77.0</ele><time>2026-04-09T08:22:16.999Z</time></trkpt><trkpt lat="37.98579326794622" lon="13.883997841557894"><ele>77.0</ele><time>2026-04-09T08:22:17.999Z</time></trkpt><trkpt lat="37.98566190824642" lon="13.88405836050023"><ele>77.0</ele><time>2026-04-09T08:22:18.999Z</time></trkpt><trkpt lat="37.98551097450966" lon="13.884119462718225"><ele>78.75</ele><time>2026-04-09T08:22:19.999Z</time></trkpt><trkpt lat="37.98536020558076" lon="13.884178342286486"><ele>80.5</ele><time>2026-04-09T08:22:20.999Z</time></trkpt><trkpt lat="37.98523237410086" lon="13.884232267927516"><ele>82.25</ele><time>2026-04-09T08:22:21.999Z</time></trkpt><trkpt lat="37.98513593832038" lon="13.884264103470427"><ele>84.0</ele><time>2026-04-09T08:22:22.999Z</time></trkpt><trkpt lat="37.98504645484734" lon="13.884303412620614"><ele>84.0</ele><time>2026-04-09T08:22:24.999Z</time></trkpt><trkpt lat="37.985007457893914" lon="13.88447219157333"><ele>84.0</ele><time>2026-04-09T08:22:28.999Z</time></trkpt><trkpt lat="37.9850266210787" lon="13.884595790982546"><ele>84.0</ele><time>2026-04-09T08:22:29.999Z</time></trkpt><trkpt lat="37.98505759402718" lon="13.884737680910895"><ele>84.0</ele><time>2026-04-09T08:22:30.999Z</time></trkpt><trkpt lat="37.98508650900004" lon="13.884898600457353"><ele>84.0</ele><time>2026-04-09T08:22:31.999Z</time></trkpt><trkpt lat="37.985113357225686" lon="13.885042023646237"><ele>84.0</ele><time>2026-04-09T08:22:32.999Z</time></trkpt><trkpt lat="37.98513883062726" lon="13.885159703179141"><ele>84.0</ele><time>2026-04-09T08:22:33.999Z</time></trkpt><trkpt lat="37.98517903363712" lon="13.885277808149864"><ele>84.0</ele><time>2026-04-09T08:22:34.999Z</time></trkpt><trkpt lat="37.98521117724226" lon="13.885376672654608"><ele>84.0</ele><time>2026-04-09T08:22:35.999Z</time></trkpt><trkpt lat="37.98524346060576" lon="13.885507244558353"><ele>84.2</ele><time>2026-04-09T08:22:37.999Z</time></trkpt><trkpt lat="37.98525815548786" lon="13.885608742682512"><ele>84.4</ele><time>2026-04-09T08:22:39.999Z</time></trkpt><trkpt lat="37.985282763312654" lon="13.885716074951107"><ele>84.6</ele><time>2026-04-09T08:22:44.999Z</time></trkpt><trkpt lat="37.98523726530339" lon="13.885822751483294"><ele>84.8</ele><time>2026-04-09T08:22:47.999Z</time></trkpt><trkpt lat="37.98512005656497" lon="13.885893803085619"><ele>85.0</ele><time>2026-04-09T08:22:49.999Z</time></trkpt><trkpt lat="37.98502570913445" lon="13.885935865342155"><ele>84.75</ele><time>2026-04-09T08:22:50.999Z</time></trkpt><trkpt lat="37.98492966371796" lon="13.88600331689424"><ele>84.5</ele><time>2026-04-09T08:22:51.999Z</time></trkpt><trkpt lat="37.98480748549318" lon="13.886089037741455"><ele>84.25</ele><time>2026-04-09T08:22:52.998Z</time></trkpt><trkpt lat="37.984668423730696" lon="13.886206881265888"><ele>84.0</ele><time>2026-04-09T08:22:53.998Z</time></trkpt><trkpt lat="37.98451188785677" lon="13.886328088449787"><ele>84.0</ele><time>2026-04-09T08:22:54.998Z</time></trkpt><trkpt lat="37.98434210823708" lon="13.886488724294182"><ele>84.0</ele><time>2026-04-09T08:22:55.998Z</time></trkpt><trkpt lat="37.984165965137294" lon="13.886658337376023"><ele>84.0</ele><time>2026-04-09T08:22:56.998Z</time></trkpt><trkpt lat="37.98400212848309" lon="13.886814974442728"><ele>86.0</ele><time>2026-04-09T08:22:57.998Z</time></trkpt><trkpt lat="37.98386385668126" lon="13.886948782253539"><ele>88.0</ele><time>2026-04-09T08:22:58.998Z</time></trkpt><trkpt lat="37.983740479697516" lon="13.887092147542367"><ele>90.0</ele><time>2026-04-09T08:22:59.998Z</time></trkpt><trkpt lat="37.98362248264451" lon="13.887276336079138"><ele>90.0</ele><time>2026-04-09T08:23:00.998Z</time></trkpt><trkpt lat="37.98350899575954" lon="13.887505569117467"><ele>90.0</ele><time>2026-04-09T08:23:01.998Z</time></trkpt><trkpt lat="37.98339646330894" lon="13.887740018468918"><ele>90.0</ele><time>2026-04-09T08:23:02.998Z</time></trkpt><trkpt lat="37.983292071324456" lon="13.887949871462485"><ele>92.33333333333334</ele><time>2026-04-09T08:23:03.998Z</time></trkpt><trkpt lat="37.983201393967036" lon="13.888128093209083"><ele>94.66666666666667</ele><time>2026-04-09T08:23:04.998Z</time></trkpt><trkpt lat="37.98311090022343" lon="13.888288727324634"><ele>97.0</ele><time>2026-04-09T08:23:05.998Z</time></trkpt><trkpt lat="37.98299176394754" lon="13.888424169692193"><ele>95.0</ele><time>2026-04-09T08:23:06.998Z</time></trkpt><trkpt lat="37.982860997159236" lon="13.888549753440328"><ele>93.0</ele><time>2026-04-09T08:23:07.998Z</time></trkpt><trkpt lat="37.98271418004642" lon="13.888650128306423"><ele>91.0</ele><time>2026-04-09T08:23:08.998Z</time></trkpt><trkpt lat="37.98255621693877" lon="13.888723424718252"><ele>94.0</ele><time>2026-04-09T08:23:09.999Z</time></trkpt><trkpt lat="37.98238614541846" lon="13.888772781227773"><ele>97.0</ele><time>2026-04-09T08:23:10.999Z</time></trkpt><trkpt lat="37.982195101625315" lon="13.888800173422204"><ele>100.0</ele><time>2026-04-09T08:23:11.999Z</time></trkpt><trkpt lat="37.9819833315198" lon="13.888815928715584"><ele>100.0</ele><time>2026-04-09T08:23:12.999Z</time></trkpt><trkpt lat="37.98179094775844" lon="13.888827657652634"><ele>100.0</ele><time>2026-04-09T08:23:13.999Z</time></trkpt><trkpt lat="37.98163008808234" lon="13.888844467419787"><ele>100.0</ele><time>2026-04-09T08:23:14.999Z</time></trkpt><trkpt lat="37.98150576652568" lon="13.888902013577429"><ele>101.0</ele><time>2026-04-09T08:23:15.999Z</time></trkpt><trkpt lat="37.981395158577506" lon="13.88897174794328"><ele>102.0</ele><time>2026-04-09T08:23:16.999Z</time></trkpt><trkpt lat="37.98129967652538" lon="13.889081422651666"><ele>103.0</ele><time>2026-04-09T08:23:17.999Z</time></trkpt><trkpt lat="37.981230813569" lon="13.889241782578425"><ele>104.0</ele><time>2026-04-09T08:23:18.999Z</time></trkpt><trkpt lat="37.98117136633649" lon="13.889441105884872"><ele>104.0</ele><time>2026-04-09T08:23:19.999Z</time></trkpt><trkpt lat="37.981118956240614" lon="13.889667676494986"><ele>104.0</ele><time>2026-04-09T08:23:20.999Z</time></trkpt><trkpt lat="37.98105803413908" lon="13.889919593673758"><ele>104.0</ele><time>2026-04-09T08:23:21.999Z</time></trkpt><trkpt lat="37.981001883042815" lon="13.890199557878354"><ele>103.5</ele><time>2026-04-09T08:23:22.999Z</time></trkpt><trkpt lat="37.98096353096149" lon="13.890506169246256"><ele>103.0</ele><time>2026-04-09T08:23:23.999Z</time></trkpt><trkpt lat="37.98093742260809" lon="13.890794905963405"><ele>102.0</ele><time>2026-04-09T08:23:24.999Z</time></trkpt><trkpt lat="37.980897192344635" lon="13.891052467895582"><ele>101.0</ele><time>2026-04-09T08:23:25.999Z</time></trkpt><trkpt lat="37.980833647779846" lon="13.89130931295106"><ele>100.0</ele><time>2026-04-09T08:23:26.999Z</time></trkpt><trkpt lat="37.98075880684647" lon="13.891550275807651"><ele>106.0</ele><time>2026-04-09T08:23:27.999Z</time></trkpt><trkpt lat="37.980708336089634" lon="13.89176809994147"><ele>112.0</ele><time>2026-04-09T08:23:28.999Z</time></trkpt><trkpt lat="37.98068037971488" lon="13.89196749210475"><ele>118.0</ele><time>2026-04-09T08:23:29.999Z</time></trkpt><trkpt lat="37.98066709795059" lon="13.892140496345842"><ele>118.0</ele><time>2026-04-09T08:23:30.999Z</time></trkpt><trkpt lat="37.98061954962751" lon="13.892274109267161"><ele>118.00000000000001</ele><time>2026-04-09T08:23:31.999Z</time></trkpt><trkpt lat="37.980560544835136" lon="13.892376105408193"><ele>118.00000000000001</ele><time>2026-04-09T08:23:32.999Z</time></trkpt><trkpt lat="37.980472741962615" lon="13.892447594720473"><ele>118.0</ele><time>2026-04-09T08:23:33.999Z</time></trkpt><trkpt lat="37.98036960906217" lon="13.892487053686255"><ele>118.0</ele><time>2026-04-09T08:23:34.999Z</time></trkpt><trkpt lat="37.980255857289" lon="13.892481243266023"><ele>118.0</ele><time>2026-04-09T08:23:35.999Z</time></trkpt><trkpt lat="37.98012484666896" lon="13.892439278677513"><ele>118.0</ele><time>2026-04-09T08:23:36.999Z</time></trkpt><trkpt lat="37.97996581345571" lon="13.89238612034458"><ele>118.0</ele><time>2026-04-09T08:23:37.999Z</time></trkpt><trkpt lat="37.979781612957275" lon="13.8922997723391"><ele>121.0</ele><time>2026-04-09T08:23:38.999Z</time></trkpt><trkpt lat="37.97959864940156" lon="13.892203388789325"><ele>124.0</ele><time>2026-04-09T08:23:39.999Z</time></trkpt><trkpt lat="37.97944022560167" lon="13.892120162730736"><ele>127.0</ele><time>2026-04-09T08:23:40.999Z</time></trkpt><trkpt lat="37.97929944010154" lon="13.892082516404543"><ele>129.0</ele><time>2026-04-09T08:23:41.999Z</time></trkpt><trkpt lat="37.97916048299581" lon="13.892079380418782"><ele>131.0</ele><time>2026-04-09T08:23:42.999Z</time></trkpt><trkpt lat="37.97900317719568" lon="13.89212605204187"><ele>133.0</ele><time>2026-04-09T08:23:43.999Z</time></trkpt><trkpt lat="37.97883985660383" lon="13.892184113278566"><ele>133.0</ele><time>2026-04-09T08:23:44.999Z</time></trkpt><trkpt lat="37.97870458448787" lon="13.892238444064064"><ele>133.0</ele><time>2026-04-09T08:23:45.999Z</time></trkpt><trkpt lat="37.97857867502349" lon="13.892327318114724"><ele>133.0</ele><time>2026-04-09T08:23:46.999Z</time></trkpt><trkpt lat="37.978467339633546" lon="13.892482972061693"><ele>133.33333333333334</ele><time>2026-04-09T08:23:47.999Z</time></trkpt><trkpt lat="37.97836874368324" lon="13.892692732371147"><ele>133.66666666666666</ele><time>2026-04-09T08:23:48.999Z</time></trkpt><trkpt lat="37.97827667217056" lon="13.892887272136683"><ele>134.0</ele><time>2026-04-09T08:23:49.999Z</time></trkpt><trkpt lat="37.97818862737994" lon="13.893021280027776"><ele>134.0</ele><time>2026-04-09T08:23:50.999Z</time></trkpt><trkpt lat="37.978070700218055" lon="13.893080007175248"><ele>134.0</ele><time>2026-04-09T08:23:51.999Z</time></trkpt><trkpt lat="37.97793772981546" lon="13.893145052077065"><ele>134.0</ele><time>2026-04-09T08:23:52.999Z</time></trkpt><trkpt lat="37.97779211102223" lon="13.89322711311316"><ele>134.0</ele><time>2026-04-09T08:23:53.999Z</time></trkpt><trkpt lat="37.97766243276016" lon="13.893302084210333"><ele>130.0</ele><time>2026-04-09T08:23:54.999Z</time></trkpt><trkpt lat="37.977556757938686" lon="13.89342366511374"><ele>126.0</ele><time>2026-04-09T08:23:55.999Z</time></trkpt><trkpt lat="37.97747918658925" lon="13.893593572092865"><ele>122.0</ele><time>2026-04-09T08:23:56.999Z</time></trkpt><trkpt lat="37.97742382530202" lon="13.893814393786288"><ele>125.33333333333333</ele><time>2026-04-09T08:23:57.999Z</time></trkpt><trkpt lat="37.97738021265035" lon="13.894046535535804"><ele>128.66666666666666</ele><time>2026-04-09T08:23:58.999Z</time></trkpt><trkpt lat="37.977343132885345" lon="13.894226950098364"><ele>132.0</ele><time>2026-04-09T08:23:59.999Z</time></trkpt><trkpt lat="37.977303267971166" lon="13.894363421357719"><ele>132.0</ele><time>2026-04-09T08:24:00.999Z</time></trkpt><trkpt lat="37.97723558817269" lon="13.894456229389291"><ele>132.0</ele><time>2026-04-09T08:24:01.999Z</time></trkpt><trkpt lat="37.97716432006309" lon="13.894550197897939"><ele>132.0</ele><time>2026-04-09T08:24:02.999Z</time></trkpt><trkpt lat="37.97703770525627" lon="13.894588054988636"><ele>132.0</ele><time>2026-04-09T08:24:03.999Z</time></trkpt><trkpt lat="37.976889978030606" lon="13.894668647950441"><ele>132.0</ele><time>2026-04-09T08:24:04.999Z</time></trkpt><trkpt lat="37.97673195571659" lon="13.894683143613538"><ele>132.0</ele><time>2026-04-09T08:24:05.999Z</time></trkpt><trkpt lat="37.97659293203334" lon="13.894679684350738"><ele>132.0</ele><time>2026-04-09T08:24:06.999Z</time></trkpt><trkpt lat="37.9764435485714" lon="13.894652037060583"><ele>132.0</ele><time>2026-04-09T08:24:07.999Z</time></trkpt><trkpt lat="37.976297766623304" lon="13.894636768301337"><ele>135.75</ele><time>2026-04-09T08:24:08.999Z</time></trkpt><trkpt lat="37.976185206901654" lon="13.8946148592932"><ele>139.5</ele><time>2026-04-09T08:24:09.999Z</time></trkpt><trkpt lat="37.976078553581324" lon="13.894634977330178"><ele>143.25</ele><time>2026-04-09T08:24:10.999Z</time></trkpt><trkpt lat="37.97595776454608" lon="13.894683345983733"><ele>147.0</ele><time>2026-04-09T08:24:11.999Z</time></trkpt><trkpt lat="37.97582423440363" lon="13.894758315335835"><ele>150.66666666666666</ele><time>2026-04-09T08:24:12.999Z</time></trkpt><trkpt lat="37.97566550240733" lon="13.894848966854699"><ele>154.33333333333331</ele><time>2026-04-09T08:24:13.999Z</time></trkpt><trkpt lat="37.975478964693885" lon="13.894947447558538"><ele>158.0</ele><time>2026-04-09T08:24:14.999Z</time></trkpt><trkpt lat="37.97528127721072" lon="13.895052204508303"><ele>158.33333333333331</ele><time>2026-04-09T08:24:15.999Z</time></trkpt><trkpt lat="37.97506865005201" lon="13.895166416870047"><ele>158.66666666666666</ele><time>2026-04-09T08:24:16.999Z</time></trkpt><trkpt lat="37.97487615736997" lon="13.895257474908927"><ele>159.0</ele><time>2026-04-09T08:24:17.999Z</time></trkpt><trkpt lat="37.9747111056802" lon="13.895335606644215"><ele>159.0</ele><time>2026-04-09T08:24:18.999Z</time></trkpt><trkpt lat="37.97456125365195" lon="13.895447845043282"><ele>159.0</ele><time>2026-04-09T08:24:19.999Z</time></trkpt><trkpt lat="37.974406560480894" lon="13.895616445619728"><ele>159.0</ele><time>2026-04-09T08:24:20.999Z</time></trkpt><trkpt lat="37.97423434066616" lon="13.895821214210876"><ele>162.5</ele><time>2026-04-09T08:24:21.999Z</time></trkpt><trkpt lat="37.97405507579463" lon="13.896023885688054"><ele>166.0</ele><time>2026-04-09T08:24:22.999Z</time></trkpt><trkpt lat="37.97389261390877" lon="13.896202779012851"><ele>166.0</ele><time>2026-04-09T08:24:23.999Z</time></trkpt><trkpt lat="37.97376397766188" lon="13.89634143125619"><ele>166.0</ele><time>2026-04-09T08:24:24.999Z</time></trkpt><trkpt lat="37.973663357673715" lon="13.896455192376704"><ele>166.0</ele><time>2026-04-09T08:24:25.999Z</time></trkpt><trkpt lat="37.97355390606727" lon="13.896562338758594"><ele>166.0</ele><time>2026-04-09T08:24:26.999Z</time></trkpt><trkpt lat="37.973425650797616" lon="13.89665247645674"><ele>165.33333333333334</ele><time>2026-04-09T08:24:27.999Z</time></trkpt><trkpt lat="37.97327247506052" lon="13.896721327527233"><ele>164.66666666666666</ele><time>2026-04-09T08:24:28.999Z</time></trkpt><trkpt lat="37.973112075705366" lon="13.896733376058734"><ele>164.0</ele><time>2026-04-09T08:24:29.999Z</time></trkpt><trkpt lat="37.97292689445252" lon="13.89678610865525"><ele>164.0</ele><time>2026-04-09T08:24:30.999Z</time></trkpt><trkpt lat="37.97274569200465" lon="13.896810374433144"><ele>164.0</ele><time>2026-04-09T08:24:31.999Z</time></trkpt><trkpt lat="37.972591387786096" lon="13.896828270305221"><ele>164.0</ele><time>2026-04-09T08:24:32.999Z</time></trkpt><trkpt lat="37.97244559879421" lon="13.896865796943056"><ele>166.66666666666666</ele><time>2026-04-09T08:24:33.999Z</time></trkpt><trkpt lat="37.972289940812054" lon="13.896952292532594"><ele>169.33333333333334</ele><time>2026-04-09T08:24:34.999Z</time></trkpt><trkpt lat="37.97213774993553" lon="13.897062509858236"><ele>172.0</ele><time>2026-04-09T08:24:35.999Z</time></trkpt><trkpt lat="37.97200608533049" lon="13.897160046106094"><ele>172.0</ele><time>2026-04-09T08:24:36.999Z</time></trkpt><trkpt lat="37.971887808648646" lon="13.897260004892969"><ele>172.0</ele><time>2026-04-09T08:24:37.999Z</time></trkpt><trkpt lat="37.97179246416858" lon="13.897403338195975"><ele>172.0</ele><time>2026-04-09T08:24:38.999Z</time></trkpt><trkpt lat="37.97172395077981" lon="13.897583488728797"><ele>172.0</ele><time>2026-04-09T08:24:39.999Z</time></trkpt><trkpt lat="37.971673291048994" lon="13.897757829949422"><ele>174.0</ele><time>2026-04-09T08:24:40.999Z</time></trkpt><trkpt lat="37.971604351165354" lon="13.897902764969546"><ele>176.0</ele><time>2026-04-09T08:24:41.999Z</time></trkpt><trkpt lat="37.97151549329559" lon="13.898001334210209"><ele>178.0</ele><time>2026-04-09T08:24:42.999Z</time></trkpt><trkpt lat="37.97140163876586" lon="13.89808280963578"><ele>180.0</ele><time>2026-04-09T08:24:43.999Z</time></trkpt><trkpt lat="37.97124858474717" lon="13.898127331866679"><ele>180.0</ele><time>2026-04-09T08:24:44.999Z</time></trkpt><trkpt lat="37.97111124859682" lon="13.89819627274747"><ele>180.0</ele><time>2026-04-09T08:24:45.999Z</time></trkpt><trkpt lat="37.970991459131525" lon="13.898241456158535"><ele>180.0</ele><time>2026-04-09T08:24:46.999Z</time></trkpt><trkpt lat="37.970863708342215" lon="13.898252966112766"><ele>180.0</ele><time>2026-04-09T08:24:47.999Z</time></trkpt><trkpt lat="37.97072726670252" lon="13.898219238316726"><ele>184.0</ele><time>2026-04-09T08:24:48.999Z</time></trkpt><trkpt lat="37.97055661255784" lon="13.898183096103192"><ele>188.0</ele><time>2026-04-09T08:24:49.999Z</time></trkpt><trkpt lat="37.970396636853756" lon="13.898193747515714"><ele>192.0</ele><time>2026-04-09T08:24:50.999Z</time></trkpt><trkpt lat="37.97024671242814" lon="13.898202508785182"><ele>192.0</ele><time>2026-04-09T08:24:51.999Z</time></trkpt><trkpt lat="37.97010766845667" lon="13.898264306882046"><ele>192.0</ele><time>2026-04-09T08:24:52.999Z</time></trkpt><trkpt lat="37.96998185798599" lon="13.89838436362435"><ele>192.0</ele><time>2026-04-09T08:24:53.999Z</time></trkpt><trkpt lat="37.96986658499296" lon="13.898569270061747"><ele>192.0</ele><time>2026-04-09T08:24:54.999Z</time></trkpt><trkpt lat="37.9697572348703" lon="13.898809336146403"><ele>192.0</ele><time>2026-04-09T08:24:55.999Z</time></trkpt><trkpt lat="37.96965966901106" lon="13.899056385693239"><ele>192.0</ele><time>2026-04-09T08:24:56.998Z</time></trkpt><trkpt lat="37.96957699242997" lon="13.899255649067811"><ele>189.0</ele><time>2026-04-09T08:24:57.998Z</time></trkpt><trkpt lat="37.96950252621616" lon="13.899397016730594"><ele>186.0</ele><time>2026-04-09T08:24:58.998Z</time></trkpt><trkpt lat="37.9694267006901" lon="13.899509071324642"><ele>183.0</ele><time>2026-04-09T08:24:59.998Z</time></trkpt><trkpt lat="37.96932764230997" lon="13.899543279964295"><ele>180.0</ele><time>2026-04-09T08:25:00.998Z</time></trkpt><trkpt lat="37.96922979324938" lon="13.899573483311837"><ele>183.75</ele><time>2026-04-09T08:25:01.998Z</time></trkpt><trkpt lat="37.969123411652006" lon="13.899586315100455"><ele>187.5</ele><time>2026-04-09T08:25:02.998Z</time></trkpt><trkpt lat="37.96902837895632" lon="13.899547339464416"><ele>191.25</ele><time>2026-04-09T08:25:03.998Z</time></trkpt><trkpt lat="37.96892530847594" lon="13.899482849964455"><ele>195.0</ele><time>2026-04-09T08:25:04.998Z</time></trkpt><trkpt lat="37.96879514837038" lon="13.899390007469021"><ele>195.0</ele><time>2026-04-09T08:25:05.998Z</time></trkpt><trkpt lat="37.96863136385664" lon="13.899277984409824"><ele>195.0</ele><time>2026-04-09T08:25:06.998Z</time></trkpt><trkpt lat="37.968451233889354" lon="13.899157767544764"><ele>195.0</ele><time>2026-04-09T08:25:07.998Z</time></trkpt><trkpt lat="37.96828804974874" lon="13.89905742776174"><ele>200.33333333333331</ele><time>2026-04-09T08:25:08.998Z</time></trkpt><trkpt lat="37.968113997463156" lon="13.898993102229657"><ele>205.66666666666666</ele><time>2026-04-09T08:25:09.998Z</time></trkpt><trkpt lat="37.96793348204751" lon="13.89892629285871"><ele>211.0</ele><time>2026-04-09T08:25:10.998Z</time></trkpt><trkpt lat="37.96774730298142" lon="13.898881837385723"><ele>211.0</ele><time>2026-04-09T08:25:11.998Z</time></trkpt><trkpt lat="37.967539408832195" lon="13.89887965426412"><ele>211.0</ele><time>2026-04-09T08:25:12.998Z</time></trkpt><trkpt lat="37.96732810284648" lon="13.898920053181001"><ele>211.0</ele><time>2026-04-09T08:25:13.998Z</time></trkpt><trkpt lat="37.96714567276348" lon="13.898958411181958"><ele>213.33333333333331</ele><time>2026-04-09T08:25:14.998Z</time></trkpt><trkpt lat="37.966981445809715" lon="13.898988171064504"><ele>215.66666666666669</ele><time>2026-04-09T08:25:16Z</time></trkpt><trkpt lat="37.96683368168451" lon="13.899058908345655"><ele>218.0</ele><time>2026-04-09T08:25:17Z</time></trkpt><trkpt lat="37.96671425253239" lon="13.899176484344087"><ele>217.75</ele><time>2026-04-09T08:25:18Z</time></trkpt><trkpt lat="37.966631285603476" lon="13.899312920462759"><ele>217.5</ele><time>2026-04-09T08:25:19Z</time></trkpt><trkpt lat="37.966556824572095" lon="13.89946249573351"><ele>217.25</ele><time>2026-04-09T08:25:20Z</time></trkpt><trkpt lat="37.966472085121616" lon="13.899640798691033"><ele>217.0</ele><time>2026-04-09T08:25:21Z</time></trkpt><trkpt lat="37.96636233148316" lon="13.899843599503832"><ele>217.0</ele><time>2026-04-09T08:25:22Z</time></trkpt><trkpt lat="37.966239317067554" lon="13.9000597270673"><ele>217.0</ele><time>2026-04-09T08:25:23Z</time></trkpt><trkpt lat="37.966097473156616" lon="13.90029804637289"><ele>217.0</ele><time>2026-04-09T08:25:24Z</time></trkpt><trkpt lat="37.96595328350258" lon="13.9005443668905"><ele>219.0</ele><time>2026-04-09T08:25:25Z</time></trkpt><trkpt lat="37.96582474907913" lon="13.900762458500363"><ele>221.0</ele><time>2026-04-09T08:25:26Z</time></trkpt><trkpt lat="37.96571060586505" lon="13.900956651384357"><ele>223.0</ele><time>2026-04-09T08:25:27Z</time></trkpt><trkpt lat="37.9656169761807" lon="13.901131265905981"><ele>223.0</ele><time>2026-04-09T08:25:28Z</time></trkpt><trkpt lat="37.96550358720202" lon="13.90125227943294"><ele>223.0</ele><time>2026-04-09T08:25:29Z</time></trkpt><trkpt lat="37.965399507287074" lon="13.901338572371827"><ele>223.0</ele><time>2026-04-09T08:25:30Z</time></trkpt><trkpt lat="37.965286924674686" lon="13.901384246377365"><ele>223.0</ele><time>2026-04-09T08:25:31Z</time></trkpt><trkpt lat="37.96516356717999" lon="13.901401111192712"><ele>225.66666666666666</ele><time>2026-04-09T08:25:32Z</time></trkpt><trkpt lat="37.96500369817415" lon="13.901416982856286"><ele>228.33333333333331</ele><time>2026-04-09T08:25:33Z</time></trkpt><trkpt lat="37.964807857915396" lon="13.9014331239014"><ele>231.0</ele><time>2026-04-09T08:25:33.999Z</time></trkpt><trkpt lat="37.96459842703696" lon="13.901448373247423"><ele>231.0</ele><time>2026-04-09T08:25:34.999Z</time></trkpt><trkpt lat="37.96438313352349" lon="13.901465297346776"><ele>231.0</ele><time>2026-04-09T08:25:35.999Z</time></trkpt><trkpt lat="37.96420251600052" lon="13.90148417023211"><ele>231.0</ele><time>2026-04-09T08:25:36.999Z</time></trkpt><trkpt lat="37.964040634395616" lon="13.901515305313705"><ele>229.33333333333331</ele><time>2026-04-09T08:25:37.999Z</time></trkpt><trkpt lat="37.96386690235088" lon="13.901575071819432"><ele>227.66666666666666</ele><time>2026-04-09T08:25:38.999Z</time></trkpt><trkpt lat="37.96368576360573" lon="13.901692927060337"><ele>226.0</ele><time>2026-04-09T08:25:39.999Z</time></trkpt><trkpt lat="37.96352107175075" lon="13.901821453240158"><ele>226.0</ele><time>2026-04-09T08:25:40.999Z</time></trkpt><trkpt lat="37.96337061357164" lon="13.901905674435906"><ele>226.0</ele><time>2026-04-09T08:25:41.999Z</time></trkpt><trkpt lat="37.96324147611565" lon="13.90196856323007"><ele>226.0</ele><time>2026-04-09T08:25:42.999Z</time></trkpt><trkpt lat="37.963117487206084" lon="13.901973096606795"><ele>226.0</ele><time>2026-04-09T08:25:43.999Z</time></trkpt><trkpt lat="37.962977490483695" lon="13.901959972336781"><ele>229.33333333333331</ele><time>2026-04-09T08:25:44.999Z</time></trkpt><trkpt lat="37.96279231701387" lon="13.901938752699646"><ele>232.66666666666669</ele><time>2026-04-09T08:25:45.999Z</time></trkpt><trkpt lat="37.96256707614405" lon="13.901911164794331"><ele>236.0</ele><time>2026-04-09T08:25:46.999Z</time></trkpt><trkpt lat="37.96232336457085" lon="13.901883281188931"><ele>241.0</ele><time>2026-04-09T08:25:47.999Z</time></trkpt><trkpt lat="37.962049922837735" lon="13.901851526547263"><ele>246.0</ele><time>2026-04-09T08:25:48.999Z</time></trkpt><trkpt lat="37.9617878262203" lon="13.901820035658572"><ele>249.0</ele><time>2026-04-09T08:25:49.999Z</time></trkpt><trkpt lat="37.96154666546353" lon="13.9017910602024"><ele>252.0</ele><time>2026-04-09T08:25:50.999Z</time></trkpt><trkpt lat="37.96132008004761" lon="13.901770481688002"><ele>252.0</ele><time>2026-04-09T08:25:51.999Z</time></trkpt><trkpt lat="37.96111995812758" lon="13.901750577390407"><ele>252.0</ele><time>2026-04-09T08:25:52.999Z</time></trkpt><trkpt lat="37.96094227669078" lon="13.901721534552967"><ele>252.0</ele><time>2026-04-09T08:25:53.999Z</time></trkpt><trkpt lat="37.96078218265304" lon="13.901654263172833"><ele>254.66666666666669</ele><time>2026-04-09T08:25:54.999Z</time></trkpt><trkpt lat="37.960593448004644" lon="13.901558746297123"><ele>257.33333333333337</ele><time>2026-04-09T08:25:55.999Z</time></trkpt><trkpt lat="37.96040148919274" lon="13.90147011982593"><ele>260.0</ele><time>2026-04-09T08:25:56.999Z</time></trkpt><trkpt lat="37.9602404855251" lon="13.90140201471118"><ele>260.0</ele><time>2026-04-09T08:25:57.999Z</time></trkpt><trkpt lat="37.96009611336236" lon="13.901368824746907"><ele>260.0</ele><time>2026-04-09T08:25:58.999Z</time></trkpt><trkpt lat="37.9599606998212" lon="13.901342438213197"><ele>260.0</ele><time>2026-04-09T08:25:59.999Z</time></trkpt><trkpt lat="37.95981771867518" lon="13.901372582699484"><ele>260.0</ele><time>2026-04-09T08:26:00.999Z</time></trkpt><trkpt lat="37.95966973635961" lon="13.901448482467202"><ele>261.0</ele><time>2026-04-09T08:26:01.999Z</time></trkpt><trkpt lat="37.95950347308433" lon="13.901549887491738"><ele>262.0</ele><time>2026-04-09T08:26:02.999Z</time></trkpt><trkpt lat="37.95931666909733" lon="13.90163418260461"><ele>263.0</ele><time>2026-04-09T08:26:03.999Z</time></trkpt><trkpt lat="37.959104431900414" lon="13.90171469443213"><ele>262.0</ele><time>2026-04-09T08:26:04.999Z</time></trkpt><trkpt lat="37.95888897857763" lon="13.901806787979883"><ele>261.0</ele><time>2026-04-09T08:26:05.999Z</time></trkpt><trkpt lat="37.95869311273805" lon="13.901885785168096"><ele>260.0</ele><time>2026-04-09T08:26:06.999Z</time></trkpt><trkpt lat="37.95851738616591" lon="13.901960008306698"><ele>265.0</ele><time>2026-04-09T08:26:07.999Z</time></trkpt><trkpt lat="37.958338070127546" lon="13.902083032119558"><ele>270.0</ele><time>2026-04-09T08:26:08.999Z</time></trkpt><trkpt lat="37.95815759064574" lon="13.9022360922949"><ele>275.0</ele><time>2026-04-09T08:26:09.999Z</time></trkpt><trkpt lat="37.957965191458975" lon="13.902390353432244"><ele>275.0</ele><time>2026-04-09T08:26:10.999Z</time></trkpt><trkpt lat="37.9577853017376" lon="13.902527413062236"><ele>275.0</ele><time>2026-04-09T08:26:11.999Z</time></trkpt><trkpt lat="37.95766262352203" lon="13.9026372477574"><ele>275.0</ele><time>2026-04-09T08:26:12.999Z</time></trkpt><trkpt lat="37.957590729502996" lon="13.902727718808372"><ele>277.4</ele><time>2026-04-09T08:26:13.999Z</time></trkpt><trkpt lat="37.95751957490793" lon="13.902820748248585"><ele>279.8</ele><time>2026-04-09T08:26:14.999Z</time></trkpt><trkpt lat="37.957465998811806" lon="13.902936051443557"><ele>282.2</ele><time>2026-04-09T08:26:15.999Z</time></trkpt><trkpt lat="37.95742707981568" lon="13.90307174288865"><ele>284.6</ele><time>2026-04-09T08:26:16.999Z</time></trkpt><trkpt lat="37.957417776940616" lon="13.903214178230119"><ele>287.0</ele><time>2026-04-09T08:26:17.999Z</time></trkpt><trkpt lat="37.95744696636064" lon="13.903367478441329"><ele>288.6666666666667</ele><time>2026-04-09T08:26:18.999Z</time></trkpt><trkpt lat="37.957515334515335" lon="13.903535197143913"><ele>290.3333333333333</ele><time>2026-04-09T08:26:19.999Z</time></trkpt><trkpt lat="37.957608495391824" lon="13.903710661753683"><ele>292.0</ele><time>2026-04-09T08:26:20.999Z</time></trkpt><trkpt lat="37.9576831634693" lon="13.903868515327263"><ele>287.66666666666663</ele><time>2026-04-09T08:26:21.999Z</time></trkpt><trkpt lat="37.95772718889384" lon="13.904040522296166"><ele>283.3333333333333</ele><time>2026-04-09T08:26:22.999Z</time></trkpt><trkpt lat="37.95774463478838" lon="13.904236764528532"><ele>279.0</ele><time>2026-04-09T08:26:23.999Z</time></trkpt><trkpt lat="37.95774825017747" lon="13.904461508105086"><ele>279.0</ele><time>2026-04-09T08:26:24.999Z</time></trkpt><trkpt lat="37.9577594390688" lon="13.904668835591435"><ele>279.0</ele><time>2026-04-09T08:26:25.999Z</time></trkpt><trkpt lat="37.95776274912602" lon="13.904839627629158"><ele>279.0</ele><time>2026-04-09T08:26:26.999Z</time></trkpt><trkpt lat="37.95779991264968" lon="13.905001556513817"><ele>279.0</ele><time>2026-04-09T08:26:27.999Z</time></trkpt><trkpt lat="37.95787843599554" lon="13.905154955944917"><ele>281.0</ele><time>2026-04-09T08:26:28.999Z</time></trkpt><trkpt lat="37.95795959025088" lon="13.905282163647227"><ele>283.0</ele><time>2026-04-09T08:26:29.999Z</time></trkpt><trkpt lat="37.95800968422204" lon="13.905420807183978"><ele>285.0</ele><time>2026-04-09T08:26:30.999Z</time></trkpt><trkpt lat="37.958020747343646" lon="13.905582746469896"><ele>287.0</ele><time>2026-04-09T08:26:31.999Z</time></trkpt><trkpt lat="37.95800510052106" lon="13.90575011435398"><ele>287.0</ele><time>2026-04-09T08:26:32.999Z</time></trkpt><trkpt lat="37.95796227290652" lon="13.905906468559035"><ele>287.0</ele><time>2026-04-09T08:26:33.999Z</time></trkpt><trkpt lat="37.957893721849906" lon="13.906049364961689"><ele>287.0</ele><time>2026-04-09T08:26:34.999Z</time></trkpt><trkpt lat="37.95780294956585" lon="13.906161993103355"><ele>287.0</ele><time>2026-04-09T08:26:35.999Z</time></trkpt><trkpt lat="37.95769326028514" lon="13.906249113417436"><ele>286.0</ele><time>2026-04-09T08:26:36.999Z</time></trkpt><trkpt lat="37.95756139332482" lon="13.90630818737266"><ele>285.0</ele><time>2026-04-09T08:26:37.999Z</time></trkpt><trkpt lat="37.95740610284773" lon="13.906363269691235"><ele>284.0</ele><time>2026-04-09T08:26:38.999Z</time></trkpt><trkpt lat="37.95721952098823" lon="13.906391219894193"><ele>288.0</ele><time>2026-04-09T08:26:39.999Z</time></trkpt><trkpt lat="37.957014389844495" lon="13.906473405553667"><ele>292.0</ele><time>2026-04-09T08:26:40.999Z</time></trkpt><trkpt lat="37.95678200885664" lon="13.906520433325346"><ele>296.0</ele><time>2026-04-09T08:26:41.999Z</time></trkpt><trkpt lat="37.95654125060635" lon="13.906589050738685"><ele>300.0</ele><time>2026-04-09T08:26:42.999Z</time></trkpt><trkpt lat="37.956267015728535" lon="13.90666703204"><ele>301.5</ele><time>2026-04-09T08:26:43.999Z</time></trkpt><trkpt lat="37.956009808558235" lon="13.90674675429255"><ele>303.0</ele><time>2026-04-09T08:26:44.999Z</time></trkpt><trkpt lat="37.95578274701269" lon="13.906818423743381"><ele>303.0</ele><time>2026-04-09T08:26:45.999Z</time></trkpt><trkpt lat="37.955593573562616" lon="13.906890203706084"><ele>303.0</ele><time>2026-04-09T08:26:46.999Z</time></trkpt><trkpt lat="37.95542673897007" lon="13.906934548095942"><ele>303.0</ele><time>2026-04-09T08:26:47.999Z</time></trkpt><trkpt lat="37.95530334093669" lon="13.906984340117392"><ele>303.0</ele><time>2026-04-09T08:26:48.999Z</time></trkpt><trkpt lat="37.95519978488447" lon="13.907050049833916"><ele>303.0</ele><time>2026-04-09T08:26:49.999Z</time></trkpt><trkpt lat="37.95510869387131" lon="13.90715672592664"><ele>303.0</ele><time>2026-04-09T08:26:50.999Z</time></trkpt><trkpt lat="37.955036896315555" lon="13.907312679561084"><ele>303.0</ele><time>2026-04-09T08:26:51.999Z</time></trkpt><trkpt lat="37.95499511545941" lon="13.907485283668356"><ele>303.6666666666667</ele><time>2026-04-09T08:26:52.999Z</time></trkpt><trkpt lat="37.955002182330624" lon="13.90767780581026"><ele>304.33333333333337</ele><time>2026-04-09T08:26:53.999Z</time></trkpt><trkpt lat="37.95504193624825" lon="13.907866740262316"><ele>305.0</ele><time>2026-04-09T08:26:54.999Z</time></trkpt><trkpt lat="37.95512248252844" lon="13.908038547548047"><ele>305.0</ele><time>2026-04-09T08:26:55.999Z</time></trkpt><trkpt lat="37.95524125597732" lon="13.908205613234358"><ele>305.0</ele><time>2026-04-09T08:26:56.999Z</time></trkpt><trkpt lat="37.95537011793037" lon="13.908394571547301"><ele>305.0</ele><time>2026-04-09T08:26:57.999Z</time></trkpt><trkpt lat="37.95548386159224" lon="13.908579513908206"><ele>306.5</ele><time>2026-04-09T08:26:58.999Z</time></trkpt><trkpt lat="37.95556834219411" lon="13.908730919990298"><ele>308.0</ele><time>2026-04-09T08:26:59.999Z</time></trkpt><trkpt lat="37.95562905480386" lon="13.908872040144848"><ele>309.5</ele><time>2026-04-09T08:27:00.999Z</time></trkpt><trkpt lat="37.95566581029952" lon="13.909038654167853"><ele>311.0</ele><time>2026-04-09T08:27:01.999Z</time></trkpt><trkpt lat="37.95566334131365" lon="13.90923217344338"><ele>311.0</ele><time>2026-04-09T08:27:02.999Z</time></trkpt><trkpt lat="37.955631137770695" lon="13.909432139812658"><ele>311.0</ele><time>2026-04-09T08:27:03.998Z</time></trkpt><trkpt lat="37.95557318801029" lon="13.90965707240042"><ele>311.0</ele><time>2026-04-09T08:27:04.998Z</time></trkpt><trkpt lat="37.95550828014803" lon="13.909917818492918"><ele>312.6666666666667</ele><time>2026-04-09T08:27:05.998Z</time></trkpt><trkpt lat="37.95544243880767" lon="13.91019191497514"><ele>314.3333333333333</ele><time>2026-04-09T08:27:06.998Z</time></trkpt><trkpt lat="37.955381300020136" lon="13.910460027915859"><ele>316.0</ele><time>2026-04-09T08:27:07.998Z</time></trkpt><trkpt lat="37.9553272136945" lon="13.910693219733554"><ele>316.0</ele><time>2026-04-09T08:27:08.998Z</time></trkpt><trkpt lat="37.95528111505049" lon="13.910898953076085"><ele>316.0</ele><time>2026-04-09T08:27:09.998Z</time></trkpt><trkpt lat="37.95524749119674" lon="13.911080738180308"><ele>316.0</ele><time>2026-04-09T08:27:10.998Z</time></trkpt><trkpt lat="37.95520715980777" lon="13.91122897105953"><ele>316.0</ele><time>2026-04-09T08:27:11.998Z</time></trkpt><trkpt lat="37.95513008678952" lon="13.911327556741178"><ele>317.0</ele><time>2026-04-09T08:27:12.998Z</time></trkpt><trkpt lat="37.95504384820105" lon="13.911412832769791"><ele>318.0</ele><time>2026-04-09T08:27:13.998Z</time></trkpt><trkpt lat="37.95494186975023" lon="13.911459551128187"><ele>319.0</ele><time>2026-04-09T08:27:14.998Z</time></trkpt><trkpt lat="37.95482767356126" lon="13.911500244001157"><ele>320.0</ele><time>2026-04-09T08:27:15.998Z</time></trkpt><trkpt lat="37.95468402688736" lon="13.911515797749125"><ele>322.33333333333337</ele><time>2026-04-09T08:27:16.998Z</time></trkpt><trkpt lat="37.95451151533669" lon="13.91156548125044"><ele>324.6666666666667</ele><time>2026-04-09T08:27:17.998Z</time></trkpt><trkpt lat="37.95431343413654" lon="13.91160078456323"><ele>327.0</ele><time>2026-04-09T08:27:18.998Z</time></trkpt><trkpt lat="37.95410382633189" lon="13.911635730314357"><ele>329.3333333333333</ele><time>2026-04-09T08:27:19.998Z</time></trkpt><trkpt lat="37.95388904199391" lon="13.91167117304145"><ele>331.66666666666663</ele><time>2026-04-09T08:27:20.998Z</time></trkpt><trkpt lat="37.95369412720418" lon="13.911696576767975"><ele>334.0</ele><time>2026-04-09T08:27:22Z</time></trkpt><trkpt lat="37.95351138028745" lon="13.91173345543094"><ele>333.66666666666663</ele><time>2026-04-09T08:27:23Z</time></trkpt><trkpt lat="37.95334024146491" lon="13.9118006520727"><ele>333.3333333333333</ele><time>2026-04-09T08:27:24Z</time></trkpt><trkpt lat="37.95319002667533" lon="13.911880624443521"><ele>333.0</ele><time>2026-04-09T08:27:25Z</time></trkpt><trkpt lat="37.95305096907844" lon="13.91198151048838"><ele>333.0</ele><time>2026-04-09T08:27:26Z</time></trkpt><trkpt lat="37.95289515532327" lon="13.912119540556517"><ele>333.0</ele><time>2026-04-09T08:27:27Z</time></trkpt><trkpt lat="37.95271650796165" lon="13.912259483966134"><ele>333.0</ele><time>2026-04-09T08:27:28Z</time></trkpt><trkpt lat="37.95256737169783" lon="13.912379994995142"><ele>335.5</ele><time>2026-04-09T08:27:29Z</time></trkpt><trkpt lat="37.952448932840525" lon="13.912480650365076"><ele>338.0</ele><time>2026-04-09T08:27:30Z</time></trkpt><trkpt lat="37.952359020281925" lon="13.912596300699223"><ele>340.5</ele><time>2026-04-09T08:27:31Z</time></trkpt><trkpt lat="37.95229611771731" lon="13.912734760873708"><ele>343.0</ele><time>2026-04-09T08:27:32Z</time></trkpt><trkpt lat="37.95225819517458" lon="13.912910585986015"><ele>343.0</ele><time>2026-04-09T08:27:33Z</time></trkpt><trkpt lat="37.952230640788976" lon="13.913123907239052"><ele>343.0</ele><time>2026-04-09T08:27:34Z</time></trkpt><trkpt lat="37.95220606059948" lon="13.913313028938122"><ele>343.0</ele><time>2026-04-09T08:27:35Z</time></trkpt><trkpt lat="37.95217561353533" lon="13.913469974035822"><ele>343.0</ele><time>2026-04-09T08:27:36Z</time></trkpt><trkpt lat="37.952125188932065" lon="13.913621289283064"><ele>342.66666666666663</ele><time>2026-04-09T08:27:37Z</time></trkpt><trkpt lat="37.952031322869885" lon="13.913757414168938"><ele>342.3333333333333</ele><time>2026-04-09T08:27:38Z</time></trkpt><trkpt lat="37.951934503206864" lon="13.913921463713027"><ele>342.0</ele><time>2026-04-09T08:27:39Z</time></trkpt><trkpt lat="37.95181807204249" lon="13.914074710378342"><ele>342.0</ele><time>2026-04-09T08:27:40Z</time></trkpt><trkpt lat="37.95172074038915" lon="13.914211178003018"><ele>342.0</ele><time>2026-04-09T08:27:41Z</time></trkpt><trkpt lat="37.95162374717465" lon="13.914294315866355"><ele>342.0</ele><time>2026-04-09T08:27:42Z</time></trkpt><trkpt lat="37.95152222455889" lon="13.914346113770984"><ele>342.0</ele><time>2026-04-09T08:27:43Z</time></trkpt><trkpt lat="37.951404934140115" lon="13.914360087102047"><ele>345.0</ele><time>2026-04-09T08:27:43.999Z</time></trkpt><trkpt lat="37.951285198942465" lon="13.914345654829061"><ele>348.0</ele><time>2026-04-09T08:27:44.999Z</time></trkpt><trkpt lat="37.95118268970834" lon="13.914305304089085"><ele>351.0</ele><time>2026-04-09T08:27:45.999Z</time></trkpt><trkpt lat="37.95106838692885" lon="13.914222547397399"><ele>354.0</ele><time>2026-04-09T08:27:46.999Z</time></trkpt><trkpt lat="37.95092319558863" lon="13.914111958469153"><ele>355.6666666666667</ele><time>2026-04-09T08:27:47.999Z</time></trkpt><trkpt lat="37.95075080247899" lon="13.913988161612385"><ele>357.33333333333337</ele><time>2026-04-09T08:27:48.999Z</time></trkpt><trkpt lat="37.9505732793552" lon="13.913854137879975"><ele>359.0</ele><time>2026-04-09T08:27:49.999Z</time></trkpt><trkpt lat="37.950418526237634" lon="13.913739224668978"><ele>359.0</ele><time>2026-04-09T08:27:50.999Z</time></trkpt><trkpt lat="37.95027460193826" lon="13.913657741099478"><ele>359.0</ele><time>2026-04-09T08:27:51.999Z</time></trkpt><trkpt lat="37.950130529966266" lon="13.913566037367499"><ele>359.0</ele><time>2026-04-09T08:27:52.999Z</time></trkpt><trkpt lat="37.94996666684231" lon="13.913493744359211"><ele>357.33333333333337</ele><time>2026-04-09T08:27:53.999Z</time></trkpt><trkpt lat="37.94977269996078" lon="13.913441628422467"><ele>355.6666666666667</ele><time>2026-04-09T08:27:54.999Z</time></trkpt><trkpt lat="37.9495658985624" lon="13.913408585764243"><ele>354.0</ele><time>2026-04-09T08:27:55.999Z</time></trkpt><trkpt lat="37.949348683457075" lon="13.913388318044479"><ele>357.0</ele><time>2026-04-09T08:27:57Z</time></trkpt><trkpt lat="37.94915191023506" lon="13.9133685932796"><ele>360.0</ele><time>2026-04-09T08:27:58Z</time></trkpt><trkpt lat="37.948983098356216" lon="13.913350321236706"><ele>363.0</ele><time>2026-04-09T08:27:59Z</time></trkpt><trkpt lat="37.94881919361147" lon="13.913366642914694"><ele>360.0</ele><time>2026-04-09T08:28:00Z</time></trkpt><trkpt lat="37.94866781494109" lon="13.9134167432815"><ele>357.0</ele><time>2026-04-09T08:28:01Z</time></trkpt><trkpt lat="37.948531128357395" lon="13.913498411405135"><ele>354.0</ele><time>2026-04-09T08:28:02Z</time></trkpt><trkpt lat="37.94840888773618" lon="13.913605805178385"><ele>356.6666666666667</ele><time>2026-04-09T08:28:03Z</time></trkpt><trkpt lat="37.948295450687745" lon="13.913756818903503"><ele>359.33333333333337</ele><time>2026-04-09T08:28:04Z</time></trkpt><trkpt lat="37.9481895316701" lon="13.913918271198035"><ele>362.0</ele><time>2026-04-09T08:28:05Z</time></trkpt><trkpt lat="37.94809859346008" lon="13.914037114203442"><ele>362.0</ele><time>2026-04-09T08:28:06Z</time></trkpt><trkpt lat="37.94800292124785" lon="13.914082854350657"><ele>362.0</ele><time>2026-04-09T08:28:07Z</time></trkpt><trkpt lat="37.94790817307395" lon="13.914090213104338"><ele>362.0</ele><time>2026-04-09T08:28:08Z</time></trkpt><trkpt lat="37.94781384265233" lon="13.91407132659808"><ele>362.0</ele><time>2026-04-09T08:28:09Z</time></trkpt><trkpt lat="37.94771359367512" lon="13.914035295551145"><ele>362.0</ele><time>2026-04-09T08:28:10Z</time></trkpt><trkpt lat="37.94764215614259" lon="13.913934361367176"><ele>362.0</ele><time>2026-04-09T08:28:11Z</time></trkpt><trkpt lat="37.94758836932129" lon="13.913821260204829"><ele>362.0</ele><time>2026-04-09T08:28:12Z</time></trkpt><trkpt lat="37.947530420012015" lon="13.913670746077571"><ele>362.0</ele><time>2026-04-09T08:28:13Z</time></trkpt><trkpt lat="37.94745844821646" lon="13.913471964106765"><ele>362.0</ele><time>2026-04-09T08:28:14Z</time></trkpt><trkpt lat="37.94738352646465" lon="13.913260451787895"><ele>364.25</ele><time>2026-04-09T08:28:15Z</time></trkpt><trkpt lat="37.9472899895077" lon="13.913085832828491"><ele>366.5</ele><time>2026-04-09T08:28:16Z</time></trkpt><trkpt lat="37.94722407634022" lon="13.912938501449005"><ele>368.75</ele><time>2026-04-09T08:28:17Z</time></trkpt><trkpt lat="37.94712742458141" lon="13.912814293332927"><ele>371.0</ele><time>2026-04-09T08:28:18Z</time></trkpt><trkpt lat="37.94697919554887" lon="13.912707477661167"><ele>371.0</ele><time>2026-04-09T08:28:19Z</time></trkpt><trkpt lat="37.94680458384434" lon="13.91258418357286"><ele>371.0</ele><time>2026-04-09T08:28:20Z</time></trkpt><trkpt lat="37.946626632851704" lon="13.91247949013313"><ele>371.0</ele><time>2026-04-09T08:28:21Z</time></trkpt><trkpt lat="37.94644811751822" lon="13.912374681210869"><ele>372.6666666666667</ele><time>2026-04-09T08:28:22Z</time></trkpt><trkpt lat="37.94626629359871" lon="13.912256222970361"><ele>374.3333333333333</ele><time>2026-04-09T08:28:23Z</time></trkpt><trkpt lat="37.946070555636716" lon="13.912126920008953"><ele>376.0</ele><time>2026-04-09T08:28:24Z</time></trkpt><trkpt lat="37.94589113235492" lon="13.912010581812508"><ele>375.0</ele><time>2026-04-09T08:28:25Z</time></trkpt><trkpt lat="37.94572035292829" lon="13.911900184442217"><ele>374.0</ele><time>2026-04-09T08:28:26Z</time></trkpt><trkpt lat="37.94556364674053" lon="13.911798556433503"><ele>373.0</ele><time>2026-04-09T08:28:27Z</time></trkpt><trkpt lat="37.945417730039516" lon="13.911705202708804"><ele>375.75</ele><time>2026-04-09T08:28:28Z</time></trkpt><trkpt lat="37.945288994659215" lon="13.911624508462586"><ele>378.5</ele><time>2026-04-09T08:28:29Z</time></trkpt><trkpt lat="37.945165812379656" lon="13.911581271007234"><ele>381.25</ele><time>2026-04-09T08:28:30Z</time></trkpt><trkpt lat="37.94505311407609" lon="13.911528188469083"><ele>384.0</ele><time>2026-04-09T08:28:31Z</time></trkpt><trkpt lat="37.94492314863761" lon="13.911571667265266"><ele>384.25</ele><time>2026-04-09T08:28:32Z</time></trkpt><trkpt lat="37.94479233565726" lon="13.911587653817563"><ele>384.5</ele><time>2026-04-09T08:28:33Z</time></trkpt><trkpt lat="37.944686883619376" lon="13.911565120973364"><ele>384.75</ele><time>2026-04-09T08:28:34Z</time></trkpt><trkpt lat="37.94460441500366" lon="13.911527238171791"><ele>385.0</ele><time>2026-04-09T08:28:35Z</time></trkpt><trkpt lat="37.944529664457356" lon="13.911400548728514"><ele>385.0</ele><time>2026-04-09T08:28:36Z</time></trkpt><trkpt lat="37.94442796358863" lon="13.911263584244706"><ele>385.0</ele><time>2026-04-09T08:28:37Z</time></trkpt><trkpt lat="37.94433264945378" lon="13.911139766825004"><ele>385.0</ele><time>2026-04-09T08:28:38Z</time></trkpt><trkpt lat="37.94423862071424" lon="13.911049804116326"><ele>385.0</ele><time>2026-04-09T08:28:39Z</time></trkpt><trkpt lat="37.94412225291849" lon="13.910991400461883"><ele>384.75</ele><time>2026-04-09T08:28:40Z</time></trkpt><trkpt lat="37.94400204928522" lon="13.911003374131697"><ele>384.5</ele><time>2026-04-09T08:28:41Z</time></trkpt><trkpt lat="37.94389379234168" lon="13.911036330649821"><ele>384.25</ele><time>2026-04-09T08:28:42Z</time></trkpt><trkpt lat="37.943777853829836" lon="13.91110441356178"><ele>384.0</ele><time>2026-04-09T08:28:43Z</time></trkpt><trkpt lat="37.94364534108906" lon="13.911168742272581"><ele>384.0</ele><time>2026-04-09T08:28:44Z</time></trkpt><trkpt lat="37.94350058468679" lon="13.911241792771973"><ele>384.0</ele><time>2026-04-09T08:28:45Z</time></trkpt><trkpt lat="37.94334798775739" lon="13.911319573118268"><ele>384.0</ele><time>2026-04-09T08:28:46Z</time></trkpt><trkpt lat="37.943207930421636" lon="13.911367548981596"><ele>386.0</ele><time>2026-04-09T08:28:47Z</time></trkpt><trkpt lat="37.94305936085622" lon="13.91139478692904"><ele>388.0</ele><time>2026-04-09T08:28:48Z</time></trkpt><trkpt lat="37.94288210993599" lon="13.911404214959225"><ele>390.0</ele><time>2026-04-09T08:28:49Z</time></trkpt><trkpt lat="37.942714391484806" lon="13.911395853858153"><ele>390.0</ele><time>2026-04-09T08:28:50Z</time></trkpt><trkpt lat="37.94258433365541" lon="13.911394872719328"><ele>390.0</ele><time>2026-04-09T08:28:51Z</time></trkpt><trkpt lat="37.942475966333674" lon="13.911402647806062"><ele>390.0</ele><time>2026-04-09T08:28:52Z</time></trkpt><trkpt lat="37.942390788098606" lon="13.91131227407907"><ele>390.0</ele><time>2026-04-09T08:28:53Z</time></trkpt><trkpt lat="37.9423173441969" lon="13.911205760488986"><ele>391.0</ele><time>2026-04-09T08:28:54Z</time></trkpt><trkpt lat="37.94226028429623" lon="13.91105884106316"><ele>392.0</ele><time>2026-04-09T08:28:55Z</time></trkpt><trkpt lat="37.942197894535475" lon="13.910890225818218"><ele>393.0</ele><time>2026-04-09T08:28:56Z</time></trkpt><trkpt lat="37.94214814420621" lon="13.910756786667537"><ele>394.0</ele><time>2026-04-09T08:28:57Z</time></trkpt><trkpt lat="37.94209524570005" lon="13.910631244691988"><ele>396.0</ele><time>2026-04-09T08:28:58Z</time></trkpt><trkpt lat="37.94204110261153" lon="13.910521789875663"><ele>398.0</ele><time>2026-04-09T08:28:59Z</time></trkpt><trkpt lat="37.94198090105354" lon="13.910445323171382"><ele>400.0</ele><time>2026-04-09T08:29:00Z</time></trkpt><trkpt lat="37.941874931284936" lon="13.910399193631482"><ele>402.0</ele><time>2026-04-09T08:29:01Z</time></trkpt><trkpt lat="37.94177691709434" lon="13.910364852497828"><ele>404.0</ele><time>2026-04-09T08:29:02Z</time></trkpt><trkpt lat="37.941667622617075" lon="13.910341656485485"><ele>404.0</ele><time>2026-04-09T08:29:03Z</time></trkpt><trkpt lat="37.94155900682236" lon="13.91032234854229"><ele>404.0</ele><time>2026-04-09T08:29:04Z</time></trkpt><trkpt lat="37.941451207779835" lon="13.91030618621475"><ele>404.0</ele><time>2026-04-09T08:29:05Z</time></trkpt><trkpt lat="37.94135582729214" lon="13.910297199830248"><ele>404.0</ele><time>2026-04-09T08:29:06Z</time></trkpt><trkpt lat="37.94125188732811" lon="13.910287888676544"><ele>404.0</ele><time>2026-04-09T08:29:07Z</time></trkpt><trkpt lat="37.941139212562426" lon="13.910290523534579"><ele>404.0</ele><time>2026-04-09T08:29:08Z</time></trkpt><trkpt lat="37.9410156947746" lon="13.910308800574422"><ele>404.0</ele><time>2026-04-09T08:29:09Z</time></trkpt><trkpt lat="37.940877189469845" lon="13.910347748148029"><ele>404.0</ele><time>2026-04-09T08:29:09.999Z</time></trkpt><trkpt lat="37.94074707544648" lon="13.910403145225562"><ele>404.0</ele><time>2026-04-09T08:29:10.999Z</time></trkpt><trkpt lat="37.94061505411235" lon="13.910488963323848"><ele>405.0</ele><time>2026-04-09T08:29:11.999Z</time></trkpt><trkpt lat="37.94046817162879" lon="13.91060644230835"><ele>406.0</ele><time>2026-04-09T08:29:12.999Z</time></trkpt><trkpt lat="37.94033381624548" lon="13.91072754380043"><ele>407.0</ele><time>2026-04-09T08:29:13.999Z</time></trkpt><trkpt lat="37.940213530556555" lon="13.910832510982365"><ele>407.0</ele><time>2026-04-09T08:29:14.999Z</time></trkpt><trkpt lat="37.94009941846362" lon="13.910868849755545"><ele>407.0</ele><time>2026-04-09T08:29:15.999Z</time></trkpt><trkpt lat="37.93999547248424" lon="13.910880947217715"><ele>407.0</ele><time>2026-04-09T08:29:16.999Z</time></trkpt><trkpt lat="37.93989212230747" lon="13.910860325936609"><ele>407.0</ele><time>2026-04-09T08:29:17.999Z</time></trkpt><trkpt lat="37.93978790452362" lon="13.910805795354698"><ele>407.0</ele><time>2026-04-09T08:29:18.999Z</time></trkpt><trkpt lat="37.939645909531386" lon="13.910741423400541"><ele>409.66666666666663</ele><time>2026-04-09T08:29:19.999Z</time></trkpt><trkpt lat="37.939467795551586" lon="13.91066123839867"><ele>412.33333333333337</ele><time>2026-04-09T08:29:20.999Z</time></trkpt><trkpt lat="37.9392813300412" lon="13.910577475074282"><ele>415.0</ele><time>2026-04-09T08:29:21.999Z</time></trkpt><trkpt lat="37.93906959662092" lon="13.910483238483225"><ele>415.6666666666667</ele><time>2026-04-09T08:29:22.999Z</time></trkpt><trkpt lat="37.93885594566877" lon="13.910388405776006"><ele>416.33333333333337</ele><time>2026-04-09T08:29:23.999Z</time></trkpt><trkpt lat="37.93865669390425" lon="13.910319481988084"><ele>417.0</ele><time>2026-04-09T08:29:24.999Z</time></trkpt><trkpt lat="37.93849775476078" lon="13.910235463185005"><ele>418.25</ele><time>2026-04-09T08:29:25.999Z</time></trkpt><trkpt lat="37.93837628617301" lon="13.910176871601378"><ele>419.5</ele><time>2026-04-09T08:29:26.999Z</time></trkpt><trkpt lat="37.938268469482324" lon="13.910155183236666"><ele>420.75</ele><time>2026-04-09T08:29:28.001Z</time></trkpt><trkpt lat="37.93816190105084" lon="13.91017802652752"><ele>422.0</ele><time>2026-04-09T08:29:29.001Z</time></trkpt><trkpt lat="37.93805771651642" lon="13.910251656740925"><ele>422.0</ele><time>2026-04-09T08:29:30.001Z</time></trkpt><trkpt lat="37.93795465519872" lon="13.910376577396287"><ele>422.0</ele><time>2026-04-09T08:29:31.001Z</time></trkpt><trkpt lat="37.93784263522997" lon="13.91053078798437"><ele>422.0</ele><time>2026-04-09T08:29:32.001Z</time></trkpt><trkpt lat="37.93772400183784" lon="13.910673885638376"><ele>422.0</ele><time>2026-04-09T08:29:33.001Z</time></trkpt><trkpt lat="37.937608713603204" lon="13.910794139327171"><ele>422.0</ele><time>2026-04-09T08:29:34.001Z</time></trkpt><trkpt lat="37.9374797775499" lon="13.910845711785852"><ele>422.0</ele><time>2026-04-09T08:29:35.001Z</time></trkpt><trkpt lat="37.93734479003497" lon="13.910866763318664"><ele>422.0</ele><time>2026-04-09T08:29:36.001Z</time></trkpt><trkpt lat="37.937212812790044" lon="13.910901709615654"><ele>422.0</ele><time>2026-04-09T08:29:37.001Z</time></trkpt><trkpt lat="37.93709325553409" lon="13.910945936006792"><ele>422.0</ele><time>2026-04-09T08:29:38.001Z</time></trkpt><trkpt lat="37.936972237581394" lon="13.911000708043304"><ele>422.0</ele><time>2026-04-09T08:29:39.001Z</time></trkpt><trkpt lat="37.93684836400162" lon="13.911093505920347"><ele>422.0</ele><time>2026-04-09T08:29:40.001Z</time></trkpt><trkpt lat="37.93672048823713" lon="13.911231135383735"><ele>425.25</ele><time>2026-04-09T08:29:41.001Z</time></trkpt><trkpt lat="37.9366180985801" lon="13.911354858340038"><ele>428.5</ele><time>2026-04-09T08:29:42.001Z</time></trkpt><trkpt lat="37.936508648043954" lon="13.911409637500888"><ele>431.75</ele><time>2026-04-09T08:29:43.001Z</time></trkpt><trkpt lat="37.936398353599664" lon="13.91141222468855"><ele>435.0</ele><time>2026-04-09T08:29:44.001Z</time></trkpt><trkpt lat="37.93625172909791" lon="13.9114258594515"><ele>435.0</ele><time>2026-04-09T08:29:45.001Z</time></trkpt><trkpt lat="37.93610371703155" lon="13.91145451007122"><ele>435.0</ele><time>2026-04-09T08:29:46.001Z</time></trkpt><trkpt lat="37.935959376150194" lon="13.911513360432831"><ele>435.0</ele><time>2026-04-09T08:29:47.001Z</time></trkpt><trkpt lat="37.93581915058881" lon="13.911597812244423"><ele>436.33333333333337</ele><time>2026-04-09T08:29:48Z</time></trkpt><trkpt lat="37.93569235268977" lon="13.91173184726354"><ele>437.6666666666667</ele><time>2026-04-09T08:29:49Z</time></trkpt><trkpt lat="37.935570372840225" lon="13.911901995264376"><ele>439.0</ele><time>2026-04-09T08:29:50Z</time></trkpt><trkpt lat="37.93545342525969" lon="13.912115392751748"><ele>439.0</ele><time>2026-04-09T08:29:51Z</time></trkpt><trkpt lat="37.935337923634734" lon="13.91236793411368"><ele>439.0</ele><time>2026-04-09T08:29:52Z</time></trkpt><trkpt lat="37.93525092088755" lon="13.91257094716007"><ele>439.0</ele><time>2026-04-09T08:29:53Z</time></trkpt><trkpt lat="37.935158974141736" lon="13.912757254788948"><ele>441.6666666666667</ele><time>2026-04-09T08:29:54Z</time></trkpt><trkpt lat="37.93503762437461" lon="13.912921572555181"><ele>444.33333333333337</ele><time>2026-04-09T08:29:55Z</time></trkpt><trkpt lat="37.934902123458976" lon="13.913092866535289"><ele>447.0</ele><time>2026-04-09T08:29:56Z</time></trkpt><trkpt lat="37.93477254012411" lon="13.91325843624176"><ele>447.0</ele><time>2026-04-09T08:29:57Z</time></trkpt><trkpt lat="37.934655366221996" lon="13.913399165568217"><ele>447.0</ele><time>2026-04-09T08:29:58Z</time></trkpt><trkpt lat="37.93455759591005" lon="13.913529439467212"><ele>447.0</ele><time>2026-04-09T08:29:59Z</time></trkpt><trkpt lat="37.93445428332862" lon="13.913612253785224"><ele>447.0</ele><time>2026-04-09T08:30:00Z</time></trkpt><trkpt lat="37.934357250010855" lon="13.913664186496279"><ele>447.25</ele><time>2026-04-09T08:30:01Z</time></trkpt><trkpt lat="37.93426315789431" lon="13.91367466079603"><ele>447.5</ele><time>2026-04-09T08:30:02Z</time></trkpt><trkpt lat="37.934143298089445" lon="13.913661910980903"><ele>447.75</ele><time>2026-04-09T08:30:03Z</time></trkpt><trkpt lat="37.933999374450764" lon="13.91363804610454"><ele>448.0</ele><time>2026-04-09T08:30:04Z</time></trkpt><trkpt lat="37.933821973468525" lon="13.91359755021544"><ele>448.0</ele><time>2026-04-09T08:30:05Z</time></trkpt><trkpt lat="37.933650472831864" lon="13.913569845542305"><ele>448.0</ele><time>2026-04-09T08:30:06Z</time></trkpt><trkpt lat="37.93350626019386" lon="13.913574599440738"><ele>448.0</ele><time>2026-04-09T08:30:07Z</time></trkpt><trkpt lat="37.93338754601702" lon="13.913585104610762"><ele>448.0</ele><time>2026-04-09T08:30:08Z</time></trkpt><trkpt lat="37.933263950792124" lon="13.913637931545052"><ele>449.6666666666667</ele><time>2026-04-09T08:30:09Z</time></trkpt><trkpt lat="37.93311632206483" lon="13.913733121300874"><ele>451.33333333333337</ele><time>2026-04-09T08:30:10Z</time></trkpt><trkpt lat="37.93294710141001" lon="13.913842673444897"><ele>453.0</ele><time>2026-04-09T08:30:11Z</time></trkpt><trkpt lat="37.93278475508727" lon="13.913954500505813"><ele>453.0</ele><time>2026-04-09T08:30:12Z</time></trkpt><trkpt lat="37.93264283620689" lon="13.914068246228757"><ele>453.0</ele><time>2026-04-09T08:30:13Z</time></trkpt><trkpt lat="37.93253258699907" lon="13.914196909824234"><ele>453.0</ele><time>2026-04-09T08:30:14Z</time></trkpt><trkpt lat="37.93244690793888" lon="13.91436229105351"><ele>454.25</ele><time>2026-04-09T08:30:15Z</time></trkpt><trkpt lat="37.93238830965734" lon="13.914533244735091"><ele>455.5</ele><time>2026-04-09T08:30:16Z</time></trkpt><trkpt lat="37.93233763334932" lon="13.91466731025072"><ele>456.75</ele><time>2026-04-09T08:30:17Z</time></trkpt><trkpt lat="37.93225526974588" lon="13.91473972636476"><ele>458.0</ele><time>2026-04-09T08:30:18Z</time></trkpt><trkpt lat="37.93215991237073" lon="13.914764196296899"><ele>458.0</ele><time>2026-04-09T08:30:19Z</time></trkpt><trkpt lat="37.932042966350295" lon="13.914781377978327"><ele>458.0</ele><time>2026-04-09T08:30:20Z</time></trkpt><trkpt lat="37.93187296195472" lon="13.914784097790623"><ele>458.0</ele><time>2026-04-09T08:30:21Z</time></trkpt><trkpt lat="37.931686756579026" lon="13.91480616451721"><ele>460.66666666666663</ele><time>2026-04-09T08:30:22Z</time></trkpt><trkpt lat="37.931496524033825" lon="13.91487037438037"><ele>463.33333333333337</ele><time>2026-04-09T08:30:23Z</time></trkpt><trkpt lat="37.93128417660494" lon="13.914932169258611"><ele>466.0</ele><time>2026-04-09T08:30:24Z</time></trkpt><trkpt lat="37.93106190580659" lon="13.914998461750702"><ele>466.33333333333337</ele><time>2026-04-09T08:30:25Z</time></trkpt><trkpt lat="37.93086685277701" lon="13.915057340999416"><ele>466.66666666666663</ele><time>2026-04-09T08:30:26Z</time></trkpt><trkpt lat="37.93068398228354" lon="13.915127339344325"><ele>467.0</ele><time>2026-04-09T08:30:27Z</time></trkpt><trkpt lat="37.9305012338891" lon="13.915224846653725"><ele>467.0</ele><time>2026-04-09T08:30:28Z</time></trkpt><trkpt lat="37.93033231551641" lon="13.915341527551696"><ele>467.0</ele><time>2026-04-09T08:30:29Z</time></trkpt><trkpt lat="37.93019827084809" lon="13.91544952585863"><ele>467.0</ele><time>2026-04-09T08:30:30Z</time></trkpt><trkpt lat="37.93008861457356" lon="13.91554594268597"><ele>470.0</ele><time>2026-04-09T08:30:31Z</time></trkpt><trkpt lat="37.93001132313651" lon="13.915658891498966"><ele>473.0</ele><time>2026-04-09T08:30:32Z</time></trkpt><trkpt lat="37.92996682171066" lon="13.915794478768422"><ele>476.0</ele><time>2026-04-09T08:30:33Z</time></trkpt><trkpt lat="37.92993512881051" lon="13.915955778711686"><ele>479.0</ele><time>2026-04-09T08:30:34Z</time></trkpt><trkpt lat="37.92989773238917" lon="13.916128268381673"><ele>479.0</ele><time>2026-04-09T08:30:35Z</time></trkpt><trkpt lat="37.92985975941559" lon="13.916296233705062"><ele>479.0</ele><time>2026-04-09T08:30:36Z</time></trkpt><trkpt lat="37.929802343728014" lon="13.916466493031225"><ele>479.0</ele><time>2026-04-09T08:30:37Z</time></trkpt><trkpt lat="37.92973116022005" lon="13.916641160484433"><ele>479.0</ele><time>2026-04-09T08:30:38Z</time></trkpt><trkpt lat="37.929649303487814" lon="13.916801281998033"><ele>477.5</ele><time>2026-04-09T08:30:39Z</time></trkpt><trkpt lat="37.929573439308996" lon="13.91693831964057"><ele>476.0</ele><time>2026-04-09T08:30:40Z</time></trkpt><trkpt lat="37.929504048705894" lon="13.917062015849089"><ele>474.5</ele><time>2026-04-09T08:30:41Z</time></trkpt><trkpt lat="37.9294314517773" lon="13.917202170334377"><ele>473.0</ele><time>2026-04-09T08:30:42Z</time></trkpt><trkpt lat="37.92934569543948" lon="13.917347740055497"><ele>473.0</ele><time>2026-04-09T08:30:43Z</time></trkpt><trkpt lat="37.92922784741823" lon="13.917463255049368"><ele>473.0</ele><time>2026-04-09T08:30:44Z</time></trkpt><trkpt lat="37.92912806371027" lon="13.917593024924"><ele>473.0</ele><time>2026-04-09T08:30:45Z</time></trkpt><trkpt lat="37.92901419877313" lon="13.91767952755858"><ele>473.0</ele><time>2026-04-09T08:30:46Z</time></trkpt><trkpt lat="37.92889117563616" lon="13.917705868786822"><ele>473.0</ele><time>2026-04-09T08:30:47Z</time></trkpt><trkpt lat="37.92876903034726" lon="13.91772903577212"><ele>473.0</ele><time>2026-04-09T08:30:48Z</time></trkpt><trkpt lat="37.928629706528405" lon="13.917742262415343"><ele>473.0</ele><time>2026-04-09T08:30:49Z</time></trkpt><trkpt lat="37.92846211356041" lon="13.917754035686889"><ele>473.0</ele><time>2026-04-09T08:30:50Z</time></trkpt><trkpt lat="37.928266203176456" lon="13.917765646248487"><ele>475.0</ele><time>2026-04-09T08:30:51Z</time></trkpt><trkpt lat="37.92806997841902" lon="13.917801620970106"><ele>477.0</ele><time>2026-04-09T08:30:52Z</time></trkpt><trkpt lat="37.92789492080805" lon="13.917826179337597"><ele>479.0</ele><time>2026-04-09T08:30:53Z</time></trkpt><trkpt lat="37.927733398325586" lon="13.917890508978017"><ele>479.0</ele><time>2026-04-09T08:30:54Z</time></trkpt><trkpt lat="37.92757623954193" lon="13.917996135147988"><ele>479.0</ele><time>2026-04-09T08:30:55Z</time></trkpt><trkpt lat="37.92740941092872" lon="13.918150835154213"><ele>479.0</ele><time>2026-04-09T08:30:56Z</time></trkpt><trkpt lat="37.92722805302738" lon="13.918346428681158"><ele>476.3333333333333</ele><time>2026-04-09T08:30:57Z</time></trkpt><trkpt lat="37.92704371003186" lon="13.918535978498848"><ele>473.66666666666663</ele><time>2026-04-09T08:30:58Z</time></trkpt><trkpt lat="37.92687673363726" lon="13.91869797667719"><ele>471.0</ele><time>2026-04-09T08:30:59Z</time></trkpt><trkpt lat="37.92672762114958" lon="13.918812001643458"><ele>476.66666666666663</ele><time>2026-04-09T08:31:00Z</time></trkpt><trkpt lat="37.926576224665006" lon="13.918856648789493"><ele>482.3333333333333</ele><time>2026-04-09T08:31:01Z</time></trkpt><trkpt lat="37.92642095329449" lon="13.918897045904554"><ele>488.0</ele><time>2026-04-09T08:31:02Z</time></trkpt><trkpt lat="37.92624727398242" lon="13.918929038633872"><ele>488.0</ele><time>2026-04-09T08:31:03Z</time></trkpt><trkpt lat="37.92608421848243" lon="13.918967067568559"><ele>488.0</ele><time>2026-04-09T08:31:04Z</time></trkpt><trkpt lat="37.92593059714371" lon="13.919012388420958"><ele>488.0</ele><time>2026-04-09T08:31:05Z</time></trkpt><trkpt lat="37.92577608865226" lon="13.919099654615101"><ele>485.66666666666663</ele><time>2026-04-09T08:31:06Z</time></trkpt><trkpt lat="37.92562890316309" lon="13.919239719447805"><ele>483.33333333333337</ele><time>2026-04-09T08:31:07Z</time></trkpt><trkpt lat="37.925482034488994" lon="13.919421880521655"><ele>481.0</ele><time>2026-04-09T08:31:08Z</time></trkpt><trkpt lat="37.92534612055904" lon="13.919622698143074"><ele>481.0</ele><time>2026-04-09T08:31:09Z</time></trkpt><trkpt lat="37.9252168695916" lon="13.919873609726864"><ele>481.0</ele><time>2026-04-09T08:31:10Z</time></trkpt><trkpt lat="37.925093872077774" lon="13.920152344578339"><ele>482.6666666666667</ele><time>2026-04-09T08:31:11Z</time></trkpt><trkpt lat="37.92497683837698" lon="13.92041192242398"><ele>484.33333333333337</ele><time>2026-04-09T08:31:12Z</time></trkpt><trkpt lat="37.924881898049904" lon="13.920644879068037"><ele>486.0</ele><time>2026-04-09T08:31:13Z</time></trkpt><trkpt lat="37.924812667121515" lon="13.920872540225522"><ele>481.33333333333337</ele><time>2026-04-09T08:31:14Z</time></trkpt><trkpt lat="37.924748485328294" lon="13.921097240972903"><ele>476.6666666666667</ele><time>2026-04-09T08:31:15Z</time></trkpt><trkpt lat="37.924682776400644" lon="13.921290426544155"><ele>472.0</ele><time>2026-04-09T08:31:15.999Z</time></trkpt><trkpt lat="37.92460338951871" lon="13.921441787759017"><ele>472.0</ele><time>2026-04-09T08:31:16.999Z</time></trkpt><trkpt lat="37.924506644547066" lon="13.921576988919622"><ele>472.0</ele><time>2026-04-09T08:31:17.999Z</time></trkpt><trkpt lat="37.92437395704823" lon="13.921715568219264"><ele>472.0</ele><time>2026-04-09T08:31:18.999Z</time></trkpt><trkpt lat="37.9242275823702" lon="13.921848873724183"><ele>474.75</ele><time>2026-04-09T08:31:19.999Z</time></trkpt><trkpt lat="37.924117344772974" lon="13.92196826350187"><ele>477.5</ele><time>2026-04-09T08:31:20.999Z</time></trkpt><trkpt lat="37.92403855762986" lon="13.922107837143432"><ele>480.25</ele><time>2026-04-09T08:31:21.999Z</time></trkpt><trkpt lat="37.9239811999803" lon="13.922293532601389"><ele>483.0</ele><time>2026-04-09T08:31:22.999Z</time></trkpt><trkpt lat="37.92394853155695" lon="13.92248910132428"><ele>479.5</ele><time>2026-04-09T08:31:23.999Z</time></trkpt><trkpt lat="37.923917579388934" lon="13.922650553036378"><ele>476.0</ele><time>2026-04-09T08:31:24.999Z</time></trkpt><trkpt lat="37.923866733325774" lon="13.922778252810074"><ele>472.5</ele><time>2026-04-09T08:31:25.999Z</time></trkpt><trkpt lat="37.92378277526956" lon="13.922881875076547"><ele>469.0</ele><time>2026-04-09T08:31:26.999Z</time></trkpt><trkpt lat="37.9236607583286" lon="13.922990815132337"><ele>469.0</ele><time>2026-04-09T08:31:27.999Z</time></trkpt><trkpt lat="37.92351805815919" lon="13.923129956800405"><ele>469.0</ele><time>2026-04-09T08:31:28.999Z</time></trkpt><trkpt lat="37.923374200519284" lon="13.923307020361033"><ele>469.0</ele><time>2026-04-09T08:31:29.999Z</time></trkpt><trkpt lat="37.92324355414941" lon="13.92348909625414"><ele>470.0</ele><time>2026-04-09T08:31:30.999Z</time></trkpt><trkpt lat="37.92314174797391" lon="13.92363649062361"><ele>471.0</ele><time>2026-04-09T08:31:31.999Z</time></trkpt><trkpt lat="37.923044872086415" lon="13.92375774593745"><ele>472.0</ele><time>2026-04-09T08:31:32.999Z</time></trkpt><trkpt lat="37.92292013348752" lon="13.923817758149935"><ele>473.0</ele><time>2026-04-09T08:31:34.001Z</time></trkpt><trkpt lat="37.92278374821474" lon="13.923899473254242"><ele>473.0</ele><time>2026-04-09T08:31:35.001Z</time></trkpt><trkpt lat="37.92266176237988" lon="13.923958474706449"><ele>473.0</ele><time>2026-04-09T08:31:36.001Z</time></trkpt><trkpt lat="37.92256915189075" lon="13.924061028600043"><ele>473.0</ele><time>2026-04-09T08:31:37.001Z</time></trkpt><trkpt lat="37.92249911783457" lon="13.924220598045475"><ele>473.0</ele><time>2026-04-09T08:31:38.001Z</time></trkpt><trkpt lat="37.922439389092126" lon="13.924427479324477"><ele>472.66666666666663</ele><time>2026-04-09T08:31:39.001Z</time></trkpt><trkpt lat="37.92237121756098" lon="13.92466034889574"><ele>472.33333333333337</ele><time>2026-04-09T08:31:40.001Z</time></trkpt><trkpt lat="37.922291377705854" lon="13.924890023579607"><ele>472.0</ele><time>2026-04-09T08:31:41.001Z</time></trkpt><trkpt lat="37.92220332811734" lon="13.925139200087179"><ele>472.0</ele><time>2026-04-09T08:31:42.001Z</time></trkpt><trkpt lat="37.92210926991327" lon="13.925398461077721"><ele>472.0</ele><time>2026-04-09T08:31:43.001Z</time></trkpt><trkpt lat="37.922030153320826" lon="13.925630433767909"><ele>472.0</ele><time>2026-04-09T08:31:44.001Z</time></trkpt><trkpt lat="37.921950891231155" lon="13.92584655463409"><ele>471.0</ele><time>2026-04-09T08:31:45.001Z</time></trkpt><trkpt lat="37.921874574689404" lon="13.92605510082119"><ele>470.0</ele><time>2026-04-09T08:31:46.001Z</time></trkpt><trkpt lat="37.92180965102675" lon="13.926268167979075"><ele>469.0</ele><time>2026-04-09T08:31:47.001Z</time></trkpt><trkpt lat="37.92177126384767" lon="13.92650653145956"><ele>469.0</ele><time>2026-04-09T08:31:48.001Z</time></trkpt><trkpt lat="37.92174672227825" lon="13.926760500790765"><ele>469.0</ele><time>2026-04-09T08:31:49.001Z</time></trkpt><trkpt lat="37.92172526260415" lon="13.926985710772867"><ele>469.0</ele><time>2026-04-09T08:31:50Z</time></trkpt><trkpt lat="37.92169646913041" lon="13.927182211816687"><ele>469.5</ele><time>2026-04-09T08:31:51Z</time></trkpt><trkpt lat="37.9216791845092" lon="13.927356259227595"><ele>470.0</ele><time>2026-04-09T08:31:52Z</time></trkpt><trkpt lat="37.92168948740609" lon="13.927545173967808"><ele>470.5</ele><time>2026-04-09T08:31:53Z</time></trkpt><trkpt lat="37.92172689640478" lon="13.927739009414925"><ele>471.0</ele><time>2026-04-09T08:31:54Z</time></trkpt><trkpt lat="37.92176926083791" lon="13.92791598369416"><ele>471.0</ele><time>2026-04-09T08:31:55Z</time></trkpt><trkpt lat="37.92180469924976" lon="13.928082464860914"><ele>471.0</ele><time>2026-04-09T08:31:56Z</time></trkpt><trkpt lat="37.92182541930905" lon="13.928249842800158"><ele>471.0</ele><time>2026-04-09T08:31:57Z</time></trkpt><trkpt lat="37.92182406575473" lon="13.928410700883894"><ele>471.0</ele><time>2026-04-09T08:31:58Z</time></trkpt><trkpt lat="37.92179867628227" lon="13.928565445848303"><ele>470.75</ele><time>2026-04-09T08:31:59Z</time></trkpt><trkpt lat="37.92175405428959" lon="13.928717295456266"><ele>470.5</ele><time>2026-04-09T08:32:00Z</time></trkpt><trkpt lat="37.92169733498132" lon="13.928856865780313"><ele>470.25</ele><time>2026-04-09T08:32:01Z</time></trkpt><trkpt lat="37.921622592749486" lon="13.92898830697742"><ele>470.0</ele><time>2026-04-09T08:32:02Z</time></trkpt><trkpt lat="37.921533038427675" lon="13.929110770137456"><ele>471.75</ele><time>2026-04-09T08:32:03Z</time></trkpt><trkpt lat="37.92143598053686" lon="13.929225299848838"><ele>473.5</ele><time>2026-04-09T08:32:04Z</time></trkpt><trkpt lat="37.92132630028053" lon="13.929321861666082"><ele>475.25</ele><time>2026-04-09T08:32:05Z</time></trkpt><trkpt lat="37.921213761229914" lon="13.929400816512368"><ele>477.0</ele><time>2026-04-09T08:32:06Z</time></trkpt><trkpt lat="37.92109748827101" lon="13.929459263472284"><ele>475.5</ele><time>2026-04-09T08:32:07Z</time></trkpt><trkpt lat="37.92096659947687" lon="13.929471109739586"><ele>474.0</ele><time>2026-04-09T08:32:08Z</time></trkpt><trkpt lat="37.920840098199" lon="13.929477930666664"><ele>472.5</ele><time>2026-04-09T08:32:09Z</time></trkpt><trkpt lat="37.9207259068405" lon="13.929466046829418"><ele>471.0</ele><time>2026-04-09T08:32:10Z</time></trkpt><trkpt lat="37.92060734128184" lon="13.92944623506652"><ele>471.0</ele><time>2026-04-09T08:32:11Z</time></trkpt><trkpt lat="37.92050181048493" lon="13.929445056424852"><ele>471.0</ele><time>2026-04-09T08:32:12Z</time></trkpt><trkpt lat="37.920404673696204" lon="13.929432440218525"><ele>471.0</ele><time>2026-04-09T08:32:13Z</time></trkpt><trkpt lat="37.92030559561261" lon="13.929442588603562"><ele>471.0</ele><time>2026-04-09T08:32:14Z</time></trkpt><trkpt lat="37.92020155058359" lon="13.929475199584617"><ele>471.0</ele><time>2026-04-09T08:32:15Z</time></trkpt><trkpt lat="37.92010139326383" lon="13.929538179410143"><ele>472.8</ele><time>2026-04-09T08:32:16Z</time></trkpt><trkpt lat="37.92002278031956" lon="13.929629848635665"><ele>474.6</ele><time>2026-04-09T08:32:17Z</time></trkpt><trkpt lat="37.91997122414447" lon="13.929742422755739"><ele>476.4</ele><time>2026-04-09T08:32:18Z</time></trkpt><trkpt lat="37.91995215204595" lon="13.92986484195667"><ele>478.2</ele><time>2026-04-09T08:32:19Z</time></trkpt><trkpt lat="37.91996009240828" lon="13.9300059049766"><ele>480.0</ele><time>2026-04-09T08:32:20Z</time></trkpt><trkpt lat="37.91999384339541" lon="13.930152653578054"><ele>480.1666666666667</ele><time>2026-04-09T08:32:21Z</time></trkpt><trkpt lat="37.92002945679207" lon="13.930264738352362"><ele>480.33333333333337</ele><time>2026-04-09T08:32:22Z</time></trkpt><trkpt lat="37.920051254861356" lon="13.930367318388297"><ele>480.5</ele><time>2026-04-09T08:32:23Z</time></trkpt><trkpt lat="37.92006481960202" lon="13.930457593087205"><ele>480.6666666666667</ele><time>2026-04-09T08:32:24Z</time></trkpt><trkpt lat="37.92008000074014" lon="13.930546121410723"><ele>480.83333333333337</ele><time>2026-04-09T08:32:25Z</time></trkpt><trkpt lat="37.92008842214021" lon="13.930632761526768"><ele>481.0</ele><time>2026-04-09T08:32:26Z</time></trkpt><trkpt lat="37.920087779146186" lon="13.93072259910788"><ele>480.33333333333337</ele><time>2026-04-09T08:32:27Z</time></trkpt><trkpt lat="37.92009082692734" lon="13.930808361741438"><ele>479.6666666666667</ele><time>2026-04-09T08:32:28Z</time></trkpt><trkpt lat="37.920101808486095" lon="13.930898664831382"><ele>479.0</ele><time>2026-04-09T08:32:29Z</time></trkpt><trkpt lat="37.92011206603188" lon="13.930988190873455"><ele>478.33333333333337</ele><time>2026-04-09T08:32:30Z</time></trkpt><trkpt lat="37.92010652766712" lon="13.931076718830228"><ele>477.6666666666667</ele><time>2026-04-09T08:32:31Z</time></trkpt><trkpt lat="37.92007786396563" lon="13.931153202954196"><ele>477.0</ele><time>2026-04-09T08:32:32Z</time></trkpt><trkpt lat="37.919988241553526" lon="13.931242621596832"><ele>477.0</ele><time>2026-04-09T08:32:34Z</time></trkpt><trkpt lat="37.91992322301384" lon="13.931264042255231"><ele>477.0</ele><time>2026-04-09T08:32:35Z</time></trkpt><trkpt lat="37.9198586417901" lon="13.931277613643825"><ele>477.0</ele><time>2026-04-09T08:32:36Z</time></trkpt><trkpt lat="37.919740961030705" lon="13.931309170867719"><ele>477.0</ele><time>2026-04-09T08:32:38Z</time></trkpt><trkpt lat="37.91962068510698" lon="13.931345845942188"><ele>477.0</ele><time>2026-04-09T08:32:40Z</time></trkpt><trkpt lat="37.919552504084706" lon="13.931371440966979"><ele>477.0</ele><time>2026-04-09T08:32:41Z</time></trkpt><trkpt lat="37.91949265852114" lon="13.931423041900517"><ele>477.0</ele><time>2026-04-09T08:32:42Z</time></trkpt><trkpt lat="37.91941816813425" lon="13.931546134683714"><ele>477.0</ele><time>2026-04-09T08:32:44Z</time></trkpt><trkpt lat="37.91939287914359" lon="13.931622641143228"><ele>477.0</ele><time>2026-04-09T08:32:44.999Z</time></trkpt><trkpt lat="37.91936370427438" lon="13.931711688274703"><ele>477.0</ele><time>2026-04-09T08:32:45.999Z</time></trkpt><trkpt lat="37.91932933162912" lon="13.931803869715111"><ele>477.0</ele><time>2026-04-09T08:32:46.999Z</time></trkpt><trkpt lat="37.91929383617694" lon="13.93190541081102"><ele>477.0</ele><time>2026-04-09T08:32:47.999Z</time></trkpt><trkpt lat="37.919258337894874" lon="13.932011430574383"><ele>477.8333333333333</ele><time>2026-04-09T08:32:48.999Z</time></trkpt><trkpt lat="37.919221011045664" lon="13.932109254620157"><ele>478.66666666666663</ele><time>2026-04-09T08:32:49.999Z</time></trkpt><trkpt lat="37.91918596684462" lon="13.932200287902061"><ele>479.5</ele><time>2026-04-09T08:32:50.999Z</time></trkpt><trkpt lat="37.91914650940077" lon="13.93230063006273"><ele>480.3333333333333</ele><time>2026-04-09T08:32:51.999Z</time></trkpt><trkpt lat="37.919110228701996" lon="13.932397290605739"><ele>481.16666666666663</ele><time>2026-04-09T08:32:52.999Z</time></trkpt><trkpt lat="37.91908553607672" lon="13.932499830722366"><ele>482.0</ele><time>2026-04-09T08:32:53.999Z</time></trkpt><trkpt lat="37.9190784690441" lon="13.932601713844155"><ele>482.0</ele><time>2026-04-09T08:32:54.999Z</time></trkpt><trkpt lat="37.919096310885756" lon="13.93270390915985"><ele>482.00000000000006</ele><time>2026-04-09T08:32:55.999Z</time></trkpt><trkpt lat="37.919131283066314" lon="13.932814415438102"><ele>482.00000000000006</ele><time>2026-04-09T08:32:56.999Z</time></trkpt><trkpt lat="37.91918353024653" lon="13.93292239718646"><ele>482.0</ele><time>2026-04-09T08:32:57.999Z</time></trkpt><trkpt lat="37.91923358754046" lon="13.93303317186215"><ele>482.0</ele><time>2026-04-09T08:32:58.999Z</time></trkpt><trkpt lat="37.91928640572945" lon="13.933136709764744"><ele>478.66666666666663</ele><time>2026-04-09T08:32:59.999Z</time></trkpt><trkpt lat="37.91933284119613" lon="13.93323331480391"><ele>475.3333333333333</ele><time>2026-04-09T08:33:00.999Z</time></trkpt><trkpt lat="37.919368870422744" lon="13.933335291771039"><ele>472.0</ele><time>2026-04-09T08:33:01.999Z</time></trkpt><trkpt lat="37.91940155571811" lon="13.93343808894695"><ele>468.66666666666663</ele><time>2026-04-09T08:33:02.999Z</time></trkpt><trkpt lat="37.91942428071835" lon="13.93354188834922"><ele>465.3333333333333</ele><time>2026-04-09T08:33:03.999Z</time></trkpt><trkpt lat="37.91942697208469" lon="13.933642812300642"><ele>462.0</ele><time>2026-04-09T08:33:04.999Z</time></trkpt><trkpt lat="37.91941608706516" lon="13.933738887448044"><ele>461.8</ele><time>2026-04-09T08:33:05.999Z</time></trkpt><trkpt lat="37.91938588504636" lon="13.93383011344799"><ele>461.6</ele><time>2026-04-09T08:33:06.999Z</time></trkpt><trkpt lat="37.919339346550366" lon="13.933911990297823"><ele>461.40000000000003</ele><time>2026-04-09T08:33:07.999Z</time></trkpt><trkpt lat="37.9192984115372" lon="13.933978354405253"><ele>461.20000000000005</ele><time>2026-04-09T08:33:08.999Z</time></trkpt><trkpt lat="37.91922536904754" lon="13.934133803787962"><ele>461.0</ele><time>2026-04-09T08:33:10.999Z</time></trkpt><trkpt lat="37.919203047845336" lon="13.934259789568198"><ele>464.5</ele><time>2026-04-09T08:33:11.999Z</time></trkpt><trkpt lat="37.91920032749291" lon="13.93441739867361"><ele>468.0</ele><time>2026-04-09T08:33:12.999Z</time></trkpt><trkpt lat="37.919205890634856" lon="13.934581579774381"><ele>471.5</ele><time>2026-04-09T08:33:13.999Z</time></trkpt><trkpt lat="37.91920454137661" lon="13.934714749963655"><ele>475.0</ele><time>2026-04-09T08:33:14.999Z</time></trkpt><trkpt lat="37.91916840786512" lon="13.934841579693604"><ele>475.0</ele><time>2026-04-09T08:33:15.999Z</time></trkpt><trkpt lat="37.91913193762355" lon="13.934967207239822"><ele>475.0</ele><time>2026-04-09T08:33:16.999Z</time></trkpt><trkpt lat="37.91907437818513" lon="13.935113997219005"><ele>475.0</ele><time>2026-04-09T08:33:17.999Z</time></trkpt><trkpt lat="37.9190123242212" lon="13.93524234107532"><ele>475.0</ele><time>2026-04-09T08:33:18.999Z</time></trkpt><trkpt lat="37.9189321451002" lon="13.935366398589752"><ele>474.8</ele><time>2026-04-09T08:33:19.999Z</time></trkpt><trkpt lat="37.91887136424826" lon="13.935471236119318"><ele>474.6</ele><time>2026-04-09T08:33:20.999Z</time></trkpt><trkpt lat="37.91884413994582" lon="13.935579097521392"><ele>474.4</ele><time>2026-04-09T08:33:21.999Z</time></trkpt><trkpt lat="37.91882834480424" lon="13.935688240587229"><ele>474.2</ele><time>2026-04-09T08:33:22.999Z</time></trkpt><trkpt lat="37.918858401466416" lon="13.935808201362445"><ele>474.0</ele><time>2026-04-09T08:33:23.999Z</time></trkpt><trkpt lat="37.9189155476554" lon="13.935926944872483"><ele>475.75</ele><time>2026-04-09T08:33:24.999Z</time></trkpt><trkpt lat="37.91897115958094" lon="13.936053065685334"><ele>477.5</ele><time>2026-04-09T08:33:25.999Z</time></trkpt><trkpt lat="37.91903220462453" lon="13.936176005005029"><ele>479.25</ele><time>2026-04-09T08:33:26.999Z</time></trkpt><trkpt lat="37.919103873620685" lon="13.93628796685101"><ele>481.0</ele><time>2026-04-09T08:33:27.999Z</time></trkpt><trkpt lat="37.91916090102365" lon="13.936403226059612"><ele>481.0</ele><time>2026-04-09T08:33:28.999Z</time></trkpt><trkpt lat="37.91921584234208" lon="13.936533320349398"><ele>481.0</ele><time>2026-04-09T08:33:29.999Z</time></trkpt><trkpt lat="37.91928631254106" lon="13.936675219627652"><ele>481.0</ele><time>2026-04-09T08:33:30.999Z</time></trkpt><trkpt lat="37.91934905088561" lon="13.936812387973568"><ele>481.0</ele><time>2026-04-09T08:33:31.999Z</time></trkpt><trkpt lat="37.91939566714023" lon="13.93694406343104"><ele>480.20000000000005</ele><time>2026-04-09T08:33:32.999Z</time></trkpt><trkpt lat="37.919433788649016" lon="13.937083305574847"><ele>479.40000000000003</ele><time>2026-04-09T08:33:33.999Z</time></trkpt><trkpt lat="37.91943287361189" lon="13.937227913854278"><ele>478.6</ele><time>2026-04-09T08:33:34.999Z</time></trkpt><trkpt lat="37.91943784706096" lon="13.937346127198792"><ele>477.8</ele><time>2026-04-09T08:33:35.999Z</time></trkpt><trkpt lat="37.91943933382386" lon="13.937435352862593"><ele>477.0</ele><time>2026-04-09T08:33:36.999Z</time></trkpt><trkpt lat="37.91943933382543" lon="13.937527674137929"><ele>477.0</ele><time>2026-04-09T08:33:39Z</time></trkpt><trkpt lat="37.9195455996565" lon="13.937524441800573"><ele>477.00000000000006</ele><time>2026-04-09T08:33:41Z</time></trkpt><trkpt lat="37.91968162068411" lon="13.937508838314734"><ele>477.00000000000006</ele><time>2026-04-09T08:33:43Z</time></trkpt><trkpt lat="37.91976578921787" lon="13.937501181400117"><ele>477.0</ele><time>2026-04-09T08:33:44Z</time></trkpt><trkpt lat="37.919854424684864" lon="13.937498012759246"><ele>477.0</ele><time>2026-04-09T08:33:45Z</time></trkpt><trkpt lat="37.9199525237314" lon="13.937485953789963"><ele>477.0</ele><time>2026-04-09T08:33:46Z</time></trkpt><trkpt lat="37.92003962435331" lon="13.9374798667722"><ele>477.0</ele><time>2026-04-09T08:33:47Z</time></trkpt><trkpt lat="37.92012173215859" lon="13.937473160662444"><ele>477.0</ele><time>2026-04-09T08:33:48Z</time></trkpt><trkpt lat="37.920200873483324" lon="13.937474756116018"><ele>477.0</ele><time>2026-04-09T08:33:49Z</time></trkpt><trkpt lat="37.92028317683771" lon="13.937475307329573"><ele>477.0</ele><time>2026-04-09T08:33:50Z</time></trkpt><trkpt lat="37.92036788998527" lon="13.937476565126323"><ele>477.0</ele><time>2026-04-09T08:33:51Z</time></trkpt><trkpt lat="37.920445059283956" lon="13.93747326438143"><ele>476.1666666666667</ele><time>2026-04-09T08:33:52Z</time></trkpt><trkpt lat="37.92051781080889" lon="13.937471533295122"><ele>475.33333333333337</ele><time>2026-04-09T08:33:53Z</time></trkpt><trkpt lat="37.92060130681371" lon="13.93746332336125"><ele>474.5</ele><time>2026-04-09T08:33:54Z</time></trkpt><trkpt lat="37.92069328596759" lon="13.937450734797984"><ele>473.6666666666667</ele><time>2026-04-09T08:33:55Z</time></trkpt><trkpt lat="37.92079017170678" lon="13.937446260098627"><ele>472.83333333333337</ele><time>2026-04-09T08:33:56Z</time></trkpt><trkpt lat="37.92088675116389" lon="13.937441621843334"><ele>472.0</ele><time>2026-04-09T08:33:57Z</time></trkpt><trkpt lat="37.92098030275422" lon="13.937436028729959"><ele>471.6</ele><time>2026-04-09T08:33:58Z</time></trkpt><trkpt lat="37.92107184091099" lon="13.937435591673133"><ele>471.20000000000005</ele><time>2026-04-09T08:33:59Z</time></trkpt><trkpt lat="37.921165776509156" lon="13.937434314625905"><ele>470.8</ele><time>2026-04-09T08:34:00Z</time></trkpt><trkpt lat="37.921256816667245" lon="13.93743457293354"><ele>470.4</ele><time>2026-04-09T08:34:01Z</time></trkpt><trkpt lat="37.92134815612216" lon="13.93742646266197"><ele>470.0</ele><time>2026-04-09T08:34:02Z</time></trkpt><trkpt lat="37.921440009809" lon="13.937417102674514"><ele>469.99999999999994</ele><time>2026-04-09T08:34:03Z</time></trkpt><trkpt lat="37.92152436994792" lon="13.937403988471877"><ele>470.0</ele><time>2026-04-09T08:34:04Z</time></trkpt><trkpt lat="37.921609851528636" lon="13.937382177568955"><ele>470.0</ele><time>2026-04-09T08:34:05Z</time></trkpt><trkpt lat="37.92169330611321" lon="13.937368058271636"><ele>470.0</ele><time>2026-04-09T08:34:06Z</time></trkpt><trkpt lat="37.921774625155635" lon="13.93735713489485"><ele>469.99999999999994</ele><time>2026-04-09T08:34:07Z</time></trkpt><trkpt lat="37.92185151941885" lon="13.937351741459937"><ele>470.0</ele><time>2026-04-09T08:34:08Z</time></trkpt><trkpt lat="37.92192252889166" lon="13.937350411656631"><ele>470.0</ele><time>2026-04-09T08:34:09Z</time></trkpt><trkpt lat="37.92198571063475" lon="13.93734959443364"><ele>470.0</ele><time>2026-04-09T08:34:10Z</time></trkpt><trkpt lat="37.92204928713401" lon="13.937345419944826"><ele>470.0</ele><time>2026-04-09T08:34:11Z</time></trkpt><trkpt lat="37.92216063487123" lon="13.93737013928893"><ele>470.0</ele><time>2026-04-09T08:34:13Z</time></trkpt><trkpt lat="37.922251833662486" lon="13.937404155157358"><ele>470.0</ele><time>2026-04-09T08:34:15Z</time></trkpt><trkpt lat="37.92230640869962" lon="13.93724037050272"><ele>470.0</ele><time>2026-04-09T08:34:20Z</time></trkpt><trkpt lat="37.92220895957867" lon="13.937168901144275"><ele>470.0</ele><time>2026-04-09T08:34:22Z</time></trkpt><trkpt lat="37.922112522202205" lon="13.937129000942654"><ele>470.0</ele><time>2026-04-09T08:34:24Z</time></trkpt><trkpt lat="37.92201684792841" lon="13.937099009447945"><ele>470.0</ele><time>2026-04-09T08:34:26Z</time></trkpt><trkpt lat="37.92190260966821" lon="13.937089069821608"><ele>470.0</ele><time>2026-04-09T08:34:28Z</time></trkpt><trkpt lat="37.92178727233261" lon="13.937102330746146"><ele>470.0</ele><time>2026-04-09T08:34:30Z</time></trkpt><trkpt lat="37.92167667369125" lon="13.937128872683145"><ele>470.0</ele><time>2026-04-09T08:34:32Z</time></trkpt><trkpt lat="37.9215553722693" lon="13.937161237539243"><ele>470.0</ele><time>2026-04-09T08:34:34Z</time></trkpt><trkpt lat="37.92144985420882" lon="13.937179813065974"><ele>470.0</ele><time>2026-04-09T08:34:36Z</time></trkpt><trkpt lat="37.92133265099922" lon="13.93716691979258"><ele>470.0</ele><time>2026-04-09T08:34:38Z</time></trkpt><trkpt lat="37.92125444134388" lon="13.937192099371096"><ele>470.0</ele><time>2026-04-09T08:34:39Z</time></trkpt><trkpt lat="37.92114673851113" lon="13.93720930108474"><ele>470.0</ele><time>2026-04-09T08:34:41Z</time></trkpt><trkpt lat="37.921023475841345" lon="13.937227483681847"><ele>470.0</ele><time>2026-04-09T08:34:43Z</time></trkpt><trkpt lat="37.92090495669138" lon="13.937246444264373"><ele>470.0</ele><time>2026-04-09T08:34:45Z</time></trkpt><trkpt lat="37.92082596387688" lon="13.937245196561511"><ele>470.4</ele><time>2026-04-09T08:34:47Z</time></trkpt><trkpt lat="37.920754268301614" lon="13.937258896565062"><ele>470.8</ele><time>2026-04-09T08:34:50Z</time></trkpt><trkpt lat="37.920679010418276" lon="13.937255626147252"><ele>471.20000000000005</ele><time>2026-04-09T08:34:54Z</time></trkpt><trkpt lat="37.92060756781252" lon="13.937245918299901"><ele>471.6</ele><time>2026-04-09T08:35:07Z</time></trkpt><trkpt lat="37.920532767309446" lon="13.937184968799693"><ele>472.0</ele><time>2026-04-09T08:35:12Z</time></trkpt><trkpt lat="37.9203943594283" lon="13.937109116097462"><ele>472.00000000000006</ele><time>2026-04-09T08:35:13.999Z</time></trkpt><trkpt lat="37.92031903572338" lon="13.937109559968107"><ele>472.0</ele><time>2026-04-09T08:35:14.999Z</time></trkpt><trkpt lat="37.92022722317458" lon="13.93711010100453"><ele>472.0</ele><time>2026-04-09T08:35:16.999Z</time></trkpt><trkpt lat="37.920147448262725" lon="13.937110571105023"><ele>472.0</ele><time>2026-04-09T08:35:18.999Z</time></trkpt><trkpt lat="37.92006728384401" lon="13.937111043502291"><ele>472.00000000000006</ele><time>2026-04-09T08:35:20.999Z</time></trkpt><trkpt lat="37.91997733647729" lon="13.93711157354742"><ele>472.0</ele><time>2026-04-09T08:35:22.999Z</time></trkpt><trkpt lat="37.91988765988682" lon="13.937112101998201"><ele>472.83333333333337</ele><time>2026-04-09T08:35:24.999Z</time></trkpt><trkpt lat="37.91979849237701" lon="13.937112627448265"><ele>473.6666666666667</ele><time>2026-04-09T08:35:26.999Z</time></trkpt><trkpt lat="37.91972189159707" lon="13.937113078844623"><ele>474.5</ele><time>2026-04-09T08:35:28.999Z</time></trkpt><trkpt lat="37.919680961643714" lon="13.937023270291187"><ele>475.33333333333337</ele><time>2026-04-09T08:35:32.999Z</time></trkpt><trkpt lat="37.91967977463725" lon="13.936941098811511"><ele>476.1666666666667</ele><time>2026-04-09T08:35:33.999Z</time></trkpt><trkpt lat="37.91967854909633" lon="13.936856259986005"><ele>477.0</ele><time>2026-04-09T08:35:34.999Z</time></trkpt><trkpt lat="37.91966236599563" lon="13.93672150667641"><ele>477.0</ele><time>2026-04-09T08:35:36.999Z</time></trkpt><trkpt lat="37.91963556531545" lon="13.936639785717016"><ele>476.99999999999994</ele><time>2026-04-09T08:35:38.999Z</time></trkpt><trkpt lat="37.91958174448557" lon="13.936580776639358"><ele>477.0</ele><time>2026-04-09T08:35:40.999Z</time></trkpt><trkpt lat="37.91950367789156" lon="13.936619218367374"><ele>477.0</ele><time>2026-04-09T08:35:42.999Z</time></trkpt><trkpt lat="37.91944268997603" lon="13.936675267803642"><ele>476.99999999999994</ele><time>2026-04-09T08:35:45Z</time></trkpt><trkpt lat="37.919388548309065" lon="13.936727222145999"><ele>477.0</ele><time>2026-04-09T08:35:48Z</time></trkpt><trkpt lat="37.91932629459132" lon="13.936786132980815"><ele>477.0</ele><time>2026-04-09T08:35:54Z</time></trkpt><trkpt lat="37.91935601782967" lon="13.936902750906095"><ele>477.0</ele><time>2026-04-09T08:35:55Z</time></trkpt><trkpt lat="37.91939723190977" lon="13.937030122137267"><ele>477.00000000000006</ele><time>2026-04-09T08:35:56Z</time></trkpt><trkpt lat="37.91942136147683" lon="13.93713859563996"><ele>477.00000000000006</ele><time>2026-04-09T08:35:57Z</time></trkpt><trkpt lat="37.91943836830343" lon="13.937279499574291"><ele>477.0</ele><time>2026-04-09T08:35:58Z</time></trkpt><trkpt lat="37.91944068965928" lon="13.93741148566935"><ele>477.0</ele><time>2026-04-09T08:35:59Z</time></trkpt><trkpt lat="37.91944853494514" lon="13.937535220441976"><ele>479.20000000000005</ele><time>2026-04-09T08:36:00Z</time></trkpt><trkpt lat="37.91943868129387" lon="13.937660383023125"><ele>481.40000000000003</ele><time>2026-04-09T08:36:01Z</time></trkpt><trkpt lat="37.91945390396776" lon="13.937790821358206"><ele>483.59999999999997</ele><time>2026-04-09T08:36:02Z</time></trkpt><trkpt lat="37.91944115548345" lon="13.937920120671897"><ele>485.79999999999995</ele><time>2026-04-09T08:36:03Z</time></trkpt><trkpt lat="37.91944890787096" lon="13.938039041729557"><ele>488.0</ele><time>2026-04-09T08:36:04Z</time></trkpt><trkpt lat="37.919465794082306" lon="13.938137995849084"><ele>487.99999999999994</ele><time>2026-04-09T08:36:05Z</time></trkpt><trkpt lat="37.919502218306135" lon="13.938229844206615"><ele>488.0</ele><time>2026-04-09T08:36:06Z</time></trkpt><trkpt lat="37.919554681457086" lon="13.938297262740257"><ele>488.0</ele><time>2026-04-09T08:36:07Z</time></trkpt><trkpt lat="37.91962472124612" lon="13.93835802101881"><ele>488.0</ele><time>2026-04-09T08:36:08Z</time></trkpt><trkpt lat="37.91971342171459" lon="13.938407510851102"><ele>487.99999999999994</ele><time>2026-04-09T08:36:09Z</time></trkpt><trkpt lat="37.91981146188686" lon="13.938461642220007"><ele>488.0</ele><time>2026-04-09T08:36:10Z</time></trkpt><trkpt lat="37.91991559831887" lon="13.938524609686029"><ele>490.79999999999995</ele><time>2026-04-09T08:36:11Z</time></trkpt><trkpt lat="37.92001794054642" lon="13.938590985197495"><ele>493.59999999999997</ele><time>2026-04-09T08:36:12Z</time></trkpt><trkpt lat="37.92009242712905" lon="13.938644954808783"><ele>496.40000000000003</ele><time>2026-04-09T08:36:13Z</time></trkpt><trkpt lat="37.920159415385335" lon="13.938678803108882"><ele>499.20000000000005</ele><time>2026-04-09T08:36:14Z</time></trkpt><trkpt lat="37.920225276110095" lon="13.93870843922187"><ele>502.0</ele><time>2026-04-09T08:36:15Z</time></trkpt><trkpt lat="37.920321768799276" lon="13.938771550394788"><ele>502.00000000000006</ele><time>2026-04-09T08:36:17Z</time></trkpt><trkpt lat="37.92038475406146" lon="13.938790314924113"><ele>502.0</ele><time>2026-04-09T08:36:18Z</time></trkpt><trkpt lat="37.92045978718103" lon="13.938792761426772"><ele>502.0</ele><time>2026-04-09T08:36:19Z</time></trkpt><trkpt lat="37.92054373215161" lon="13.938813441149739"><ele>502.0</ele><time>2026-04-09T08:36:20Z</time></trkpt><trkpt lat="37.920631182488734" lon="13.93884333727351"><ele>502.00000000000006</ele><time>2026-04-09T08:36:21Z</time></trkpt><trkpt lat="37.920711628424364" lon="13.938872664758973"><ele>502.0</ele><time>2026-04-09T08:36:22Z</time></trkpt><trkpt lat="37.920793604397176" lon="13.938901202071413"><ele>502.00000000000006</ele><time>2026-04-09T08:36:23Z</time></trkpt><trkpt lat="37.920864918255745" lon="13.938931128470129"><ele>502.0</ele><time>2026-04-09T08:36:24Z</time></trkpt><trkpt lat="37.920984384234664" lon="13.938975545424212"><ele>502.0</ele><time>2026-04-09T08:36:26Z</time></trkpt><trkpt lat="37.921049874723835" lon="13.938996541175547"><ele>502.0</ele><time>2026-04-09T08:36:28Z</time></trkpt><trkpt lat="37.921123395297016" lon="13.93903020060173"><ele>502.00000000000006</ele><time>2026-04-09T08:36:32Z</time></trkpt><trkpt lat="37.92118748046376" lon="13.939048414352657"><ele>502.0</ele><time>2026-04-09T08:36:34Z</time></trkpt><trkpt lat="37.92125768435572" lon="13.939058929159897"><ele>502.0</ele><time>2026-04-09T08:36:36Z</time></trkpt><trkpt lat="37.921330794325876" lon="13.93907593708861"><ele>502.00000000000006</ele><time>2026-04-09T08:36:38Z</time></trkpt><trkpt lat="37.92142598372137" lon="13.939086467616493"><ele>502.00000000000006</ele><time>2026-04-09T08:36:40Z</time></trkpt><trkpt lat="37.92153423634575" lon="13.939080975154077"><ele>502.0</ele><time>2026-04-09T08:36:42Z</time></trkpt><trkpt lat="37.92166018576342" lon="13.939069880686512"><ele>502.0</ele><time>2026-04-09T08:36:44Z</time></trkpt><trkpt lat="37.9217300986485" lon="13.939054733820626"><ele>501.99999999999994</ele><time>2026-04-09T08:36:45Z</time></trkpt><trkpt lat="37.92180307451013" lon="13.939042804954518"><ele>502.0</ele><time>2026-04-09T08:36:46Z</time></trkpt><trkpt lat="37.92187775018765" lon="13.939024815501961"><ele>501.99999999999994</ele><time>2026-04-09T08:36:47Z</time></trkpt><trkpt lat="37.92195200641932" lon="13.93900158488478"><ele>501.99999999999994</ele><time>2026-04-09T08:36:48Z</time></trkpt><trkpt lat="37.92202263336375" lon="13.938984412835236"><ele>502.0</ele><time>2026-04-09T08:36:49Z</time></trkpt><trkpt lat="37.92209532400084" lon="13.938973976966997"><ele>501.99999999999994</ele><time>2026-04-09T08:36:50Z</time></trkpt><trkpt lat="37.92217220323294" lon="13.9389681236125"><ele>501.99999999999994</ele><time>2026-04-09T08:36:51Z</time></trkpt><trkpt lat="37.922252060485654" lon="13.938971419234344"><ele>502.00000000000006</ele><time>2026-04-09T08:36:52Z</time></trkpt><trkpt lat="37.922334853899066" lon="13.938983952979624"><ele>502.0</ele><time>2026-04-09T08:36:53Z</time></trkpt><trkpt lat="37.92241768536852" lon="13.93900188231229"><ele>502.0</ele><time>2026-04-09T08:36:54Z</time></trkpt><trkpt lat="37.92250218206141" lon="13.93901503128954"><ele>502.0</ele><time>2026-04-09T08:36:55Z</time></trkpt><trkpt lat="37.92257953822908" lon="13.93902127019051"><ele>502.00000000000006</ele><time>2026-04-09T08:36:56Z</time></trkpt><trkpt lat="37.92266019055152" lon="13.939030107517963"><ele>502.0</ele><time>2026-04-09T08:36:57Z</time></trkpt><trkpt lat="37.92274936658495" lon="13.939039199763899"><ele>501.50000000000006</ele><time>2026-04-09T08:36:58Z</time></trkpt><trkpt lat="37.92283384689451" lon="13.939043114558736"><ele>501.0</ele><time>2026-04-09T08:36:59Z</time></trkpt><trkpt lat="37.9229109646173" lon="13.939042242853551"><ele>500.5</ele><time>2026-04-09T08:37:00Z</time></trkpt><trkpt lat="37.922978877172035" lon="13.939042196086472"><ele>500.0</ele><time>2026-04-09T08:37:01Z</time></trkpt><trkpt lat="37.92305589552836" lon="13.939038966349264"><ele>499.50000000000006</ele><time>2026-04-09T08:37:02Z</time></trkpt><trkpt lat="37.92314228255312" lon="13.939050065613536"><ele>499.0</ele><time>2026-04-09T08:37:03Z</time></trkpt><trkpt lat="37.923242305568415" lon="13.939105306445175"><ele>499.0</ele><time>2026-04-09T08:37:04Z</time></trkpt><trkpt lat="37.92334883948205" lon="13.93918583746401"><ele>499.0</ele><time>2026-04-09T08:37:05Z</time></trkpt><trkpt lat="37.92344050392515" lon="13.939275039429196"><ele>499.0</ele><time>2026-04-09T08:37:06Z</time></trkpt><trkpt lat="37.923529375907336" lon="13.939352442371282"><ele>499.0</ele><time>2026-04-09T08:37:07Z</time></trkpt><trkpt lat="37.92360338679496" lon="13.939431527206786"><ele>499.0</ele><time>2026-04-09T08:37:07.999Z</time></trkpt><trkpt lat="37.923677152476735" lon="13.93949486527825"><ele>497.33333333333337</ele><time>2026-04-09T08:37:08.999Z</time></trkpt><trkpt lat="37.92374657997621" lon="13.939560978801552"><ele>495.6666666666667</ele><time>2026-04-09T08:37:09.999Z</time></trkpt><trkpt lat="37.9238059419927" lon="13.939643820061013"><ele>494.0</ele><time>2026-04-09T08:37:10.999Z</time></trkpt><trkpt lat="37.92385386098944" lon="13.939735727483814"><ele>492.33333333333337</ele><time>2026-04-09T08:37:11.999Z</time></trkpt><trkpt lat="37.92388318902943" lon="13.939824178221334"><ele>490.6666666666667</ele><time>2026-04-09T08:37:12.999Z</time></trkpt><trkpt lat="37.92390415115134" lon="13.93991071669032"><ele>489.0</ele><time>2026-04-09T08:37:13.999Z</time></trkpt><trkpt lat="37.92392198747431" lon="13.94001189613668"><ele>490.3333333333333</ele><time>2026-04-09T08:37:14.999Z</time></trkpt><trkpt lat="37.92393930006182" lon="13.940118991325924"><ele>491.66666666666663</ele><time>2026-04-09T08:37:15.999Z</time></trkpt><trkpt lat="37.92395495098" lon="13.940220708511815"><ele>493.0</ele><time>2026-04-09T08:37:16.999Z</time></trkpt><trkpt lat="37.923973431553584" lon="13.940321195165199"><ele>494.3333333333333</ele><time>2026-04-09T08:37:17.999Z</time></trkpt><trkpt lat="37.923988527102715" lon="13.940432288848674"><ele>495.66666666666663</ele><time>2026-04-09T08:37:18.999Z</time></trkpt><trkpt lat="37.92399907311645" lon="13.940546433824707"><ele>497.0</ele><time>2026-04-09T08:37:19.999Z</time></trkpt><trkpt lat="37.92401051717282" lon="13.940648487390687"><ele>496.99999999999994</ele><time>2026-04-09T08:37:20.999Z</time></trkpt><trkpt lat="37.92400603527054" lon="13.940749271010207"><ele>497.0</ele><time>2026-04-09T08:37:21.999Z</time></trkpt><trkpt lat="37.92402207748642" lon="13.940849127496035"><ele>497.0</ele><time>2026-04-09T08:37:22.999Z</time></trkpt><trkpt lat="37.92401557059265" lon="13.940945368922184"><ele>497.0</ele><time>2026-04-09T08:37:23.999Z</time></trkpt><trkpt lat="37.92398975712272" lon="13.94103285042102"><ele>496.99999999999994</ele><time>2026-04-09T08:37:24.999Z</time></trkpt><trkpt lat="37.923961889858866" lon="13.94111997625179"><ele>497.0</ele><time>2026-04-09T08:37:25.999Z</time></trkpt><trkpt lat="37.92391440077316" lon="13.941211796586302"><ele>496.20000000000005</ele><time>2026-04-09T08:37:26.999Z</time></trkpt><trkpt lat="37.92386383392047" lon="13.941301162531317"><ele>495.40000000000003</ele><time>2026-04-09T08:37:27.999Z</time></trkpt><trkpt lat="37.92380854836874" lon="13.941401369406208"><ele>494.59999999999997</ele><time>2026-04-09T08:37:28.999Z</time></trkpt><trkpt lat="37.92375289795725" lon="13.94150577348325"><ele>493.79999999999995</ele><time>2026-04-09T08:37:29.999Z</time></trkpt><trkpt lat="37.92369414627608" lon="13.94163161074853"><ele>493.0</ele><time>2026-04-09T08:37:30.999Z</time></trkpt><trkpt lat="37.92361958899655" lon="13.941755023577423"><ele>491.5</ele><time>2026-04-09T08:37:31.999Z</time></trkpt><trkpt lat="37.923543470128266" lon="13.941882760276046"><ele>490.0</ele><time>2026-04-09T08:37:32.999Z</time></trkpt><trkpt lat="37.92346836913143" lon="13.942001302882607"><ele>488.5</ele><time>2026-04-09T08:37:33.999Z</time></trkpt><trkpt lat="37.923389195515504" lon="13.942112292460365"><ele>487.0</ele><time>2026-04-09T08:37:34.999Z</time></trkpt><trkpt lat="37.92327989273871" lon="13.942200420002763"><ele>490.75</ele><time>2026-04-09T08:37:35.999Z</time></trkpt><trkpt lat="37.92316905125008" lon="13.94229785995835"><ele>494.5</ele><time>2026-04-09T08:37:36.999Z</time></trkpt><trkpt lat="37.923041095404095" lon="13.942398712834843"><ele>498.25</ele><time>2026-04-09T08:37:37.999Z</time></trkpt><trkpt lat="37.922933389775906" lon="13.942497987649908"><ele>502.0</ele><time>2026-04-09T08:37:38.999Z</time></trkpt><trkpt lat="37.922828911013674" lon="13.942583186132426"><ele>502.0</ele><time>2026-04-09T08:37:39.999Z</time></trkpt><trkpt lat="37.922752507324745" lon="13.942700606945424"><ele>502.0</ele><time>2026-04-09T08:37:40.999Z</time></trkpt><trkpt lat="37.92270295631174" lon="13.942853287008887"><ele>502.0</ele><time>2026-04-09T08:37:41.999Z</time></trkpt><trkpt lat="37.922659414631035" lon="13.943029652318598"><ele>502.0</ele><time>2026-04-09T08:37:42.999Z</time></trkpt><trkpt lat="37.92261309742346" lon="13.943206298662412"><ele>508.5</ele><time>2026-04-09T08:37:43.999Z</time></trkpt><trkpt lat="37.92254898011549" lon="13.943363361248197"><ele>515.0</ele><time>2026-04-09T08:37:44.999Z</time></trkpt><trkpt lat="37.922460754614214" lon="13.94346806049092"><ele>521.5</ele><time>2026-04-09T08:37:45.999Z</time></trkpt><trkpt lat="37.92237921883787" lon="13.94356195538922"><ele>528.0</ele><time>2026-04-09T08:37:46.999Z</time></trkpt><trkpt lat="37.92232372080001" lon="13.943666524730206"><ele>528.0</ele><time>2026-04-09T08:37:47.999Z</time></trkpt><trkpt lat="37.92231012161062" lon="13.943791421677686"><ele>528.0</ele><time>2026-04-09T08:37:48.999Z</time></trkpt><trkpt lat="37.922336159382674" lon="13.94392884275364"><ele>528.0</ele><time>2026-04-09T08:37:49.999Z</time></trkpt><trkpt lat="37.922396954481705" lon="13.944079573507462"><ele>528.0</ele><time>2026-04-09T08:37:51Z</time></trkpt><trkpt lat="37.92245916716456" lon="13.944227556701316"><ele>528.5</ele><time>2026-04-09T08:37:52Z</time></trkpt><trkpt lat="37.92250940892114" lon="13.944371506085908"><ele>529.0</ele><time>2026-04-09T08:37:53Z</time></trkpt><trkpt lat="37.92253833976486" lon="13.944520142358407"><ele>529.5</ele><time>2026-04-09T08:37:54Z</time></trkpt><trkpt lat="37.922546684281535" lon="13.944665374250617"><ele>530.0</ele><time>2026-04-09T08:37:55Z</time></trkpt><trkpt lat="37.922527894699456" lon="13.944812820988973"><ele>530.0</ele><time>2026-04-09T08:37:56Z</time></trkpt><trkpt lat="37.92249230569251" lon="13.94495789347526"><ele>530.0</ele><time>2026-04-09T08:37:57Z</time></trkpt><trkpt lat="37.92245410327625" lon="13.945091887454662"><ele>530.0</ele><time>2026-04-09T08:37:58Z</time></trkpt><trkpt lat="37.92242844917909" lon="13.94520630168302"><ele>530.0</ele><time>2026-04-09T08:37:59Z</time></trkpt><trkpt lat="37.92241213185992" lon="13.945308500814333"><ele>530.0</ele><time>2026-04-09T08:38:00Z</time></trkpt><trkpt lat="37.92240982526179" lon="13.94541171847729"><ele>529.6</ele><time>2026-04-09T08:38:01Z</time></trkpt><trkpt lat="37.92243018445137" lon="13.945525221949865"><ele>529.2</ele><time>2026-04-09T08:38:02Z</time></trkpt><trkpt lat="37.922475977272626" lon="13.94564313969627"><ele>528.8</ele><time>2026-04-09T08:38:03Z</time></trkpt><trkpt lat="37.922549554973564" lon="13.94574644175641"><ele>528.4</ele><time>2026-04-09T08:38:04Z</time></trkpt><trkpt lat="37.922645240806474" lon="13.94582508559757"><ele>528.0</ele><time>2026-04-09T08:38:05Z</time></trkpt><trkpt lat="37.922744760662226" lon="13.945881176702137"><ele>528.0</ele><time>2026-04-09T08:38:06Z</time></trkpt><trkpt lat="37.92283547816397" lon="13.94594305363819"><ele>528.0</ele><time>2026-04-09T08:38:07Z</time></trkpt><trkpt lat="37.922900666120036" lon="13.94602363609732"><ele>528.0</ele><time>2026-04-09T08:38:08Z</time></trkpt><trkpt lat="37.92293991726155" lon="13.946132366543964"><ele>528.0</ele><time>2026-04-09T08:38:09Z</time></trkpt><trkpt lat="37.92295034325642" lon="13.946258296183482"><ele>528.0</ele><time>2026-04-09T08:38:10Z</time></trkpt><trkpt lat="37.92293465172373" lon="13.946396005066998"><ele>528.0</ele><time>2026-04-09T08:38:11Z</time></trkpt><trkpt lat="37.92290487384693" lon="13.946534283011008"><ele>528.0</ele><time>2026-04-09T08:38:12Z</time></trkpt><trkpt lat="37.92288442012928" lon="13.946661525572567"><ele>528.0</ele><time>2026-04-09T08:38:13Z</time></trkpt><trkpt lat="37.92290067326549" lon="13.946776122429656"><ele>528.0</ele><time>2026-04-09T08:38:14Z</time></trkpt><trkpt lat="37.922930618468214" lon="13.946886788508419"><ele>528.0</ele><time>2026-04-09T08:38:15Z</time></trkpt><trkpt lat="37.922967185198715" lon="13.946992283200208"><ele>529.4</ele><time>2026-04-09T08:38:16Z</time></trkpt><trkpt lat="37.92300735008457" lon="13.947098928487833"><ele>530.8</ele><time>2026-04-09T08:38:17Z</time></trkpt><trkpt lat="37.9230415260862" lon="13.947199524403421"><ele>532.2</ele><time>2026-04-09T08:38:18Z</time></trkpt><trkpt lat="37.9230753299446" lon="13.947284466916564"><ele>533.6</ele><time>2026-04-09T08:38:19Z</time></trkpt><trkpt lat="37.92309759966566" lon="13.947364318570434"><ele>535.0</ele><time>2026-04-09T08:38:20Z</time></trkpt><trkpt lat="37.92306409428327" lon="13.947523573740014"><ele>535.0</ele><time>2026-04-09T08:38:22Z</time></trkpt><trkpt lat="37.92300362148001" lon="13.947585411863148"><ele>535.0</ele><time>2026-04-09T08:38:23Z</time></trkpt><trkpt lat="37.92292367802435" lon="13.947616850877889"><ele>535.0</ele><time>2026-04-09T08:38:24Z</time></trkpt><trkpt lat="37.92283736251807" lon="13.94761263337315"><ele>535.0</ele><time>2026-04-09T08:38:25Z</time></trkpt><trkpt lat="37.922768262352555" lon="13.947540101700808"><ele>535.0</ele><time>2026-04-09T08:38:26Z</time></trkpt><trkpt lat="37.922729983438515" lon="13.947451287145231"><ele>535.0</ele><time>2026-04-09T08:38:27Z</time></trkpt><trkpt lat="37.92273436889733" lon="13.947347341286406"><ele>535.0</ele><time>2026-04-09T08:38:28Z</time></trkpt><trkpt lat="37.92273659957747" lon="13.947221248648015"><ele>535.0</ele><time>2026-04-09T08:38:29Z</time></trkpt><trkpt lat="37.9227312633649" lon="13.94706786600483"><ele>535.0</ele><time>2026-04-09T08:38:30Z</time></trkpt><trkpt lat="37.92272576857687" lon="13.946892897664334"><ele>535.0</ele><time>2026-04-09T08:38:31Z</time></trkpt><trkpt lat="37.92273441553003" lon="13.946732478782527"><ele>533.25</ele><time>2026-04-09T08:38:32Z</time></trkpt><trkpt lat="37.92271001430983" lon="13.946592956741826"><ele>531.5</ele><time>2026-04-09T08:38:33Z</time></trkpt><trkpt lat="37.92268589801161" lon="13.94646572747645"><ele>529.75</ele><time>2026-04-09T08:38:34Z</time></trkpt><trkpt lat="37.92260848970978" lon="13.946341286075409"><ele>528.0</ele><time>2026-04-09T08:38:35Z</time></trkpt><trkpt lat="37.92249934341216" lon="13.946230839472246"><ele>530.75</ele><time>2026-04-09T08:38:36Z</time></trkpt><trkpt lat="37.922394183311" lon="13.946122285668757"><ele>533.5</ele><time>2026-04-09T08:38:37Z</time></trkpt><trkpt lat="37.92230143725705" lon="13.94602512176079"><ele>536.25</ele><time>2026-04-09T08:38:38Z</time></trkpt><trkpt lat="37.92222419753916" lon="13.94594420231611"><ele>539.0</ele><time>2026-04-09T08:38:39Z</time></trkpt><trkpt lat="37.92215004750603" lon="13.945866559661848"><ele>539.0</ele><time>2026-04-09T08:38:40Z</time></trkpt><trkpt lat="37.922074177064665" lon="13.945786880721226"><ele>539.0</ele><time>2026-04-09T08:38:41Z</time></trkpt><trkpt lat="37.92199732082135" lon="13.94570370338782"><ele>539.0</ele><time>2026-04-09T08:38:42Z</time></trkpt><trkpt lat="37.92191492795051" lon="13.945610419606309"><ele>539.0</ele><time>2026-04-09T08:38:43Z</time></trkpt><trkpt lat="37.92182788649619" lon="13.94550385477839"><ele>539.0</ele><time>2026-04-09T08:38:44Z</time></trkpt><trkpt lat="37.92173457069408" lon="13.945372550070712"><ele>542.0</ele><time>2026-04-09T08:38:45Z</time></trkpt><trkpt lat="37.921656465946825" lon="13.945245163222424"><ele>545.0</ele><time>2026-04-09T08:38:46Z</time></trkpt><trkpt lat="37.92160180329991" lon="13.945130744642729"><ele>548.0</ele><time>2026-04-09T08:38:47Z</time></trkpt><trkpt lat="37.921573839426316" lon="13.944996344619797"><ele>551.0</ele><time>2026-04-09T08:38:48Z</time></trkpt><trkpt lat="37.92156953415577" lon="13.944841726958266"><ele>551.0</ele><time>2026-04-09T08:38:49Z</time></trkpt><trkpt lat="37.92157478909703" lon="13.944669041460676"><ele>551.0</ele><time>2026-04-09T08:38:50Z</time></trkpt><trkpt lat="37.92158372259091" lon="13.94449976986936"><ele>551.0</ele><time>2026-04-09T08:38:51Z</time></trkpt><trkpt lat="37.92159310851703" lon="13.94432830364228"><ele>551.0</ele><time>2026-04-09T08:38:52Z</time></trkpt><trkpt lat="37.92160437909019" lon="13.944164632383798"><ele>551.1666666666666</ele><time>2026-04-09T08:38:53Z</time></trkpt><trkpt lat="37.92162299739852" lon="13.94402363098632"><ele>551.3333333333333</ele><time>2026-04-09T08:38:54Z</time></trkpt><trkpt lat="37.92164145786597" lon="13.943898178303689"><ele>551.5</ele><time>2026-04-09T08:38:55Z</time></trkpt><trkpt lat="37.921643221567685" lon="13.943794886426963"><ele>551.6666666666666</ele><time>2026-04-09T08:38:56Z</time></trkpt><trkpt lat="37.92166546830809" lon="13.943711343609891"><ele>551.8333333333334</ele><time>2026-04-09T08:38:57Z</time></trkpt><trkpt lat="37.92167337783206" lon="13.943631644987114"><ele>552.0</ele><time>2026-04-09T08:38:58Z</time></trkpt><trkpt lat="37.921631867997355" lon="13.943499665246783"><ele>552.0</ele><time>2026-04-09T08:39:00Z</time></trkpt><trkpt lat="37.92156112194485" lon="13.943481519344543"><ele>552.0</ele><time>2026-04-09T08:39:01Z</time></trkpt><trkpt lat="37.92149755195898" lon="13.943484867079231"><ele>552.0</ele><time>2026-04-09T08:39:02Z</time></trkpt><trkpt lat="37.92144557253597" lon="13.943531009791682"><ele>552.0</ele><time>2026-04-09T08:39:03Z</time></trkpt><trkpt lat="37.92141178609477" lon="13.943611835998233"><ele>552.0</ele><time>2026-04-09T08:39:04Z</time></trkpt><trkpt lat="37.92140531738872" lon="13.943720955412068"><ele>552.0</ele><time>2026-04-09T08:39:05Z</time></trkpt><trkpt lat="37.921411507085004" lon="13.943848342270206"><ele>552.0</ele><time>2026-04-09T08:39:06Z</time></trkpt><trkpt lat="37.92142084321781" lon="13.944004946205327"><ele>552.0</ele><time>2026-04-09T08:39:07Z</time></trkpt><trkpt lat="37.92141986423483" lon="13.944168657815107"><ele>552.0</ele><time>2026-04-09T08:39:08Z</time></trkpt><trkpt lat="37.9214068963274" lon="13.944313556738082"><ele>552.0</ele><time>2026-04-09T08:39:09Z</time></trkpt><trkpt lat="37.92138790244439" lon="13.944451002417683"><ele>551.75</ele><time>2026-04-09T08:39:09.999Z</time></trkpt><trkpt lat="37.92135801517411" lon="13.944603898845937"><ele>551.5</ele><time>2026-04-09T08:39:10.999Z</time></trkpt><trkpt lat="37.921314581558796" lon="13.944756456108838"><ele>551.25</ele><time>2026-04-09T08:39:11.999Z</time></trkpt><trkpt lat="37.92126967053574" lon="13.944879816039089"><ele>551.0</ele><time>2026-04-09T08:39:12.999Z</time></trkpt><trkpt lat="37.92123343927554" lon="13.94499050895777"><ele>553.2</ele><time>2026-04-09T08:39:13.999Z</time></trkpt><trkpt lat="37.921222705854994" lon="13.945102875626853"><ele>555.4000000000001</ele><time>2026-04-09T08:39:14.999Z</time></trkpt><trkpt lat="37.92124592143048" lon="13.94521696372007"><ele>557.6</ele><time>2026-04-09T08:39:15.999Z</time></trkpt><trkpt lat="37.921303912680536" lon="13.945325008101872"><ele>559.8000000000001</ele><time>2026-04-09T08:39:16.999Z</time></trkpt><trkpt lat="37.92140768081843" lon="13.94542755031919"><ele>562.0</ele><time>2026-04-09T08:39:17.999Z</time></trkpt><trkpt lat="37.92152658738335" lon="13.945524603511561"><ele>562.0</ele><time>2026-04-09T08:39:18.999Z</time></trkpt><trkpt lat="37.921614859122705" lon="13.945614109575583"><ele>562.0</ele><time>2026-04-09T08:39:19.999Z</time></trkpt><trkpt lat="37.92166259328446" lon="13.945718407712281"><ele>562.0</ele><time>2026-04-09T08:39:20.999Z</time></trkpt><trkpt lat="37.92169233440265" lon="13.945853342163018"><ele>562.0</ele><time>2026-04-09T08:39:21.999Z</time></trkpt><trkpt lat="37.92171595256403" lon="13.946029061687158"><ele>558.75</ele><time>2026-04-09T08:39:22.999Z</time></trkpt><trkpt lat="37.92175709875144" lon="13.946199833344105"><ele>555.5</ele><time>2026-04-09T08:39:23.999Z</time></trkpt><trkpt lat="37.921814172855015" lon="13.946346491837476"><ele>552.25</ele><time>2026-04-09T08:39:24.999Z</time></trkpt><trkpt lat="37.92187948155478" lon="13.946476222184973"><ele>549.0</ele><time>2026-04-09T08:39:25.999Z</time></trkpt><trkpt lat="37.92194955310467" lon="13.946596292919375"><ele>549.0</ele><time>2026-04-09T08:39:26.999Z</time></trkpt><trkpt lat="37.922006689541526" lon="13.94670412159144"><ele>549.0</ele><time>2026-04-09T08:39:27.999Z</time></trkpt><trkpt lat="37.9220498064686" lon="13.946805792900438"><ele>549.0</ele><time>2026-04-09T08:39:28.999Z</time></trkpt><trkpt lat="37.922061323760595" lon="13.946918129547171"><ele>549.0</ele><time>2026-04-09T08:39:29.999Z</time></trkpt><trkpt lat="37.9220410249747" lon="13.947029799955738"><ele>549.0</ele><time>2026-04-09T08:39:30.999Z</time></trkpt><trkpt lat="37.92198432516227" lon="13.947141284424214"><ele>550.0</ele><time>2026-04-09T08:39:31.999Z</time></trkpt><trkpt lat="37.92192039089223" lon="13.947258365835237"><ele>551.0</ele><time>2026-04-09T08:39:32.999Z</time></trkpt><trkpt lat="37.92185740642485" lon="13.947379291227092"><ele>552.0</ele><time>2026-04-09T08:39:33.999Z</time></trkpt><trkpt lat="37.921799148960666" lon="13.947478306927145"><ele>553.0</ele><time>2026-04-09T08:39:34.999Z</time></trkpt><trkpt lat="37.921747860253994" lon="13.947576140817844"><ele>554.0</ele><time>2026-04-09T08:39:35.999Z</time></trkpt><trkpt lat="37.92169814810586" lon="13.947687323915995"><ele>554.5</ele><time>2026-04-09T08:39:36.999Z</time></trkpt><trkpt lat="37.921667528692275" lon="13.947806345311196"><ele>555.0</ele><time>2026-04-09T08:39:37.999Z</time></trkpt><trkpt lat="37.9216761460111" lon="13.947934432092158"><ele>555.5</ele><time>2026-04-09T08:39:38.999Z</time></trkpt><trkpt lat="37.92171078251968" lon="13.948085497171693"><ele>556.0</ele><time>2026-04-09T08:39:39.999Z</time></trkpt><trkpt lat="37.92174514838842" lon="13.948243697649803"><ele>556.0</ele><time>2026-04-09T08:39:40.999Z</time></trkpt><trkpt lat="37.9217748622072" lon="13.948375035295195"><ele>556.0</ele><time>2026-04-09T08:39:41.999Z</time></trkpt><trkpt lat="37.92182444042333" lon="13.948496426188711"><ele>556.0</ele><time>2026-04-09T08:39:42.999Z</time></trkpt><trkpt lat="37.92189219126209" lon="13.948607060242884"><ele>556.0</ele><time>2026-04-09T08:39:43.999Z</time></trkpt><trkpt lat="37.92196146866129" lon="13.948694177755069"><ele>556.0</ele><time>2026-04-09T08:39:44.999Z</time></trkpt><trkpt lat="37.92202449028627" lon="13.948794256434843"><ele>558.0</ele><time>2026-04-09T08:39:45.999Z</time></trkpt><trkpt lat="37.92207056202615" lon="13.948926098468183"><ele>560.0</ele><time>2026-04-09T08:39:46.999Z</time></trkpt><trkpt lat="37.92209454288218" lon="13.949076875613382"><ele>562.0</ele><time>2026-04-09T08:39:47.999Z</time></trkpt><trkpt lat="37.92210951620609" lon="13.949239492652227"><ele>564.0</ele><time>2026-04-09T08:39:48.999Z</time></trkpt><trkpt lat="37.92212386297322" lon="13.94940985478119"><ele>567.8</ele><time>2026-04-09T08:39:49.999Z</time></trkpt><trkpt lat="37.92214284253792" lon="13.949578855429616"><ele>571.5999999999999</ele><time>2026-04-09T08:39:50.999Z</time></trkpt><trkpt lat="37.92216098738765" lon="13.94972681695915"><ele>575.4</ele><time>2026-04-09T08:39:51.999Z</time></trkpt><trkpt lat="37.922172842123395" lon="13.949860370158703"><ele>579.1999999999999</ele><time>2026-04-09T08:39:52.999Z</time></trkpt><trkpt lat="37.92218358441866" lon="13.949970507880076"><ele>583.0</ele><time>2026-04-09T08:39:53.999Z</time></trkpt><trkpt lat="37.922225509738254" lon="13.950070233054491"><ele>593.0</ele><time>2026-04-09T08:39:54.999Z</time></trkpt><trkpt lat="37.92229640764082" lon="13.950143409495235"><ele>603.0</ele><time>2026-04-09T08:39:55.999Z</time></trkpt><trkpt lat="37.92238872180018" lon="13.950187942275289"><ele>613.0</ele><time>2026-04-09T08:39:57Z</time></trkpt><trkpt lat="37.9224992546438" lon="13.95021351588223"><ele>623.0</ele><time>2026-04-09T08:39:58Z</time></trkpt><trkpt lat="37.922618133497046" lon="13.950239559132264"><ele>633.0</ele><time>2026-04-09T08:39:59Z</time></trkpt><trkpt lat="37.922746028368216" lon="13.950278118538602"><ele>633.0</ele><time>2026-04-09T08:40:00Z</time></trkpt><trkpt lat="37.922865302119696" lon="13.950310526720576"><ele>633.0</ele><time>2026-04-09T08:40:01Z</time></trkpt><trkpt lat="37.92297763896579" lon="13.950312959549459"><ele>633.0</ele><time>2026-04-09T08:40:02Z</time></trkpt><trkpt lat="37.923092886515796" lon="13.950299050735913"><ele>633.0</ele><time>2026-04-09T08:40:03Z</time></trkpt><trkpt lat="37.92319069353215" lon="13.950273494447126"><ele>633.0</ele><time>2026-04-09T08:40:04Z</time></trkpt><trkpt lat="37.92329045446698" lon="13.950253784547158"><ele>633.0</ele><time>2026-04-09T08:40:05Z</time></trkpt><trkpt lat="37.92339420891599" lon="13.950254514414315"><ele>633.0</ele><time>2026-04-09T08:40:06Z</time></trkpt><trkpt lat="37.92351248624376" lon="13.95027843309199"><ele>633.0</ele><time>2026-04-09T08:40:07Z</time></trkpt><trkpt lat="37.92364414754844" lon="13.950340205832594"><ele>625.75</ele><time>2026-04-09T08:40:08Z</time></trkpt><trkpt lat="37.923764268401776" lon="13.950422453405919"><ele>618.5</ele><time>2026-04-09T08:40:09Z</time></trkpt><trkpt lat="37.92389175896139" lon="13.950506986024278"><ele>611.25</ele><time>2026-04-09T08:40:10Z</time></trkpt><trkpt lat="37.924014518759144" lon="13.95057500937085"><ele>604.0</ele><time>2026-04-09T08:40:11Z</time></trkpt><trkpt lat="37.92412670981064" lon="13.950661504253222"><ele>598.5</ele><time>2026-04-09T08:40:12Z</time></trkpt><trkpt lat="37.92423190476368" lon="13.950763277292777"><ele>593.0</ele><time>2026-04-09T08:40:13Z</time></trkpt><trkpt lat="37.92433516927878" lon="13.95086266970517"><ele>587.5</ele><time>2026-04-09T08:40:14Z</time></trkpt><trkpt lat="37.924434533411315" lon="13.950958516425528"><ele>582.0</ele><time>2026-04-09T08:40:15Z</time></trkpt><trkpt lat="37.92451906215709" lon="13.95103110339528"><ele>582.0</ele><time>2026-04-09T08:40:16Z</time></trkpt><trkpt lat="37.924594237909155" lon="13.951105516340746"><ele>582.0</ele><time>2026-04-09T08:40:17Z</time></trkpt><trkpt lat="37.92464879546587" lon="13.951193412102644"><ele>582.0</ele><time>2026-04-09T08:40:18Z</time></trkpt><trkpt lat="37.92467550304164" lon="13.951288583531078"><ele>582.0</ele><time>2026-04-09T08:40:19Z</time></trkpt><trkpt lat="37.924680884668746" lon="13.951376973779507"><ele>582.0</ele><time>2026-04-09T08:40:20Z</time></trkpt><trkpt lat="37.92462161932285" lon="13.95150494463975"><ele>582.0</ele><time>2026-04-09T08:40:22Z</time></trkpt><trkpt lat="37.92446137091752" lon="13.951641521395432"><ele>582.0</ele><time>2026-04-09T08:40:23Z</time></trkpt><trkpt lat="37.924353902416996" lon="13.951743736348282"><ele>582.0</ele><time>2026-04-09T08:40:24Z</time></trkpt><trkpt lat="37.924236389521774" lon="13.951888306323768"><ele>584.0</ele><time>2026-04-09T08:40:25Z</time></trkpt><trkpt lat="37.9241159230106" lon="13.951999807194694"><ele>586.0</ele><time>2026-04-09T08:40:26Z</time></trkpt><trkpt lat="37.923997896054026" lon="13.952119578905354"><ele>588.0</ele><time>2026-04-09T08:40:27Z</time></trkpt><trkpt lat="37.92384253106599" lon="13.952217938603717"><ele>588.0</ele><time>2026-04-09T08:40:28Z</time></trkpt><trkpt lat="37.92366817059323" lon="13.952334899865425"><ele>588.0</ele><time>2026-04-09T08:40:29Z</time></trkpt><trkpt lat="37.92351994020376" lon="13.952437721231803"><ele>588.0</ele><time>2026-04-09T08:40:30Z</time></trkpt><trkpt lat="37.92339677777227" lon="13.95255526125813"><ele>590.6666666666666</ele><time>2026-04-09T08:40:31Z</time></trkpt><trkpt lat="37.92326872032765" lon="13.952669400616301"><ele>593.3333333333333</ele><time>2026-04-09T08:40:32Z</time></trkpt><trkpt lat="37.923145661003076" lon="13.952807163304152"><ele>596.0</ele><time>2026-04-09T08:40:33Z</time></trkpt><trkpt lat="37.92302325123449" lon="13.952957460076034"><ele>596.0</ele><time>2026-04-09T08:40:34Z</time></trkpt><trkpt lat="37.92290063965017" lon="13.953104648678144"><ele>596.0</ele><time>2026-04-09T08:40:35Z</time></trkpt><trkpt lat="37.92278296210701" lon="13.95324072997201"><ele>596.0</ele><time>2026-04-09T08:40:36Z</time></trkpt><trkpt lat="37.9226668577079" lon="13.953367719572844"><ele>600.6666666666666</ele><time>2026-04-09T08:40:37Z</time></trkpt><trkpt lat="37.92255458657024" lon="13.953493654430245"><ele>605.3333333333334</ele><time>2026-04-09T08:40:38Z</time></trkpt><trkpt lat="37.92243932206954" lon="13.95362352358959"><ele>610.0</ele><time>2026-04-09T08:40:39Z</time></trkpt><trkpt lat="37.9223161657834" lon="13.95376565758128"><ele>610.0</ele><time>2026-04-09T08:40:40Z</time></trkpt><trkpt lat="37.92217853145369" lon="13.953914387932308"><ele>610.0</ele><time>2026-04-09T08:40:41Z</time></trkpt><trkpt lat="37.92202766939151" lon="13.954057365311304"><ele>610.0</ele><time>2026-04-09T08:40:42Z</time></trkpt><trkpt lat="37.92187954127581" lon="13.954182516349272"><ele>609.6666666666667</ele><time>2026-04-09T08:40:43Z</time></trkpt><trkpt lat="37.921740337462374" lon="13.954301437488967"><ele>609.3333333333334</ele><time>2026-04-09T08:40:44Z</time></trkpt><trkpt lat="37.921609790805945" lon="13.95441296840561"><ele>609.0</ele><time>2026-04-09T08:40:45Z</time></trkpt><trkpt lat="37.92148092161808" lon="13.954531866733305"><ele>612.6666666666666</ele><time>2026-04-09T08:40:46Z</time></trkpt><trkpt lat="37.921354169013235" lon="13.95465908363606"><ele>616.3333333333333</ele><time>2026-04-09T08:40:47Z</time></trkpt><trkpt lat="37.92123658856544" lon="13.954782052240738"><ele>620.0</ele><time>2026-04-09T08:40:48Z</time></trkpt><trkpt lat="37.921122104567026" lon="13.954905983380627"><ele>620.0</ele><time>2026-04-09T08:40:49Z</time></trkpt><trkpt lat="37.921015277868555" lon="13.955020847616103"><ele>620.0</ele><time>2026-04-09T08:40:50Z</time></trkpt><trkpt lat="37.92091187196667" lon="13.95513454388306"><ele>620.0</ele><time>2026-04-09T08:40:51Z</time></trkpt><trkpt lat="37.920811345826635" lon="13.955249253889491"><ele>620.0</ele><time>2026-04-09T08:40:52Z</time></trkpt><trkpt lat="37.92071733001947" lon="13.95534971795595"><ele>622.1666666666666</ele><time>2026-04-09T08:40:53Z</time></trkpt><trkpt lat="37.92062822202846" lon="13.955438304168856"><ele>624.3333333333333</ele><time>2026-04-09T08:40:54Z</time></trkpt><trkpt lat="37.92056241022154" lon="13.95551220114701"><ele>626.5</ele><time>2026-04-09T08:40:55Z</time></trkpt><trkpt lat="37.92051511195984" lon="13.95557974464025"><ele>628.6666666666666</ele><time>2026-04-09T08:40:56Z</time></trkpt><trkpt lat="37.920476253023" lon="13.955664732577002"><ele>630.8333333333334</ele><time>2026-04-09T08:40:57Z</time></trkpt><trkpt lat="37.92045767399295" lon="13.955774975857665"><ele>633.0</ele><time>2026-04-09T08:40:58Z</time></trkpt><trkpt lat="37.92046545372439" lon="13.955893296671267"><ele>636.0</ele><time>2026-04-09T08:40:59Z</time></trkpt><trkpt lat="37.92050224387068" lon="13.956007769200577"><ele>639.0</ele><time>2026-04-09T08:41:00Z</time></trkpt><trkpt lat="37.92056934975866" lon="13.956113999285643"><ele>642.0</ele><time>2026-04-09T08:41:01Z</time></trkpt><trkpt lat="37.920656433362744" lon="13.956196899454676"><ele>645.0</ele><time>2026-04-09T08:41:02Z</time></trkpt><trkpt lat="37.920764823411936" lon="13.95624011164254"><ele>648.0</ele><time>2026-04-09T08:41:03Z</time></trkpt><trkpt lat="37.920893013944536" lon="13.95625537392962"><ele>645.3333333333334</ele><time>2026-04-09T08:41:04Z</time></trkpt><trkpt lat="37.92105376761904" lon="13.956261017116807"><ele>642.6666666666667</ele><time>2026-04-09T08:41:05Z</time></trkpt><trkpt lat="37.92121578941871" lon="13.956274011192278"><ele>640.0</ele><time>2026-04-09T08:41:06Z</time></trkpt><trkpt lat="37.921354041204204" lon="13.956291810435781"><ele>640.0</ele><time>2026-04-09T08:41:07Z</time></trkpt><trkpt lat="37.92148051230384" lon="13.956304536875264"><ele>640.0</ele><time>2026-04-09T08:41:08Z</time></trkpt><trkpt lat="37.92159128289446" lon="13.956322787788455"><ele>640.0</ele><time>2026-04-09T08:41:09Z</time></trkpt><trkpt lat="37.921676322381934" lon="13.956363610389706"><ele>640.0</ele><time>2026-04-09T08:41:10Z</time></trkpt><trkpt lat="37.92173486730332" lon="13.95643812284797"><ele>640.0</ele><time>2026-04-09T08:41:11Z</time></trkpt><trkpt lat="37.92176831958125" lon="13.956542763662613"><ele>640.2</ele><time>2026-04-09T08:41:12Z</time></trkpt><trkpt lat="37.92176810624322" lon="13.956657970195456"><ele>640.4</ele><time>2026-04-09T08:41:13Z</time></trkpt><trkpt lat="37.92173673027318" lon="13.956766324605738"><ele>640.5999999999999</ele><time>2026-04-09T08:41:14Z</time></trkpt><trkpt lat="37.921654982751214" lon="13.956842778513566"><ele>640.8</ele><time>2026-04-09T08:41:15Z</time></trkpt><trkpt lat="37.92156409423518" lon="13.956952710331288"><ele>641.0</ele><time>2026-04-09T08:41:15.999Z</time></trkpt><trkpt lat="37.92146435079992" lon="13.957087506005601"><ele>641.0</ele><time>2026-04-09T08:41:16.999Z</time></trkpt><trkpt lat="37.92135548900853" lon="13.95720187450079"><ele>641.0</ele><time>2026-04-09T08:41:17.999Z</time></trkpt><trkpt lat="37.921271604212016" lon="13.957310204813032"><ele>641.0</ele><time>2026-04-09T08:41:18.999Z</time></trkpt><trkpt lat="37.92118702840085" lon="13.957417666733761"><ele>641.0</ele><time>2026-04-09T08:41:19.999Z</time></trkpt><trkpt lat="37.9211078434554" lon="13.957535802617448"><ele>642.0</ele><time>2026-04-09T08:41:20.999Z</time></trkpt><trkpt lat="37.92104839525603" lon="13.957677938803666"><ele>643.0</ele><time>2026-04-09T08:41:21.999Z</time></trkpt><trkpt lat="37.921011115535045" lon="13.957827392780056"><ele>644.0</ele><time>2026-04-09T08:41:22.999Z</time></trkpt><trkpt lat="37.92097981736166" lon="13.957959473828863"><ele>645.0</ele><time>2026-04-09T08:41:23.999Z</time></trkpt><trkpt lat="37.920961086870356" lon="13.958071492442143"><ele>645.0</ele><time>2026-04-09T08:41:24.999Z</time></trkpt><trkpt lat="37.92096049559223" lon="13.958178457617652"><ele>645.0</ele><time>2026-04-09T08:41:25.999Z</time></trkpt><trkpt lat="37.92099073818464" lon="13.958288209546483"><ele>645.0</ele><time>2026-04-09T08:41:26.999Z</time></trkpt><trkpt lat="37.921049653618766" lon="13.958393045232434"><ele>645.0</ele><time>2026-04-09T08:41:27.999Z</time></trkpt><trkpt lat="37.92113101053552" lon="13.958483694810603"><ele>645.0</ele><time>2026-04-09T08:41:28.999Z</time></trkpt><trkpt lat="37.921210387356204" lon="13.958582963087164"><ele>649.0</ele><time>2026-04-09T08:41:29.999Z</time></trkpt><trkpt lat="37.92128550963059" lon="13.95869129537662"><ele>653.0</ele><time>2026-04-09T08:41:30.999Z</time></trkpt><trkpt lat="37.92135724941341" lon="13.958799673612551"><ele>657.0</ele><time>2026-04-09T08:41:31.999Z</time></trkpt><trkpt lat="37.92143547819737" lon="13.95891107567242"><ele>661.0</ele><time>2026-04-09T08:41:32.999Z</time></trkpt><trkpt lat="37.92153379556067" lon="13.959011884564694"><ele>661.0</ele><time>2026-04-09T08:41:33.999Z</time></trkpt><trkpt lat="37.921653648850345" lon="13.959107148250284"><ele>661.0</ele><time>2026-04-09T08:41:34.999Z</time></trkpt><trkpt lat="37.921789601685795" lon="13.959208351024737"><ele>661.0</ele><time>2026-04-09T08:41:35.999Z</time></trkpt><trkpt lat="37.92192718653748" lon="13.959316308267457"><ele>664.3333333333334</ele><time>2026-04-09T08:41:36.999Z</time></trkpt><trkpt lat="37.922070537673235" lon="13.959438028163207"><ele>667.6666666666666</ele><time>2026-04-09T08:41:37.999Z</time></trkpt><trkpt lat="37.92220923397895" lon="13.959558373743953"><ele>671.0</ele><time>2026-04-09T08:41:38.999Z</time></trkpt><trkpt lat="37.92234697065773" lon="13.95965321276885"><ele>671.0</ele><time>2026-04-09T08:41:39.999Z</time></trkpt><trkpt lat="37.92249450367247" lon="13.95971545711155"><ele>671.0</ele><time>2026-04-09T08:41:40.999Z</time></trkpt><trkpt lat="37.92264614209273" lon="13.959763551811983"><ele>671.0</ele><time>2026-04-09T08:41:41.999Z</time></trkpt><trkpt lat="37.92278770754932" lon="13.959810190195652"><ele>670.5999999999999</ele><time>2026-04-09T08:41:42.999Z</time></trkpt><trkpt lat="37.922912828716285" lon="13.95985974305841"><ele>670.2</ele><time>2026-04-09T08:41:43.999Z</time></trkpt><trkpt lat="37.92302417541421" lon="13.959907921864271"><ele>669.8</ele><time>2026-04-09T08:41:44.999Z</time></trkpt><trkpt lat="37.92312162855022" lon="13.959951827948963"><ele>669.4000000000001</ele><time>2026-04-09T08:41:45.999Z</time></trkpt><trkpt lat="37.92320130184892" lon="13.960006449487677"><ele>669.0</ele><time>2026-04-09T08:41:46.999Z</time></trkpt><trkpt lat="37.92325396413455" lon="13.960088945649852"><ele>669.0</ele><time>2026-04-09T08:41:47.999Z</time></trkpt><trkpt lat="37.923274964133" lon="13.96019557466397"><ele>669.0</ele><time>2026-04-09T08:41:48.999Z</time></trkpt><trkpt lat="37.923265972736004" lon="13.960311282269299"><ele>669.0</ele><time>2026-04-09T08:41:49.999Z</time></trkpt><trkpt lat="37.92322607185834" lon="13.960420759447045"><ele>669.0</ele><time>2026-04-09T08:41:50.999Z</time></trkpt><trkpt lat="37.92314207879427" lon="13.960494092908158"><ele>669.0</ele><time>2026-04-09T08:41:51.999Z</time></trkpt><trkpt lat="37.92305433325702" lon="13.960575513625008"><ele>669.0</ele><time>2026-04-09T08:41:52.999Z</time></trkpt><trkpt lat="37.9229537707168" lon="13.960631881560134"><ele>669.0</ele><time>2026-04-09T08:41:53.999Z</time></trkpt><trkpt lat="37.92287494014059" lon="13.960712910990809"><ele>669.0</ele><time>2026-04-09T08:41:54.999Z</time></trkpt><trkpt lat="37.922825190199156" lon="13.960841603776016"><ele>669.0</ele><time>2026-04-09T08:41:55.999Z</time></trkpt><trkpt lat="37.92279912123984" lon="13.961010184597413"><ele>668.6666666666666</ele><time>2026-04-09T08:41:56.999Z</time></trkpt><trkpt lat="37.92277962530061" lon="13.961208953329667"><ele>668.3333333333333</ele><time>2026-04-09T08:41:57.999Z</time></trkpt><trkpt lat="37.9227537167631" lon="13.961428703010842"><ele>668.0</ele><time>2026-04-09T08:41:58.999Z</time></trkpt><trkpt lat="37.92272374347704" lon="13.961649665036397"><ele>668.3333333333333</ele><time>2026-04-09T08:41:59.999Z</time></trkpt><trkpt lat="37.92269411741796" lon="13.961847246097543"><ele>668.6666666666666</ele><time>2026-04-09T08:42:00.999Z</time></trkpt><trkpt lat="37.92266562213338" lon="13.96203972121272"><ele>669.0</ele><time>2026-04-09T08:42:02Z</time></trkpt><trkpt lat="37.922645602579095" lon="13.962211726147284"><ele>669.0</ele><time>2026-04-09T08:42:03Z</time></trkpt><trkpt lat="37.92261710108274" lon="13.962361068285752"><ele>669.0</ele><time>2026-04-09T08:42:04Z</time></trkpt><trkpt lat="37.92256046602841" lon="13.962483839812712"><ele>669.0</ele><time>2026-04-09T08:42:05Z</time></trkpt><trkpt lat="37.922474345031965" lon="13.96258678529876"><ele>669.0</ele><time>2026-04-09T08:42:06Z</time></trkpt><trkpt lat="37.92234663423107" lon="13.962662588545006"><ele>672.25</ele><time>2026-04-09T08:42:07Z</time></trkpt><trkpt lat="37.922234211725716" lon="13.96277259268673"><ele>675.5</ele><time>2026-04-09T08:42:08Z</time></trkpt><trkpt lat="37.922129678404694" lon="13.962859709120556"><ele>678.75</ele><time>2026-04-09T08:42:09Z</time></trkpt><trkpt lat="37.922043516243086" lon="13.962973451059717"><ele>682.0</ele><time>2026-04-09T08:42:10Z</time></trkpt><trkpt lat="37.921980628900556" lon="13.963114394616483"><ele>682.0</ele><time>2026-04-09T08:42:11Z</time></trkpt><trkpt lat="37.92192474506028" lon="13.963276015104537"><ele>682.0</ele><time>2026-04-09T08:42:12Z</time></trkpt><trkpt lat="37.92188100155636" lon="13.963425487802807"><ele>682.0</ele><time>2026-04-09T08:42:13Z</time></trkpt><trkpt lat="37.921839890320754" lon="13.963551971028346"><ele>682.0</ele><time>2026-04-09T08:42:14Z</time></trkpt><trkpt lat="37.92178463727406" lon="13.963651632438266"><ele>684.0</ele><time>2026-04-09T08:42:15Z</time></trkpt><trkpt lat="37.92168560445462" lon="13.963694188274708"><ele>686.0</ele><time>2026-04-09T08:42:16Z</time></trkpt><trkpt lat="37.92158324784681" lon="13.963736854715966"><ele>688.0</ele><time>2026-04-09T08:42:17Z</time></trkpt><trkpt lat="37.921475833351735" lon="13.9637905420453"><ele>690.0</ele><time>2026-04-09T08:42:18Z</time></trkpt><trkpt lat="37.92136703661437" lon="13.963837642802613"><ele>692.0</ele><time>2026-04-09T08:42:19Z</time></trkpt><trkpt lat="37.921284718015755" lon="13.96391436260511"><ele>692.0</ele><time>2026-04-09T08:42:20Z</time></trkpt><trkpt lat="37.92122823865896" lon="13.96401582214036"><ele>692.0</ele><time>2026-04-09T08:42:21Z</time></trkpt><trkpt lat="37.92118835850171" lon="13.964144283732741"><ele>692.0</ele><time>2026-04-09T08:42:22Z</time></trkpt><trkpt lat="37.92116133310239" lon="13.964309154087063"><ele>692.0</ele><time>2026-04-09T08:42:23Z</time></trkpt><trkpt lat="37.92113657015269" lon="13.964476314301415"><ele>691.8</ele><time>2026-04-09T08:42:24Z</time></trkpt><trkpt lat="37.92109445532116" lon="13.964601837480574"><ele>691.6</ele><time>2026-04-09T08:42:25Z</time></trkpt><trkpt lat="37.921055143379135" lon="13.964695545157513"><ele>691.4</ele><time>2026-04-09T08:42:26Z</time></trkpt><trkpt lat="37.9209903493255" lon="13.96474561922749"><ele>691.1999999999999</ele><time>2026-04-09T08:42:27Z</time></trkpt><trkpt lat="37.92090887408772" lon="13.96475776499762"><ele>691.0</ele><time>2026-04-09T08:42:28Z</time></trkpt><trkpt lat="37.92080522907128" lon="13.964761589462427"><ele>693.0</ele><time>2026-04-09T08:42:29Z</time></trkpt><trkpt lat="37.92068812846477" lon="13.964787754523616"><ele>695.0</ele><time>2026-04-09T08:42:30Z</time></trkpt><trkpt lat="37.92057248385823" lon="13.964800514025248"><ele>697.0</ele><time>2026-04-09T08:42:31Z</time></trkpt><trkpt lat="37.92046383470365" lon="13.964875746840583"><ele>699.0</ele><time>2026-04-09T08:42:32Z</time></trkpt><trkpt lat="37.920369727051494" lon="13.964990608135334"><ele>699.5</ele><time>2026-04-09T08:42:33Z</time></trkpt><trkpt lat="37.920289319384004" lon="13.965120507777392"><ele>700.0</ele><time>2026-04-09T08:42:34Z</time></trkpt><trkpt lat="37.92022053396541" lon="13.965248660577759"><ele>700.5</ele><time>2026-04-09T08:42:35Z</time></trkpt><trkpt lat="37.92014993858124" lon="13.965365296950775"><ele>701.0</ele><time>2026-04-09T08:42:36Z</time></trkpt><trkpt lat="37.92008695791425" lon="13.965477463332384"><ele>701.0</ele><time>2026-04-09T08:42:37Z</time></trkpt><trkpt lat="37.920057775802064" lon="13.965600581173131"><ele>701.0</ele><time>2026-04-09T08:42:38Z</time></trkpt><trkpt lat="37.92007895230565" lon="13.965723576799022"><ele>701.0</ele><time>2026-04-09T08:42:39Z</time></trkpt><trkpt lat="37.920126783588515" lon="13.965838732180067"><ele>701.0</ele><time>2026-04-09T08:42:40Z</time></trkpt><trkpt lat="37.92019892023211" lon="13.965952986096655"><ele>701.0</ele><time>2026-04-09T08:42:41Z</time></trkpt><trkpt lat="37.92028646157566" lon="13.96608627772258"><ele>703.25</ele><time>2026-04-09T08:42:42Z</time></trkpt><trkpt lat="37.920390537058296" lon="13.966238171700693"><ele>705.5</ele><time>2026-04-09T08:42:43Z</time></trkpt><trkpt lat="37.920486609499164" lon="13.966383340199405"><ele>707.75</ele><time>2026-04-09T08:42:44Z</time></trkpt><trkpt lat="37.92056819991838" lon="13.966501048078111"><ele>710.0</ele><time>2026-04-09T08:42:45Z</time></trkpt><trkpt lat="37.92063011946448" lon="13.966612135411236"><ele>712.75</ele><time>2026-04-09T08:42:46Z</time></trkpt><trkpt lat="37.920660884641194" lon="13.96674066664943"><ele>715.5</ele><time>2026-04-09T08:42:47Z</time></trkpt><trkpt lat="37.92066018904624" lon="13.966894656017116"><ele>718.25</ele><time>2026-04-09T08:42:48Z</time></trkpt><trkpt lat="37.92064446229312" lon="13.967045970379745"><ele>721.0</ele><time>2026-04-09T08:42:49Z</time></trkpt><trkpt lat="37.92065966429537" lon="13.967183111489948"><ele>721.0</ele><time>2026-04-09T08:42:50Z</time></trkpt><trkpt lat="37.92071336692194" lon="13.96730215223638"><ele>721.0</ele><time>2026-04-09T08:42:51Z</time></trkpt><trkpt lat="37.92079912553911" lon="13.967408062144528"><ele>721.0</ele><time>2026-04-09T08:42:52Z</time></trkpt><trkpt lat="37.92089692453376" lon="13.967517386940395"><ele>721.0</ele><time>2026-04-09T08:42:53Z</time></trkpt><trkpt lat="37.920993969356715" lon="13.967638869515651"><ele>721.3333333333334</ele><time>2026-04-09T08:42:54Z</time></trkpt><trkpt lat="37.92109952799902" lon="13.96777541106823"><ele>721.6666666666666</ele><time>2026-04-09T08:42:55Z</time></trkpt><trkpt lat="37.921215092858965" lon="13.967916998974522"><ele>722.0</ele><time>2026-04-09T08:42:56Z</time></trkpt><trkpt lat="37.92131788160036" lon="13.968040554246926"><ele>722.0</ele><time>2026-04-09T08:42:57Z</time></trkpt><trkpt lat="37.92139400174948" lon="13.968166385422402"><ele>722.0</ele><time>2026-04-09T08:42:58Z</time></trkpt><trkpt lat="37.92144438120706" lon="13.968311620842327"><ele>722.0</ele><time>2026-04-09T08:42:59Z</time></trkpt><trkpt lat="37.92147174749072" lon="13.968468531393079"><ele>722.0</ele><time>2026-04-09T08:43:00Z</time></trkpt><trkpt lat="37.92148706793854" lon="13.968629549580497"><ele>724.5</ele><time>2026-04-09T08:43:01Z</time></trkpt><trkpt lat="37.92150651015621" lon="13.9687970464109"><ele>727.0</ele><time>2026-04-09T08:43:02Z</time></trkpt><trkpt lat="37.92152643129913" lon="13.968973751406965"><ele>729.5</ele><time>2026-04-09T08:43:03Z</time></trkpt><trkpt lat="37.921554104315234" lon="13.96914540335848"><ele>732.0</ele><time>2026-04-09T08:43:04Z</time></trkpt><trkpt lat="37.9216028255011" lon="13.969311322475745"><ele>732.0</ele><time>2026-04-09T08:43:05Z</time></trkpt><trkpt lat="37.92165868956953" lon="13.969459540535333"><ele>732.0</ele><time>2026-04-09T08:43:06Z</time></trkpt><trkpt lat="37.921716973536725" lon="13.969593060906753"><ele>732.0</ele><time>2026-04-09T08:43:07Z</time></trkpt><trkpt lat="37.92179294322194" lon="13.969708405695469"><ele>732.0</ele><time>2026-04-09T08:43:08Z</time></trkpt><trkpt lat="37.92187850309154" lon="13.96981857190507"><ele>732.0</ele><time>2026-04-09T08:43:09Z</time></trkpt><trkpt lat="37.92196374041533" lon="13.969925970607214"><ele>732.0</ele><time>2026-04-09T08:43:10Z</time></trkpt><trkpt lat="37.922037610051156" lon="13.970028817648402"><ele>732.0</ele><time>2026-04-09T08:43:11Z</time></trkpt><trkpt lat="37.9221073887676" lon="13.970141000218806"><ele>732.0</ele><time>2026-04-09T08:43:12Z</time></trkpt><trkpt lat="37.92218547309515" lon="13.970215332685225"><ele>732.0</ele><time>2026-04-09T08:43:13Z</time></trkpt><trkpt lat="37.922267766714796" lon="13.970271563508241"><ele>734.5</ele><time>2026-04-09T08:43:14Z</time></trkpt><trkpt lat="37.92236470547314" lon="13.970316101399266"><ele>737.0</ele><time>2026-04-09T08:43:15Z</time></trkpt><trkpt lat="37.92247043987731" lon="13.970363563385419"><ele>739.5</ele><time>2026-04-09T08:43:16Z</time></trkpt><trkpt lat="37.922579696634315" lon="13.97042023572814"><ele>742.0</ele><time>2026-04-09T08:43:16.999Z</time></trkpt><trkpt lat="37.9226814335112" lon="13.970493405697512"><ele>742.0</ele><time>2026-04-09T08:43:17.999Z</time></trkpt><trkpt lat="37.92277538385811" lon="13.9705882772531"><ele>742.0</ele><time>2026-04-09T08:43:18.999Z</time></trkpt><trkpt lat="37.92285802753236" lon="13.970683512062807"><ele>742.0</ele><time>2026-04-09T08:43:19.999Z</time></trkpt><trkpt lat="37.922935045937294" lon="13.970758371811174"><ele>742.0</ele><time>2026-04-09T08:43:20.999Z</time></trkpt><trkpt lat="37.923019023386516" lon="13.970806925842"><ele>742.0</ele><time>2026-04-09T08:43:21.999Z</time></trkpt><trkpt lat="37.92310374181254" lon="13.970838706841217"><ele>742.8333333333334</ele><time>2026-04-09T08:43:22.999Z</time></trkpt><trkpt lat="37.92317500600784" lon="13.97087187877534"><ele>743.6666666666667</ele><time>2026-04-09T08:43:23.999Z</time></trkpt><trkpt lat="37.92322747022233" lon="13.970967624607535"><ele>744.5</ele><time>2026-04-09T08:43:25.999Z</time></trkpt><trkpt lat="37.92316168848443" lon="13.971065493912025"><ele>745.3333333333334</ele><time>2026-04-09T08:43:27.999Z</time></trkpt><trkpt lat="37.923107649777734" lon="13.971108930610994"><ele>746.1666666666666</ele><time>2026-04-09T08:43:28.999Z</time></trkpt><trkpt lat="37.92303301732951" lon="13.971143279023588"><ele>747.0</ele><time>2026-04-09T08:43:29.999Z</time></trkpt><trkpt lat="37.92292500590544" lon="13.971166474434021"><ele>747.0</ele><time>2026-04-09T08:43:30.999Z</time></trkpt><trkpt lat="37.922789022945175" lon="13.971177167056759"><ele>747.0</ele><time>2026-04-09T08:43:31.999Z</time></trkpt><trkpt lat="37.92264762971104" lon="13.971157441184486"><ele>747.0</ele><time>2026-04-09T08:43:32.999Z</time></trkpt><trkpt lat="37.92251679471413" lon="13.971098528408058"><ele>747.0</ele><time>2026-04-09T08:43:33.999Z</time></trkpt><trkpt lat="37.922361116588824" lon="13.971033023459295"><ele>747.0</ele><time>2026-04-09T08:43:34.999Z</time></trkpt><trkpt lat="37.92222127962274" lon="13.970987479962645"><ele>747.0</ele><time>2026-04-09T08:43:35.999Z</time></trkpt><trkpt lat="37.92209480903319" lon="13.970979665854587"><ele>747.0</ele><time>2026-04-09T08:43:36.999Z</time></trkpt><trkpt lat="37.92197024700731" lon="13.970995480769915"><ele>747.0</ele><time>2026-04-09T08:43:37.999Z</time></trkpt><trkpt lat="37.921829450750316" lon="13.971054022502829"><ele>748.5</ele><time>2026-04-09T08:43:38.999Z</time></trkpt><trkpt lat="37.92167902499044" lon="13.97109925966576"><ele>750.0</ele><time>2026-04-09T08:43:39.999Z</time></trkpt><trkpt lat="37.92153875787948" lon="13.971089038193565"><ele>751.5</ele><time>2026-04-09T08:43:40.999Z</time></trkpt><trkpt lat="37.921431604443306" lon="13.970970312987493"><ele>753.0</ele><time>2026-04-09T08:43:41.999Z</time></trkpt><trkpt lat="37.921280032629326" lon="13.970879617639808"><ele>753.0</ele><time>2026-04-09T08:43:42.999Z</time></trkpt><trkpt lat="37.92112508322316" lon="13.970782421562651"><ele>753.0</ele><time>2026-04-09T08:43:43.999Z</time></trkpt><trkpt lat="37.920991146731524" lon="13.970681041809659"><ele>753.0</ele><time>2026-04-09T08:43:44.999Z</time></trkpt><trkpt lat="37.920887016137435" lon="13.97055699002863"><ele>753.6666666666666</ele><time>2026-04-09T08:43:45.999Z</time></trkpt><trkpt lat="37.920783434210705" lon="13.970406369420191"><ele>754.3333333333333</ele><time>2026-04-09T08:43:46.999Z</time></trkpt><trkpt lat="37.92066445619055" lon="13.97028366058224"><ele>755.0</ele><time>2026-04-09T08:43:47.999Z</time></trkpt><trkpt lat="37.92051865451219" lon="13.97021119425561"><ele>755.0</ele><time>2026-04-09T08:43:48.999Z</time></trkpt><trkpt lat="37.92040771783608" lon="13.970113367392798"><ele>755.0</ele><time>2026-04-09T08:43:49.999Z</time></trkpt><trkpt lat="37.920311130118336" lon="13.970015849048503"><ele>755.0</ele><time>2026-04-09T08:43:50.999Z</time></trkpt><trkpt lat="37.92025194492892" lon="13.969879914814229"><ele>755.0</ele><time>2026-04-09T08:43:51.999Z</time></trkpt><trkpt lat="37.92017935243145" lon="13.969739426972044"><ele>755.0</ele><time>2026-04-09T08:43:52.999Z</time></trkpt><trkpt lat="37.920071988661796" lon="13.969627437407128"><ele>755.0</ele><time>2026-04-09T08:43:53.999Z</time></trkpt><trkpt lat="37.91995578394332" lon="13.969535838070687"><ele>755.0</ele><time>2026-04-09T08:43:54.999Z</time></trkpt><trkpt lat="37.919831421140884" lon="13.969470866843865"><ele>755.0</ele><time>2026-04-09T08:43:55.999Z</time></trkpt><trkpt lat="37.91974545681368" lon="13.969385209384887"><ele>755.25</ele><time>2026-04-09T08:43:56.999Z</time></trkpt><trkpt lat="37.91967608271921" lon="13.969294374529666"><ele>755.5</ele><time>2026-04-09T08:43:57.999Z</time></trkpt><trkpt lat="37.919625843571936" lon="13.969158202975487"><ele>755.75</ele><time>2026-04-09T08:43:58.999Z</time></trkpt><trkpt lat="37.91957248360789" lon="13.968986381965701"><ele>756.0</ele><time>2026-04-09T08:43:59.999Z</time></trkpt><trkpt lat="37.91950364271314" lon="13.9688103379695"><ele>756.6666666666666</ele><time>2026-04-09T08:44:00.999Z</time></trkpt><trkpt lat="37.919405497724334" lon="13.968670108839072"><ele>757.3333333333333</ele><time>2026-04-09T08:44:01.999Z</time></trkpt><trkpt lat="37.91927837895761" lon="13.968577448051553"><ele>758.0</ele><time>2026-04-09T08:44:02.999Z</time></trkpt><trkpt lat="37.919137930337826" lon="13.968482563808655"><ele>757.6666666666666</ele><time>2026-04-09T08:44:03.999Z</time></trkpt><trkpt lat="37.918997029007166" lon="13.968364605594061"><ele>757.3333333333334</ele><time>2026-04-09T08:44:04.999Z</time></trkpt><trkpt lat="37.9188333677693" lon="13.968291703666754"><ele>757.0</ele><time>2026-04-09T08:44:05.999Z</time></trkpt><trkpt lat="37.91869241083456" lon="13.968224312428447"><ele>757.0</ele><time>2026-04-09T08:44:06.999Z</time></trkpt><trkpt lat="37.918569511967334" lon="13.968147922802164"><ele>757.0</ele><time>2026-04-09T08:44:08Z</time></trkpt><trkpt lat="37.9184525168006" lon="13.96807645471684"><ele>757.0</ele><time>2026-04-09T08:44:09Z</time></trkpt><trkpt lat="37.91836091497929" lon="13.967979609223537"><ele>757.0</ele><time>2026-04-09T08:44:10Z</time></trkpt><trkpt lat="37.91827262841169" lon="13.967871518330105"><ele>758.0</ele><time>2026-04-09T08:44:11Z</time></trkpt><trkpt lat="37.91818197257991" lon="13.96776934962334"><ele>759.0</ele><time>2026-04-09T08:44:12Z</time></trkpt><trkpt lat="37.918093628403696" lon="13.967691375147409"><ele>760.0</ele><time>2026-04-09T08:44:13Z</time></trkpt><trkpt lat="37.91799351490003" lon="13.967672236404415"><ele>761.0</ele><time>2026-04-09T08:44:14Z</time></trkpt><trkpt lat="37.917902962529" lon="13.967675178263512"><ele>762.0</ele><time>2026-04-09T08:44:15Z</time></trkpt><trkpt lat="37.91779731556273" lon="13.967659672134758"><ele>762.0</ele><time>2026-04-09T08:44:16Z</time></trkpt><trkpt lat="37.91773993280024" lon="13.967835003005916"><ele>762.0</ele><time>2026-04-09T08:44:17Z</time></trkpt><trkpt lat="37.917704770008385" lon="13.967969348870126"><ele>762.0</ele><time>2026-04-09T08:44:18Z</time></trkpt><trkpt lat="37.91768465006624" lon="13.968098863371846"><ele>762.0</ele><time>2026-04-09T08:44:19Z</time></trkpt><trkpt lat="37.917635097517746" lon="13.968185580314703"><ele>764.25</ele><time>2026-04-09T08:44:20Z</time></trkpt><trkpt lat="37.91754460036403" lon="13.968240643000815"><ele>766.5</ele><time>2026-04-09T08:44:21Z</time></trkpt><trkpt lat="37.91742747736872" lon="13.96824367025198"><ele>768.75</ele><time>2026-04-09T08:44:22Z</time></trkpt><trkpt lat="37.9173104398031" lon="13.96821064770936"><ele>771.0</ele><time>2026-04-09T08:44:23Z</time></trkpt><trkpt lat="37.91716357683981" lon="13.968205751630993"><ele>771.0</ele><time>2026-04-09T08:44:24Z</time></trkpt><trkpt lat="37.91702462643921" lon="13.968176699998402"><ele>771.0</ele><time>2026-04-09T08:44:25Z</time></trkpt><trkpt lat="37.91692249840065" lon="13.968116962551662"><ele>771.0</ele><time>2026-04-09T08:44:26Z</time></trkpt><trkpt lat="37.91684313647266" lon="13.968031189864202"><ele>771.0</ele><time>2026-04-09T08:44:27Z</time></trkpt><trkpt lat="37.916756183982045" lon="13.967942336575547"><ele>772.1999999999999</ele><time>2026-04-09T08:44:28Z</time></trkpt><trkpt lat="37.916669371015516" lon="13.967896645943215"><ele>773.4</ele><time>2026-04-09T08:44:29Z</time></trkpt><trkpt lat="37.91657798613937" lon="13.967877615407007"><ele>774.6</ele><time>2026-04-09T08:44:30Z</time></trkpt><trkpt lat="37.91647749236615" lon="13.967918334474971"><ele>775.8</ele><time>2026-04-09T08:44:31Z</time></trkpt><trkpt lat="37.916369541983975" lon="13.967997636196356"><ele>777.0</ele><time>2026-04-09T08:44:32Z</time></trkpt><trkpt lat="37.91622890327234" lon="13.96806806750524"><ele>777.0</ele><time>2026-04-09T08:44:33Z</time></trkpt><trkpt lat="37.91607098869924" lon="13.968157479120496"><ele>777.0</ele><time>2026-04-09T08:44:34Z</time></trkpt><trkpt lat="37.915922691895595" lon="13.96823337249263"><ele>777.0</ele><time>2026-04-09T08:44:35Z</time></trkpt><trkpt lat="37.91575744709587" lon="13.968285076426715"><ele>776.5</ele><time>2026-04-09T08:44:36Z</time></trkpt><trkpt lat="37.91558238735008" lon="13.968292271604273"><ele>776.0</ele><time>2026-04-09T08:44:37Z</time></trkpt><trkpt lat="37.915435699801264" lon="13.96831889188122"><ele>775.5</ele><time>2026-04-09T08:44:38Z</time></trkpt><trkpt lat="37.91532557933169" lon="13.968330558552493"><ele>775.0</ele><time>2026-04-09T08:44:39Z</time></trkpt><trkpt lat="37.915226722723126" lon="13.968394898948455"><ele>775.0</ele><time>2026-04-09T08:44:40Z</time></trkpt><trkpt lat="37.91512182441976" lon="13.968520310273131"><ele>775.0</ele><time>2026-04-09T08:44:41Z</time></trkpt><trkpt lat="37.91502441046101" lon="13.968692363420715"><ele>775.0</ele><time>2026-04-09T08:44:42Z</time></trkpt><trkpt lat="37.91493885426725" lon="13.968892342179918"><ele>775.0</ele><time>2026-04-09T08:44:43Z</time></trkpt><trkpt lat="37.91486839050051" lon="13.969076296441207"><ele>775.0</ele><time>2026-04-09T08:44:44Z</time></trkpt><trkpt lat="37.91478795989978" lon="13.969213428251193"><ele>775.0</ele><time>2026-04-09T08:44:45Z</time></trkpt><trkpt lat="37.914655360680584" lon="13.969309370453301"><ele>775.0</ele><time>2026-04-09T08:44:46Z</time></trkpt><trkpt lat="37.91451947012368" lon="13.969463214880014"><ele>775.0</ele><time>2026-04-09T08:44:47Z</time></trkpt><trkpt lat="37.91443023383696" lon="13.969631330330834"><ele>775.0</ele><time>2026-04-09T08:44:48Z</time></trkpt><trkpt lat="37.91434980914245" lon="13.96975867819945"><ele>775.0</ele><time>2026-04-09T08:44:49Z</time></trkpt><trkpt lat="37.914237345837066" lon="13.969811620355184"><ele>775.0</ele><time>2026-04-09T08:44:50Z</time></trkpt><trkpt lat="37.91410132568314" lon="13.969879762507853"><ele>778.5</ele><time>2026-04-09T08:44:51Z</time></trkpt><trkpt lat="37.91396430235728" lon="13.96997408832417"><ele>782.0</ele><time>2026-04-09T08:44:52Z</time></trkpt><trkpt lat="37.913860646537664" lon="13.9700650216871"><ele>785.5</ele><time>2026-04-09T08:44:53Z</time></trkpt><trkpt lat="37.91378870541094" lon="13.970211778805938"><ele>789.0</ele><time>2026-04-09T08:44:54Z</time></trkpt><trkpt lat="37.91374296385748" lon="13.970394936712225"><ele>789.0</ele><time>2026-04-09T08:44:55Z</time></trkpt><trkpt lat="37.91369998623717" lon="13.970592707283918"><ele>789.0</ele><time>2026-04-09T08:44:56Z</time></trkpt><trkpt lat="37.91362618827216" lon="13.970753875129958"><ele>789.0</ele><time>2026-04-09T08:44:57Z</time></trkpt><trkpt lat="37.913534859996155" lon="13.970860089510115"><ele>789.0</ele><time>2026-04-09T08:44:58Z</time></trkpt><trkpt lat="37.91345937525965" lon="13.970948826307295"><ele>790.8000000000001</ele><time>2026-04-09T08:44:59Z</time></trkpt><trkpt lat="37.91339503113899" lon="13.971013502934824"><ele>792.6</ele><time>2026-04-09T08:45:00Z</time></trkpt><trkpt lat="37.913318488688965" lon="13.97102600783985"><ele>794.4</ele><time>2026-04-09T08:45:01Z</time></trkpt><trkpt lat="37.91322074719224" lon="13.970959209907354"><ele>796.2</ele><time>2026-04-09T08:45:02Z</time></trkpt><trkpt lat="37.9131062366718" lon="13.970877916598342"><ele>798.0</ele><time>2026-04-09T08:45:03Z</time></trkpt><trkpt lat="37.91294846972886" lon="13.970767772143768"><ele>800.6666666666667</ele><time>2026-04-09T08:45:04Z</time></trkpt><trkpt lat="37.912791509079206" lon="13.97068175681839"><ele>803.3333333333334</ele><time>2026-04-09T08:45:05Z</time></trkpt><trkpt lat="37.912659797630354" lon="13.97060731618542"><ele>806.0</ele><time>2026-04-09T08:45:06Z</time></trkpt><trkpt lat="37.91252739395423" lon="13.970577062066882"><ele>806.0</ele><time>2026-04-09T08:45:07Z</time></trkpt><trkpt lat="37.91238636629422" lon="13.970595706857942"><ele>806.0</ele><time>2026-04-09T08:45:08Z</time></trkpt><trkpt lat="37.912222102645146" lon="13.970655983489143"><ele>806.0</ele><time>2026-04-09T08:45:09Z</time></trkpt><trkpt lat="37.91202343058198" lon="13.970729405843402"><ele>806.0</ele><time>2026-04-09T08:45:10Z</time></trkpt><trkpt lat="37.91184364596084" lon="13.970788349237795"><ele>806.0</ele><time>2026-04-09T08:45:11Z</time></trkpt><trkpt lat="37.91170536903263" lon="13.97082981979239"><ele>806.0</ele><time>2026-04-09T08:45:12Z</time></trkpt><trkpt lat="37.91160518077317" lon="13.970846654916354"><ele>806.0</ele><time>2026-04-09T08:45:13Z</time></trkpt><trkpt lat="37.91153189008924" lon="13.97082593232874"><ele>804.75</ele><time>2026-04-09T08:45:14Z</time></trkpt><trkpt lat="37.91150585801882" lon="13.970723182083702"><ele>803.5</ele><time>2026-04-09T08:45:15Z</time></trkpt><trkpt lat="37.911472801509596" lon="13.970608306264184"><ele>802.25</ele><time>2026-04-09T08:45:16Z</time></trkpt><trkpt lat="37.91139784203661" lon="13.970462778982084"><ele>801.0</ele><time>2026-04-09T08:45:17Z</time></trkpt><trkpt lat="37.91130275370952" lon="13.970339497582234"><ele>801.0</ele><time>2026-04-09T08:45:17.999Z</time></trkpt><trkpt lat="37.91115645634474" lon="13.970258951127999"><ele>801.0</ele><time>2026-04-09T08:45:18.999Z</time></trkpt><trkpt lat="37.91100096545518" lon="13.970183615340018"><ele>801.0</ele><time>2026-04-09T08:45:19.999Z</time></trkpt><trkpt lat="37.910875478853335" lon="13.970114029650013"><ele>799.8</ele><time>2026-04-09T08:45:20.999Z</time></trkpt><trkpt lat="37.91077330699747" lon="13.97007172697153"><ele>798.5999999999999</ele><time>2026-04-09T08:45:21.999Z</time></trkpt><trkpt lat="37.91068180044184" lon="13.970109476167528"><ele>797.4</ele><time>2026-04-09T08:45:22.999Z</time></trkpt><trkpt lat="37.910599684418024" lon="13.97018556886699"><ele>796.2</ele><time>2026-04-09T08:45:23.999Z</time></trkpt><trkpt lat="37.91054314737928" lon="13.970315531858617"><ele>795.0</ele><time>2026-04-09T08:45:24.999Z</time></trkpt><trkpt lat="37.91051265799018" lon="13.970484479158156"><ele>795.0</ele><time>2026-04-09T08:45:25.999Z</time></trkpt><trkpt lat="37.910483207698995" lon="13.970677041895568"><ele>795.0</ele><time>2026-04-09T08:45:26.999Z</time></trkpt><trkpt lat="37.91042367728287" lon="13.970828571188601"><ele>795.0</ele><time>2026-04-09T08:45:27.999Z</time></trkpt><trkpt lat="37.91030921346673" lon="13.970932569301869"><ele>795.0</ele><time>2026-04-09T08:45:28.999Z</time></trkpt><trkpt lat="37.910190780367564" lon="13.971075763040337"><ele>798.25</ele><time>2026-04-09T08:45:29.999Z</time></trkpt><trkpt lat="37.910069896769386" lon="13.97118241242284"><ele>801.5</ele><time>2026-04-09T08:45:30.999Z</time></trkpt><trkpt lat="37.90999108439529" lon="13.971293232889082"><ele>804.75</ele><time>2026-04-09T08:45:31.999Z</time></trkpt><trkpt lat="37.909940776178466" lon="13.971421383075295"><ele>808.0</ele><time>2026-04-09T08:45:32.999Z</time></trkpt><trkpt lat="37.90993460326451" lon="13.971560502191087"><ele>806.75</ele><time>2026-04-09T08:45:33.999Z</time></trkpt><trkpt lat="37.90996163343561" lon="13.971722530631377"><ele>805.5</ele><time>2026-04-09T08:45:34.999Z</time></trkpt><trkpt lat="37.910023552233795" lon="13.97189142684095"><ele>804.25</ele><time>2026-04-09T08:45:35.999Z</time></trkpt><trkpt lat="37.910062363054955" lon="13.972032232949266"><ele>803.0</ele><time>2026-04-09T08:45:36.999Z</time></trkpt><trkpt lat="37.91005920503315" lon="13.97216533822441"><ele>803.0</ele><time>2026-04-09T08:45:37.999Z</time></trkpt><trkpt lat="37.909982054667054" lon="13.972288090637882"><ele>803.0</ele><time>2026-04-09T08:45:38.999Z</time></trkpt><trkpt lat="37.909910036902694" lon="13.97241953397349"><ele>803.0</ele><time>2026-04-09T08:45:39.999Z</time></trkpt><trkpt lat="37.9098236988624" lon="13.972512764228698"><ele>803.0</ele><time>2026-04-09T08:45:40.999Z</time></trkpt><trkpt lat="37.90972056749233" lon="13.972535884441095"><ele>800.25</ele><time>2026-04-09T08:45:41.999Z</time></trkpt><trkpt lat="37.90958974749693" lon="13.972570599263804"><ele>797.5</ele><time>2026-04-09T08:45:42.999Z</time></trkpt><trkpt lat="37.909460630958876" lon="13.972608338196906"><ele>794.75</ele><time>2026-04-09T08:45:43.999Z</time></trkpt><trkpt lat="37.909355052200866" lon="13.972667107005032"><ele>792.0</ele><time>2026-04-09T08:45:44.999Z</time></trkpt><trkpt lat="37.909257567315535" lon="13.972797186813322"><ele>794.75</ele><time>2026-04-09T08:45:45.999Z</time></trkpt><trkpt lat="37.909149315658645" lon="13.972921951624711"><ele>797.5</ele><time>2026-04-09T08:45:46.999Z</time></trkpt><trkpt lat="37.90905228598022" lon="13.973039179667134"><ele>800.25</ele><time>2026-04-09T08:45:47.999Z</time></trkpt><trkpt lat="37.90898981563248" lon="13.973143383646375"><ele>803.0</ele><time>2026-04-09T08:45:48.999Z</time></trkpt><trkpt lat="37.908930283258854" lon="13.973256003649308"><ele>802.5</ele><time>2026-04-09T08:45:49.999Z</time></trkpt><trkpt lat="37.908935352670284" lon="13.973407248260292"><ele>802.0</ele><time>2026-04-09T08:45:50.999Z</time></trkpt><trkpt lat="37.90895955960778" lon="13.97354952841711"><ele>801.5</ele><time>2026-04-09T08:45:51.999Z</time></trkpt><trkpt lat="37.908992117018975" lon="13.973679098523801"><ele>801.0</ele><time>2026-04-09T08:45:52.999Z</time></trkpt><trkpt lat="37.90894833018028" lon="13.973820732602805"><ele>801.0</ele><time>2026-04-09T08:45:53.999Z</time></trkpt><trkpt lat="37.90890915338163" lon="13.974030376613085"><ele>801.0</ele><time>2026-04-09T08:45:54.999Z</time></trkpt><trkpt lat="37.90884561641278" lon="13.974206017680574"><ele>801.0</ele><time>2026-04-09T08:45:55.999Z</time></trkpt><trkpt lat="37.908750842812104" lon="13.974337659649423"><ele>799.4</ele><time>2026-04-09T08:45:56.999Z</time></trkpt><trkpt lat="37.908691938527795" lon="13.974457982116263"><ele>797.8</ele><time>2026-04-09T08:45:57.999Z</time></trkpt><trkpt lat="37.90863973308857" lon="13.974554386414045"><ele>796.1999999999999</ele><time>2026-04-09T08:45:58.999Z</time></trkpt><trkpt lat="37.908589569590696" lon="13.974650272906397"><ele>794.5999999999999</ele><time>2026-04-09T08:45:59.999Z</time></trkpt><trkpt lat="37.90857164160317" lon="13.974794785416172"><ele>793.0</ele><time>2026-04-09T08:46:00.999Z</time></trkpt><trkpt lat="37.908567010077874" lon="13.974957555680863"><ele>792.3333333333333</ele><time>2026-04-09T08:46:01.999Z</time></trkpt><trkpt lat="37.908582044158074" lon="13.975155027475099"><ele>791.6666666666667</ele><time>2026-04-09T08:46:02.999Z</time></trkpt><trkpt lat="37.908584904457626" lon="13.975386913951935"><ele>791.0</ele><time>2026-04-09T08:46:03.999Z</time></trkpt><trkpt lat="37.908593510072784" lon="13.975652556774914"><ele>791.6666666666667</ele><time>2026-04-09T08:46:04.999Z</time></trkpt><trkpt lat="37.908593690762814" lon="13.975908738468432"><ele>792.3333333333333</ele><time>2026-04-09T08:46:05.999Z</time></trkpt><trkpt lat="37.90859630077755" lon="13.976124783921662"><ele>793.0</ele><time>2026-04-09T08:46:06.999Z</time></trkpt><trkpt lat="37.9085974557316" lon="13.976286035285481"><ele>793.0</ele><time>2026-04-09T08:46:07.999Z</time></trkpt><trkpt lat="37.9086058797829" lon="13.976424501477473"><ele>793.0</ele><time>2026-04-09T08:46:08.999Z</time></trkpt><trkpt lat="37.90864565842873" lon="13.976541848944988"><ele>793.0</ele><time>2026-04-09T08:46:09.999Z</time></trkpt><trkpt lat="37.90871319194294" lon="13.976669252267955"><ele>793.0</ele><time>2026-04-09T08:46:10.999Z</time></trkpt><trkpt lat="37.90882853974497" lon="13.976791000154625"><ele>795.3333333333333</ele><time>2026-04-09T08:46:11.999Z</time></trkpt><trkpt lat="37.908993562749686" lon="13.976940008206729"><ele>797.6666666666667</ele><time>2026-04-09T08:46:12.999Z</time></trkpt><trkpt lat="37.90913825939837" lon="13.977096363232267"><ele>800.0</ele><time>2026-04-09T08:46:14Z</time></trkpt><trkpt lat="37.90926296055061" lon="13.977235145618078"><ele>794.5</ele><time>2026-04-09T08:46:15Z</time></trkpt><trkpt lat="37.909389062589376" lon="13.977359078575304"><ele>789.0</ele><time>2026-04-09T08:46:16Z</time></trkpt><trkpt lat="37.90949261949336" lon="13.977477346903044"><ele>783.5</ele><time>2026-04-09T08:46:17Z</time></trkpt><trkpt lat="37.90958729181349" lon="13.97759507152321"><ele>778.0</ele><time>2026-04-09T08:46:18Z</time></trkpt><trkpt lat="37.90966106741278" lon="13.977721108460631"><ele>777.5999999999999</ele><time>2026-04-09T08:46:19Z</time></trkpt><trkpt lat="37.909709868090246" lon="13.97786288946093"><ele>777.1999999999999</ele><time>2026-04-09T08:46:20Z</time></trkpt><trkpt lat="37.90972644997354" lon="13.97799536362363"><ele>776.8</ele><time>2026-04-09T08:46:21Z</time></trkpt><trkpt lat="37.90968923554292" lon="13.978097645712026"><ele>776.4</ele><time>2026-04-09T08:46:22Z</time></trkpt><trkpt lat="37.90963492620367" lon="13.97818295126289"><ele>776.0</ele><time>2026-04-09T08:46:23Z</time></trkpt><trkpt lat="37.9095600639697" lon="13.978254744795564"><ele>776.0</ele><time>2026-04-09T08:46:24Z</time></trkpt><trkpt lat="37.90947025654949" lon="13.978274128462111"><ele>776.0</ele><time>2026-04-09T08:46:25Z</time></trkpt><trkpt lat="37.90936029710063" lon="13.978267768271385"><ele>776.0</ele><time>2026-04-09T08:46:26Z</time></trkpt><trkpt lat="37.90921321226595" lon="13.978260325307831"><ele>776.0</ele><time>2026-04-09T08:46:27Z</time></trkpt><trkpt lat="37.909052222466585" lon="13.978234492207616"><ele>772.3333333333334</ele><time>2026-04-09T08:46:28Z</time></trkpt><trkpt lat="37.90887052477338" lon="13.978278814103861"><ele>768.6666666666667</ele><time>2026-04-09T08:46:29Z</time></trkpt><trkpt lat="37.90872804379379" lon="13.97831826580101"><ele>765.0</ele><time>2026-04-09T08:46:30Z</time></trkpt><trkpt lat="37.908605683024426" lon="13.978354368938723"><ele>765.0</ele><time>2026-04-09T08:46:31Z</time></trkpt><trkpt lat="37.908496077196745" lon="13.978408709453685"><ele>765.0</ele><time>2026-04-09T08:46:32Z</time></trkpt><trkpt lat="37.908394654079004" lon="13.97852691206169"><ele>765.0</ele><time>2026-04-09T08:46:33Z</time></trkpt><trkpt lat="37.90831140886827" lon="13.978709560057482"><ele>765.0</ele><time>2026-04-09T08:46:34Z</time></trkpt><trkpt lat="37.908244195824864" lon="13.978840701655313"><ele>768.0</ele><time>2026-04-09T08:46:35Z</time></trkpt><trkpt lat="37.90816715915533" lon="13.978948577984093"><ele>771.0</ele><time>2026-04-09T08:46:36Z</time></trkpt><trkpt lat="37.90807622564445" lon="13.979005450043305"><ele>774.0</ele><time>2026-04-09T08:46:37Z</time></trkpt><trkpt lat="37.90798862323434" lon="13.979027636520406"><ele>777.0</ele><time>2026-04-09T08:46:38Z</time></trkpt><trkpt lat="37.90788745007408" lon="13.97897693309883"><ele>780.0</ele><time>2026-04-09T08:46:39Z</time></trkpt><trkpt lat="37.907768706574664" lon="13.978875656924048"><ele>780.0</ele><time>2026-04-09T08:46:40Z</time></trkpt><trkpt lat="37.90763978659923" lon="13.978726763425696"><ele>780.0</ele><time>2026-04-09T08:46:41Z</time></trkpt><trkpt lat="37.907542150010656" lon="13.978603940464176"><ele>780.0</ele><time>2026-04-09T08:46:42Z</time></trkpt><trkpt lat="37.907432939547334" lon="13.978501916312048"><ele>780.0</ele><time>2026-04-09T08:46:43Z</time></trkpt><trkpt lat="37.907402839828904" lon="13.978601557383552"><ele>779.5</ele><time>2026-04-09T08:46:44Z</time></trkpt><trkpt lat="37.907312813346856" lon="13.978600978869576"><ele>779.0</ele><time>2026-04-09T08:46:45Z</time></trkpt><trkpt lat="37.90720791873073" lon="13.97864642690271"><ele>778.5</ele><time>2026-04-09T08:46:46Z</time></trkpt><trkpt lat="37.907089569585104" lon="13.978750270256441"><ele>778.0</ele><time>2026-04-09T08:46:47Z</time></trkpt><trkpt lat="37.90698517964528" lon="13.978859535607324"><ele>778.0</ele><time>2026-04-09T08:46:48Z</time></trkpt><trkpt lat="37.906881517418505" lon="13.978883446016559"><ele>778.0</ele><time>2026-04-09T08:46:49Z</time></trkpt><trkpt lat="37.90677639655568" lon="13.978843885063178"><ele>778.0</ele><time>2026-04-09T08:46:50Z</time></trkpt><trkpt lat="37.90666718108289" lon="13.978808231656112"><ele>778.0</ele><time>2026-04-09T08:46:51Z</time></trkpt><trkpt lat="37.906582798170135" lon="13.978817335095032"><ele>778.0</ele><time>2026-04-09T08:46:52Z</time></trkpt><trkpt lat="37.90650973910195" lon="13.978838073783386"><ele>777.4</ele><time>2026-04-09T08:46:53Z</time></trkpt><trkpt lat="37.906474448449174" lon="13.978907412487404"><ele>776.8</ele><time>2026-04-09T08:46:54Z</time></trkpt><trkpt lat="37.90645295092461" lon="13.97900341761358"><ele>776.2</ele><time>2026-04-09T08:46:55Z</time></trkpt><trkpt lat="37.90643535758424" lon="13.979141046107163"><ele>775.6</ele><time>2026-04-09T08:46:56Z</time></trkpt><trkpt lat="37.90643722553776" lon="13.97929675960202"><ele>775.0</ele><time>2026-04-09T08:46:57Z</time></trkpt><trkpt lat="37.90643065943343" lon="13.979421653496699"><ele>775.0</ele><time>2026-04-09T08:46:58Z</time></trkpt><trkpt lat="37.90636724974003" lon="13.979516373296033"><ele>775.0</ele><time>2026-04-09T08:46:59Z</time></trkpt><trkpt lat="37.90627457387765" lon="13.979577753997246"><ele>775.0</ele><time>2026-04-09T08:47:00Z</time></trkpt><trkpt lat="37.90616775359375" lon="13.979659763232686"><ele>775.0</ele><time>2026-04-09T08:47:01Z</time></trkpt><trkpt lat="37.90605696706139" lon="13.979747280363137"><ele>775.0</ele><time>2026-04-09T08:47:02Z</time></trkpt><trkpt lat="37.905962185441105" lon="13.979853836316844"><ele>775.0</ele><time>2026-04-09T08:47:03Z</time></trkpt><trkpt lat="37.90591134120582" lon="13.980028348517894"><ele>775.0</ele><time>2026-04-09T08:47:04Z</time></trkpt><trkpt lat="37.90590049281679" lon="13.980194648022675"><ele>775.0</ele><time>2026-04-09T08:47:05Z</time></trkpt><trkpt lat="37.905847134793426" lon="13.980310593220873"><ele>774.6</ele><time>2026-04-09T08:47:06Z</time></trkpt><trkpt lat="37.90576824816627" lon="13.98036679659089"><ele>774.2</ele><time>2026-04-09T08:47:07Z</time></trkpt><trkpt lat="37.90567218497187" lon="13.980374377646461"><ele>773.8</ele><time>2026-04-09T08:47:08Z</time></trkpt><trkpt lat="37.90555625994795" lon="13.980407401137144"><ele>773.4</ele><time>2026-04-09T08:47:09Z</time></trkpt><trkpt lat="37.90543183345363" lon="13.980448278332444"><ele>773.0</ele><time>2026-04-09T08:47:10Z</time></trkpt><trkpt lat="37.905344255234176" lon="13.980583713190914"><ele>773.0</ele><time>2026-04-09T08:47:11Z</time></trkpt><trkpt lat="37.90528563177715" lon="13.980733298915716"><ele>773.0</ele><time>2026-04-09T08:47:12Z</time></trkpt><trkpt lat="37.9052463670036" lon="13.980928572803085"><ele>773.0</ele><time>2026-04-09T08:47:13Z</time></trkpt><trkpt lat="37.90520401720559" lon="13.981069994152257"><ele>773.0</ele><time>2026-04-09T08:47:14Z</time></trkpt><trkpt lat="37.90515378624874" lon="13.981192496831968"><ele>775.6666666666667</ele><time>2026-04-09T08:47:15Z</time></trkpt><trkpt lat="37.905073979165124" lon="13.98131427622487"><ele>778.3333333333333</ele><time>2026-04-09T08:47:16Z</time></trkpt><trkpt lat="37.904947752526645" lon="13.981451843628744"><ele>781.0</ele><time>2026-04-09T08:47:17Z</time></trkpt><trkpt lat="37.90479488955386" lon="13.981611142304283"><ele>782.0</ele><time>2026-04-09T08:47:18Z</time></trkpt><trkpt lat="37.90464488701268" lon="13.981752936294592"><ele>783.0</ele><time>2026-04-09T08:47:19Z</time></trkpt><trkpt lat="37.904505897487006" lon="13.981870932791255"><ele>784.0</ele><time>2026-04-09T08:47:20Z</time></trkpt><trkpt lat="37.90438962894388" lon="13.981981146106175"><ele>784.0</ele><time>2026-04-09T08:47:21Z</time></trkpt><trkpt lat="37.90430902556576" lon="13.982108574969436"><ele>784.0</ele><time>2026-04-09T08:47:21.999Z</time></trkpt><trkpt lat="37.90423003134353" lon="13.982239557299879"><ele>784.0</ele><time>2026-04-09T08:47:22.999Z</time></trkpt><trkpt lat="37.904183371626885" lon="13.982360546089815"><ele>784.0</ele><time>2026-04-09T08:47:23.999Z</time></trkpt><trkpt lat="37.90416399283748" lon="13.982462451534799"><ele>784.0</ele><time>2026-04-09T08:47:24.999Z</time></trkpt><trkpt lat="37.90417760556802" lon="13.982563964154169"><ele>787.5</ele><time>2026-04-09T08:47:25.999Z</time></trkpt><trkpt lat="37.90420801724632" lon="13.982652880609534"><ele>791.0</ele><time>2026-04-09T08:47:26.999Z</time></trkpt><trkpt lat="37.90431550586075" lon="13.982687301772101"><ele>794.5</ele><time>2026-04-09T08:47:27.999Z</time></trkpt><trkpt lat="37.904432544763935" lon="13.982696693655859"><ele>798.0</ele><time>2026-04-09T08:47:28.999Z</time></trkpt><trkpt lat="37.90458362782003" lon="13.982690365288146"><ele>798.6666666666667</ele><time>2026-04-09T08:47:29.999Z</time></trkpt><trkpt lat="37.9047676056104" lon="13.982687768105283"><ele>799.3333333333334</ele><time>2026-04-09T08:47:30.999Z</time></trkpt><trkpt lat="37.90494384219871" lon="13.982714471383007"><ele>800.0</ele><time>2026-04-09T08:47:31.999Z</time></trkpt><trkpt lat="37.90515868536634" lon="13.982735219184255"><ele>797.6666666666667</ele><time>2026-04-09T08:47:32.999Z</time></trkpt><trkpt lat="37.905382991913285" lon="13.982756592839092"><ele>795.3333333333333</ele><time>2026-04-09T08:47:33.999Z</time></trkpt><trkpt lat="37.905589533267154" lon="13.982775112970646"><ele>793.0</ele><time>2026-04-09T08:47:34.999Z</time></trkpt><trkpt lat="37.90575732763084" lon="13.982777329941191"><ele>793.0</ele><time>2026-04-09T08:47:35.999Z</time></trkpt><trkpt lat="37.90588724533528" lon="13.982795330021803"><ele>793.0</ele><time>2026-04-09T08:47:36.999Z</time></trkpt><trkpt lat="37.90599663804087" lon="13.982804165297871"><ele>793.0</ele><time>2026-04-09T08:47:37.999Z</time></trkpt><trkpt lat="37.90607587491111" lon="13.982837745945828"><ele>793.0</ele><time>2026-04-09T08:47:38.999Z</time></trkpt><trkpt lat="37.906125162708335" lon="13.982920811264925"><ele>793.0</ele><time>2026-04-09T08:47:39.999Z</time></trkpt><trkpt lat="37.90614408365695" lon="13.983043586164328"><ele>792.75</ele><time>2026-04-09T08:47:40.999Z</time></trkpt><trkpt lat="37.90609377070617" lon="13.983182920572517"><ele>792.5</ele><time>2026-04-09T08:47:41.999Z</time></trkpt><trkpt lat="37.90605994032826" lon="13.983373258742088"><ele>792.25</ele><time>2026-04-09T08:47:42.999Z</time></trkpt><trkpt lat="37.906010732530675" lon="13.983560360053044"><ele>792.0</ele><time>2026-04-09T08:47:43.999Z</time></trkpt><trkpt lat="37.90592085876077" lon="13.983695432422437"><ele>793.6</ele><time>2026-04-09T08:47:44.999Z</time></trkpt><trkpt lat="37.90583737364434" lon="13.983840620046939"><ele>795.2</ele><time>2026-04-09T08:47:45.999Z</time></trkpt><trkpt lat="37.90578184868674" lon="13.98396456398391"><ele>796.8</ele><time>2026-04-09T08:47:46.999Z</time></trkpt><trkpt lat="37.90576426611016" lon="13.98407992437903"><ele>798.4</ele><time>2026-04-09T08:47:47.999Z</time></trkpt><trkpt lat="37.90579245601823" lon="13.984201633347393"><ele>800.0</ele><time>2026-04-09T08:47:48.999Z</time></trkpt><trkpt lat="37.90585371119088" lon="13.984295634365434"><ele>801.25</ele><time>2026-04-09T08:47:49.999Z</time></trkpt><trkpt lat="37.90592751548109" lon="13.984377695081434"><ele>802.5</ele><time>2026-04-09T08:47:50.999Z</time></trkpt><trkpt lat="37.90602537905062" lon="13.984457115401032"><ele>803.75</ele><time>2026-04-09T08:47:51.999Z</time></trkpt><trkpt lat="37.90614960523156" lon="13.98450213659063"><ele>805.0</ele><time>2026-04-09T08:47:52.999Z</time></trkpt><trkpt lat="37.906301083337866" lon="13.984515540040025"><ele>805.0</ele><time>2026-04-09T08:47:53.999Z</time></trkpt><trkpt lat="37.90644756039747" lon="13.984521876159274"><ele>805.0</ele><time>2026-04-09T08:47:54.999Z</time></trkpt><trkpt lat="37.90655346493852" lon="13.984547043828671"><ele>805.0</ele><time>2026-04-09T08:47:55.999Z</time></trkpt><trkpt lat="37.90661833430749" lon="13.984620357767964"><ele>805.0</ele><time>2026-04-09T08:47:56.999Z</time></trkpt><trkpt lat="37.9066728415066" lon="13.984708595839502"><ele>805.0</ele><time>2026-04-09T08:47:57.999Z</time></trkpt><trkpt lat="37.90669370113057" lon="13.984841753997632"><ele>805.0</ele><time>2026-04-09T08:47:58.999Z</time></trkpt><trkpt lat="37.90675345181626" lon="13.985009287616814"><ele>805.0</ele><time>2026-04-09T08:47:59.999Z</time></trkpt><trkpt lat="37.906795177064" lon="13.985210554887374"><ele>805.0</ele><time>2026-04-09T08:48:00.999Z</time></trkpt><trkpt lat="37.90683966258076" lon="13.985374105225235"><ele>805.0</ele><time>2026-04-09T08:48:01.999Z</time></trkpt><trkpt lat="37.90690276762098" lon="13.985493627235682"><ele>805.0</ele><time>2026-04-09T08:48:02.999Z</time></trkpt><trkpt lat="37.90699476691706" lon="13.985588366610292"><ele>805.0</ele><time>2026-04-09T08:48:03.999Z</time></trkpt><trkpt lat="37.90709464941924" lon="13.985683705965235"><ele>805.0</ele><time>2026-04-09T08:48:04.999Z</time></trkpt><trkpt lat="37.90716530293341" lon="13.985784021575268"><ele>805.0</ele><time>2026-04-09T08:48:05.999Z</time></trkpt><trkpt lat="37.90716891292607" lon="13.9859160817515"><ele>807.4</ele><time>2026-04-09T08:48:06.999Z</time></trkpt><trkpt lat="37.90717851272967" lon="13.986053855007622"><ele>809.8</ele><time>2026-04-09T08:48:07.999Z</time></trkpt><trkpt lat="37.907210107248666" lon="13.986170793064693"><ele>812.2</ele><time>2026-04-09T08:48:08.999Z</time></trkpt><trkpt lat="37.90724717641037" lon="13.986271897337172"><ele>814.6</ele><time>2026-04-09T08:48:09.999Z</time></trkpt><trkpt lat="37.90732795675359" lon="13.98634341921256"><ele>817.0</ele><time>2026-04-09T08:48:10.999Z</time></trkpt><trkpt lat="37.90743852748195" lon="13.98638860083017"><ele>816.9999999999999</ele><time>2026-04-09T08:48:11.999Z</time></trkpt><trkpt lat="37.907555567056285" lon="13.986415183407068"><ele>817.0</ele><time>2026-04-09T08:48:12.999Z</time></trkpt><trkpt lat="37.90763750844816" lon="13.986453660591398"><ele>817.0</ele><time>2026-04-09T08:48:13.999Z</time></trkpt><trkpt lat="37.90767739635628" lon="13.986526381838873"><ele>817.0</ele><time>2026-04-09T08:48:14.999Z</time></trkpt><trkpt lat="37.9076805100041" lon="13.98662468732939"><ele>816.9999999999999</ele><time>2026-04-09T08:48:15.999Z</time></trkpt><trkpt lat="37.90764730817039" lon="13.986718573734722"><ele>817.0</ele><time>2026-04-09T08:48:16.999Z</time></trkpt><trkpt lat="37.90758159628255" lon="13.986780300196418"><ele>817.0</ele><time>2026-04-09T08:48:17.999Z</time></trkpt><trkpt lat="37.90748708475254" lon="13.986765677706519"><ele>817.0</ele><time>2026-04-09T08:48:18.999Z</time></trkpt><trkpt lat="37.907413395266595" lon="13.986719467396156"><ele>817.0</ele><time>2026-04-09T08:48:20Z</time></trkpt><trkpt lat="37.90731932794461" lon="13.986652662017674"><ele>817.0</ele><time>2026-04-09T08:48:21Z</time></trkpt><trkpt lat="37.907198408264556" lon="13.986598320781608"><ele>817.0</ele><time>2026-04-09T08:48:22Z</time></trkpt><trkpt lat="37.90703410634236" lon="13.98660793314517"><ele>817.0</ele><time>2026-04-09T08:48:23Z</time></trkpt><trkpt lat="37.90685944387621" lon="13.986616091745745"><ele>817.0</ele><time>2026-04-09T08:48:24Z</time></trkpt><trkpt lat="37.906731811408775" lon="13.986632634576939"><ele>817.0</ele><time>2026-04-09T08:48:25Z</time></trkpt><trkpt lat="37.90664953982682" lon="13.986657938813215"><ele>817.0</ele><time>2026-04-09T08:48:26Z</time></trkpt><trkpt lat="37.9065876577626" lon="13.986726962672993"><ele>820.8</ele><time>2026-04-09T08:48:27Z</time></trkpt><trkpt lat="37.906538013148555" lon="13.986809958618037"><ele>824.6</ele><time>2026-04-09T08:48:28Z</time></trkpt><trkpt lat="37.90656465787943" lon="13.986942225475989"><ele>828.4</ele><time>2026-04-09T08:48:29Z</time></trkpt><trkpt lat="37.90659477124748" lon="13.987050573273065"><ele>832.1999999999999</ele><time>2026-04-09T08:48:30Z</time></trkpt><trkpt lat="37.90669501451345" lon="13.987124250266664"><ele>836.0</ele><time>2026-04-09T08:48:31Z</time></trkpt><trkpt lat="37.906818595032895" lon="13.987178277451179"><ele>836.0</ele><time>2026-04-09T08:48:32Z</time></trkpt><trkpt lat="37.906980611653964" lon="13.987237742155337"><ele>836.0</ele><time>2026-04-09T08:48:33Z</time></trkpt><trkpt lat="37.907156636048335" lon="13.987306424278717"><ele>836.0</ele><time>2026-04-09T08:48:34Z</time></trkpt><trkpt lat="37.90733649494973" lon="13.987387206881953"><ele>836.0</ele><time>2026-04-09T08:48:35Z</time></trkpt><trkpt lat="37.907466586570926" lon="13.987446921337263"><ele>836.0</ele><time>2026-04-09T08:48:36Z</time></trkpt><trkpt lat="37.90756648552744" lon="13.987466909405544"><ele>836.0</ele><time>2026-04-09T08:48:37Z</time></trkpt><trkpt lat="37.90766346212297" lon="13.987453068398928"><ele>836.0</ele><time>2026-04-09T08:48:38Z</time></trkpt><trkpt lat="37.907764966241906" lon="13.98740723422288"><ele>836.0</ele><time>2026-04-09T08:48:39Z</time></trkpt><trkpt lat="37.9078740329948" lon="13.98733532950766"><ele>838.3333333333334</ele><time>2026-04-09T08:48:40Z</time></trkpt><trkpt lat="37.90800494765218" lon="13.98724848568051"><ele>840.6666666666667</ele><time>2026-04-09T08:48:41Z</time></trkpt><trkpt lat="37.908162858199965" lon="13.987159299149791"><ele>843.0</ele><time>2026-04-09T08:48:42Z</time></trkpt><trkpt lat="37.908318386186224" lon="13.987071598982347"><ele>842.25</ele><time>2026-04-09T08:48:43Z</time></trkpt><trkpt lat="37.90843289543405" lon="13.987001145422603"><ele>841.5</ele><time>2026-04-09T08:48:44Z</time></trkpt><trkpt lat="37.90853406288889" lon="13.98695788318754"><ele>840.75</ele><time>2026-04-09T08:48:45Z</time></trkpt><trkpt lat="37.908642186474445" lon="13.98699107905209"><ele>840.0</ele><time>2026-04-09T08:48:46Z</time></trkpt><trkpt lat="37.90877238092349" lon="13.987022717341763"><ele>840.0</ele><time>2026-04-09T08:48:47Z</time></trkpt><trkpt lat="37.908935349230006" lon="13.98705325085852"><ele>840.0</ele><time>2026-04-09T08:48:48Z</time></trkpt><trkpt lat="37.909072317483165" lon="13.987096812308938"><ele>840.0</ele><time>2026-04-09T08:48:49Z</time></trkpt><trkpt lat="37.90916677018838" lon="13.987152422582252"><ele>840.0</ele><time>2026-04-09T08:48:50Z</time></trkpt><trkpt lat="37.90925048360761" lon="13.987228430003695"><ele>838.4</ele><time>2026-04-09T08:48:51Z</time></trkpt><trkpt lat="37.90929558651103" lon="13.987349062552793"><ele>836.8</ele><time>2026-04-09T08:48:52Z</time></trkpt><trkpt lat="37.90933088637408" lon="13.987455150871542"><ele>835.2</ele><time>2026-04-09T08:48:53Z</time></trkpt><trkpt lat="37.90933649707636" lon="13.987580499268482"><ele>833.6</ele><time>2026-04-09T08:48:54Z</time></trkpt><trkpt lat="37.909339474034326" lon="13.987731706604773"><ele>832.0</ele><time>2026-04-09T08:48:55Z</time></trkpt><trkpt lat="37.90934298155426" lon="13.98789739313057"><ele>835.4000000000001</ele><time>2026-04-09T08:48:56Z</time></trkpt><trkpt lat="37.909363168849595" lon="13.988037026351803"><ele>838.8000000000001</ele><time>2026-04-09T08:48:57Z</time></trkpt><trkpt lat="37.909432477152" lon="13.988141559564935"><ele>842.2</ele><time>2026-04-09T08:48:58Z</time></trkpt><trkpt lat="37.909513621043146" lon="13.988224788938957"><ele>845.6</ele><time>2026-04-09T08:48:59Z</time></trkpt><trkpt lat="37.909613293991235" lon="13.988275264087651"><ele>849.0</ele><time>2026-04-09T08:49:00Z</time></trkpt><trkpt lat="37.90973293501919" lon="13.988320170080067"><ele>849.5</ele><time>2026-04-09T08:49:01Z</time></trkpt><trkpt lat="37.90986950028939" lon="13.98837038147092"><ele>850.0</ele><time>2026-04-09T08:49:02Z</time></trkpt><trkpt lat="37.91001850609004" lon="13.988406819531937"><ele>850.5</ele><time>2026-04-09T08:49:03Z</time></trkpt><trkpt lat="37.91017171111367" lon="13.988407533462945"><ele>851.0</ele><time>2026-04-09T08:49:04Z</time></trkpt><trkpt lat="37.91031312194405" lon="13.988424682871337"><ele>851.0</ele><time>2026-04-09T08:49:05Z</time></trkpt><trkpt lat="37.91042951324012" lon="13.98850222854914"><ele>851.0</ele><time>2026-04-09T08:49:06Z</time></trkpt><trkpt lat="37.910539630776874" lon="13.988540623615352"><ele>851.0</ele><time>2026-04-09T08:49:07Z</time></trkpt><trkpt lat="37.91061653024425" lon="13.988606216217786"><ele>851.0</ele><time>2026-04-09T08:49:08Z</time></trkpt><trkpt lat="37.91066042317423" lon="13.988703581082294"><ele>851.0</ele><time>2026-04-09T08:49:09Z</time></trkpt><trkpt lat="37.91067983918464" lon="13.988808000865852"><ele>851.0000000000001</ele><time>2026-04-09T08:49:10Z</time></trkpt><trkpt lat="37.91066864249107" lon="13.988934370118514"><ele>851.0</ele><time>2026-04-09T08:49:11Z</time></trkpt><trkpt lat="37.91064262703132" lon="13.989068423896663"><ele>851.0</ele><time>2026-04-09T08:49:12Z</time></trkpt><trkpt lat="37.910591764092885" lon="13.989162566395397"><ele>851.0</ele><time>2026-04-09T08:49:13Z</time></trkpt><trkpt lat="37.9105337923556" lon="13.989213441838816"><ele>851.0000000000001</ele><time>2026-04-09T08:49:14Z</time></trkpt><trkpt lat="37.91046449019705" lon="13.989226982817401"><ele>851.0</ele><time>2026-04-09T08:49:15Z</time></trkpt><trkpt lat="37.910384200111096" lon="13.989259755770263"><ele>852.1999999999999</ele><time>2026-04-09T08:49:16Z</time></trkpt><trkpt lat="37.91030122196998" lon="13.989311864083092"><ele>853.4</ele><time>2026-04-09T08:49:17Z</time></trkpt><trkpt lat="37.91024389608731" lon="13.989413447269952"><ele>854.6</ele><time>2026-04-09T08:49:18Z</time></trkpt><trkpt lat="37.91019939241553" lon="13.989529837267527"><ele>855.8</ele><time>2026-04-09T08:49:19Z</time></trkpt><trkpt lat="37.91016707358039" lon="13.989689350142731"><ele>857.0</ele><time>2026-04-09T08:49:20Z</time></trkpt><trkpt lat="37.91010838201933" lon="13.989875609237703"><ele>859.0</ele><time>2026-04-09T08:49:21Z</time></trkpt><trkpt lat="37.910056964150044" lon="13.990049629326533"><ele>861.0</ele><time>2026-04-09T08:49:22Z</time></trkpt><trkpt lat="37.910010729742275" lon="13.99021198340086"><ele>863.0</ele><time>2026-04-09T08:49:23Z</time></trkpt><trkpt lat="37.90992632545299" lon="13.990365805177813"><ele>865.0</ele><time>2026-04-09T08:49:24Z</time></trkpt><trkpt lat="37.90981952329209" lon="13.990528988375408"><ele>865.0</ele><time>2026-04-09T08:49:25Z</time></trkpt><trkpt lat="37.909681096826354" lon="13.99071374134307"><ele>865.0</ele><time>2026-04-09T08:49:26Z</time></trkpt><trkpt lat="37.90953189916947" lon="13.99091348883741"><ele>865.0</ele><time>2026-04-09T08:49:27Z</time></trkpt><trkpt lat="37.909389219904845" lon="13.991107180606498"><ele>866.6666666666666</ele><time>2026-04-09T08:49:27.999Z</time></trkpt><trkpt lat="37.90927140906" lon="13.991290851690646"><ele>868.3333333333333</ele><time>2026-04-09T08:49:28.999Z</time></trkpt><trkpt lat="37.90916627917033" lon="13.99151127249964"><ele>870.0</ele><time>2026-04-09T08:49:29.999Z</time></trkpt><trkpt lat="37.909072550170144" lon="13.991697459444795"><ele>872.3333333333333</ele><time>2026-04-09T08:49:30.999Z</time></trkpt><trkpt lat="37.90900590358926" lon="13.991860657868413"><ele>874.6666666666666</ele><time>2026-04-09T08:49:31.999Z</time></trkpt><trkpt lat="37.90896524531886" lon="13.992037403031675"><ele>877.0</ele><time>2026-04-09T08:49:32.999Z</time></trkpt><trkpt lat="37.90895268064704" lon="13.992239963475443"><ele>877.0</ele><time>2026-04-09T08:49:33.999Z</time></trkpt><trkpt lat="37.90894989502758" lon="13.992455859428121"><ele>877.0</ele><time>2026-04-09T08:49:34.999Z</time></trkpt><trkpt lat="37.90893803029416" lon="13.992646996364323"><ele>877.0</ele><time>2026-04-09T08:49:35.999Z</time></trkpt><trkpt lat="37.90890267237241" lon="13.992835640717916"><ele>879.0</ele><time>2026-04-09T08:49:36.999Z</time></trkpt><trkpt lat="37.908857029743025" lon="13.993023672154711"><ele>881.0</ele><time>2026-04-09T08:49:37.999Z</time></trkpt><trkpt lat="37.90882324900815" lon="13.993189875908213"><ele>883.0</ele><time>2026-04-09T08:49:38.999Z</time></trkpt><trkpt lat="37.9087958560809" lon="13.99332435821515"><ele>885.0</ele><time>2026-04-09T08:49:39.999Z</time></trkpt><trkpt lat="37.908772163360716" lon="13.993457051018748"><ele>888.0</ele><time>2026-04-09T08:49:40.999Z</time></trkpt><trkpt lat="37.90882785151974" lon="13.993592103462367"><ele>891.0</ele><time>2026-04-09T08:49:41.999Z</time></trkpt><trkpt lat="37.90888010191279" lon="13.993718420747904"><ele>894.0</ele><time>2026-04-09T08:49:42.999Z</time></trkpt><trkpt lat="37.908950434657896" lon="13.993808011080333"><ele>897.0</ele><time>2026-04-09T08:49:43.999Z</time></trkpt><trkpt lat="37.90904005046015" lon="13.99386475558617"><ele>900.0</ele><time>2026-04-09T08:49:44.999Z</time></trkpt><trkpt lat="37.90914840200386" lon="13.9938969508579"><ele>900.25</ele><time>2026-04-09T08:49:45.999Z</time></trkpt><trkpt lat="37.90927166491027" lon="13.993891419689854"><ele>900.5</ele><time>2026-04-09T08:49:46.999Z</time></trkpt><trkpt lat="37.90941495968118" lon="13.993854726854158"><ele>900.75</ele><time>2026-04-09T08:49:47.999Z</time></trkpt><trkpt lat="37.9095615481229" lon="13.993812341122961"><ele>901.0</ele><time>2026-04-09T08:49:48.999Z</time></trkpt><trkpt lat="37.909693416444846" lon="13.993777185426605"><ele>901.0</ele><time>2026-04-09T08:49:49.999Z</time></trkpt><trkpt lat="37.90982075442614" lon="13.993765194373626"><ele>901.0</ele><time>2026-04-09T08:49:50.999Z</time></trkpt><trkpt lat="37.909957731886905" lon="13.99377754357341"><ele>901.0</ele><time>2026-04-09T08:49:51.999Z</time></trkpt><trkpt lat="37.910097599186535" lon="13.993799871500872"><ele>901.0</ele><time>2026-04-09T08:49:52.999Z</time></trkpt><trkpt lat="37.91021893420775" lon="13.993843301518769"><ele>901.5</ele><time>2026-04-09T08:49:53.999Z</time></trkpt><trkpt lat="37.91032366551663" lon="13.993876408650213"><ele>902.0</ele><time>2026-04-09T08:49:54.999Z</time></trkpt><trkpt lat="37.910423731449406" lon="13.993920959550406"><ele>902.5</ele><time>2026-04-09T08:49:55.999Z</time></trkpt><trkpt lat="37.91049697728302" lon="13.994038554986492"><ele>903.0</ele><time>2026-04-09T08:49:56.999Z</time></trkpt><trkpt lat="37.91058344888079" lon="13.99417472858137"><ele>903.0</ele><time>2026-04-09T08:49:57.999Z</time></trkpt><trkpt lat="37.910670732720384" lon="13.99434739412423"><ele>903.0</ele><time>2026-04-09T08:49:58.999Z</time></trkpt><trkpt lat="37.910755174090745" lon="13.994499358713316"><ele>903.0</ele><time>2026-04-09T08:49:59.999Z</time></trkpt><trkpt lat="37.910816397049466" lon="13.994618010138396"><ele>903.0</ele><time>2026-04-09T08:50:00.999Z</time></trkpt><trkpt lat="37.91085902032597" lon="13.994722605685759"><ele>903.0</ele><time>2026-04-09T08:50:01.999Z</time></trkpt><trkpt lat="37.91087540775481" lon="13.994827928495521"><ele>903.0</ele><time>2026-04-09T08:50:02.999Z</time></trkpt><trkpt lat="37.910869414043496" lon="13.99491826884016"><ele>903.0</ele><time>2026-04-09T08:50:03.999Z</time></trkpt><trkpt lat="37.91083249754734" lon="13.995007700101459"><ele>903.0</ele><time>2026-04-09T08:50:04.999Z</time></trkpt><trkpt lat="37.91076206574884" lon="13.995120182040013"><ele>903.0</ele><time>2026-04-09T08:50:05.999Z</time></trkpt><trkpt lat="37.91066823782888" lon="13.995263780870497"><ele>903.0</ele><time>2026-04-09T08:50:06.999Z</time></trkpt><trkpt lat="37.91059378850221" lon="13.995380519744748"><ele>903.0</ele><time>2026-04-09T08:50:07.999Z</time></trkpt><trkpt lat="37.91053331214902" lon="13.995473188607518"><ele>903.0</ele><time>2026-04-09T08:50:08.999Z</time></trkpt><trkpt lat="37.91047254767597" lon="13.9955393720979"><ele>903.0</ele><time>2026-04-09T08:50:09.999Z</time></trkpt><trkpt lat="37.91039598773322" lon="13.995587673921026"><ele>903.0</ele><time>2026-04-09T08:50:10.999Z</time></trkpt><trkpt lat="37.91031928288596" lon="13.995578214968123"><ele>903.0</ele><time>2026-04-09T08:50:11.999Z</time></trkpt><trkpt lat="37.91022427378618" lon="13.995452564262898"><ele>903.0</ele><time>2026-04-09T08:50:13.999Z</time></trkpt><trkpt lat="37.9101934282163" lon="13.995345811532493"><ele>903.0</ele><time>2026-04-09T08:50:14.999Z</time></trkpt><trkpt lat="37.910180602530936" lon="13.995216161127653"><ele>903.0</ele><time>2026-04-09T08:50:15.999Z</time></trkpt><trkpt lat="37.91015194365975" lon="13.995088947902184"><ele>903.0</ele><time>2026-04-09T08:50:16.999Z</time></trkpt><trkpt lat="37.9100925796496" lon="13.994968148287867"><ele>905.5</ele><time>2026-04-09T08:50:17.999Z</time></trkpt><trkpt lat="37.90997912880261" lon="13.99489300147305"><ele>908.0</ele><time>2026-04-09T08:50:18.999Z</time></trkpt><trkpt lat="37.90985764871604" lon="13.994889798430712"><ele>910.5</ele><time>2026-04-09T08:50:19.999Z</time></trkpt><trkpt lat="37.90973300808633" lon="13.994875008700074"><ele>913.0</ele><time>2026-04-09T08:50:20.999Z</time></trkpt><trkpt lat="37.90963267877205" lon="13.994885562853812"><ele>913.0</ele><time>2026-04-09T08:50:21.999Z</time></trkpt><trkpt lat="37.909541793862346" lon="13.99494073221694"><ele>913.0</ele><time>2026-04-09T08:50:22.999Z</time></trkpt><trkpt lat="37.9094611779397" lon="13.995032349010065"><ele>913.0</ele><time>2026-04-09T08:50:23.999Z</time></trkpt><trkpt lat="37.909379512148696" lon="13.995132113778908"><ele>913.0</ele><time>2026-04-09T08:50:25Z</time></trkpt><trkpt lat="37.909293527341106" lon="13.995221428062008"><ele>913.0</ele><time>2026-04-09T08:50:26Z</time></trkpt><trkpt lat="37.909247116583664" lon="13.995358812938203"><ele>915.75</ele><time>2026-04-09T08:50:27Z</time></trkpt><trkpt lat="37.909142441749474" lon="13.995416317988337"><ele>918.5</ele><time>2026-04-09T08:50:28Z</time></trkpt><trkpt lat="37.909006200712625" lon="13.995425777592647"><ele>921.25</ele><time>2026-04-09T08:50:29Z</time></trkpt><trkpt lat="37.90884278183359" lon="13.995419316291294"><ele>924.0</ele><time>2026-04-09T08:50:30Z</time></trkpt><trkpt lat="37.90870696348905" lon="13.995423746362853"><ele>924.0</ele><time>2026-04-09T08:50:31Z</time></trkpt><trkpt lat="37.908576089362654" lon="13.995463457522117"><ele>924.0</ele><time>2026-04-09T08:50:32Z</time></trkpt><trkpt lat="37.908452734789286" lon="13.995550879850256"><ele>924.0</ele><time>2026-04-09T08:50:33Z</time></trkpt><trkpt lat="37.90833158374931" lon="13.995678802570287"><ele>924.0</ele><time>2026-04-09T08:50:34Z</time></trkpt><trkpt lat="37.908233026025655" lon="13.995766377250446"><ele>925.2</ele><time>2026-04-09T08:50:35Z</time></trkpt><trkpt lat="37.908152538899415" lon="13.995805981466738"><ele>926.4000000000001</ele><time>2026-04-09T08:50:36Z</time></trkpt><trkpt lat="37.90805727033207" lon="13.995792285879283"><ele>927.6</ele><time>2026-04-09T08:50:37Z</time></trkpt><trkpt lat="37.90796411226277" lon="13.995744746012276"><ele>928.8</ele><time>2026-04-09T08:50:38Z</time></trkpt><trkpt lat="37.90789839774363" lon="13.995657195321305"><ele>930.0</ele><time>2026-04-09T08:50:39Z</time></trkpt><trkpt lat="37.9078465451201" lon="13.995538817320565"><ele>930.0</ele><time>2026-04-09T08:50:40Z</time></trkpt><trkpt lat="37.907809389757176" lon="13.99540723413142"><ele>930.0</ele><time>2026-04-09T08:50:41Z</time></trkpt><trkpt lat="37.90777232805496" lon="13.995292468518121"><ele>930.0</ele><time>2026-04-09T08:50:42Z</time></trkpt><trkpt lat="37.907712703116324" lon="13.995211187277723"><ele>930.0</ele><time>2026-04-09T08:50:43Z</time></trkpt><trkpt lat="37.90761256849721" lon="13.995165264637759"><ele>930.0</ele><time>2026-04-09T08:50:44Z</time></trkpt><trkpt lat="37.90749942666684" lon="13.995163687434625"><ele>933.0</ele><time>2026-04-09T08:50:45Z</time></trkpt><trkpt lat="37.907369392484185" lon="13.995196663989656"><ele>936.0</ele><time>2026-04-09T08:50:46Z</time></trkpt><trkpt lat="37.9072243653201" lon="13.9952425168193"><ele>939.0</ele><time>2026-04-09T08:50:47Z</time></trkpt><trkpt lat="37.9071022731893" lon="13.995258460529513"><ele>942.0</ele><time>2026-04-09T08:50:48Z</time></trkpt><trkpt lat="37.90697935643104" lon="13.995245073083337"><ele>942.0</ele><time>2026-04-09T08:50:49Z</time></trkpt><trkpt lat="37.906848573559365" lon="13.995200511703704"><ele>942.0</ele><time>2026-04-09T08:50:50Z</time></trkpt><trkpt lat="37.90673255033954" lon="13.995138829830527"><ele>942.0</ele><time>2026-04-09T08:50:51Z</time></trkpt><trkpt lat="37.90663621495409" lon="13.995058882318299"><ele>942.0</ele><time>2026-04-09T08:50:52Z</time></trkpt><trkpt lat="37.90652018375591" lon="13.994972683052113"><ele>942.3333333333333</ele><time>2026-04-09T08:50:53Z</time></trkpt><trkpt lat="37.9063757942396" lon="13.99486167438645"><ele>942.6666666666666</ele><time>2026-04-09T08:50:54Z</time></trkpt><trkpt lat="37.90622297751688" lon="13.99475259820457"><ele>943.0</ele><time>2026-04-09T08:50:55Z</time></trkpt><trkpt lat="37.90609588623295" lon="13.994661069407353"><ele>943.0</ele><time>2026-04-09T08:50:56Z</time></trkpt><trkpt lat="37.90600165360817" lon="13.99458636621952"><ele>943.0</ele><time>2026-04-09T08:50:57Z</time></trkpt><trkpt lat="37.90591048299109" lon="13.99449244383033"><ele>943.0</ele><time>2026-04-09T08:50:58Z</time></trkpt><trkpt lat="37.90586437857802" lon="13.994381631234566"><ele>943.0</ele><time>2026-04-09T08:50:59Z</time></trkpt><trkpt lat="37.90583683276701" lon="13.994238501892559"><ele>943.0</ele><time>2026-04-09T08:51:00Z</time></trkpt><trkpt lat="37.905814411941044" lon="13.994102923505572"><ele>945.0</ele><time>2026-04-09T08:51:01Z</time></trkpt><trkpt lat="37.905761092410465" lon="13.993999903865966"><ele>947.0</ele><time>2026-04-09T08:51:02Z</time></trkpt><trkpt lat="37.905662788736855" lon="13.993903539380137"><ele>949.0</ele><time>2026-04-09T08:51:03Z</time></trkpt><trkpt lat="37.90554617314576" lon="13.993811854674199"><ele>951.0</ele><time>2026-04-09T08:51:04Z</time></trkpt><trkpt lat="37.90544075624707" lon="13.993690326869528"><ele>951.0</ele><time>2026-04-09T08:51:05Z</time></trkpt><trkpt lat="37.90534815576536" lon="13.993533050115753"><ele>951.0</ele><time>2026-04-09T08:51:06Z</time></trkpt><trkpt lat="37.90526286252981" lon="13.993369345249208"><ele>951.0</ele><time>2026-04-09T08:51:07Z</time></trkpt><trkpt lat="37.90517230270578" lon="13.993234938353826"><ele>951.0</ele><time>2026-04-09T08:51:08Z</time></trkpt><trkpt lat="37.905054471015255" lon="13.993113733502216"><ele>955.6666666666667</ele><time>2026-04-09T08:51:09Z</time></trkpt><trkpt lat="37.904910791082756" lon="13.992978868103627"><ele>960.3333333333334</ele><time>2026-04-09T08:51:10Z</time></trkpt><trkpt lat="37.90475692675648" lon="13.992841173669126"><ele>965.0</ele><time>2026-04-09T08:51:11Z</time></trkpt><trkpt lat="37.90458765714997" lon="13.9927047539778"><ele>965.0</ele><time>2026-04-09T08:51:12Z</time></trkpt><trkpt lat="37.90444085981952" lon="13.992584218525877"><ele>965.0</ele><time>2026-04-09T08:51:13Z</time></trkpt><trkpt lat="37.90432047683151" lon="13.992481813418713"><ele>965.0</ele><time>2026-04-09T08:51:14Z</time></trkpt><trkpt lat="37.904207724397494" lon="13.992389167452068"><ele>965.5</ele><time>2026-04-09T08:51:15Z</time></trkpt><trkpt lat="37.90409204907103" lon="13.992313199240465"><ele>966.0</ele><time>2026-04-09T08:51:16Z</time></trkpt><trkpt lat="37.903952448901805" lon="13.99226459527642"><ele>966.5</ele><time>2026-04-09T08:51:17Z</time></trkpt><trkpt lat="37.90382953665008" lon="13.992237542930607"><ele>967.0</ele><time>2026-04-09T08:51:18Z</time></trkpt><trkpt lat="37.90372110473509" lon="13.992181241833272"><ele>967.0</ele><time>2026-04-09T08:51:19Z</time></trkpt><trkpt lat="37.90362268558391" lon="13.992069520516798"><ele>967.0</ele><time>2026-04-09T08:51:20Z</time></trkpt><trkpt lat="37.903530953855295" lon="13.991931472028181"><ele>967.0</ele><time>2026-04-09T08:51:21Z</time></trkpt><trkpt lat="37.90343018933998" lon="13.991832989007042"><ele>967.0</ele><time>2026-04-09T08:51:22Z</time></trkpt><trkpt lat="37.90333475225036" lon="13.991780312686478"><ele>969.3333333333333</ele><time>2026-04-09T08:51:23Z</time></trkpt><trkpt lat="37.90325895856779" lon="13.991751906621625"><ele>971.6666666666666</ele><time>2026-04-09T08:51:24Z</time></trkpt><trkpt lat="37.90318079897174" lon="13.991753443470035"><ele>974.0</ele><time>2026-04-09T08:51:25Z</time></trkpt><trkpt lat="37.90311067355796" lon="13.991800789981369"><ele>976.3333333333333</ele><time>2026-04-09T08:51:26Z</time></trkpt><trkpt lat="37.9030758670801" lon="13.991887754761596"><ele>978.6666666666666</ele><time>2026-04-09T08:51:27Z</time></trkpt><trkpt lat="37.90308175784845" lon="13.991992481666228"><ele>981.0</ele><time>2026-04-09T08:51:27.999Z</time></trkpt><trkpt lat="37.903124721403024" lon="13.992084703254553"><ele>981.0</ele><time>2026-04-09T08:51:28.999Z</time></trkpt><trkpt lat="37.903198363235006" lon="13.992144698396947"><ele>980.9999999999999</ele><time>2026-04-09T08:51:29.999Z</time></trkpt><trkpt lat="37.90328970951115" lon="13.992167215399608"><ele>980.9999999999999</ele><time>2026-04-09T08:51:30.999Z</time></trkpt><trkpt lat="37.90338303474676" lon="13.992173046221845"><ele>981.0</ele><time>2026-04-09T08:51:31.999Z</time></trkpt><trkpt lat="37.90345982491828" lon="13.992216171890872"><ele>981.0</ele><time>2026-04-09T08:51:32.999Z</time></trkpt><trkpt lat="37.903522161003025" lon="13.99231725154783"><ele>981.5</ele><time>2026-04-09T08:51:33.999Z</time></trkpt><trkpt lat="37.90358391546436" lon="13.992450743032002"><ele>982.0</ele><time>2026-04-09T08:51:34.999Z</time></trkpt><trkpt lat="37.90368200272781" lon="13.99258293098477"><ele>982.5</ele><time>2026-04-09T08:51:35.999Z</time></trkpt><trkpt lat="37.903805778314144" lon="13.992669573381066"><ele>983.0</ele><time>2026-04-09T08:51:36.999Z</time></trkpt><trkpt lat="37.90390234959768" lon="13.99274060294783"><ele>983.0</ele><time>2026-04-09T08:51:37.999Z</time></trkpt><trkpt lat="37.90396184067485" lon="13.992837660478465"><ele>983.0</ele><time>2026-04-09T08:51:38.999Z</time></trkpt><trkpt lat="37.90399194210751" lon="13.992950438382023"><ele>983.0</ele><time>2026-04-09T08:51:39.999Z</time></trkpt><trkpt lat="37.90398902064502" lon="13.993069049285044"><ele>983.0</ele><time>2026-04-09T08:51:40.999Z</time></trkpt><trkpt lat="37.90394955530531" lon="13.993195607379565"><ele>983.0</ele><time>2026-04-09T08:51:41.999Z</time></trkpt><trkpt lat="37.90389521039864" lon="13.99332146731195"><ele>985.25</ele><time>2026-04-09T08:51:42.999Z</time></trkpt><trkpt lat="37.903863604152434" lon="13.993443833844164"><ele>987.5</ele><time>2026-04-09T08:51:43.999Z</time></trkpt><trkpt lat="37.90387868278456" lon="13.99358097682274"><ele>989.75</ele><time>2026-04-09T08:51:44.999Z</time></trkpt><trkpt lat="37.90392521073594" lon="13.993747814191535"><ele>992.0</ele><time>2026-04-09T08:51:45.999Z</time></trkpt><trkpt lat="37.9040085149929" lon="13.993946541316372"><ele>997.6666666666667</ele><time>2026-04-09T08:51:46.999Z</time></trkpt><trkpt lat="37.904101239407645" lon="13.994176828894997"><ele>1003.3333333333333</ele><time>2026-04-09T08:51:47.999Z</time></trkpt><trkpt lat="37.9041748065025" lon="13.99439607949694"><ele>1009.0</ele><time>2026-04-09T08:51:48.999Z</time></trkpt><trkpt lat="37.904232095408545" lon="13.994561241032688"><ele>1001.3333333333333</ele><time>2026-04-09T08:51:49.999Z</time></trkpt><trkpt lat="37.904313495631826" lon="13.994685354828349"><ele>993.6666666666667</ele><time>2026-04-09T08:51:50.999Z</time></trkpt><trkpt lat="37.904433858813086" lon="13.99481083985783"><ele>986.0</ele><time>2026-04-09T08:51:51.999Z</time></trkpt><trkpt lat="37.90458807570541" lon="13.994961730626603"><ele>988.75</ele><time>2026-04-09T08:51:52.999Z</time></trkpt><trkpt lat="37.904722563875225" lon="13.995100650691878"><ele>991.5</ele><time>2026-04-09T08:51:53.999Z</time></trkpt><trkpt lat="37.90482761999923" lon="13.995205628427641"><ele>994.25</ele><time>2026-04-09T08:51:54.999Z</time></trkpt><trkpt lat="37.90490279813294" lon="13.995294413837717"><ele>997.0</ele><time>2026-04-09T08:51:55.999Z</time></trkpt><trkpt lat="37.904935118360015" lon="13.995368780261954"><ele>996.9999999999999</ele><time>2026-04-09T08:51:56.999Z</time></trkpt><trkpt lat="37.90491143991148" lon="13.9955163388091"><ele>997.0</ele><time>2026-04-09T08:51:58.999Z</time></trkpt><trkpt lat="37.90485489901315" lon="13.995578261470984"><ele>997.0</ele><time>2026-04-09T08:51:59.999Z</time></trkpt><trkpt lat="37.90477133125582" lon="13.995602024678302"><ele>997.0</ele><time>2026-04-09T08:52:00.999Z</time></trkpt><trkpt lat="37.90469016157096" lon="13.995575912657324"><ele>996.9999999999999</ele><time>2026-04-09T08:52:01.999Z</time></trkpt><trkpt lat="37.90462592237704" lon="13.995505421194267"><ele>997.0</ele><time>2026-04-09T08:52:02.999Z</time></trkpt><trkpt lat="37.90459199379985" lon="13.995399325247552"><ele>997.0</ele><time>2026-04-09T08:52:03.999Z</time></trkpt><trkpt lat="37.904585921213254" lon="13.995276251744516"><ele>997.0</ele><time>2026-04-09T08:52:04.999Z</time></trkpt><trkpt lat="37.90456104693262" lon="13.995166451498557"><ele>997.0</ele><time>2026-04-09T08:52:05.999Z</time></trkpt><trkpt lat="37.90448571794177" lon="13.995084716072169"><ele>997.0</ele><time>2026-04-09T08:52:06.999Z</time></trkpt><trkpt lat="37.90437664631645" lon="13.99503089357794"><ele>997.0</ele><time>2026-04-09T08:52:07.999Z</time></trkpt><trkpt lat="37.90425045714443" lon="13.994975301454321"><ele>1000.0</ele><time>2026-04-09T08:52:08.999Z</time></trkpt><trkpt lat="37.904140305804646" lon="13.994904189382254"><ele>1003.0</ele><time>2026-04-09T08:52:09.999Z</time></trkpt><trkpt lat="37.90405435828789" lon="13.99479143428026"><ele>1006.0</ele><time>2026-04-09T08:52:10.999Z</time></trkpt><trkpt lat="37.90397640270658" lon="13.994638015702744"><ele>1009.0</ele><time>2026-04-09T08:52:11.999Z</time></trkpt><trkpt lat="37.9039010420841" lon="13.994485097044581"><ele>1009.0</ele><time>2026-04-09T08:52:12.999Z</time></trkpt><trkpt lat="37.90382970976745" lon="13.994375556392802"><ele>1009.0</ele><time>2026-04-09T08:52:13.999Z</time></trkpt><trkpt lat="37.903743007477075" lon="13.994303527701508"><ele>1009.0</ele><time>2026-04-09T08:52:14.999Z</time></trkpt><trkpt lat="37.903620506718894" lon="13.994263909255405"><ele>1009.0</ele><time>2026-04-09T08:52:15.999Z</time></trkpt><trkpt lat="37.90347195649265" lon="13.994245412551757"><ele>1009.75</ele><time>2026-04-09T08:52:16.999Z</time></trkpt><trkpt lat="37.903307334065914" lon="13.994217873302937"><ele>1010.5</ele><time>2026-04-09T08:52:17.999Z</time></trkpt><trkpt lat="37.90318110821188" lon="13.994174217395587"><ele>1011.25</ele><time>2026-04-09T08:52:18.999Z</time></trkpt><trkpt lat="37.90309060801451" lon="13.994121357897873"><ele>1012.0</ele><time>2026-04-09T08:52:19.999Z</time></trkpt><trkpt lat="37.90301761624114" lon="13.994078820412502"><ele>1011.9999999999999</ele><time>2026-04-09T08:52:20.999Z</time></trkpt><trkpt lat="37.90294538498777" lon="13.994078426904094"><ele>1012.0</ele><time>2026-04-09T08:52:21.999Z</time></trkpt><trkpt lat="37.902891031346336" lon="13.994140048378513"><ele>1012.0</ele><time>2026-04-09T08:52:22.999Z</time></trkpt><trkpt lat="37.90286457411013" lon="13.994240204006337"><ele>1012.0</ele><time>2026-04-09T08:52:23.999Z</time></trkpt><trkpt lat="37.902883333592676" lon="13.994347397380261"><ele>1011.9999999999999</ele><time>2026-04-09T08:52:24.999Z</time></trkpt><trkpt lat="37.90294028147413" lon="13.994425972803567"><ele>1012.0</ele><time>2026-04-09T08:52:25.999Z</time></trkpt><trkpt lat="37.903029014010585" lon="13.99446991085258"><ele>1015.25</ele><time>2026-04-09T08:52:26.999Z</time></trkpt><trkpt lat="37.90313887777564" lon="13.994494727033342"><ele>1018.5</ele><time>2026-04-09T08:52:27.999Z</time></trkpt><trkpt lat="37.903234700667404" lon="13.994538991712567"><ele>1021.75</ele><time>2026-04-09T08:52:28.999Z</time></trkpt><trkpt lat="37.903320375317826" lon="13.994631052895667"><ele>1025.0</ele><time>2026-04-09T08:52:29.999Z</time></trkpt><trkpt lat="37.90341172329569" lon="13.994766861881395"><ele>1024.0</ele><time>2026-04-09T08:52:31Z</time></trkpt><trkpt lat="37.903515850399785" lon="13.994941775746183"><ele>1023.0</ele><time>2026-04-09T08:52:32Z</time></trkpt><trkpt lat="37.90362381714801" lon="13.995117491975217"><ele>1022.0</ele><time>2026-04-09T08:52:33Z</time></trkpt><trkpt lat="37.903720744313155" lon="13.995256980161313"><ele>1022.0</ele><time>2026-04-09T08:52:34Z</time></trkpt><trkpt lat="37.903788252214355" lon="13.995364783210858"><ele>1022.0</ele><time>2026-04-09T08:52:35Z</time></trkpt><trkpt lat="37.90383062736147" lon="13.995464961190791"><ele>1022.0</ele><time>2026-04-09T08:52:36Z</time></trkpt><trkpt lat="37.90384716603371" lon="13.995586627288757"><ele>1022.0</ele><time>2026-04-09T08:52:37Z</time></trkpt><trkpt lat="37.90383736048909" lon="13.995734034875976"><ele>1022.0</ele><time>2026-04-09T08:52:38Z</time></trkpt><trkpt lat="37.90380032272275" lon="13.995907870177877"><ele>1023.6666666666667</ele><time>2026-04-09T08:52:39Z</time></trkpt><trkpt lat="37.90378669840105" lon="13.996124063669157"><ele>1025.3333333333333</ele><time>2026-04-09T08:52:40Z</time></trkpt><trkpt lat="37.90380938573371" lon="13.996358133921394"><ele>1027.0</ele><time>2026-04-09T08:52:41Z</time></trkpt><trkpt lat="37.9038426525732" lon="13.996621286466235"><ele>1026.5</ele><time>2026-04-09T08:52:42Z</time></trkpt><trkpt lat="37.903859291200284" lon="13.996828707413039"><ele>1026.0</ele><time>2026-04-09T08:52:43Z</time></trkpt><trkpt lat="37.90387185807855" lon="13.996978871485437"><ele>1025.5</ele><time>2026-04-09T08:52:44Z</time></trkpt><trkpt lat="37.90386795730056" lon="13.997100658004193"><ele>1025.0</ele><time>2026-04-09T08:52:45Z</time></trkpt><trkpt lat="37.90381174839414" lon="13.99720370032942"><ele>1025.0</ele><time>2026-04-09T08:52:46Z</time></trkpt><trkpt lat="37.90374158592106" lon="13.997302195508878"><ele>1025.0</ele><time>2026-04-09T08:52:47Z</time></trkpt><trkpt lat="37.9036552818685" lon="13.997461141053712"><ele>1025.0</ele><time>2026-04-09T08:52:48Z</time></trkpt><trkpt lat="37.90355896692231" lon="13.997630462656838"><ele>1025.0</ele><time>2026-04-09T08:52:49Z</time></trkpt><trkpt lat="37.90343686775597" lon="13.997845784264994"><ele>1030.3333333333335</ele><time>2026-04-09T08:52:50Z</time></trkpt><trkpt lat="37.903307887554135" lon="13.998067664315123"><ele>1035.6666666666667</ele><time>2026-04-09T08:52:51Z</time></trkpt><trkpt lat="37.9031862194661" lon="13.99827985393352"><ele>1041.0</ele><time>2026-04-09T08:52:52Z</time></trkpt><trkpt lat="37.903084306956586" lon="13.99845853057479"><ele>1041.0</ele><time>2026-04-09T08:52:53Z</time></trkpt><trkpt lat="37.902992449523964" lon="13.998620681527962"><ele>1041.0</ele><time>2026-04-09T08:52:54Z</time></trkpt><trkpt lat="37.902908894288004" lon="13.998768194358728"><ele>1041.0</ele><time>2026-04-09T08:52:55Z</time></trkpt><trkpt lat="37.90284018761372" lon="13.99888995456759"><ele>1041.0</ele><time>2026-04-09T08:52:56Z</time></trkpt><trkpt lat="37.90279679294809" lon="13.998990702682764"><ele>1041.0</ele><time>2026-04-09T08:52:57Z</time></trkpt><trkpt lat="37.90277684090318" lon="13.99911138505117"><ele>1041.0</ele><time>2026-04-09T08:52:58Z</time></trkpt><trkpt lat="37.90279962429053" lon="13.999278703938264"><ele>1041.0</ele><time>2026-04-09T08:52:59Z</time></trkpt><trkpt lat="37.90283997986936" lon="13.999452338095729"><ele>1041.0</ele><time>2026-04-09T08:53:00Z</time></trkpt><trkpt lat="37.90288675162813" lon="13.999658927906276"><ele>1043.25</ele><time>2026-04-09T08:53:01Z</time></trkpt><trkpt lat="37.902925806009065" lon="13.999845795613465"><ele>1045.5</ele><time>2026-04-09T08:53:02Z</time></trkpt><trkpt lat="37.9029619313119" lon="14.000007531856435"><ele>1047.75</ele><time>2026-04-09T08:53:03Z</time></trkpt><trkpt lat="37.90300621422241" lon="14.00015981604746"><ele>1050.0</ele><time>2026-04-09T08:53:04Z</time></trkpt><trkpt lat="37.90308612055518" lon="14.000306689283763"><ele>1050.0</ele><time>2026-04-09T08:53:05Z</time></trkpt><trkpt lat="37.90319720004889" lon="14.000425148421257"><ele>1050.0</ele><time>2026-04-09T08:53:06Z</time></trkpt><trkpt lat="37.90328096114811" lon="14.000531622509273"><ele>1050.0</ele><time>2026-04-09T08:53:07Z</time></trkpt><trkpt lat="37.903350676502924" lon="14.000614609065364"><ele>1050.0</ele><time>2026-04-09T08:53:08Z</time></trkpt><trkpt lat="37.90339806174296" lon="14.000698845792835"><ele>1050.0</ele><time>2026-04-09T08:53:09Z</time></trkpt><trkpt lat="37.90339100140567" lon="14.000834673807557"><ele>1050.0</ele><time>2026-04-09T08:53:11Z</time></trkpt><trkpt lat="37.903324864968575" lon="14.000864874973207"><ele>1050.0</ele><time>2026-04-09T08:53:12Z</time></trkpt><trkpt lat="37.903197001147795" lon="14.000843307826765"><ele>1050.0</ele><time>2026-04-09T08:53:14Z</time></trkpt><trkpt lat="37.90315545586697" lon="14.000734541967038"><ele>1050.0</ele><time>2026-04-09T08:53:15Z</time></trkpt><trkpt lat="37.903078448884386" lon="14.000607282181631"><ele>1050.0</ele><time>2026-04-09T08:53:16Z</time></trkpt><trkpt lat="37.903015708758055" lon="14.000437826220624"><ele>1050.0</ele><time>2026-04-09T08:53:17Z</time></trkpt><trkpt lat="37.90295150416508" lon="14.000281228907983"><ele>1050.0</ele><time>2026-04-09T08:53:18Z</time></trkpt><trkpt lat="37.90285971722529" lon="14.000156664246951"><ele>1050.0</ele><time>2026-04-09T08:53:19Z</time></trkpt><trkpt lat="37.90276914436285" lon="14.000057354426536"><ele>1050.0</ele><time>2026-04-09T08:53:20Z</time></trkpt><trkpt lat="37.90271080428038" lon="13.999951178923476"><ele>1055.0</ele><time>2026-04-09T08:53:21Z</time></trkpt><trkpt lat="37.902558503568585" lon="13.99983693880025"><ele>1060.0</ele><time>2026-04-09T08:53:22Z</time></trkpt><trkpt lat="37.902518643923564" lon="13.999685961740006"><ele>1065.0</ele><time>2026-04-09T08:53:23Z</time></trkpt><trkpt lat="37.90245326161454" lon="13.999540715191136"><ele>1070.0</ele><time>2026-04-09T08:53:24Z</time></trkpt><trkpt lat="37.90239981858417" lon="13.999399984745047"><ele>1070.0</ele><time>2026-04-09T08:53:25Z</time></trkpt><trkpt lat="37.902287456284455" lon="13.999292402667646"><ele>1070.0</ele><time>2026-04-09T08:53:26Z</time></trkpt><trkpt lat="37.90213428668116" lon="13.999194156181682"><ele>1070.0</ele><time>2026-04-09T08:53:27Z</time></trkpt><trkpt lat="37.90196294014982" lon="13.999096137586942"><ele>1071.25</ele><time>2026-04-09T08:53:28Z</time></trkpt><trkpt lat="37.9018240802535" lon="13.998994704374427"><ele>1072.5</ele><time>2026-04-09T08:53:29Z</time></trkpt><trkpt lat="37.90170912649356" lon="13.998918141909822"><ele>1073.75</ele><time>2026-04-09T08:53:30Z</time></trkpt><trkpt lat="37.90158719555836" lon="13.998885120840464"><ele>1075.0</ele><time>2026-04-09T08:53:30.999Z</time></trkpt><trkpt lat="37.901453290574715" lon="13.998877010245774"><ele>1075.0</ele><time>2026-04-09T08:53:31.999Z</time></trkpt><trkpt lat="37.9012976020651" lon="13.99887973923351"><ele>1075.0</ele><time>2026-04-09T08:53:32.999Z</time></trkpt><trkpt lat="37.901148177172146" lon="13.998879090304891"><ele>1075.0</ele><time>2026-04-09T08:53:33.999Z</time></trkpt><trkpt lat="37.90103505283461" lon="13.998836181653793"><ele>1075.0</ele><time>2026-04-09T08:53:34.999Z</time></trkpt><trkpt lat="37.90094605971466" lon="13.998785573253862"><ele>1074.75</ele><time>2026-04-09T08:53:35.999Z</time></trkpt><trkpt lat="37.900868210845395" lon="13.998697775051417"><ele>1074.5</ele><time>2026-04-09T08:53:36.999Z</time></trkpt><trkpt lat="37.90077277117995" lon="13.998568463105117"><ele>1074.25</ele><time>2026-04-09T08:53:37.999Z</time></trkpt><trkpt lat="37.900656702564106" lon="13.998412429332976"><ele>1074.0</ele><time>2026-04-09T08:53:38.999Z</time></trkpt><trkpt lat="37.900537660035994" lon="13.998246986045034"><ele>1075.75</ele><time>2026-04-09T08:53:39.999Z</time></trkpt><trkpt lat="37.90043716830563" lon="13.9981137724112"><ele>1077.5</ele><time>2026-04-09T08:53:40.999Z</time></trkpt><trkpt lat="37.900339009904386" lon="13.99801592932648"><ele>1079.25</ele><time>2026-04-09T08:53:41.999Z</time></trkpt><trkpt lat="37.90025553269768" lon="13.997931090204585"><ele>1081.0</ele><time>2026-04-09T08:53:42.999Z</time></trkpt><trkpt lat="37.90015333953035" lon="13.997868931096688"><ele>1080.5</ele><time>2026-04-09T08:53:43.999Z</time></trkpt><trkpt lat="37.900036278898995" lon="13.997835509877694"><ele>1080.0</ele><time>2026-04-09T08:53:44.999Z</time></trkpt><trkpt lat="37.899913561355376" lon="13.997832485080604"><ele>1079.5</ele><time>2026-04-09T08:53:45.999Z</time></trkpt><trkpt lat="37.899778865310125" lon="13.997793020313596"><ele>1079.0</ele><time>2026-04-09T08:53:46.999Z</time></trkpt><trkpt lat="37.8996719757675" lon="13.997758684062763"><ele>1079.0</ele><time>2026-04-09T08:53:47.999Z</time></trkpt><trkpt lat="37.899579655846026" lon="13.997695660384291"><ele>1079.0</ele><time>2026-04-09T08:53:48.999Z</time></trkpt><trkpt lat="37.89951193219669" lon="13.997597201339682"><ele>1079.0</ele><time>2026-04-09T08:53:49.999Z</time></trkpt><trkpt lat="37.89947441440069" lon="13.997486114773126"><ele>1079.0</ele><time>2026-04-09T08:53:50.999Z</time></trkpt><trkpt lat="37.89942101180726" lon="13.997342446155738"><ele>1079.0</ele><time>2026-04-09T08:53:51.999Z</time></trkpt><trkpt lat="37.899422083273116" lon="13.997134855709833"><ele>1081.3333333333335</ele><time>2026-04-09T08:53:52.999Z</time></trkpt><trkpt lat="37.89937786673003" lon="13.996902710242141"><ele>1083.6666666666667</ele><time>2026-04-09T08:53:53.999Z</time></trkpt><trkpt lat="37.89935256049" lon="13.996683172661513"><ele>1086.0</ele><time>2026-04-09T08:53:54.999Z</time></trkpt><trkpt lat="37.89933051821234" lon="13.996516046718488"><ele>1086.6666666666667</ele><time>2026-04-09T08:53:55.999Z</time></trkpt><trkpt lat="37.899304772318125" lon="13.996387168850774"><ele>1087.3333333333333</ele><time>2026-04-09T08:53:56.999Z</time></trkpt><trkpt lat="37.89927072015852" lon="13.996288842343231"><ele>1088.0</ele><time>2026-04-09T08:53:57.999Z</time></trkpt><trkpt lat="37.89921191689272" lon="13.996217025018515"><ele>1088.6666666666665</ele><time>2026-04-09T08:53:58.999Z</time></trkpt><trkpt lat="37.89913699416788" lon="13.996153322254896"><ele>1089.3333333333333</ele><time>2026-04-09T08:53:59.999Z</time></trkpt><trkpt lat="37.89906553795008" lon="13.996126621955163"><ele>1090.0</ele><time>2026-04-09T08:54:00.999Z</time></trkpt><trkpt lat="37.89899901038165" lon="13.99612724703326"><ele>1090.0</ele><time>2026-04-09T08:54:01.999Z</time></trkpt><trkpt lat="37.89892741261633" lon="13.996145828102133"><ele>1090.0</ele><time>2026-04-09T08:54:02.999Z</time></trkpt><trkpt lat="37.89885265614543" lon="13.996182046815646"><ele>1090.0</ele><time>2026-04-09T08:54:03.999Z</time></trkpt><trkpt lat="37.89878269378855" lon="13.996239807053428"><ele>1090.0</ele><time>2026-04-09T08:54:04.999Z</time></trkpt><trkpt lat="37.89872360292233" lon="13.99634188292314"><ele>1090.0</ele><time>2026-04-09T08:54:05.999Z</time></trkpt><trkpt lat="37.898676206186835" lon="13.996487835968477"><ele>1090.0</ele><time>2026-04-09T08:54:06.999Z</time></trkpt><trkpt lat="37.898639909853195" lon="13.996619434249958"><ele>1090.0</ele><time>2026-04-09T08:54:07.999Z</time></trkpt><trkpt lat="37.89860276393182" lon="13.996689440495908"><ele>1090.0</ele><time>2026-04-09T08:54:09.999Z</time></trkpt><trkpt lat="37.89858882442942" lon="13.996780343580008"><ele>1090.0</ele><time>2026-04-09T08:54:46Z</time></trkpt><trkpt lat="37.89854594818422" lon="13.996887967866998"><ele>1090.0</ele><time>2026-04-09T08:54:47Z</time></trkpt><trkpt lat="37.898510097206724" lon="13.99701867545768"><ele>1089.4</ele><time>2026-04-09T08:54:48Z</time></trkpt><trkpt lat="37.8984687075459" lon="13.997126427257266"><ele>1088.8</ele><time>2026-04-09T08:54:49Z</time></trkpt><trkpt lat="37.89839979407141" lon="13.997209872079402"><ele>1088.2</ele><time>2026-04-09T08:54:50Z</time></trkpt><trkpt lat="37.898323645894955" lon="13.99729373829362"><ele>1087.6</ele><time>2026-04-09T08:54:51Z</time></trkpt><trkpt lat="37.898224302964515" lon="13.997391011606224"><ele>1087.0</ele><time>2026-04-09T08:54:52Z</time></trkpt><trkpt lat="37.89813435829224" lon="13.997510019987445"><ele>1088.6</ele><time>2026-04-09T08:54:53Z</time></trkpt><trkpt lat="37.898046414062094" lon="13.997594876950052"><ele>1090.2</ele><time>2026-04-09T08:54:54Z</time></trkpt><trkpt lat="37.89797192441936" lon="13.99766376294098"><ele>1091.8</ele><time>2026-04-09T08:54:55Z</time></trkpt><trkpt lat="37.89789717830146" lon="13.9977111056989"><ele>1093.4</ele><time>2026-04-09T08:54:56Z</time></trkpt><trkpt lat="37.897822629105505" lon="13.997717369928282"><ele>1095.0</ele><time>2026-04-09T08:54:57Z</time></trkpt><trkpt lat="37.89771937945286" lon="13.997660494490082"><ele>1095.0</ele><time>2026-04-09T08:54:59Z</time></trkpt><trkpt lat="37.89766644449732" lon="13.997587710152475"><ele>1095.0</ele><time>2026-04-09T08:55:01Z</time></trkpt><trkpt lat="37.89759988515243" lon="13.997607389616366"><ele>1095.0</ele><time>2026-04-09T08:55:04Z</time></trkpt><trkpt lat="37.897475677011315" lon="13.997653949966384"><ele>1095.0</ele><time>2026-04-09T08:56:52Z</time></trkpt><trkpt lat="37.89737874070887" lon="13.99767065552339"><ele>1095.0</ele><time>2026-04-09T08:56:53Z</time></trkpt><trkpt lat="37.89728964609721" lon="13.997681848527256"><ele>1096.2</ele><time>2026-04-09T08:56:54Z</time></trkpt><trkpt lat="37.89718757039763" lon="13.997686680994299"><ele>1097.4</ele><time>2026-04-09T08:56:55Z</time></trkpt><trkpt lat="37.897079806359514" lon="13.997706627602817"><ele>1098.6</ele><time>2026-04-09T08:56:56Z</time></trkpt><trkpt lat="37.89698417060319" lon="13.997759049360495"><ele>1099.8</ele><time>2026-04-09T08:56:57Z</time></trkpt><trkpt lat="37.896896309307756" lon="13.997840100525618"><ele>1101.0</ele><time>2026-04-09T08:56:58Z</time></trkpt><trkpt lat="37.89681025643782" lon="13.997945437901338"><ele>1100.0</ele><time>2026-04-09T08:56:59Z</time></trkpt><trkpt lat="37.89672052437032" lon="13.998073818284746"><ele>1099.0</ele><time>2026-04-09T08:57:00Z</time></trkpt><trkpt lat="37.89663560936053" lon="13.998248319387086"><ele>1098.0</ele><time>2026-04-09T08:57:01Z</time></trkpt><trkpt lat="37.8965502217407" lon="13.998435641123118"><ele>1103.6666666666667</ele><time>2026-04-09T08:57:02Z</time></trkpt><trkpt lat="37.89644546742688" lon="13.998614957961825"><ele>1109.3333333333335</ele><time>2026-04-09T08:57:03Z</time></trkpt><trkpt lat="37.89635684436653" lon="13.998790001071733"><ele>1115.0</ele><time>2026-04-09T08:57:04Z</time></trkpt><trkpt lat="37.89627471942796" lon="13.998935853507435"><ele>1115.0</ele><time>2026-04-09T08:57:05Z</time></trkpt><trkpt lat="37.89618335293917" lon="13.999082240383228"><ele>1115.0</ele><time>2026-04-09T08:57:06Z</time></trkpt><trkpt lat="37.89608668740109" lon="13.99922417390358"><ele>1115.0</ele><time>2026-04-09T08:57:07Z</time></trkpt><trkpt lat="37.895985412505354" lon="13.999352862655172"><ele>1115.0</ele><time>2026-04-09T08:57:08Z</time></trkpt><trkpt lat="37.895884628502294" lon="13.999455090981328"><ele>1117.25</ele><time>2026-04-09T08:57:09Z</time></trkpt><trkpt lat="37.89577474638748" lon="13.999538088371041"><ele>1119.5</ele><time>2026-04-09T08:57:10Z</time></trkpt><trkpt lat="37.89564941984066" lon="13.999581976200078"><ele>1121.75</ele><time>2026-04-09T08:57:11Z</time></trkpt><trkpt lat="37.89549652162498" lon="13.99961602743175"><ele>1124.0</ele><time>2026-04-09T08:57:12Z</time></trkpt><trkpt lat="37.89532307234573" lon="13.999652296417786"><ele>1124.0</ele><time>2026-04-09T08:57:13Z</time></trkpt><trkpt lat="37.89516219629785" lon="13.999686439175276"><ele>1124.0</ele><time>2026-04-09T08:57:14Z</time></trkpt><trkpt lat="37.895025513118306" lon="13.999714991061328"><ele>1124.0</ele><time>2026-04-09T08:57:15Z</time></trkpt><trkpt lat="37.89489629709281" lon="13.99973048825483"><ele>1124.0</ele><time>2026-04-09T08:57:16Z</time></trkpt><trkpt lat="37.894772691091156" lon="13.999733070055811"><ele>1123.5</ele><time>2026-04-09T08:57:17Z</time></trkpt><trkpt lat="37.89465001703422" lon="13.999722828441497"><ele>1123.0</ele><time>2026-04-09T08:57:18Z</time></trkpt><trkpt lat="37.89453392780717" lon="13.999708692076439"><ele>1122.5</ele><time>2026-04-09T08:57:19Z</time></trkpt><trkpt lat="37.89441776733473" lon="13.99969113337225"><ele>1122.0</ele><time>2026-04-09T08:57:20Z</time></trkpt><trkpt lat="37.89429118708543" lon="13.999670361463297"><ele>1123.0</ele><time>2026-04-09T08:57:21Z</time></trkpt><trkpt lat="37.89416347996529" lon="13.999649420500814"><ele>1124.0</ele><time>2026-04-09T08:57:22Z</time></trkpt><trkpt lat="37.89404253780618" lon="13.999629665262942"><ele>1125.0</ele><time>2026-04-09T08:57:23Z</time></trkpt><trkpt lat="37.89392516141329" lon="13.999610492447319"><ele>1126.0</ele><time>2026-04-09T08:57:24Z</time></trkpt><trkpt lat="37.89380060347589" lon="13.9995901465231"><ele>1126.0</ele><time>2026-04-09T08:57:25Z</time></trkpt><trkpt lat="37.893679402240565" lon="13.999568064816641"><ele>1126.0</ele><time>2026-04-09T08:57:26Z</time></trkpt><trkpt lat="37.893585504058585" lon="13.999537604751245"><ele>1126.0</ele><time>2026-04-09T08:57:27Z</time></trkpt><trkpt lat="37.893500346652424" lon="13.999478089629376"><ele>1126.0</ele><time>2026-04-09T08:57:28Z</time></trkpt><trkpt lat="37.89340579043682" lon="13.999399257154758"><ele>1126.0</ele><time>2026-04-09T08:57:29Z</time></trkpt><trkpt lat="37.89331128581108" lon="13.999339914629122"><ele>1125.5</ele><time>2026-04-09T08:57:30Z</time></trkpt><trkpt lat="37.89319451533875" lon="13.999300882173468"><ele>1125.0</ele><time>2026-04-09T08:57:31Z</time></trkpt><trkpt lat="37.89308332494621" lon="13.999251631050617"><ele>1124.5</ele><time>2026-04-09T08:57:31.999Z</time></trkpt><trkpt lat="37.89297258616959" lon="13.999208355474629"><ele>1124.0</ele><time>2026-04-09T08:57:32.999Z</time></trkpt><trkpt lat="37.89287808726076" lon="13.999143192002162"><ele>1124.0</ele><time>2026-04-09T08:57:33.999Z</time></trkpt><trkpt lat="37.89277986411795" lon="13.999109778839886"><ele>1124.0</ele><time>2026-04-09T08:57:34.999Z</time></trkpt><trkpt lat="37.89268758100861" lon="13.999108512124357"><ele>1124.0</ele><time>2026-04-09T08:57:35.999Z</time></trkpt><trkpt lat="37.89259074570632" lon="13.99910446069726"><ele>1124.0</ele><time>2026-04-09T08:57:36.999Z</time></trkpt><trkpt lat="37.89247843789764" lon="13.99912344621634"><ele>1124.0</ele><time>2026-04-09T08:57:37.999Z</time></trkpt><trkpt lat="37.892367678438795" lon="13.999166385696842"><ele>1129.0</ele><time>2026-04-09T08:57:38.999Z</time></trkpt><trkpt lat="37.89227182029884" lon="13.999223052189638"><ele>1134.0</ele><time>2026-04-09T08:57:39.999Z</time></trkpt><trkpt lat="37.892167471154025" lon="13.999276854315486"><ele>1139.0</ele><time>2026-04-09T08:57:40.999Z</time></trkpt><trkpt lat="37.892047248214" lon="13.99933603465405"><ele>1144.0</ele><time>2026-04-09T08:57:41.999Z</time></trkpt><trkpt lat="37.89191086831503" lon="13.999415085308128"><ele>1143.0</ele><time>2026-04-09T08:57:42.999Z</time></trkpt><trkpt lat="37.891751694816556" lon="13.99950164096541"><ele>1142.0</ele><time>2026-04-09T08:57:43.999Z</time></trkpt><trkpt lat="37.89158817903725" lon="13.999586445917547"><ele>1141.0</ele><time>2026-04-09T08:57:44.999Z</time></trkpt><trkpt lat="37.89144148804171" lon="13.999658160635637"><ele>1141.0</ele><time>2026-04-09T08:57:45.999Z</time></trkpt><trkpt lat="37.891320018633174" lon="13.999729779503932"><ele>1141.0</ele><time>2026-04-09T08:57:46.999Z</time></trkpt><trkpt lat="37.891212749104916" lon="13.999809512103083"><ele>1141.0</ele><time>2026-04-09T08:57:47.999Z</time></trkpt><trkpt lat="37.89110931593924" lon="13.999896632031218"><ele>1141.0</ele><time>2026-04-09T08:57:48.999Z</time></trkpt><trkpt lat="37.89101444851622" lon="13.999994759192775"><ele>1142.0</ele><time>2026-04-09T08:57:49.999Z</time></trkpt><trkpt lat="37.89091910825977" lon="14.000116263703786"><ele>1143.0</ele><time>2026-04-09T08:57:50.999Z</time></trkpt><trkpt lat="37.89084320082848" lon="14.000220775855977"><ele>1144.0</ele><time>2026-04-09T08:57:51.999Z</time></trkpt><trkpt lat="37.89078041875244" lon="14.000293199160769"><ele>1145.0</ele><time>2026-04-09T08:57:52.999Z</time></trkpt><trkpt lat="37.890719790196094" lon="14.00034978673067"><ele>1146.0</ele><time>2026-04-09T08:57:54.999Z</time></trkpt><trkpt lat="37.89062438431871" lon="14.000328248118493"><ele>1146.0</ele><time>2026-04-09T08:57:56.999Z</time></trkpt><trkpt lat="37.89055387359578" lon="14.000274889637634"><ele>1146.0</ele><time>2026-04-09T08:57:57.999Z</time></trkpt><trkpt lat="37.89049158676291" lon="14.000176813436351"><ele>1146.0</ele><time>2026-04-09T08:57:58.999Z</time></trkpt><trkpt lat="37.8904198029443" lon="14.000094263881834"><ele>1146.0</ele><time>2026-04-09T08:57:59.999Z</time></trkpt><trkpt lat="37.89034905183049" lon="14.0000330630847"><ele>1146.0</ele><time>2026-04-09T08:58:00.999Z</time></trkpt><trkpt lat="37.890261158986306" lon="14.000002455678782"><ele>1146.0</ele><time>2026-04-09T08:58:01.999Z</time></trkpt><trkpt lat="37.890168430035075" lon="13.999984398807632"><ele>1146.0</ele><time>2026-04-09T08:58:02.999Z</time></trkpt><trkpt lat="37.89006438529031" lon="13.999964360571493"><ele>1146.0</ele><time>2026-04-09T08:58:03.999Z</time></trkpt><trkpt lat="37.88994750867603" lon="13.999977547382159"><ele>1146.0</ele><time>2026-04-09T08:58:04.999Z</time></trkpt><trkpt lat="37.88981650390429" lon="13.999992139296081"><ele>1146.0</ele><time>2026-04-09T08:58:05.999Z</time></trkpt><trkpt lat="37.88969184045561" lon="14.000006024892473"><ele>1147.5</ele><time>2026-04-09T08:58:06.999Z</time></trkpt><trkpt lat="37.88956290981728" lon="14.000017973059546"><ele>1149.0</ele><time>2026-04-09T08:58:07.999Z</time></trkpt><trkpt lat="37.88943148765901" lon="14.000050675378287"><ele>1150.5</ele><time>2026-04-09T08:58:08.999Z</time></trkpt><trkpt lat="37.8893102782223" lon="14.000068492396615"><ele>1152.0</ele><time>2026-04-09T08:58:09.999Z</time></trkpt><trkpt lat="37.88919930820027" lon="14.000063380881427"><ele>1153.4</ele><time>2026-04-09T08:58:10.999Z</time></trkpt><trkpt lat="37.88909453860782" lon="14.000090810655228"><ele>1154.8000000000002</ele><time>2026-04-09T08:58:11.999Z</time></trkpt><trkpt lat="37.888990572714945" lon="14.000134616613577"><ele>1156.2</ele><time>2026-04-09T08:58:12.999Z</time></trkpt><trkpt lat="37.88888621857203" lon="14.000198300694395"><ele>1157.6000000000001</ele><time>2026-04-09T08:58:13.999Z</time></trkpt><trkpt lat="37.88880411338721" lon="14.000259300974117"><ele>1159.0</ele><time>2026-04-09T08:58:14.999Z</time></trkpt><trkpt lat="37.8886926325209" lon="14.000305474978708"><ele>1159.0</ele><time>2026-04-09T08:58:16.999Z</time></trkpt><trkpt lat="37.88861489889348" lon="14.000277376053724"><ele>1159.0</ele><time>2026-04-09T08:58:18.999Z</time></trkpt><trkpt lat="37.88860441409332" lon="14.000143697814217"><ele>1159.0</ele><time>2026-04-09T08:58:20.999Z</time></trkpt><trkpt lat="37.88867450010832" lon="14.000021283613195"><ele>1159.0</ele><time>2026-04-09T08:58:22.999Z</time></trkpt><trkpt lat="37.88873497880632" lon="13.999975973317067"><ele>1159.0</ele><time>2026-04-09T08:58:23.999Z</time></trkpt><trkpt lat="37.88880108890573" lon="13.999926313689123"><ele>1159.0</ele><time>2026-04-09T08:58:24.999Z</time></trkpt><trkpt lat="37.88889200343581" lon="13.999861817152752"><ele>1159.0</ele><time>2026-04-09T08:58:26.999Z</time></trkpt><trkpt lat="37.88897092755352" lon="13.999803161427272"><ele>1159.0</ele><time>2026-04-09T08:58:33.999Z</time></trkpt><trkpt lat="37.88907031704382" lon="13.999741200753371"><ele>1159.0</ele><time>2026-04-09T08:58:35.999Z</time></trkpt><trkpt lat="37.889135547753405" lon="13.99969378446007"><ele>1159.0</ele><time>2026-04-09T08:58:36.999Z</time></trkpt><trkpt lat="37.88925359210855" lon="13.999628593991593"><ele>1157.8333333333333</ele><time>2026-04-09T08:58:38.999Z</time></trkpt><trkpt lat="37.88932447599609" lon="13.999591538170373"><ele>1156.6666666666665</ele><time>2026-04-09T08:58:39.999Z</time></trkpt><trkpt lat="37.8894108146625" lon="13.99956137265668"><ele>1155.5</ele><time>2026-04-09T08:58:40.999Z</time></trkpt><trkpt lat="37.88950260152245" lon="13.999535784629272"><ele>1154.3333333333333</ele><time>2026-04-09T08:58:41.999Z</time></trkpt><trkpt lat="37.88959642100268" lon="13.99951250441639"><ele>1153.1666666666667</ele><time>2026-04-09T08:58:42.999Z</time></trkpt><trkpt lat="37.889687347321875" lon="13.999501375189666"><ele>1152.0</ele><time>2026-04-09T08:58:43.999Z</time></trkpt><trkpt lat="37.889782048981246" lon="13.999506731104239"><ele>1152.0</ele><time>2026-04-09T08:58:44.999Z</time></trkpt><trkpt lat="37.88985511317309" lon="13.999513693364946"><ele>1152.0</ele><time>2026-04-09T08:58:45.999Z</time></trkpt><trkpt lat="37.88995973852893" lon="13.999510351868501"><ele>1152.0</ele><time>2026-04-09T08:58:48Z</time></trkpt><trkpt lat="37.890030566353424" lon="13.999516820403212"><ele>1152.0</ele><time>2026-04-09T08:58:51Z</time></trkpt><trkpt lat="37.89009460467231" lon="13.99951936739022"><ele>1152.0</ele><time>2026-04-09T08:58:53Z</time></trkpt><trkpt lat="37.89016397939403" lon="13.99952130423489"><ele>1152.0</ele><time>2026-04-09T08:58:55Z</time></trkpt><trkpt lat="37.890249312023876" lon="13.999546382781263"><ele>1150.8</ele><time>2026-04-09T08:58:57Z</time></trkpt><trkpt lat="37.890327163024494" lon="13.999492133526237"><ele>1149.6</ele><time>2026-04-09T08:58:59Z</time></trkpt><trkpt lat="37.890359543709295" lon="13.999367436734575"><ele>1148.3999999999999</ele><time>2026-04-09T08:59:01Z</time></trkpt><trkpt lat="37.89028808017485" lon="13.999236064567748"><ele>1147.2</ele><time>2026-04-09T08:59:03Z</time></trkpt><trkpt lat="37.89021626261356" lon="13.999216650878294"><ele>1146.0</ele><time>2026-04-09T08:59:04Z</time></trkpt><trkpt lat="37.890144524997126" lon="13.999241939421601"><ele>1147.0</ele><time>2026-04-09T08:59:05Z</time></trkpt><trkpt lat="37.89007645083967" lon="13.999294070998545"><ele>1148.0</ele><time>2026-04-09T08:59:06Z</time></trkpt><trkpt lat="37.89001482378269" lon="13.99932482375293"><ele>1149.0</ele><time>2026-04-09T08:59:07Z</time></trkpt><trkpt lat="37.88990919020616" lon="13.99932966619672"><ele>1150.0</ele><time>2026-04-09T08:59:09Z</time></trkpt><trkpt lat="37.88982466422441" lon="13.999315891672813"><ele>1151.0</ele><time>2026-04-09T08:59:10Z</time></trkpt><trkpt lat="37.889736567691436" lon="13.999305026925503"><ele>1152.0</ele><time>2026-04-09T08:59:11Z</time></trkpt><trkpt lat="37.889643693133415" lon="13.99929357291623"><ele>1152.0</ele><time>2026-04-09T08:59:12Z</time></trkpt><trkpt lat="37.88955065723335" lon="13.999283949949504"><ele>1152.0</ele><time>2026-04-09T08:59:13Z</time></trkpt><trkpt lat="37.889456525958195" lon="13.999277729038276"><ele>1152.0</ele><time>2026-04-09T08:59:14Z</time></trkpt><trkpt lat="37.889351068044604" lon="13.999281345016461"><ele>1152.0</ele><time>2026-04-09T08:59:15Z</time></trkpt><trkpt lat="37.88925488454435" lon="13.99929696562191"><ele>1152.0</ele><time>2026-04-09T08:59:16Z</time></trkpt><trkpt lat="37.88915376055055" lon="13.999318458901104"><ele>1153.4</ele><time>2026-04-09T08:59:17Z</time></trkpt><trkpt lat="37.88905771669638" lon="13.999342708356039"><ele>1154.8000000000002</ele><time>2026-04-09T08:59:18Z</time></trkpt><trkpt lat="37.88896171609694" lon="13.999369486490236"><ele>1156.2</ele><time>2026-04-09T08:59:19Z</time></trkpt><trkpt lat="37.88886893378719" lon="13.999395599022444"><ele>1157.6000000000001</ele><time>2026-04-09T08:59:20Z</time></trkpt><trkpt lat="37.888788649482" lon="13.999418905141033"><ele>1159.0</ele><time>2026-04-09T08:59:21Z</time></trkpt><trkpt lat="37.88868668089833" lon="13.999453350499454"><ele>1159.0</ele><time>2026-04-09T08:59:23Z</time></trkpt><trkpt lat="37.8885798011654" lon="13.999493089948038"><ele>1159.0</ele><time>2026-04-09T08:59:25Z</time></trkpt><trkpt lat="37.888446227320564" lon="13.99954367032252"><ele>1159.0</ele><time>2026-04-09T08:59:27Z</time></trkpt><trkpt lat="37.88835903130451" lon="13.999578570481516"><ele>1159.0</ele><time>2026-04-09T08:59:28Z</time></trkpt><trkpt lat="37.888267007902726" lon="13.999613409163882"><ele>1159.0</ele><time>2026-04-09T08:59:29Z</time></trkpt><trkpt lat="37.888181439153534" lon="13.999635831634231"><ele>1160.8333333333333</ele><time>2026-04-09T08:59:30Z</time></trkpt><trkpt lat="37.88809827992965" lon="13.999639566509458"><ele>1162.6666666666665</ele><time>2026-04-09T08:59:31Z</time></trkpt><trkpt lat="37.88802084847176" lon="13.999607082238294"><ele>1164.5</ele><time>2026-04-09T08:59:32Z</time></trkpt><trkpt lat="37.88793345373019" lon="13.999580241906871"><ele>1166.3333333333333</ele><time>2026-04-09T08:59:32.999Z</time></trkpt><trkpt lat="37.88785413905767" lon="13.99955588309292"><ele>1168.1666666666667</ele><time>2026-04-09T08:59:33.999Z</time></trkpt><trkpt lat="37.88777649693964" lon="13.99953717263426"><ele>1170.0</ele><time>2026-04-09T08:59:34.999Z</time></trkpt><trkpt lat="37.887683541174155" lon="13.999534573000211"><ele>1170.0</ele><time>2026-04-09T08:59:35.999Z</time></trkpt><trkpt lat="37.88759600649608" lon="13.999557657172403"><ele>1170.0</ele><time>2026-04-09T08:59:36.999Z</time></trkpt><trkpt lat="37.887522100794186" lon="13.999589614795028"><ele>1170.0</ele><time>2026-04-09T08:59:37.999Z</time></trkpt><trkpt lat="37.88745105763887" lon="13.999622538144598"><ele>1170.0</ele><time>2026-04-09T08:59:38.999Z</time></trkpt><trkpt lat="37.88738149197544" lon="13.999656012435603"><ele>1170.0</ele><time>2026-04-09T08:59:39.999Z</time></trkpt><trkpt lat="37.88731021003744" lon="13.999683708562202"><ele>1170.0</ele><time>2026-04-09T08:59:40.999Z</time></trkpt><trkpt lat="37.88722166302613" lon="13.999705098508286"><ele>1171.6</ele><time>2026-04-09T08:59:41.999Z</time></trkpt><trkpt lat="37.88712412218935" lon="13.999723314130769"><ele>1173.2</ele><time>2026-04-09T08:59:42.999Z</time></trkpt><trkpt lat="37.88702886639071" lon="13.999742872550275"><ele>1174.8</ele><time>2026-04-09T08:59:43.999Z</time></trkpt><trkpt lat="37.8869356632375" lon="13.999784636294384"><ele>1176.4</ele><time>2026-04-09T08:59:44.999Z</time></trkpt><trkpt lat="37.88684839884756" lon="13.999850769319206"><ele>1178.0</ele><time>2026-04-09T08:59:45.999Z</time></trkpt><trkpt lat="37.8867604337922" lon="13.999912224947254"><ele>1181.0</ele><time>2026-04-09T08:59:46.999Z</time></trkpt><trkpt lat="37.88666218042679" lon="13.999969523623479"><ele>1184.0</ele><time>2026-04-09T08:59:47.999Z</time></trkpt><trkpt lat="37.886568444719565" lon="14.000001352613848"><ele>1187.0</ele><time>2026-04-09T08:59:48.999Z</time></trkpt><trkpt lat="37.88647016649257" lon="14.000020115233667"><ele>1190.0</ele><time>2026-04-09T08:59:49.999Z</time></trkpt><trkpt lat="37.88636869887689" lon="14.000026665831777"><ele>1193.0</ele><time>2026-04-09T08:59:50.999Z</time></trkpt><trkpt lat="37.886266791389126" lon="14.000024432864457"><ele>1193.0</ele><time>2026-04-09T08:59:51.999Z</time></trkpt><trkpt lat="37.886162499665105" lon="14.000026244566481"><ele>1193.0</ele><time>2026-04-09T08:59:52.999Z</time></trkpt><trkpt lat="37.8860609827969" lon="14.000029152745556"><ele>1193.0</ele><time>2026-04-09T08:59:53.999Z</time></trkpt><trkpt lat="37.88596302125132" lon="14.000032907600415"><ele>1193.0</ele><time>2026-04-09T08:59:54.999Z</time></trkpt><trkpt lat="37.88586851264798" lon="14.000036824278336"><ele>1193.0</ele><time>2026-04-09T08:59:55.999Z</time></trkpt><trkpt lat="37.88577423422797" lon="14.000041802577194"><ele>1194.6</ele><time>2026-04-09T08:59:56.999Z</time></trkpt><trkpt lat="37.885678611070105" lon="14.000046851884207"><ele>1196.1999999999998</ele><time>2026-04-09T08:59:57.999Z</time></trkpt><trkpt lat="37.88557932860693" lon="14.000052094417766"><ele>1197.8</ele><time>2026-04-09T08:59:58.999Z</time></trkpt><trkpt lat="37.88547975452337" lon="14.000054986089179"><ele>1199.3999999999999</ele><time>2026-04-09T08:59:59.999Z</time></trkpt><trkpt lat="37.885383372973266" lon="14.000057662391411"><ele>1201.0</ele><time>2026-04-09T09:00:00.999Z</time></trkpt><trkpt lat="37.88528679759554" lon="14.000059186669935"><ele>1201.0</ele><time>2026-04-09T09:00:01.999Z</time></trkpt><trkpt lat="37.88518540680663" lon="14.000060786953526"><ele>1201.0</ele><time>2026-04-09T09:00:02.999Z</time></trkpt><trkpt lat="37.88508853677052" lon="14.000062315882"><ele>1201.0</ele><time>2026-04-09T09:00:03.999Z</time></trkpt><trkpt lat="37.88499111875575" lon="14.000063853460228"><ele>1201.0</ele><time>2026-04-09T09:00:04.999Z</time></trkpt><trkpt lat="37.88490017569862" lon="14.000062579429306"><ele>1201.0</ele><time>2026-04-09T09:00:05.999Z</time></trkpt><trkpt lat="37.88481445392997" lon="14.000057993882267"><ele>1202.8</ele><time>2026-04-09T09:00:06.999Z</time></trkpt><trkpt lat="37.884733445078595" lon="14.00004584005957"><ele>1204.6</ele><time>2026-04-09T09:00:07.999Z</time></trkpt><trkpt lat="37.88464878157851" lon="14.000025347663753"><ele>1206.4</ele><time>2026-04-09T09:00:08.999Z</time></trkpt><trkpt lat="37.88456162829262" lon="13.999998696033567"><ele>1208.2</ele><time>2026-04-09T09:00:09.999Z</time></trkpt><trkpt lat="37.88446632355645" lon="13.999965122778235"><ele>1210.0</ele><time>2026-04-09T09:00:10.999Z</time></trkpt><trkpt lat="37.884371169710306" lon="13.999933223098623"><ele>1210.0</ele><time>2026-04-09T09:00:11.999Z</time></trkpt><trkpt lat="37.88426862914761" lon="13.999899451871343"><ele>1210.0</ele><time>2026-04-09T09:00:12.999Z</time></trkpt><trkpt lat="37.88417138832679" lon="13.99986742609851"><ele>1210.0</ele><time>2026-04-09T09:00:13.999Z</time></trkpt><trkpt lat="37.88407580719393" lon="13.999837692463803"><ele>1210.0</ele><time>2026-04-09T09:00:14.999Z</time></trkpt><trkpt lat="37.88398315115413" lon="13.999810540341644"><ele>1210.0</ele><time>2026-04-09T09:00:15.999Z</time></trkpt><trkpt lat="37.88389169705817" lon="13.99978422022862"><ele>1212.4</ele><time>2026-04-09T09:00:16.999Z</time></trkpt><trkpt lat="37.88379325500079" lon="13.999756722451766"><ele>1214.8</ele><time>2026-04-09T09:00:17.999Z</time></trkpt><trkpt lat="37.88369000783304" lon="13.999733641485033"><ele>1217.2</ele><time>2026-04-09T09:00:18.999Z</time></trkpt><trkpt lat="37.88358962365455" lon="13.999732999306076"><ele>1219.6</ele><time>2026-04-09T09:00:19.999Z</time></trkpt><trkpt lat="37.8834941173266" lon="13.999741138203461"><ele>1222.0</ele><time>2026-04-09T09:00:20.999Z</time></trkpt><trkpt lat="37.88340234618187" lon="13.99974920928172"><ele>1223.4</ele><time>2026-04-09T09:00:21.999Z</time></trkpt><trkpt lat="37.883316803582375" lon="13.999756732573935"><ele>1224.8000000000002</ele><time>2026-04-09T09:00:22.999Z</time></trkpt><trkpt lat="37.88322892473984" lon="13.99983724129371"><ele>1226.2</ele><time>2026-04-09T09:00:23.999Z</time></trkpt><trkpt lat="37.883142504773346" lon="13.999840978279146"><ele>1227.6000000000001</ele><time>2026-04-09T09:00:24.999Z</time></trkpt><trkpt lat="37.88305511197766" lon="13.999834404378966"><ele>1229.0</ele><time>2026-04-09T09:00:25.999Z</time></trkpt><trkpt lat="37.88295837537701" lon="13.99982342681733"><ele>1229.0</ele><time>2026-04-09T09:00:26.999Z</time></trkpt><trkpt lat="37.88285156967105" lon="13.999791957762122"><ele>1229.0</ele><time>2026-04-09T09:00:27.999Z</time></trkpt><trkpt lat="37.882730287979356" lon="13.999740521475752"><ele>1229.0</ele><time>2026-04-09T09:00:28.999Z</time></trkpt><trkpt lat="37.88261618703085" lon="13.999693689443566"><ele>1229.0</ele><time>2026-04-09T09:00:29.999Z</time></trkpt><trkpt lat="37.882512537659125" lon="13.999667229147276"><ele>1230.4</ele><time>2026-04-09T09:00:30.999Z</time></trkpt><trkpt lat="37.882424685834" lon="13.999667927268247"><ele>1231.8000000000002</ele><time>2026-04-09T09:00:31.999Z</time></trkpt><trkpt lat="37.88234443058905" lon="13.999711357783248"><ele>1233.1999999999998</ele><time>2026-04-09T09:00:32.999Z</time></trkpt><trkpt lat="37.88227507202503" lon="13.99978511101514"><ele>1234.6</ele><time>2026-04-09T09:00:33.999Z</time></trkpt><trkpt lat="37.882220599116486" lon="13.99988513320343"><ele>1236.0</ele><time>2026-04-09T09:00:34.999Z</time></trkpt><trkpt lat="37.88218357486764" lon="14.000008863880533"><ele>1236.0</ele><time>2026-04-09T09:00:35.999Z</time></trkpt><trkpt lat="37.882138897203156" lon="14.00012810791961"><ele>1236.0</ele><time>2026-04-09T09:00:36.999Z</time></trkpt><trkpt lat="37.88207953270842" lon="14.000212586464297"><ele>1236.0</ele><time>2026-04-09T09:00:37.999Z</time></trkpt><trkpt lat="37.882008054148145" lon="14.000275053509746"><ele>1236.0</ele><time>2026-04-09T09:00:38.999Z</time></trkpt><trkpt lat="37.881930001284005" lon="14.000324203653422"><ele>1236.0</ele><time>2026-04-09T09:00:39.999Z</time></trkpt><trkpt lat="37.881836769976424" lon="14.000364536513414"><ele>1239.5</ele><time>2026-04-09T09:00:40.999Z</time></trkpt><trkpt lat="37.88172964601903" lon="14.0004037340079"><ele>1243.0</ele><time>2026-04-09T09:00:41.999Z</time></trkpt><trkpt lat="37.88161797378917" lon="14.000436374452706"><ele>1246.5</ele><time>2026-04-09T09:00:42.999Z</time></trkpt><trkpt lat="37.88149734732912" lon="14.00047914281899"><ele>1250.0</ele><time>2026-04-09T09:00:43.999Z</time></trkpt><trkpt lat="37.881350525338796" lon="14.000519227557769"><ele>1250.0</ele><time>2026-04-09T09:00:44.999Z</time></trkpt><trkpt lat="37.881185483431416" lon="14.000563705891787"><ele>1250.0</ele><time>2026-04-09T09:00:45.999Z</time></trkpt><trkpt lat="37.881021841192435" lon="14.00061002330799"><ele>1250.0</ele><time>2026-04-09T09:00:46.999Z</time></trkpt><trkpt lat="37.88085649673374" lon="14.000643837019846"><ele>1254.75</ele><time>2026-04-09T09:00:47.999Z</time></trkpt><trkpt lat="37.88070698610371" lon="14.00068975505899"><ele>1259.5</ele><time>2026-04-09T09:00:48.999Z</time></trkpt><trkpt lat="37.88057395003782" lon="14.000712269629194"><ele>1264.25</ele><time>2026-04-09T09:00:49.999Z</time></trkpt><trkpt lat="37.88044868373852" lon="14.000722287170198"><ele>1269.0</ele><time>2026-04-09T09:00:50.999Z</time></trkpt><trkpt lat="37.88030997963744" lon="14.000727732477793"><ele>1269.0</ele><time>2026-04-09T09:00:51.999Z</time></trkpt><trkpt lat="37.88015992156494" lon="14.000737783233896"><ele>1269.0</ele><time>2026-04-09T09:00:53Z</time></trkpt><trkpt lat="37.88001451156087" lon="14.000749651904322"><ele>1269.0</ele><time>2026-04-09T09:00:54Z</time></trkpt><trkpt lat="37.87989056876241" lon="14.00076358972486"><ele>1269.0</ele><time>2026-04-09T09:00:55Z</time></trkpt><trkpt lat="37.87978300678741" lon="14.000770611097808"><ele>1267.0</ele><time>2026-04-09T09:00:56Z</time></trkpt><trkpt lat="37.87968323888797" lon="14.000787405021256"><ele>1265.0</ele><time>2026-04-09T09:00:57Z</time></trkpt><trkpt lat="37.87959530996366" lon="14.000832972273242"><ele>1263.0</ele><time>2026-04-09T09:00:58Z</time></trkpt><trkpt lat="37.879531209135585" lon="14.000921320576728"><ele>1261.0</ele><time>2026-04-09T09:00:59Z</time></trkpt><trkpt lat="37.87946693107171" lon="14.001025649695386"><ele>1259.0</ele><time>2026-04-09T09:01:00Z</time></trkpt><trkpt lat="37.87940821781577" lon="14.001124303995114"><ele>1259.0</ele><time>2026-04-09T09:01:01Z</time></trkpt><trkpt lat="37.8793388756471" lon="14.0012184230251"><ele>1259.0</ele><time>2026-04-09T09:01:02Z</time></trkpt><trkpt lat="37.87925449815825" lon="14.001292966805437"><ele>1259.0</ele><time>2026-04-09T09:01:03Z</time></trkpt><trkpt lat="37.87915178522243" lon="14.001353974741564"><ele>1259.0</ele><time>2026-04-09T09:01:04Z</time></trkpt><trkpt lat="37.87903762289594" lon="14.00139727543411"><ele>1259.0</ele><time>2026-04-09T09:01:05Z</time></trkpt><trkpt lat="37.87892688682059" lon="14.001434855518012"><ele>1260.6000000000001</ele><time>2026-04-09T09:01:06Z</time></trkpt><trkpt lat="37.87882399578638" lon="14.00147046205999"><ele>1262.2</ele><time>2026-04-09T09:01:07Z</time></trkpt><trkpt lat="37.87873012761212" lon="14.001510456987887"><ele>1263.8000000000002</ele><time>2026-04-09T09:01:08Z</time></trkpt><trkpt lat="37.878640206121716" lon="14.001549506933788"><ele>1265.4</ele><time>2026-04-09T09:01:09Z</time></trkpt><trkpt lat="37.87854468763406" lon="14.00157261827775"><ele>1267.0</ele><time>2026-04-09T09:01:10Z</time></trkpt><trkpt lat="37.87844381289144" lon="14.001571302215838"><ele>1267.6666666666665</ele><time>2026-04-09T09:01:11Z</time></trkpt><trkpt lat="37.87833675137583" lon="14.001537382075847"><ele>1268.3333333333333</ele><time>2026-04-09T09:01:12Z</time></trkpt><trkpt lat="37.87825862855124" lon="14.001537577664429"><ele>1269.0</ele><time>2026-04-09T09:01:13Z</time></trkpt><trkpt lat="37.87818370190604" lon="14.00154045264506"><ele>1269.6666666666667</ele><time>2026-04-09T09:01:14Z</time></trkpt><trkpt lat="37.87811120364335" lon="14.001561446138945"><ele>1270.3333333333335</ele><time>2026-04-09T09:01:15Z</time></trkpt><trkpt lat="37.87804446646471" lon="14.001608729766605"><ele>1271.0</ele><time>2026-04-09T09:01:16Z</time></trkpt><trkpt lat="37.877990998325146" lon="14.001681822452788"><ele>1271.0</ele><time>2026-04-09T09:01:17Z</time></trkpt><trkpt lat="37.87795676823239" lon="14.001788155762192"><ele>1271.0</ele><time>2026-04-09T09:01:18Z</time></trkpt><trkpt lat="37.87793389608241" lon="14.00190525374272"><ele>1271.0</ele><time>2026-04-09T09:01:19Z</time></trkpt><trkpt lat="37.87792757230719" lon="14.002036506417276"><ele>1271.0</ele><time>2026-04-09T09:01:20Z</time></trkpt><trkpt lat="37.87790948911473" lon="14.002165603863931"><ele>1271.0</ele><time>2026-04-09T09:01:21Z</time></trkpt><trkpt lat="37.877888360024244" lon="14.002276908122065"><ele>1271.0</ele><time>2026-04-09T09:01:22Z</time></trkpt><trkpt lat="37.87784288205047" lon="14.002387029276552"><ele>1271.0</ele><time>2026-04-09T09:01:23Z</time></trkpt><trkpt lat="37.877777697817415" lon="14.002479426310915"><ele>1271.0</ele><time>2026-04-09T09:01:24Z</time></trkpt><trkpt lat="37.87769337022525" lon="14.002562122175112"><ele>1271.0</ele><time>2026-04-09T09:01:25Z</time></trkpt><trkpt lat="37.87762508311978" lon="14.002649334367888"><ele>1271.0</ele><time>2026-04-09T09:01:26Z</time></trkpt><trkpt lat="37.87757355704718" lon="14.002756171702934"><ele>1275.4</ele><time>2026-04-09T09:01:27Z</time></trkpt><trkpt lat="37.87752947347823" lon="14.002875521745365"><ele>1279.8</ele><time>2026-04-09T09:01:28Z</time></trkpt><trkpt lat="37.877488703684705" lon="14.003003893552075"><ele>1284.2</ele><time>2026-04-09T09:01:29Z</time></trkpt><trkpt lat="37.87744592714995" lon="14.003112995291486"><ele>1288.6000000000001</ele><time>2026-04-09T09:01:30Z</time></trkpt><trkpt lat="37.87740872496796" lon="14.00322784511428"><ele>1293.0</ele><time>2026-04-09T09:01:31Z</time></trkpt><trkpt lat="37.87738403876972" lon="14.00335004576109"><ele>1293.0</ele><time>2026-04-09T09:01:32Z</time></trkpt><trkpt lat="37.87736842971637" lon="14.003477258316448"><ele>1293.0</ele><time>2026-04-09T09:01:33Z</time></trkpt><trkpt lat="37.87737524920458" lon="14.003609987594022"><ele>1293.0</ele><time>2026-04-09T09:01:34Z</time></trkpt><trkpt lat="37.87737507193309" lon="14.003738013947903"><ele>1293.0</ele><time>2026-04-09T09:01:35Z</time></trkpt><trkpt lat="37.87738076049686" lon="14.003883073114276"><ele>1293.0</ele><time>2026-04-09T09:01:36Z</time></trkpt><trkpt lat="37.87737508771857" lon="14.004028539672134"><ele>1292.0</ele><time>2026-04-09T09:01:37Z</time></trkpt><trkpt lat="37.877364104276715" lon="14.00418525529106"><ele>1291.0</ele><time>2026-04-09T09:01:37.999Z</time></trkpt><trkpt lat="37.877349113532695" lon="14.004338241711482"><ele>1290.0</ele><time>2026-04-09T09:01:38.999Z</time></trkpt><trkpt lat="37.877326579230804" lon="14.004481436957361"><ele>1289.0</ele><time>2026-04-09T09:01:39.999Z</time></trkpt><trkpt lat="37.87730579306396" lon="14.004642577026459"><ele>1289.0</ele><time>2026-04-09T09:01:40.999Z</time></trkpt><trkpt lat="37.87729178960412" lon="14.004778859942215"><ele>1289.0</ele><time>2026-04-09T09:01:41.999Z</time></trkpt><trkpt lat="37.87727813530562" lon="14.004911113174964"><ele>1289.0</ele><time>2026-04-09T09:01:42.999Z</time></trkpt><trkpt lat="37.87725520749529" lon="14.005052062667833"><ele>1289.0</ele><time>2026-04-09T09:01:43.999Z</time></trkpt><trkpt lat="37.87722641029248" lon="14.005187342429574"><ele>1289.0</ele><time>2026-04-09T09:01:44.999Z</time></trkpt><trkpt lat="37.87719767725813" lon="14.005309775038743"><ele>1288.6</ele><time>2026-04-09T09:01:45.999Z</time></trkpt><trkpt lat="37.87715657283711" lon="14.005429993023998"><ele>1288.2</ele><time>2026-04-09T09:01:46.999Z</time></trkpt><trkpt lat="37.87712273779966" lon="14.005553664812606"><ele>1287.8</ele><time>2026-04-09T09:01:47.999Z</time></trkpt><trkpt lat="37.877080702530684" lon="14.005669793696821"><ele>1287.3999999999999</ele><time>2026-04-09T09:01:48.999Z</time></trkpt><trkpt lat="37.87704305871489" lon="14.005763507912176"><ele>1287.0</ele><time>2026-04-09T09:01:49.999Z</time></trkpt><trkpt lat="37.87703411495311" lon="14.005874238285791"><ele>1287.8333333333333</ele><time>2026-04-09T09:01:50.999Z</time></trkpt><trkpt lat="37.877032911776006" lon="14.005985141223904"><ele>1288.6666666666667</ele><time>2026-04-09T09:01:51.999Z</time></trkpt><trkpt lat="37.87704136615121" lon="14.006097292060502"><ele>1289.5</ele><time>2026-04-09T09:01:52.999Z</time></trkpt><trkpt lat="37.877050705536824" lon="14.006203931175303"><ele>1290.3333333333335</ele><time>2026-04-09T09:01:53.999Z</time></trkpt><trkpt lat="37.877069865196155" lon="14.006309012489316"><ele>1291.1666666666667</ele><time>2026-04-09T09:01:54.999Z</time></trkpt><trkpt lat="37.87711933196747" lon="14.006394989318656"><ele>1292.0</ele><time>2026-04-09T09:01:55.999Z</time></trkpt><trkpt lat="37.877186834276884" lon="14.006459489413109"><ele>1292.0</ele><time>2026-04-09T09:01:56.999Z</time></trkpt><trkpt lat="37.877265381131394" lon="14.006498147777167"><ele>1292.0</ele><time>2026-04-09T09:01:57.999Z</time></trkpt><trkpt lat="37.87734555188437" lon="14.006536442744133"><ele>1292.0</ele><time>2026-04-09T09:01:58.999Z</time></trkpt><trkpt lat="37.87742895518048" lon="14.006574231027077"><ele>1292.0</ele><time>2026-04-09T09:01:59.999Z</time></trkpt><trkpt lat="37.87748557119077" lon="14.006635254207389"><ele>1292.0</ele><time>2026-04-09T09:02:00.999Z</time></trkpt><trkpt lat="37.877545812722175" lon="14.006704667134427"><ele>1292.0</ele><time>2026-04-09T09:02:01.999Z</time></trkpt><trkpt lat="37.87760089270307" lon="14.006787285314097"><ele>1294.3333333333335</ele><time>2026-04-09T09:02:02.999Z</time></trkpt><trkpt lat="37.87764340869933" lon="14.00688723705087"><ele>1296.6666666666667</ele><time>2026-04-09T09:02:03.999Z</time></trkpt><trkpt lat="37.8776841167557" lon="14.006998283539629"><ele>1299.0</ele><time>2026-04-09T09:02:04.999Z</time></trkpt><trkpt lat="37.87771937329667" lon="14.007112456773582"><ele>1301.3333333333333</ele><time>2026-04-09T09:02:05.999Z</time></trkpt><trkpt lat="37.87773052696341" lon="14.00721053404291"><ele>1303.6666666666665</ele><time>2026-04-09T09:02:06.999Z</time></trkpt><trkpt lat="37.87772510111385" lon="14.007313748486176"><ele>1306.0</ele><time>2026-04-09T09:02:07.999Z</time></trkpt><trkpt lat="37.87770412920653" lon="14.007412228768402"><ele>1309.4</ele><time>2026-04-09T09:02:08.999Z</time></trkpt><trkpt lat="37.87765341888848" lon="14.007503836038062"><ele>1312.8</ele><time>2026-04-09T09:02:09.999Z</time></trkpt><trkpt lat="37.87758780564246" lon="14.007591799055252"><ele>1316.2</ele><time>2026-04-09T09:02:10.999Z</time></trkpt><trkpt lat="37.8775040198043" lon="14.007677411751818"><ele>1319.6000000000001</ele><time>2026-04-09T09:02:11.999Z</time></trkpt><trkpt lat="37.877408177734175" lon="14.00776349114124"><ele>1323.0</ele><time>2026-04-09T09:02:12.999Z</time></trkpt><trkpt lat="37.87732292720623" lon="14.007816281866083"><ele>1323.0</ele><time>2026-04-09T09:02:13.999Z</time></trkpt><trkpt lat="37.87723391540797" lon="14.007828586218466"><ele>1323.0</ele><time>2026-04-09T09:02:14.999Z</time></trkpt><trkpt lat="37.877157130847536" lon="14.00779883248185"><ele>1323.0</ele><time>2026-04-09T09:02:15.999Z</time></trkpt><trkpt lat="37.87709868492781" lon="14.007745921593875"><ele>1323.0</ele><time>2026-04-09T09:02:16.999Z</time></trkpt><trkpt lat="37.877045113527934" lon="14.007683189442927"><ele>1323.0</ele><time>2026-04-09T09:02:17.999Z</time></trkpt><trkpt lat="37.87699257747274" lon="14.007541012299312"><ele>1323.0</ele><time>2026-04-09T09:02:19.999Z</time></trkpt><trkpt lat="37.87698005213041" lon="14.007447664179592"><ele>1323.0</ele><time>2026-04-09T09:02:20.999Z</time></trkpt><trkpt lat="37.876960811114536" lon="14.007360809213003"><ele>1323.0</ele><time>2026-04-09T09:02:21.999Z</time></trkpt><trkpt lat="37.876861382531395" lon="14.007295864696147"><ele>1323.0</ele><time>2026-04-09T09:02:23.999Z</time></trkpt><trkpt lat="37.876796542156825" lon="14.007333077090133"><ele>1323.0</ele><time>2026-04-09T09:02:24.999Z</time></trkpt><trkpt lat="37.87675426962198" lon="14.007409910404183"><ele>1323.0</ele><time>2026-04-09T09:02:25.999Z</time></trkpt><trkpt lat="37.87674894067925" lon="14.007499451905387"><ele>1323.0</ele><time>2026-04-09T09:02:26.999Z</time></trkpt><trkpt lat="37.876771466919266" lon="14.00758255449307"><ele>1323.0</ele><time>2026-04-09T09:02:27.999Z</time></trkpt><trkpt lat="37.87679825211005" lon="14.00766992082238"><ele>1323.0</ele><time>2026-04-09T09:02:28.999Z</time></trkpt><trkpt lat="37.87682676089282" lon="14.007769517942625"><ele>1323.0</ele><time>2026-04-09T09:02:29.999Z</time></trkpt><trkpt lat="37.876857134846325" lon="14.007878137081438"><ele>1323.0</ele><time>2026-04-09T09:02:30.999Z</time></trkpt><trkpt lat="37.876893873758284" lon="14.007987692139267"><ele>1323.0</ele><time>2026-04-09T09:02:31.999Z</time></trkpt><trkpt lat="37.876937428680264" lon="14.008096517900482"><ele>1323.0</ele><time>2026-04-09T09:02:32.999Z</time></trkpt><trkpt lat="37.87698210632697" lon="14.00819705293679"><ele>1323.0</ele><time>2026-04-09T09:02:33.999Z</time></trkpt><trkpt lat="37.87704556089738" lon="14.00826414752134"><ele>1323.0</ele><time>2026-04-09T09:02:34.999Z</time></trkpt><trkpt lat="37.877128637374675" lon="14.008302760798758"><ele>1323.0</ele><time>2026-04-09T09:02:35.999Z</time></trkpt><trkpt lat="37.877226154775514" lon="14.00831887346674"><ele>1323.0</ele><time>2026-04-09T09:02:36.999Z</time></trkpt><trkpt lat="37.87733581289921" lon="14.008309785324927"><ele>1323.0</ele><time>2026-04-09T09:02:37.999Z</time></trkpt><trkpt lat="37.877445336840324" lon="14.008291663701824"><ele>1323.0</ele><time>2026-04-09T09:02:38.999Z</time></trkpt><trkpt lat="37.87752622421885" lon="14.008270218214527"><ele>1323.0</ele><time>2026-04-09T09:02:39.999Z</time></trkpt><trkpt lat="37.87763385483256" lon="14.008308764543822"><ele>1323.0</ele><time>2026-04-09T09:02:41.999Z</time></trkpt><trkpt lat="37.87764539515682" lon="14.008434844291642"><ele>1323.0</ele><time>2026-04-09T09:02:43.999Z</time></trkpt><trkpt lat="37.87761931137959" lon="14.00850855249455"><ele>1323.0</ele><time>2026-04-09T09:02:44.999Z</time></trkpt><trkpt lat="37.877568495841906" lon="14.008560046216541"><ele>1323.0</ele><time>2026-04-09T09:02:45.999Z</time></trkpt><trkpt lat="37.877494335761234" lon="14.008587044373227"><ele>1326.75</ele><time>2026-04-09T09:02:46.999Z</time></trkpt><trkpt lat="37.87740225283668" lon="14.008584888559165"><ele>1330.5</ele><time>2026-04-09T09:02:47.999Z</time></trkpt><trkpt lat="37.87728989479091" lon="14.008564522586408"><ele>1334.25</ele><time>2026-04-09T09:02:48.999Z</time></trkpt><trkpt lat="37.87716476973287" lon="14.00854224657343"><ele>1338.0</ele><time>2026-04-09T09:02:49.999Z</time></trkpt><trkpt lat="37.877037092113" lon="14.008529285920647"><ele>1338.0</ele><time>2026-04-09T09:02:50.999Z</time></trkpt><trkpt lat="37.87689621698851" lon="14.008519260880833"><ele>1338.0</ele><time>2026-04-09T09:02:51.999Z</time></trkpt><trkpt lat="37.876744873729905" lon="14.008502218304542"><ele>1338.0</ele><time>2026-04-09T09:02:52.999Z</time></trkpt><trkpt lat="37.87659187673734" lon="14.008477051033585"><ele>1338.0</ele><time>2026-04-09T09:02:53.999Z</time></trkpt><trkpt lat="37.87643714565448" lon="14.008456256207149"><ele>1339.5</ele><time>2026-04-09T09:02:54.999Z</time></trkpt><trkpt lat="37.87627573693171" lon="14.008436802946367"><ele>1341.0</ele><time>2026-04-09T09:02:55.999Z</time></trkpt><trkpt lat="37.87612959981951" lon="14.008419222423157"><ele>1342.5</ele><time>2026-04-09T09:02:56.998Z</time></trkpt><trkpt lat="37.87600147412042" lon="14.00839561950097"><ele>1344.0</ele><time>2026-04-09T09:02:57.998Z</time></trkpt><trkpt lat="37.875870901097954" lon="14.008352369888486"><ele>1345.0</ele><time>2026-04-09T09:02:59Z</time></trkpt><trkpt lat="37.87573669188784" lon="14.008286764196828"><ele>1346.0</ele><time>2026-04-09T09:03:00Z</time></trkpt><trkpt lat="37.87561054739404" lon="14.00821085980964"><ele>1347.0</ele><time>2026-04-09T09:03:01Z</time></trkpt><trkpt lat="37.87550433949466" lon="14.00813130700678"><ele>1348.0</ele><time>2026-04-09T09:03:02Z</time></trkpt><trkpt lat="37.875407582654915" lon="14.00805915162564"><ele>1348.0</ele><time>2026-04-09T09:03:03Z</time></trkpt><trkpt lat="37.87532926321911" lon="14.008008509554667"><ele>1348.0</ele><time>2026-04-09T09:03:04Z</time></trkpt><trkpt lat="37.87528367217012" lon="14.007935176730337"><ele>1348.0</ele><time>2026-04-09T09:03:05Z</time></trkpt><trkpt lat="37.87525050356795" lon="14.007779109301636"><ele>1348.0</ele><time>2026-04-09T09:03:07Z</time></trkpt><trkpt lat="37.87524876431645" lon="14.007672704908927"><ele>1348.0</ele><time>2026-04-09T09:03:08Z</time></trkpt><trkpt lat="37.87524909625452" lon="14.007536259322853"><ele>1346.75</ele><time>2026-04-09T09:03:09Z</time></trkpt><trkpt lat="37.875253875362986" lon="14.007386227459772"><ele>1345.5</ele><time>2026-04-09T09:03:10Z</time></trkpt><trkpt lat="37.875258952655976" lon="14.00721043916841"><ele>1344.25</ele><time>2026-04-09T09:03:11Z</time></trkpt><trkpt lat="37.875263789496735" lon="14.007025740456822"><ele>1343.0</ele><time>2026-04-09T09:03:12Z</time></trkpt><trkpt lat="37.87527471536389" lon="14.006878275255158"><ele>1343.0</ele><time>2026-04-09T09:03:13Z</time></trkpt><trkpt lat="37.87528021379576" lon="14.006754388827968"><ele>1343.0</ele><time>2026-04-09T09:03:14Z</time></trkpt><trkpt lat="37.87526423991724" lon="14.006639314215493"><ele>1343.0</ele><time>2026-04-09T09:03:15Z</time></trkpt><trkpt lat="37.875219567995565" lon="14.006535468773706"><ele>1343.0</ele><time>2026-04-09T09:03:16Z</time></trkpt><trkpt lat="37.875152232542774" lon="14.006468198610094"><ele>1343.0</ele><time>2026-04-09T09:03:17Z</time></trkpt><trkpt lat="37.87506830602678" lon="14.006436419691372"><ele>1344.5</ele><time>2026-04-09T09:03:18Z</time></trkpt><trkpt lat="37.87496792317478" lon="14.006434992696919"><ele>1346.0</ele><time>2026-04-09T09:03:19Z</time></trkpt><trkpt lat="37.87484384436277" lon="14.006439696691512"><ele>1347.5</ele><time>2026-04-09T09:03:20Z</time></trkpt><trkpt lat="37.874685671550466" lon="14.006448809920508"><ele>1349.0</ele><time>2026-04-09T09:03:21Z</time></trkpt><trkpt lat="37.87451829100454" lon="14.00644394797341"><ele>1349.0</ele><time>2026-04-09T09:03:22Z</time></trkpt><trkpt lat="37.87432587313098" lon="14.006421726871539"><ele>1349.0</ele><time>2026-04-09T09:03:23Z</time></trkpt><trkpt lat="37.874154495579866" lon="14.006406553693152"><ele>1349.0</ele><time>2026-04-09T09:03:24Z</time></trkpt><trkpt lat="37.87399493499861" lon="14.006375842664589"><ele>1352.0</ele><time>2026-04-09T09:03:25Z</time></trkpt><trkpt lat="37.87385691310611" lon="14.00637229794726"><ele>1355.0</ele><time>2026-04-09T09:03:26Z</time></trkpt><trkpt lat="37.873738446597656" lon="14.00640142815012"><ele>1358.0</ele><time>2026-04-09T09:03:27Z</time></trkpt><trkpt lat="37.87361517615085" lon="14.006469897993329"><ele>1361.0</ele><time>2026-04-09T09:03:28Z</time></trkpt><trkpt lat="37.87348150755936" lon="14.006569071774138"><ele>1365.25</ele><time>2026-04-09T09:03:29Z</time></trkpt><trkpt lat="37.87335540134226" lon="14.006672333845692"><ele>1369.5</ele><time>2026-04-09T09:03:30Z</time></trkpt><trkpt lat="37.87324914446212" lon="14.006738544703211"><ele>1373.75</ele><time>2026-04-09T09:03:31Z</time></trkpt><trkpt lat="37.87314928647885" lon="14.006766618408538"><ele>1378.0</ele><time>2026-04-09T09:03:32Z</time></trkpt><trkpt lat="37.873040019105304" lon="14.006762256219599"><ele>1378.0</ele><time>2026-04-09T09:03:33Z</time></trkpt><trkpt lat="37.87291635475374" lon="14.006732200321673"><ele>1378.0</ele><time>2026-04-09T09:03:34Z</time></trkpt><trkpt lat="37.87277927461229" lon="14.006678463712984"><ele>1378.0</ele><time>2026-04-09T09:03:35Z</time></trkpt><trkpt lat="37.87264088920451" lon="14.006626915510541"><ele>1378.0</ele><time>2026-04-09T09:03:36Z</time></trkpt><trkpt lat="37.872534404768516" lon="14.006583239983279"><ele>1377.5</ele><time>2026-04-09T09:03:37Z</time></trkpt><trkpt lat="37.87244754797089" lon="14.006513874020175"><ele>1377.0</ele><time>2026-04-09T09:03:38Z</time></trkpt><trkpt lat="37.872358445081275" lon="14.006416465903168"><ele>1376.5</ele><time>2026-04-09T09:03:39Z</time></trkpt><trkpt lat="37.872271130242076" lon="14.006294989144758"><ele>1376.0</ele><time>2026-04-09T09:03:40Z</time></trkpt><trkpt lat="37.87218808273152" lon="14.006196665730442"><ele>1376.0</ele><time>2026-04-09T09:03:40.999Z</time></trkpt><trkpt lat="37.87207857574633" lon="14.006140858526448"><ele>1376.0</ele><time>2026-04-09T09:03:41.999Z</time></trkpt><trkpt lat="37.871958383701845" lon="14.006134396580084"><ele>1376.0</ele><time>2026-04-09T09:03:42.999Z</time></trkpt><trkpt lat="37.87184429184376" lon="14.006140315997637"><ele>1376.0</ele><time>2026-04-09T09:03:43.999Z</time></trkpt><trkpt lat="37.87173701335584" lon="14.006128500402907"><ele>1377.1999999999998</ele><time>2026-04-09T09:03:44.999Z</time></trkpt><trkpt lat="37.87163909676742" lon="14.00613177732078"><ele>1378.3999999999999</ele><time>2026-04-09T09:03:45.999Z</time></trkpt><trkpt lat="37.871536994930345" lon="14.006162743938402"><ele>1379.6</ele><time>2026-04-09T09:03:46.999Z</time></trkpt><trkpt lat="37.871446870687855" lon="14.006230276948394"><ele>1380.8</ele><time>2026-04-09T09:03:47.999Z</time></trkpt><trkpt lat="37.87137979462319" lon="14.006334261037763"><ele>1382.0</ele><time>2026-04-09T09:03:48.999Z</time></trkpt><trkpt lat="37.87132003709307" lon="14.00647266501957"><ele>1382.0</ele><time>2026-04-09T09:03:49.999Z</time></trkpt><trkpt lat="37.87127105794515" lon="14.006607521865572"><ele>1382.0</ele><time>2026-04-09T09:03:50.999Z</time></trkpt><trkpt lat="37.87121889826316" lon="14.00669978136706"><ele>1382.0</ele><time>2026-04-09T09:03:51.999Z</time></trkpt><trkpt lat="37.87114699368634" lon="14.006746372545503"><ele>1382.0</ele><time>2026-04-09T09:03:52.999Z</time></trkpt><trkpt lat="37.87106547166393" lon="14.006759693770718"><ele>1382.0</ele><time>2026-04-09T09:03:53.999Z</time></trkpt><trkpt lat="37.87098386259175" lon="14.006745454197185"><ele>1383.1999999999998</ele><time>2026-04-09T09:03:54.999Z</time></trkpt><trkpt lat="37.87090641676182" lon="14.006699566299261"><ele>1384.4</ele><time>2026-04-09T09:03:55.999Z</time></trkpt><trkpt lat="37.87083511927897" lon="14.006633256987662"><ele>1385.6</ele><time>2026-04-09T09:03:56.999Z</time></trkpt><trkpt lat="37.87075179464344" lon="14.006516863283803"><ele>1386.8000000000002</ele><time>2026-04-09T09:03:57.999Z</time></trkpt><trkpt lat="37.87065783986651" lon="14.006391177745227"><ele>1388.0</ele><time>2026-04-09T09:03:58.999Z</time></trkpt><trkpt lat="37.87053679697717" lon="14.00625519022159"><ele>1388.0</ele><time>2026-04-09T09:03:59.999Z</time></trkpt><trkpt lat="37.870427350674284" lon="14.00612274492371"><ele>1388.0</ele><time>2026-04-09T09:04:00.999Z</time></trkpt><trkpt lat="37.870347419803934" lon="14.006019786828611"><ele>1388.0</ele><time>2026-04-09T09:04:01.999Z</time></trkpt><trkpt lat="37.870261739171" lon="14.005959557895649"><ele>1388.0</ele><time>2026-04-09T09:04:02.999Z</time></trkpt><trkpt lat="37.87015265120932" lon="14.005940906496411"><ele>1390.6666666666667</ele><time>2026-04-09T09:04:03.999Z</time></trkpt><trkpt lat="37.87002191367765" lon="14.005967823097999"><ele>1393.3333333333333</ele><time>2026-04-09T09:04:04.999Z</time></trkpt><trkpt lat="37.869871541995714" lon="14.006022899489537"><ele>1396.0</ele><time>2026-04-09T09:04:05.999Z</time></trkpt><trkpt lat="37.8697196621211" lon="14.006105980955544"><ele>1396.0</ele><time>2026-04-09T09:04:06.999Z</time></trkpt><trkpt lat="37.86956234078383" lon="14.00619418001743"><ele>1396.0</ele><time>2026-04-09T09:04:07.999Z</time></trkpt><trkpt lat="37.869425594785916" lon="14.006264986453296"><ele>1396.0</ele><time>2026-04-09T09:04:08.999Z</time></trkpt><trkpt lat="37.86930134641292" lon="14.00632564112977"><ele>1398.0</ele><time>2026-04-09T09:04:09.999Z</time></trkpt><trkpt lat="37.86918762713005" lon="14.006396676579277"><ele>1400.0</ele><time>2026-04-09T09:04:10.999Z</time></trkpt><trkpt lat="37.86908574900463" lon="14.006443441440453"><ele>1402.0</ele><time>2026-04-09T09:04:11.999Z</time></trkpt><trkpt lat="37.86899527988679" lon="14.006441981900059"><ele>1404.0</ele><time>2026-04-09T09:04:12.999Z</time></trkpt><trkpt lat="37.86890926753539" lon="14.006398059755492"><ele>1406.0</ele><time>2026-04-09T09:04:13.999Z</time></trkpt><trkpt lat="37.86884991366818" lon="14.006319783709891"><ele>1406.0</ele><time>2026-04-09T09:04:14.999Z</time></trkpt><trkpt lat="37.8687992092705" lon="14.006222359794734"><ele>1406.0</ele><time>2026-04-09T09:04:15.999Z</time></trkpt><trkpt lat="37.86875990086785" lon="14.006110822928427"><ele>1406.0</ele><time>2026-04-09T09:04:16.999Z</time></trkpt><trkpt lat="37.86871545326434" lon="14.005953684196179"><ele>1406.0</ele><time>2026-04-09T09:04:17.999Z</time></trkpt><trkpt lat="37.868664017166076" lon="14.005790418286514"><ele>1404.75</ele><time>2026-04-09T09:04:18.999Z</time></trkpt><trkpt lat="37.86859164477068" lon="14.005664035975585"><ele>1403.5</ele><time>2026-04-09T09:04:19.999Z</time></trkpt><trkpt lat="37.868488576818415" lon="14.005577307046595"><ele>1402.25</ele><time>2026-04-09T09:04:20.999Z</time></trkpt><trkpt lat="37.8683702371371" lon="14.005502821215655"><ele>1401.0</ele><time>2026-04-09T09:04:21.999Z</time></trkpt><trkpt lat="37.868276464978265" lon="14.005424364347368"><ele>1403.6666666666667</ele><time>2026-04-09T09:04:22.999Z</time></trkpt><trkpt lat="37.868219108523625" lon="14.005326133118402"><ele>1406.3333333333333</ele><time>2026-04-09T09:04:23.999Z</time></trkpt><trkpt lat="37.86818844912021" lon="14.005219063888909"><ele>1409.0</ele><time>2026-04-09T09:04:24.999Z</time></trkpt><trkpt lat="37.86815978651392" lon="14.005110419701467"><ele>1411.6666666666665</ele><time>2026-04-09T09:04:25.999Z</time></trkpt><trkpt lat="37.8681138196698" lon="14.005038955928168"><ele>1414.3333333333333</ele><time>2026-04-09T09:04:26.999Z</time></trkpt><trkpt lat="37.868041231539785" lon="14.00500117743593"><ele>1417.0</ele><time>2026-04-09T09:04:27.999Z</time></trkpt><trkpt lat="37.86796306446513" lon="14.004999155411305"><ele>1416.9999999999998</ele><time>2026-04-09T09:04:28.999Z</time></trkpt><trkpt lat="37.86789826277945" lon="14.005016660095716"><ele>1417.0</ele><time>2026-04-09T09:04:29.999Z</time></trkpt><trkpt lat="37.86781097433935" lon="14.005000360002882"><ele>1417.0</ele><time>2026-04-09T09:04:31.999Z</time></trkpt><trkpt lat="37.86774799046014" lon="14.004985347774127"><ele>1417.0</ele><time>2026-04-09T09:04:33.999Z</time></trkpt><trkpt lat="37.86766982750767" lon="14.004999139994345"><ele>1417.0</ele><time>2026-04-09T09:04:36.999Z</time></trkpt><trkpt lat="37.86760553996848" lon="14.00493229936231"><ele>1416.9999999999998</ele><time>2026-04-09T09:04:39.999Z</time></trkpt><trkpt lat="37.86754235490379" lon="14.004910206926166"><ele>1417.0</ele><time>2026-04-09T09:04:43.999Z</time></trkpt><trkpt lat="37.86761978425896" lon="14.004962620768001"><ele>1417.0</ele><time>2026-04-09T09:06:55.999Z</time></trkpt><trkpt lat="37.86769697651713" lon="14.005081619968424"><ele>1417.0</ele><time>2026-04-09T09:06:57.999Z</time></trkpt><trkpt lat="37.8677375968112" lon="14.005151529031183"><ele>1417.0</ele><time>2026-04-09T09:06:58.999Z</time></trkpt><trkpt lat="37.867780877054166" lon="14.005220179612516"><ele>1417.0</ele><time>2026-04-09T09:06:59.999Z</time></trkpt><trkpt lat="37.867835575906895" lon="14.005290474111098"><ele>1417.0</ele><time>2026-04-09T09:07:00.999Z</time></trkpt><trkpt lat="37.86790706866012" lon="14.005369818533602"><ele>1417.0</ele><time>2026-04-09T09:07:01.999Z</time></trkpt><trkpt lat="37.86800361948091" lon="14.005456067715002"><ele>1417.0</ele><time>2026-04-09T09:07:02.999Z</time></trkpt><trkpt lat="37.86808854371382" lon="14.00553314093913"><ele>1417.0</ele><time>2026-04-09T09:07:03.999Z</time></trkpt><trkpt lat="37.86816357047261" lon="14.00562163742615"><ele>1417.0</ele><time>2026-04-09T09:07:04.999Z</time></trkpt><trkpt lat="37.86823766942945" lon="14.005720485411754"><ele>1417.0</ele><time>2026-04-09T09:07:05.998Z</time></trkpt><trkpt lat="37.86828783968146" lon="14.005827478155307"><ele>1417.0</ele><time>2026-04-09T09:07:06.998Z</time></trkpt><trkpt lat="37.86832804800414" lon="14.005936491799314"><ele>1418.1999999999998</ele><time>2026-04-09T09:07:07.998Z</time></trkpt><trkpt lat="37.86836480935669" lon="14.006052620648187"><ele>1419.4</ele><time>2026-04-09T09:07:08.998Z</time></trkpt><trkpt lat="37.86838590321661" lon="14.006171814327999"><ele>1420.6</ele><time>2026-04-09T09:07:10Z</time></trkpt><trkpt lat="37.86839068363261" lon="14.006280964592136"><ele>1421.8000000000002</ele><time>2026-04-09T09:07:11Z</time></trkpt><trkpt lat="37.8683889168571" lon="14.006396914602245"><ele>1423.0</ele><time>2026-04-09T09:07:12Z</time></trkpt><trkpt lat="37.868397704703774" lon="14.006525742559568"><ele>1423.0</ele><time>2026-04-09T09:07:13Z</time></trkpt><trkpt lat="37.86842629525994" lon="14.006653480887216"><ele>1423.0</ele><time>2026-04-09T09:07:14Z</time></trkpt><trkpt lat="37.868478378776345" lon="14.006769007545014"><ele>1423.0</ele><time>2026-04-09T09:07:15Z</time></trkpt><trkpt lat="37.868540236732585" lon="14.006873752668167"><ele>1423.0</ele><time>2026-04-09T09:07:16Z</time></trkpt><trkpt lat="37.86861034098293" lon="14.006961449481446"><ele>1423.0</ele><time>2026-04-09T09:07:17Z</time></trkpt><trkpt lat="37.868698542099395" lon="14.007024620160259"><ele>1422.2</ele><time>2026-04-09T09:07:18Z</time></trkpt><trkpt lat="37.86880283809571" lon="14.00706839345008"><ele>1421.4</ele><time>2026-04-09T09:07:19Z</time></trkpt><trkpt lat="37.86891917219038" lon="14.007099800613432"><ele>1420.6000000000001</ele><time>2026-04-09T09:07:20Z</time></trkpt><trkpt lat="37.8690262691081" lon="14.007137867872627"><ele>1419.8000000000002</ele><time>2026-04-09T09:07:21Z</time></trkpt><trkpt lat="37.86910638251221" lon="14.007188555476663"><ele>1419.0</ele><time>2026-04-09T09:07:22Z</time></trkpt><trkpt lat="37.86916622535106" lon="14.007246463538474"><ele>1419.0</ele><time>2026-04-09T09:07:23Z</time></trkpt><trkpt lat="37.86921451199391" lon="14.007345643453833"><ele>1419.0</ele><time>2026-04-09T09:07:24Z</time></trkpt><trkpt lat="37.86924282066002" lon="14.00748183553244"><ele>1419.0</ele><time>2026-04-09T09:07:25Z</time></trkpt><trkpt lat="37.86928263075274" lon="14.007649716413368"><ele>1419.0</ele><time>2026-04-09T09:07:26Z</time></trkpt><trkpt lat="37.869314450743424" lon="14.007838717010042"><ele>1420.6666666666667</ele><time>2026-04-09T09:07:27Z</time></trkpt><trkpt lat="37.86934912812201" lon="14.008044689559673"><ele>1422.3333333333335</ele><time>2026-04-09T09:07:28Z</time></trkpt><trkpt lat="37.86938781126736" lon="14.00827445510025"><ele>1424.0</ele><time>2026-04-09T09:07:29Z</time></trkpt><trkpt lat="37.86947568913808" lon="14.008359520600616"><ele>1428.0</ele><time>2026-04-09T09:07:30Z</time></trkpt><trkpt lat="37.86950995028257" lon="14.00859243984134"><ele>1432.0</ele><time>2026-04-09T09:07:31Z</time></trkpt><trkpt lat="37.86954579487958" lon="14.00878660275919"><ele>1436.0</ele><time>2026-04-09T09:07:32Z</time></trkpt><trkpt lat="37.869571771829676" lon="14.008955238812105"><ele>1436.0</ele><time>2026-04-09T09:07:33Z</time></trkpt><trkpt lat="37.869605089865686" lon="14.009134589194357"><ele>1436.0</ele><time>2026-04-09T09:07:34Z</time></trkpt><trkpt lat="37.86963534616329" lon="14.00931450205956"><ele>1436.0</ele><time>2026-04-09T09:07:35Z</time></trkpt><trkpt lat="37.86966207319348" lon="14.009480624827573"><ele>1436.0</ele><time>2026-04-09T09:07:36Z</time></trkpt><trkpt lat="37.869709621604635" lon="14.00963232309926"><ele>1437.5</ele><time>2026-04-09T09:07:37Z</time></trkpt><trkpt lat="37.86978547318992" lon="14.009764140445329"><ele>1439.0</ele><time>2026-04-09T09:07:38Z</time></trkpt><trkpt lat="37.869885831940856" lon="14.009876494335794"><ele>1440.5</ele><time>2026-04-09T09:07:39Z</time></trkpt><trkpt lat="37.87001926832436" lon="14.009983804756194"><ele>1442.0</ele><time>2026-04-09T09:07:40Z</time></trkpt><trkpt lat="37.870172856829136" lon="14.010088312167426"><ele>1444.0</ele><time>2026-04-09T09:07:41Z</time></trkpt><trkpt lat="37.870309233271094" lon="14.010184189066958"><ele>1446.0</ele><time>2026-04-09T09:07:42Z</time></trkpt><trkpt lat="37.87042883971335" lon="14.01026628616008"><ele>1448.0</ele><time>2026-04-09T09:07:43Z</time></trkpt><trkpt lat="37.87055035366684" lon="14.010333657972618"><ele>1450.0</ele><time>2026-04-09T09:07:44Z</time></trkpt><trkpt lat="37.870680404865986" lon="14.010388581772427"><ele>1450.0</ele><time>2026-04-09T09:07:45Z</time></trkpt><trkpt lat="37.87079350976611" lon="14.010430081809197"><ele>1450.0</ele><time>2026-04-09T09:07:45.999Z</time></trkpt><trkpt lat="37.870895180112534" lon="14.010484710247033"><ele>1450.0</ele><time>2026-04-09T09:07:46.999Z</time></trkpt><trkpt lat="37.870990775395484" lon="14.01058007749729"><ele>1450.0</ele><time>2026-04-09T09:07:47.999Z</time></trkpt><trkpt lat="37.8710433547459" lon="14.010724035910698"><ele>1451.0</ele><time>2026-04-09T09:07:48.999Z</time></trkpt><trkpt lat="37.87110631583815" lon="14.010876233743655"><ele>1452.0</ele><time>2026-04-09T09:07:49.999Z</time></trkpt><trkpt lat="37.87118617380301" lon="14.0110489308075"><ele>1453.0</ele><time>2026-04-09T09:07:50.999Z</time></trkpt><trkpt lat="37.87129978678055" lon="14.011187761911037"><ele>1453.0</ele><time>2026-04-09T09:07:51.999Z</time></trkpt><trkpt lat="37.8714276412162" lon="14.011350951699413"><ele>1453.0</ele><time>2026-04-09T09:07:52.999Z</time></trkpt><trkpt lat="37.8715526314199" lon="14.011501633448816"><ele>1453.0</ele><time>2026-04-09T09:07:53.999Z</time></trkpt><trkpt lat="37.871662998893974" lon="14.011623197877466"><ele>1452.75</ele><time>2026-04-09T09:07:54.999Z</time></trkpt><trkpt lat="37.87174515978511" lon="14.011765327715267"><ele>1452.5</ele><time>2026-04-09T09:07:55.999Z</time></trkpt><trkpt lat="37.8718306614359" lon="14.011939937960094"><ele>1452.25</ele><time>2026-04-09T09:07:56.999Z</time></trkpt><trkpt lat="37.8718789958419" lon="14.012084666565887"><ele>1452.0</ele><time>2026-04-09T09:07:57.999Z</time></trkpt><trkpt lat="37.87192396124407" lon="14.01220638646845"><ele>1452.0</ele><time>2026-04-09T09:07:58.999Z</time></trkpt><trkpt lat="37.87197995571206" lon="14.01230379507907"><ele>1452.0</ele><time>2026-04-09T09:07:59.999Z</time></trkpt><trkpt lat="37.87203619240916" lon="14.01240141813723"><ele>1452.0</ele><time>2026-04-09T09:08:00.999Z</time></trkpt><trkpt lat="37.872116017404316" lon="14.012476978002624"><ele>1452.0</ele><time>2026-04-09T09:08:01.999Z</time></trkpt><trkpt lat="37.87222708962958" lon="14.012540767243864"><ele>1452.0</ele><time>2026-04-09T09:08:02.999Z</time></trkpt><trkpt lat="37.87236609971243" lon="14.012598774626928"><ele>1457.75</ele><time>2026-04-09T09:08:03.999Z</time></trkpt><trkpt lat="37.872522090299555" lon="14.0126560306254"><ele>1463.5</ele><time>2026-04-09T09:08:04.999Z</time></trkpt><trkpt lat="37.87265178688499" lon="14.012697468111282"><ele>1469.25</ele><time>2026-04-09T09:08:05.999Z</time></trkpt><trkpt lat="37.872766884530414" lon="14.012704281382684"><ele>1475.0</ele><time>2026-04-09T09:08:06.999Z</time></trkpt><trkpt lat="37.872889261972645" lon="14.012693254677453"><ele>1477.0</ele><time>2026-04-09T09:08:07.999Z</time></trkpt><trkpt lat="37.87302024854693" lon="14.012660168301121"><ele>1479.0</ele><time>2026-04-09T09:08:08.999Z</time></trkpt><trkpt lat="37.873149408957715" lon="14.012591164078223"><ele>1481.0</ele><time>2026-04-09T09:08:09.999Z</time></trkpt><trkpt lat="37.87328255348247" lon="14.012494209555719"><ele>1483.0</ele><time>2026-04-09T09:08:10.999Z</time></trkpt><trkpt lat="37.87343240274886" lon="14.012397454111955"><ele>1477.0</ele><time>2026-04-09T09:08:11.999Z</time></trkpt><trkpt lat="37.87356587033038" lon="14.012329889651019"><ele>1471.0</ele><time>2026-04-09T09:08:12.999Z</time></trkpt><trkpt lat="37.87368509901458" lon="14.012283203728453"><ele>1465.0</ele><time>2026-04-09T09:08:13.999Z</time></trkpt><trkpt lat="37.87381610624039" lon="14.012254309714784"><ele>1459.0</ele><time>2026-04-09T09:08:14.999Z</time></trkpt><trkpt lat="37.87396582881817" lon="14.012289672419964"><ele>1459.0</ele><time>2026-04-09T09:08:15.999Z</time></trkpt><trkpt lat="37.87411710222546" lon="14.012320750798454"><ele>1459.0</ele><time>2026-04-09T09:08:16.999Z</time></trkpt><trkpt lat="37.87427116382027" lon="14.01228189386344"><ele>1459.0</ele><time>2026-04-09T09:08:17.999Z</time></trkpt><trkpt lat="37.874432176464154" lon="14.012243464711986"><ele>1459.75</ele><time>2026-04-09T09:08:18.999Z</time></trkpt><trkpt lat="37.874564121128955" lon="14.01219786988348"><ele>1460.5</ele><time>2026-04-09T09:08:19.999Z</time></trkpt><trkpt lat="37.87467581458857" lon="14.012164322948678"><ele>1461.25</ele><time>2026-04-09T09:08:20.999Z</time></trkpt><trkpt lat="37.87478169733966" lon="14.012170966135841"><ele>1462.0</ele><time>2026-04-09T09:08:21.999Z</time></trkpt><trkpt lat="37.87487121752798" lon="14.01224169033195"><ele>1462.0</ele><time>2026-04-09T09:08:22.999Z</time></trkpt><trkpt lat="37.87492703953816" lon="14.012313598595343"><ele>1462.0</ele><time>2026-04-09T09:08:23.999Z</time></trkpt><trkpt lat="37.874958051228724" lon="14.012384542725325"><ele>1462.0</ele><time>2026-04-09T09:08:24.999Z</time></trkpt><trkpt lat="37.874938215682945" lon="14.012626543118278"><ele>1462.0</ele><time>2026-04-09T09:08:26.999Z</time></trkpt><trkpt lat="37.87490509041858" lon="14.012797547571871"><ele>1468.25</ele><time>2026-04-09T09:08:27.999Z</time></trkpt><trkpt lat="37.8748624264174" lon="14.012996296996882"><ele>1474.5</ele><time>2026-04-09T09:08:28.999Z</time></trkpt><trkpt lat="37.874815444130235" lon="14.013183311487078"><ele>1480.75</ele><time>2026-04-09T09:08:29.999Z</time></trkpt><trkpt lat="37.87477659935967" lon="14.013324407500631"><ele>1487.0</ele><time>2026-04-09T09:08:30.999Z</time></trkpt><trkpt lat="37.87475755668276" lon="14.01344017989879"><ele>1488.3999999999999</ele><time>2026-04-09T09:08:31.999Z</time></trkpt><trkpt lat="37.8747650386805" lon="14.013555791706686"><ele>1489.8</ele><time>2026-04-09T09:08:32.999Z</time></trkpt><trkpt lat="37.87481134780142" lon="14.01365914726092"><ele>1491.2</ele><time>2026-04-09T09:08:33.999Z</time></trkpt><trkpt lat="37.87488959487295" lon="14.013750271762296"><ele>1492.6</ele><time>2026-04-09T09:08:34.999Z</time></trkpt><trkpt lat="37.87499003559087" lon="14.013851861545168"><ele>1494.0</ele><time>2026-04-09T09:08:35.999Z</time></trkpt><trkpt lat="37.87511116210628" lon="14.013975369309213"><ele>1493.5</ele><time>2026-04-09T09:08:36.999Z</time></trkpt><trkpt lat="37.875236047801316" lon="14.014104750014663"><ele>1493.0</ele><time>2026-04-09T09:08:37.999Z</time></trkpt><trkpt lat="37.87533513206774" lon="14.014214859886476"><ele>1492.5</ele><time>2026-04-09T09:08:38.999Z</time></trkpt><trkpt lat="37.8754248317098" lon="14.014324402831061"><ele>1492.0</ele><time>2026-04-09T09:08:39.999Z</time></trkpt><trkpt lat="37.87549219353036" lon="14.014441840201544"><ele>1492.0</ele><time>2026-04-09T09:08:40.999Z</time></trkpt><trkpt lat="37.87554518154732" lon="14.014579899793798"><ele>1492.0</ele><time>2026-04-09T09:08:41.999Z</time></trkpt><trkpt lat="37.875584197261325" lon="14.014722551877629"><ele>1492.0</ele><time>2026-04-09T09:08:42.999Z</time></trkpt><trkpt lat="37.875618976541844" lon="14.01482829206309"><ele>1492.0</ele><time>2026-04-09T09:08:43.999Z</time></trkpt><trkpt lat="37.87567709251679" lon="14.014898337004434"><ele>1492.0</ele><time>2026-04-09T09:08:44.999Z</time></trkpt><trkpt lat="37.87575961535364" lon="14.014896309279347"><ele>1492.0</ele><time>2026-04-09T09:08:45.999Z</time></trkpt><trkpt lat="37.8758549906889" lon="14.014884542401163"><ele>1492.0</ele><time>2026-04-09T09:08:46.999Z</time></trkpt><trkpt lat="37.87596695475842" lon="14.014843010675706"><ele>1492.0</ele><time>2026-04-09T09:08:47.999Z</time></trkpt><trkpt lat="37.87609993250057" lon="14.014772868145512"><ele>1492.0</ele><time>2026-04-09T09:08:48.999Z</time></trkpt><trkpt lat="37.87623502522803" lon="14.014727453173908"><ele>1491.1999999999998</ele><time>2026-04-09T09:08:49.999Z</time></trkpt><trkpt lat="37.87635315792108" lon="14.01471178737925"><ele>1490.4</ele><time>2026-04-09T09:08:50.999Z</time></trkpt><trkpt lat="37.87645860503517" lon="14.014727513047701"><ele>1489.6</ele><time>2026-04-09T09:08:51.999Z</time></trkpt><trkpt lat="37.87656497764262" lon="14.014752151972784"><ele>1488.8000000000002</ele><time>2026-04-09T09:08:52.999Z</time></trkpt><trkpt lat="37.8766739976724" lon="14.014788624461971"><ele>1488.0</ele><time>2026-04-09T09:08:53.999Z</time></trkpt><trkpt lat="37.87678515505904" lon="14.014843952582153"><ele>1488.0</ele><time>2026-04-09T09:08:54.999Z</time></trkpt><trkpt lat="37.876891885874386" lon="14.014917526255463"><ele>1488.0</ele><time>2026-04-09T09:08:55.999Z</time></trkpt><trkpt lat="37.877000769352655" lon="14.014984049446513"><ele>1488.0</ele><time>2026-04-09T09:08:56.999Z</time></trkpt><trkpt lat="37.877108152894166" lon="14.015043554065455"><ele>1488.0</ele><time>2026-04-09T09:08:57.999Z</time></trkpt><trkpt lat="37.87720320882462" lon="14.015085437648617"><ele>1488.8000000000002</ele><time>2026-04-09T09:08:58.999Z</time></trkpt><trkpt lat="37.87727823853294" lon="14.015109714727304"><ele>1489.6</ele><time>2026-04-09T09:08:59.999Z</time></trkpt><trkpt lat="37.87735544361345" lon="14.015091906490536"><ele>1490.4</ele><time>2026-04-09T09:09:00.999Z</time></trkpt><trkpt lat="37.87743831677877" lon="14.015051784756487"><ele>1491.1999999999998</ele><time>2026-04-09T09:09:01.999Z</time></trkpt><trkpt lat="37.877537069988286" lon="14.014990147222669"><ele>1492.0</ele><time>2026-04-09T09:09:02.998Z</time></trkpt><trkpt lat="37.87764292103504" lon="14.014929808215786"><ele>1492.0</ele><time>2026-04-09T09:09:03.998Z</time></trkpt><trkpt lat="37.877750557039334" lon="14.014891939424986"><ele>1492.0</ele><time>2026-04-09T09:09:04.998Z</time></trkpt><trkpt lat="37.8778614058861" lon="14.014889153641208"><ele>1492.0</ele><time>2026-04-09T09:09:05.998Z</time></trkpt><trkpt lat="37.87799642098589" lon="14.014910972425273"><ele>1492.0</ele><time>2026-04-09T09:09:06.998Z</time></trkpt><trkpt lat="37.87814615612665" lon="14.014930649218588"><ele>1492.0</ele><time>2026-04-09T09:09:07.998Z</time></trkpt><trkpt lat="37.87827936048144" lon="14.014920132683704"><ele>1492.0</ele><time>2026-04-09T09:09:08.998Z</time></trkpt><trkpt lat="37.878388052865056" lon="14.014917755332018"><ele>1492.0</ele><time>2026-04-09T09:09:09.998Z</time></trkpt><trkpt lat="37.87848024211502" lon="14.014933491311043"><ele>1492.0</ele><time>2026-04-09T09:09:10.998Z</time></trkpt><trkpt lat="37.87854692951456" lon="14.014954012554481"><ele>1492.0</ele><time>2026-04-09T09:09:11.998Z</time></trkpt><trkpt lat="37.87861535070215" lon="14.015056515507501"><ele>1497.8</ele><time>2026-04-09T09:09:13.998Z</time></trkpt><trkpt lat="37.878576837560885" lon="14.015180804310457"><ele>1503.6</ele><time>2026-04-09T09:09:16Z</time></trkpt><trkpt lat="37.87847390970353" lon="14.015213606488986"><ele>1509.3999999999999</ele><time>2026-04-09T09:09:18Z</time></trkpt><trkpt lat="37.87835430112451" lon="14.015180736139282"><ele>1515.1999999999998</ele><time>2026-04-09T09:09:20Z</time></trkpt><trkpt lat="37.87825042635515" lon="14.015155256342126"><ele>1521.0</ele><time>2026-04-09T09:09:22Z</time></trkpt><trkpt lat="37.87815287951703" lon="14.015137536555793"><ele>1521.0</ele><time>2026-04-09T09:09:23Z</time></trkpt><trkpt lat="37.87804078106336" lon="14.015130873876858"><ele>1521.0</ele><time>2026-04-09T09:09:24Z</time></trkpt><trkpt lat="37.87792619842051" lon="14.015114461253003"><ele>1521.0</ele><time>2026-04-09T09:09:25Z</time></trkpt><trkpt lat="37.87780076159926" lon="14.01513532677249"><ele>1521.0</ele><time>2026-04-09T09:09:26Z</time></trkpt><trkpt lat="37.8776994542905" lon="14.015200322666981"><ele>1521.0</ele><time>2026-04-09T09:09:27Z</time></trkpt><trkpt lat="37.8776063105769" lon="14.015292650928416"><ele>1521.0</ele><time>2026-04-09T09:09:28Z</time></trkpt><trkpt lat="37.877518751063775" lon="14.01542269036158"><ele>1521.0</ele><time>2026-04-09T09:09:29Z</time></trkpt><trkpt lat="37.87744098370602" lon="14.015522803106267"><ele>1521.0</ele><time>2026-04-09T09:09:30Z</time></trkpt><trkpt lat="37.877361666413634" lon="14.015575872210032"><ele>1520.25</ele><time>2026-04-09T09:09:31Z</time></trkpt><trkpt lat="37.87726077204012" lon="14.015582214949287"><ele>1519.5</ele><time>2026-04-09T09:09:32Z</time></trkpt><trkpt lat="37.87713097296096" lon="14.015564841470502"><ele>1518.75</ele><time>2026-04-09T09:09:33Z</time></trkpt><trkpt lat="37.8769788081046" lon="14.015532824235475"><ele>1518.0</ele><time>2026-04-09T09:09:34Z</time></trkpt><trkpt lat="37.87681816560204" lon="14.015481908237678"><ele>1519.25</ele><time>2026-04-09T09:09:35Z</time></trkpt><trkpt lat="37.87667290460275" lon="14.015417922056105"><ele>1520.5</ele><time>2026-04-09T09:09:36Z</time></trkpt><trkpt lat="37.87654976496638" lon="14.015369850286312"><ele>1521.75</ele><time>2026-04-09T09:09:37Z</time></trkpt><trkpt lat="37.87643014960584" lon="14.015364296538735"><ele>1523.0</ele><time>2026-04-09T09:09:38Z</time></trkpt><trkpt lat="37.876316353614904" lon="14.015410211065301"><ele>1523.0</ele><time>2026-04-09T09:09:39Z</time></trkpt><trkpt lat="37.8762054183813" lon="14.0154867829966"><ele>1523.0</ele><time>2026-04-09T09:09:40Z</time></trkpt><trkpt lat="37.876115932350196" lon="14.015586656270324"><ele>1523.0</ele><time>2026-04-09T09:09:41Z</time></trkpt><trkpt lat="37.87605329367403" lon="14.015707091623113"><ele>1523.0</ele><time>2026-04-09T09:09:42Z</time></trkpt><trkpt lat="37.8760225050363" lon="14.01584924042425"><ele>1531.25</ele><time>2026-04-09T09:09:43Z</time></trkpt><trkpt lat="37.876019669984906" lon="14.016006452893102"><ele>1539.5</ele><time>2026-04-09T09:09:44Z</time></trkpt><trkpt lat="37.87604197239577" lon="14.016188750450585"><ele>1547.75</ele><time>2026-04-09T09:09:44.999Z</time></trkpt><trkpt lat="37.87607079929435" lon="14.016369040701111"><ele>1556.0</ele><time>2026-04-09T09:09:45.999Z</time></trkpt><trkpt lat="37.87610657326732" lon="14.016511460943144"><ele>1555.9999999999998</ele><time>2026-04-09T09:09:46.999Z</time></trkpt><trkpt lat="37.8761502267183" lon="14.016628156625869"><ele>1556.0</ele><time>2026-04-09T09:09:47.999Z</time></trkpt><trkpt lat="37.87618225048763" lon="14.016730371177076"><ele>1556.0</ele><time>2026-04-09T09:09:48.999Z</time></trkpt><trkpt lat="37.87618479446137" lon="14.016827474097166"><ele>1556.0</ele><time>2026-04-09T09:09:49.999Z</time></trkpt><trkpt lat="37.876166419468426" lon="14.016905018437908"><ele>1555.9999999999998</ele><time>2026-04-09T09:09:50.999Z</time></trkpt><trkpt lat="37.87611595492897" lon="14.016993246742599"><ele>1556.0</ele><time>2026-04-09T09:09:52.999Z</time></trkpt><trkpt lat="37.876042212433184" lon="14.017119638737848"><ele>1555.3333333333333</ele><time>2026-04-09T09:09:54.999Z</time></trkpt><trkpt lat="37.8759757459571" lon="14.017169543217413"><ele>1554.6666666666665</ele><time>2026-04-09T09:09:55.999Z</time></trkpt><trkpt lat="37.87590344665741" lon="14.017197568027502"><ele>1554.0</ele><time>2026-04-09T09:09:56.999Z</time></trkpt><trkpt lat="37.87583062150054" lon="14.017208056853894"><ele>1553.3333333333335</ele><time>2026-04-09T09:09:57.999Z</time></trkpt><trkpt lat="37.87575491550526" lon="14.017203593947508"><ele>1552.6666666666667</ele><time>2026-04-09T09:09:58.999Z</time></trkpt><trkpt lat="37.87567458181597" lon="14.017191853143741"><ele>1552.0</ele><time>2026-04-09T09:09:59.999Z</time></trkpt><trkpt lat="37.875588501964664" lon="14.017177742406655"><ele>1552.0</ele><time>2026-04-09T09:10:00.999Z</time></trkpt><trkpt lat="37.875511127085105" lon="14.017170981811903"><ele>1552.0</ele><time>2026-04-09T09:10:01.999Z</time></trkpt><trkpt lat="37.87543356768222" lon="14.017167822623762"><ele>1552.0</ele><time>2026-04-09T09:10:02.999Z</time></trkpt><trkpt lat="37.87533256103581" lon="14.017159517945046"><ele>1552.0</ele><time>2026-04-09T09:10:03.999Z</time></trkpt><trkpt lat="37.87521968880798" lon="14.017137941932953"><ele>1552.0</ele><time>2026-04-09T09:10:04.999Z</time></trkpt><trkpt lat="37.875124907617426" lon="14.017090785629735"><ele>1552.8</ele><time>2026-04-09T09:10:05.999Z</time></trkpt><trkpt lat="37.875030757930794" lon="14.017041221324536"><ele>1553.6</ele><time>2026-04-09T09:10:06.999Z</time></trkpt><trkpt lat="37.87493582956162" lon="14.017023501765909"><ele>1554.3999999999999</ele><time>2026-04-09T09:10:07.999Z</time></trkpt><trkpt lat="37.87484107278566" lon="14.017040477987281"><ele>1555.1999999999998</ele><time>2026-04-09T09:10:08.999Z</time></trkpt><trkpt lat="37.87475477838298" lon="14.01707882587171"><ele>1556.0</ele><time>2026-04-09T09:10:09.999Z</time></trkpt><trkpt lat="37.87468691013039" lon="14.017138615411053"><ele>1555.9999999999998</ele><time>2026-04-09T09:10:10.999Z</time></trkpt><trkpt lat="37.87462432176353" lon="14.017212198307323"><ele>1556.0</ele><time>2026-04-09T09:10:11.999Z</time></trkpt><trkpt lat="37.87458623153966" lon="14.017302956206736"><ele>1556.0</ele><time>2026-04-09T09:10:12.999Z</time></trkpt><trkpt lat="37.87456718459891" lon="14.01739955512027"><ele>1556.0</ele><time>2026-04-09T09:10:13.999Z</time></trkpt><trkpt lat="37.87455800078842" lon="14.01751145673902"><ele>1555.9999999999998</ele><time>2026-04-09T09:10:14.999Z</time></trkpt><trkpt lat="37.87456664270125" lon="14.017641633780137"><ele>1556.0</ele><time>2026-04-09T09:10:15.999Z</time></trkpt><trkpt lat="37.87458343590669" lon="14.017786598003221"><ele>1560.25</ele><time>2026-04-09T09:10:16.999Z</time></trkpt><trkpt lat="37.87460222463514" lon="14.017958139113633"><ele>1564.5</ele><time>2026-04-09T09:10:17.999Z</time></trkpt><trkpt lat="37.87461563492345" lon="14.018110449810322"><ele>1568.75</ele><time>2026-04-09T09:10:18.999Z</time></trkpt><trkpt lat="37.87462738796597" lon="14.018247030217193"><ele>1573.0</ele><time>2026-04-09T09:10:19.999Z</time></trkpt><trkpt lat="37.87463763861202" lon="14.018353149097571"><ele>1573.0</ele><time>2026-04-09T09:10:20.999Z</time></trkpt><trkpt lat="37.87464252616196" lon="14.018441645034843"><ele>1573.0</ele><time>2026-04-09T09:10:21.999Z</time></trkpt><trkpt lat="37.874663049974586" lon="14.018528559479778"><ele>1573.0</ele><time>2026-04-09T09:10:23.999Z</time></trkpt><trkpt lat="37.874730471803375" lon="14.018554433701091"><ele>1573.0</ele><time>2026-04-09T09:10:25.999Z</time></trkpt><trkpt lat="37.87479197013803" lon="14.018511849870011"><ele>1573.0</ele><time>2026-04-09T09:10:27.999Z</time></trkpt><trkpt lat="37.87485967290127" lon="14.018457639313617"><ele>1573.0</ele><time>2026-04-09T09:10:30.999Z</time></trkpt><trkpt lat="37.8748302311885" lon="14.018383311478336"><ele>1573.0</ele><time>2026-04-09T09:10:36.999Z</time></trkpt><trkpt lat="37.874773482031834" lon="14.018428593858088"><ele>1573.0</ele><time>2026-04-09T09:11:06.998Z</time></trkpt><trkpt lat="37.87470416539731" lon="14.018491889409706"><ele>1573.0</ele><time>2026-04-09T09:12:31.999Z</time></trkpt><trkpt lat="37.87463500398658" lon="14.018464211087315"><ele>1573.0</ele><time>2026-04-09T09:12:32.999Z</time></trkpt><trkpt lat="37.87474310438517" lon="14.018709661130735"><ele>1573.0</ele><time>2026-04-09T09:12:36.999Z</time></trkpt><trkpt lat="37.87485130923614" lon="14.018786860905898"><ele>1573.0000000000002</ele><time>2026-04-09T09:12:38.999Z</time></trkpt><trkpt lat="37.87490468895988" lon="14.018834691707399"><ele>1573.0</ele><time>2026-04-09T09:12:39.999Z</time></trkpt><trkpt lat="37.87496244247663" lon="14.018880746393409"><ele>1573.0</ele><time>2026-04-09T09:12:40.999Z</time></trkpt><trkpt lat="37.875024473146766" lon="14.018920373154032"><ele>1573.0</ele><time>2026-04-09T09:12:41.999Z</time></trkpt><trkpt lat="37.87509525627359" lon="14.01894980533459"><ele>1573.0000000000002</ele><time>2026-04-09T09:12:42.999Z</time></trkpt><trkpt lat="37.87518152928292" lon="14.018962177681763"><ele>1573.0</ele><time>2026-04-09T09:12:43.999Z</time></trkpt><trkpt lat="37.87527310492023" lon="14.01895735793229"><ele>1573.4</ele><time>2026-04-09T09:12:44.999Z</time></trkpt><trkpt lat="37.87536427293503" lon="14.018933643430223"><ele>1573.8000000000002</ele><time>2026-04-09T09:12:45.999Z</time></trkpt><trkpt lat="37.87545715425195" lon="14.018903960588755"><ele>1574.2</ele><time>2026-04-09T09:12:46.999Z</time></trkpt><trkpt lat="37.87554945060961" lon="14.018849411348512"><ele>1574.6</ele><time>2026-04-09T09:12:47.999Z</time></trkpt><trkpt lat="37.87563905624884" lon="14.01877262027492"><ele>1575.0</ele><time>2026-04-09T09:12:48.999Z</time></trkpt><trkpt lat="37.87573087620754" lon="14.018683056449108"><ele>1575.0</ele><time>2026-04-09T09:12:49.999Z</time></trkpt><trkpt lat="37.87582319224335" lon="14.018599586255805"><ele>1575.0</ele><time>2026-04-09T09:12:50.999Z</time></trkpt><trkpt lat="37.8758974515637" lon="14.018530305687248"><ele>1575.0</ele><time>2026-04-09T09:12:51.999Z</time></trkpt><trkpt lat="37.875961568086566" lon="14.018472601585884"><ele>1575.0</ele><time>2026-04-09T09:12:52.999Z</time></trkpt><trkpt lat="37.87603093277889" lon="14.01842328047647"><ele>1575.0</ele><time>2026-04-09T09:12:53.999Z</time></trkpt><trkpt lat="37.87610715078325" lon="14.018396913870552"><ele>1575.0</ele><time>2026-04-09T09:12:54.999Z</time></trkpt><trkpt lat="37.87617541201076" lon="14.018393456282803"><ele>1575.0</ele><time>2026-04-09T09:12:55.999Z</time></trkpt><trkpt lat="37.87625996917037" lon="14.018409414288326"><ele>1575.0</ele><time>2026-04-09T09:12:57.999Z</time></trkpt><trkpt lat="37.876326217508776" lon="14.018409355343554"><ele>1575.0</ele><time>2026-04-09T09:13:00.999Z</time></trkpt><trkpt lat="37.876447865610885" lon="14.018117000350234"><ele>1575.0</ele><time>2026-04-09T09:13:05.999Z</time></trkpt><trkpt lat="37.87651016531999" lon="14.018022301067033"><ele>1574.3333333333333</ele><time>2026-04-09T09:13:06.998Z</time></trkpt><trkpt lat="37.87656658507792" lon="14.01795408939512"><ele>1573.6666666666665</ele><time>2026-04-09T09:13:07.998Z</time></trkpt><trkpt lat="37.87663048713696" lon="14.01790421262177"><ele>1573.0</ele><time>2026-04-09T09:13:09.998Z</time></trkpt><trkpt lat="37.87671934385413" lon="14.01791896106723"><ele>1572.3333333333333</ele><time>2026-04-09T09:13:11.998Z</time></trkpt><trkpt lat="37.87679536828361" lon="14.017880975218839"><ele>1571.6666666666665</ele><time>2026-04-09T09:13:14.998Z</time></trkpt><trkpt lat="37.87673445548078" lon="14.017924798442298"><ele>1571.0</ele><time>2026-04-09T09:13:29Z</time></trkpt><trkpt lat="37.8766329202658" lon="14.017956231766057"><ele>1571.0</ele><time>2026-04-09T09:13:59.999Z</time></trkpt><trkpt lat="37.87655104822997" lon="14.017995277089247"><ele>1571.0</ele><time>2026-04-09T09:14:01.999Z</time></trkpt><trkpt lat="37.87645825324027" lon="14.018083603008712"><ele>1571.0</ele><time>2026-04-09T09:14:03.999Z</time></trkpt><trkpt lat="37.87638050885565" lon="14.0181831312866"><ele>1571.0</ele><time>2026-04-09T09:14:05.999Z</time></trkpt><trkpt lat="37.87632903088946" lon="14.018255315506455"><ele>1571.0</ele><time>2026-04-09T09:14:07.999Z</time></trkpt><trkpt lat="37.87627791474447" lon="14.01830281612205"><ele>1571.8</ele><time>2026-04-09T09:14:09.999Z</time></trkpt><trkpt lat="37.876198810638165" lon="14.018336148432098"><ele>1572.6</ele><time>2026-04-09T09:14:11.999Z</time></trkpt><trkpt lat="37.876061661344345" lon="14.018397591935077"><ele>1573.4</ele><time>2026-04-09T09:14:13.999Z</time></trkpt><trkpt lat="37.875981303152486" lon="14.01839597712444"><ele>1574.2</ele><time>2026-04-09T09:14:14.999Z</time></trkpt><trkpt lat="37.87591743492616" lon="14.018455370069436"><ele>1575.0</ele><time>2026-04-09T09:14:15.999Z</time></trkpt><trkpt lat="37.8758533110435" lon="14.01851595479301"><ele>1575.0</ele><time>2026-04-09T09:14:16.999Z</time></trkpt><trkpt lat="37.87579335120307" lon="14.01857187361162"><ele>1575.0</ele><time>2026-04-09T09:14:17.999Z</time></trkpt><trkpt lat="37.87572874948495" lon="14.018631091794367"><ele>1575.0</ele><time>2026-04-09T09:14:18.999Z</time></trkpt><trkpt lat="37.87565569550083" lon="14.01869660676684"><ele>1575.0</ele><time>2026-04-09T09:14:19.999Z</time></trkpt><trkpt lat="37.87558930797264" lon="14.018754741513657"><ele>1575.0</ele><time>2026-04-09T09:14:20.999Z</time></trkpt><trkpt lat="37.875529186932894" lon="14.018802791009188"><ele>1575.0</ele><time>2026-04-09T09:14:21.999Z</time></trkpt><trkpt lat="37.8754724719856" lon="14.018844679662879"><ele>1575.0</ele><time>2026-04-09T09:14:22.999Z</time></trkpt><trkpt lat="37.875364395748655" lon="14.018883948846137"><ele>1575.0</ele><time>2026-04-09T09:14:24.999Z</time></trkpt><trkpt lat="37.87530120493007" lon="14.018900166367816"><ele>1575.0</ele><time>2026-04-09T09:14:25.999Z</time></trkpt><trkpt lat="37.87522377575172" lon="14.018915474429603"><ele>1575.0</ele><time>2026-04-09T09:14:26.999Z</time></trkpt><trkpt lat="37.87515765649937" lon="14.018921459606352"><ele>1575.0</ele><time>2026-04-09T09:14:27.999Z</time></trkpt><trkpt lat="37.87506154940323" lon="14.018899781315934"><ele>1575.0</ele><time>2026-04-09T09:14:29.999Z</time></trkpt><trkpt lat="37.874978680698455" lon="14.018837490062715"><ele>1574.7142857142858</ele><time>2026-04-09T09:14:31.999Z</time></trkpt><trkpt lat="37.8749117534121" lon="14.018783449150297"><ele>1574.4285714285716</ele><time>2026-04-09T09:14:33.999Z</time></trkpt><trkpt lat="37.87485945395281" lon="14.018733507128053"><ele>1574.142857142857</ele><time>2026-04-09T09:14:35.999Z</time></trkpt><trkpt lat="37.87480381904985" lon="14.01867785431469"><ele>1573.857142857143</ele><time>2026-04-09T09:14:37.999Z</time></trkpt><trkpt lat="37.87477632637686" lon="14.018592680299262"><ele>1573.5714285714287</ele><time>2026-04-09T09:14:39.999Z</time></trkpt><trkpt lat="37.87474790092733" lon="14.018512518384675"><ele>1573.2857142857142</ele><time>2026-04-09T09:14:42.999Z</time></trkpt><trkpt lat="37.87467483165412" lon="14.018513914620007"><ele>1573.0</ele><time>2026-04-09T09:17:18.998Z</time></trkpt><trkpt lat="37.87461576806824" lon="14.01854536937405"><ele>1573.0</ele><time>2026-04-09T09:18:04.999Z</time></trkpt><trkpt lat="37.874552910726464" lon="14.01857656444715"><ele>1573.0</ele><time>2026-04-09T09:19:14Z</time></trkpt><trkpt lat="37.87448695070047" lon="14.018605670665712"><ele>1573.0</ele><time>2026-04-09T09:19:20Z</time></trkpt><trkpt lat="37.874420698632804" lon="14.018598825207476"><ele>1573.0</ele><time>2026-04-09T09:19:24.999Z</time></trkpt><trkpt lat="37.87436925897096" lon="14.01854479514138"><ele>1573.0</ele><time>2026-04-09T09:19:37.999Z</time></trkpt><trkpt lat="37.87435729119282" lon="14.01862651089355"><ele>1573.0</ele><time>2026-04-09T09:21:07Z</time></trkpt><trkpt lat="37.87442117067456" lon="14.018671363711283"><ele>1573.0</ele><time>2026-04-09T09:21:16Z</time></trkpt><trkpt lat="37.87448783303754" lon="14.018658598753364"><ele>1573.0</ele><time>2026-04-09T09:21:21Z</time></trkpt><trkpt lat="37.8745374581824" lon="14.01858980317811"><ele>1573.0</ele><time>2026-04-09T09:21:25.999Z</time></trkpt><trkpt lat="37.87460140407187" lon="14.018549068888515"><ele>1573.0</ele><time>2026-04-09T09:21:32.999Z</time></trkpt><trkpt lat="37.87467236547475" lon="14.018521346506832"><ele>1573.0</ele><time>2026-04-09T09:21:38.999Z</time></trkpt><trkpt lat="37.87473065919835" lon="14.018472822478387"><ele>1573.0</ele><time>2026-04-09T09:21:43.999Z</time></trkpt><trkpt lat="37.87467793510252" lon="14.01851676932048"><ele>1573.0</ele><time>2026-04-09T09:22:44Z</time></trkpt><trkpt lat="37.87466503493898" lon="14.018604702243298"><ele>1573.0</ele><time>2026-04-09T09:22:47Z</time></trkpt><trkpt lat="37.87472978635988" lon="14.01862225346969"><ele>1573.0</ele><time>2026-04-09T09:23:42.999Z</time></trkpt><trkpt lat="37.874787149764806" lon="14.018571254134025"><ele>1573.0</ele><time>2026-04-09T09:24:38Z</time></trkpt><trkpt lat="37.87481321345358" lon="14.01848913928737"><ele>1573.0</ele><time>2026-04-09T09:24:40Z</time></trkpt><trkpt lat="37.8748034749296" lon="14.018385757661774"><ele>1573.0</ele><time>2026-04-09T09:24:43Z</time></trkpt><trkpt lat="37.87474664773684" lon="14.018345353330663"><ele>1573.0</ele><time>2026-04-09T09:24:46Z</time></trkpt><trkpt lat="37.87468793615277" lon="14.01839662249961"><ele>1573.0</ele><time>2026-04-09T09:25:03Z</time></trkpt><trkpt lat="37.87463231891438" lon="14.018449636258627"><ele>1573.0</ele><time>2026-04-09T09:25:08Z</time></trkpt><trkpt lat="37.87458196269953" lon="14.018522524515042"><ele>1573.0</ele><time>2026-04-09T09:25:14Z</time></trkpt><trkpt lat="37.87454478050819" lon="14.01859039462115"><ele>1573.0</ele><time>2026-04-09T09:25:21Z</time></trkpt><trkpt lat="37.87456106823271" lon="14.018675605449268"><ele>1573.0</ele><time>2026-04-09T09:25:33Z</time></trkpt><trkpt lat="37.874567197146554" lon="14.018760086047584"><ele>1573.0</ele><time>2026-04-09T09:25:39Z</time></trkpt><trkpt lat="37.87457728087169" lon="14.01868045187542"><ele>1573.0</ele><time>2026-04-09T09:29:04Z</time></trkpt><trkpt lat="37.87457052719868" lon="14.018598417476973"><ele>1573.0</ele><time>2026-04-09T09:29:13Z</time></trkpt><trkpt lat="37.874611841038174" lon="14.018526884599742"><ele>1573.0</ele><time>2026-04-09T09:29:20Z</time></trkpt><trkpt lat="37.874663728073465" lon="14.018475018998078"><ele>1573.0</ele><time>2026-04-09T09:29:26Z</time></trkpt><trkpt lat="37.87470984446842" lon="14.018411081399513"><ele>1573.0</ele><time>2026-04-09T09:29:32Z</time></trkpt><trkpt lat="37.87475886479919" lon="14.018358834234332"><ele>1573.0</ele><time>2026-04-09T09:29:37Z</time></trkpt><trkpt lat="37.87470721919242" lon="14.01843804354351"><ele>1573.0</ele><time>2026-04-09T09:33:12Z</time></trkpt><trkpt lat="37.87470307015138" lon="14.018538537237193"><ele>1573.0</ele><time>2026-04-09T09:33:14Z</time></trkpt><trkpt lat="37.87472050499887" lon="14.01862396789872"><ele>1573.0</ele><time>2026-04-09T09:33:15Z</time></trkpt><trkpt lat="37.874761756055754" lon="14.018689238613405"><ele>1573.0</ele><time>2026-04-09T09:33:16Z</time></trkpt><trkpt lat="37.874817713297496" lon="14.018752012694433"><ele>1573.0</ele><time>2026-04-09T09:33:17Z</time></trkpt><trkpt lat="37.874897792330074" lon="14.0188218089182"><ele>1573.0</ele><time>2026-04-09T09:33:18Z</time></trkpt><trkpt lat="37.874983277342245" lon="14.018879251480925"><ele>1573.0</ele><time>2026-04-09T09:33:19Z</time></trkpt><trkpt lat="37.87508916566652" lon="14.018925208064132"><ele>1573.0</ele><time>2026-04-09T09:33:20Z</time></trkpt><trkpt lat="37.875206204428395" lon="14.01896461999333"><ele>1573.0</ele><time>2026-04-09T09:33:21Z</time></trkpt><trkpt lat="37.87531828676293" lon="14.018936787835178"><ele>1573.5</ele><time>2026-04-09T09:33:22Z</time></trkpt><trkpt lat="37.875425776289134" lon="14.018909163554385"><ele>1574.0</ele><time>2026-04-09T09:33:23Z</time></trkpt><trkpt lat="37.87552434429296" lon="14.018855607232295"><ele>1574.5</ele><time>2026-04-09T09:33:24Z</time></trkpt><trkpt lat="37.875626010501655" lon="14.018771548600133"><ele>1575.0</ele><time>2026-04-09T09:33:25Z</time></trkpt><trkpt lat="37.87573864689864" lon="14.018665831275912"><ele>1575.0</ele><time>2026-04-09T09:33:26Z</time></trkpt><trkpt lat="37.875835676444986" lon="14.018572107169577"><ele>1575.0</ele><time>2026-04-09T09:33:27Z</time></trkpt><trkpt lat="37.87591281928443" lon="14.018500230004621"><ele>1575.0</ele><time>2026-04-09T09:33:28Z</time></trkpt><trkpt lat="37.87599233898906" lon="14.018437197667488"><ele>1575.0</ele><time>2026-04-09T09:33:29Z</time></trkpt><trkpt lat="37.876071608370886" lon="14.018395679786826"><ele>1575.0</ele><time>2026-04-09T09:33:30Z</time></trkpt><trkpt lat="37.87614382168366" lon="14.018384993507425"><ele>1575.0</ele><time>2026-04-09T09:33:31Z</time></trkpt><trkpt lat="37.876215951861035" lon="14.018387582790094"><ele>1575.0</ele><time>2026-04-09T09:33:32Z</time></trkpt><trkpt lat="37.87628318275504" lon="14.01840378185945"><ele>1575.0</ele><time>2026-04-09T09:33:33Z</time></trkpt><trkpt lat="37.8763882337284" lon="14.018496889117872"><ele>1575.0</ele><time>2026-04-09T09:33:35Z</time></trkpt><trkpt lat="37.87643208087134" lon="14.01857537963061"><ele>1575.0</ele><time>2026-04-09T09:33:36Z</time></trkpt><trkpt lat="37.87647660235654" lon="14.018674423424017"><ele>1575.0</ele><time>2026-04-09T09:33:37Z</time></trkpt><trkpt lat="37.87652689761358" lon="14.018782436121024"><ele>1575.0</ele><time>2026-04-09T09:33:38Z</time></trkpt><trkpt lat="37.87657770727459" lon="14.018898719374166"><ele>1575.0</ele><time>2026-04-09T09:33:39Z</time></trkpt><trkpt lat="37.87662585301462" lon="14.019018086232668"><ele>1575.0</ele><time>2026-04-09T09:33:40Z</time></trkpt><trkpt lat="37.87665758093256" lon="14.019132761062046"><ele>1575.0</ele><time>2026-04-09T09:33:41Z</time></trkpt><trkpt lat="37.87666488491889" lon="14.01924005024229"><ele>1575.0</ele><time>2026-04-09T09:33:42Z</time></trkpt><trkpt lat="37.876661963875144" lon="14.019352398886978"><ele>1576.25</ele><time>2026-04-09T09:33:43Z</time></trkpt><trkpt lat="37.87664036006873" lon="14.019472587850139"><ele>1577.5</ele><time>2026-04-09T09:33:44Z</time></trkpt><trkpt lat="37.87659986901247" lon="14.019611323829"><ele>1578.75</ele><time>2026-04-09T09:33:45Z</time></trkpt><trkpt lat="37.87655220897721" lon="14.01975503287389"><ele>1580.0</ele><time>2026-04-09T09:33:46Z</time></trkpt><trkpt lat="37.87649818387827" lon="14.019884768756713"><ele>1580.4999999999998</ele><time>2026-04-09T09:33:47Z</time></trkpt><trkpt lat="37.87646655637324" lon="14.020007513517925"><ele>1581.0</ele><time>2026-04-09T09:33:48Z</time></trkpt><trkpt lat="37.876442062292476" lon="14.020112428522337"><ele>1581.5</ele><time>2026-04-09T09:33:49Z</time></trkpt><trkpt lat="37.87642669336852" lon="14.020215472193838"><ele>1582.0</ele><time>2026-04-09T09:33:50Z</time></trkpt><trkpt lat="37.87642792981012" lon="14.02032212213082"><ele>1582.4999999999998</ele><time>2026-04-09T09:33:51Z</time></trkpt><trkpt lat="37.87644508430368" lon="14.02043725215021"><ele>1583.0</ele><time>2026-04-09T09:33:52Z</time></trkpt><trkpt lat="37.87647618570426" lon="14.020558648910772"><ele>1583.0</ele><time>2026-04-09T09:33:53Z</time></trkpt><trkpt lat="37.87651122616247" lon="14.020692308963755"><ele>1583.0</ele><time>2026-04-09T09:33:54Z</time></trkpt><trkpt lat="37.8765586539666" lon="14.020826630601968"><ele>1583.0</ele><time>2026-04-09T09:33:55Z</time></trkpt><trkpt lat="37.876622504994444" lon="14.020945873440963"><ele>1583.0</ele><time>2026-04-09T09:33:56Z</time></trkpt><trkpt lat="37.87669433164788" lon="14.021067495701914"><ele>1583.0</ele><time>2026-04-09T09:33:56.999Z</time></trkpt><trkpt lat="37.876757229047705" lon="14.02119359713458"><ele>1583.0</ele><time>2026-04-09T09:33:57.999Z</time></trkpt><trkpt lat="37.876807591480734" lon="14.021334419736984"><ele>1583.0</ele><time>2026-04-09T09:33:58.999Z</time></trkpt><trkpt lat="37.876848110497036" lon="14.021485997555844"><ele>1583.0</ele><time>2026-04-09T09:33:59.999Z</time></trkpt><trkpt lat="37.87688080111947" lon="14.021643199834932"><ele>1589.0</ele><time>2026-04-09T09:34:00.999Z</time></trkpt><trkpt lat="37.876917024037866" lon="14.021795759186276"><ele>1595.0</ele><time>2026-04-09T09:34:01.999Z</time></trkpt><trkpt lat="37.876955577083905" lon="14.02191773879208"><ele>1601.0</ele><time>2026-04-09T09:34:02.999Z</time></trkpt><trkpt lat="37.877010431370024" lon="14.02202710964483"><ele>1607.0</ele><time>2026-04-09T09:34:03.999Z</time></trkpt><trkpt lat="37.87707700688522" lon="14.022109616712651"><ele>1613.0</ele><time>2026-04-09T09:34:04.999Z</time></trkpt><trkpt lat="37.87715434270972" lon="14.022170287173694"><ele>1613.0</ele><time>2026-04-09T09:34:05.999Z</time></trkpt><trkpt lat="37.87724425746617" lon="14.022230726506468"><ele>1613.0</ele><time>2026-04-09T09:34:06.999Z</time></trkpt><trkpt lat="37.877338625318345" lon="14.022287295056195"><ele>1613.0</ele><time>2026-04-09T09:34:07.999Z</time></trkpt><trkpt lat="37.87743196192913" lon="14.022332291932603"><ele>1613.0</ele><time>2026-04-09T09:34:08.999Z</time></trkpt><trkpt lat="37.87751808226311" lon="14.022361787484257"><ele>1613.0</ele><time>2026-04-09T09:34:09.999Z</time></trkpt><trkpt lat="37.87759836831643" lon="14.022393248625445"><ele>1615.142857142857</ele><time>2026-04-09T09:34:10.999Z</time></trkpt><trkpt lat="37.877660903408874" lon="14.022437220460931"><ele>1617.2857142857142</ele><time>2026-04-09T09:34:11.999Z</time></trkpt><trkpt lat="37.87771457479322" lon="14.022485301789938"><ele>1619.4285714285716</ele><time>2026-04-09T09:34:12.999Z</time></trkpt><trkpt lat="37.87776744123636" lon="14.022542446813727"><ele>1621.5714285714284</ele><time>2026-04-09T09:34:13.999Z</time></trkpt><trkpt lat="37.87781914982873" lon="14.02260501453626"><ele>1623.7142857142858</ele><time>2026-04-09T09:34:14.999Z</time></trkpt><trkpt lat="37.877854866676756" lon="14.02268405501113"><ele>1625.857142857143</ele><time>2026-04-09T09:34:15.999Z</time></trkpt><trkpt lat="37.8778729409429" lon="14.022778024511837"><ele>1628.0</ele><time>2026-04-09T09:34:16.999Z</time></trkpt><trkpt lat="37.87789178652822" lon="14.022879437215277"><ele>1628.0000000000002</ele><time>2026-04-09T09:34:17.999Z</time></trkpt><trkpt lat="37.877910992260354" lon="14.02298058185576"><ele>1628.0</ele><time>2026-04-09T09:34:18.999Z</time></trkpt><trkpt lat="37.87791057171347" lon="14.02307208149248"><ele>1628.0</ele><time>2026-04-09T09:34:19.999Z</time></trkpt><trkpt lat="37.877895332312235" lon="14.023157823440947"><ele>1628.0</ele><time>2026-04-09T09:34:20.999Z</time></trkpt><trkpt lat="37.87786752882236" lon="14.023244638220797"><ele>1628.0</ele><time>2026-04-09T09:34:21.999Z</time></trkpt><trkpt lat="37.8778279069341" lon="14.023324255597862"><ele>1628.0000000000002</ele><time>2026-04-09T09:34:22.999Z</time></trkpt><trkpt lat="37.87777881659746" lon="14.023384623274058"><ele>1628.0</ele><time>2026-04-09T09:34:23.999Z</time></trkpt><trkpt lat="37.8777193100171" lon="14.023425181453637"><ele>1627.7142857142858</ele><time>2026-04-09T09:34:24.999Z</time></trkpt><trkpt lat="37.8776542350501" lon="14.023463211176018"><ele>1627.4285714285716</ele><time>2026-04-09T09:34:25.999Z</time></trkpt><trkpt lat="37.877592778653806" lon="14.023515495208434"><ele>1627.1428571428573</ele><time>2026-04-09T09:34:26.999Z</time></trkpt><trkpt lat="37.877537654825744" lon="14.023578289904846"><ele>1626.857142857143</ele><time>2026-04-09T09:34:27.999Z</time></trkpt><trkpt lat="37.87749470598393" lon="14.023648107493498"><ele>1626.5714285714284</ele><time>2026-04-09T09:34:28.999Z</time></trkpt><trkpt lat="37.87746202263262" lon="14.023728602803214"><ele>1626.2857142857144</ele><time>2026-04-09T09:34:29.999Z</time></trkpt><trkpt lat="37.87743654519817" lon="14.02381741702163"><ele>1626.0</ele><time>2026-04-09T09:34:30.999Z</time></trkpt><trkpt lat="37.87741500870283" lon="14.023911201537477"><ele>1623.8333333333333</ele><time>2026-04-09T09:34:31.999Z</time></trkpt><trkpt lat="37.87739186047591" lon="14.024009423771215"><ele>1621.6666666666665</ele><time>2026-04-09T09:34:32.999Z</time></trkpt><trkpt lat="37.8773658983587" lon="14.024111561067315"><ele>1619.5</ele><time>2026-04-09T09:34:33.999Z</time></trkpt><trkpt lat="37.877340232617264" lon="14.024225157751081"><ele>1617.3333333333333</ele><time>2026-04-09T09:34:34.999Z</time></trkpt><trkpt lat="37.8773168677695" lon="14.024345470568045"><ele>1615.1666666666665</ele><time>2026-04-09T09:34:35.999Z</time></trkpt><trkpt lat="37.87730498192886" lon="14.024447219084973"><ele>1613.0</ele><time>2026-04-09T09:34:36.999Z</time></trkpt><trkpt lat="37.87730759315888" lon="14.024547303662542"><ele>1612.9999999999998</ele><time>2026-04-09T09:34:37.999Z</time></trkpt><trkpt lat="37.87732273379269" lon="14.024656327748684"><ele>1613.0</ele><time>2026-04-09T09:34:38.999Z</time></trkpt><trkpt lat="37.87735271213169" lon="14.024767916500918"><ele>1613.0</ele><time>2026-04-09T09:34:39.999Z</time></trkpt><trkpt lat="37.87738286655261" lon="14.024867822725096"><ele>1613.0</ele><time>2026-04-09T09:34:40.999Z</time></trkpt><trkpt lat="37.87740283416406" lon="14.024948983171875"><ele>1612.9999999999998</ele><time>2026-04-09T09:34:41.999Z</time></trkpt><trkpt lat="37.877393167050194" lon="14.025086926120483"><ele>1613.0</ele><time>2026-04-09T09:34:43.999Z</time></trkpt><trkpt lat="37.8773308875145" lon="14.025223971792805"><ele>1613.4285714285713</ele><time>2026-04-09T09:34:45.999Z</time></trkpt><trkpt lat="37.87728031811327" lon="14.025281038666686"><ele>1613.857142857143</ele><time>2026-04-09T09:34:46.999Z</time></trkpt><trkpt lat="37.87721727678049" lon="14.02532366308093"><ele>1614.2857142857142</ele><time>2026-04-09T09:34:47.999Z</time></trkpt><trkpt lat="37.877152550033365" lon="14.02536698559827"><ele>1614.7142857142858</ele><time>2026-04-09T09:34:48.999Z</time></trkpt><trkpt lat="37.877093621265026" lon="14.025420942516703"><ele>1615.142857142857</ele><time>2026-04-09T09:34:49.999Z</time></trkpt><trkpt lat="37.877045002393075" lon="14.025486198217653"><ele>1615.5714285714284</ele><time>2026-04-09T09:34:50.999Z</time></trkpt><trkpt lat="37.87701186001451" lon="14.025563259709628"><ele>1616.0</ele><time>2026-04-09T09:34:51.999Z</time></trkpt><trkpt lat="37.87699172361153" lon="14.025652621461845"><ele>1615.9999999999998</ele><time>2026-04-09T09:34:52.999Z</time></trkpt><trkpt lat="37.87698891682729" lon="14.025747504825263"><ele>1616.0</ele><time>2026-04-09T09:34:53.999Z</time></trkpt><trkpt lat="37.87699888977488" lon="14.025843595688752"><ele>1616.0</ele><time>2026-04-09T09:34:54.999Z</time></trkpt><trkpt lat="37.877015556305" lon="14.025942810911838"><ele>1616.0</ele><time>2026-04-09T09:34:55.999Z</time></trkpt><trkpt lat="37.87704952165217" lon="14.026032908553619"><ele>1615.9999999999998</ele><time>2026-04-09T09:34:56.999Z</time></trkpt><trkpt lat="37.87709885085852" lon="14.026101940646477"><ele>1616.0</ele><time>2026-04-09T09:34:57.999Z</time></trkpt><trkpt lat="37.877155621917005" lon="14.026160229427706"><ele>1616.6</ele><time>2026-04-09T09:34:58.999Z</time></trkpt><trkpt lat="37.877215567855785" lon="14.026225288024383"><ele>1617.1999999999998</ele><time>2026-04-09T09:34:59.999Z</time></trkpt><trkpt lat="37.87727472837923" lon="14.02635824106463"><ele>1617.8000000000002</ele><time>2026-04-09T09:35:01.999Z</time></trkpt><trkpt lat="37.877282692509986" lon="14.026493000068202"><ele>1618.4</ele><time>2026-04-09T09:35:03.999Z</time></trkpt><trkpt lat="37.8772278282745" lon="14.026586069233023"><ele>1619.0</ele><time>2026-04-09T09:35:05.999Z</time></trkpt><trkpt lat="37.877171074102804" lon="14.026623657741135"><ele>1618.4</ele><time>2026-04-09T09:35:07.999Z</time></trkpt><trkpt lat="37.87711243747302" lon="14.026661528874719"><ele>1617.8000000000002</ele><time>2026-04-09T09:35:55.999Z</time></trkpt><trkpt lat="37.876999604639465" lon="14.026724260326109"><ele>1617.1999999999998</ele><time>2026-04-09T09:35:57.999Z</time></trkpt><trkpt lat="37.87692486296198" lon="14.026755139379878"><ele>1616.6</ele><time>2026-04-09T09:35:58.999Z</time></trkpt><trkpt lat="37.876829779450034" lon="14.026800278929747"><ele>1616.0</ele><time>2026-04-09T09:35:59.999Z</time></trkpt><trkpt lat="37.87671199097814" lon="14.026852594622097"><ele>1615.0</ele><time>2026-04-09T09:36:00.999Z</time></trkpt><trkpt lat="37.876595061050146" lon="14.026911965842558"><ele>1614.0</ele><time>2026-04-09T09:36:01.999Z</time></trkpt><trkpt lat="37.876453417409046" lon="14.02696199906245"><ele>1613.0</ele><time>2026-04-09T09:36:02.999Z</time></trkpt><trkpt lat="37.87632483656874" lon="14.027023396856649"><ele>1612.0</ele><time>2026-04-09T09:36:03.999Z</time></trkpt><trkpt lat="37.87619508550535" lon="14.02708535342751"><ele>1612.0</ele><time>2026-04-09T09:36:04.999Z</time></trkpt><trkpt lat="37.876067351971805" lon="14.02714634663019"><ele>1612.0</ele><time>2026-04-09T09:36:05.999Z</time></trkpt><trkpt lat="37.875948235689876" lon="14.027221856895201"><ele>1612.0</ele><time>2026-04-09T09:36:06.999Z</time></trkpt><trkpt lat="37.87583081693264" lon="14.02726916056998"><ele>1612.0</ele><time>2026-04-09T09:36:07.999Z</time></trkpt><trkpt lat="37.875719688349236" lon="14.027315864575897"><ele>1610.8</ele><time>2026-04-09T09:36:08.999Z</time></trkpt><trkpt lat="37.87560919732488" lon="14.02736656093181"><ele>1609.6</ele><time>2026-04-09T09:36:09.999Z</time></trkpt><trkpt lat="37.87550261698167" lon="14.027415914658347"><ele>1608.3999999999999</ele><time>2026-04-09T09:36:10.999Z</time></trkpt><trkpt lat="37.87540149205285" lon="14.027462177558318"><ele>1607.1999999999998</ele><time>2026-04-09T09:36:11.999Z</time></trkpt><trkpt lat="37.87531555545778" lon="14.02750337230367"><ele>1606.0</ele><time>2026-04-09T09:36:12.999Z</time></trkpt><trkpt lat="37.87523686646643" lon="14.027542465034708"><ele>1609.0000000000002</ele><time>2026-04-09T09:36:13.999Z</time></trkpt><trkpt lat="37.8751600575986" lon="14.027583130593698"><ele>1612.0</ele><time>2026-04-09T09:36:14.999Z</time></trkpt><trkpt lat="37.87508322981634" lon="14.027624245139629"><ele>1615.0</ele><time>2026-04-09T09:36:15.999Z</time></trkpt><trkpt lat="37.87500677900685" lon="14.027663712502134"><ele>1618.0</ele><time>2026-04-09T09:36:16.999Z</time></trkpt><trkpt lat="37.87493440050739" lon="14.027700259750155"><ele>1621.0000000000002</ele><time>2026-04-09T09:36:17.999Z</time></trkpt><trkpt lat="37.87482609610027" lon="14.027745773687682"><ele>1624.0</ele><time>2026-04-09T09:36:19.999Z</time></trkpt><trkpt lat="37.874745151562955" lon="14.027786968662332"><ele>1624.2</ele><time>2026-04-09T09:36:21.999Z</time></trkpt><trkpt lat="37.87467964711054" lon="14.027830943549452"><ele>1624.4</ele><time>2026-04-09T09:36:23.999Z</time></trkpt><trkpt lat="37.874601258569164" lon="14.0278896335904"><ele>1624.6</ele><time>2026-04-09T09:36:37.999Z</time></trkpt><trkpt lat="37.874521510157976" lon="14.027967469751784"><ele>1624.8</ele><time>2026-04-09T09:36:39.999Z</time></trkpt><trkpt lat="37.874430048794125" lon="14.028058728893372"><ele>1625.0</ele><time>2026-04-09T09:36:41.999Z</time></trkpt><trkpt lat="37.874332342870325" lon="14.028146520312793"><ele>1625.6</ele><time>2026-04-09T09:36:43.999Z</time></trkpt><trkpt lat="37.874226328233256" lon="14.028231856073647"><ele>1626.2</ele><time>2026-04-09T09:36:45.999Z</time></trkpt><trkpt lat="37.87413142523454" lon="14.028292981297184"><ele>1626.8000000000002</ele><time>2026-04-09T09:36:47.999Z</time></trkpt><trkpt lat="37.874060435680974" lon="14.028335100368409"><ele>1627.4</ele><time>2026-04-09T09:36:49.999Z</time></trkpt><trkpt lat="37.87399834380866" lon="14.028373307320395"><ele>1628.0</ele><time>2026-04-09T09:36:51.999Z</time></trkpt><trkpt lat="37.87393176473637" lon="14.028428387738511"><ele>1628.0</ele><time>2026-04-09T09:36:53.999Z</time></trkpt><trkpt lat="37.87386315540179" lon="14.028452532388973"><ele>1628.0</ele><time>2026-04-09T09:36:55.999Z</time></trkpt><trkpt lat="37.87395143779834" lon="14.028801581404458"><ele>1628.0</ele><time>2026-04-09T09:37:00.999Z</time></trkpt><trkpt lat="37.87400528154141" lon="14.028863397694876"><ele>1628.0</ele><time>2026-04-09T09:37:02.999Z</time></trkpt><trkpt lat="37.87407985539897" lon="14.0288719007402"><ele>1628.0000000000002</ele><time>2026-04-09T09:37:04.999Z</time></trkpt><trkpt lat="37.87412645318614" lon="14.02880596212467"><ele>1628.0</ele><time>2026-04-09T09:37:06.999Z</time></trkpt><trkpt lat="37.874117714417984" lon="14.02872239070233"><ele>1628.0</ele><time>2026-04-09T09:37:18.999Z</time></trkpt><trkpt lat="37.87417555910729" lon="14.028761466077855"><ele>1628.0</ele><time>2026-04-09T09:37:24.999Z</time></trkpt><trkpt lat="37.874120964735056" lon="14.028837329945258"><ele>1628.0</ele><time>2026-04-09T09:37:42.999Z</time></trkpt><trkpt lat="37.87404726110884" lon="14.02881752023807"><ele>1628.0000000000002</ele><time>2026-04-09T09:37:46.999Z</time></trkpt><trkpt lat="37.87400410352734" lon="14.028747550225006"><ele>1628.0</ele><time>2026-04-09T09:38:21.999Z</time></trkpt><trkpt lat="37.87396701309833" lon="14.028654207950522"><ele>1627.9999999999998</ele><time>2026-04-09T09:38:24.999Z</time></trkpt><trkpt lat="37.87391612996121" lon="14.028598975919854"><ele>1628.0</ele><time>2026-04-09T09:38:43.999Z</time></trkpt><trkpt lat="37.873870329789014" lon="14.028543625732233"><ele>1628.0</ele><time>2026-04-09T09:38:49.999Z</time></trkpt><trkpt lat="37.8737494630815" lon="14.028564348515301"><ele>1628.0</ele><time>2026-04-09T09:38:51.999Z</time></trkpt><trkpt lat="37.873669644929485" lon="14.028569018449838"><ele>1627.9999999999998</ele><time>2026-04-09T09:38:52.999Z</time></trkpt><trkpt lat="37.873593643525815" lon="14.028614768445085"><ele>1628.0</ele><time>2026-04-09T09:38:53.999Z</time></trkpt><trkpt lat="37.8735128312771" lon="14.02866341439672"><ele>1629.8000000000002</ele><time>2026-04-09T09:38:54.999Z</time></trkpt><trkpt lat="37.87343098765232" lon="14.028712681205395"><ele>1631.6</ele><time>2026-04-09T09:38:55.999Z</time></trkpt><trkpt lat="37.87334751327531" lon="14.028762929642056"><ele>1633.4</ele><time>2026-04-09T09:38:56.999Z</time></trkpt><trkpt lat="37.873256982552306" lon="14.028817425750805"><ele>1635.1999999999998</ele><time>2026-04-09T09:38:57.999Z</time></trkpt><trkpt lat="37.87315741432329" lon="14.028877362093539"><ele>1637.0</ele><time>2026-04-09T09:38:58.999Z</time></trkpt><trkpt lat="37.873056530454534" lon="14.0289380904025"><ele>1637.0</ele><time>2026-04-09T09:38:59.999Z</time></trkpt><trkpt lat="37.872949367836036" lon="14.029005002225437"><ele>1637.0</ele><time>2026-04-09T09:39:00.999Z</time></trkpt><trkpt lat="37.87283977150546" lon="14.029071589659436"><ele>1637.0</ele><time>2026-04-09T09:39:01.999Z</time></trkpt><trkpt lat="37.872731537478565" lon="14.029127169604132"><ele>1637.0</ele><time>2026-04-09T09:39:02.999Z</time></trkpt><trkpt lat="37.87261732216587" lon="14.029174274341525"><ele>1629.25</ele><time>2026-04-09T09:39:03.999Z</time></trkpt><trkpt lat="37.872497629415086" lon="14.029215989419884"><ele>1621.5</ele><time>2026-04-09T09:39:04.999Z</time></trkpt><trkpt lat="37.8723767575226" lon="14.029252689206917"><ele>1613.75</ele><time>2026-04-09T09:39:05.999Z</time></trkpt><trkpt lat="37.87225694984547" lon="14.02929850288529"><ele>1606.0</ele><time>2026-04-09T09:39:06.999Z</time></trkpt><trkpt lat="37.872135236744136" lon="14.02931292203414"><ele>1606.0</ele><time>2026-04-09T09:39:07.999Z</time></trkpt><trkpt lat="37.87201416021597" lon="14.029322480262122"><ele>1606.0</ele><time>2026-04-09T09:39:08.999Z</time></trkpt><trkpt lat="37.87189698884682" lon="14.029327985844965"><ele>1606.0</ele><time>2026-04-09T09:39:09.999Z</time></trkpt><trkpt lat="37.87178248737991" lon="14.029334404529948"><ele>1606.0</ele><time>2026-04-09T09:39:11Z</time></trkpt><trkpt lat="37.87166610711763" lon="14.029345036378754"><ele>1606.25</ele><time>2026-04-09T09:39:12Z</time></trkpt><trkpt lat="37.87155044492497" lon="14.029355938015645"><ele>1606.5</ele><time>2026-04-09T09:39:13Z</time></trkpt><trkpt lat="37.871436434810235" lon="14.029367904724355"><ele>1606.75</ele><time>2026-04-09T09:39:14Z</time></trkpt><trkpt lat="37.871323098931995" lon="14.029386972878294"><ele>1607.0</ele><time>2026-04-09T09:39:15Z</time></trkpt><trkpt lat="37.87121202319897" lon="14.02941246615027"><ele>1607.0</ele><time>2026-04-09T09:39:16Z</time></trkpt><trkpt lat="37.871100076172056" lon="14.029448044850161"><ele>1607.0</ele><time>2026-04-09T09:39:17Z</time></trkpt><trkpt lat="37.87099158317758" lon="14.0294916398597"><ele>1607.0</ele><time>2026-04-09T09:39:18Z</time></trkpt><trkpt lat="37.87087181774593" lon="14.029526458992347"><ele>1607.0</ele><time>2026-04-09T09:39:19Z</time></trkpt><trkpt lat="37.87076319513003" lon="14.029604827319094"><ele>1607.3999999999999</ele><time>2026-04-09T09:39:20Z</time></trkpt><trkpt lat="37.870656102795586" lon="14.029668747811249"><ele>1607.8</ele><time>2026-04-09T09:39:21Z</time></trkpt><trkpt lat="37.870557205783044" lon="14.029745241311181"><ele>1608.2</ele><time>2026-04-09T09:39:22Z</time></trkpt><trkpt lat="37.87045763717556" lon="14.029812137251"><ele>1608.6</ele><time>2026-04-09T09:39:23Z</time></trkpt><trkpt lat="37.870378252905645" lon="14.029879506969086"><ele>1609.0</ele><time>2026-04-09T09:39:24Z</time></trkpt><trkpt lat="37.870305520132305" lon="14.029941231871922"><ele>1604.6</ele><time>2026-04-09T09:39:25Z</time></trkpt><trkpt lat="37.87023127076498" lon="14.030002355889922"><ele>1600.2</ele><time>2026-04-09T09:39:26Z</time></trkpt><trkpt lat="37.87015987349493" lon="14.030080791643808"><ele>1595.8</ele><time>2026-04-09T09:39:27Z</time></trkpt><trkpt lat="37.87007417996021" lon="14.030116892205072"><ele>1591.3999999999999</ele><time>2026-04-09T09:39:28Z</time></trkpt><trkpt lat="37.8699829934724" lon="14.030124534039384"><ele>1587.0</ele><time>2026-04-09T09:39:29Z</time></trkpt><trkpt lat="37.8698729180149" lon="14.03013660853615"><ele>1587.0</ele><time>2026-04-09T09:39:30Z</time></trkpt><trkpt lat="37.86975004333943" lon="14.030107358092819"><ele>1587.0</ele><time>2026-04-09T09:39:31Z</time></trkpt><trkpt lat="37.86962087419591" lon="14.030051974548096"><ele>1587.0</ele><time>2026-04-09T09:39:32Z</time></trkpt><trkpt lat="37.86951379477747" lon="14.029983529732302"><ele>1587.0</ele><time>2026-04-09T09:39:33Z</time></trkpt><trkpt lat="37.86939715486564" lon="14.029976000565682"><ele>1587.0</ele><time>2026-04-09T09:39:34Z</time></trkpt><trkpt lat="37.86928686426994" lon="14.029959735761814"><ele>1587.0</ele><time>2026-04-09T09:39:35Z</time></trkpt><trkpt lat="37.86930337724959" lon="14.030053894796723"><ele>1587.0</ele><time>2026-04-09T09:39:36Z</time></trkpt><trkpt lat="37.86921441479678" lon="14.030045036989877"><ele>1587.0</ele><time>2026-04-09T09:39:37Z</time></trkpt><trkpt lat="37.869140370596185" lon="14.030015855613186"><ele>1587.0</ele><time>2026-04-09T09:39:38Z</time></trkpt><trkpt lat="37.86906987734829" lon="14.030009253689583"><ele>1587.0</ele><time>2026-04-09T09:39:39Z</time></trkpt><trkpt lat="37.869002687965555" lon="14.030002961176647"><ele>1587.2857142857142</ele><time>2026-04-09T09:39:39.999Z</time></trkpt><trkpt lat="37.86893360772947" lon="14.030003047781117"><ele>1587.5714285714287</ele><time>2026-04-09T09:39:40.999Z</time></trkpt><trkpt lat="37.86886125677076" lon="14.030004206617914"><ele>1587.857142857143</ele><time>2026-04-09T09:39:41.999Z</time></trkpt><trkpt lat="37.86878799809704" lon="14.030010602506252"><ele>1588.142857142857</ele><time>2026-04-09T09:39:42.999Z</time></trkpt><trkpt lat="37.86871195041104" lon="14.030025180822447"><ele>1588.4285714285716</ele><time>2026-04-09T09:39:43.999Z</time></trkpt><trkpt lat="37.86863906685125" lon="14.030039271641535"><ele>1588.7142857142858</ele><time>2026-04-09T09:39:44.999Z</time></trkpt><trkpt lat="37.86856805139735" lon="14.03005738197075"><ele>1589.0</ele><time>2026-04-09T09:39:45.999Z</time></trkpt><trkpt lat="37.86850043701347" lon="14.030075385541913"><ele>1586.7142857142858</ele><time>2026-04-09T09:39:46.999Z</time></trkpt><trkpt lat="37.868439725863915" lon="14.030109914694723"><ele>1584.4285714285716</ele><time>2026-04-09T09:39:47.999Z</time></trkpt><trkpt lat="37.868373831349906" lon="14.030126917997945"><ele>1582.142857142857</ele><time>2026-04-09T09:39:48.999Z</time></trkpt><trkpt lat="37.868310689244204" lon="14.030148040192092"><ele>1579.857142857143</ele><time>2026-04-09T09:39:49.999Z</time></trkpt><trkpt lat="37.86824790123458" lon="14.03017455233862"><ele>1577.5714285714287</ele><time>2026-04-09T09:39:50.999Z</time></trkpt><trkpt lat="37.86818763109818" lon="14.03020804994144"><ele>1575.2857142857142</ele><time>2026-04-09T09:39:51.999Z</time></trkpt><trkpt lat="37.868128647874876" lon="14.030241969571547"><ele>1573.0</ele><time>2026-04-09T09:39:52.999Z</time></trkpt><trkpt lat="37.868034837445904" lon="14.030305077282087"><ele>1573.0</ele><time>2026-04-09T09:39:54.999Z</time></trkpt><trkpt lat="37.86794551105433" lon="14.030367752162068"><ele>1573.0</ele><time>2026-04-09T09:39:56.999Z</time></trkpt><trkpt lat="37.86786041407618" lon="14.030442194047097"><ele>1573.0</ele><time>2026-04-09T09:39:58.999Z</time></trkpt><trkpt lat="37.86778009296066" lon="14.030514256452102"><ele>1573.0</ele><time>2026-04-09T09:40:00.999Z</time></trkpt><trkpt lat="37.86769425542004" lon="14.030583274851233"><ele>1573.0</ele><time>2026-04-09T09:40:02.999Z</time></trkpt><trkpt lat="37.86761417455777" lon="14.030653641605415"><ele>1573.3333333333335</ele><time>2026-04-09T09:40:04.999Z</time></trkpt><trkpt lat="37.86753732867202" lon="14.030721403315265"><ele>1573.6666666666667</ele><time>2026-04-09T09:40:06.999Z</time></trkpt><trkpt lat="37.86747569683813" lon="14.03077461273882"><ele>1574.0</ele><time>2026-04-09T09:40:08.999Z</time></trkpt><trkpt lat="37.867417115565196" lon="14.030818650388474"><ele>1574.3333333333335</ele><time>2026-04-09T09:40:10.999Z</time></trkpt><trkpt lat="37.86736044641356" lon="14.030872075834884"><ele>1574.6666666666667</ele><time>2026-04-09T09:40:12.999Z</time></trkpt><trkpt lat="37.86728242510017" lon="14.030938972490242"><ele>1575.0</ele><time>2026-04-09T09:40:15.999Z</time></trkpt><trkpt lat="37.86722508354948" lon="14.030978931993534"><ele>1571.8333333333333</ele><time>2026-04-09T09:40:17.999Z</time></trkpt><trkpt lat="37.867167517802365" lon="14.03104801927213"><ele>1568.6666666666665</ele><time>2026-04-09T09:42:02.999Z</time></trkpt><trkpt lat="37.86710333035313" lon="14.031106279160264"><ele>1565.5</ele><time>2026-04-09T09:42:04.999Z</time></trkpt><trkpt lat="37.86702089862916" lon="14.031178439385107"><ele>1562.3333333333333</ele><time>2026-04-09T09:42:06.999Z</time></trkpt><trkpt lat="37.86692560802206" lon="14.031260253744387"><ele>1559.1666666666665</ele><time>2026-04-09T09:42:08.999Z</time></trkpt><trkpt lat="37.866873722972194" lon="14.031306774034961"><ele>1556.0</ele><time>2026-04-09T09:42:09.999Z</time></trkpt><trkpt lat="37.866819825649344" lon="14.031356392667398"><ele>1554.857142857143</ele><time>2026-04-09T09:42:10.999Z</time></trkpt><trkpt lat="37.86676302156469" lon="14.031406904118526"><ele>1553.7142857142856</ele><time>2026-04-09T09:42:11.999Z</time></trkpt><trkpt lat="37.86670408258059" lon="14.031459073086465"><ele>1552.5714285714284</ele><time>2026-04-09T09:42:12.999Z</time></trkpt><trkpt lat="37.86664289714653" lon="14.031512488029419"><ele>1551.4285714285716</ele><time>2026-04-09T09:42:13.999Z</time></trkpt><trkpt lat="37.866584283302515" lon="14.031561015086979"><ele>1550.2857142857142</ele><time>2026-04-09T09:42:14.999Z</time></trkpt><trkpt lat="37.866525968278495" lon="14.031607583080183"><ele>1549.142857142857</ele><time>2026-04-09T09:42:15.999Z</time></trkpt><trkpt lat="37.86647023828877" lon="14.03165434959658"><ele>1548.0</ele><time>2026-04-09T09:42:16.999Z</time></trkpt><trkpt lat="37.86641705049569" lon="14.031699976045447"><ele>1548.0</ele><time>2026-04-09T09:42:17.999Z</time></trkpt><trkpt lat="37.86631699711944" lon="14.031781726935925"><ele>1548.0</ele><time>2026-04-09T09:42:19.999Z</time></trkpt><trkpt lat="37.866235308249465" lon="14.03185713748581"><ele>1548.0</ele><time>2026-04-09T09:42:21.999Z</time></trkpt><trkpt lat="37.86614329712879" lon="14.031944418147754"><ele>1548.0</ele><time>2026-04-09T09:42:23.999Z</time></trkpt><trkpt lat="37.866048357942994" lon="14.032028414773817"><ele>1548.0</ele><time>2026-04-09T09:42:25.999Z</time></trkpt><trkpt lat="37.86595147995569" lon="14.032104756267051"><ele>1548.0</ele><time>2026-04-09T09:42:27.999Z</time></trkpt><trkpt lat="37.86584471622825" lon="14.032191864078705"><ele>1548.0</ele><time>2026-04-09T09:42:29.999Z</time></trkpt><trkpt lat="37.86578866570519" lon="14.03224274256228"><ele>1548.0</ele><time>2026-04-09T09:42:30.999Z</time></trkpt><trkpt lat="37.86573156475026" lon="14.032295692097886"><ele>1548.0</ele><time>2026-04-09T09:42:31.999Z</time></trkpt><trkpt lat="37.86567623234295" lon="14.032347280523004"><ele>1548.0</ele><time>2026-04-09T09:42:32.999Z</time></trkpt><trkpt lat="37.86561733923013" lon="14.032402296574496"><ele>1549.0</ele><time>2026-04-09T09:42:33.999Z</time></trkpt><trkpt lat="37.86555476985953" lon="14.032460172843027"><ele>1550.0</ele><time>2026-04-09T09:42:34.999Z</time></trkpt><trkpt lat="37.86548774382373" lon="14.032520333786985"><ele>1551.0</ele><time>2026-04-09T09:42:35.999Z</time></trkpt><trkpt lat="37.865416439786685" lon="14.03258065633461"><ele>1552.0</ele><time>2026-04-09T09:42:36.999Z</time></trkpt><trkpt lat="37.86534188989214" lon="14.032648896129873"><ele>1553.0</ele><time>2026-04-09T09:42:37.999Z</time></trkpt><trkpt lat="37.86524604435006" lon="14.03274513932423"><ele>1549.75</ele><time>2026-04-09T09:42:38.999Z</time></trkpt><trkpt lat="37.86513679668978" lon="14.032872299803373"><ele>1546.5</ele><time>2026-04-09T09:42:39.999Z</time></trkpt><trkpt lat="37.86503833244007" lon="14.033009432311964"><ele>1543.25</ele><time>2026-04-09T09:42:40.999Z</time></trkpt><trkpt lat="37.864966732791345" lon="14.033153206431127"><ele>1540.0</ele><time>2026-04-09T09:42:41.999Z</time></trkpt><trkpt lat="37.86491348871623" lon="14.03329530290263"><ele>1537.0</ele><time>2026-04-09T09:42:42.999Z</time></trkpt><trkpt lat="37.86486734695912" lon="14.033440037117646"><ele>1534.0</ele><time>2026-04-09T09:42:43.999Z</time></trkpt><trkpt lat="37.86482119870636" lon="14.033578290836015"><ele>1531.0</ele><time>2026-04-09T09:42:44.999Z</time></trkpt><trkpt lat="37.864783964085255" lon="14.0337224601891"><ele>1528.0</ele><time>2026-04-09T09:42:45.999Z</time></trkpt><trkpt lat="37.86475699135211" lon="14.033879312817065"><ele>1528.0</ele><time>2026-04-09T09:42:46.999Z</time></trkpt><trkpt lat="37.864737893601976" lon="14.034042009397982"><ele>1528.0</ele><time>2026-04-09T09:42:47.999Z</time></trkpt><trkpt lat="37.864728638133414" lon="14.03421367727302"><ele>1528.0</ele><time>2026-04-09T09:42:48.999Z</time></trkpt><trkpt lat="37.864725981560994" lon="14.034386421888899"><ele>1528.0</ele><time>2026-04-09T09:42:49.999Z</time></trkpt><trkpt lat="37.86473376277013" lon="14.034558662193989"><ele>1525.5</ele><time>2026-04-09T09:42:50.999Z</time></trkpt><trkpt lat="37.86475604404227" lon="14.03473505609068"><ele>1523.0</ele><time>2026-04-09T09:42:51.999Z</time></trkpt><trkpt lat="37.864782599458515" lon="14.034920958331439"><ele>1520.5</ele><time>2026-04-09T09:42:52.999Z</time></trkpt><trkpt lat="37.864806601224984" lon="14.035118809358135"><ele>1518.0</ele><time>2026-04-09T09:42:53.999Z</time></trkpt><trkpt lat="37.86482951676812" lon="14.035317806971332"><ele>1518.0</ele><time>2026-04-09T09:42:54.999Z</time></trkpt><trkpt lat="37.864854125808705" lon="14.035519148002153"><ele>1518.0</ele><time>2026-04-09T09:42:55.999Z</time></trkpt><trkpt lat="37.864881208029765" lon="14.035718060692938"><ele>1518.0</ele><time>2026-04-09T09:42:56.999Z</time></trkpt><trkpt lat="37.86490617431697" lon="14.035913630038621"><ele>1518.0</ele><time>2026-04-09T09:42:57.999Z</time></trkpt><trkpt lat="37.8649334545668" lon="14.036105065093558"><ele>1518.0</ele><time>2026-04-09T09:42:58.999Z</time></trkpt><trkpt lat="37.86495867879306" lon="14.03629119842248"><ele>1518.0</ele><time>2026-04-09T09:42:59.999Z</time></trkpt><trkpt lat="37.86498090602064" lon="14.036474930987504"><ele>1518.0</ele><time>2026-04-09T09:43:00.999Z</time></trkpt><trkpt lat="37.865003843016346" lon="14.036657181607586"><ele>1517.25</ele><time>2026-04-09T09:43:01.999Z</time></trkpt><trkpt lat="37.86503034436892" lon="14.036835238674495"><ele>1516.5</ele><time>2026-04-09T09:43:02.999Z</time></trkpt><trkpt lat="37.865056458062774" lon="14.037008099049677"><ele>1515.75</ele><time>2026-04-09T09:43:03.999Z</time></trkpt><trkpt lat="37.865083241392696" lon="14.037176232932744"><ele>1515.0</ele><time>2026-04-09T09:43:04.999Z</time></trkpt><trkpt lat="37.86510135517597" lon="14.037341757091792"><ele>1514.5</ele><time>2026-04-09T09:43:05.999Z</time></trkpt><trkpt lat="37.865091945814406" lon="14.037511136404596"><ele>1514.0</ele><time>2026-04-09T09:43:06.999Z</time></trkpt><trkpt lat="37.865064726472575" lon="14.037682121209448"><ele>1513.5</ele><time>2026-04-09T09:43:07.999Z</time></trkpt><trkpt lat="37.86501243151126" lon="14.037856629372065"><ele>1513.0</ele><time>2026-04-09T09:43:08.999Z</time></trkpt><trkpt lat="37.86494070539342" lon="14.038019422695875"><ele>1513.0</ele><time>2026-04-09T09:43:09.999Z</time></trkpt><trkpt lat="37.86485364599775" lon="14.038171842981534"><ele>1513.0</ele><time>2026-04-09T09:43:10.999Z</time></trkpt><trkpt lat="37.86477619159366" lon="14.038311979517289"><ele>1513.0</ele><time>2026-04-09T09:43:11.999Z</time></trkpt><trkpt lat="37.86471935451889" lon="14.03844029581549"><ele>1513.0</ele><time>2026-04-09T09:43:12.999Z</time></trkpt><trkpt lat="37.86468605146826" lon="14.038579778331938"><ele>1508.0</ele><time>2026-04-09T09:43:13.999Z</time></trkpt><trkpt lat="37.864676225121976" lon="14.038735328436683"><ele>1503.0</ele><time>2026-04-09T09:43:14.999Z</time></trkpt><trkpt lat="37.86469318299911" lon="14.038892313876671"><ele>1498.0</ele><time>2026-04-09T09:43:15.999Z</time></trkpt><trkpt lat="37.864732613236036" lon="14.03904690443316"><ele>1493.0</ele><time>2026-04-09T09:43:16.999Z</time></trkpt><trkpt lat="37.86478540129702" lon="14.039203008108974"><ele>1490.75</ele><time>2026-04-09T09:43:17.999Z</time></trkpt><trkpt lat="37.86485401737815" lon="14.03934093150856"><ele>1488.5</ele><time>2026-04-09T09:43:18.999Z</time></trkpt><trkpt lat="37.86493967871782" lon="14.03946943455023"><ele>1486.25</ele><time>2026-04-09T09:43:19.999Z</time></trkpt><trkpt lat="37.86504723669777" lon="14.03958392747601"><ele>1484.0</ele><time>2026-04-09T09:43:20.999Z</time></trkpt><trkpt lat="37.865187392954034" lon="14.039688126066357"><ele>1481.3333333333335</ele><time>2026-04-09T09:43:21.999Z</time></trkpt><trkpt lat="37.865341952058" lon="14.039799150936197"><ele>1478.6666666666667</ele><time>2026-04-09T09:43:22.999Z</time></trkpt><trkpt lat="37.865483742642525" lon="14.039908346740157"><ele>1476.0</ele><time>2026-04-09T09:43:23.999Z</time></trkpt><trkpt lat="37.86561544056844" lon="14.040009388677277"><ele>1476.0</ele><time>2026-04-09T09:43:24.999Z</time></trkpt><trkpt lat="37.86573845143174" lon="14.040102325548416"><ele>1476.0</ele><time>2026-04-09T09:43:25.999Z</time></trkpt><trkpt lat="37.86584772731648" lon="14.040204641255386"><ele>1476.0</ele><time>2026-04-09T09:43:26.999Z</time></trkpt><trkpt lat="37.86592386516425" lon="14.040356537958564"><ele>1476.0</ele><time>2026-04-09T09:43:27.999Z</time></trkpt><trkpt lat="37.86599850042169" lon="14.040530276452403"><ele>1465.6666666666667</ele><time>2026-04-09T09:43:28.999Z</time></trkpt><trkpt lat="37.8660724650947" lon="14.040750289397257"><ele>1455.3333333333335</ele><time>2026-04-09T09:43:29.999Z</time></trkpt><trkpt lat="37.86615097495834" lon="14.04098382237555"><ele>1445.0</ele><time>2026-04-09T09:43:30.999Z</time></trkpt><trkpt lat="37.8662538630793" lon="14.041202002005368"><ele>1445.0</ele><time>2026-04-09T09:43:31.999Z</time></trkpt><trkpt lat="37.866320820486465" lon="14.04141060362052"><ele>1445.0</ele><time>2026-04-09T09:43:32.999Z</time></trkpt><trkpt lat="37.86637124044605" lon="14.041590702813094"><ele>1445.0</ele><time>2026-04-09T09:43:33.999Z</time></trkpt><trkpt lat="37.8664016704607" lon="14.041764056776632"><ele>1446.75</ele><time>2026-04-09T09:43:34.999Z</time></trkpt><trkpt lat="37.86640698552496" lon="14.041930126530755"><ele>1448.5</ele><time>2026-04-09T09:43:35.999Z</time></trkpt><trkpt lat="37.86640154235165" lon="14.042095860268795"><ele>1450.25</ele><time>2026-04-09T09:43:36.999Z</time></trkpt><trkpt lat="37.8663863939395" lon="14.042254352239024"><ele>1452.0</ele><time>2026-04-09T09:43:37.999Z</time></trkpt><trkpt lat="37.86635331525958" lon="14.042410408936991"><ele>1451.0</ele><time>2026-04-09T09:43:38.999Z</time></trkpt><trkpt lat="37.86630416196621" lon="14.042554812211858"><ele>1450.0</ele><time>2026-04-09T09:43:39.999Z</time></trkpt><trkpt lat="37.866250403043196" lon="14.042693908300386"><ele>1449.0</ele><time>2026-04-09T09:43:40.999Z</time></trkpt><trkpt lat="37.866187191530614" lon="14.04281903672043"><ele>1448.0</ele><time>2026-04-09T09:43:41.999Z</time></trkpt><trkpt lat="37.866119372356515" lon="14.042944815563695"><ele>1448.0</ele><time>2026-04-09T09:43:42.999Z</time></trkpt><trkpt lat="37.86604222948412" lon="14.043072807531809"><ele>1448.0</ele><time>2026-04-09T09:43:43.999Z</time></trkpt><trkpt lat="37.86597486718981" lon="14.043204444984163"><ele>1448.0</ele><time>2026-04-09T09:43:44.999Z</time></trkpt><trkpt lat="37.8659009196724" lon="14.04333327634053"><ele>1448.0</ele><time>2026-04-09T09:43:45.999Z</time></trkpt><trkpt lat="37.86581844880597" lon="14.043454910568869"><ele>1450.25</ele><time>2026-04-09T09:43:46.999Z</time></trkpt><trkpt lat="37.865735630477374" lon="14.043564612064309"><ele>1452.5</ele><time>2026-04-09T09:43:47.999Z</time></trkpt><trkpt lat="37.86564684809847" lon="14.043672744288523"><ele>1454.75</ele><time>2026-04-09T09:43:48.999Z</time></trkpt><trkpt lat="37.865555656208464" lon="14.043773461788504"><ele>1457.0</ele><time>2026-04-09T09:43:49.999Z</time></trkpt><trkpt lat="37.86546576412689" lon="14.04386930485038"><ele>1457.0</ele><time>2026-04-09T09:43:50.999Z</time></trkpt><trkpt lat="37.86538001747296" lon="14.04396017065513"><ele>1457.0</ele><time>2026-04-09T09:43:51.999Z</time></trkpt><trkpt lat="37.86530456837369" lon="14.044047343006653"><ele>1457.0</ele><time>2026-04-09T09:43:52.999Z</time></trkpt><trkpt lat="37.865236758452575" lon="14.044130792109025"><ele>1457.0</ele><time>2026-04-09T09:43:53.999Z</time></trkpt><trkpt lat="37.86516230912931" lon="14.044217411890095"><ele>1457.0</ele><time>2026-04-09T09:43:54.999Z</time></trkpt><trkpt lat="37.86508553543134" lon="14.044307625238766"><ele>1456.5</ele><time>2026-04-09T09:43:55.999Z</time></trkpt><trkpt lat="37.86501183830007" lon="14.044400353984127"><ele>1456.0</ele><time>2026-04-09T09:43:56.999Z</time></trkpt><trkpt lat="37.864935863056296" lon="14.04449839184424"><ele>1455.5</ele><time>2026-04-09T09:43:57.999Z</time></trkpt><trkpt lat="37.864856512654384" lon="14.044606296777106"><ele>1455.0</ele><time>2026-04-09T09:43:58.999Z</time></trkpt><trkpt lat="37.86477707479263" lon="14.044722981554399"><ele>1455.0</ele><time>2026-04-09T09:43:59.999Z</time></trkpt><trkpt lat="37.864706042831884" lon="14.04484575945994"><ele>1455.0</ele><time>2026-04-09T09:44:00.999Z</time></trkpt><trkpt lat="37.86464261003772" lon="14.044978102223476"><ele>1455.0</ele><time>2026-04-09T09:44:01.999Z</time></trkpt><trkpt lat="37.86459061236079" lon="14.045123522893885"><ele>1455.0</ele><time>2026-04-09T09:44:02.999Z</time></trkpt><trkpt lat="37.864555181429004" lon="14.045268477207236"><ele>1452.2</ele><time>2026-04-09T09:44:03.999Z</time></trkpt><trkpt lat="37.86453410418984" lon="14.045410506949636"><ele>1449.4</ele><time>2026-04-09T09:44:04.999Z</time></trkpt><trkpt lat="37.86451798866561" lon="14.045548902676636"><ele>1446.6</ele><time>2026-04-09T09:44:05.999Z</time></trkpt><trkpt lat="37.86450552304169" lon="14.045682860162643"><ele>1443.8</ele><time>2026-04-09T09:44:06.999Z</time></trkpt><trkpt lat="37.86448858685858" lon="14.045810342235406"><ele>1441.0</ele><time>2026-04-09T09:44:07.999Z</time></trkpt><trkpt lat="37.86446180626564" lon="14.045920996761394"><ele>1442.6</ele><time>2026-04-09T09:44:08.999Z</time></trkpt><trkpt lat="37.86442864154206" lon="14.046008240261811"><ele>1444.1999999999998</ele><time>2026-04-09T09:44:09.999Z</time></trkpt><trkpt lat="37.864395833891386" lon="14.046094100244808"><ele>1445.8000000000002</ele><time>2026-04-09T09:44:10.999Z</time></trkpt><trkpt lat="37.86435108543529" lon="14.046216629244366"><ele>1447.4</ele><time>2026-04-09T09:44:11.999Z</time></trkpt><trkpt lat="37.864290937070976" lon="14.04636451972807"><ele>1449.0</ele><time>2026-04-09T09:44:12.999Z</time></trkpt><trkpt lat="37.86420096506823" lon="14.046530027658491"><ele>1442.3333333333333</ele><time>2026-04-09T09:44:13.999Z</time></trkpt><trkpt lat="37.864074020939256" lon="14.046712838716488"><ele>1435.6666666666665</ele><time>2026-04-09T09:44:14.999Z</time></trkpt><trkpt lat="37.863936101334865" lon="14.046897698782"><ele>1429.0</ele><time>2026-04-09T09:44:15.999Z</time></trkpt><trkpt lat="37.86379184408127" lon="14.047058579176642"><ele>1429.0</ele><time>2026-04-09T09:44:16.999Z</time></trkpt><trkpt lat="37.86363588417041" lon="14.04719851742307"><ele>1429.0</ele><time>2026-04-09T09:44:17.999Z</time></trkpt><trkpt lat="37.863477856193406" lon="14.04731144279685"><ele>1429.0</ele><time>2026-04-09T09:44:18.999Z</time></trkpt><trkpt lat="37.863324921974275" lon="14.04741678477737"><ele>1427.0</ele><time>2026-04-09T09:44:19.999Z</time></trkpt><trkpt lat="37.863185899356836" lon="14.047507929393506"><ele>1425.0</ele><time>2026-04-09T09:44:20.999Z</time></trkpt><trkpt lat="37.86305502494885" lon="14.04757497422556"><ele>1423.0</ele><time>2026-04-09T09:44:21.999Z</time></trkpt><trkpt lat="37.862911907234675" lon="14.047627155212696"><ele>1421.0</ele><time>2026-04-09T09:44:22.999Z</time></trkpt><trkpt lat="37.86273162769365" lon="14.047670810732088"><ele>1422.0</ele><time>2026-04-09T09:44:23.999Z</time></trkpt><trkpt lat="37.86253121102301" lon="14.047701119951736"><ele>1423.0</ele><time>2026-04-09T09:44:24.999Z</time></trkpt><trkpt lat="37.86233716108106" lon="14.04772824116077"><ele>1424.0</ele><time>2026-04-09T09:44:25.999Z</time></trkpt><trkpt lat="37.862143890990765" lon="14.047760785915314"><ele>1424.0</ele><time>2026-04-09T09:44:26.999Z</time></trkpt><trkpt lat="37.86193127668387" lon="14.047808755166884"><ele>1424.0</ele><time>2026-04-09T09:44:27.999Z</time></trkpt><trkpt lat="37.86170623003399" lon="14.047869557482239"><ele>1424.0</ele><time>2026-04-09T09:44:28.999Z</time></trkpt><trkpt lat="37.86149773498978" lon="14.047932880311901"><ele>1425.6666666666667</ele><time>2026-04-09T09:44:29.999Z</time></trkpt><trkpt lat="37.86129258494912" lon="14.047990433882003"><ele>1427.3333333333333</ele><time>2026-04-09T09:44:30.999Z</time></trkpt><trkpt lat="37.86107269927732" lon="14.04804164909848"><ele>1429.0</ele><time>2026-04-09T09:44:31.999Z</time></trkpt><trkpt lat="37.860868877615495" lon="14.048079458782256"><ele>1429.0</ele><time>2026-04-09T09:44:32.999Z</time></trkpt><trkpt lat="37.86067954495869" lon="14.048120433170297"><ele>1429.0</ele><time>2026-04-09T09:44:33.999Z</time></trkpt><trkpt lat="37.86049386529844" lon="14.048173612938925"><ele>1429.0</ele><time>2026-04-09T09:44:34.999Z</time></trkpt><trkpt lat="37.86030510067432" lon="14.048254018077845"><ele>1422.6666666666665</ele><time>2026-04-09T09:44:35.999Z</time></trkpt><trkpt lat="37.860132741303694" lon="14.048366870906944"><ele>1416.3333333333333</ele><time>2026-04-09T09:44:36.999Z</time></trkpt><trkpt lat="37.85997880876441" lon="14.0484952228772"><ele>1410.0</ele><time>2026-04-09T09:44:37.999Z</time></trkpt><trkpt lat="37.85984589246823" lon="14.048642153373734"><ele>1410.0</ele><time>2026-04-09T09:44:38.999Z</time></trkpt><trkpt lat="37.859727695120334" lon="14.048794533833544"><ele>1410.0</ele><time>2026-04-09T09:44:39.999Z</time></trkpt><trkpt lat="37.85960591056453" lon="14.048938263070557"><ele>1410.0</ele><time>2026-04-09T09:44:40.999Z</time></trkpt><trkpt lat="37.85946600231271" lon="14.049072873197552"><ele>1406.0</ele><time>2026-04-09T09:44:41.999Z</time></trkpt><trkpt lat="37.85931428984753" lon="14.049189158672176"><ele>1402.0</ele><time>2026-04-09T09:44:42.999Z</time></trkpt><trkpt lat="37.85914514311959" lon="14.049286026260686"><ele>1398.0</ele><time>2026-04-09T09:44:43.999Z</time></trkpt><trkpt lat="37.858951060181745" lon="14.049364662051689"><ele>1398.0</ele><time>2026-04-09T09:44:44.999Z</time></trkpt><trkpt lat="37.85876550857771" lon="14.049424530461884"><ele>1398.0</ele><time>2026-04-09T09:44:45.999Z</time></trkpt><trkpt lat="37.85859781027112" lon="14.04946914254545"><ele>1398.0</ele><time>2026-04-09T09:44:46.999Z</time></trkpt><trkpt lat="37.85844546419805" lon="14.049512018919511"><ele>1404.3333333333333</ele><time>2026-04-09T09:44:47.999Z</time></trkpt><trkpt lat="37.85830683479776" lon="14.04957816910883"><ele>1410.6666666666665</ele><time>2026-04-09T09:44:48.999Z</time></trkpt><trkpt lat="37.85817535585119" lon="14.049678270966245"><ele>1417.0</ele><time>2026-04-09T09:44:49.999Z</time></trkpt><trkpt lat="37.85806404478046" lon="14.049804254222792"><ele>1404.0</ele><time>2026-04-09T09:44:50.999Z</time></trkpt><trkpt lat="37.8579713098909" lon="14.049962770854368"><ele>1391.0</ele><time>2026-04-09T09:44:51.999Z</time></trkpt><trkpt lat="37.85789318758088" lon="14.05017100711516"><ele>1378.0</ele><time>2026-04-09T09:44:52.999Z</time></trkpt><trkpt lat="37.85781098184467" lon="14.050417466653789"><ele>1378.0</ele><time>2026-04-09T09:44:53.999Z</time></trkpt><trkpt lat="37.85773732767051" lon="14.050672673496127"><ele>1378.0</ele><time>2026-04-09T09:44:54.999Z</time></trkpt><trkpt lat="37.85766259013268" lon="14.050918543823173"><ele>1378.0</ele><time>2026-04-09T09:44:55.999Z</time></trkpt><trkpt lat="37.85758938036318" lon="14.051128712118127"><ele>1381.0</ele><time>2026-04-09T09:44:56.999Z</time></trkpt><trkpt lat="37.85751638624504" lon="14.051321524406465"><ele>1384.0</ele><time>2026-04-09T09:44:57.999Z</time></trkpt><trkpt lat="37.85743000588014" lon="14.051506774718087"><ele>1387.0</ele><time>2026-04-09T09:44:58.999Z</time></trkpt><trkpt lat="37.85732712773924" lon="14.051674523039264"><ele>1380.3333333333333</ele><time>2026-04-09T09:44:59.999Z</time></trkpt><trkpt lat="37.85720709195354" lon="14.051820889320059"><ele>1373.6666666666667</ele><time>2026-04-09T09:45:00.999Z</time></trkpt><trkpt lat="37.857074163644036" lon="14.051945891256693"><ele>1367.0</ele><time>2026-04-09T09:45:01.999Z</time></trkpt><trkpt lat="37.856925449265404" lon="14.052049758345234"><ele>1370.6666666666667</ele><time>2026-04-09T09:45:02.999Z</time></trkpt><trkpt lat="37.85676359904478" lon="14.05212770448453"><ele>1374.3333333333333</ele><time>2026-04-09T09:45:03.999Z</time></trkpt><trkpt lat="37.856599091262375" lon="14.052173219065386"><ele>1378.0</ele><time>2026-04-09T09:45:04.999Z</time></trkpt><trkpt lat="37.856410701408976" lon="14.052188344440113"><ele>1378.0</ele><time>2026-04-09T09:45:05.999Z</time></trkpt><trkpt lat="37.856208088065884" lon="14.052178986849375"><ele>1378.0</ele><time>2026-04-09T09:45:06.999Z</time></trkpt><trkpt lat="37.85601080589775" lon="14.052150810711519"><ele>1378.0</ele><time>2026-04-09T09:45:07.999Z</time></trkpt><trkpt lat="37.85584327600129" lon="14.052130751905432"><ele>1375.25</ele><time>2026-04-09T09:45:08.999Z</time></trkpt><trkpt lat="37.855690415535705" lon="14.052122173183683"><ele>1372.5</ele><time>2026-04-09T09:45:09.999Z</time></trkpt><trkpt lat="37.85554627255855" lon="14.052136302312057"><ele>1369.75</ele><time>2026-04-09T09:45:10.999Z</time></trkpt><trkpt lat="37.8553982472388" lon="14.052173981558196"><ele>1367.0</ele><time>2026-04-09T09:45:11.999Z</time></trkpt><trkpt lat="37.855237980482094" lon="14.052247263906327"><ele>1363.3333333333335</ele><time>2026-04-09T09:45:12.999Z</time></trkpt><trkpt lat="37.85507773964165" lon="14.052342613091934"><ele>1359.6666666666667</ele><time>2026-04-09T09:45:13.999Z</time></trkpt><trkpt lat="37.85494080566588" lon="14.052429787323987"><ele>1356.0</ele><time>2026-04-09T09:45:14.999Z</time></trkpt><trkpt lat="37.854830594954485" lon="14.052515077322443"><ele>1354.25</ele><time>2026-04-09T09:45:15.999Z</time></trkpt><trkpt lat="37.854730675409684" lon="14.052602955267874"><ele>1352.5</ele><time>2026-04-09T09:45:16.999Z</time></trkpt><trkpt lat="37.85464790524359" lon="14.052724945923663"><ele>1350.75</ele><time>2026-04-09T09:45:17.999Z</time></trkpt><trkpt lat="37.85458296822791" lon="14.052883754215367"><ele>1349.0</ele><time>2026-04-09T09:45:18.999Z</time></trkpt><trkpt lat="37.854516899818094" lon="14.053086023766367"><ele>1346.3333333333335</ele><time>2026-04-09T09:45:19.999Z</time></trkpt><trkpt lat="37.85443840217071" lon="14.05331270408358"><ele>1343.6666666666667</ele><time>2026-04-09T09:45:20.999Z</time></trkpt><trkpt lat="37.85434628810233" lon="14.05356385621608"><ele>1341.0</ele><time>2026-04-09T09:45:21.999Z</time></trkpt><trkpt lat="37.85425903571378" lon="14.053806626124274"><ele>1337.6666666666667</ele><time>2026-04-09T09:45:22.999Z</time></trkpt><trkpt lat="37.85417834472204" lon="14.05402246439675"><ele>1334.3333333333335</ele><time>2026-04-09T09:45:23.999Z</time></trkpt><trkpt lat="37.854105330052995" lon="14.054219236277644"><ele>1331.0</ele><time>2026-04-09T09:45:24.999Z</time></trkpt><trkpt lat="37.85403353200406" lon="14.054410138810546"><ele>1327.3333333333335</ele><time>2026-04-09T09:45:26Z</time></trkpt><trkpt lat="37.853963673750776" lon="14.054601159373352"><ele>1323.6666666666667</ele><time>2026-04-09T09:45:27Z</time></trkpt><trkpt lat="37.85390850897039" lon="14.054789152178792"><ele>1320.0</ele><time>2026-04-09T09:45:28Z</time></trkpt><trkpt lat="37.8538713925494" lon="14.054982594616986"><ele>1317.3333333333333</ele><time>2026-04-09T09:45:29Z</time></trkpt><trkpt lat="37.85385084378364" lon="14.055184300765006"><ele>1314.6666666666665</ele><time>2026-04-09T09:45:30Z</time></trkpt><trkpt lat="37.853843577453404" lon="14.055402702159824"><ele>1312.0</ele><time>2026-04-09T09:45:31Z</time></trkpt><trkpt lat="37.85385362988496" lon="14.055617381765481"><ele>1310.0</ele><time>2026-04-09T09:45:32Z</time></trkpt><trkpt lat="37.85387937668902" lon="14.055843410010494"><ele>1308.0</ele><time>2026-04-09T09:45:33Z</time></trkpt><trkpt lat="37.85392855383108" lon="14.056069990416722"><ele>1306.0</ele><time>2026-04-09T09:45:34Z</time></trkpt><trkpt lat="37.85399974867041" lon="14.056286498585422"><ele>1306.0</ele><time>2026-04-09T09:45:35Z</time></trkpt><trkpt lat="37.85408674352731" lon="14.056488206754686"><ele>1306.0</ele><time>2026-04-09T09:45:36Z</time></trkpt><trkpt lat="37.85419253515012" lon="14.056683845690856"><ele>1306.0</ele><time>2026-04-09T09:45:37Z</time></trkpt><trkpt lat="37.854325161031596" lon="14.056876042039853"><ele>1299.5</ele><time>2026-04-09T09:45:38Z</time></trkpt><trkpt lat="37.85448086377294" lon="14.05706579214047"><ele>1293.0</ele><time>2026-04-09T09:45:39Z</time></trkpt><trkpt lat="37.85466725615211" lon="14.057261601899938"><ele>1301.0</ele><time>2026-04-09T09:45:40Z</time></trkpt><trkpt lat="37.85486797384998" lon="14.057465542304417"><ele>1309.0</ele><time>2026-04-09T09:45:41Z</time></trkpt><trkpt lat="37.855071667553496" lon="14.05767904894502"><ele>1298.5</ele><time>2026-04-09T09:45:42Z</time></trkpt><trkpt lat="37.855269569639994" lon="14.057900066632715"><ele>1288.0</ele><time>2026-04-09T09:45:43Z</time></trkpt><trkpt lat="37.85545126052495" lon="14.058102416599297"><ele>1295.3333333333333</ele><time>2026-04-09T09:45:44Z</time></trkpt><trkpt lat="37.85562540358829" lon="14.058289639225245"><ele>1302.6666666666667</ele><time>2026-04-09T09:45:45Z</time></trkpt><trkpt lat="37.8557903729994" lon="14.058469923890438"><ele>1310.0</ele><time>2026-04-09T09:45:46Z</time></trkpt><trkpt lat="37.855954408035856" lon="14.058644717033163"><ele>1311.6666666666667</ele><time>2026-04-09T09:45:47Z</time></trkpt><trkpt lat="37.85611081627666" lon="14.0588079744177"><ele>1313.3333333333333</ele><time>2026-04-09T09:45:48Z</time></trkpt><trkpt lat="37.85625300807869" lon="14.058961292866151"><ele>1315.0</ele><time>2026-04-09T09:45:49Z</time></trkpt><trkpt lat="37.856388670235525" lon="14.059121307137069"><ele>1317.0</ele><time>2026-04-09T09:45:50Z</time></trkpt><trkpt lat="37.85651940464814" lon="14.059304790633002"><ele>1319.0</ele><time>2026-04-09T09:45:51Z</time></trkpt><trkpt lat="37.85664131813706" lon="14.059526541966326"><ele>1321.0</ele><time>2026-04-09T09:45:52Z</time></trkpt><trkpt lat="37.85673957998443" lon="14.059762218081437"><ele>1326.6666666666665</ele><time>2026-04-09T09:45:53Z</time></trkpt><trkpt lat="37.85681435660066" lon="14.059995827798904"><ele>1332.3333333333333</ele><time>2026-04-09T09:45:54Z</time></trkpt><trkpt lat="37.856863937444594" lon="14.0602592196984"><ele>1338.0</ele><time>2026-04-09T09:45:55Z</time></trkpt><trkpt lat="37.85689212075068" lon="14.060556466359932"><ele>1336.0</ele><time>2026-04-09T09:45:56Z</time></trkpt><trkpt lat="37.85691094975683" lon="14.06086074363388"><ele>1334.0</ele><time>2026-04-09T09:45:57Z</time></trkpt><trkpt lat="37.85692529593015" lon="14.061168704682192"><ele>1334.0</ele><time>2026-04-09T09:45:58Z</time></trkpt><trkpt lat="37.85694264821475" lon="14.061524184313196"><ele>1334.0</ele><time>2026-04-09T09:45:59Z</time></trkpt><trkpt lat="37.85695914855578" lon="14.061888274150292"><ele>1332.0</ele><time>2026-04-09T09:46:00Z</time></trkpt><trkpt lat="37.85697658858791" lon="14.062264711160799"><ele>1330.0</ele><time>2026-04-09T09:46:01Z</time></trkpt><trkpt lat="37.85699542813784" lon="14.062660989901596"><ele>1327.0</ele><time>2026-04-09T09:46:02Z</time></trkpt><trkpt lat="37.8570133266349" lon="14.063062843096638"><ele>1324.0</ele><time>2026-04-09T09:46:03Z</time></trkpt><trkpt lat="37.85703325240603" lon="14.063482689433904"><ele>1320.5</ele><time>2026-04-09T09:46:04Z</time></trkpt><trkpt lat="37.85705327378189" lon="14.0639166334645"><ele>1317.0</ele><time>2026-04-09T09:46:05Z</time></trkpt><trkpt lat="37.857071895755425" lon="14.06435419789742"><ele>1309.0</ele><time>2026-04-09T09:46:06Z</time></trkpt><trkpt lat="37.857089530414754" lon="14.064773428195958"><ele>1301.0</ele><time>2026-04-09T09:46:07Z</time></trkpt><trkpt lat="37.857103951893805" lon="14.065154796054495"><ele>1291.5</ele><time>2026-04-09T09:46:08Z</time></trkpt><trkpt lat="37.85711795712371" lon="14.06551746443002"><ele>1282.0</ele><time>2026-04-09T09:46:09Z</time></trkpt><trkpt lat="37.85713207273275" lon="14.065850004759444"><ele>1282.0</ele><time>2026-04-09T09:46:10Z</time></trkpt><trkpt lat="37.857145743393936" lon="14.066156030283107"><ele>1282.0</ele><time>2026-04-09T09:46:11Z</time></trkpt><trkpt lat="37.85716149975721" lon="14.066435430071344"><ele>1289.6666666666665</ele><time>2026-04-09T09:46:12Z</time></trkpt><trkpt lat="37.857182266164486" lon="14.066693247869386"><ele>1297.3333333333333</ele><time>2026-04-09T09:46:13Z</time></trkpt><trkpt lat="37.85722253833698" lon="14.066934463278939"><ele>1305.0</ele><time>2026-04-09T09:46:14Z</time></trkpt><trkpt lat="37.85728768130812" lon="14.067188753108463"><ele>1311.0</ele><time>2026-04-09T09:46:15Z</time></trkpt><trkpt lat="37.85737231996623" lon="14.067443809876512"><ele>1317.0</ele><time>2026-04-09T09:46:16Z</time></trkpt><trkpt lat="37.85747780490457" lon="14.067700172027216"><ele>1323.0</ele><time>2026-04-09T09:46:17Z</time></trkpt><trkpt lat="37.85759312932856" lon="14.067921539326091"><ele>1322.6666666666667</ele><time>2026-04-09T09:46:18Z</time></trkpt><trkpt lat="37.85771392866292" lon="14.068114301680845"><ele>1322.3333333333335</ele><time>2026-04-09T09:46:19Z</time></trkpt><trkpt lat="37.857843603613254" lon="14.06829975242571"><ele>1322.0</ele><time>2026-04-09T09:46:20Z</time></trkpt><trkpt lat="37.85799132437876" lon="14.06847564062724"><ele>1322.0</ele><time>2026-04-09T09:46:21Z</time></trkpt><trkpt lat="37.85815477283855" lon="14.06864140065208"><ele>1322.0</ele><time>2026-04-09T09:46:22Z</time></trkpt><trkpt lat="37.85833205488354" lon="14.068790207902124"><ele>1322.0</ele><time>2026-04-09T09:46:23Z</time></trkpt><trkpt lat="37.858531897042695" lon="14.068921449538033"><ele>1324.0</ele><time>2026-04-09T09:46:24Z</time></trkpt><trkpt lat="37.8587509530886" lon="14.069031329616369"><ele>1326.0</ele><time>2026-04-09T09:46:25Z</time></trkpt><trkpt lat="37.85895807651149" lon="14.069115065009763"><ele>1329.0</ele><time>2026-04-09T09:46:26Z</time></trkpt><trkpt lat="37.85914715584318" lon="14.0691768057667"><ele>1332.0</ele><time>2026-04-09T09:46:27Z</time></trkpt><trkpt lat="37.85932825613387" lon="14.06924299859857"><ele>1335.0</ele><time>2026-04-09T09:46:28Z</time></trkpt><trkpt lat="37.859493666827746" lon="14.069342786697364"><ele>1335.0</ele><time>2026-04-09T09:46:29Z</time></trkpt><trkpt lat="37.85963473227307" lon="14.069470915729344"><ele>1335.0</ele><time>2026-04-09T09:46:30Z</time></trkpt><trkpt lat="37.859765691689766" lon="14.069639860382424"><ele>1335.0</ele><time>2026-04-09T09:46:31Z</time></trkpt><trkpt lat="37.85990057995924" lon="14.06985286916452"><ele>1336.0</ele><time>2026-04-09T09:46:32Z</time></trkpt><trkpt lat="37.860028186697356" lon="14.070052123705853"><ele>1337.0</ele><time>2026-04-09T09:46:33Z</time></trkpt><trkpt lat="37.86013570136426" lon="14.07021978927383"><ele>1338.0</ele><time>2026-04-09T09:46:34Z</time></trkpt><trkpt lat="37.860233141156726" lon="14.070420679875904"><ele>1338.0</ele><time>2026-04-09T09:46:35Z</time></trkpt><trkpt lat="37.86030685221089" lon="14.070649999214938"><ele>1338.0</ele><time>2026-04-09T09:46:36Z</time></trkpt><trkpt lat="37.860373275044594" lon="14.070912987717202"><ele>1338.0</ele><time>2026-04-09T09:46:37Z</time></trkpt><trkpt lat="37.86043874892585" lon="14.071200066083529"><ele>1343.0</ele><time>2026-04-09T09:46:38Z</time></trkpt><trkpt lat="37.86049336204338" lon="14.071452386723259"><ele>1348.0</ele><time>2026-04-09T09:46:39Z</time></trkpt><trkpt lat="37.860551000770855" lon="14.071694287862892"><ele>1353.0</ele><time>2026-04-09T09:46:40Z</time></trkpt><trkpt lat="37.860601792891494" lon="14.07192993879617"><ele>1355.0</ele><time>2026-04-09T09:46:41Z</time></trkpt><trkpt lat="37.86064776427667" lon="14.072163574287591"><ele>1357.0</ele><time>2026-04-09T09:46:42Z</time></trkpt><trkpt lat="37.86069950734323" lon="14.072374846567406"><ele>1359.0</ele><time>2026-04-09T09:46:43Z</time></trkpt><trkpt lat="37.86076429675414" lon="14.072577670136493"><ele>1358.0</ele><time>2026-04-09T09:46:44Z</time></trkpt><trkpt lat="37.86083819472711" lon="14.072776193889736"><ele>1357.0</ele><time>2026-04-09T09:46:45Z</time></trkpt><trkpt lat="37.860939783298534" lon="14.072973293028735"><ele>1356.0</ele><time>2026-04-09T09:46:46Z</time></trkpt><trkpt lat="37.86107217194653" lon="14.073180932503288"><ele>1360.5</ele><time>2026-04-09T09:46:47Z</time></trkpt><trkpt lat="37.86123642316457" lon="14.073380096036695"><ele>1365.0</ele><time>2026-04-09T09:46:48Z</time></trkpt><trkpt lat="37.86142118158706" lon="14.073570891650599"><ele>1365.0</ele><time>2026-04-09T09:46:49Z</time></trkpt><trkpt lat="37.861623922879296" lon="14.073753113780858"><ele>1365.0</ele><time>2026-04-09T09:46:50Z</time></trkpt><trkpt lat="37.861813149434745" lon="14.073909871185764"><ele>1366.0</ele><time>2026-04-09T09:46:51Z</time></trkpt><trkpt lat="37.861981892901" lon="14.074039477402815"><ele>1367.0</ele><time>2026-04-09T09:46:52Z</time></trkpt><trkpt lat="37.862127309023506" lon="14.074159540199004"><ele>1368.0</ele><time>2026-04-09T09:46:53Z</time></trkpt><trkpt lat="37.8622439800938" lon="14.07428922419649"><ele>1371.6666666666667</ele><time>2026-04-09T09:46:54Z</time></trkpt><trkpt lat="37.862330019867564" lon="14.07443950265396"><ele>1375.3333333333335</ele><time>2026-04-09T09:46:55Z</time></trkpt><trkpt lat="37.862401738538026" lon="14.07463236753069"><ele>1379.0</ele><time>2026-04-09T09:46:56Z</time></trkpt><trkpt lat="37.86245606145434" lon="14.074848552737553"><ele>1381.3333333333335</ele><time>2026-04-09T09:46:57Z</time></trkpt><trkpt lat="37.862484976932656" lon="14.075091483951395"><ele>1383.6666666666667</ele><time>2026-04-09T09:46:58Z</time></trkpt><trkpt lat="37.86250322636501" lon="14.075358670565869"><ele>1386.0</ele><time>2026-04-09T09:46:59Z</time></trkpt><trkpt lat="37.86252184792533" lon="14.075656076984775"><ele>1388.5</ele><time>2026-04-09T09:47:00Z</time></trkpt><trkpt lat="37.86254239914874" lon="14.07595823337152"><ele>1391.0</ele><time>2026-04-09T09:47:01Z</time></trkpt><trkpt lat="37.86256573759803" lon="14.076261943238014"><ele>1391.0</ele><time>2026-04-09T09:47:02Z</time></trkpt><trkpt lat="37.86258486249851" lon="14.076536267943956"><ele>1391.0</ele><time>2026-04-09T09:47:03Z</time></trkpt><trkpt lat="37.86260354181086" lon="14.076790160687441"><ele>1391.0</ele><time>2026-04-09T09:47:04Z</time></trkpt><trkpt lat="37.86262272914188" lon="14.077029119569502"><ele>1391.0</ele><time>2026-04-09T09:47:05Z</time></trkpt><trkpt lat="37.862638904103825" lon="14.077253144725514"><ele>1391.0</ele><time>2026-04-09T09:47:06Z</time></trkpt><trkpt lat="37.86263021147282" lon="14.07746971342851"><ele>1391.0</ele><time>2026-04-09T09:47:07Z</time></trkpt><trkpt lat="37.862596002330875" lon="14.077680216048183"><ele>1391.0</ele><time>2026-04-09T09:47:08Z</time></trkpt><trkpt lat="37.86254135675681" lon="14.077878637506766"><ele>1391.0</ele><time>2026-04-09T09:47:09Z</time></trkpt><trkpt lat="37.8624642625405" lon="14.078082903855154"><ele>1391.0</ele><time>2026-04-09T09:47:10Z</time></trkpt><trkpt lat="37.86234179222409" lon="14.078301700609792"><ele>1386.3333333333335</ele><time>2026-04-09T09:47:11Z</time></trkpt><trkpt lat="37.862203743349305" lon="14.078510759594177"><ele>1381.6666666666667</ele><time>2026-04-09T09:47:12Z</time></trkpt><trkpt lat="37.862073871589764" lon="14.078689675033177"><ele>1377.0</ele><time>2026-04-09T09:47:13Z</time></trkpt><trkpt lat="37.86196064673498" lon="14.07885529749626"><ele>1377.0</ele><time>2026-04-09T09:47:14Z</time></trkpt><trkpt lat="37.861867765635395" lon="14.079035487065903"><ele>1377.0</ele><time>2026-04-09T09:47:15Z</time></trkpt><trkpt lat="37.86180675497263" lon="14.079252584608986"><ele>1377.0</ele><time>2026-04-09T09:47:16.001Z</time></trkpt><trkpt lat="37.861754049305745" lon="14.079471437842884"><ele>1379.0</ele><time>2026-04-09T09:47:17Z</time></trkpt><trkpt lat="37.86172202828749" lon="14.079683562434663"><ele>1381.0</ele><time>2026-04-09T09:47:18.001Z</time></trkpt><trkpt lat="37.86171327144508" lon="14.079897495737239"><ele>1383.0</ele><time>2026-04-09T09:47:19.001Z</time></trkpt><trkpt lat="37.86172304847204" lon="14.08011133701002"><ele>1376.3333333333333</ele><time>2026-04-09T09:47:20Z</time></trkpt><trkpt lat="37.861755337253705" lon="14.08033218552323"><ele>1369.6666666666665</ele><time>2026-04-09T09:47:21Z</time></trkpt><trkpt lat="37.861817789594205" lon="14.080558128309848"><ele>1363.0</ele><time>2026-04-09T09:47:22.001Z</time></trkpt><trkpt lat="37.86190563176779" lon="14.080786366328391"><ele>1352.0</ele><time>2026-04-09T09:47:23Z</time></trkpt><trkpt lat="37.862037630187146" lon="14.081028633444584"><ele>1341.0</ele><time>2026-04-09T09:47:24Z</time></trkpt><trkpt lat="37.86219816294025" lon="14.081274969521864"><ele>1341.0</ele><time>2026-04-09T09:47:25Z</time></trkpt><trkpt lat="37.862377546798854" lon="14.081541779199428"><ele>1341.0</ele><time>2026-04-09T09:47:26Z</time></trkpt><trkpt lat="37.86255976799306" lon="14.08181976112601"><ele>1334.5</ele><time>2026-04-09T09:47:27Z</time></trkpt><trkpt lat="37.8627442595189" lon="14.08209806888246"><ele>1328.0</ele><time>2026-04-09T09:47:28Z</time></trkpt><trkpt lat="37.862905078269435" lon="14.082341765178327"><ele>1333.5</ele><time>2026-04-09T09:47:29Z</time></trkpt><trkpt lat="37.86305970641296" lon="14.082576022158769"><ele>1339.0</ele><time>2026-04-09T09:47:30Z</time></trkpt><trkpt lat="37.86320977270692" lon="14.082809604691718"><ele>1339.0</ele><time>2026-04-09T09:47:31Z</time></trkpt><trkpt lat="37.8633479891239" lon="14.08303423403882"><ele>1339.0</ele><time>2026-04-09T09:47:32Z</time></trkpt><trkpt lat="37.863478441324574" lon="14.083238065013344"><ele>1339.0</ele><time>2026-04-09T09:47:33Z</time></trkpt><trkpt lat="37.863599846806146" lon="14.083419415717323"><ele>1334.6666666666665</ele><time>2026-04-09T09:47:34Z</time></trkpt><trkpt lat="37.86370613799934" lon="14.08358616205476"><ele>1330.3333333333333</ele><time>2026-04-09T09:47:35Z</time></trkpt><trkpt lat="37.863803816341324" lon="14.083761062821914"><ele>1326.0</ele><time>2026-04-09T09:47:36Z</time></trkpt><trkpt lat="37.863884910039765" lon="14.083959259322905"><ele>1327.6666666666667</ele><time>2026-04-09T09:47:37Z</time></trkpt><trkpt lat="37.86395568965384" lon="14.084200416672486"><ele>1329.3333333333335</ele><time>2026-04-09T09:47:38Z</time></trkpt><trkpt lat="37.864019157106924" lon="14.084467282373256"><ele>1331.0</ele><time>2026-04-09T09:47:39Z</time></trkpt><trkpt lat="37.864072740967494" lon="14.08472619126681"><ele>1330.6666666666667</ele><time>2026-04-09T09:47:40Z</time></trkpt><trkpt lat="37.86411933977592" lon="14.084936337694433"><ele>1330.3333333333333</ele><time>2026-04-09T09:47:41Z</time></trkpt><trkpt lat="37.86415934149723" lon="14.085111536781048"><ele>1330.0</ele><time>2026-04-09T09:47:42Z</time></trkpt><trkpt lat="37.864203387249084" lon="14.08528060958073"><ele>1330.0</ele><time>2026-04-09T09:47:43Z</time></trkpt><trkpt lat="37.864265485750714" lon="14.085469980299811"><ele>1330.0</ele><time>2026-04-09T09:47:44Z</time></trkpt><trkpt lat="37.864353072902205" lon="14.085671965897516"><ele>1330.0</ele><time>2026-04-09T09:47:45Z</time></trkpt><trkpt lat="37.8644743936471" lon="14.08588208044094"><ele>1321.6666666666665</ele><time>2026-04-09T09:47:46Z</time></trkpt><trkpt lat="37.86460714115127" lon="14.08606814415625"><ele>1313.3333333333333</ele><time>2026-04-09T09:47:47Z</time></trkpt><trkpt lat="37.86475153792057" lon="14.086230724602654"><ele>1305.0</ele><time>2026-04-09T09:47:48Z</time></trkpt><trkpt lat="37.864910454200334" lon="14.086372627201857"><ele>1305.0</ele><time>2026-04-09T09:47:49Z</time></trkpt><trkpt lat="37.86505633594634" lon="14.086477410240999"><ele>1305.0</ele><time>2026-04-09T09:47:50Z</time></trkpt><trkpt lat="37.865182409808014" lon="14.086583922667941"><ele>1305.0</ele><time>2026-04-09T09:47:51Z</time></trkpt><trkpt lat="37.865277587357696" lon="14.086718852471197"><ele>1302.3333333333333</ele><time>2026-04-09T09:47:52Z</time></trkpt><trkpt lat="37.865355824144224" lon="14.086874952861235"><ele>1299.6666666666665</ele><time>2026-04-09T09:47:53Z</time></trkpt><trkpt lat="37.86541483791716" lon="14.08706771940685"><ele>1297.0</ele><time>2026-04-09T09:47:54Z</time></trkpt><trkpt lat="37.865451237657496" lon="14.087277514077543"><ele>1299.0</ele><time>2026-04-09T09:47:55Z</time></trkpt><trkpt lat="37.865472055014" lon="14.087510382916866"><ele>1301.0</ele><time>2026-04-09T09:47:56Z</time></trkpt><trkpt lat="37.865475273730816" lon="14.087790141508508"><ele>1303.0</ele><time>2026-04-09T09:47:57Z</time></trkpt><trkpt lat="37.865464006858495" lon="14.08807496336731"><ele>1298.6666666666665</ele><time>2026-04-09T09:47:58Z</time></trkpt><trkpt lat="37.86544100724747" lon="14.088361611081064"><ele>1294.3333333333333</ele><time>2026-04-09T09:47:59Z</time></trkpt><trkpt lat="37.865425535751235" lon="14.088640402224822"><ele>1290.0</ele><time>2026-04-09T09:48:00Z</time></trkpt><trkpt lat="37.86540826392749" lon="14.088885375106544"><ele>1288.0</ele><time>2026-04-09T09:48:01Z</time></trkpt><trkpt lat="37.86539219727834" lon="14.089103826955844"><ele>1286.0</ele><time>2026-04-09T09:48:02Z</time></trkpt><trkpt lat="37.86538866002598" lon="14.08930919721221"><ele>1284.0</ele><time>2026-04-09T09:48:03Z</time></trkpt><trkpt lat="37.86541742176729" lon="14.089513307216595"><ele>1284.0</ele><time>2026-04-09T09:48:04Z</time></trkpt><trkpt lat="37.86548790240479" lon="14.089729379747759"><ele>1284.0</ele><time>2026-04-09T09:48:05Z</time></trkpt><trkpt lat="37.865589057442534" lon="14.089937941044608"><ele>1284.0</ele><time>2026-04-09T09:48:06Z</time></trkpt><trkpt lat="37.86573408245573" lon="14.090147834927258"><ele>1287.5</ele><time>2026-04-09T09:48:07Z</time></trkpt><trkpt lat="37.86589290789923" lon="14.090359278087458"><ele>1291.0</ele><time>2026-04-09T09:48:08Z</time></trkpt><trkpt lat="37.86604610942848" lon="14.09055845670078"><ele>1288.3333333333333</ele><time>2026-04-09T09:48:09Z</time></trkpt><trkpt lat="37.866185125662994" lon="14.09074822348083"><ele>1285.6666666666667</ele><time>2026-04-09T09:48:10Z</time></trkpt><trkpt lat="37.866313480476926" lon="14.09091088257847"><ele>1283.0</ele><time>2026-04-09T09:48:11Z</time></trkpt><trkpt lat="37.86644191861876" lon="14.091060558316043"><ele>1283.0</ele><time>2026-04-09T09:48:12Z</time></trkpt><trkpt lat="37.86659094924378" lon="14.091182780537537"><ele>1283.0</ele><time>2026-04-09T09:48:13Z</time></trkpt><trkpt lat="37.866779443398094" lon="14.091299550582667"><ele>1283.0</ele><time>2026-04-09T09:48:14Z</time></trkpt><trkpt lat="37.866970293654994" lon="14.091385280596166"><ele>1279.6666666666667</ele><time>2026-04-09T09:48:15Z</time></trkpt><trkpt lat="37.86713138405659" lon="14.09144193082561"><ele>1276.3333333333333</ele><time>2026-04-09T09:48:16Z</time></trkpt><trkpt lat="37.86726959401454" lon="14.09149862038624"><ele>1273.0</ele><time>2026-04-09T09:48:17Z</time></trkpt><trkpt lat="37.86740113775695" lon="14.091586943646544"><ele>1277.3333333333333</ele><time>2026-04-09T09:48:18Z</time></trkpt><trkpt lat="37.86752824392642" lon="14.091709062669306"><ele>1281.6666666666667</ele><time>2026-04-09T09:48:19Z</time></trkpt><trkpt lat="37.86763012008426" lon="14.091856512895403"><ele>1286.0</ele><time>2026-04-09T09:48:20Z</time></trkpt><trkpt lat="37.86770961883855" lon="14.092008899832852"><ele>1275.0</ele><time>2026-04-09T09:48:21Z</time></trkpt><trkpt lat="37.86776634005392" lon="14.09218889891652"><ele>1264.0</ele><time>2026-04-09T09:48:22Z</time></trkpt><trkpt lat="37.8677948130566" lon="14.092393448876406"><ele>1253.0</ele><time>2026-04-09T09:48:23Z</time></trkpt><trkpt lat="37.86780661528115" lon="14.092600739808544"><ele>1253.0</ele><time>2026-04-09T09:48:24Z</time></trkpt><trkpt lat="37.86779872683455" lon="14.092839414022075"><ele>1253.0</ele><time>2026-04-09T09:48:25Z</time></trkpt><trkpt lat="37.86777653245339" lon="14.093100524978883"><ele>1253.0</ele><time>2026-04-09T09:48:26Z</time></trkpt><trkpt lat="37.86776123313997" lon="14.093354183943154"><ele>1253.3333333333335</ele><time>2026-04-09T09:48:27Z</time></trkpt><trkpt lat="37.86774018175401" lon="14.093596242690156"><ele>1253.6666666666667</ele><time>2026-04-09T09:48:28Z</time></trkpt><trkpt lat="37.86773582277305" lon="14.093842273451871"><ele>1254.0</ele><time>2026-04-09T09:48:29Z</time></trkpt><trkpt lat="37.867758404033914" lon="14.094092033569636"><ele>1254.0</ele><time>2026-04-09T09:48:30Z</time></trkpt><trkpt lat="37.867794757897" lon="14.094304284102803"><ele>1254.0</ele><time>2026-04-09T09:48:31Z</time></trkpt><trkpt lat="37.86782376531005" lon="14.094486789451276"><ele>1254.0</ele><time>2026-04-09T09:48:32Z</time></trkpt><trkpt lat="37.86783360518665" lon="14.09467212307321"><ele>1254.0</ele><time>2026-04-09T09:48:33Z</time></trkpt><trkpt lat="37.867823053523566" lon="14.094862800286435"><ele>1254.0</ele><time>2026-04-09T09:48:34Z</time></trkpt><trkpt lat="37.86778957458894" lon="14.095052355560268"><ele>1254.0</ele><time>2026-04-09T09:48:35Z</time></trkpt><trkpt lat="37.867728872857164" lon="14.095245964386947"><ele>1254.3333333333333</ele><time>2026-04-09T09:48:36Z</time></trkpt><trkpt lat="37.86765611427404" lon="14.095430547524002"><ele>1254.6666666666665</ele><time>2026-04-09T09:48:37Z</time></trkpt><trkpt lat="37.86755122077914" lon="14.095606937292029"><ele>1255.0</ele><time>2026-04-09T09:48:38Z</time></trkpt><trkpt lat="37.86741045753352" lon="14.095801902942107"><ele>1256.6666666666665</ele><time>2026-04-09T09:48:39Z</time></trkpt><trkpt lat="37.86724889173457" lon="14.096008582213202"><ele>1258.3333333333333</ele><time>2026-04-09T09:48:40Z</time></trkpt><trkpt lat="37.86710002814298" lon="14.096203642853547"><ele>1260.0</ele><time>2026-04-09T09:48:41Z</time></trkpt><trkpt lat="37.86695979375159" lon="14.09640189542113"><ele>1259.3333333333333</ele><time>2026-04-09T09:48:42Z</time></trkpt><trkpt lat="37.86683279947441" lon="14.096632911779931"><ele>1258.6666666666665</ele><time>2026-04-09T09:48:43Z</time></trkpt><trkpt lat="37.8667341570415" lon="14.096866414220232"><ele>1258.0</ele><time>2026-04-09T09:48:44Z</time></trkpt><trkpt lat="37.866657012705886" lon="14.097084325242973"><ele>1258.0</ele><time>2026-04-09T09:48:45Z</time></trkpt><trkpt lat="37.86658146099778" lon="14.097273267675037"><ele>1258.0</ele><time>2026-04-09T09:48:46Z</time></trkpt><trkpt lat="37.86649251882519" lon="14.09744716801894"><ele>1258.0</ele><time>2026-04-09T09:48:47Z</time></trkpt><trkpt lat="37.86639087445268" lon="14.09760176401542"><ele>1253.0</ele><time>2026-04-09T09:48:48Z</time></trkpt><trkpt lat="37.86627800021239" lon="14.097729619761074"><ele>1248.0</ele><time>2026-04-09T09:48:49Z</time></trkpt><trkpt lat="37.86614456910091" lon="14.097836453607789"><ele>1243.0</ele><time>2026-04-09T09:48:50Z</time></trkpt><trkpt lat="37.86600495749593" lon="14.097924508709012"><ele>1248.0</ele><time>2026-04-09T09:48:51Z</time></trkpt><trkpt lat="37.865860092820384" lon="14.097972130705756"><ele>1253.0</ele><time>2026-04-09T09:48:52Z</time></trkpt><trkpt lat="37.865714145224835" lon="14.097996030164955"><ele>1258.0</ele><time>2026-04-09T09:48:53Z</time></trkpt><trkpt lat="37.865560070506724" lon="14.097994028791561"><ele>1258.0</ele><time>2026-04-09T09:48:54Z</time></trkpt><trkpt lat="37.86539019951041" lon="14.0979569286089"><ele>1258.0</ele><time>2026-04-09T09:48:55Z</time></trkpt><trkpt lat="37.86520813784769" lon="14.097893091821053"><ele>1258.0</ele><time>2026-04-09T09:48:56Z</time></trkpt><trkpt lat="37.86503564399815" lon="14.097837706192609"><ele>1254.0</ele><time>2026-04-09T09:48:57Z</time></trkpt><trkpt lat="37.86487038968187" lon="14.097807634203868"><ele>1250.0</ele><time>2026-04-09T09:48:58Z</time></trkpt><trkpt lat="37.864699960257575" lon="14.097810673605304"><ele>1246.0</ele><time>2026-04-09T09:48:59Z</time></trkpt><trkpt lat="37.864512730457974" lon="14.097850956737634"><ele>1246.0</ele><time>2026-04-09T09:49:00Z</time></trkpt><trkpt lat="37.86430706037332" lon="14.097941427573902"><ele>1246.0</ele><time>2026-04-09T09:49:01Z</time></trkpt><trkpt lat="37.864099347600046" lon="14.098062811332559"><ele>1246.0</ele><time>2026-04-09T09:49:02Z</time></trkpt><trkpt lat="37.86390127704138" lon="14.098221527683595"><ele>1241.0</ele><time>2026-04-09T09:49:03Z</time></trkpt><trkpt lat="37.8637303195992" lon="14.09839004309998"><ele>1236.0</ele><time>2026-04-09T09:49:04Z</time></trkpt><trkpt lat="37.86356955218509" lon="14.09852321350695"><ele>1231.0</ele><time>2026-04-09T09:49:05Z</time></trkpt><trkpt lat="37.86339797590077" lon="14.098627381392832"><ele>1231.0</ele><time>2026-04-09T09:49:06Z</time></trkpt><trkpt lat="37.863222097196115" lon="14.098718169036744"><ele>1231.0</ele><time>2026-04-09T09:49:07Z</time></trkpt><trkpt lat="37.86304261992331" lon="14.098794874280404"><ele>1231.0</ele><time>2026-04-09T09:49:08Z</time></trkpt><trkpt lat="37.86284066817427" lon="14.09884235495021"><ele>1231.0</ele><time>2026-04-09T09:49:09Z</time></trkpt><trkpt lat="37.86263666537637" lon="14.0988540625567"><ele>1231.0</ele><time>2026-04-09T09:49:10Z</time></trkpt><trkpt lat="37.86244633766178" lon="14.098845506158078"><ele>1231.0</ele><time>2026-04-09T09:49:11Z</time></trkpt><trkpt lat="37.86224262328921" lon="14.098802463349163"><ele>1229.3333333333333</ele><time>2026-04-09T09:49:12Z</time></trkpt><trkpt lat="37.862056376850546" lon="14.09873339427088"><ele>1227.6666666666667</ele><time>2026-04-09T09:49:13Z</time></trkpt><trkpt lat="37.86188802672919" lon="14.098665767159297"><ele>1226.0</ele><time>2026-04-09T09:49:14Z</time></trkpt><trkpt lat="37.861739615118985" lon="14.098616689181442"><ele>1224.5</ele><time>2026-04-09T09:49:15Z</time></trkpt><trkpt lat="37.861596684439064" lon="14.098597159641828"><ele>1223.0</ele><time>2026-04-09T09:49:16Z</time></trkpt><trkpt lat="37.861459424453614" lon="14.09860634437661"><ele>1221.5</ele><time>2026-04-09T09:49:17Z</time></trkpt><trkpt lat="37.86131931322949" lon="14.098643919783042"><ele>1220.0</ele><time>2026-04-09T09:49:18Z</time></trkpt><trkpt lat="37.861174929667925" lon="14.098693722453373"><ele>1220.0</ele><time>2026-04-09T09:49:19Z</time></trkpt><trkpt lat="37.86103395070865" lon="14.09877216527208"><ele>1220.0</ele><time>2026-04-09T09:49:20Z</time></trkpt><trkpt lat="37.86088855153122" lon="14.098879557145176"><ele>1220.0</ele><time>2026-04-09T09:49:21.001Z</time></trkpt><trkpt lat="37.86072192683736" lon="14.099028606746032"><ele>1214.5</ele><time>2026-04-09T09:49:22.001Z</time></trkpt><trkpt lat="37.8605417128589" lon="14.099202052288241"><ele>1209.0</ele><time>2026-04-09T09:49:23.001Z</time></trkpt><trkpt lat="37.86033786052489" lon="14.099396446323702"><ele>1209.0</ele><time>2026-04-09T09:49:24.001Z</time></trkpt><trkpt lat="37.86012405726548" lon="14.099599196699115"><ele>1209.0</ele><time>2026-04-09T09:49:25.001Z</time></trkpt><trkpt lat="37.85991008847436" lon="14.09982747949966"><ele>1205.5</ele><time>2026-04-09T09:49:26.001Z</time></trkpt><trkpt lat="37.85972136885342" lon="14.100056293541835"><ele>1202.0</ele><time>2026-04-09T09:49:27.001Z</time></trkpt><trkpt lat="37.859552425976204" lon="14.100263064243954"><ele>1202.0</ele><time>2026-04-09T09:49:28.001Z</time></trkpt><trkpt lat="37.85939414464004" lon="14.10045647114651"><ele>1202.0</ele><time>2026-04-09T09:49:29.001Z</time></trkpt><trkpt lat="37.859255632944304" lon="14.100638518494373"><ele>1202.0</ele><time>2026-04-09T09:49:30.001Z</time></trkpt><trkpt lat="37.85912746757969" lon="14.100833286800539"><ele>1202.3333333333335</ele><time>2026-04-09T09:49:31.001Z</time></trkpt><trkpt lat="37.859017327205436" lon="14.10103579236961"><ele>1202.6666666666667</ele><time>2026-04-09T09:49:32.001Z</time></trkpt><trkpt lat="37.85893182541712" lon="14.101246569113163"><ele>1203.0</ele><time>2026-04-09T09:49:33.001Z</time></trkpt><trkpt lat="37.85886790488543" lon="14.101472126457127"><ele>1206.5</ele><time>2026-04-09T09:49:34.001Z</time></trkpt><trkpt lat="37.85881265985042" lon="14.101735838453992"><ele>1210.0</ele><time>2026-04-09T09:49:35.001Z</time></trkpt><trkpt lat="37.85876523872159" lon="14.102034500266367"><ele>1210.0</ele><time>2026-04-09T09:49:36.001Z</time></trkpt><trkpt lat="37.85872072560851" lon="14.102334209837736"><ele>1210.0</ele><time>2026-04-09T09:49:37.001Z</time></trkpt><trkpt lat="37.858676346172025" lon="14.102615590174722"><ele>1213.3333333333333</ele><time>2026-04-09T09:49:38.001Z</time></trkpt><trkpt lat="37.858638396086164" lon="14.102859126176051"><ele>1216.6666666666667</ele><time>2026-04-09T09:49:39.001Z</time></trkpt><trkpt lat="37.85860386899239" lon="14.103078003941208"><ele>1220.0</ele><time>2026-04-09T09:49:40.001Z</time></trkpt><trkpt lat="37.85857027088111" lon="14.10328278692779"><ele>1222.5</ele><time>2026-04-09T09:49:41.001Z</time></trkpt><trkpt lat="37.85853315322738" lon="14.10348675479248"><ele>1225.0</ele><time>2026-04-09T09:49:42.001Z</time></trkpt><trkpt lat="37.858494838069035" lon="14.103667064104705"><ele>1227.5</ele><time>2026-04-09T09:49:43.001Z</time></trkpt><trkpt lat="37.8584568765783" lon="14.103829621774562"><ele>1230.0</ele><time>2026-04-09T09:49:44.001Z</time></trkpt><trkpt lat="37.858406225863476" lon="14.103966019058227"><ele>1226.5</ele><time>2026-04-09T09:49:45.001Z</time></trkpt><trkpt lat="37.85834991568771" lon="14.104096305936594"><ele>1223.0</ele><time>2026-04-09T09:49:46.001Z</time></trkpt><trkpt lat="37.858287094558705" lon="14.10422212419873"><ele>1219.5</ele><time>2026-04-09T09:49:47.001Z</time></trkpt><trkpt lat="37.85820733414566" lon="14.104351605652552"><ele>1216.0</ele><time>2026-04-09T09:49:48.001Z</time></trkpt><trkpt lat="37.858077106698914" lon="14.10448525910237"><ele>1216.0</ele><time>2026-04-09T09:49:49.001Z</time></trkpt><trkpt lat="37.857927155040514" lon="14.104611257590923"><ele>1216.0</ele><time>2026-04-09T09:49:50.001Z</time></trkpt><trkpt lat="37.85774912114141" lon="14.104723914615345"><ele>1216.0</ele><time>2026-04-09T09:49:51.001Z</time></trkpt><trkpt lat="37.857533610720665" lon="14.104808540155911"><ele>1214.0</ele><time>2026-04-09T09:49:52.001Z</time></trkpt><trkpt lat="37.85730445310512" lon="14.104879533775552"><ele>1212.0</ele><time>2026-04-09T09:49:53.001Z</time></trkpt><trkpt lat="37.85707669739187" lon="14.10495909165709"><ele>1216.0</ele><time>2026-04-09T09:49:54.001Z</time></trkpt><trkpt lat="37.85685122523313" lon="14.10506383153747"><ele>1220.0</ele><time>2026-04-09T09:49:55.001Z</time></trkpt><trkpt lat="37.856600155836134" lon="14.105207621916106"><ele>1220.0</ele><time>2026-04-09T09:49:56.001Z</time></trkpt><trkpt lat="37.85634453052875" lon="14.105383927173582"><ele>1220.0</ele><time>2026-04-09T09:49:57.001Z</time></trkpt><trkpt lat="37.85611165797091" lon="14.105560172629456"><ele>1222.0</ele><time>2026-04-09T09:49:58.001Z</time></trkpt><trkpt lat="37.85590055662677" lon="14.105724729278498"><ele>1224.0</ele><time>2026-04-09T09:49:59.001Z</time></trkpt><trkpt lat="37.85570930360756" lon="14.105879007620745"><ele>1224.0</ele><time>2026-04-09T09:50:00.001Z</time></trkpt><trkpt lat="37.85553261067851" lon="14.106022525941048"><ele>1224.0</ele><time>2026-04-09T09:50:01.001Z</time></trkpt><trkpt lat="37.85538344164192" lon="14.106149178647405"><ele>1224.0</ele><time>2026-04-09T09:50:02.001Z</time></trkpt><trkpt lat="37.85524133993838" lon="14.106255133601522"><ele>1221.6666666666667</ele><time>2026-04-09T09:50:03.001Z</time></trkpt><trkpt lat="37.85509524643975" lon="14.106320766767494"><ele>1219.3333333333335</ele><time>2026-04-09T09:50:04Z</time></trkpt><trkpt lat="37.854935579278134" lon="14.106352984829075"><ele>1217.0</ele><time>2026-04-09T09:50:05Z</time></trkpt><trkpt lat="37.8547722207052" lon="14.106358679875685"><ele>1217.0</ele><time>2026-04-09T09:50:06Z</time></trkpt><trkpt lat="37.85459706904671" lon="14.106329609834374"><ele>1217.0</ele><time>2026-04-09T09:50:07Z</time></trkpt><trkpt lat="37.85440046519455" lon="14.1062680791939"><ele>1217.0</ele><time>2026-04-09T09:50:08Z</time></trkpt><trkpt lat="37.8541892258262" lon="14.10618255531564"><ele>1216.3333333333335</ele><time>2026-04-09T09:50:09Z</time></trkpt><trkpt lat="37.85399768011844" lon="14.106097219919697"><ele>1215.6666666666667</ele><time>2026-04-09T09:50:10Z</time></trkpt><trkpt lat="37.85384268334304" lon="14.106031965864364"><ele>1215.0</ele><time>2026-04-09T09:50:11Z</time></trkpt><trkpt lat="37.853700234132994" lon="14.105950076858548"><ele>1215.0</ele><time>2026-04-09T09:50:12Z</time></trkpt><trkpt lat="37.853565318305236" lon="14.105844358689529"><ele>1215.0</ele><time>2026-04-09T09:50:13Z</time></trkpt><trkpt lat="37.85343022732832" lon="14.1057048969678"><ele>1215.0</ele><time>2026-04-09T09:50:14Z</time></trkpt><trkpt lat="37.85331078155459" lon="14.105529953012887"><ele>1215.0</ele><time>2026-04-09T09:50:15Z</time></trkpt><trkpt lat="37.85322162241074" lon="14.105332550448944"><ele>1215.0</ele><time>2026-04-09T09:50:16Z</time></trkpt><trkpt lat="37.85315830630053" lon="14.105067429212195"><ele>1215.0</ele><time>2026-04-09T09:50:17Z</time></trkpt><trkpt lat="37.853100147459436" lon="14.10484384739733"><ele>1210.3333333333333</ele><time>2026-04-09T09:50:18Z</time></trkpt><trkpt lat="37.85303445635329" lon="14.104650190012022"><ele>1205.6666666666665</ele><time>2026-04-09T09:50:19Z</time></trkpt><trkpt lat="37.85292930040751" lon="14.104469108629813"><ele>1201.0</ele><time>2026-04-09T09:50:20Z</time></trkpt><trkpt lat="37.852787773601655" lon="14.104290929506742"><ele>1201.0</ele><time>2026-04-09T09:50:21Z</time></trkpt><trkpt lat="37.852637920472" lon="14.1041453994535"><ele>1201.0</ele><time>2026-04-09T09:50:22Z</time></trkpt><trkpt lat="37.852476359932496" lon="14.104030360257491"><ele>1201.0</ele><time>2026-04-09T09:50:23Z</time></trkpt><trkpt lat="37.85229796798306" lon="14.103946524036877"><ele>1198.5</ele><time>2026-04-09T09:50:24Z</time></trkpt><trkpt lat="37.852082457476456" lon="14.103906185323341"><ele>1196.0</ele><time>2026-04-09T09:50:25Z</time></trkpt><trkpt lat="37.851837003457824" lon="14.103883267174364"><ele>1196.0</ele><time>2026-04-09T09:50:26Z</time></trkpt><trkpt lat="37.85160331711752" lon="14.10388734351084"><ele>1196.0</ele><time>2026-04-09T09:50:27Z</time></trkpt><trkpt lat="37.85140160495099" lon="14.103894738521964"><ele>1196.0</ele><time>2026-04-09T09:50:28Z</time></trkpt><trkpt lat="37.85121264302589" lon="14.103849628493709"><ele>1196.0</ele><time>2026-04-09T09:50:29Z</time></trkpt><trkpt lat="37.85099962612915" lon="14.103794896785457"><ele>1196.0</ele><time>2026-04-09T09:50:30Z</time></trkpt><trkpt lat="37.85075788359495" lon="14.103705384076733"><ele>1194.0</ele><time>2026-04-09T09:50:31Z</time></trkpt><trkpt lat="37.85051437987066" lon="14.103606661709538"><ele>1192.0</ele><time>2026-04-09T09:50:32Z</time></trkpt><trkpt lat="37.85028939127254" lon="14.103522803678427"><ele>1193.3333333333333</ele><time>2026-04-09T09:50:33Z</time></trkpt><trkpt lat="37.85009444164498" lon="14.103433018856379"><ele>1194.6666666666667</ele><time>2026-04-09T09:50:34Z</time></trkpt><trkpt lat="37.84991847997594" lon="14.103352397245661"><ele>1196.0</ele><time>2026-04-09T09:50:35Z</time></trkpt><trkpt lat="37.8497485649884" lon="14.103302806978173"><ele>1196.0</ele><time>2026-04-09T09:50:36Z</time></trkpt><trkpt lat="37.84954451748579" lon="14.103274093415786"><ele>1196.0</ele><time>2026-04-09T09:50:37Z</time></trkpt><trkpt lat="37.84931548098643" lon="14.103281717234621"><ele>1196.0</ele><time>2026-04-09T09:50:38Z</time></trkpt><trkpt lat="37.849055430157364" lon="14.103301850154049"><ele>1195.3333333333335</ele><time>2026-04-09T09:50:39Z</time></trkpt><trkpt lat="37.84881886692735" lon="14.10333585953521"><ele>1194.6666666666667</ele><time>2026-04-09T09:50:40Z</time></trkpt><trkpt lat="37.84862562128947" lon="14.103380284458126"><ele>1194.0</ele><time>2026-04-09T09:50:41Z</time></trkpt><trkpt lat="37.84844707601339" lon="14.103384919007784"><ele>1192.6666666666667</ele><time>2026-04-09T09:50:42Z</time></trkpt><trkpt lat="37.84828621528179" lon="14.103346483547224"><ele>1191.3333333333335</ele><time>2026-04-09T09:50:43Z</time></trkpt><trkpt lat="37.848132479571184" lon="14.10330061281742"><ele>1190.0</ele><time>2026-04-09T09:50:44Z</time></trkpt><trkpt lat="37.847970377831196" lon="14.10322686740998"><ele>1181.3333333333335</ele><time>2026-04-09T09:50:45Z</time></trkpt><trkpt lat="37.84781162606319" lon="14.103120956077403"><ele>1172.6666666666667</ele><time>2026-04-09T09:50:46Z</time></trkpt><trkpt lat="37.847659053969075" lon="14.103006447344626"><ele>1164.0</ele><time>2026-04-09T09:50:47Z</time></trkpt><trkpt lat="37.847518803182886" lon="14.102834020277868"><ele>1163.5</ele><time>2026-04-09T09:50:48Z</time></trkpt><trkpt lat="37.84738119955345" lon="14.102616515639207"><ele>1163.0</ele><time>2026-04-09T09:50:49Z</time></trkpt><trkpt lat="37.84725842823576" lon="14.102322379772174"><ele>1159.5</ele><time>2026-04-09T09:50:50Z</time></trkpt><trkpt lat="37.84711469042699" lon="14.102012328975565"><ele>1156.0</ele><time>2026-04-09T09:50:51Z</time></trkpt><trkpt lat="37.846962980535245" lon="14.101706722461339"><ele>1153.5</ele><time>2026-04-09T09:50:52Z</time></trkpt><trkpt lat="37.84683006903507" lon="14.10141831455175"><ele>1151.0</ele><time>2026-04-09T09:50:53Z</time></trkpt><trkpt lat="37.846707501057104" lon="14.101152366878358"><ele>1156.0</ele><time>2026-04-09T09:50:54Z</time></trkpt><trkpt lat="37.84659492719127" lon="14.100902320023605"><ele>1161.0</ele><time>2026-04-09T09:50:55Z</time></trkpt><trkpt lat="37.846481467408516" lon="14.100656403646381"><ele>1161.0</ele><time>2026-04-09T09:50:56Z</time></trkpt><trkpt lat="37.846358855148075" lon="14.100429005108936"><ele>1161.0</ele><time>2026-04-09T09:50:57Z</time></trkpt><trkpt lat="37.84621311318388" lon="14.10022752199707"><ele>1161.0</ele><time>2026-04-09T09:50:58Z</time></trkpt><trkpt lat="37.84605243872221" lon="14.10002796654225"><ele>1159.5</ele><time>2026-04-09T09:50:59Z</time></trkpt><trkpt lat="37.84587041485464" lon="14.099823914130674"><ele>1158.0</ele><time>2026-04-09T09:51:00Z</time></trkpt><trkpt lat="37.84568865214318" lon="14.0995727723645"><ele>1158.0</ele><time>2026-04-09T09:51:01Z</time></trkpt><trkpt lat="37.84548433084586" lon="14.099349351749199"><ele>1158.0</ele><time>2026-04-09T09:51:02Z</time></trkpt><trkpt lat="37.845310234707114" lon="14.099130934049596"><ele>1157.5</ele><time>2026-04-09T09:51:03Z</time></trkpt><trkpt lat="37.84514174998781" lon="14.098917904481791"><ele>1157.0</ele><time>2026-04-09T09:51:04Z</time></trkpt><trkpt lat="37.84498188778798" lon="14.098719318422248"><ele>1157.0</ele><time>2026-04-09T09:51:05Z</time></trkpt><trkpt lat="37.84482626064204" lon="14.098528607459071"><ele>1157.0</ele><time>2026-04-09T09:51:06Z</time></trkpt><trkpt lat="37.844675955463174" lon="14.098349136372542"><ele>1157.0</ele><time>2026-04-09T09:51:07Z</time></trkpt><trkpt lat="37.84452258480786" lon="14.098185433987767"><ele>1157.3333333333335</ele><time>2026-04-09T09:51:08Z</time></trkpt><trkpt lat="37.844358662370766" lon="14.098051104323128"><ele>1157.6666666666667</ele><time>2026-04-09T09:51:09Z</time></trkpt><trkpt lat="37.84420300052614" lon="14.097918249025366"><ele>1158.0</ele><time>2026-04-09T09:51:10Z</time></trkpt><trkpt lat="37.8440343947886" lon="14.097825901444025"><ele>1158.0</ele><time>2026-04-09T09:51:11Z</time></trkpt><trkpt lat="37.84385997812792" lon="14.097755214158607"><ele>1158.0</ele><time>2026-04-09T09:51:12Z</time></trkpt><trkpt lat="37.84368863205401" lon="14.097665442680178"><ele>1158.0</ele><time>2026-04-09T09:51:13Z</time></trkpt><trkpt lat="37.84353725232726" lon="14.097584042374475"><ele>1160.0</ele><time>2026-04-09T09:51:14Z</time></trkpt><trkpt lat="37.843387889771215" lon="14.097480662359013"><ele>1162.0</ele><time>2026-04-09T09:51:15Z</time></trkpt><trkpt lat="37.843235958994" lon="14.097323944530501"><ele>1164.0</ele><time>2026-04-09T09:51:16Z</time></trkpt><trkpt lat="37.84306889201635" lon="14.0971151528733"><ele>1158.0</ele><time>2026-04-09T09:51:17Z</time></trkpt><trkpt lat="37.842886044416986" lon="14.09686995489347"><ele>1152.0</ele><time>2026-04-09T09:51:18Z</time></trkpt><trkpt lat="37.84269643230802" lon="14.096595716311336"><ele>1147.5</ele><time>2026-04-09T09:51:19Z</time></trkpt><trkpt lat="37.8424956095958" lon="14.096310978268983"><ele>1143.0</ele><time>2026-04-09T09:51:20Z</time></trkpt><trkpt lat="37.84227267628717" lon="14.09600345779563"><ele>1138.0</ele><time>2026-04-09T09:51:21Z</time></trkpt><trkpt lat="37.84206421641829" lon="14.09571226874482"><ele>1133.0</ele><time>2026-04-09T09:51:22Z</time></trkpt><trkpt lat="37.841872756713386" lon="14.095440763580813"><ele>1137.0</ele><time>2026-04-09T09:51:23Z</time></trkpt><trkpt lat="37.84169395606303" lon="14.095182791022852"><ele>1141.0</ele><time>2026-04-09T09:51:24Z</time></trkpt><trkpt lat="37.84151790350217" lon="14.094930803445356"><ele>1136.0</ele><time>2026-04-09T09:51:25Z</time></trkpt><trkpt lat="37.84134989428382" lon="14.094690267491506"><ele>1131.0</ele><time>2026-04-09T09:51:26.001Z</time></trkpt><trkpt lat="37.8411861261192" lon="14.094456532118862"><ele>1131.0</ele><time>2026-04-09T09:51:27.001Z</time></trkpt><trkpt lat="37.84103113576665" lon="14.094233443138526"><ele>1131.0</ele><time>2026-04-09T09:51:28.001Z</time></trkpt><trkpt lat="37.84087846763587" lon="14.094022082877022"><ele>1128.0</ele><time>2026-04-09T09:51:29.001Z</time></trkpt><trkpt lat="37.84071704823304" lon="14.093831555716463"><ele>1125.0</ele><time>2026-04-09T09:51:30.001Z</time></trkpt><trkpt lat="37.84054228087175" lon="14.093673286903414"><ele>1122.0</ele><time>2026-04-09T09:51:31.001Z</time></trkpt><trkpt lat="37.8403397107312" lon="14.093539645139368"><ele>1123.5</ele><time>2026-04-09T09:51:32.001Z</time></trkpt><trkpt lat="37.84009503336924" lon="14.093440387602927"><ele>1125.0</ele><time>2026-04-09T09:51:33.001Z</time></trkpt><trkpt lat="37.8398341360822" lon="14.093352344416134"><ele>1125.0</ele><time>2026-04-09T09:51:34.001Z</time></trkpt><trkpt lat="37.839588989228474" lon="14.09328243432922"><ele>1125.0</ele><time>2026-04-09T09:51:35.001Z</time></trkpt><trkpt lat="37.83936696500028" lon="14.09320958635945"><ele>1113.5</ele><time>2026-04-09T09:51:36.001Z</time></trkpt><trkpt lat="37.83915510844079" lon="14.093119445881856"><ele>1102.0</ele><time>2026-04-09T09:51:37.001Z</time></trkpt><trkpt lat="37.8389390842803" lon="14.092990667505818"><ele>1102.0</ele><time>2026-04-09T09:51:38.001Z</time></trkpt><trkpt lat="37.838708124722565" lon="14.092824591610588"><ele>1102.0</ele><time>2026-04-09T09:51:39.001Z</time></trkpt><trkpt lat="37.838495358899614" lon="14.09264607192124"><ele>1105.3333333333333</ele><time>2026-04-09T09:51:40.001Z</time></trkpt><trkpt lat="37.838314553918416" lon="14.092479629745103"><ele>1108.6666666666667</ele><time>2026-04-09T09:51:41.001Z</time></trkpt><trkpt lat="37.83815954459558" lon="14.092328012809702"><ele>1112.0</ele><time>2026-04-09T09:51:42.001Z</time></trkpt><trkpt lat="37.83800600788018" lon="14.092190459049196"><ele>1105.3333333333335</ele><time>2026-04-09T09:51:43.001Z</time></trkpt><trkpt lat="37.83782973743271" lon="14.092076623568875"><ele>1098.6666666666667</ele><time>2026-04-09T09:51:44.001Z</time></trkpt><trkpt lat="37.83763640456486" lon="14.092001443067563"><ele>1092.0</ele><time>2026-04-09T09:51:45.001Z</time></trkpt><trkpt lat="37.837451183841694" lon="14.091960227109743"><ele>1092.0</ele><time>2026-04-09T09:51:46.001Z</time></trkpt><trkpt lat="37.837250900535125" lon="14.091961614847172"><ele>1092.0</ele><time>2026-04-09T09:51:47.001Z</time></trkpt><trkpt lat="37.83704025305368" lon="14.092010233376174"><ele>1092.0</ele><time>2026-04-09T09:51:48.001Z</time></trkpt><trkpt lat="37.83681893105947" lon="14.092090573410221"><ele>1088.5</ele><time>2026-04-09T09:51:49.001Z</time></trkpt><trkpt lat="37.836581075303656" lon="14.092163373542341"><ele>1085.0</ele><time>2026-04-09T09:51:50.001Z</time></trkpt><trkpt lat="37.83632175257298" lon="14.092231365740416"><ele>1085.0</ele><time>2026-04-09T09:51:51.001Z</time></trkpt><trkpt lat="37.836071814155126" lon="14.092298735508658"><ele>1085.0</ele><time>2026-04-09T09:51:52.001Z</time></trkpt><trkpt lat="37.83584157599488" lon="14.09236351027263"><ele>1088.6666666666667</ele><time>2026-04-09T09:51:53.001Z</time></trkpt><trkpt lat="37.83563082148846" lon="14.092427538500358"><ele>1092.3333333333333</ele><time>2026-04-09T09:51:54.001Z</time></trkpt><trkpt lat="37.83543906492998" lon="14.09248280650867"><ele>1096.0</ele><time>2026-04-09T09:51:55.001Z</time></trkpt><trkpt lat="37.83525347733804" lon="14.092524952569606"><ele>1095.6666666666665</ele><time>2026-04-09T09:51:56.001Z</time></trkpt><trkpt lat="37.83504248088471" lon="14.092547246902518"><ele>1095.3333333333333</ele><time>2026-04-09T09:51:57.001Z</time></trkpt><trkpt lat="37.834832987698064" lon="14.092547215215365"><ele>1095.0</ele><time>2026-04-09T09:51:58.001Z</time></trkpt><trkpt lat="37.834623548950866" lon="14.0925168876008"><ele>1095.0</ele><time>2026-04-09T09:51:59.001Z</time></trkpt><trkpt lat="37.8344000916707" lon="14.09245278535172"><ele>1095.0</ele><time>2026-04-09T09:52:00.001Z</time></trkpt><trkpt lat="37.834145574375384" lon="14.092349720311704"><ele>1080.5</ele><time>2026-04-09T09:52:01.001Z</time></trkpt><trkpt lat="37.83389045445301" lon="14.09224816849948"><ele>1066.0</ele><time>2026-04-09T09:52:02Z</time></trkpt><trkpt lat="37.833630825672316" lon="14.092156066044017"><ele>1066.5</ele><time>2026-04-09T09:52:03Z</time></trkpt><trkpt lat="37.83337193571627" lon="14.092058976877405"><ele>1067.0</ele><time>2026-04-09T09:52:04Z</time></trkpt><trkpt lat="37.833113677558615" lon="14.091955782711041"><ele>1067.0</ele><time>2026-04-09T09:52:05Z</time></trkpt><trkpt lat="37.83287006964797" lon="14.091861776969996"><ele>1067.0</ele><time>2026-04-09T09:52:06Z</time></trkpt><trkpt lat="37.832640792528316" lon="14.09177957829673"><ele>1066.6666666666667</ele><time>2026-04-09T09:52:07Z</time></trkpt><trkpt lat="37.832435972579134" lon="14.091706511605448"><ele>1066.3333333333333</ele><time>2026-04-09T09:52:08Z</time></trkpt><trkpt lat="37.832231699580156" lon="14.091628340727503"><ele>1066.0</ele><time>2026-04-09T09:52:09Z</time></trkpt><trkpt lat="37.832045840166714" lon="14.091558088889396"><ele>1064.0</ele><time>2026-04-09T09:52:10Z</time></trkpt><trkpt lat="37.83187932380201" lon="14.091485977845384"><ele>1062.0</ele><time>2026-04-09T09:52:11Z</time></trkpt><trkpt lat="37.831729593529545" lon="14.091395625576894"><ele>1060.0</ele><time>2026-04-09T09:52:12Z</time></trkpt><trkpt lat="37.831580696624684" lon="14.09127523589099"><ele>1060.0</ele><time>2026-04-09T09:52:13Z</time></trkpt><trkpt lat="37.83142679639922" lon="14.091125375823996"><ele>1060.0</ele><time>2026-04-09T09:52:14Z</time></trkpt><trkpt lat="37.83128129885132" lon="14.090975791972323"><ele>1060.0</ele><time>2026-04-09T09:52:15Z</time></trkpt><trkpt lat="37.83113871886553" lon="14.090846810488328"><ele>1055.0</ele><time>2026-04-09T09:52:16Z</time></trkpt><trkpt lat="37.83098810992291" lon="14.090740313680358"><ele>1050.0</ele><time>2026-04-09T09:52:17Z</time></trkpt><trkpt lat="37.83083108709486" lon="14.090659618168209"><ele>1045.0</ele><time>2026-04-09T09:52:18Z</time></trkpt><trkpt lat="37.830636601558396" lon="14.090608972338762"><ele>1045.0</ele><time>2026-04-09T09:52:19Z</time></trkpt><trkpt lat="37.83040540005197" lon="14.090572724501953"><ele>1045.0</ele><time>2026-04-09T09:52:20Z</time></trkpt><trkpt lat="37.83013748896266" lon="14.090572738196977"><ele>1042.5</ele><time>2026-04-09T09:52:21Z</time></trkpt><trkpt lat="37.82984500348292" lon="14.09056045614312"><ele>1040.0</ele><time>2026-04-09T09:52:22Z</time></trkpt><trkpt lat="37.82958173952417" lon="14.090561398061698"><ele>1040.0</ele><time>2026-04-09T09:52:23Z</time></trkpt><trkpt lat="37.82933051616732" lon="14.090558521804299"><ele>1040.0</ele><time>2026-04-09T09:52:24Z</time></trkpt><trkpt lat="37.829108823267774" lon="14.0905592816181"><ele>1038.6666666666667</ele><time>2026-04-09T09:52:25Z</time></trkpt><trkpt lat="37.8289169250088" lon="14.090559207145343"><ele>1037.3333333333333</ele><time>2026-04-09T09:52:26Z</time></trkpt><trkpt lat="37.82874447184995" lon="14.090576813037444"><ele>1036.0</ele><time>2026-04-09T09:52:27Z</time></trkpt><trkpt lat="37.8285816961836" lon="14.090578955127997"><ele>1038.3333333333333</ele><time>2026-04-09T09:52:28Z</time></trkpt><trkpt lat="37.828423515368804" lon="14.090616843200298"><ele>1040.6666666666667</ele><time>2026-04-09T09:52:29Z</time></trkpt><trkpt lat="37.828275537430756" lon="14.09069764981828"><ele>1043.0</ele><time>2026-04-09T09:52:30Z</time></trkpt><trkpt lat="37.828117490007195" lon="14.090771762211165"><ele>1043.0</ele><time>2026-04-09T09:52:31Z</time></trkpt><trkpt lat="37.82798371170054" lon="14.090919877834686"><ele>1043.0</ele><time>2026-04-09T09:52:32Z</time></trkpt><trkpt lat="37.82788328709624" lon="14.091091884385026"><ele>1043.0</ele><time>2026-04-09T09:52:33Z</time></trkpt><trkpt lat="37.82782110072856" lon="14.091304625483902"><ele>1043.0</ele><time>2026-04-09T09:52:34Z</time></trkpt><trkpt lat="37.82774386250574" lon="14.091473467817691"><ele>1043.0</ele><time>2026-04-09T09:52:35Z</time></trkpt><trkpt lat="37.82767333213803" lon="14.091636783211046"><ele>1043.0</ele><time>2026-04-09T09:52:36Z</time></trkpt><trkpt lat="37.82758192569139" lon="14.091775298625567"><ele>1043.0</ele><time>2026-04-09T09:52:37Z</time></trkpt><trkpt lat="37.827476349388384" lon="14.091900231075828"><ele>1037.75</ele><time>2026-04-09T09:52:38Z</time></trkpt><trkpt lat="37.827369706566074" lon="14.09199066454831"><ele>1032.5</ele><time>2026-04-09T09:52:39Z</time></trkpt><trkpt lat="37.82725523203634" lon="14.09205707799255"><ele>1027.25</ele><time>2026-04-09T09:52:40Z</time></trkpt><trkpt lat="37.827119382854846" lon="14.092098395921953"><ele>1022.0</ele><time>2026-04-09T09:52:41Z</time></trkpt><trkpt lat="37.82694092749942" lon="14.092127144069364"><ele>1017.3333333333334</ele><time>2026-04-09T09:52:42Z</time></trkpt><trkpt lat="37.82672902206005" lon="14.092153285755863"><ele>1012.6666666666667</ele><time>2026-04-09T09:52:43Z</time></trkpt><trkpt lat="37.8265274107682" lon="14.092170064857052"><ele>1008.0</ele><time>2026-04-09T09:52:44Z</time></trkpt><trkpt lat="37.82632741256075" lon="14.092191381268233"><ele>1008.0</ele><time>2026-04-09T09:52:45Z</time></trkpt><trkpt lat="37.826108807052" lon="14.092215580476065"><ele>1008.0</ele><time>2026-04-09T09:52:46Z</time></trkpt><trkpt lat="37.825878810322884" lon="14.092240858748331"><ele>1007.0</ele><time>2026-04-09T09:52:47Z</time></trkpt><trkpt lat="37.82565681779968" lon="14.092264684387995"><ele>1006.0</ele><time>2026-04-09T09:52:48Z</time></trkpt><trkpt lat="37.82544390929757" lon="14.09228753507767"><ele>1005.0</ele><time>2026-04-09T09:52:49Z</time></trkpt><trkpt lat="37.825228918466365" lon="14.092308049064801"><ele>1001.5</ele><time>2026-04-09T09:52:50Z</time></trkpt><trkpt lat="37.8250066821406" lon="14.09232871269889"><ele>998.0</ele><time>2026-04-09T09:52:51Z</time></trkpt><trkpt lat="37.824771344745024" lon="14.092350594473395"><ele>998.0</ele><time>2026-04-09T09:52:52Z</time></trkpt><trkpt lat="37.824552980603286" lon="14.092372353884626"><ele>998.0</ele><time>2026-04-09T09:52:53Z</time></trkpt><trkpt lat="37.824345195632446" lon="14.092393720088001"><ele>998.0</ele><time>2026-04-09T09:52:54Z</time></trkpt><trkpt lat="37.82415836494289" lon="14.09241656629072"><ele>1001.0</ele><time>2026-04-09T09:52:55Z</time></trkpt><trkpt lat="37.82399895923314" lon="14.092459784089996"><ele>1004.0</ele><time>2026-04-09T09:52:56Z</time></trkpt><trkpt lat="37.82385194511233" lon="14.09248255591133"><ele>1007.0</ele><time>2026-04-09T09:52:57Z</time></trkpt><trkpt lat="37.8237009532133" lon="14.092543876813062"><ele>1007.0</ele><time>2026-04-09T09:52:58Z</time></trkpt><trkpt lat="37.82354754006409" lon="14.092641073412588"><ele>1007.0</ele><time>2026-04-09T09:52:59Z</time></trkpt><trkpt lat="37.82339980563232" lon="14.092768398577963"><ele>1007.0</ele><time>2026-04-09T09:53:00Z</time></trkpt><trkpt lat="37.82327087419728" lon="14.092916130681523"><ele>1004.6666666666667</ele><time>2026-04-09T09:53:01Z</time></trkpt><trkpt lat="37.82316067128609" lon="14.093082328932994"><ele>1002.3333333333333</ele><time>2026-04-09T09:53:02Z</time></trkpt><trkpt lat="37.82308431040984" lon="14.093282401660563"><ele>1000.0</ele><time>2026-04-09T09:53:03Z</time></trkpt><trkpt lat="37.82300500699033" lon="14.093441618253228"><ele>1000.0</ele><time>2026-04-09T09:53:04Z</time></trkpt><trkpt lat="37.822906885904324" lon="14.09359161751877"><ele>1000.0</ele><time>2026-04-09T09:53:05Z</time></trkpt><trkpt lat="37.82281579071457" lon="14.093740956333205"><ele>1000.0</ele><time>2026-04-09T09:53:06Z</time></trkpt><trkpt lat="37.82271157606448" lon="14.093860365771977"><ele>1000.0</ele><time>2026-04-09T09:53:07Z</time></trkpt><trkpt lat="37.822590698694505" lon="14.093962790187046"><ele>996.6666666666666</ele><time>2026-04-09T09:53:08Z</time></trkpt><trkpt lat="37.82246030058357" lon="14.09406741940941"><ele>993.3333333333333</ele><time>2026-04-09T09:53:09Z</time></trkpt><trkpt lat="37.82232292945003" lon="14.094143379969386"><ele>990.0</ele><time>2026-04-09T09:53:10Z</time></trkpt><trkpt lat="37.8221610447665" lon="14.094192833488798"><ele>990.0</ele><time>2026-04-09T09:53:11Z</time></trkpt><trkpt lat="37.82198096603758" lon="14.094228076299931"><ele>990.0</ele><time>2026-04-09T09:53:12Z</time></trkpt><trkpt lat="37.821789851932074" lon="14.094259643576086"><ele>990.0</ele><time>2026-04-09T09:53:13Z</time></trkpt><trkpt lat="37.821596316341726" lon="14.094291627095606"><ele>986.6666666666667</ele><time>2026-04-09T09:53:14Z</time></trkpt><trkpt lat="37.82139238170354" lon="14.094322620611923"><ele>983.3333333333334</ele><time>2026-04-09T09:53:15Z</time></trkpt><trkpt lat="37.82119033219301" lon="14.094352125365369"><ele>980.0</ele><time>2026-04-09T09:53:16Z</time></trkpt><trkpt lat="37.82099207144952" lon="14.094371555676238"><ele>977.3333333333334</ele><time>2026-04-09T09:53:17Z</time></trkpt><trkpt lat="37.82079546783669" lon="14.09436306028694"><ele>974.6666666666667</ele><time>2026-04-09T09:53:18Z</time></trkpt><trkpt lat="37.82060212763792" lon="14.094325853367685"><ele>972.0</ele><time>2026-04-09T09:53:19Z</time></trkpt><trkpt lat="37.820403030222614" lon="14.094256296546282"><ele>972.0</ele><time>2026-04-09T09:53:20Z</time></trkpt><trkpt lat="37.82019473161158" lon="14.09416873408579"><ele>972.0</ele><time>2026-04-09T09:53:21Z</time></trkpt><trkpt lat="37.820005248421026" lon="14.094104013898328"><ele>972.0</ele><time>2026-04-09T09:53:22Z</time></trkpt><trkpt lat="37.81985171283447" lon="14.094035111831737"><ele>968.3333333333333</ele><time>2026-04-09T09:53:23Z</time></trkpt><trkpt lat="37.81971106043579" lon="14.093983679040582"><ele>964.6666666666666</ele><time>2026-04-09T09:53:24Z</time></trkpt><trkpt lat="37.81955334466802" lon="14.093952233181382"><ele>961.0</ele><time>2026-04-09T09:53:25Z</time></trkpt><trkpt lat="37.81937244044414" lon="14.093952144945092"><ele>959.6666666666666</ele><time>2026-04-09T09:53:26Z</time></trkpt><trkpt lat="37.81919738285493" lon="14.093985297046293"><ele>958.3333333333333</ele><time>2026-04-09T09:53:27Z</time></trkpt><trkpt lat="37.81903190889556" lon="14.09403925546463"><ele>957.0</ele><time>2026-04-09T09:53:28Z</time></trkpt><trkpt lat="37.81885811627906" lon="14.094131778662975"><ele>957.0</ele><time>2026-04-09T09:53:29Z</time></trkpt><trkpt lat="37.81867395795975" lon="14.094272880023496"><ele>957.0</ele><time>2026-04-09T09:53:30Z</time></trkpt><trkpt lat="37.81847811714018" lon="14.09442513861603"><ele>957.0</ele><time>2026-04-09T09:53:31Z</time></trkpt><trkpt lat="37.818269709711906" lon="14.094606064447065"><ele>957.0</ele><time>2026-04-09T09:53:32.001Z</time></trkpt><trkpt lat="37.81804420350827" lon="14.09480575710427"><ele>957.0</ele><time>2026-04-09T09:53:33.001Z</time></trkpt><trkpt lat="37.817839755579946" lon="14.094985686045955"><ele>958.0</ele><time>2026-04-09T09:53:34.001Z</time></trkpt><trkpt lat="37.817654328805965" lon="14.095142291336435"><ele>959.0</ele><time>2026-04-09T09:53:35.001Z</time></trkpt><trkpt lat="37.817487379018466" lon="14.09527083366565"><ele>960.0</ele><time>2026-04-09T09:53:36.001Z</time></trkpt><trkpt lat="37.817320351652576" lon="14.09537738723934"><ele>957.0</ele><time>2026-04-09T09:53:37.001Z</time></trkpt><trkpt lat="37.8171458462011" lon="14.095447184729492"><ele>954.0</ele><time>2026-04-09T09:53:38.001Z</time></trkpt><trkpt lat="37.816971914730416" lon="14.09547131903772"><ele>951.0</ele><time>2026-04-09T09:53:39.001Z</time></trkpt><trkpt lat="37.816789963374504" lon="14.095463779792684"><ele>947.3333333333333</ele><time>2026-04-09T09:53:40.001Z</time></trkpt><trkpt lat="37.81658862985782" lon="14.09541618619722"><ele>943.6666666666666</ele><time>2026-04-09T09:53:41.001Z</time></trkpt><trkpt lat="37.81637810199439" lon="14.095333538417739"><ele>940.0</ele><time>2026-04-09T09:53:42.001Z</time></trkpt><trkpt lat="37.81619050080458" lon="14.095251944407702"><ele>940.0</ele><time>2026-04-09T09:53:43.001Z</time></trkpt><trkpt lat="37.81601146270018" lon="14.095188003091971"><ele>940.0</ele><time>2026-04-09T09:53:44.001Z</time></trkpt><trkpt lat="37.815857133556165" lon="14.095070230161092"><ele>940.0</ele><time>2026-04-09T09:53:45.001Z</time></trkpt><trkpt lat="37.815721840769434" lon="14.094924613647274"><ele>937.3333333333333</ele><time>2026-04-09T09:53:46.001Z</time></trkpt><trkpt lat="37.815606466061574" lon="14.094760430475816"><ele>934.6666666666667</ele><time>2026-04-09T09:53:47.001Z</time></trkpt><trkpt lat="37.81551571954838" lon="14.094585807185016"><ele>932.0</ele><time>2026-04-09T09:53:48Z</time></trkpt><trkpt lat="37.815435375082394" lon="14.094389320670176"><ele>932.0</ele><time>2026-04-09T09:53:49Z</time></trkpt><trkpt lat="37.815356084986995" lon="14.0941811200879"><ele>932.0</ele><time>2026-04-09T09:53:50Z</time></trkpt><trkpt lat="37.81529160810414" lon="14.093974474913061"><ele>932.0</ele><time>2026-04-09T09:53:51Z</time></trkpt><trkpt lat="37.81522415538275" lon="14.093777381996134"><ele>929.0</ele><time>2026-04-09T09:53:52Z</time></trkpt><trkpt lat="37.815134644865246" lon="14.093584368130927"><ele>926.0</ele><time>2026-04-09T09:53:53Z</time></trkpt><trkpt lat="37.81502602958846" lon="14.093389480977867"><ele>923.0</ele><time>2026-04-09T09:53:54Z</time></trkpt><trkpt lat="37.814896028465945" lon="14.09321336900685"><ele>917.3333333333334</ele><time>2026-04-09T09:53:55Z</time></trkpt><trkpt lat="37.81473353688279" lon="14.09305803365383"><ele>911.6666666666667</ele><time>2026-04-09T09:53:56Z</time></trkpt><trkpt lat="37.814545991656736" lon="14.092903450535845"><ele>906.0</ele><time>2026-04-09T09:53:57Z</time></trkpt><trkpt lat="37.814336311354836" lon="14.092737208209046"><ele>907.5</ele><time>2026-04-09T09:53:58Z</time></trkpt><trkpt lat="37.81411503590217" lon="14.092544265115505"><ele>909.0</ele><time>2026-04-09T09:53:59Z</time></trkpt><trkpt lat="37.81389966807235" lon="14.092369019773564"><ele>899.0</ele><time>2026-04-09T09:54:00Z</time></trkpt><trkpt lat="37.813690737145684" lon="14.092230082936517"><ele>889.0</ele><time>2026-04-09T09:54:01Z</time></trkpt><trkpt lat="37.813508910264126" lon="14.092082024381567"><ele>892.3333333333333</ele><time>2026-04-09T09:54:02Z</time></trkpt><trkpt lat="37.81335205497022" lon="14.091925646295403"><ele>895.6666666666667</ele><time>2026-04-09T09:54:03Z</time></trkpt><trkpt lat="37.813203407239584" lon="14.091802130318"><ele>899.0</ele><time>2026-04-09T09:54:04Z</time></trkpt><trkpt lat="37.81306597722417" lon="14.091686246835478"><ele>893.3333333333334</ele><time>2026-04-09T09:54:05Z</time></trkpt><trkpt lat="37.81294475053029" lon="14.09155086767081"><ele>887.6666666666667</ele><time>2026-04-09T09:54:06Z</time></trkpt><trkpt lat="37.812834759904746" lon="14.091403598086918"><ele>882.0</ele><time>2026-04-09T09:54:07Z</time></trkpt><trkpt lat="37.812738655962384" lon="14.09124149442784"><ele>882.0</ele><time>2026-04-09T09:54:08Z</time></trkpt><trkpt lat="37.81267558248671" lon="14.091053515589287"><ele>882.0</ele><time>2026-04-09T09:54:09Z</time></trkpt><trkpt lat="37.8126194019067" lon="14.0908506636666"><ele>882.0</ele><time>2026-04-09T09:54:10Z</time></trkpt><trkpt lat="37.81257215640197" lon="14.0906574374628"><ele>882.6</ele><time>2026-04-09T09:54:11Z</time></trkpt><trkpt lat="37.812523959042096" lon="14.090492107085387"><ele>883.2</ele><time>2026-04-09T09:54:12Z</time></trkpt><trkpt lat="37.812497607658266" lon="14.090354873929718"><ele>883.8</ele><time>2026-04-09T09:54:13Z</time></trkpt><trkpt lat="37.81247201774279" lon="14.090248717393699"><ele>884.4</ele><time>2026-04-09T09:54:14Z</time></trkpt><trkpt lat="37.81244925572907" lon="14.090166304578087"><ele>885.0</ele><time>2026-04-09T09:54:15Z</time></trkpt><trkpt lat="37.81238582290766" lon="14.090062318511514"><ele>885.0</ele><time>2026-04-09T09:54:17Z</time></trkpt><trkpt lat="37.81224847476873" lon="14.090025514300914"><ele>885.0</ele><time>2026-04-09T09:54:19Z</time></trkpt><trkpt lat="37.81216171808812" lon="14.090024099991778"><ele>885.0</ele><time>2026-04-09T09:54:20Z</time></trkpt><trkpt lat="37.81207019363027" lon="14.090015898821656"><ele>885.0</ele><time>2026-04-09T09:54:21Z</time></trkpt><trkpt lat="37.81200884709993" lon="14.089997064545122"><ele>885.0</ele><time>2026-04-09T09:54:22Z</time></trkpt><trkpt lat="37.81193791135754" lon="14.089969001996582"><ele>887.5</ele><time>2026-04-09T09:54:25Z</time></trkpt><trkpt lat="37.81180252974496" lon="14.08997421416673"><ele>890.0</ele><time>2026-04-09T09:55:43Z</time></trkpt><trkpt lat="37.811710553439966" lon="14.089966648009243"><ele>892.5</ele><time>2026-04-09T09:55:44Z</time></trkpt><trkpt lat="37.811597626517475" lon="14.089967590380363"><ele>895.0</ele><time>2026-04-09T09:55:45Z</time></trkpt><trkpt lat="37.81148418640853" lon="14.08999737116608"><ele>895.0</ele><time>2026-04-09T09:55:46Z</time></trkpt><trkpt lat="37.811364553152664" lon="14.090029528541276"><ele>895.0</ele><time>2026-04-09T09:55:47Z</time></trkpt><trkpt lat="37.811223739552766" lon="14.090121601687697"><ele>895.0</ele><time>2026-04-09T09:55:48Z</time></trkpt><trkpt lat="37.81109775360361" lon="14.090255665338104"><ele>895.0</ele><time>2026-04-09T09:55:49Z</time></trkpt><trkpt lat="37.81098932756914" lon="14.090390739725903"><ele>893.5</ele><time>2026-04-09T09:55:50Z</time></trkpt><trkpt lat="37.81090788886834" lon="14.090515794680341"><ele>892.0</ele><time>2026-04-09T09:55:51Z</time></trkpt><trkpt lat="37.81082592321167" lon="14.090613037534613"><ele>890.5</ele><time>2026-04-09T09:55:52Z</time></trkpt><trkpt lat="37.81074385345915" lon="14.090710798210415"><ele>889.0</ele><time>2026-04-09T09:55:53Z</time></trkpt><trkpt lat="37.810657868344535" lon="14.090768411065376"><ele>889.0</ele><time>2026-04-09T09:55:54Z</time></trkpt><trkpt lat="37.81056466931269" lon="14.090813853335362"><ele>889.0000000000001</ele><time>2026-04-09T09:55:55Z</time></trkpt><trkpt lat="37.81046758795182" lon="14.090811382471061"><ele>889.0000000000001</ele><time>2026-04-09T09:55:56Z</time></trkpt><trkpt lat="37.81037712134449" lon="14.090785122302064"><ele>889.0</ele><time>2026-04-09T09:55:57Z</time></trkpt><trkpt lat="37.810289010817" lon="14.090731551449833"><ele>889.0</ele><time>2026-04-09T09:55:58Z</time></trkpt><trkpt lat="37.810207807022415" lon="14.09064855829503"><ele>890.6</ele><time>2026-04-09T09:55:59Z</time></trkpt><trkpt lat="37.8101408970698" lon="14.090528902902323"><ele>892.2</ele><time>2026-04-09T09:56:00Z</time></trkpt><trkpt lat="37.81006908580875" lon="14.090402458680929"><ele>893.8000000000001</ele><time>2026-04-09T09:56:01Z</time></trkpt><trkpt lat="37.8099897284676" lon="14.090322628253583"><ele>895.4000000000001</ele><time>2026-04-09T09:56:02Z</time></trkpt><trkpt lat="37.80991012977953" lon="14.090259025208884"><ele>897.0</ele><time>2026-04-09T09:56:03Z</time></trkpt><trkpt lat="37.809803323711606" lon="14.090236095452912"><ele>897.0</ele><time>2026-04-09T09:56:04Z</time></trkpt><trkpt lat="37.80968912991106" lon="14.090250550361818"><ele>897.0</ele><time>2026-04-09T09:56:05Z</time></trkpt><trkpt lat="37.809575075785325" lon="14.090295968473882"><ele>897.0</ele><time>2026-04-09T09:56:06Z</time></trkpt><trkpt lat="37.809449502609496" lon="14.090336784900341"><ele>897.0</ele><time>2026-04-09T09:56:07Z</time></trkpt><trkpt lat="37.809320830247835" lon="14.090375990979584"><ele>898.8</ele><time>2026-04-09T09:56:08Z</time></trkpt><trkpt lat="37.80921418479087" lon="14.09039876486773"><ele>900.6</ele><time>2026-04-09T09:56:09Z</time></trkpt><trkpt lat="37.80911912001587" lon="14.090338923261278"><ele>902.3999999999999</ele><time>2026-04-09T09:56:10Z</time></trkpt><trkpt lat="37.80904062941197" lon="14.09028173343166"><ele>904.1999999999999</ele><time>2026-04-09T09:56:11Z</time></trkpt><trkpt lat="37.80897690596043" lon="14.090177896836346"><ele>906.0</ele><time>2026-04-09T09:56:12Z</time></trkpt><trkpt lat="37.80889102821707" lon="14.090095378197582"><ele>906.0</ele><time>2026-04-09T09:56:13Z</time></trkpt><trkpt lat="37.808782340094105" lon="14.090049073990734"><ele>906.0</ele><time>2026-04-09T09:56:14Z</time></trkpt><trkpt lat="37.808662679539026" lon="14.090024789704309"><ele>906.0</ele><time>2026-04-09T09:56:15Z</time></trkpt><trkpt lat="37.80853068511913" lon="14.089995034790428"><ele>906.0</ele><time>2026-04-09T09:56:16Z</time></trkpt><trkpt lat="37.808393350422804" lon="14.090024305386013"><ele>909.0</ele><time>2026-04-09T09:56:17Z</time></trkpt><trkpt lat="37.808265405571596" lon="14.090067366465025"><ele>912.0</ele><time>2026-04-09T09:56:18Z</time></trkpt><trkpt lat="37.80813654285632" lon="14.090128614382238"><ele>915.0</ele><time>2026-04-09T09:56:19Z</time></trkpt><trkpt lat="37.80799705484511" lon="14.090223947170335"><ele>918.0</ele><time>2026-04-09T09:56:20Z</time></trkpt><trkpt lat="37.807864478166124" lon="14.090328188114205"><ele>918.0</ele><time>2026-04-09T09:56:21Z</time></trkpt><trkpt lat="37.8077188409135" lon="14.090417340482054"><ele>918.0</ele><time>2026-04-09T09:56:22Z</time></trkpt><trkpt lat="37.807583977385875" lon="14.090515073312298"><ele>918.0</ele><time>2026-04-09T09:56:23Z</time></trkpt><trkpt lat="37.80746143342155" lon="14.090603678240118"><ele>916.5</ele><time>2026-04-09T09:56:24Z</time></trkpt><trkpt lat="37.807354562089685" lon="14.090684380757176"><ele>915.0</ele><time>2026-04-09T09:56:25Z</time></trkpt><trkpt lat="37.807262107536744" lon="14.090790020130113"><ele>913.5</ele><time>2026-04-09T09:56:26Z</time></trkpt><trkpt lat="37.80719599639934" lon="14.090942389320764"><ele>912.0</ele><time>2026-04-09T09:56:27Z</time></trkpt><trkpt lat="37.80710865810576" lon="14.091050695132529"><ele>916.6</ele><time>2026-04-09T09:56:28Z</time></trkpt><trkpt lat="37.80703343534395" lon="14.091142363527558"><ele>921.2</ele><time>2026-04-09T09:56:29Z</time></trkpt><trkpt lat="37.80696144898098" lon="14.091191398142621"><ele>925.8</ele><time>2026-04-09T09:56:30Z</time></trkpt><trkpt lat="37.80689933398311" lon="14.091211652474254"><ele>930.4</ele><time>2026-04-09T09:56:31Z</time></trkpt><trkpt lat="37.80678235533976" lon="14.091149089268587"><ele>935.0</ele><time>2026-04-09T09:56:33Z</time></trkpt><trkpt lat="37.806692454206434" lon="14.091105542618154"><ele>935.0</ele><time>2026-04-09T09:56:34Z</time></trkpt><trkpt lat="37.80660668474767" lon="14.091007877624934"><ele>935.0</ele><time>2026-04-09T09:56:35Z</time></trkpt><trkpt lat="37.80650237780466" lon="14.09091134429493"><ele>935.0</ele><time>2026-04-09T09:56:36Z</time></trkpt><trkpt lat="37.80639943248449" lon="14.09084347367555"><ele>935.0</ele><time>2026-04-09T09:56:37Z</time></trkpt><trkpt lat="37.80632005812075" lon="14.090769978053332"><ele>933.3333333333334</ele><time>2026-04-09T09:56:38Z</time></trkpt><trkpt lat="37.80627858236787" lon="14.090671733272524"><ele>931.6666666666667</ele><time>2026-04-09T09:56:39Z</time></trkpt><trkpt lat="37.806266015680634" lon="14.09056038657575"><ele>930.0</ele><time>2026-04-09T09:56:40Z</time></trkpt><trkpt lat="37.806269192422334" lon="14.090447190708828"><ele>928.3333333333333</ele><time>2026-04-09T09:56:41Z</time></trkpt><trkpt lat="37.80624523658826" lon="14.090354047935488"><ele>926.6666666666666</ele><time>2026-04-09T09:56:42Z</time></trkpt><trkpt lat="37.80619306174978" lon="14.09028537105728"><ele>925.0</ele><time>2026-04-09T09:56:43Z</time></trkpt><trkpt lat="37.806116680785564" lon="14.090250419345557"><ele>924.9999999999999</ele><time>2026-04-09T09:56:44Z</time></trkpt><trkpt lat="37.8060374353803" lon="14.090258367092243"><ele>925.0</ele><time>2026-04-09T09:56:45Z</time></trkpt><trkpt lat="37.80597428667356" lon="14.090309555098727"><ele>925.0</ele><time>2026-04-09T09:56:46Z</time></trkpt><trkpt lat="37.80593359879676" lon="14.09041181964622"><ele>925.0</ele><time>2026-04-09T09:56:46.999Z</time></trkpt><trkpt lat="37.80590964614084" lon="14.0905362905231"><ele>924.9999999999999</ele><time>2026-04-09T09:56:47.999Z</time></trkpt><trkpt lat="37.80588463500691" lon="14.090656573770472"><ele>925.0</ele><time>2026-04-09T09:56:48.999Z</time></trkpt><trkpt lat="37.80583399508193" lon="14.090756189789737"><ele>928.8</ele><time>2026-04-09T09:56:49.999Z</time></trkpt><trkpt lat="37.80580202406614" lon="14.09087439714856"><ele>932.6</ele><time>2026-04-09T09:56:51.999Z</time></trkpt><trkpt lat="37.80576117238085" lon="14.090976705399559"><ele>936.4000000000001</ele><time>2026-04-09T09:56:53.999Z</time></trkpt><trkpt lat="37.805684414374866" lon="14.091056234064734"><ele>940.2</ele><time>2026-04-09T09:56:55.999Z</time></trkpt><trkpt lat="37.80559335352546" lon="14.091111119053231"><ele>944.0</ele><time>2026-04-09T09:56:57.999Z</time></trkpt><trkpt lat="37.805488370721804" lon="14.091125616385407"><ele>944.0000000000001</ele><time>2026-04-09T09:56:59.999Z</time></trkpt><trkpt lat="37.805425542695446" lon="14.091132516718705"><ele>944.0</ele><time>2026-04-09T09:57:00.999Z</time></trkpt><trkpt lat="37.80535806524138" lon="14.091137507181704"><ele>944.0</ele><time>2026-04-09T09:57:01.999Z</time></trkpt><trkpt lat="37.80523828075491" lon="14.091148226022314"><ele>944.0</ele><time>2026-04-09T09:57:03.999Z</time></trkpt><trkpt lat="37.805170581206106" lon="14.091154859999206"><ele>944.0000000000001</ele><time>2026-04-09T09:57:04.999Z</time></trkpt><trkpt lat="37.805098626140584" lon="14.091158785182408"><ele>944.0</ele><time>2026-04-09T09:57:05.999Z</time></trkpt><trkpt lat="37.80503487174501" lon="14.091173624918474"><ele>942.6666666666667</ele><time>2026-04-09T09:57:06.999Z</time></trkpt><trkpt lat="37.804944008662346" lon="14.091122750714945"><ele>941.3333333333334</ele><time>2026-04-09T09:57:08.999Z</time></trkpt><trkpt lat="37.804851641948574" lon="14.091078854923529"><ele>940.0</ele><time>2026-04-09T09:57:10.999Z</time></trkpt><trkpt lat="37.804787651607704" lon="14.091074266640126"><ele>938.6666666666667</ele><time>2026-04-09T09:57:11.999Z</time></trkpt><trkpt lat="37.80471857761574" lon="14.09111586430321"><ele>937.3333333333334</ele><time>2026-04-09T09:57:12.999Z</time></trkpt><trkpt lat="37.804662877666665" lon="14.091164750695912"><ele>936.0</ele><time>2026-04-09T09:57:13.999Z</time></trkpt><trkpt lat="37.80456441855268" lon="14.0912352696291"><ele>936.0</ele><time>2026-04-09T09:57:15.999Z</time></trkpt><trkpt lat="37.804471215148524" lon="14.091255977018744"><ele>936.0</ele><time>2026-04-09T09:57:17.999Z</time></trkpt><trkpt lat="37.80436732819011" lon="14.091300154978677"><ele>936.0</ele><time>2026-04-09T09:57:19.999Z</time></trkpt><trkpt lat="37.804329664856894" lon="14.09136544219685"><ele>936.0</ele><time>2026-04-09T09:57:20.999Z</time></trkpt><trkpt lat="37.80431868288954" lon="14.091456415419175"><ele>936.0</ele><time>2026-04-09T09:57:21.999Z</time></trkpt><trkpt lat="37.80432637903535" lon="14.091538963693344"><ele>936.0</ele><time>2026-04-09T09:57:22.999Z</time></trkpt><trkpt lat="37.804328347551085" lon="14.091664668688091"><ele>938.6666666666666</ele><time>2026-04-09T09:57:24.999Z</time></trkpt><trkpt lat="37.80428000143594" lon="14.091777298100297"><ele>941.3333333333333</ele><time>2026-04-09T09:57:26.999Z</time></trkpt><trkpt lat="37.80424384959145" lon="14.091843975484487"><ele>944.0</ele><time>2026-04-09T09:57:27.999Z</time></trkpt><trkpt lat="37.80420784240729" lon="14.091920146644625"><ele>946.6666666666666</ele><time>2026-04-09T09:57:28.999Z</time></trkpt><trkpt lat="37.80418218781915" lon="14.092018089018774"><ele>949.3333333333333</ele><time>2026-04-09T09:57:29.999Z</time></trkpt><trkpt lat="37.80417742442133" lon="14.092123274830556"><ele>952.0</ele><time>2026-04-09T09:57:30.999Z</time></trkpt><trkpt lat="37.80416697937756" lon="14.092225609961448"><ele>951.9999999999999</ele><time>2026-04-09T09:57:31.999Z</time></trkpt><trkpt lat="37.80415952493907" lon="14.092315870789282"><ele>952.0</ele><time>2026-04-09T09:57:32.999Z</time></trkpt><trkpt lat="37.80415174702654" lon="14.092398256533405"><ele>952.0</ele><time>2026-04-09T09:57:33.999Z</time></trkpt><trkpt lat="37.8041437237719" lon="14.092483241434806"><ele>952.0</ele><time>2026-04-09T09:57:34.999Z</time></trkpt><trkpt lat="37.80413177697227" lon="14.092567963775064"><ele>951.9999999999999</ele><time>2026-04-09T09:57:35.999Z</time></trkpt><trkpt lat="37.804115007494325" lon="14.09265037385309"><ele>952.0</ele><time>2026-04-09T09:57:36.999Z</time></trkpt><trkpt lat="37.80402359657546" lon="14.092758585859503"><ele>954.1428571428571</ele><time>2026-04-09T09:57:38.999Z</time></trkpt><trkpt lat="37.80395764175683" lon="14.092789700745014"><ele>956.2857142857142</ele><time>2026-04-09T09:57:39.999Z</time></trkpt><trkpt lat="37.80388759391643" lon="14.092789281082789"><ele>958.4285714285714</ele><time>2026-04-09T09:57:40.999Z</time></trkpt><trkpt lat="37.80381043768445" lon="14.092796053613569"><ele>960.5714285714286</ele><time>2026-04-09T09:57:41.999Z</time></trkpt><trkpt lat="37.80373382820186" lon="14.092802729986104"><ele>962.7142857142857</ele><time>2026-04-09T09:57:43Z</time></trkpt><trkpt lat="37.803656402615516" lon="14.09281042332438"><ele>964.8571428571429</ele><time>2026-04-09T09:57:44Z</time></trkpt><trkpt lat="37.80358099023462" lon="14.092820862648233"><ele>967.0</ele><time>2026-04-09T09:57:45Z</time></trkpt><trkpt lat="37.80350738790197" lon="14.09283217153211"><ele>963.8333333333333</ele><time>2026-04-09T09:57:46Z</time></trkpt><trkpt lat="37.803442668232684" lon="14.092846155545596"><ele>960.6666666666666</ele><time>2026-04-09T09:57:47Z</time></trkpt><trkpt lat="37.80337225302922" lon="14.092870521516161"><ele>957.5</ele><time>2026-04-09T09:57:48Z</time></trkpt><trkpt lat="37.80330177476593" lon="14.092906343108455"><ele>954.3333333333333</ele><time>2026-04-09T09:57:49Z</time></trkpt><trkpt lat="37.8032391402206" lon="14.092967526859946"><ele>951.1666666666666</ele><time>2026-04-09T09:57:50Z</time></trkpt><trkpt lat="37.803149175019" lon="14.093079793041985"><ele>948.0</ele><time>2026-04-09T09:57:52Z</time></trkpt><trkpt lat="37.80310155995871" lon="14.093148362943444"><ele>948.0</ele><time>2026-04-09T09:57:53Z</time></trkpt><trkpt lat="37.80305507382894" lon="14.093215765390285"><ele>948.0</ele><time>2026-04-09T09:57:54Z</time></trkpt><trkpt lat="37.803004245330555" lon="14.093304745790196"><ele>948.0</ele><time>2026-04-09T09:57:55Z</time></trkpt><trkpt lat="37.8029592425297" lon="14.093402175660739"><ele>948.0</ele><time>2026-04-09T09:57:56Z</time></trkpt><trkpt lat="37.80294328778468" lon="14.09352621292592"><ele>948.0</ele><time>2026-04-09T09:57:57Z</time></trkpt><trkpt lat="37.802936967458045" lon="14.093635575299245"><ele>948.0</ele><time>2026-04-09T09:57:58Z</time></trkpt><trkpt lat="37.80292105127599" lon="14.093733653955347"><ele>952.0</ele><time>2026-04-09T09:57:59Z</time></trkpt><trkpt lat="37.802883494198426" lon="14.093848675393648"><ele>956.0</ele><time>2026-04-09T09:58:00Z</time></trkpt><trkpt lat="37.80282344797617" lon="14.09396284532521"><ele>960.0</ele><time>2026-04-09T09:58:01Z</time></trkpt><trkpt lat="37.80274620333539" lon="14.094058060124038"><ele>964.0</ele><time>2026-04-09T09:58:02Z</time></trkpt><trkpt lat="37.80267464753423" lon="14.094150136724311"><ele>968.0</ele><time>2026-04-09T09:58:03Z</time></trkpt><trkpt lat="37.80260927583925" lon="14.094232840282187"><ele>968.0</ele><time>2026-04-09T09:58:04Z</time></trkpt><trkpt lat="37.802541265608454" lon="14.094311941652798"><ele>968.0</ele><time>2026-04-09T09:58:05Z</time></trkpt><trkpt lat="37.802462951467035" lon="14.094388264399553"><ele>968.0</ele><time>2026-04-09T09:58:06Z</time></trkpt><trkpt lat="37.80237939335659" lon="14.094456193222737"><ele>968.0</ele><time>2026-04-09T09:58:07Z</time></trkpt><trkpt lat="37.80230218591751" lon="14.094512051616254"><ele>968.0</ele><time>2026-04-09T09:58:08Z</time></trkpt><trkpt lat="37.80222749965195" lon="14.094566160182572"><ele>968.0</ele><time>2026-04-09T09:58:09Z</time></trkpt><trkpt lat="37.80215607058161" lon="14.094653149746293"><ele>968.0</ele><time>2026-04-09T09:58:10Z</time></trkpt><trkpt lat="37.80210033004021" lon="14.094758864622028"><ele>968.0</ele><time>2026-04-09T09:58:11Z</time></trkpt><trkpt lat="37.80205784012536" lon="14.094852901916541"><ele>968.0</ele><time>2026-04-09T09:58:12Z</time></trkpt><trkpt lat="37.802020171349504" lon="14.094940979504644"><ele>968.0</ele><time>2026-04-09T09:58:13Z</time></trkpt><trkpt lat="37.80197950553019" lon="14.095048937193633"><ele>975.25</ele><time>2026-04-09T09:58:13.999Z</time></trkpt><trkpt lat="37.80194507733285" lon="14.095176849619929"><ele>982.5</ele><time>2026-04-09T09:58:14.999Z</time></trkpt><trkpt lat="37.80192137475268" lon="14.095323945544754"><ele>989.75</ele><time>2026-04-09T09:58:15.999Z</time></trkpt><trkpt lat="37.80189998318643" lon="14.095493209909625"><ele>997.0</ele><time>2026-04-09T09:58:16.999Z</time></trkpt><trkpt lat="37.80187365976746" lon="14.095696440258466"><ele>1002.0</ele><time>2026-04-09T09:58:17.999Z</time></trkpt><trkpt lat="37.80184025407772" lon="14.095897662984815"><ele>1007.0</ele><time>2026-04-09T09:58:18.999Z</time></trkpt><trkpt lat="37.80178748819144" lon="14.096065612884564"><ele>1012.0</ele><time>2026-04-09T09:58:19.999Z</time></trkpt><trkpt lat="37.801696253114436" lon="14.096207017080095"><ele>1007.0</ele><time>2026-04-09T09:58:20.999Z</time></trkpt><trkpt lat="37.80156817633307" lon="14.096338365781948"><ele>1002.0</ele><time>2026-04-09T09:58:21.999Z</time></trkpt><trkpt lat="37.80141079677169" lon="14.0964710503007"><ele>997.0</ele><time>2026-04-09T09:58:22.999Z</time></trkpt><trkpt lat="37.801234133819655" lon="14.09661611430772"><ele>997.0</ele><time>2026-04-09T09:58:23.999Z</time></trkpt><trkpt lat="37.801044015165495" lon="14.096773818599317"><ele>997.0</ele><time>2026-04-09T09:58:24.999Z</time></trkpt><trkpt lat="37.80087395923149" lon="14.096914744679857"><ele>997.0</ele><time>2026-04-09T09:58:25.999Z</time></trkpt><trkpt lat="37.80073017222402" lon="14.097035160165339"><ele>992.5</ele><time>2026-04-09T09:58:26.999Z</time></trkpt><trkpt lat="37.80060266473836" lon="14.097141942165726"><ele>988.0</ele><time>2026-04-09T09:58:27.999Z</time></trkpt><trkpt lat="37.80049451052185" lon="14.097213851207162"><ele>983.5</ele><time>2026-04-09T09:58:28.999Z</time></trkpt><trkpt lat="37.800378111630174" lon="14.09723771026086"><ele>979.0</ele><time>2026-04-09T09:58:29.999Z</time></trkpt><trkpt lat="37.800249432598335" lon="14.097228643706796"><ele>981.75</ele><time>2026-04-09T09:58:30.999Z</time></trkpt><trkpt lat="37.80010937669401" lon="14.097251844074822"><ele>984.5</ele><time>2026-04-09T09:58:31.999Z</time></trkpt><trkpt lat="37.79998082858635" lon="14.097282369866726"><ele>987.25</ele><time>2026-04-09T09:58:32.999Z</time></trkpt><trkpt lat="37.79984095038209" lon="14.097393857015751"><ele>990.0</ele><time>2026-04-09T09:58:33.999Z</time></trkpt><trkpt lat="37.79972685364639" lon="14.097489840485832"><ele>990.0</ele><time>2026-04-09T09:58:34.999Z</time></trkpt><trkpt lat="37.79961619266607" lon="14.097556557471853"><ele>990.0</ele><time>2026-04-09T09:58:35.999Z</time></trkpt><trkpt lat="37.799490897704224" lon="14.097586088920973"><ele>990.0</ele><time>2026-04-09T09:58:36.999Z</time></trkpt><trkpt lat="37.79935528852167" lon="14.097571087277412"><ele>990.0</ele><time>2026-04-09T09:58:37.999Z</time></trkpt><trkpt lat="37.79920218122884" lon="14.097501358536581"><ele>980.6666666666667</ele><time>2026-04-09T09:58:38.999Z</time></trkpt><trkpt lat="37.79901751407461" lon="14.097404559339124"><ele>971.3333333333334</ele><time>2026-04-09T09:58:39.999Z</time></trkpt><trkpt lat="37.79882130925445" lon="14.097301756559924"><ele>962.0</ele><time>2026-04-09T09:58:40.999Z</time></trkpt><trkpt lat="37.7986060945688" lon="14.09718899332879"><ele>971.5</ele><time>2026-04-09T09:58:41.999Z</time></trkpt><trkpt lat="37.79838908738324" lon="14.09706661337007"><ele>981.0</ele><time>2026-04-09T09:58:42.999Z</time></trkpt><trkpt lat="37.79820666611955" lon="14.096926751624554"><ele>981.0</ele><time>2026-04-09T09:58:43.999Z</time></trkpt><trkpt lat="37.7980472870024" lon="14.096790368405538"><ele>981.0</ele><time>2026-04-09T09:58:44.999Z</time></trkpt><trkpt lat="37.797900305848366" lon="14.096665732608534"><ele>981.0</ele><time>2026-04-09T09:58:45.999Z</time></trkpt><trkpt lat="37.79779133407131" lon="14.096489435630847"><ele>980.75</ele><time>2026-04-09T09:58:46.999Z</time></trkpt><trkpt lat="37.797716517164126" lon="14.096315921651088"><ele>980.5</ele><time>2026-04-09T09:58:47.999Z</time></trkpt><trkpt lat="37.79766056674041" lon="14.09617426810168"><ele>980.25</ele><time>2026-04-09T09:58:48.999Z</time></trkpt><trkpt lat="37.79759138968331" lon="14.096075741117241"><ele>980.0</ele><time>2026-04-09T09:58:49.999Z</time></trkpt><trkpt lat="37.79749326064796" lon="14.096016315365523"><ele>980.0</ele><time>2026-04-09T09:58:50.999Z</time></trkpt><trkpt lat="37.7973710113578" lon="14.095981919944903"><ele>980.0</ele><time>2026-04-09T09:58:51.999Z</time></trkpt><trkpt lat="37.79723612556498" lon="14.096030392364833"><ele>980.0</ele><time>2026-04-09T09:58:52.999Z</time></trkpt><trkpt lat="37.797125294935825" lon="14.096162187750256"><ele>980.0</ele><time>2026-04-09T09:58:53.999Z</time></trkpt><trkpt lat="37.79708821795148" lon="14.09632007625975"><ele>980.0</ele><time>2026-04-09T09:58:54.999Z</time></trkpt><trkpt lat="37.79702550790777" lon="14.09650793243472"><ele>980.0</ele><time>2026-04-09T09:58:55.999Z</time></trkpt><trkpt lat="37.796965082997474" lon="14.09673215064113"><ele>980.0</ele><time>2026-04-09T09:58:56.999Z</time></trkpt><trkpt lat="37.796896216412364" lon="14.09697640305947"><ele>980.5</ele><time>2026-04-09T09:58:57.999Z</time></trkpt><trkpt lat="37.796805717154136" lon="14.0972499589274"><ele>981.0</ele><time>2026-04-09T09:58:58.999Z</time></trkpt><trkpt lat="37.7966943840375" lon="14.09751900788758"><ele>981.0</ele><time>2026-04-09T09:58:59.999Z</time></trkpt><trkpt lat="37.79658451037564" lon="14.097765591916216"><ele>981.0</ele><time>2026-04-09T09:59:00.999Z</time></trkpt><trkpt lat="37.79647824052522" lon="14.097999013484495"><ele>981.0</ele><time>2026-04-09T09:59:01.999Z</time></trkpt><trkpt lat="37.79637498945025" lon="14.098226395994303"><ele>984.3333333333333</ele><time>2026-04-09T09:59:02.999Z</time></trkpt><trkpt lat="37.79629266475786" lon="14.098448284289312"><ele>987.6666666666666</ele><time>2026-04-09T09:59:03.999Z</time></trkpt><trkpt lat="37.796211616260265" lon="14.098643145930634"><ele>991.0</ele><time>2026-04-09T09:59:04.999Z</time></trkpt><trkpt lat="37.79615849868155" lon="14.098846027743624"><ele>990.6666666666666</ele><time>2026-04-09T09:59:05.999Z</time></trkpt><trkpt lat="37.79613254518156" lon="14.099087730113615"><ele>990.3333333333333</ele><time>2026-04-09T09:59:06.999Z</time></trkpt><trkpt lat="37.79611060263692" lon="14.09935460744493"><ele>990.0</ele><time>2026-04-09T09:59:07.999Z</time></trkpt><trkpt lat="37.79610041206248" lon="14.099595277323193"><ele>990.0</ele><time>2026-04-09T09:59:08.999Z</time></trkpt><trkpt lat="37.79608848521475" lon="14.099800138558958"><ele>990.0</ele><time>2026-04-09T09:59:09.999Z</time></trkpt><trkpt lat="37.796063264355695" lon="14.099986341348796"><ele>990.0</ele><time>2026-04-09T09:59:10.999Z</time></trkpt><trkpt lat="37.79600603866541" lon="14.100150102286321"><ele>983.75</ele><time>2026-04-09T09:59:11.999Z</time></trkpt><trkpt lat="37.79592082259113" lon="14.10027883458808"><ele>977.5</ele><time>2026-04-09T09:59:12.999Z</time></trkpt><trkpt lat="37.79580568647938" lon="14.100388910396731"><ele>971.25</ele><time>2026-04-09T09:59:13.999Z</time></trkpt><trkpt lat="37.79565448615553" lon="14.100445555206162"><ele>965.0</ele><time>2026-04-09T09:59:14.999Z</time></trkpt><trkpt lat="37.79546871972242" lon="14.100503649653618"><ele>965.0</ele><time>2026-04-09T09:59:15.999Z</time></trkpt><trkpt lat="37.79528443181284" lon="14.100563157138803"><ele>965.0</ele><time>2026-04-09T09:59:16.999Z</time></trkpt><trkpt lat="37.795124447924735" lon="14.100626409703116"><ele>965.0</ele><time>2026-04-09T09:59:17.999Z</time></trkpt><trkpt lat="37.79498339958808" lon="14.100710058349213"><ele>968.0</ele><time>2026-04-09T09:59:18.999Z</time></trkpt><trkpt lat="37.794879449203684" lon="14.100861595263927"><ele>971.0</ele><time>2026-04-09T09:59:19.999Z</time></trkpt><trkpt lat="37.79478170906673" lon="14.101028972764128"><ele>974.0</ele><time>2026-04-09T09:59:20.999Z</time></trkpt><trkpt lat="37.79468929462102" lon="14.101233050979586"><ele>974.0</ele><time>2026-04-09T09:59:21.999Z</time></trkpt><trkpt lat="37.79457566162541" lon="14.101454869525888"><ele>974.0</ele><time>2026-04-09T09:59:22.999Z</time></trkpt><trkpt lat="37.79446923743009" lon="14.101708470061249"><ele>974.0</ele><time>2026-04-09T09:59:23.999Z</time></trkpt><trkpt lat="37.79436621194501" lon="14.101952810895696"><ele>972.3333333333334</ele><time>2026-04-09T09:59:24.999Z</time></trkpt><trkpt lat="37.794272663165906" lon="14.102176718256183"><ele>970.6666666666667</ele><time>2026-04-09T09:59:25.999Z</time></trkpt><trkpt lat="37.794213266821366" lon="14.10239637937934"><ele>969.0</ele><time>2026-04-09T09:59:26.999Z</time></trkpt><trkpt lat="37.79417133117257" lon="14.102611289956416"><ele>972.3333333333333</ele><time>2026-04-09T09:59:27.999Z</time></trkpt><trkpt lat="37.79412079739777" lon="14.10282893765392"><ele>975.6666666666666</ele><time>2026-04-09T09:59:28.999Z</time></trkpt><trkpt lat="37.794082954217394" lon="14.103032310267677"><ele>979.0</ele><time>2026-04-09T09:59:29.999Z</time></trkpt><trkpt lat="37.79398170626145" lon="14.103205761986628"><ele>982.6666666666666</ele><time>2026-04-09T09:59:30.999Z</time></trkpt><trkpt lat="37.79385812537913" lon="14.103372279040697"><ele>986.3333333333333</ele><time>2026-04-09T09:59:31.999Z</time></trkpt><trkpt lat="37.79371354873358" lon="14.103559071496402"><ele>990.0</ele><time>2026-04-09T09:59:32.999Z</time></trkpt><trkpt lat="37.79355744819305" lon="14.10375666469292"><ele>989.0</ele><time>2026-04-09T09:59:33.999Z</time></trkpt><trkpt lat="37.79338930238994" lon="14.103961538966638"><ele>988.0</ele><time>2026-04-09T09:59:34.999Z</time></trkpt><trkpt lat="37.79320658530917" lon="14.104157804260423"><ele>988.0</ele><time>2026-04-09T09:59:35.999Z</time></trkpt><trkpt lat="37.79301911668684" lon="14.104329360289231"><ele>988.0</ele><time>2026-04-09T09:59:36.999Z</time></trkpt><trkpt lat="37.79283842811043" lon="14.104483687674975"><ele>988.0</ele><time>2026-04-09T09:59:37.999Z</time></trkpt><trkpt lat="37.79266722306694" lon="14.104623601348276"><ele>988.6666666666666</ele><time>2026-04-09T09:59:38.999Z</time></trkpt><trkpt lat="37.79250907751912" lon="14.10475284242813"><ele>989.3333333333333</ele><time>2026-04-09T09:59:39.999Z</time></trkpt><trkpt lat="37.792363489106165" lon="14.104881202652772"><ele>990.0</ele><time>2026-04-09T09:59:40.999Z</time></trkpt><trkpt lat="37.79222987358154" lon="14.105031609186257"><ele>990.0</ele><time>2026-04-09T09:59:41.999Z</time></trkpt><trkpt lat="37.792110110947995" lon="14.105199809238568"><ele>990.0</ele><time>2026-04-09T09:59:42.999Z</time></trkpt><trkpt lat="37.79199516002728" lon="14.105364122383738"><ele>990.0</ele><time>2026-04-09T09:59:43.999Z</time></trkpt><trkpt lat="37.79187672029992" lon="14.105533629808832"><ele>990.3333333333333</ele><time>2026-04-09T09:59:44.999Z</time></trkpt><trkpt lat="37.79176220348996" lon="14.10569781424974"><ele>990.6666666666666</ele><time>2026-04-09T09:59:45.999Z</time></trkpt><trkpt lat="37.79164936646256" lon="14.105859590365991"><ele>991.0</ele><time>2026-04-09T09:59:46.999Z</time></trkpt><trkpt lat="37.791539409134884" lon="14.106017237792221"><ele>991.0</ele><time>2026-04-09T09:59:47.999Z</time></trkpt><trkpt lat="37.79143434505046" lon="14.106177653883664"><ele>991.0</ele><time>2026-04-09T09:59:48.999Z</time></trkpt><trkpt lat="37.791318450323644" lon="14.106337812574141"><ele>991.0</ele><time>2026-04-09T09:59:49.999Z</time></trkpt><trkpt lat="37.79122476468628" lon="14.106473848077249"><ele>992.25</ele><time>2026-04-09T09:59:50.999Z</time></trkpt><trkpt lat="37.79114198145452" lon="14.106589662367579"><ele>993.5</ele><time>2026-04-09T09:59:51.999Z</time></trkpt><trkpt lat="37.791055728223164" lon="14.10671356255138"><ele>994.75</ele><time>2026-04-09T09:59:52.999Z</time></trkpt><trkpt lat="37.79096422738149" lon="14.10684533410421"><ele>996.0</ele><time>2026-04-09T09:59:53.999Z</time></trkpt><trkpt lat="37.79086321665538" lon="14.106988815219152"><ele>996.0</ele><time>2026-04-09T09:59:54.999Z</time></trkpt><trkpt lat="37.790766055462356" lon="14.107128566909177"><ele>996.0</ele><time>2026-04-09T09:59:55.999Z</time></trkpt><trkpt lat="37.79068056215293" lon="14.107252953655344"><ele>996.0</ele><time>2026-04-09T09:59:56.999Z</time></trkpt><trkpt lat="37.79059819262927" lon="14.10737279643745"><ele>996.0</ele><time>2026-04-09T09:59:57.999Z</time></trkpt><trkpt lat="37.79051667242859" lon="14.107491143752165"><ele>996.75</ele><time>2026-04-09T09:59:58.999Z</time></trkpt><trkpt lat="37.79044162423251" lon="14.107627166133268"><ele>997.5</ele><time>2026-04-09T09:59:59.999Z</time></trkpt><trkpt lat="37.79036648346688" lon="14.107750010372262"><ele>998.25</ele><time>2026-04-09T10:00:00.999Z</time></trkpt><trkpt lat="37.79030744501605" lon="14.107871439207344"><ele>999.0</ele><time>2026-04-09T10:00:01.999Z</time></trkpt><trkpt lat="37.7902749580546" lon="14.107998142202717"><ele>999.0</ele><time>2026-04-09T10:00:02.999Z</time></trkpt><trkpt lat="37.79024737698763" lon="14.108137775484511"><ele>999.0</ele><time>2026-04-09T10:00:03.999Z</time></trkpt><trkpt lat="37.79023047271697" lon="14.108299078080956"><ele>999.0</ele><time>2026-04-09T10:00:04.999Z</time></trkpt><trkpt lat="37.790232506336096" lon="14.108466301272456"><ele>999.0</ele><time>2026-04-09T10:00:05.999Z</time></trkpt><trkpt lat="37.790233436894965" lon="14.108628153424922"><ele>999.75</ele><time>2026-04-09T10:00:06.999Z</time></trkpt><trkpt lat="37.79022953391232" lon="14.108800202098331"><ele>1000.5</ele><time>2026-04-09T10:00:07.999Z</time></trkpt><trkpt lat="37.790206440203924" lon="14.108953567438292"><ele>1001.25</ele><time>2026-04-09T10:00:08.999Z</time></trkpt><trkpt lat="37.790200251465215" lon="14.109111672333333"><ele>1002.0</ele><time>2026-04-09T10:00:09.999Z</time></trkpt><trkpt lat="37.7901984177551" lon="14.109265770851186"><ele>1002.25</ele><time>2026-04-09T10:00:10.999Z</time></trkpt><trkpt lat="37.790196334819214" lon="14.109427791083693"><ele>1002.5</ele><time>2026-04-09T10:00:11.999Z</time></trkpt><trkpt lat="37.79020052103042" lon="14.10959630321363"><ele>1002.75</ele><time>2026-04-09T10:00:12.999Z</time></trkpt><trkpt lat="37.7902221197128" lon="14.109767125115864"><ele>1003.0</ele><time>2026-04-09T10:00:13.999Z</time></trkpt><trkpt lat="37.7902550271282" lon="14.109954384829916"><ele>1003.0</ele><time>2026-04-09T10:00:14.999Z</time></trkpt><trkpt lat="37.79030692944587" lon="14.110153983094136"><ele>1003.0</ele><time>2026-04-09T10:00:15.999Z</time></trkpt><trkpt lat="37.790366177900424" lon="14.110335733369789"><ele>1003.0</ele><time>2026-04-09T10:00:16.999Z</time></trkpt><trkpt lat="37.79042544020728" lon="14.110488907758189"><ele>1003.0</ele><time>2026-04-09T10:00:17.999Z</time></trkpt><trkpt lat="37.79047394089327" lon="14.110622131022891"><ele>1003.0</ele><time>2026-04-09T10:00:18.999Z</time></trkpt><trkpt lat="37.79052064328496" lon="14.110756886586891"><ele>1003.0</ele><time>2026-04-09T10:00:19.999Z</time></trkpt><trkpt lat="37.79056668969005" lon="14.110890074848797"><ele>1003.0</ele><time>2026-04-09T10:00:20.999Z</time></trkpt><trkpt lat="37.79062081630874" lon="14.11102727738854"><ele>1002.0</ele><time>2026-04-09T10:00:21.999Z</time></trkpt><trkpt lat="37.790687158352036" lon="14.11118566286806"><ele>1001.0</ele><time>2026-04-09T10:00:22.999Z</time></trkpt><trkpt lat="37.7907588511821" lon="14.11136920423378"><ele>1000.0</ele><time>2026-04-09T10:00:23.999Z</time></trkpt><trkpt lat="37.79082459112565" lon="14.111568500934917"><ele>999.75</ele><time>2026-04-09T10:00:24.999Z</time></trkpt><trkpt lat="37.79088366403901" lon="14.111745767198899"><ele>999.5</ele><time>2026-04-09T10:00:25.999Z</time></trkpt><trkpt lat="37.79094740175039" lon="14.111893844885708"><ele>999.25</ele><time>2026-04-09T10:00:26.999Z</time></trkpt><trkpt lat="37.79101986057319" lon="14.112026137994519"><ele>999.0</ele><time>2026-04-09T10:00:27.999Z</time></trkpt><trkpt lat="37.79110133722818" lon="14.112158371265801"><ele>1002.6666666666667</ele><time>2026-04-09T10:00:28.999Z</time></trkpt><trkpt lat="37.791207998010115" lon="14.112306640333868"><ele>1006.3333333333334</ele><time>2026-04-09T10:00:29.999Z</time></trkpt><trkpt lat="37.79132718862261" lon="14.112479834900801"><ele>1010.0</ele><time>2026-04-09T10:00:30.999Z</time></trkpt><trkpt lat="37.79145674277602" lon="14.112682355930046"><ele>1010.0</ele><time>2026-04-09T10:00:31.999Z</time></trkpt><trkpt lat="37.79159153779995" lon="14.112882104357947"><ele>1010.0</ele><time>2026-04-09T10:00:32.999Z</time></trkpt><trkpt lat="37.79173566335887" lon="14.11308645915382"><ele>1010.0</ele><time>2026-04-09T10:00:33.999Z</time></trkpt><trkpt lat="37.79185983099312" lon="14.113271844805018"><ele>1010.6666666666667</ele><time>2026-04-09T10:00:34.999Z</time></trkpt><trkpt lat="37.79196505132205" lon="14.1134383734084"><ele>1011.3333333333333</ele><time>2026-04-09T10:00:35.999Z</time></trkpt><trkpt lat="37.792076187589096" lon="14.113580200878022"><ele>1012.0</ele><time>2026-04-09T10:00:36.999Z</time></trkpt><trkpt lat="37.79221363624463" lon="14.113705240011335"><ele>1012.0</ele><time>2026-04-09T10:00:37.999Z</time></trkpt><trkpt lat="37.79238686513494" lon="14.113821499258705"><ele>1012.0</ele><time>2026-04-09T10:00:38.999Z</time></trkpt><trkpt lat="37.792564054918216" lon="14.113943493508511"><ele>1012.0</ele><time>2026-04-09T10:00:39.999Z</time></trkpt><trkpt lat="37.792718904810414" lon="14.1140499363396"><ele>1011.6666666666666</ele><time>2026-04-09T10:00:40.999Z</time></trkpt><trkpt lat="37.79285761665002" lon="14.1141510167209"><ele>1011.3333333333333</ele><time>2026-04-09T10:00:41.999Z</time></trkpt><trkpt lat="37.79298564086634" lon="14.114245799596597"><ele>1011.0</ele><time>2026-04-09T10:00:42.999Z</time></trkpt><trkpt lat="37.79311005767373" lon="14.11433134148091"><ele>1011.0</ele><time>2026-04-09T10:00:43.999Z</time></trkpt><trkpt lat="37.793250288942126" lon="14.114390691148497"><ele>1011.0</ele><time>2026-04-09T10:00:44.999Z</time></trkpt><trkpt lat="37.793429639746535" lon="14.114410206344157"><ele>1011.0</ele><time>2026-04-09T10:00:45.999Z</time></trkpt><trkpt lat="37.79363565874579" lon="14.114387740730166"><ele>1012.6666666666667</ele><time>2026-04-09T10:00:46.999Z</time></trkpt><trkpt lat="37.79384906059705" lon="14.11435204197485"><ele>1014.3333333333334</ele><time>2026-04-09T10:00:47.999Z</time></trkpt><trkpt lat="37.79404141499896" lon="14.114330130743246"><ele>1016.0</ele><time>2026-04-09T10:00:48.999Z</time></trkpt><trkpt lat="37.79421115384736" lon="14.114308194145606"><ele>1014.0</ele><time>2026-04-09T10:00:49.999Z</time></trkpt><trkpt lat="37.79437780037637" lon="14.114260405244176"><ele>1012.0</ele><time>2026-04-09T10:00:50.999Z</time></trkpt><trkpt lat="37.79454203011629" lon="14.114155031360413"><ele>1010.0</ele><time>2026-04-09T10:00:51.999Z</time></trkpt><trkpt lat="37.79469984624533" lon="14.1139986736579"><ele>1014.6666666666667</ele><time>2026-04-09T10:00:52.999Z</time></trkpt><trkpt lat="37.79484835127193" lon="14.11381016290974"><ele>1019.3333333333333</ele><time>2026-04-09T10:00:53.999Z</time></trkpt><trkpt lat="37.794986976503786" lon="14.113630250489281"><ele>1024.0</ele><time>2026-04-09T10:00:54.999Z</time></trkpt><trkpt lat="37.795122722513376" lon="14.11348799804049"><ele>1021.6666666666666</ele><time>2026-04-09T10:00:55.999Z</time></trkpt><trkpt lat="37.79527303609409" lon="14.113388583363156"><ele>1019.3333333333333</ele><time>2026-04-09T10:00:56.999Z</time></trkpt><trkpt lat="37.7954495886366" lon="14.113320369635577"><ele>1017.0</ele><time>2026-04-09T10:00:57.999Z</time></trkpt><trkpt lat="37.795653726582735" lon="14.113282055967638"><ele>1022.6666666666667</ele><time>2026-04-09T10:00:58.999Z</time></trkpt><trkpt lat="37.795866885326284" lon="14.113234291952246"><ele>1028.3333333333335</ele><time>2026-04-09T10:00:59.999Z</time></trkpt><trkpt lat="37.79608443773605" lon="14.113181329121844"><ele>1034.0</ele><time>2026-04-09T10:01:00.999Z</time></trkpt><trkpt lat="37.79630437906506" lon="14.113125926163761"><ele>1034.0</ele><time>2026-04-09T10:01:01.999Z</time></trkpt><trkpt lat="37.79652563077478" lon="14.113076247883209"><ele>1034.0</ele><time>2026-04-09T10:01:02.999Z</time></trkpt><trkpt lat="37.79674778261081" lon="14.113022868955566"><ele>1033.3333333333335</ele><time>2026-04-09T10:01:03.999Z</time></trkpt><trkpt lat="37.79696970531626" lon="14.112981428154178"><ele>1032.6666666666667</ele><time>2026-04-09T10:01:04.999Z</time></trkpt><trkpt lat="37.797183648357844" lon="14.112963073751727"><ele>1032.0</ele><time>2026-04-09T10:01:05.999Z</time></trkpt><trkpt lat="37.79740239441423" lon="14.112957155870474"><ele>1032.0</ele><time>2026-04-09T10:01:06.999Z</time></trkpt><trkpt lat="37.79762619408668" lon="14.112941551239784"><ele>1032.0</ele><time>2026-04-09T10:01:07.999Z</time></trkpt><trkpt lat="37.797858494630006" lon="14.112901357877693"><ele>1030.0</ele><time>2026-04-09T10:01:08.999Z</time></trkpt><trkpt lat="37.79810196862221" lon="14.112837414815097"><ele>1028.0</ele><time>2026-04-09T10:01:09.999Z</time></trkpt><trkpt lat="37.79834575306121" lon="14.112769567930082"><ele>1028.0</ele><time>2026-04-09T10:01:10.999Z</time></trkpt><trkpt lat="37.798584122608894" lon="14.112706278155756"><ele>1028.0</ele><time>2026-04-09T10:01:11.999Z</time></trkpt><trkpt lat="37.79880343786221" lon="14.112648244223669"><ele>1028.0</ele><time>2026-04-09T10:01:12.999Z</time></trkpt><trkpt lat="37.79901230846648" lon="14.112593179481685"><ele>1028.0</ele><time>2026-04-09T10:01:13.999Z</time></trkpt><trkpt lat="37.799204505438574" lon="14.112539899745673"><ele>1028.0</ele><time>2026-04-09T10:01:14.999Z</time></trkpt><trkpt lat="37.79938118122636" lon="14.112492995429427"><ele>1028.3333333333335</ele><time>2026-04-09T10:01:15.999Z</time></trkpt><trkpt lat="37.79956310494204" lon="14.112469145369667"><ele>1028.6666666666667</ele><time>2026-04-09T10:01:16.999Z</time></trkpt><trkpt lat="37.79976611809647" lon="14.112474027715841"><ele>1029.0</ele><time>2026-04-09T10:01:17.999Z</time></trkpt><trkpt lat="37.79999604596739" lon="14.112507367400363"><ele>1029.0</ele><time>2026-04-09T10:01:18.999Z</time></trkpt><trkpt lat="37.80022641618992" lon="14.112558903925834"><ele>1029.0</ele><time>2026-04-09T10:01:19.999Z</time></trkpt><trkpt lat="37.80043889075756" lon="14.112618848156172"><ele>1029.0</ele><time>2026-04-09T10:01:20.999Z</time></trkpt><trkpt lat="37.8006380149226" lon="14.112675555185756"><ele>1029.0</ele><time>2026-04-09T10:01:21.999Z</time></trkpt><trkpt lat="37.80082771921575" lon="14.112719419669492"><ele>1029.0</ele><time>2026-04-09T10:01:22.999Z</time></trkpt><trkpt lat="37.801010789283886" lon="14.11275583891574"><ele>1032.6666666666667</ele><time>2026-04-09T10:01:23.999Z</time></trkpt><trkpt lat="37.8011807837973" lon="14.112797824200781"><ele>1036.3333333333335</ele><time>2026-04-09T10:01:24.999Z</time></trkpt><trkpt lat="37.801347954197595" lon="14.112865465593725"><ele>1040.0</ele><time>2026-04-09T10:01:25.999Z</time></trkpt><trkpt lat="37.80150796949212" lon="14.112976902963892"><ele>1040.0</ele><time>2026-04-09T10:01:26.999Z</time></trkpt><trkpt lat="37.80163982319453" lon="14.11315826119114"><ele>1040.0</ele><time>2026-04-09T10:01:27.999Z</time></trkpt><trkpt lat="37.801760886088864" lon="14.11334194674638"><ele>1040.0</ele><time>2026-04-09T10:01:28.999Z</time></trkpt><trkpt lat="37.80186871089092" lon="14.113499796697159"><ele>1043.0</ele><time>2026-04-09T10:01:29.999Z</time></trkpt><trkpt lat="37.80194783155069" lon="14.113662488267751"><ele>1046.0</ele><time>2026-04-09T10:01:30.999Z</time></trkpt><trkpt lat="37.80203952674469" lon="14.11380898107988"><ele>1049.0</ele><time>2026-04-09T10:01:31.999Z</time></trkpt><trkpt lat="37.802153791934835" lon="14.113968291403566"><ele>1043.0</ele><time>2026-04-09T10:01:32.999Z</time></trkpt><trkpt lat="37.80226674788819" lon="14.114135470559427"><ele>1037.0</ele><time>2026-04-09T10:01:33.999Z</time></trkpt><trkpt lat="37.80236227938555" lon="14.114318864258976"><ele>1031.0</ele><time>2026-04-09T10:01:34.999Z</time></trkpt><trkpt lat="37.802436231942906" lon="14.114529608483991"><ele>1031.0</ele><time>2026-04-09T10:01:35.999Z</time></trkpt><trkpt lat="37.80249278427847" lon="14.11475446543587"><ele>1031.0</ele><time>2026-04-09T10:01:36.999Z</time></trkpt><trkpt lat="37.80252215810731" lon="14.114966863086638"><ele>1031.0</ele><time>2026-04-09T10:01:37.999Z</time></trkpt><trkpt lat="37.80254803013246" lon="14.11516006737845"><ele>1030.3333333333335</ele><time>2026-04-09T10:01:38.999Z</time></trkpt><trkpt lat="37.802587949029686" lon="14.11533863504476"><ele>1029.6666666666667</ele><time>2026-04-09T10:01:39.999Z</time></trkpt><trkpt lat="37.80265439459423" lon="14.11551118066973"><ele>1029.0</ele><time>2026-04-09T10:01:40.999Z</time></trkpt><trkpt lat="37.802761074368114" lon="14.115673539748627"><ele>1022.6666666666667</ele><time>2026-04-09T10:01:41.999Z</time></trkpt><trkpt lat="37.80290325743922" lon="14.115807147684295"><ele>1016.3333333333334</ele><time>2026-04-09T10:01:42.999Z</time></trkpt><trkpt lat="37.80306099651114" lon="14.115908596352645"><ele>1010.0</ele><time>2026-04-09T10:01:43.999Z</time></trkpt><trkpt lat="37.80322317513384" lon="14.115960372797556"><ele>1010.0</ele><time>2026-04-09T10:01:44.999Z</time></trkpt><trkpt lat="37.80340371524638" lon="14.115974476660432"><ele>1010.0</ele><time>2026-04-09T10:01:45.999Z</time></trkpt><trkpt lat="37.803608355594505" lon="14.115938487847266"><ele>1010.0</ele><time>2026-04-09T10:01:46.999Z</time></trkpt><trkpt lat="37.80380065000813" lon="14.115883036497765"><ele>1009.25</ele><time>2026-04-09T10:01:47.999Z</time></trkpt><trkpt lat="37.80395368140987" lon="14.11588605260756"><ele>1008.5</ele><time>2026-04-09T10:01:48.999Z</time></trkpt><trkpt lat="37.80407459648931" lon="14.115818450145277"><ele>1007.75</ele><time>2026-04-09T10:01:49.999Z</time></trkpt><trkpt lat="37.804188417445545" lon="14.115819099420651"><ele>1007.0</ele><time>2026-04-09T10:01:50.999Z</time></trkpt><trkpt lat="37.80429319188287" lon="14.115860679302017"><ele>1008.25</ele><time>2026-04-09T10:01:51.999Z</time></trkpt><trkpt lat="37.80439100238142" lon="14.115944404312794"><ele>1009.5</ele><time>2026-04-09T10:01:52.999Z</time></trkpt><trkpt lat="37.80446596311742" lon="14.116077770788008"><ele>1010.75</ele><time>2026-04-09T10:01:53.999Z</time></trkpt><trkpt lat="37.80451617363726" lon="14.116266870869831"><ele>1012.0</ele><time>2026-04-09T10:01:54.999Z</time></trkpt><trkpt lat="37.80456392570712" lon="14.116488893737396"><ele>1009.6666666666666</ele><time>2026-04-09T10:01:55.999Z</time></trkpt><trkpt lat="37.80461788610551" lon="14.116737437682312"><ele>1007.3333333333333</ele><time>2026-04-09T10:01:56.999Z</time></trkpt><trkpt lat="37.804677397732206" lon="14.116997028822391"><ele>1005.0</ele><time>2026-04-09T10:01:57.999Z</time></trkpt><trkpt lat="37.80470967032093" lon="14.117256072589466"><ele>1004.6666666666667</ele><time>2026-04-09T10:01:58.999Z</time></trkpt><trkpt lat="37.804694127201884" lon="14.117517070398367"><ele>1004.3333333333334</ele><time>2026-04-09T10:01:59.999Z</time></trkpt><trkpt lat="37.80464875796721" lon="14.117773118196894"><ele>1004.0</ele><time>2026-04-09T10:02:00.999Z</time></trkpt><trkpt lat="37.80459125165447" lon="14.117997631386071"><ele>1004.0</ele><time>2026-04-09T10:02:01.999Z</time></trkpt><trkpt lat="37.80455195523428" lon="14.118193073276046"><ele>1004.0</ele><time>2026-04-09T10:02:02.999Z</time></trkpt><trkpt lat="37.80455103068352" lon="14.118376559342455"><ele>1004.0</ele><time>2026-04-09T10:02:03.999Z</time></trkpt><trkpt lat="37.80459500610588" lon="14.118585742309278"><ele>1006.0</ele><time>2026-04-09T10:02:04.999Z</time></trkpt><trkpt lat="37.8046799944665" lon="14.118804668554853"><ele>1008.0</ele><time>2026-04-09T10:02:05.999Z</time></trkpt><trkpt lat="37.804797672927265" lon="14.119031442011302"><ele>1010.0</ele><time>2026-04-09T10:02:06.999Z</time></trkpt><trkpt lat="37.804937022105705" lon="14.11927576060852"><ele>1010.5</ele><time>2026-04-09T10:02:07.999Z</time></trkpt><trkpt lat="37.805065701838444" lon="14.119519428692648"><ele>1011.0</ele><time>2026-04-09T10:02:08.999Z</time></trkpt><trkpt lat="37.80522434454742" lon="14.119767321506474"><ele>1013.3333333333333</ele><time>2026-04-09T10:02:09.999Z</time></trkpt><trkpt lat="37.80539659612928" lon="14.119983226443383"><ele>1015.6666666666666</ele><time>2026-04-09T10:02:10.999Z</time></trkpt><trkpt lat="37.805547401687996" lon="14.120161649108779"><ele>1018.0</ele><time>2026-04-09T10:02:11.999Z</time></trkpt><trkpt lat="37.805675426226564" lon="14.12032892954645"><ele>1018.0</ele><time>2026-04-09T10:02:12.999Z</time></trkpt><trkpt lat="37.80577728684038" lon="14.120500984530912"><ele>1018.0</ele><time>2026-04-09T10:02:13.999Z</time></trkpt><trkpt lat="37.805851053887" lon="14.120699241036425"><ele>1018.0</ele><time>2026-04-09T10:02:14.999Z</time></trkpt><trkpt lat="37.80589738473476" lon="14.120940088221433"><ele>1016.0</ele><time>2026-04-09T10:02:15.999Z</time></trkpt><trkpt lat="37.80591975465428" lon="14.121221297228175"><ele>1014.0</ele><time>2026-04-09T10:02:16.999Z</time></trkpt><trkpt lat="37.80593295622166" lon="14.121536852020592"><ele>1014.0</ele><time>2026-04-09T10:02:17.999Z</time></trkpt><trkpt lat="37.80595100575254" lon="14.121883049543635"><ele>1014.0</ele><time>2026-04-09T10:02:18.999Z</time></trkpt><trkpt lat="37.805973808729256" lon="14.122257493551984"><ele>1014.0</ele><time>2026-04-09T10:02:19.999Z</time></trkpt><trkpt lat="37.805986861916296" lon="14.122592993662488"><ele>1014.0</ele><time>2026-04-09T10:02:20.999Z</time></trkpt><trkpt lat="37.80598334134389" lon="14.122865771218931"><ele>1014.0</ele><time>2026-04-09T10:02:21.999Z</time></trkpt><trkpt lat="37.80599481399979" lon="14.123109184227614"><ele>1014.0</ele><time>2026-04-09T10:02:22.999Z</time></trkpt><trkpt lat="37.80602985868173" lon="14.123354996845201"><ele>1014.0</ele><time>2026-04-09T10:02:23.999Z</time></trkpt><trkpt lat="37.806099985566156" lon="14.123590135451199"><ele>1017.6666666666667</ele><time>2026-04-09T10:02:24.999Z</time></trkpt><trkpt lat="37.80620916328142" lon="14.123807597988725"><ele>1021.3333333333334</ele><time>2026-04-09T10:02:25.999Z</time></trkpt><trkpt lat="37.80632347761504" lon="14.123999751529743"><ele>1025.0</ele><time>2026-04-09T10:02:26.999Z</time></trkpt><trkpt lat="37.80642108499266" lon="14.124173692433155"><ele>1025.0</ele><time>2026-04-09T10:02:27.999Z</time></trkpt><trkpt lat="37.80648192528401" lon="14.124359517299155"><ele>1025.0</ele><time>2026-04-09T10:02:28.999Z</time></trkpt><trkpt lat="37.80650714522403" lon="14.124565197935151"><ele>1025.0</ele><time>2026-04-09T10:02:29.999Z</time></trkpt><trkpt lat="37.80649705553787" lon="14.124808215307668"><ele>1026.0</ele><time>2026-04-09T10:02:30.999Z</time></trkpt><trkpt lat="37.806464337886545" lon="14.125054909351118"><ele>1027.0</ele><time>2026-04-09T10:02:31.999Z</time></trkpt><trkpt lat="37.80639995230787" lon="14.125300844567313"><ele>1028.0</ele><time>2026-04-09T10:02:32.999Z</time></trkpt><trkpt lat="37.80630187943534" lon="14.125562241955839"><ele>1029.6666666666667</ele><time>2026-04-09T10:02:33.999Z</time></trkpt><trkpt lat="37.80622175158622" lon="14.125794321426305"><ele>1031.3333333333333</ele><time>2026-04-09T10:02:34.999Z</time></trkpt><trkpt lat="37.8061513861598" lon="14.126003018847234"><ele>1033.0</ele><time>2026-04-09T10:02:35.999Z</time></trkpt><trkpt lat="37.80608386888003" lon="14.126200089963653"><ele>1033.0</ele><time>2026-04-09T10:02:36.999Z</time></trkpt><trkpt lat="37.806039387540764" lon="14.126391147883819"><ele>1033.0</ele><time>2026-04-09T10:02:37.999Z</time></trkpt><trkpt lat="37.80602508340857" lon="14.12658288453914"><ele>1033.0</ele><time>2026-04-09T10:02:38.999Z</time></trkpt><trkpt lat="37.806036776687634" lon="14.126768980464375"><ele>1032.6666666666665</ele><time>2026-04-09T10:02:39.999Z</time></trkpt><trkpt lat="37.80607295520568" lon="14.126951417167717"><ele>1032.3333333333333</ele><time>2026-04-09T10:02:40.999Z</time></trkpt><trkpt lat="37.80613851000591" lon="14.127138156885097"><ele>1032.0</ele><time>2026-04-09T10:02:41.999Z</time></trkpt><trkpt lat="37.80623620380286" lon="14.127314936392008"><ele>1028.6666666666667</ele><time>2026-04-09T10:02:42.999Z</time></trkpt><trkpt lat="37.806363477927384" lon="14.1274701884187"><ele>1025.3333333333335</ele><time>2026-04-09T10:02:43.999Z</time></trkpt><trkpt lat="37.80652265114018" lon="14.127588449359287"><ele>1022.0</ele><time>2026-04-09T10:02:44.999Z</time></trkpt><trkpt lat="37.806690591315125" lon="14.127661615896956"><ele>1023.0</ele><time>2026-04-09T10:02:45.999Z</time></trkpt><trkpt lat="37.80685380038694" lon="14.127693655169374"><ele>1024.0</ele><time>2026-04-09T10:02:46.999Z</time></trkpt><trkpt lat="37.806998090693014" lon="14.127706126557237"><ele>1025.0</ele><time>2026-04-09T10:02:47.999Z</time></trkpt><trkpt lat="37.8071276520218" lon="14.127740711553502"><ele>1026.0</ele><time>2026-04-09T10:02:48.999Z</time></trkpt><trkpt lat="37.807245114327095" lon="14.127813447659026"><ele>1026.0</ele><time>2026-04-09T10:02:49.999Z</time></trkpt><trkpt lat="37.80734969603177" lon="14.127917520915094"><ele>1026.0</ele><time>2026-04-09T10:02:50.999Z</time></trkpt><trkpt lat="37.80743852212944" lon="14.12806698462394"><ele>1026.0</ele><time>2026-04-09T10:02:51.999Z</time></trkpt><trkpt lat="37.807511908444695" lon="14.128274702460356"><ele>1022.6666666666667</ele><time>2026-04-09T10:02:52.999Z</time></trkpt><trkpt lat="37.80756718007024" lon="14.128524826546823"><ele>1019.3333333333334</ele><time>2026-04-09T10:02:53.999Z</time></trkpt><trkpt lat="37.80760394106121" lon="14.128786318593583"><ele>1016.0</ele><time>2026-04-09T10:02:54.999Z</time></trkpt><trkpt lat="37.80761991612529" lon="14.1290191858239"><ele>1015.0</ele><time>2026-04-09T10:02:55.999Z</time></trkpt><trkpt lat="37.807622320656506" lon="14.129220196862361"><ele>1014.0</ele><time>2026-04-09T10:02:56.999Z</time></trkpt><trkpt lat="37.807627694992625" lon="14.129390768454464"><ele>1013.0</ele><time>2026-04-09T10:02:57.999Z</time></trkpt><trkpt lat="37.80766328127332" lon="14.129563453087016"><ele>1012.0</ele><time>2026-04-09T10:02:58.999Z</time></trkpt><trkpt lat="37.80773190739593" lon="14.129725825573527"><ele>1013.0</ele><time>2026-04-09T10:02:59.999Z</time></trkpt><trkpt lat="37.8078344111994" lon="14.12985819712835"><ele>1014.0</ele><time>2026-04-09T10:03:00.999Z</time></trkpt><trkpt lat="37.80797094242098" lon="14.12996959712505"><ele>1015.0</ele><time>2026-04-09T10:03:01.999Z</time></trkpt><trkpt lat="37.80814887125712" lon="14.130062612948173"><ele>1015.0</ele><time>2026-04-09T10:03:02.999Z</time></trkpt><trkpt lat="37.808327404797396" lon="14.13015678627778"><ele>1015.0</ele><time>2026-04-09T10:03:03.999Z</time></trkpt><trkpt lat="37.808489441450355" lon="14.130250136533643"><ele>1015.0</ele><time>2026-04-09T10:03:04.999Z</time></trkpt><trkpt lat="37.808639582321646" lon="14.130344016293554"><ele>1014.6666666666666</ele><time>2026-04-09T10:03:05.999Z</time></trkpt><trkpt lat="37.80876850150784" lon="14.13044112274501"><ele>1014.3333333333333</ele><time>2026-04-09T10:03:06.999Z</time></trkpt><trkpt lat="37.80889037866349" lon="14.130581451509402"><ele>1014.0</ele><time>2026-04-09T10:03:07.999Z</time></trkpt><trkpt lat="37.80900065562109" lon="14.130760607153874"><ele>1014.0</ele><time>2026-04-09T10:03:08.999Z</time></trkpt><trkpt lat="37.80909272993675" lon="14.130975824288194"><ele>1014.0</ele><time>2026-04-09T10:03:09.999Z</time></trkpt><trkpt lat="37.80916417537805" lon="14.131230640188733"><ele>1014.0</ele><time>2026-04-09T10:03:10.999Z</time></trkpt><trkpt lat="37.80923241092773" lon="14.131531704285807"><ele>1016.0</ele><time>2026-04-09T10:03:11.999Z</time></trkpt><trkpt lat="37.8093061754628" lon="14.131824253954367"><ele>1018.0</ele><time>2026-04-09T10:03:12.999Z</time></trkpt><trkpt lat="37.809381516022256" lon="14.132092133490861"><ele>1018.0</ele><time>2026-04-09T10:03:13.999Z</time></trkpt><trkpt lat="37.809454968472856" lon="14.13234622254328"><ele>1018.0</ele><time>2026-04-09T10:03:14.999Z</time></trkpt><trkpt lat="37.80951685979547" lon="14.132588046443004"><ele>1018.0</ele><time>2026-04-09T10:03:15.999Z</time></trkpt><trkpt lat="37.80956953982207" lon="14.132815310913793"><ele>1017.3333333333333</ele><time>2026-04-09T10:03:16.999Z</time></trkpt><trkpt lat="37.80962114384017" lon="14.133032924707873"><ele>1016.6666666666667</ele><time>2026-04-09T10:03:17.999Z</time></trkpt><trkpt lat="37.80967469556486" lon="14.133223170753034"><ele>1016.0</ele><time>2026-04-09T10:03:18.999Z</time></trkpt><trkpt lat="37.80974271975661" lon="14.133402266953457"><ele>1014.3333333333334</ele><time>2026-04-09T10:03:19.999Z</time></trkpt><trkpt lat="37.809842945447826" lon="14.133565588974127"><ele>1012.6666666666667</ele><time>2026-04-09T10:03:20.999Z</time></trkpt><trkpt lat="37.809976252722" lon="14.13370721544502"><ele>1011.0</ele><time>2026-04-09T10:03:21.999Z</time></trkpt><trkpt lat="37.81013970719971" lon="14.133808912124447"><ele>1014.6666666666667</ele><time>2026-04-09T10:03:22.999Z</time></trkpt><trkpt lat="37.810321546286985" lon="14.133876856261953"><ele>1018.3333333333334</ele><time>2026-04-09T10:03:23.999Z</time></trkpt><trkpt lat="37.810486198345764" lon="14.13392986074922"><ele>1022.0</ele><time>2026-04-09T10:03:24.999Z</time></trkpt><trkpt lat="37.810646536977025" lon="14.13400648736735"><ele>1022.0</ele><time>2026-04-09T10:03:25.999Z</time></trkpt><trkpt lat="37.81080324047414" lon="14.134109234325393"><ele>1022.0</ele><time>2026-04-09T10:03:26.999Z</time></trkpt><trkpt lat="37.810942448368664" lon="14.134258202180195"><ele>1022.0</ele><time>2026-04-09T10:03:27.999Z</time></trkpt><trkpt lat="37.8110764555779" lon="14.134453460234562"><ele>1022.0</ele><time>2026-04-09T10:03:28.999Z</time></trkpt><trkpt lat="37.81121413990664" lon="14.134680943913123"><ele>1022.0</ele><time>2026-04-09T10:03:29.999Z</time></trkpt><trkpt lat="37.81134155868524" lon="14.134883223002126"><ele>1022.0</ele><time>2026-04-09T10:03:30.999Z</time></trkpt><trkpt lat="37.811442338821394" lon="14.135063961025844"><ele>1019.6666666666667</ele><time>2026-04-09T10:03:31.999Z</time></trkpt><trkpt lat="37.81153313745759" lon="14.1352338980993"><ele>1017.3333333333333</ele><time>2026-04-09T10:03:32.999Z</time></trkpt><trkpt lat="37.81163570255066" lon="14.135377023813865"><ele>1015.0</ele><time>2026-04-09T10:03:33.999Z</time></trkpt><trkpt lat="37.81176563212872" lon="14.135504394584656"><ele>1016.0</ele><time>2026-04-09T10:03:34.999Z</time></trkpt><trkpt lat="37.8119125086976" lon="14.135594583559277"><ele>1017.0</ele><time>2026-04-09T10:03:35.999Z</time></trkpt><trkpt lat="37.81209204805599" lon="14.135635343756002"><ele>1018.0</ele><time>2026-04-09T10:03:36.999Z</time></trkpt><trkpt lat="37.812298278856794" lon="14.135646780801935"><ele>1018.0</ele><time>2026-04-09T10:03:37.999Z</time></trkpt><trkpt lat="37.81252945414694" lon="14.135633460075823"><ele>1018.0</ele><time>2026-04-09T10:03:38.999Z</time></trkpt><trkpt lat="37.812737677852226" lon="14.135625166781395"><ele>1018.0</ele><time>2026-04-09T10:03:39.999Z</time></trkpt><trkpt lat="37.812917928417086" lon="14.135619772625047"><ele>1017.6666666666666</ele><time>2026-04-09T10:03:40.999Z</time></trkpt><trkpt lat="37.81308777712668" lon="14.13561823280542"><ele>1017.3333333333333</ele><time>2026-04-09T10:03:41.999Z</time></trkpt><trkpt lat="37.81324501590739" lon="14.135631156661777"><ele>1017.0</ele><time>2026-04-09T10:03:42.999Z</time></trkpt><trkpt lat="37.813394171278006" lon="14.135678084212435"><ele>1016.6666666666667</ele><time>2026-04-09T10:03:43.999Z</time></trkpt><trkpt lat="37.81353172787698" lon="14.135767767019502"><ele>1016.3333333333334</ele><time>2026-04-09T10:03:44.999Z</time></trkpt><trkpt lat="37.81362896434232" lon="14.135938566802327"><ele>1016.0</ele><time>2026-04-09T10:03:45.999Z</time></trkpt><trkpt lat="37.81373426141041" lon="14.136110160739994"><ele>1016.0</ele><time>2026-04-09T10:03:46.999Z</time></trkpt><trkpt lat="37.813820543480546" lon="14.136271076317277"><ele>1016.0</ele><time>2026-04-09T10:03:47.999Z</time></trkpt><trkpt lat="37.81388990249086" lon="14.136438631530968"><ele>1016.0</ele><time>2026-04-09T10:03:48.999Z</time></trkpt><trkpt lat="37.8138769837356" lon="14.136654423612624"><ele>1013.3333333333334</ele><time>2026-04-09T10:03:49.999Z</time></trkpt><trkpt lat="37.81386647370954" lon="14.136888101430614"><ele>1010.6666666666667</ele><time>2026-04-09T10:03:50.999Z</time></trkpt><trkpt lat="37.81386062243534" lon="14.13708384222898"><ele>1008.0</ele><time>2026-04-09T10:03:51.999Z</time></trkpt><trkpt lat="37.81385610752158" lon="14.137245820813902"><ele>1005.75</ele><time>2026-04-09T10:03:52.999Z</time></trkpt><trkpt lat="37.81387754454338" lon="14.137386839746137"><ele>1003.5</ele><time>2026-04-09T10:03:53.999Z</time></trkpt><trkpt lat="37.813927299239566" lon="14.137527334213717"><ele>1001.25</ele><time>2026-04-09T10:03:54.999Z</time></trkpt><trkpt lat="37.814022705299195" lon="14.13764483081338"><ele>999.0</ele><time>2026-04-09T10:03:55.999Z</time></trkpt><trkpt lat="37.814154718992604" lon="14.137751196920227"><ele>999.0</ele><time>2026-04-09T10:03:56.999Z</time></trkpt><trkpt lat="37.81429697545095" lon="14.137848020171322"><ele>999.0</ele><time>2026-04-09T10:03:57.999Z</time></trkpt><trkpt lat="37.8144196260054" lon="14.137934031742505"><ele>999.0</ele><time>2026-04-09T10:03:58.999Z</time></trkpt><trkpt lat="37.81450930347964" lon="14.138038303075"><ele>999.0</ele><time>2026-04-09T10:03:59.999Z</time></trkpt><trkpt lat="37.814574271678474" lon="14.13816005935412"><ele>999.5</ele><time>2026-04-09T10:04:00.999Z</time></trkpt><trkpt lat="37.81461450571727" lon="14.1383116545057"><ele>1000.0</ele><time>2026-04-09T10:04:01.999Z</time></trkpt><trkpt lat="37.81463326764084" lon="14.138494614188179"><ele>1000.5</ele><time>2026-04-09T10:04:02.999Z</time></trkpt><trkpt lat="37.814656655895696" lon="14.138694226331094"><ele>1001.0</ele><time>2026-04-09T10:04:03.999Z</time></trkpt><trkpt lat="37.814728492363585" lon="14.138902383754187"><ele>998.3333333333334</ele><time>2026-04-09T10:04:04.999Z</time></trkpt><trkpt lat="37.81482292550713" lon="14.139090859375441"><ele>995.6666666666667</ele><time>2026-04-09T10:04:05.999Z</time></trkpt><trkpt lat="37.81491559797649" lon="14.139264537812883"><ele>993.0</ele><time>2026-04-09T10:04:06.999Z</time></trkpt><trkpt lat="37.81500597560592" lon="14.139423404768378"><ele>993.0</ele><time>2026-04-09T10:04:07.999Z</time></trkpt><trkpt lat="37.815085620873155" lon="14.13957905651925"><ele>993.0</ele><time>2026-04-09T10:04:08.999Z</time></trkpt><trkpt lat="37.81514713363679" lon="14.139758034454818"><ele>993.0</ele><time>2026-04-09T10:04:09.999Z</time></trkpt><trkpt lat="37.8151853636222" lon="14.139960343218483"><ele>996.6666666666667</ele><time>2026-04-09T10:04:10.999Z</time></trkpt><trkpt lat="37.81520597126805" lon="14.14018589114932"><ele>1000.3333333333334</ele><time>2026-04-09T10:04:11.999Z</time></trkpt><trkpt lat="37.81520633591943" lon="14.14040425434484"><ele>1004.0</ele><time>2026-04-09T10:04:12.999Z</time></trkpt><trkpt lat="37.81520366816498" lon="14.14059387772483"><ele>1001.5</ele><time>2026-04-09T10:04:13.999Z</time></trkpt><trkpt lat="37.81521911202293" lon="14.140757654554514"><ele>999.0</ele><time>2026-04-09T10:04:14.999Z</time></trkpt><trkpt lat="37.81526856771276" lon="14.140912882608978"><ele>996.5</ele><time>2026-04-09T10:04:15.999Z</time></trkpt><trkpt lat="37.815329691974156" lon="14.141089777564432"><ele>994.0</ele><time>2026-04-09T10:04:16.999Z</time></trkpt><trkpt lat="37.815508662857845" lon="14.141213392776573"><ele>994.0</ele><time>2026-04-09T10:04:17.999Z</time></trkpt><trkpt lat="37.81566613258723" lon="14.141374649284193"><ele>994.0</ele><time>2026-04-09T10:04:18.999Z</time></trkpt><trkpt lat="37.81581904089946" lon="14.141521544248114"><ele>994.0</ele><time>2026-04-09T10:04:19.999Z</time></trkpt><trkpt lat="37.81599242887371" lon="14.141642308499689"><ele>992.0</ele><time>2026-04-09T10:04:20.999Z</time></trkpt><trkpt lat="37.81619433025171" lon="14.141757132533682"><ele>990.0</ele><time>2026-04-09T10:04:21.999Z</time></trkpt><trkpt lat="37.81642088814415" lon="14.14186898407794"><ele>990.0</ele><time>2026-04-09T10:04:22.999Z</time></trkpt><trkpt lat="37.81665396944116" lon="14.141969328450823"><ele>990.0</ele><time>2026-04-09T10:04:23.999Z</time></trkpt><trkpt lat="37.8168559883895" lon="14.14206339790357"><ele>989.6666666666667</ele><time>2026-04-09T10:04:24.999Z</time></trkpt><trkpt lat="37.81702634771802" lon="14.142155346387423"><ele>989.3333333333334</ele><time>2026-04-09T10:04:25.999Z</time></trkpt><trkpt lat="37.81716408027044" lon="14.142264289582432"><ele>989.0</ele><time>2026-04-09T10:04:26.999Z</time></trkpt><trkpt lat="37.81727317088118" lon="14.142407920064812"><ele>989.0</ele><time>2026-04-09T10:04:27.999Z</time></trkpt><trkpt lat="37.81735337085894" lon="14.142586273582024"><ele>989.0</ele><time>2026-04-09T10:04:28.999Z</time></trkpt><trkpt lat="37.81742020794096" lon="14.14280132190167"><ele>989.0</ele><time>2026-04-09T10:04:29.999Z</time></trkpt><trkpt lat="37.817464898370254" lon="14.142970852351242"><ele>989.0</ele><time>2026-04-09T10:04:30.999Z</time></trkpt><trkpt lat="37.81752726200652" lon="14.14309313090568"><ele>989.0</ele><time>2026-04-09T10:04:31.999Z</time></trkpt><trkpt lat="37.81762362956738" lon="14.14319662126717"><ele>989.0</ele><time>2026-04-09T10:04:32.999Z</time></trkpt><trkpt lat="37.81776098952758" lon="14.143273583205563"><ele>989.0</ele><time>2026-04-09T10:04:33.999Z</time></trkpt><trkpt lat="37.81793583548926" lon="14.14332543638482"><ele>988.5</ele><time>2026-04-09T10:04:34.999Z</time></trkpt><trkpt lat="37.818098264486515" lon="14.143359838492628"><ele>988.0</ele><time>2026-04-09T10:04:35.999Z</time></trkpt><trkpt lat="37.8182220336012" lon="14.14340160795829"><ele>987.5</ele><time>2026-04-09T10:04:36.999Z</time></trkpt><trkpt lat="37.818330786077766" lon="14.143472954789315"><ele>987.0</ele><time>2026-04-09T10:04:37.999Z</time></trkpt><trkpt lat="37.81842594378446" lon="14.143578362374344"><ele>989.25</ele><time>2026-04-09T10:04:38.999Z</time></trkpt><trkpt lat="37.81848501520147" lon="14.143717742783503"><ele>991.5</ele><time>2026-04-09T10:04:39.999Z</time></trkpt><trkpt lat="37.81850972912159" lon="14.143884238525526"><ele>993.75</ele><time>2026-04-09T10:04:40.999Z</time></trkpt><trkpt lat="37.81850489083248" lon="14.14408036937471"><ele>996.0</ele><time>2026-04-09T10:04:41.999Z</time></trkpt><trkpt lat="37.81846955344852" lon="14.144281033742555"><ele>990.0</ele><time>2026-04-09T10:04:42.999Z</time></trkpt><trkpt lat="37.818436435069344" lon="14.144477621668019"><ele>984.0</ele><time>2026-04-09T10:04:43.999Z</time></trkpt><trkpt lat="37.81843376880698" lon="14.144664331711965"><ele>978.0</ele><time>2026-04-09T10:04:44.999Z</time></trkpt><trkpt lat="37.8184667018989" lon="14.144852008702868"><ele>982.6666666666667</ele><time>2026-04-09T10:04:45.999Z</time></trkpt><trkpt lat="37.81853111409329" lon="14.145055170410041"><ele>987.3333333333334</ele><time>2026-04-09T10:04:46.999Z</time></trkpt><trkpt lat="37.818620352796195" lon="14.145274032095097"><ele>992.0</ele><time>2026-04-09T10:04:47.999Z</time></trkpt><trkpt lat="37.81872273118969" lon="14.14552072519955"><ele>989.0</ele><time>2026-04-09T10:04:48.999Z</time></trkpt><trkpt lat="37.81883578900681" lon="14.145812509850948"><ele>986.0</ele><time>2026-04-09T10:04:49.999Z</time></trkpt><trkpt lat="37.81893667979732" lon="14.146091227152873"><ele>986.0</ele><time>2026-04-09T10:04:50.999Z</time></trkpt><trkpt lat="37.819064590953865" lon="14.146408004462831"><ele>986.0</ele><time>2026-04-09T10:04:51.999Z</time></trkpt><trkpt lat="37.81920399456024" lon="14.146755644764268"><ele>988.0</ele><time>2026-04-09T10:04:52.999Z</time></trkpt><trkpt lat="37.819348504737036" lon="14.147114074103293"><ele>990.0</ele><time>2026-04-09T10:04:53.999Z</time></trkpt><trkpt lat="37.819490282282075" lon="14.147472111489252"><ele>990.0</ele><time>2026-04-09T10:04:54.999Z</time></trkpt><trkpt lat="37.819614585287184" lon="14.147797558471659"><ele>990.0</ele><time>2026-04-09T10:04:55.999Z</time></trkpt><trkpt lat="37.81973158682431" lon="14.148095165010496"><ele>986.5</ele><time>2026-04-09T10:04:56.999Z</time></trkpt><trkpt lat="37.81984237858551" lon="14.148382436025104"><ele>983.0</ele><time>2026-04-09T10:04:57.999Z</time></trkpt><trkpt lat="37.81995298330881" lon="14.14866070799005"><ele>983.0</ele><time>2026-04-09T10:04:58.999Z</time></trkpt><trkpt lat="37.82006705662084" lon="14.148928808155368"><ele>983.0</ele><time>2026-04-09T10:04:59.999Z</time></trkpt><trkpt lat="37.82018795742326" lon="14.149176957219359"><ele>989.0</ele><time>2026-04-09T10:05:00.999Z</time></trkpt><trkpt lat="37.82029634653428" lon="14.149395910874649"><ele>995.0</ele><time>2026-04-09T10:05:01.999Z</time></trkpt><trkpt lat="37.820399776132554" lon="14.149606650208971"><ele>1001.0</ele><time>2026-04-09T10:05:02.999Z</time></trkpt><trkpt lat="37.82049605802878" lon="14.14980803797501"><ele>998.25</ele><time>2026-04-09T10:05:03.999Z</time></trkpt><trkpt lat="37.82058682621981" lon="14.149987627152264"><ele>995.5</ele><time>2026-04-09T10:05:04.999Z</time></trkpt><trkpt lat="37.82065665574166" lon="14.15012869429002"><ele>992.75</ele><time>2026-04-09T10:05:05.999Z</time></trkpt><trkpt lat="37.820685231432535" lon="14.150264094321649"><ele>990.0</ele><time>2026-04-09T10:05:06.999Z</time></trkpt><trkpt lat="37.82071216285474" lon="14.150399385289736"><ele>990.0</ele><time>2026-04-09T10:05:07.999Z</time></trkpt><trkpt lat="37.82070593488029" lon="14.150535495884466"><ele>990.0</ele><time>2026-04-09T10:05:08.999Z</time></trkpt><trkpt lat="37.82066360417771" lon="14.150667403762556"><ele>990.0</ele><time>2026-04-09T10:05:09.999Z</time></trkpt><trkpt lat="37.82059409744873" lon="14.15079754908662"><ele>990.0</ele><time>2026-04-09T10:05:10.999Z</time></trkpt><trkpt lat="37.82049750972566" lon="14.150933159456029"><ele>990.0</ele><time>2026-04-09T10:05:11.999Z</time></trkpt><trkpt lat="37.82037824970385" lon="14.151094269306087"><ele>990.0</ele><time>2026-04-09T10:05:12.999Z</time></trkpt><trkpt lat="37.82024135541333" lon="14.151286157025298"><ele>990.0</ele><time>2026-04-09T10:05:13.999Z</time></trkpt><trkpt lat="37.820105712058606" lon="14.151477609709461"><ele>995.0</ele><time>2026-04-09T10:05:14.999Z</time></trkpt><trkpt lat="37.8199503806232" lon="14.15169685090642"><ele>1000.0</ele><time>2026-04-09T10:05:15.999Z</time></trkpt><trkpt lat="37.819777664314344" lon="14.151940629883205"><ele>1000.0</ele><time>2026-04-09T10:05:16.999Z</time></trkpt><trkpt lat="37.819602823312835" lon="14.152187701108973"><ele>1000.0</ele><time>2026-04-09T10:05:17.999Z</time></trkpt><trkpt lat="37.81942739508889" lon="14.15243153711854"><ele>1001.0</ele><time>2026-04-09T10:05:18.999Z</time></trkpt><trkpt lat="37.819223194199374" lon="14.152676999667218"><ele>1002.0</ele><time>2026-04-09T10:05:19.999Z</time></trkpt><trkpt lat="37.81902346053961" lon="14.15290549106151"><ele>1002.0</ele><time>2026-04-09T10:05:20.999Z</time></trkpt><trkpt lat="37.8188455035482" lon="14.153107561393998"><ele>1002.0</ele><time>2026-04-09T10:05:21.999Z</time></trkpt><trkpt lat="37.818680593161105" lon="14.153294293006983"><ele>1003.3333333333333</ele><time>2026-04-09T10:05:22.999Z</time></trkpt><trkpt lat="37.818522740139876" lon="14.153473032888511"><ele>1004.6666666666666</ele><time>2026-04-09T10:05:23.999Z</time></trkpt><trkpt lat="37.81838193525321" lon="14.153632996768316"><ele>1006.0</ele><time>2026-04-09T10:05:24.999Z</time></trkpt><trkpt lat="37.8182576116851" lon="14.153772243690627"><ele>1006.0</ele><time>2026-04-09T10:05:25.999Z</time></trkpt><trkpt lat="37.81816101905342" lon="14.15385840611297"><ele>1005.9999999999999</ele><time>2026-04-09T10:05:26.999Z</time></trkpt><trkpt lat="37.81806831476583" lon="14.15390838762684"><ele>1005.9999999999999</ele><time>2026-04-09T10:05:27.999Z</time></trkpt><trkpt lat="37.81797470231335" lon="14.153915396207502"><ele>1006.0</ele><time>2026-04-09T10:05:28.999Z</time></trkpt><trkpt lat="37.817863845818955" lon="14.153892911906517"><ele>1006.0</ele><time>2026-04-09T10:05:29.999Z</time></trkpt><trkpt lat="37.81772101106845" lon="14.153868044027645"><ele>1006.6666666666666</ele><time>2026-04-09T10:05:30.999Z</time></trkpt><trkpt lat="37.81754587835733" lon="14.153841054616535"><ele>1007.3333333333333</ele><time>2026-04-09T10:05:31.999Z</time></trkpt><trkpt lat="37.81734887594887" lon="14.153811362319564"><ele>1008.0</ele><time>2026-04-09T10:05:32.999Z</time></trkpt><trkpt lat="37.81712247553038" lon="14.15377723914734"><ele>1008.0</ele><time>2026-04-09T10:05:33.999Z</time></trkpt><trkpt lat="37.816896848154485" lon="14.153742537838117"><ele>1008.0</ele><time>2026-04-09T10:05:34.999Z</time></trkpt><trkpt lat="37.81668351689791" lon="14.153708694340656"><ele>1008.0</ele><time>2026-04-09T10:05:35.999Z</time></trkpt><trkpt lat="37.81649561630845" lon="14.153698888550938"><ele>1009.6666666666667</ele><time>2026-04-09T10:05:36.999Z</time></trkpt><trkpt lat="37.81631601179668" lon="14.153671436015888"><ele>1011.3333333333334</ele><time>2026-04-09T10:05:37.999Z</time></trkpt><trkpt lat="37.81614793535591" lon="14.153644817784702"><ele>1013.0</ele><time>2026-04-09T10:05:38.999Z</time></trkpt><trkpt lat="37.816006226504" lon="14.153620037133772"><ele>1013.25</ele><time>2026-04-09T10:05:39.999Z</time></trkpt><trkpt lat="37.81587691021547" lon="14.153613573941445"><ele>1013.5</ele><time>2026-04-09T10:05:40.999Z</time></trkpt><trkpt lat="37.81576431625476" lon="14.153638956207796"><ele>1013.75</ele><time>2026-04-09T10:05:41.999Z</time></trkpt><trkpt lat="37.81565181571508" lon="14.153694660838651"><ele>1014.0</ele><time>2026-04-09T10:05:42.999Z</time></trkpt><trkpt lat="37.81553688233076" lon="14.15376787768235"><ele>1014.0</ele><time>2026-04-09T10:05:43.999Z</time></trkpt><trkpt lat="37.81545412015683" lon="14.153823266294967"><ele>1014.0000000000001</ele><time>2026-04-09T10:05:45.999Z</time></trkpt><trkpt lat="37.81549408868064" lon="14.15401670764477"><ele>1014.0000000000001</ele><time>2026-04-09T10:05:48.999Z</time></trkpt><trkpt lat="37.81556051280484" lon="14.154077260391066"><ele>1014.0</ele><time>2026-04-09T10:05:50.999Z</time></trkpt><trkpt lat="37.81563280674149" lon="14.154096622234716"><ele>1014.0</ele><time>2026-04-09T10:05:51.999Z</time></trkpt><trkpt lat="37.81573124911448" lon="14.154109091144663"><ele>1016.25</ele><time>2026-04-09T10:05:52.999Z</time></trkpt><trkpt lat="37.81585129626716" lon="14.154138667535173"><ele>1018.5</ele><time>2026-04-09T10:05:53.999Z</time></trkpt><trkpt lat="37.81598049518889" lon="14.154216941731383"><ele>1020.75</ele><time>2026-04-09T10:05:54.999Z</time></trkpt><trkpt lat="37.81611779926249" lon="14.154328860275324"><ele>1023.0</ele><time>2026-04-09T10:05:55.999Z</time></trkpt><trkpt lat="37.81627163636733" lon="14.154463315893151"><ele>1023.0</ele><time>2026-04-09T10:05:56.999Z</time></trkpt><trkpt lat="37.81643618369857" lon="14.15459558929106"><ele>1023.0</ele><time>2026-04-09T10:05:57.999Z</time></trkpt><trkpt lat="37.81663027219919" lon="14.15471059317071"><ele>1023.0</ele><time>2026-04-09T10:05:58.999Z</time></trkpt><trkpt lat="37.81684593112446" lon="14.154819035596104"><ele>1028.5</ele><time>2026-04-09T10:05:59.999Z</time></trkpt><trkpt lat="37.817067748125716" lon="14.154929599590323"><ele>1034.0</ele><time>2026-04-09T10:06:00.999Z</time></trkpt><trkpt lat="37.81729789534714" lon="14.155070946445171"><ele>1034.0</ele><time>2026-04-09T10:06:01.999Z</time></trkpt><trkpt lat="37.81753163641743" lon="14.155231306242873"><ele>1034.0</ele><time>2026-04-09T10:06:02.999Z</time></trkpt><trkpt lat="37.8177698051939" lon="14.155375715094202"><ele>1033.0</ele><time>2026-04-09T10:06:03.999Z</time></trkpt><trkpt lat="37.81802805217793" lon="14.155500075290204"><ele>1032.0</ele><time>2026-04-09T10:06:04.999Z</time></trkpt><trkpt lat="37.81830288633236" lon="14.155617799578035"><ele>1038.0</ele><time>2026-04-09T10:06:05.999Z</time></trkpt><trkpt lat="37.81857877420215" lon="14.155741723348877"><ele>1044.0</ele><time>2026-04-09T10:06:06.999Z</time></trkpt><trkpt lat="37.8188310338684" lon="14.155868310254064"><ele>1044.0</ele><time>2026-04-09T10:06:07.999Z</time></trkpt><trkpt lat="37.81907331084875" lon="14.155994125681351"><ele>1044.0</ele><time>2026-04-09T10:06:08.999Z</time></trkpt><trkpt lat="37.8192934110477" lon="14.156114519148112"><ele>1044.0</ele><time>2026-04-09T10:06:09.999Z</time></trkpt><trkpt lat="37.81948148222045" lon="14.156222128965615"><ele>1044.0</ele><time>2026-04-09T10:06:10.999Z</time></trkpt><trkpt lat="37.8196427933894" lon="14.156314607391144"><ele>1044.0</ele><time>2026-04-09T10:06:11.999Z</time></trkpt><trkpt lat="37.81979912324654" lon="14.15638102479176"><ele>1044.0</ele><time>2026-04-09T10:06:12.999Z</time></trkpt><trkpt lat="37.81995478465688" lon="14.156419369855884"><ele>1044.0</ele><time>2026-04-09T10:06:13.999Z</time></trkpt><trkpt lat="37.82010993653132" lon="14.156420507910909"><ele>1044.0</ele><time>2026-04-09T10:06:14.999Z</time></trkpt><trkpt lat="37.820262801276016" lon="14.156381504058006"><ele>1047.0</ele><time>2026-04-09T10:06:15.999Z</time></trkpt><trkpt lat="37.82040654615516" lon="14.156312745422063"><ele>1050.0</ele><time>2026-04-09T10:06:16.999Z</time></trkpt><trkpt lat="37.82054398734401" lon="14.15621231701748"><ele>1053.0</ele><time>2026-04-09T10:06:17.999Z</time></trkpt><trkpt lat="37.82064430859835" lon="14.156100680092036"><ele>1056.0</ele><time>2026-04-09T10:06:18.999Z</time></trkpt><trkpt lat="37.820722169120835" lon="14.155956285478146"><ele>1056.0</ele><time>2026-04-09T10:06:19.999Z</time></trkpt><trkpt lat="37.82078733742147" lon="14.15580158290506"><ele>1056.0</ele><time>2026-04-09T10:06:20.999Z</time></trkpt><trkpt lat="37.82086607916897" lon="14.155692498994727"><ele>1056.0</ele><time>2026-04-09T10:06:21.999Z</time></trkpt><trkpt lat="37.820973934233024" lon="14.155628027377258"><ele>1056.0</ele><time>2026-04-09T10:06:22.999Z</time></trkpt><trkpt lat="37.82111151382412" lon="14.155600796955289"><ele>1058.0</ele><time>2026-04-09T10:06:23.999Z</time></trkpt><trkpt lat="37.82128384878255" lon="14.155607764509412"><ele>1060.0</ele><time>2026-04-09T10:06:24.999Z</time></trkpt><trkpt lat="37.82144675754824" lon="14.155612149260032"><ele>1062.0</ele><time>2026-04-09T10:06:25.999Z</time></trkpt><trkpt lat="37.82156750282331" lon="14.155585006183518"><ele>1062.0</ele><time>2026-04-09T10:06:26.999Z</time></trkpt><trkpt lat="37.82165367853259" lon="14.155508802998266"><ele>1062.0</ele><time>2026-04-09T10:06:27.999Z</time></trkpt><trkpt lat="37.82172646411237" lon="14.155370031565644"><ele>1062.0</ele><time>2026-04-09T10:06:28.999Z</time></trkpt><trkpt lat="37.82179393364236" lon="14.155189068701661"><ele>1062.0</ele><time>2026-04-09T10:06:29.999Z</time></trkpt><trkpt lat="37.82184370652467" lon="14.155008212393543"><ele>1063.0</ele><time>2026-04-09T10:06:30.999Z</time></trkpt><trkpt lat="37.82190715252791" lon="14.154880295215893"><ele>1064.0</ele><time>2026-04-09T10:06:31.999Z</time></trkpt><trkpt lat="37.82200811228955" lon="14.154806046318248"><ele>1065.0</ele><time>2026-04-09T10:06:32.999Z</time></trkpt><trkpt lat="37.822130519940515" lon="14.154779145304703"><ele>1066.0</ele><time>2026-04-09T10:06:33.999Z</time></trkpt><trkpt lat="37.82226098996343" lon="14.15482900665632"><ele>1066.0</ele><time>2026-04-09T10:06:34.999Z</time></trkpt><trkpt lat="37.82242066925585" lon="14.154891500005254"><ele>1066.0</ele><time>2026-04-09T10:06:35.999Z</time></trkpt><trkpt lat="37.822615927177466" lon="14.154956081455744"><ele>1066.0</ele><time>2026-04-09T10:06:36.999Z</time></trkpt><trkpt lat="37.82280771962244" lon="14.155051215724285"><ele>1064.3333333333333</ele><time>2026-04-09T10:06:37.999Z</time></trkpt><trkpt lat="37.82295297714039" lon="14.155180867095549"><ele>1062.6666666666667</ele><time>2026-04-09T10:06:38.999Z</time></trkpt><trkpt lat="37.823091651796275" lon="14.15533651663185"><ele>1061.0</ele><time>2026-04-09T10:06:39.999Z</time></trkpt><trkpt lat="37.82322661921424" lon="14.155490743054196"><ele>1061.0</ele><time>2026-04-09T10:06:40.999Z</time></trkpt><trkpt lat="37.82332053523992" lon="14.155639270272927"><ele>1061.0</ele><time>2026-04-09T10:06:41.999Z</time></trkpt><trkpt lat="37.82340682205708" lon="14.155748431760962"><ele>1061.0</ele><time>2026-04-09T10:06:42.999Z</time></trkpt><trkpt lat="37.8235193312171" lon="14.155817975995447"><ele>1061.0</ele><time>2026-04-09T10:06:43.999Z</time></trkpt><trkpt lat="37.82365504151126" lon="14.155836186052298"><ele>1064.25</ele><time>2026-04-09T10:06:44.999Z</time></trkpt><trkpt lat="37.82379502112286" lon="14.155806312368064"><ele>1067.5</ele><time>2026-04-09T10:06:45.999Z</time></trkpt><trkpt lat="37.82393832961808" lon="14.1557332818731"><ele>1070.75</ele><time>2026-04-09T10:06:46.999Z</time></trkpt><trkpt lat="37.8240585171027" lon="14.155639876297327"><ele>1074.0</ele><time>2026-04-09T10:06:47.999Z</time></trkpt><trkpt lat="37.82415461057074" lon="14.155516018334637"><ele>1074.0</ele><time>2026-04-09T10:06:48.999Z</time></trkpt><trkpt lat="37.82422939775061" lon="14.155341168438357"><ele>1074.0</ele><time>2026-04-09T10:06:49.999Z</time></trkpt><trkpt lat="37.8242932642777" lon="14.15510759199033"><ele>1074.0</ele><time>2026-04-09T10:06:50.999Z</time></trkpt><trkpt lat="37.82435506786098" lon="14.154859806501175"><ele>1075.0</ele><time>2026-04-09T10:06:51.999Z</time></trkpt><trkpt lat="37.82443735277564" lon="14.154660517521343"><ele>1076.0</ele><time>2026-04-09T10:06:52.999Z</time></trkpt><trkpt lat="37.82452963540815" lon="14.15451015382692"><ele>1077.0</ele><time>2026-04-09T10:06:53.999Z</time></trkpt><trkpt lat="37.824625346797916" lon="14.15439743381376"><ele>1077.0</ele><time>2026-04-09T10:06:54.999Z</time></trkpt><trkpt lat="37.8247352770591" lon="14.154315264471915"><ele>1077.0</ele><time>2026-04-09T10:06:55.999Z</time></trkpt><trkpt lat="37.82485655799991" lon="14.154283311968136"><ele>1077.0</ele><time>2026-04-09T10:06:56.999Z</time></trkpt><trkpt lat="37.82499536163461" lon="14.154300797812436"><ele>1077.0</ele><time>2026-04-09T10:06:57.999Z</time></trkpt><trkpt lat="37.82514936210237" lon="14.154361066938096"><ele>1080.6666666666667</ele><time>2026-04-09T10:06:58.999Z</time></trkpt><trkpt lat="37.82530520323626" lon="14.154430975997874"><ele>1084.3333333333335</ele><time>2026-04-09T10:06:59.999Z</time></trkpt><trkpt lat="37.82544091959006" lon="14.154449782055423"><ele>1088.0</ele><time>2026-04-09T10:07:00.999Z</time></trkpt><trkpt lat="37.82558390755881" lon="14.154401734744772"><ele>1088.0</ele><time>2026-04-09T10:07:01.999Z</time></trkpt><trkpt lat="37.82574678123477" lon="14.154293753289126"><ele>1088.0</ele><time>2026-04-09T10:07:02.999Z</time></trkpt><trkpt lat="37.82590123989922" lon="14.154188375499908"><ele>1088.0</ele><time>2026-04-09T10:07:03.999Z</time></trkpt><trkpt lat="37.826033882170826" lon="14.154105923391555"><ele>1088.0</ele><time>2026-04-09T10:07:04.999Z</time></trkpt><trkpt lat="37.82615127948793" lon="14.153989876980473"><ele>1088.0</ele><time>2026-04-09T10:07:05.999Z</time></trkpt><trkpt lat="37.826246519267904" lon="14.153806284092601"><ele>1088.0</ele><time>2026-04-09T10:07:06.999Z</time></trkpt><trkpt lat="37.82632685729019" lon="14.153631932804624"><ele>1088.0</ele><time>2026-04-09T10:07:07.999Z</time></trkpt><trkpt lat="37.82642027288157" lon="14.153509776331958"><ele>1088.0</ele><time>2026-04-09T10:07:08.999Z</time></trkpt><trkpt lat="37.826549844707266" lon="14.153432727201867"><ele>1088.0</ele><time>2026-04-09T10:07:09.999Z</time></trkpt><trkpt lat="37.82669613646104" lon="14.153390076238725"><ele>1088.0</ele><time>2026-04-09T10:07:10.999Z</time></trkpt><trkpt lat="37.82687567302355" lon="14.153412693647127"><ele>1090.6666666666667</ele><time>2026-04-09T10:07:11.999Z</time></trkpt><trkpt lat="37.82709304112544" lon="14.153416595734491"><ele>1093.3333333333333</ele><time>2026-04-09T10:07:12.999Z</time></trkpt><trkpt lat="37.82731376436436" lon="14.153437560552478"><ele>1096.0</ele><time>2026-04-09T10:07:13.999Z</time></trkpt><trkpt lat="37.82752935741018" lon="14.15347089165115"><ele>1098.3333333333333</ele><time>2026-04-09T10:07:14.999Z</time></trkpt><trkpt lat="37.82774456379733" lon="14.153529256214254"><ele>1100.6666666666667</ele><time>2026-04-09T10:07:15.999Z</time></trkpt><trkpt lat="37.827953535667376" lon="14.153596986598608"><ele>1103.0</ele><time>2026-04-09T10:07:16.999Z</time></trkpt><trkpt lat="37.828142902692754" lon="14.153653350198555"><ele>1103.0</ele><time>2026-04-09T10:07:17.999Z</time></trkpt><trkpt lat="37.8283124812688" lon="14.153703589413771"><ele>1103.0</ele><time>2026-04-09T10:07:18.999Z</time></trkpt><trkpt lat="37.828469931484214" lon="14.153739223146388"><ele>1103.0</ele><time>2026-04-09T10:07:19.999Z</time></trkpt><trkpt lat="37.82861639655473" lon="14.153749357975839"><ele>1102.6666666666667</ele><time>2026-04-09T10:07:20.999Z</time></trkpt><trkpt lat="37.8287741104436" lon="14.153734436567017"><ele>1102.3333333333333</ele><time>2026-04-09T10:07:21.999Z</time></trkpt><trkpt lat="37.82895575591915" lon="14.15370231866247"><ele>1102.0</ele><time>2026-04-09T10:07:22.999Z</time></trkpt><trkpt lat="37.829112961948496" lon="14.15367037303627"><ele>1102.0</ele><time>2026-04-09T10:07:23.999Z</time></trkpt><trkpt lat="37.82923270807073" lon="14.153614308229985"><ele>1102.0</ele><time>2026-04-09T10:07:24.999Z</time></trkpt><trkpt lat="37.82935568436102" lon="14.153515464167986"><ele>1102.0</ele><time>2026-04-09T10:07:25.999Z</time></trkpt><trkpt lat="37.829493554522806" lon="14.15335051276022"><ele>1106.5</ele><time>2026-04-09T10:07:26.999Z</time></trkpt><trkpt lat="37.82961315439862" lon="14.153193717962365"><ele>1111.0</ele><time>2026-04-09T10:07:27.999Z</time></trkpt><trkpt lat="37.829710074551436" lon="14.153066675176794"><ele>1115.5</ele><time>2026-04-09T10:07:28.999Z</time></trkpt><trkpt lat="37.82980621743919" lon="14.152978330682593"><ele>1120.0</ele><time>2026-04-09T10:07:29.999Z</time></trkpt><trkpt lat="37.82991269638435" lon="14.152942198617525"><ele>1120.0</ele><time>2026-04-09T10:07:30.999Z</time></trkpt><trkpt lat="37.83002823315619" lon="14.152985284396468"><ele>1120.0</ele><time>2026-04-09T10:07:31.999Z</time></trkpt><trkpt lat="37.83019137469317" lon="14.152994402180152"><ele>1120.0</ele><time>2026-04-09T10:07:32.999Z</time></trkpt><trkpt lat="37.830355568269496" lon="14.153005443876923"><ele>1120.0</ele><time>2026-04-09T10:07:33.999Z</time></trkpt><trkpt lat="37.8305005442683" lon="14.153043317905997"><ele>1122.0</ele><time>2026-04-09T10:07:34.999Z</time></trkpt><trkpt lat="37.83065733320911" lon="14.153137497399827"><ele>1124.0</ele><time>2026-04-09T10:07:35.999Z</time></trkpt><trkpt lat="37.83080466755482" lon="14.153249162828084"><ele>1126.0</ele><time>2026-04-09T10:07:36.999Z</time></trkpt><trkpt lat="37.830919057128035" lon="14.153363659149694"><ele>1125.0</ele><time>2026-04-09T10:07:37.999Z</time></trkpt><trkpt lat="37.831018047994654" lon="14.153519356605054"><ele>1124.0</ele><time>2026-04-09T10:07:38.999Z</time></trkpt><trkpt lat="37.831108640146326" lon="14.153711939822385"><ele>1123.0</ele><time>2026-04-09T10:07:39.999Z</time></trkpt><trkpt lat="37.83121319832132" lon="14.153876993580564"><ele>1123.0</ele><time>2026-04-09T10:07:40.999Z</time></trkpt><trkpt lat="37.83133401921798" lon="14.153966344558409"><ele>1123.0</ele><time>2026-04-09T10:07:41.999Z</time></trkpt><trkpt lat="37.831462174616874" lon="14.15401917948034"><ele>1123.0</ele><time>2026-04-09T10:07:42.999Z</time></trkpt><trkpt lat="37.83160618933988" lon="14.154027552089184"><ele>1123.0</ele><time>2026-04-09T10:07:43.999Z</time></trkpt><trkpt lat="37.83177271738404" lon="14.153986290143859"><ele>1124.5</ele><time>2026-04-09T10:07:44.999Z</time></trkpt><trkpt lat="37.831945463677684" lon="14.153909334694617"><ele>1126.0</ele><time>2026-04-09T10:07:45.999Z</time></trkpt><trkpt lat="37.832079954587726" lon="14.153851432088862"><ele>1127.5</ele><time>2026-04-09T10:07:47Z</time></trkpt><trkpt lat="37.83219055983188" lon="14.153839666021499"><ele>1129.0</ele><time>2026-04-09T10:07:48Z</time></trkpt><trkpt lat="37.832285445903686" lon="14.153884599818012"><ele>1129.0</ele><time>2026-04-09T10:07:49Z</time></trkpt><trkpt lat="37.83236993480135" lon="14.153971766403634"><ele>1129.0</ele><time>2026-04-09T10:07:50Z</time></trkpt><trkpt lat="37.83240390606355" lon="14.154141581410665"><ele>1129.0</ele><time>2026-04-09T10:07:51Z</time></trkpt><trkpt lat="37.83244774428559" lon="14.154330491190258"><ele>1129.0</ele><time>2026-04-09T10:07:52Z</time></trkpt><trkpt lat="37.83250812122929" lon="14.154551178613792"><ele>1124.75</ele><time>2026-04-09T10:07:53Z</time></trkpt><trkpt lat="37.83253113642109" lon="14.154727850109369"><ele>1120.5</ele><time>2026-04-09T10:07:54Z</time></trkpt><trkpt lat="37.832582195492655" lon="14.154851690466979"><ele>1116.25</ele><time>2026-04-09T10:07:55Z</time></trkpt><trkpt lat="37.8326865395475" lon="14.154971957405783"><ele>1112.0</ele><time>2026-04-09T10:07:56Z</time></trkpt><trkpt lat="37.832803934436036" lon="14.155041546270411"><ele>1112.0</ele><time>2026-04-09T10:07:57Z</time></trkpt><trkpt lat="37.83293198975306" lon="14.155052934597867"><ele>1112.0</ele><time>2026-04-09T10:07:58Z</time></trkpt><trkpt lat="37.83306326759922" lon="14.155013213289683"><ele>1112.0</ele><time>2026-04-09T10:07:59Z</time></trkpt><trkpt lat="37.8331770063761" lon="14.154974013594027"><ele>1112.0</ele><time>2026-04-09T10:08:00Z</time></trkpt><trkpt lat="37.83329831211848" lon="14.15497874281481"><ele>1112.0</ele><time>2026-04-09T10:08:01Z</time></trkpt><trkpt lat="37.83341876847608" lon="14.155027901953327"><ele>1112.0</ele><time>2026-04-09T10:08:02Z</time></trkpt><trkpt lat="37.833516139959734" lon="14.155096071661154"><ele>1112.0</ele><time>2026-04-09T10:08:03Z</time></trkpt><trkpt lat="37.83358377639804" lon="14.155208876469773"><ele>1112.0</ele><time>2026-04-09T10:08:04Z</time></trkpt><trkpt lat="37.83362356062551" lon="14.155366633685126"><ele>1115.0</ele><time>2026-04-09T10:08:05Z</time></trkpt><trkpt lat="37.83366273255073" lon="14.15556587325621"><ele>1118.0</ele><time>2026-04-09T10:08:06Z</time></trkpt><trkpt lat="37.8337002991742" lon="14.155800711840882"><ele>1121.0</ele><time>2026-04-09T10:08:07Z</time></trkpt><trkpt lat="37.83371222122642" lon="14.156039957523967"><ele>1121.0</ele><time>2026-04-09T10:08:08Z</time></trkpt><trkpt lat="37.83369901987744" lon="14.156233313881357"><ele>1121.0</ele><time>2026-04-09T10:08:09Z</time></trkpt><trkpt lat="37.833683836760095" lon="14.156399019517544"><ele>1121.0</ele><time>2026-04-09T10:08:10Z</time></trkpt><trkpt lat="37.83370064536378" lon="14.156525384646145"><ele>1121.0</ele><time>2026-04-09T10:08:11Z</time></trkpt><trkpt lat="37.83376187632501" lon="14.156616066228008"><ele>1119.0</ele><time>2026-04-09T10:08:12Z</time></trkpt><trkpt lat="37.833855957485184" lon="14.156664457379442"><ele>1117.0</ele><time>2026-04-09T10:08:13Z</time></trkpt><trkpt lat="37.83396406874025" lon="14.156659281554829"><ele>1115.0</ele><time>2026-04-09T10:08:14Z</time></trkpt><trkpt lat="37.83407569143296" lon="14.156614952010088"><ele>1113.0</ele><time>2026-04-09T10:08:15Z</time></trkpt><trkpt lat="37.83419723480825" lon="14.156608090909218"><ele>1111.0</ele><time>2026-04-09T10:08:16Z</time></trkpt><trkpt lat="37.83433291198375" lon="14.156626873419592"><ele>1111.0</ele><time>2026-04-09T10:08:17Z</time></trkpt><trkpt lat="37.83444027932197" lon="14.156691516848626"><ele>1111.0</ele><time>2026-04-09T10:08:18Z</time></trkpt><trkpt lat="37.83455941412619" lon="14.15677033811952"><ele>1111.0</ele><time>2026-04-09T10:08:19Z</time></trkpt><trkpt lat="37.83468250250129" lon="14.15686534674275"><ele>1111.0</ele><time>2026-04-09T10:08:20Z</time></trkpt><trkpt lat="37.834829808088536" lon="14.156894768933345"><ele>1111.0</ele><time>2026-04-09T10:08:21Z</time></trkpt><trkpt lat="37.83501641720562" lon="14.156884105472846"><ele>1111.0</ele><time>2026-04-09T10:08:22Z</time></trkpt><trkpt lat="37.83522603911706" lon="14.156862277171106"><ele>1111.0</ele><time>2026-04-09T10:08:23Z</time></trkpt><trkpt lat="37.83539997134816" lon="14.15684823315346"><ele>1112.0</ele><time>2026-04-09T10:08:24Z</time></trkpt><trkpt lat="37.83554086964372" lon="14.156846665122941"><ele>1113.0</ele><time>2026-04-09T10:08:25Z</time></trkpt><trkpt lat="37.83565554320046" lon="14.15688773132534"><ele>1114.0</ele><time>2026-04-09T10:08:26Z</time></trkpt><trkpt lat="37.835737810081355" lon="14.156964425128264"><ele>1115.0</ele><time>2026-04-09T10:08:27Z</time></trkpt><trkpt lat="37.83579493715692" lon="14.157065245643897"><ele>1115.0</ele><time>2026-04-09T10:08:28Z</time></trkpt><trkpt lat="37.83581356298956" lon="14.15721082408975"><ele>1115.0</ele><time>2026-04-09T10:08:29Z</time></trkpt><trkpt lat="37.83588540924185" lon="14.157312830064281"><ele>1115.0</ele><time>2026-04-09T10:08:30Z</time></trkpt><trkpt lat="37.83596264324031" lon="14.157372761710352"><ele>1115.0</ele><time>2026-04-09T10:08:31Z</time></trkpt><trkpt lat="37.83606506469762" lon="14.15736240521506"><ele>1115.0</ele><time>2026-04-09T10:08:32Z</time></trkpt><trkpt lat="37.836179361960774" lon="14.157298854443178"><ele>1115.5</ele><time>2026-04-09T10:08:33Z</time></trkpt><trkpt lat="37.83630522787837" lon="14.157193462028237"><ele>1116.0</ele><time>2026-04-09T10:08:34Z</time></trkpt><trkpt lat="37.83641534578139" lon="14.157111861322674"><ele>1116.5</ele><time>2026-04-09T10:08:35Z</time></trkpt><trkpt lat="37.83652857499157" lon="14.157089966005929"><ele>1117.0</ele><time>2026-04-09T10:08:36Z</time></trkpt><trkpt lat="37.83661198777873" lon="14.157195349219734"><ele>1117.0</ele><time>2026-04-09T10:08:37Z</time></trkpt><trkpt lat="37.83670582739546" lon="14.157311787880383"><ele>1117.0</ele><time>2026-04-09T10:08:38Z</time></trkpt><trkpt lat="37.83681494128829" lon="14.157451915175088"><ele>1117.0</ele><time>2026-04-09T10:08:39Z</time></trkpt><trkpt lat="37.83690946673752" lon="14.157545612237916"><ele>1117.0</ele><time>2026-04-09T10:08:40Z</time></trkpt><trkpt lat="37.83699100473339" lon="14.157606405031316"><ele>1116.5</ele><time>2026-04-09T10:08:41Z</time></trkpt><trkpt lat="37.83709165437628" lon="14.157602092736145"><ele>1116.0</ele><time>2026-04-09T10:08:42Z</time></trkpt><trkpt lat="37.83719616551448" lon="14.157522074578944"><ele>1115.5</ele><time>2026-04-09T10:08:43Z</time></trkpt><trkpt lat="37.837294706322325" lon="14.157381768313789"><ele>1115.0</ele><time>2026-04-09T10:08:44Z</time></trkpt><trkpt lat="37.837391130490175" lon="14.157231040354283"><ele>1115.0</ele><time>2026-04-09T10:08:45Z</time></trkpt><trkpt lat="37.837479128005306" lon="14.15712209434574"><ele>1115.0</ele><time>2026-04-09T10:08:46Z</time></trkpt><trkpt lat="37.837607889575075" lon="14.1570900237478"><ele>1115.0</ele><time>2026-04-09T10:08:47Z</time></trkpt><trkpt lat="37.837771015118" lon="14.157108317956528"><ele>1115.0</ele><time>2026-04-09T10:08:48Z</time></trkpt><trkpt lat="37.83795745395968" lon="14.157136996148502"><ele>1116.6666666666667</ele><time>2026-04-09T10:08:49Z</time></trkpt><trkpt lat="37.8381200563608" lon="14.157222108903243"><ele>1118.3333333333333</ele><time>2026-04-09T10:08:50Z</time></trkpt><trkpt lat="37.838274243215636" lon="14.157323266608188"><ele>1120.0</ele><time>2026-04-09T10:08:51Z</time></trkpt><trkpt lat="37.83841536365025" lon="14.157411189454244"><ele>1109.6666666666665</ele><time>2026-04-09T10:08:52Z</time></trkpt><trkpt lat="37.83855371402872" lon="14.157459832421404"><ele>1099.3333333333333</ele><time>2026-04-09T10:08:53Z</time></trkpt><trkpt lat="37.83870755119306" lon="14.15744685186692"><ele>1089.0</ele><time>2026-04-09T10:08:54Z</time></trkpt><trkpt lat="37.838872074573885" lon="14.157370095749675"><ele>1096.0</ele><time>2026-04-09T10:08:55Z</time></trkpt><trkpt lat="37.83903846221785" lon="14.157254978478855"><ele>1103.0</ele><time>2026-04-09T10:08:56Z</time></trkpt><trkpt lat="37.839165025375365" lon="14.157163485304917"><ele>1110.0</ele><time>2026-04-09T10:08:57Z</time></trkpt><trkpt lat="37.83926132802714" lon="14.157104537943102"><ele>1117.0</ele><time>2026-04-09T10:08:58Z</time></trkpt><trkpt lat="37.83934498926751" lon="14.157102539809621"><ele>1117.0</ele><time>2026-04-09T10:08:59Z</time></trkpt><trkpt lat="37.839396475484804" lon="14.157205277241031"><ele>1117.0</ele><time>2026-04-09T10:09:00Z</time></trkpt><trkpt lat="37.83945473304511" lon="14.157312023820158"><ele>1117.0</ele><time>2026-04-09T10:09:01Z</time></trkpt><trkpt lat="37.83955506207163" lon="14.157428960899827"><ele>1117.0</ele><time>2026-04-09T10:09:02Z</time></trkpt><trkpt lat="37.83965084809752" lon="14.15752439523754"><ele>1111.75</ele><time>2026-04-09T10:09:03Z</time></trkpt><trkpt lat="37.839744976275426" lon="14.157585740603094"><ele>1106.5</ele><time>2026-04-09T10:09:04Z</time></trkpt><trkpt lat="37.83986251104536" lon="14.157592392877847"><ele>1101.25</ele><time>2026-04-09T10:09:05Z</time></trkpt><trkpt lat="37.83999135595916" lon="14.157551680470508"><ele>1096.0</ele><time>2026-04-09T10:09:06Z</time></trkpt><trkpt lat="37.8401419156585" lon="14.157473670530873"><ele>1097.3333333333333</ele><time>2026-04-09T10:09:07Z</time></trkpt><trkpt lat="37.840331552272616" lon="14.157387709089075"><ele>1098.6666666666667</ele><time>2026-04-09T10:09:08Z</time></trkpt><trkpt lat="37.84053139975868" lon="14.157306760332412"><ele>1100.0</ele><time>2026-04-09T10:09:09Z</time></trkpt><trkpt lat="37.84072363927219" lon="14.157238869581585"><ele>1100.0</ele><time>2026-04-09T10:09:10Z</time></trkpt><trkpt lat="37.84087070852907" lon="14.157191118587022"><ele>1100.0</ele><time>2026-04-09T10:09:11Z</time></trkpt><trkpt lat="37.84097700439062" lon="14.157149454825394"><ele>1100.0</ele><time>2026-04-09T10:09:12Z</time></trkpt><trkpt lat="37.84104880267526" lon="14.157076331328568"><ele>1100.0</ele><time>2026-04-09T10:09:13Z</time></trkpt><trkpt lat="37.84108487312124" lon="14.156962460872114"><ele>1089.6666666666667</ele><time>2026-04-09T10:09:14Z</time></trkpt><trkpt lat="37.84107828976938" lon="14.156808627586893"><ele>1079.3333333333333</ele><time>2026-04-09T10:09:15Z</time></trkpt><trkpt lat="37.84104277650406" lon="14.156617868144338"><ele>1069.0</ele><time>2026-04-09T10:09:16Z</time></trkpt><trkpt lat="37.840990040592736" lon="14.15638169574251"><ele>1079.0</ele><time>2026-04-09T10:09:17Z</time></trkpt><trkpt lat="37.84094459628208" lon="14.156126346718587"><ele>1089.0</ele><time>2026-04-09T10:09:18Z</time></trkpt><trkpt lat="37.84090896417875" lon="14.155888920656107"><ele>1099.0</ele><time>2026-04-09T10:09:19Z</time></trkpt><trkpt lat="37.84088922784921" lon="14.155674617771583"><ele>1103.6666666666665</ele><time>2026-04-09T10:09:20Z</time></trkpt><trkpt lat="37.84090875946221" lon="14.155484078454515"><ele>1108.3333333333333</ele><time>2026-04-09T10:09:21Z</time></trkpt><trkpt lat="37.84096438917765" lon="14.155307122304974"><ele>1113.0</ele><time>2026-04-09T10:09:22Z</time></trkpt><trkpt lat="37.84106380287846" lon="14.155136069843394"><ele>1106.3333333333333</ele><time>2026-04-09T10:09:23Z</time></trkpt><trkpt lat="37.841195314097135" lon="14.1549536625549"><ele>1099.6666666666665</ele><time>2026-04-09T10:09:24Z</time></trkpt><trkpt lat="37.84132125331243" lon="14.154805773075752"><ele>1093.0</ele><time>2026-04-09T10:09:25Z</time></trkpt><trkpt lat="37.841452749120826" lon="14.154690984230642"><ele>1093.0</ele><time>2026-04-09T10:09:26Z</time></trkpt><trkpt lat="37.841575069597866" lon="14.15460492433227"><ele>1093.0</ele><time>2026-04-09T10:09:27Z</time></trkpt><trkpt lat="37.84166539916339" lon="14.154488714123376"><ele>1093.0</ele><time>2026-04-09T10:09:28Z</time></trkpt><trkpt lat="37.84173234062484" lon="14.154328377905621"><ele>1093.0</ele><time>2026-04-09T10:09:29Z</time></trkpt><trkpt lat="37.841763733168115" lon="14.15412583429071"><ele>1086.0</ele><time>2026-04-09T10:09:30Z</time></trkpt><trkpt lat="37.84179896606111" lon="14.153911573834668"><ele>1079.0</ele><time>2026-04-09T10:09:31Z</time></trkpt><trkpt lat="37.84187917308049" lon="14.153710954696741"><ele>1072.0</ele><time>2026-04-09T10:09:32Z</time></trkpt><trkpt lat="37.841984501327985" lon="14.153478697618741"><ele>1072.0</ele><time>2026-04-09T10:09:33Z</time></trkpt><trkpt lat="37.84207672979886" lon="14.153208618252894"><ele>1072.0</ele><time>2026-04-09T10:09:34Z</time></trkpt><trkpt lat="37.84215120185713" lon="14.152924053472425"><ele>1076.5</ele><time>2026-04-09T10:09:35Z</time></trkpt><trkpt lat="37.842203506112064" lon="14.152614112862192"><ele>1081.0</ele><time>2026-04-09T10:09:36Z</time></trkpt><trkpt lat="37.84223435612445" lon="14.15233982788967"><ele>1082.3333333333333</ele><time>2026-04-09T10:09:37Z</time></trkpt><trkpt lat="37.84226380891079" lon="14.152102829314092"><ele>1083.6666666666667</ele><time>2026-04-09T10:09:38Z</time></trkpt><trkpt lat="37.84229256624902" lon="14.151895684216576"><ele>1085.0</ele><time>2026-04-09T10:09:39Z</time></trkpt><trkpt lat="37.84231907895729" lon="14.151713041525904"><ele>1085.0</ele><time>2026-04-09T10:09:40Z</time></trkpt><trkpt lat="37.84234554524272" lon="14.151564185462112"><ele>1085.0</ele><time>2026-04-09T10:09:41Z</time></trkpt><trkpt lat="37.84236427218012" lon="14.151470331183734"><ele>1085.0</ele><time>2026-04-09T10:09:42Z</time></trkpt><trkpt lat="37.84242476153459" lon="14.151395611320776"><ele>1085.0</ele><time>2026-04-09T10:09:43Z</time></trkpt><trkpt lat="37.842518981618" lon="14.151339772864045"><ele>1085.0</ele><time>2026-04-09T10:09:44Z</time></trkpt><trkpt lat="37.84265954364429" lon="14.151291369975302"><ele>1087.0</ele><time>2026-04-09T10:09:45Z</time></trkpt><trkpt lat="37.84282533603883" lon="14.151218891345293"><ele>1089.0</ele><time>2026-04-09T10:09:46Z</time></trkpt><trkpt lat="37.84296232738184" lon="14.151144044287289"><ele>1091.0</ele><time>2026-04-09T10:09:47Z</time></trkpt><trkpt lat="37.84307572856719" lon="14.151082326524566"><ele>1093.0</ele><time>2026-04-09T10:09:48Z</time></trkpt><trkpt lat="37.84317772548498" lon="14.151048730414102"><ele>1093.0</ele><time>2026-04-09T10:09:49Z</time></trkpt><trkpt lat="37.84328246906087" lon="14.151057521904887"><ele>1093.0</ele><time>2026-04-09T10:09:50Z</time></trkpt><trkpt lat="37.8433926512276" lon="14.151115451491565"><ele>1093.0</ele><time>2026-04-09T10:09:51Z</time></trkpt><trkpt lat="37.84352368240553" lon="14.151236478329452"><ele>1093.0</ele><time>2026-04-09T10:09:52Z</time></trkpt><trkpt lat="37.84367466496402" lon="14.151367103687027"><ele>1093.3333333333333</ele><time>2026-04-09T10:09:53Z</time></trkpt><trkpt lat="37.84385233970115" lon="14.151464945925708"><ele>1093.6666666666667</ele><time>2026-04-09T10:09:54Z</time></trkpt><trkpt lat="37.844058168756106" lon="14.151525142046625"><ele>1094.0</ele><time>2026-04-09T10:09:55Z</time></trkpt><trkpt lat="37.844297276689986" lon="14.15156614637444"><ele>1094.0</ele><time>2026-04-09T10:09:56Z</time></trkpt><trkpt lat="37.84453381878711" lon="14.151616479890523"><ele>1094.0</ele><time>2026-04-09T10:09:57Z</time></trkpt><trkpt lat="37.844750496706716" lon="14.151681397415146"><ele>1094.0</ele><time>2026-04-09T10:09:58Z</time></trkpt><trkpt lat="37.84495127582818" lon="14.151773355922773"><ele>1094.0</ele><time>2026-04-09T10:09:59Z</time></trkpt><trkpt lat="37.84515801388604" lon="14.151916768457893"><ele>1094.0</ele><time>2026-04-09T10:10:00Z</time></trkpt><trkpt lat="37.84535050285207" lon="14.152081808134398"><ele>1095.5</ele><time>2026-04-09T10:10:01Z</time></trkpt><trkpt lat="37.84549939234938" lon="14.152214291356362"><ele>1097.0</ele><time>2026-04-09T10:10:02Z</time></trkpt><trkpt lat="37.84561798899282" lon="14.1523026325446"><ele>1098.5</ele><time>2026-04-09T10:10:03Z</time></trkpt><trkpt lat="37.84573069401423" lon="14.152356302866423"><ele>1100.0</ele><time>2026-04-09T10:10:04Z</time></trkpt><trkpt lat="37.845838941466624" lon="14.152369682920751"><ele>1100.0</ele><time>2026-04-09T10:10:05Z</time></trkpt><trkpt lat="37.84594033654693" lon="14.152328649402719"><ele>1100.0</ele><time>2026-04-09T10:10:06Z</time></trkpt><trkpt lat="37.84602872683294" lon="14.152249605754282"><ele>1100.0</ele><time>2026-04-09T10:10:07Z</time></trkpt><trkpt lat="37.846108620894505" lon="14.152188171487458"><ele>1100.0</ele><time>2026-04-09T10:10:08Z</time></trkpt><trkpt lat="37.846206027642616" lon="14.152194760960446"><ele>1100.0</ele><time>2026-04-09T10:10:09Z</time></trkpt><trkpt lat="37.846317894115685" lon="14.1522599747548"><ele>1094.6666666666667</ele><time>2026-04-09T10:10:10Z</time></trkpt><trkpt lat="37.846429321581006" lon="14.152388568414834"><ele>1089.3333333333333</ele><time>2026-04-09T10:10:11Z</time></trkpt><trkpt lat="37.84653795607366" lon="14.152562494595653"><ele>1084.0</ele><time>2026-04-09T10:10:12Z</time></trkpt><trkpt lat="37.846660490764265" lon="14.152787290599672"><ele>1085.5</ele><time>2026-04-09T10:10:13Z</time></trkpt><trkpt lat="37.846801294136164" lon="14.153021704186214"><ele>1087.0</ele><time>2026-04-09T10:10:14Z</time></trkpt><trkpt lat="37.84696389138311" lon="14.15327479852822"><ele>1087.0</ele><time>2026-04-09T10:10:15Z</time></trkpt><trkpt lat="37.847136280609675" lon="14.153524544216294"><ele>1087.0</ele><time>2026-04-09T10:10:16Z</time></trkpt><trkpt lat="37.847322817590516" lon="14.153743471286713"><ele>1087.0</ele><time>2026-04-09T10:10:17Z</time></trkpt><trkpt lat="37.847497884489854" lon="14.153923736193759"><ele>1087.0</ele><time>2026-04-09T10:10:18Z</time></trkpt><trkpt lat="37.84763978340598" lon="14.15406443933576"><ele>1087.0</ele><time>2026-04-09T10:10:19Z</time></trkpt><trkpt lat="37.84774352417278" lon="14.15417449162668"><ele>1083.6</ele><time>2026-04-09T10:10:20Z</time></trkpt><trkpt lat="37.84782535112453" lon="14.154257668399294"><ele>1080.2</ele><time>2026-04-09T10:10:21Z</time></trkpt><trkpt lat="37.84791446690322" lon="14.154295157773669"><ele>1076.8</ele><time>2026-04-09T10:10:22Z</time></trkpt><trkpt lat="37.84801900395792" lon="14.15427955803858"><ele>1073.4</ele><time>2026-04-09T10:10:23Z</time></trkpt><trkpt lat="37.84813236002172" lon="14.154187002362965"><ele>1070.0</ele><time>2026-04-09T10:10:24Z</time></trkpt><trkpt lat="37.84825867586118" lon="14.154065841280278"><ele>1077.3333333333335</ele><time>2026-04-09T10:10:25Z</time></trkpt><trkpt lat="37.84841620952558" lon="14.153931186542481"><ele>1084.6666666666667</ele><time>2026-04-09T10:10:26Z</time></trkpt><trkpt lat="37.84857327024491" lon="14.153832006878815"><ele>1092.0</ele><time>2026-04-09T10:10:27Z</time></trkpt><trkpt lat="37.848717860111265" lon="14.153764813301416"><ele>1093.6666666666667</ele><time>2026-04-09T10:10:28Z</time></trkpt><trkpt lat="37.84887383013541" lon="14.153779065091262"><ele>1095.3333333333335</ele><time>2026-04-09T10:10:29Z</time></trkpt><trkpt lat="37.84906507069654" lon="14.153811172683701"><ele>1097.0</ele><time>2026-04-09T10:10:30Z</time></trkpt><trkpt lat="37.849275934335715" lon="14.15383829355278"><ele>1095.0</ele><time>2026-04-09T10:10:31Z</time></trkpt><trkpt lat="37.84945695224115" lon="14.153885416461288"><ele>1093.0</ele><time>2026-04-09T10:10:32Z</time></trkpt><trkpt lat="37.84961773281148" lon="14.153902321629902"><ele>1091.0</ele><time>2026-04-09T10:10:33Z</time></trkpt><trkpt lat="37.849775429456" lon="14.153879189075411"><ele>1091.0</ele><time>2026-04-09T10:10:34Z</time></trkpt><trkpt lat="37.84994441266283" lon="14.153803480234378"><ele>1091.0</ele><time>2026-04-09T10:10:35Z</time></trkpt><trkpt lat="37.85012509193909" lon="14.153682671022237"><ele>1091.0</ele><time>2026-04-09T10:10:36Z</time></trkpt><trkpt lat="37.85031968827355" lon="14.153547760260151"><ele>1086.6666666666667</ele><time>2026-04-09T10:10:37Z</time></trkpt><trkpt lat="37.85049273236694" lon="14.153426087392456"><ele>1082.3333333333333</ele><time>2026-04-09T10:10:38Z</time></trkpt><trkpt lat="37.85064791765076" lon="14.153322065961575"><ele>1078.0</ele><time>2026-04-09T10:10:39Z</time></trkpt><trkpt lat="37.850799107587505" lon="14.153228271131733"><ele>1079.75</ele><time>2026-04-09T10:10:40Z</time></trkpt><trkpt lat="37.85094497050148" lon="14.153142399431871"><ele>1081.5</ele><time>2026-04-09T10:10:41Z</time></trkpt><trkpt lat="37.85107436871884" lon="14.15305930093912"><ele>1083.25</ele><time>2026-04-09T10:10:42Z</time></trkpt><trkpt lat="37.85118132509947" lon="14.152990812698814"><ele>1085.0</ele><time>2026-04-09T10:10:43Z</time></trkpt><trkpt lat="37.85127016492442" lon="14.152934251100485"><ele>1085.0</ele><time>2026-04-09T10:10:44Z</time></trkpt><trkpt lat="37.85134887008977" lon="14.152891063296815"><ele>1085.0</ele><time>2026-04-09T10:10:45Z</time></trkpt><trkpt lat="37.851422748796175" lon="14.152862516119132"><ele>1085.0</ele><time>2026-04-09T10:10:46Z</time></trkpt><trkpt lat="37.851522888634676" lon="14.152847849613169"><ele>1085.0</ele><time>2026-04-09T10:10:48Z</time></trkpt><trkpt lat="37.85160670961778" lon="14.152865947542605"><ele>1085.0</ele><time>2026-04-09T10:10:50Z</time></trkpt><trkpt lat="37.85171091186519" lon="14.152913745354503"><ele>1084.8</ele><time>2026-04-09T10:10:52Z</time></trkpt><trkpt lat="37.851795291674385" lon="14.152954704183387"><ele>1084.6</ele><time>2026-04-09T10:10:53Z</time></trkpt><trkpt lat="37.85189145195872" lon="14.152997526546455"><ele>1084.4</ele><time>2026-04-09T10:10:54Z</time></trkpt><trkpt lat="37.851983035853884" lon="14.153010330013938"><ele>1084.2</ele><time>2026-04-09T10:10:55Z</time></trkpt><trkpt lat="37.85208891024563" lon="14.152978460875017"><ele>1084.0</ele><time>2026-04-09T10:10:56Z</time></trkpt><trkpt lat="37.852209583968055" lon="14.152889238767527"><ele>1084.0</ele><time>2026-04-09T10:10:57Z</time></trkpt><trkpt lat="37.852355995469324" lon="14.152771754813095"><ele>1084.0</ele><time>2026-04-09T10:10:58Z</time></trkpt><trkpt lat="37.85251872142322" lon="14.15264394516364"><ele>1084.0</ele><time>2026-04-09T10:10:59Z</time></trkpt><trkpt lat="37.85271205984268" lon="14.152501677103281"><ele>1077.6666666666665</ele><time>2026-04-09T10:11:00Z</time></trkpt><trkpt lat="37.852897715712466" lon="14.152366691056237"><ele>1071.3333333333333</ele><time>2026-04-09T10:11:01Z</time></trkpt><trkpt lat="37.85307018741716" lon="14.152244209396601"><ele>1065.0</ele><time>2026-04-09T10:11:02Z</time></trkpt><trkpt lat="37.85322218027209" lon="14.152125153067272"><ele>1065.0</ele><time>2026-04-09T10:11:03Z</time></trkpt><trkpt lat="37.85336241172775" lon="14.152020917696968"><ele>1065.0</ele><time>2026-04-09T10:11:04Z</time></trkpt><trkpt lat="37.853518516501715" lon="14.151932888758067"><ele>1065.0</ele><time>2026-04-09T10:11:05Z</time></trkpt><trkpt lat="37.85369959497691" lon="14.151867783129244"><ele>1066.0</ele><time>2026-04-09T10:11:06Z</time></trkpt><trkpt lat="37.85386618361719" lon="14.15182388704895"><ele>1067.0</ele><time>2026-04-09T10:11:07Z</time></trkpt><trkpt lat="37.854023797094456" lon="14.151793073532044"><ele>1068.0</ele><time>2026-04-09T10:11:08Z</time></trkpt><trkpt lat="37.85417379400725" lon="14.151774575633675"><ele>1061.3333333333333</ele><time>2026-04-09T10:11:09Z</time></trkpt><trkpt lat="37.85433039984133" lon="14.151794365919836"><ele>1054.6666666666665</ele><time>2026-04-09T10:11:10Z</time></trkpt><trkpt lat="37.85448690119213" lon="14.151841230977068"><ele>1048.0</ele><time>2026-04-09T10:11:11Z</time></trkpt><trkpt lat="37.854631712698605" lon="14.151914172141916"><ele>1048.0</ele><time>2026-04-09T10:11:12Z</time></trkpt><trkpt lat="37.8547672880076" lon="14.152016954846621"><ele>1048.0</ele><time>2026-04-09T10:11:13Z</time></trkpt><trkpt lat="37.85486968948458" lon="14.152115122791038"><ele>1048.0</ele><time>2026-04-09T10:11:14Z</time></trkpt><trkpt lat="37.854956550619846" lon="14.152185559437468"><ele>1048.0</ele><time>2026-04-09T10:11:15Z</time></trkpt><trkpt lat="37.85501340569214" lon="14.152225915132346"><ele>1048.0</ele><time>2026-04-09T10:11:16Z</time></trkpt><trkpt lat="37.855076185125476" lon="14.15227146975711"><ele>1048.0</ele><time>2026-04-09T10:11:18Z</time></trkpt><trkpt lat="37.85515605186552" lon="14.152345036083464"><ele>1048.0</ele><time>2026-04-09T10:11:27Z</time></trkpt><trkpt lat="37.8552443852076" lon="14.15239551231693"><ele>1048.0</ele><time>2026-04-09T10:11:28Z</time></trkpt><trkpt lat="37.855352849732604" lon="14.152462463564978"><ele>1048.0</ele><time>2026-04-09T10:11:29Z</time></trkpt><trkpt lat="37.855492851778045" lon="14.152568694051059"><ele>1045.6666666666665</ele><time>2026-04-09T10:11:30Z</time></trkpt><trkpt lat="37.85564944857075" lon="14.152692822875682"><ele>1043.3333333333333</ele><time>2026-04-09T10:11:31Z</time></trkpt><trkpt lat="37.855830400448156" lon="14.152818463166799"><ele>1041.0</ele><time>2026-04-09T10:11:32Z</time></trkpt><trkpt lat="37.856024211060436" lon="14.152925029867413"><ele>1041.0</ele><time>2026-04-09T10:11:33Z</time></trkpt><trkpt lat="37.856199241337855" lon="14.153003454355332"><ele>1041.0</ele><time>2026-04-09T10:11:34Z</time></trkpt><trkpt lat="37.856365874843604" lon="14.153055150788424"><ele>1041.0</ele><time>2026-04-09T10:11:35Z</time></trkpt><trkpt lat="37.85652718711146" lon="14.153095374097239"><ele>1041.0</ele><time>2026-04-09T10:11:36Z</time></trkpt><trkpt lat="37.856684567225756" lon="14.153126388444619"><ele>1041.0</ele><time>2026-04-09T10:11:37Z</time></trkpt><trkpt lat="37.856852012924385" lon="14.153155467564053"><ele>1041.0</ele><time>2026-04-09T10:11:38Z</time></trkpt><trkpt lat="37.85701829085667" lon="14.153190868588178"><ele>1045.0</ele><time>2026-04-09T10:11:39Z</time></trkpt><trkpt lat="37.857169928774056" lon="14.153225485541771"><ele>1049.0</ele><time>2026-04-09T10:11:40Z</time></trkpt><trkpt lat="37.85730168798519" lon="14.153258402395076"><ele>1053.0</ele><time>2026-04-09T10:11:41Z</time></trkpt><trkpt lat="37.857427879779706" lon="14.15329082056435"><ele>1057.0</ele><time>2026-04-09T10:11:42Z</time></trkpt><trkpt lat="37.85757147624975" lon="14.153324665231763"><ele>1054.6666666666665</ele><time>2026-04-09T10:11:43Z</time></trkpt><trkpt lat="37.857730532227585" lon="14.153360209980416"><ele>1052.3333333333333</ele><time>2026-04-09T10:11:44Z</time></trkpt><trkpt lat="37.85788819825629" lon="14.153397612050876"><ele>1050.0</ele><time>2026-04-09T10:11:45Z</time></trkpt><trkpt lat="37.858024676328554" lon="14.153446265982055"><ele>1050.0</ele><time>2026-04-09T10:11:46Z</time></trkpt><trkpt lat="37.85814572583325" lon="14.153492680033294"><ele>1050.0</ele><time>2026-04-09T10:11:47Z</time></trkpt><trkpt lat="37.858254331036285" lon="14.153535520717522"><ele>1050.0</ele><time>2026-04-09T10:11:48Z</time></trkpt><trkpt lat="37.85835768776812" lon="14.153554396689877"><ele>1050.0</ele><time>2026-04-09T10:11:49Z</time></trkpt><trkpt lat="37.858460596460624" lon="14.153516861173513"><ele>1053.6666666666667</ele><time>2026-04-09T10:11:50Z</time></trkpt><trkpt lat="37.85857670599926" lon="14.153420989400386"><ele>1057.3333333333335</ele><time>2026-04-09T10:11:51Z</time></trkpt><trkpt lat="37.858705330088384" lon="14.153250744787503"><ele>1061.0</ele><time>2026-04-09T10:11:52Z</time></trkpt><trkpt lat="37.85883196406621" lon="14.153110034058274"><ele>1051.5</ele><time>2026-04-09T10:11:53Z</time></trkpt><trkpt lat="37.85894695367207" lon="14.152994879664167"><ele>1042.0</ele><time>2026-04-09T10:11:54Z</time></trkpt><trkpt lat="37.859073492469484" lon="14.152888277279263"><ele>1032.5</ele><time>2026-04-09T10:11:55Z</time></trkpt><trkpt lat="37.859205075812866" lon="14.152813975701296"><ele>1023.0</ele><time>2026-04-09T10:11:56Z</time></trkpt><trkpt lat="37.85932810677045" lon="14.15277199267644"><ele>1020.0</ele><time>2026-04-09T10:11:57Z</time></trkpt><trkpt lat="37.85946513835921" lon="14.152758888998038"><ele>1017.0</ele><time>2026-04-09T10:11:58Z</time></trkpt><trkpt lat="37.859623494182394" lon="14.152781939366248"><ele>1014.0</ele><time>2026-04-09T10:11:59Z</time></trkpt><trkpt lat="37.85978683803532" lon="14.15283046290679"><ele>1014.0</ele><time>2026-04-09T10:12:00Z</time></trkpt><trkpt lat="37.85993108374692" lon="14.152886547680126"><ele>1014.0</ele><time>2026-04-09T10:12:01Z</time></trkpt><trkpt lat="37.86003993219057" lon="14.15295335272473"><ele>1014.0</ele><time>2026-04-09T10:12:02Z</time></trkpt><trkpt lat="37.86013859008382" lon="14.15301354402854"><ele>1014.0</ele><time>2026-04-09T10:12:03Z</time></trkpt><trkpt lat="37.86023034586031" lon="14.153074897223506"><ele>1013.25</ele><time>2026-04-09T10:12:04Z</time></trkpt><trkpt lat="37.860330007808344" lon="14.153148458179338"><ele>1012.5</ele><time>2026-04-09T10:12:05Z</time></trkpt><trkpt lat="37.860437247172456" lon="14.153248484121294"><ele>1011.75</ele><time>2026-04-09T10:12:06Z</time></trkpt><trkpt lat="37.86054544134696" lon="14.153374915399024"><ele>1011.0</ele><time>2026-04-09T10:12:07Z</time></trkpt><trkpt lat="37.86064182976836" lon="14.153488000949618"><ele>1011.0</ele><time>2026-04-09T10:12:08Z</time></trkpt><trkpt lat="37.86071578047404" lon="14.153602206197494"><ele>1011.0</ele><time>2026-04-09T10:12:09Z</time></trkpt><trkpt lat="37.86076411864846" lon="14.153722414379159"><ele>1011.0</ele><time>2026-04-09T10:12:10Z</time></trkpt><trkpt lat="37.8607928236036" lon="14.15385243663075"><ele>1011.0</ele><time>2026-04-09T10:12:11Z</time></trkpt><trkpt lat="37.86080641373531" lon="14.154004661742286"><ele>1016.0</ele><time>2026-04-09T10:12:12Z</time></trkpt><trkpt lat="37.8608239710935" lon="14.15418064144119"><ele>1021.0</ele><time>2026-04-09T10:12:13Z</time></trkpt><trkpt lat="37.86084377273093" lon="14.154348574648036"><ele>1026.0</ele><time>2026-04-09T10:12:14Z</time></trkpt><trkpt lat="37.860892427593114" lon="14.154496999261957"><ele>1031.0</ele><time>2026-04-09T10:12:15Z</time></trkpt><trkpt lat="37.860931320798734" lon="14.154634809365346"><ele>1027.5</ele><time>2026-04-09T10:12:16Z</time></trkpt><trkpt lat="37.861002141385086" lon="14.154763511325047"><ele>1024.0</ele><time>2026-04-09T10:12:17Z</time></trkpt><trkpt lat="37.861099800596484" lon="14.15490761838608"><ele>1020.5</ele><time>2026-04-09T10:12:18Z</time></trkpt><trkpt lat="37.86119391499004" lon="14.15505778313869"><ele>1017.0</ele><time>2026-04-09T10:12:19Z</time></trkpt><trkpt lat="37.86128858161603" lon="14.155206054179965"><ele>1017.0</ele><time>2026-04-09T10:12:20Z</time></trkpt><trkpt lat="37.86137791310194" lon="14.155341419758374"><ele>1017.0</ele><time>2026-04-09T10:12:21Z</time></trkpt><trkpt lat="37.86145117850853" lon="14.155461114150611"><ele>1017.0</ele><time>2026-04-09T10:12:22Z</time></trkpt><trkpt lat="37.86152989922948" lon="14.155547087553504"><ele>1017.0</ele><time>2026-04-09T10:12:23Z</time></trkpt><trkpt lat="37.86161848062968" lon="14.155591630733744"><ele>1017.0</ele><time>2026-04-09T10:12:24Z</time></trkpt><trkpt lat="37.86171150555505" lon="14.155594154945456"><ele>1017.0</ele><time>2026-04-09T10:12:25Z</time></trkpt><trkpt lat="37.86178555743295" lon="14.155561420543222"><ele>1017.0</ele><time>2026-04-09T10:12:26Z</time></trkpt><trkpt lat="37.86183782990425" lon="14.155507658194502"><ele>1017.0</ele><time>2026-04-09T10:12:27Z</time></trkpt><trkpt lat="37.86188067386939" lon="14.155436251821522"><ele>1017.0</ele><time>2026-04-09T10:12:28Z</time></trkpt><trkpt lat="37.861912327827326" lon="14.155352755890773"><ele>1017.0</ele><time>2026-04-09T10:12:29Z</time></trkpt><trkpt lat="37.86192322168728" lon="14.155233290402908"><ele>1016.75</ele><time>2026-04-09T10:12:30Z</time></trkpt><trkpt lat="37.861934248258095" lon="14.155082208123327"><ele>1016.5</ele><time>2026-04-09T10:12:31Z</time></trkpt><trkpt lat="37.86196158182872" lon="14.154900494048636"><ele>1016.25</ele><time>2026-04-09T10:12:32Z</time></trkpt><trkpt lat="37.861997259345756" lon="14.154723343906324"><ele>1016.0</ele><time>2026-04-09T10:12:33Z</time></trkpt><trkpt lat="37.862030669789384" lon="14.154544627002947"><ele>1014.5</ele><time>2026-04-09T10:12:34Z</time></trkpt><trkpt lat="37.86206740918682" lon="14.15436998030531"><ele>1013.0</ele><time>2026-04-09T10:12:35Z</time></trkpt><trkpt lat="37.86211859620717" lon="14.154214513556326"><ele>1011.5</ele><time>2026-04-09T10:12:36Z</time></trkpt><trkpt lat="37.862209317958786" lon="14.154105438192051"><ele>1010.0</ele><time>2026-04-09T10:12:37Z</time></trkpt><trkpt lat="37.86231522513807" lon="14.15400660637098"><ele>1007.0</ele><time>2026-04-09T10:12:38Z</time></trkpt><trkpt lat="37.8624523057168" lon="14.153900038705112"><ele>1004.0</ele><time>2026-04-09T10:12:39Z</time></trkpt><trkpt lat="37.86257769461644" lon="14.15379213650825"><ele>1001.0</ele><time>2026-04-09T10:12:40Z</time></trkpt><trkpt lat="37.8626788321041" lon="14.15371825836435"><ele>998.0</ele><time>2026-04-09T10:12:41Z</time></trkpt><trkpt lat="37.86276328265298" lon="14.153671241657767"><ele>997.5999999999999</ele><time>2026-04-09T10:12:42Z</time></trkpt><trkpt lat="37.86285352247443" lon="14.15371894952119"><ele>997.1999999999999</ele><time>2026-04-09T10:12:43Z</time></trkpt><trkpt lat="37.86293654212891" lon="14.153741424424675"><ele>996.8</ele><time>2026-04-09T10:12:44Z</time></trkpt><trkpt lat="37.86298826295164" lon="14.153879912744166"><ele>996.4</ele><time>2026-04-09T10:12:45Z</time></trkpt><trkpt lat="37.863042431701054" lon="14.154029627690797"><ele>996.0</ele><time>2026-04-09T10:12:46Z</time></trkpt><trkpt lat="37.86309997117182" lon="14.154220382849836"><ele>998.0</ele><time>2026-04-09T10:12:47Z</time></trkpt><trkpt lat="37.86316605133208" lon="14.154434038493113"><ele>1000.0</ele><time>2026-04-09T10:12:48Z</time></trkpt><trkpt lat="37.86323577206575" lon="14.154632977352334"><ele>1002.0</ele><time>2026-04-09T10:12:49Z</time></trkpt><trkpt lat="37.863292194014704" lon="14.154816065915416"><ele>1002.25</ele><time>2026-04-09T10:12:50Z</time></trkpt><trkpt lat="37.863346524995386" lon="14.154986790784413"><ele>1002.5</ele><time>2026-04-09T10:12:51Z</time></trkpt><trkpt lat="37.86339136356846" lon="14.15513202896878"><ele>1002.75</ele><time>2026-04-09T10:12:52Z</time></trkpt><trkpt lat="37.86344535558183" lon="14.155248610571808"><ele>1003.0</ele><time>2026-04-09T10:12:53Z</time></trkpt><trkpt lat="37.86352012441122" lon="14.155330672039478"><ele>1001.75</ele><time>2026-04-09T10:12:54Z</time></trkpt><trkpt lat="37.86362105863631" lon="14.155376679435609"><ele>1000.5</ele><time>2026-04-09T10:12:55Z</time></trkpt><trkpt lat="37.86374117204918" lon="14.155406764831348"><ele>999.25</ele><time>2026-04-09T10:12:56Z</time></trkpt><trkpt lat="37.86386392947279" lon="14.155398260344315"><ele>998.0</ele><time>2026-04-09T10:12:57Z</time></trkpt><trkpt lat="37.86397188205087" lon="14.155344567094962"><ele>998.0</ele><time>2026-04-09T10:12:58Z</time></trkpt><trkpt lat="37.86406983069897" lon="14.155266759757072"><ele>998.0</ele><time>2026-04-09T10:12:59Z</time></trkpt><trkpt lat="37.86414579863096" lon="14.15515760516547"><ele>998.0</ele><time>2026-04-09T10:13:00Z</time></trkpt><trkpt lat="37.86418819732374" lon="14.155015356961542"><ele>998.0</ele><time>2026-04-09T10:13:01Z</time></trkpt><trkpt lat="37.86420280936641" lon="14.15484569163065"><ele>997.0</ele><time>2026-04-09T10:13:02Z</time></trkpt><trkpt lat="37.86420276136089" lon="14.15464211602175"><ele>996.0</ele><time>2026-04-09T10:13:03Z</time></trkpt><trkpt lat="37.864200218615316" lon="14.15440415375783"><ele>995.0</ele><time>2026-04-09T10:13:04Z</time></trkpt><trkpt lat="37.8642023750639" lon="14.154179308782451"><ele>993.3333333333334</ele><time>2026-04-09T10:13:05Z</time></trkpt><trkpt lat="37.86421022307195" lon="14.153976678544462"><ele>991.6666666666667</ele><time>2026-04-09T10:13:06Z</time></trkpt><trkpt lat="37.864239639248794" lon="14.153766580955638"><ele>990.0</ele><time>2026-04-09T10:13:07Z</time></trkpt><trkpt lat="37.86432651660258" lon="14.153540395566315"><ele>990.3333333333333</ele><time>2026-04-09T10:13:08Z</time></trkpt><trkpt lat="37.86440471383901" lon="14.153273544740276"><ele>990.6666666666666</ele><time>2026-04-09T10:13:09Z</time></trkpt><trkpt lat="37.86443552642777" lon="14.153021050336456"><ele>991.0</ele><time>2026-04-09T10:13:10Z</time></trkpt><trkpt lat="37.86447000099087" lon="14.152814570149783"><ele>991.0</ele><time>2026-04-09T10:13:11Z</time></trkpt><trkpt lat="37.86448929566265" lon="14.15263520192743"><ele>991.0</ele><time>2026-04-09T10:13:12Z</time></trkpt><trkpt lat="37.86452133335042" lon="14.152489409552025"><ele>991.0</ele><time>2026-04-09T10:13:13Z</time></trkpt><trkpt lat="37.86458267061274" lon="14.152340951606837"><ele>991.0</ele><time>2026-04-09T10:13:14Z</time></trkpt><trkpt lat="37.86466975914952" lon="14.152224027850435"><ele>981.75</ele><time>2026-04-09T10:13:15Z</time></trkpt><trkpt lat="37.86477375119174" lon="14.152142717396355"><ele>972.5</ele><time>2026-04-09T10:13:16Z</time></trkpt><trkpt lat="37.86489673232402" lon="14.152094282049829"><ele>963.25</ele><time>2026-04-09T10:13:17Z</time></trkpt><trkpt lat="37.86505059252473" lon="14.152058399993667"><ele>954.0</ele><time>2026-04-09T10:13:18Z</time></trkpt><trkpt lat="37.865225519164575" lon="14.152036325081509"><ele>953.0</ele><time>2026-04-09T10:13:19Z</time></trkpt><trkpt lat="37.86538175436527" lon="14.152025384092067"><ele>952.0</ele><time>2026-04-09T10:13:20Z</time></trkpt><trkpt lat="37.86552883253123" lon="14.152036555840246"><ele>951.0</ele><time>2026-04-09T10:13:21Z</time></trkpt><trkpt lat="37.865685320987424" lon="14.152083494686599"><ele>951.0</ele><time>2026-04-09T10:13:22Z</time></trkpt><trkpt lat="37.86586653977463" lon="14.152179507733349"><ele>951.0</ele><time>2026-04-09T10:13:23Z</time></trkpt><trkpt lat="37.866041639804884" lon="14.152288543827835"><ele>951.0</ele><time>2026-04-09T10:13:24Z</time></trkpt><trkpt lat="37.86618753811975" lon="14.152375541894617"><ele>953.0</ele><time>2026-04-09T10:13:25Z</time></trkpt><trkpt lat="37.866303494905516" lon="14.152448790563563"><ele>955.0</ele><time>2026-04-09T10:13:26Z</time></trkpt><trkpt lat="37.866398593512045" lon="14.152535023715574"><ele>957.0</ele><time>2026-04-09T10:13:27Z</time></trkpt><trkpt lat="37.86647361381357" lon="14.152639587268755"><ele>959.0</ele><time>2026-04-09T10:13:28Z</time></trkpt><trkpt lat="37.86652954197151" lon="14.152778534340918"><ele>959.0</ele><time>2026-04-09T10:13:29Z</time></trkpt><trkpt lat="37.86655593126367" lon="14.152971851916513"><ele>959.0</ele><time>2026-04-09T10:13:30Z</time></trkpt><trkpt lat="37.86662072003165" lon="14.153187191222234"><ele>959.0</ele><time>2026-04-09T10:13:31Z</time></trkpt><trkpt lat="37.8666651097597" lon="14.153378732606411"><ele>957.75</ele><time>2026-04-09T10:13:32Z</time></trkpt><trkpt lat="37.86670145680414" lon="14.153536001256517"><ele>956.5</ele><time>2026-04-09T10:13:33Z</time></trkpt><trkpt lat="37.8667462751284" lon="14.15365996129624"><ele>955.25</ele><time>2026-04-09T10:13:34Z</time></trkpt><trkpt lat="37.866822075825894" lon="14.153758136465127"><ele>954.0</ele><time>2026-04-09T10:13:35Z</time></trkpt><trkpt lat="37.8669249039087" lon="14.153828897028516"><ele>954.0</ele><time>2026-04-09T10:13:36Z</time></trkpt><trkpt lat="37.86704695258961" lon="14.153863484033655"><ele>954.0</ele><time>2026-04-09T10:13:37Z</time></trkpt><trkpt lat="37.86719050864759" lon="14.15384362382318"><ele>954.0</ele><time>2026-04-09T10:13:38Z</time></trkpt><trkpt lat="37.86735084740074" lon="14.153790582688497"><ele>954.0</ele><time>2026-04-09T10:13:39Z</time></trkpt><trkpt lat="37.86749102131949" lon="14.153756776425965"><ele>954.0</ele><time>2026-04-09T10:13:40Z</time></trkpt><trkpt lat="37.86760234654013" lon="14.153757398963537"><ele>954.0</ele><time>2026-04-09T10:13:41Z</time></trkpt><trkpt lat="37.86769579949712" lon="14.153805871231997"><ele>954.0</ele><time>2026-04-09T10:13:42Z</time></trkpt><trkpt lat="37.86777612977122" lon="14.153897705693725"><ele>954.0</ele><time>2026-04-09T10:13:43Z</time></trkpt><trkpt lat="37.867847782212316" lon="14.15403552911146"><ele>955.0</ele><time>2026-04-09T10:13:44Z</time></trkpt><trkpt lat="37.86792134168462" lon="14.154207396810797"><ele>956.0</ele><time>2026-04-09T10:13:45Z</time></trkpt><trkpt lat="37.868008334517896" lon="14.154410300790643"><ele>957.0</ele><time>2026-04-09T10:13:46Z</time></trkpt><trkpt lat="37.868095054453214" lon="14.154597760163702"><ele>957.0</ele><time>2026-04-09T10:13:47Z</time></trkpt><trkpt lat="37.86817527322703" lon="14.154764769362036"><ele>957.0</ele><time>2026-04-09T10:13:48Z</time></trkpt><trkpt lat="37.86823816111249" lon="14.154902575103046"><ele>957.0</ele><time>2026-04-09T10:13:49Z</time></trkpt><trkpt lat="37.868292304644186" lon="14.155011186661664"><ele>957.0</ele><time>2026-04-09T10:13:50Z</time></trkpt><trkpt lat="37.8683528015299" lon="14.155101372470293"><ele>957.0</ele><time>2026-04-09T10:13:51Z</time></trkpt><trkpt lat="37.86843647649956" lon="14.155159666990203"><ele>957.0</ele><time>2026-04-09T10:13:52Z</time></trkpt><trkpt lat="37.868546300094884" lon="14.155168598074543"><ele>957.0</ele><time>2026-04-09T10:13:53Z</time></trkpt><trkpt lat="37.86866173997092" lon="14.155128876210576"><ele>957.0</ele><time>2026-04-09T10:13:54Z</time></trkpt><trkpt lat="37.86877601519919" lon="14.155034623027968"><ele>954.0</ele><time>2026-04-09T10:13:55Z</time></trkpt><trkpt lat="37.86888651456219" lon="14.154928288197498"><ele>951.0</ele><time>2026-04-09T10:13:56Z</time></trkpt><trkpt lat="37.86897709013893" lon="14.154827751424019"><ele>948.0</ele><time>2026-04-09T10:13:57Z</time></trkpt><trkpt lat="37.869047116517514" lon="14.154715087398424"><ele>945.0</ele><time>2026-04-09T10:13:58Z</time></trkpt><trkpt lat="37.86908081354158" lon="14.15457872959455"><ele>945.0</ele><time>2026-04-09T10:13:59Z</time></trkpt><trkpt lat="37.86906519246838" lon="14.154428696248146"><ele>945.0</ele><time>2026-04-09T10:14:00Z</time></trkpt><trkpt lat="37.86903570766066" lon="14.15428804321035"><ele>945.0</ele><time>2026-04-09T10:14:01Z</time></trkpt><trkpt lat="37.86902478142473" lon="14.154162026427967"><ele>945.0</ele><time>2026-04-09T10:14:02Z</time></trkpt><trkpt lat="37.86904563623312" lon="14.154042429699421"><ele>945.0</ele><time>2026-04-09T10:14:03Z</time></trkpt><trkpt lat="37.86910395110334" lon="14.153938323736536"><ele>943.0</ele><time>2026-04-09T10:14:04Z</time></trkpt><trkpt lat="37.8692023126306" lon="14.15384510350592"><ele>941.0</ele><time>2026-04-09T10:14:05Z</time></trkpt><trkpt lat="37.86934446399134" lon="14.153743464368613"><ele>939.0</ele><time>2026-04-09T10:14:06Z</time></trkpt><trkpt lat="37.869521108048005" lon="14.153631181011864"><ele>939.0</ele><time>2026-04-09T10:14:07Z</time></trkpt><trkpt lat="37.86970774261859" lon="14.153510110268309"><ele>939.0</ele><time>2026-04-09T10:14:08Z</time></trkpt><trkpt lat="37.869876826513384" lon="14.153390542816284"><ele>939.0</ele><time>2026-04-09T10:14:09Z</time></trkpt><trkpt lat="37.870023770149544" lon="14.153288849257844"><ele>943.75</ele><time>2026-04-09T10:14:10Z</time></trkpt><trkpt lat="37.87014747592018" lon="14.153203413524096"><ele>948.5</ele><time>2026-04-09T10:14:11Z</time></trkpt><trkpt lat="37.87025415624618" lon="14.15315138292463"><ele>953.25</ele><time>2026-04-09T10:14:12Z</time></trkpt><trkpt lat="37.87036745074324" lon="14.153145820064632"><ele>958.0</ele><time>2026-04-09T10:14:13Z</time></trkpt><trkpt lat="37.87049476677598" lon="14.153203380317505"><ele>954.3333333333333</ele><time>2026-04-09T10:14:14Z</time></trkpt><trkpt lat="37.8706274849972" lon="14.153328738180686"><ele>950.6666666666667</ele><time>2026-04-09T10:14:15Z</time></trkpt><trkpt lat="37.870796159143055" lon="14.153452059117445"><ele>947.0</ele><time>2026-04-09T10:14:16Z</time></trkpt><trkpt lat="37.87096023558104" lon="14.153602842881774"><ele>947.0</ele><time>2026-04-09T10:14:17Z</time></trkpt><trkpt lat="37.871116941656844" lon="14.153713800481013"><ele>947.0</ele><time>2026-04-09T10:14:18Z</time></trkpt><trkpt lat="37.87127436985209" lon="14.153783032684952"><ele>947.0</ele><time>2026-04-09T10:14:19Z</time></trkpt><trkpt lat="37.87143399279799" lon="14.153813869645385"><ele>947.0</ele><time>2026-04-09T10:14:20Z</time></trkpt><trkpt lat="37.871588312405976" lon="14.153791462471451"><ele>947.0</ele><time>2026-04-09T10:14:21Z</time></trkpt><trkpt lat="37.87174063205112" lon="14.153721075866557"><ele>947.0</ele><time>2026-04-09T10:14:22Z</time></trkpt><trkpt lat="37.87187649258364" lon="14.153655713625096"><ele>946.5</ele><time>2026-04-09T10:14:23Z</time></trkpt><trkpt lat="37.87198984163725" lon="14.153643438939785"><ele>946.0</ele><time>2026-04-09T10:14:24Z</time></trkpt><trkpt lat="37.87210917792819" lon="14.153699808062942"><ele>945.5</ele><time>2026-04-09T10:14:25Z</time></trkpt><trkpt lat="37.872250933868415" lon="14.153794839004442"><ele>945.0</ele><time>2026-04-09T10:14:26Z</time></trkpt><trkpt lat="37.872409810335604" lon="14.153899856202816"><ele>945.0</ele><time>2026-04-09T10:14:27Z</time></trkpt><trkpt lat="37.87258418626402" lon="14.153949539080747"><ele>945.0</ele><time>2026-04-09T10:14:28Z</time></trkpt><trkpt lat="37.8727801203659" lon="14.153954148599976"><ele>945.0</ele><time>2026-04-09T10:14:29Z</time></trkpt><trkpt lat="37.87296695306636" lon="14.153945388784694"><ele>948.0</ele><time>2026-04-09T10:14:30Z</time></trkpt><trkpt lat="37.87313555332669" lon="14.153960285778947"><ele>951.0</ele><time>2026-04-09T10:14:31Z</time></trkpt><trkpt lat="37.87329600175744" lon="14.154022114082457"><ele>954.0</ele><time>2026-04-09T10:14:32Z</time></trkpt><trkpt lat="37.87347484173974" lon="14.154137616913449"><ele>947.0</ele><time>2026-04-09T10:14:33Z</time></trkpt><trkpt lat="37.87363204875411" lon="14.154260887318092"><ele>940.0</ele><time>2026-04-09T10:14:34Z</time></trkpt><trkpt lat="37.87375863353967" lon="14.154378764469952"><ele>933.0</ele><time>2026-04-09T10:14:35Z</time></trkpt><trkpt lat="37.87385949141949" lon="14.154522566883138"><ele>933.0</ele><time>2026-04-09T10:14:36Z</time></trkpt><trkpt lat="37.8739207205097" lon="14.154694125958986"><ele>933.0</ele><time>2026-04-09T10:14:37Z</time></trkpt><trkpt lat="37.87397442333402" lon="14.154831933937725"><ele>933.0</ele><time>2026-04-09T10:14:38Z</time></trkpt><trkpt lat="37.874058089718076" lon="14.154913949067213"><ele>933.0</ele><time>2026-04-09T10:14:39Z</time></trkpt><trkpt lat="37.874180107204026" lon="14.154960476097477"><ele>933.2</ele><time>2026-04-09T10:14:40Z</time></trkpt><trkpt lat="37.87432605420545" lon="14.154957420037707"><ele>933.4</ele><time>2026-04-09T10:14:41Z</time></trkpt><trkpt lat="37.87444403171607" lon="14.154949628350687"><ele>933.6000000000001</ele><time>2026-04-09T10:14:42Z</time></trkpt><trkpt lat="37.874522748629744" lon="14.154973738184855"><ele>933.8000000000001</ele><time>2026-04-09T10:14:43Z</time></trkpt><trkpt lat="37.87457063646853" lon="14.155059427382122"><ele>934.0</ele><time>2026-04-09T10:14:44Z</time></trkpt><trkpt lat="37.874576880099575" lon="14.155204892437903"><ele>934.0</ele><time>2026-04-09T10:14:45Z</time></trkpt><trkpt lat="37.87461247982123" lon="14.155387311885608"><ele>934.0</ele><time>2026-04-09T10:14:46Z</time></trkpt><trkpt lat="37.87464912585629" lon="14.155573134372762"><ele>934.0</ele><time>2026-04-09T10:14:47Z</time></trkpt><trkpt lat="37.87470730076315" lon="14.15574724384381"><ele>934.0</ele><time>2026-04-09T10:14:48Z</time></trkpt><trkpt lat="37.87483337355554" lon="14.155944711933007"><ele>932.3333333333333</ele><time>2026-04-09T10:14:49Z</time></trkpt><trkpt lat="37.874970780599405" lon="14.156127825446369"><ele>930.6666666666667</ele><time>2026-04-09T10:14:50Z</time></trkpt><trkpt lat="37.8750858032664" lon="14.15626751078692"><ele>929.0</ele><time>2026-04-09T10:14:51Z</time></trkpt><trkpt lat="37.87521457815805" lon="14.156377156691486"><ele>929.0</ele><time>2026-04-09T10:14:52Z</time></trkpt><trkpt lat="37.87538995337104" lon="14.156468527345078"><ele>929.0</ele><time>2026-04-09T10:14:53Z</time></trkpt><trkpt lat="37.87560722940648" lon="14.156550643003204"><ele>929.0</ele><time>2026-04-09T10:14:54Z</time></trkpt><trkpt lat="37.875814183801836" lon="14.156635081218328"><ele>921.0</ele><time>2026-04-09T10:14:55Z</time></trkpt><trkpt lat="37.8759771307222" lon="14.156714110529867"><ele>913.0</ele><time>2026-04-09T10:14:56Z</time></trkpt><trkpt lat="37.87611422541635" lon="14.15679078282447"><ele>905.0</ele><time>2026-04-09T10:14:57Z</time></trkpt><trkpt lat="37.87624581573038" lon="14.156862357409569"><ele>905.0</ele><time>2026-04-09T10:14:58Z</time></trkpt><trkpt lat="37.87636980967339" lon="14.156928150859788"><ele>905.0</ele><time>2026-04-09T10:14:59Z</time></trkpt><trkpt lat="37.87647754527618" lon="14.15698326031703"><ele>905.0</ele><time>2026-04-09T10:15:00Z</time></trkpt><trkpt lat="37.876575071544124" lon="14.157042299564903"><ele>905.0</ele><time>2026-04-09T10:15:01Z</time></trkpt><trkpt lat="37.876666788113084" lon="14.157097185584824"><ele>905.0</ele><time>2026-04-09T10:15:02Z</time></trkpt><trkpt lat="37.87676684316169" lon="14.15714565865038"><ele>905.0</ele><time>2026-04-09T10:15:03Z</time></trkpt><trkpt lat="37.876881729656425" lon="14.157164158530747"><ele>905.0</ele><time>2026-04-09T10:15:04Z</time></trkpt><trkpt lat="37.87700679872305" lon="14.157141665877775"><ele>905.0</ele><time>2026-04-09T10:15:05Z</time></trkpt><trkpt lat="37.8771233980929" lon="14.157099965139125"><ele>903.6</ele><time>2026-04-09T10:15:06Z</time></trkpt><trkpt lat="37.87722467634749" lon="14.15705265358645"><ele>902.2</ele><time>2026-04-09T10:15:07Z</time></trkpt><trkpt lat="37.8773222487407" lon="14.157016919186113"><ele>900.8</ele><time>2026-04-09T10:15:08Z</time></trkpt><trkpt lat="37.87742086213388" lon="14.156986490952246"><ele>899.4</ele><time>2026-04-09T10:15:09Z</time></trkpt><trkpt lat="37.87751308347172" lon="14.156945253781537"><ele>898.0</ele><time>2026-04-09T10:15:10Z</time></trkpt><trkpt lat="37.87758792425527" lon="14.156878689226104"><ele>897.0</ele><time>2026-04-09T10:15:11Z</time></trkpt><trkpt lat="37.8776420457576" lon="14.156786220533638"><ele>896.0</ele><time>2026-04-09T10:15:12Z</time></trkpt><trkpt lat="37.87767293262263" lon="14.156676042292256"><ele>895.0</ele><time>2026-04-09T10:15:13Z</time></trkpt><trkpt lat="37.87768444617612" lon="14.156561832105721"><ele>894.0</ele><time>2026-04-09T10:15:14Z</time></trkpt><trkpt lat="37.87769614221717" lon="14.156453009128915"><ele>893.0</ele><time>2026-04-09T10:15:15Z</time></trkpt><trkpt lat="37.8777338397257" lon="14.156347822078251"><ele>893.0</ele><time>2026-04-09T10:15:16Z</time></trkpt><trkpt lat="37.87779613642115" lon="14.156255099631291"><ele>893.0</ele><time>2026-04-09T10:15:17Z</time></trkpt><trkpt lat="37.87787544639955" lon="14.156189629632003"><ele>893.0</ele><time>2026-04-09T10:15:18Z</time></trkpt><trkpt lat="37.87796291408228" lon="14.156140406545166"><ele>893.0</ele><time>2026-04-09T10:15:19Z</time></trkpt><trkpt lat="37.87805099439452" lon="14.156123932086876"><ele>893.0</ele><time>2026-04-09T10:15:20Z</time></trkpt><trkpt lat="37.87814498570089" lon="14.1561163930757"><ele>893.0</ele><time>2026-04-09T10:15:21Z</time></trkpt><trkpt lat="37.87824093864056" lon="14.156122074792615"><ele>893.0</ele><time>2026-04-09T10:15:22Z</time></trkpt><trkpt lat="37.878336271981155" lon="14.156092074634286"><ele>893.0</ele><time>2026-04-09T10:15:23Z</time></trkpt><trkpt lat="37.878423651492454" lon="14.15600589175239"><ele>893.0</ele><time>2026-04-09T10:15:24Z</time></trkpt><trkpt lat="37.87850955353715" lon="14.155903951040846"><ele>893.0</ele><time>2026-04-09T10:15:25Z</time></trkpt><trkpt lat="37.87864755637533" lon="14.155825692458304"><ele>893.0</ele><time>2026-04-09T10:15:26Z</time></trkpt><trkpt lat="37.87880823229806" lon="14.15572347960799"><ele>893.0</ele><time>2026-04-09T10:15:27Z</time></trkpt><trkpt lat="37.87897561123708" lon="14.155663783231471"><ele>893.0</ele><time>2026-04-09T10:15:28Z</time></trkpt><trkpt lat="37.87913241931985" lon="14.15558722399554"><ele>885.3333333333334</ele><time>2026-04-09T10:15:29Z</time></trkpt><trkpt lat="37.879293930978626" lon="14.15544826412832"><ele>877.6666666666667</ele><time>2026-04-09T10:15:30Z</time></trkpt><trkpt lat="37.87945958409908" lon="14.155259170484344"><ele>870.0</ele><time>2026-04-09T10:15:31Z</time></trkpt><trkpt lat="37.8796052895221" lon="14.155087325987662"><ele>870.0</ele><time>2026-04-09T10:15:32Z</time></trkpt><trkpt lat="37.8797292079689" lon="14.154896635356323"><ele>870.0</ele><time>2026-04-09T10:15:33Z</time></trkpt><trkpt lat="37.879847639579815" lon="14.154666311617031"><ele>870.0</ele><time>2026-04-09T10:15:34Z</time></trkpt><trkpt lat="37.8799733753923" lon="14.154440449981173"><ele>871.3333333333333</ele><time>2026-04-09T10:15:35Z</time></trkpt><trkpt lat="37.88010523174892" lon="14.154242351185767"><ele>872.6666666666666</ele><time>2026-04-09T10:15:36Z</time></trkpt><trkpt lat="37.88022907462333" lon="14.154051251980201"><ele>874.0</ele><time>2026-04-09T10:15:37Z</time></trkpt><trkpt lat="37.88033726327949" lon="14.153872858578799"><ele>874.0</ele><time>2026-04-09T10:15:38Z</time></trkpt><trkpt lat="37.88041962614161" lon="14.153722768583568"><ele>874.0</ele><time>2026-04-09T10:15:39Z</time></trkpt><trkpt lat="37.880501123483576" lon="14.153594929165145"><ele>874.0</ele><time>2026-04-09T10:15:40Z</time></trkpt><trkpt lat="37.88061957145874" lon="14.153492976536494"><ele>874.0</ele><time>2026-04-09T10:15:41Z</time></trkpt><trkpt lat="37.88079094413453" lon="14.153397938173619"><ele>875.0</ele><time>2026-04-09T10:15:42Z</time></trkpt><trkpt lat="37.88097936528994" lon="14.153272460247637"><ele>876.0</ele><time>2026-04-09T10:15:43Z</time></trkpt><trkpt lat="37.88117382310339" lon="14.153110935109304"><ele>877.0</ele><time>2026-04-09T10:15:44Z</time></trkpt><trkpt lat="37.88137036094248" lon="14.15295333852601"><ele>877.0</ele><time>2026-04-09T10:15:45Z</time></trkpt><trkpt lat="37.88158158844503" lon="14.152822049356075"><ele>877.0</ele><time>2026-04-09T10:15:46Z</time></trkpt><trkpt lat="37.881780960387715" lon="14.152726573198029"><ele>877.0</ele><time>2026-04-09T10:15:47Z</time></trkpt><trkpt lat="37.88196539448855" lon="14.152636945969313"><ele>876.6666666666666</ele><time>2026-04-09T10:15:48Z</time></trkpt><trkpt lat="37.88212825691027" lon="14.152528187150775"><ele>876.3333333333333</ele><time>2026-04-09T10:15:49Z</time></trkpt><trkpt lat="37.8822564696583" lon="14.152395577213436"><ele>876.0</ele><time>2026-04-09T10:15:50Z</time></trkpt><trkpt lat="37.882350043711014" lon="14.152281912402703"><ele>876.0</ele><time>2026-04-09T10:15:51Z</time></trkpt><trkpt lat="37.88244855555787" lon="14.15220572029925"><ele>876.0</ele><time>2026-04-09T10:15:52Z</time></trkpt><trkpt lat="37.88258910351217" lon="14.152159721733376"><ele>876.0</ele><time>2026-04-09T10:15:53Z</time></trkpt><trkpt lat="37.88273072330067" lon="14.152128124290432"><ele>876.0</ele><time>2026-04-09T10:15:54Z</time></trkpt><trkpt lat="37.88285174258348" lon="14.15205463295335"><ele>873.5</ele><time>2026-04-09T10:15:55Z</time></trkpt><trkpt lat="37.8829463701642" lon="14.151917692778417"><ele>871.0</ele><time>2026-04-09T10:15:56Z</time></trkpt><trkpt lat="37.8830352802483" lon="14.151738536240707"><ele>868.5</ele><time>2026-04-09T10:15:57Z</time></trkpt><trkpt lat="37.883106410761" lon="14.151641845640924"><ele>866.0</ele><time>2026-04-09T10:15:58Z</time></trkpt><trkpt lat="37.883159416337875" lon="14.151460622468166"><ele>866.0</ele><time>2026-04-09T10:15:59Z</time></trkpt><trkpt lat="37.88321564382" lon="14.151300417596346"><ele>866.0</ele><time>2026-04-09T10:16:00Z</time></trkpt><trkpt lat="37.883269017118224" lon="14.15117969641267"><ele>866.0</ele><time>2026-04-09T10:16:01Z</time></trkpt><trkpt lat="37.88335993641257" lon="14.15110023106973"><ele>866.0</ele><time>2026-04-09T10:16:02Z</time></trkpt><trkpt lat="37.8835105596156" lon="14.151076208050378"><ele>862.0</ele><time>2026-04-09T10:16:03Z</time></trkpt><trkpt lat="37.88369020523152" lon="14.150978808914376"><ele>858.0</ele><time>2026-04-09T10:16:04Z</time></trkpt><trkpt lat="37.88388595821743" lon="14.150917100767911"><ele>854.0</ele><time>2026-04-09T10:16:05Z</time></trkpt><trkpt lat="37.884046145867664" lon="14.150861344690227"><ele>854.0</ele><time>2026-04-09T10:16:06Z</time></trkpt><trkpt lat="37.88419270446171" lon="14.15084262779768"><ele>854.0</ele><time>2026-04-09T10:16:07Z</time></trkpt><trkpt lat="37.8843294537503" lon="14.150911046975057"><ele>854.0</ele><time>2026-04-09T10:16:08Z</time></trkpt><trkpt lat="37.88446449421012" lon="14.150920160423116"><ele>854.0</ele><time>2026-04-09T10:16:09Z</time></trkpt><trkpt lat="37.88458234389276" lon="14.150927572571193"><ele>855.25</ele><time>2026-04-09T10:16:10Z</time></trkpt><trkpt lat="37.88470146125207" lon="14.150887442455053"><ele>856.5</ele><time>2026-04-09T10:16:11Z</time></trkpt><trkpt lat="37.88479991821785" lon="14.150790586933738"><ele>857.75</ele><time>2026-04-09T10:16:12Z</time></trkpt><trkpt lat="37.88487699277855" lon="14.150629137409659"><ele>859.0</ele><time>2026-04-09T10:16:13Z</time></trkpt><trkpt lat="37.88493512255131" lon="14.150468237920492"><ele>859.0</ele><time>2026-04-09T10:16:14Z</time></trkpt><trkpt lat="37.88500665397955" lon="14.150346907146401"><ele>859.0</ele><time>2026-04-09T10:16:15Z</time></trkpt><trkpt lat="37.88511352217316" lon="14.150271718462132"><ele>859.0</ele><time>2026-04-09T10:16:16Z</time></trkpt><trkpt lat="37.885269877611506" lon="14.15027400322058"><ele>859.0</ele><time>2026-04-09T10:16:17Z</time></trkpt><trkpt lat="37.885438401097744" lon="14.150193909304543"><ele>852.6666666666666</ele><time>2026-04-09T10:16:18Z</time></trkpt><trkpt lat="37.88561922273042" lon="14.150101625526187"><ele>846.3333333333333</ele><time>2026-04-09T10:16:19Z</time></trkpt><trkpt lat="37.885780657600804" lon="14.14999217814272"><ele>840.0</ele><time>2026-04-09T10:16:20Z</time></trkpt><trkpt lat="37.885935396459466" lon="14.149846809398369"><ele>840.0</ele><time>2026-04-09T10:16:21Z</time></trkpt><trkpt lat="37.8860884904194" lon="14.149661867718322"><ele>840.0</ele><time>2026-04-09T10:16:22Z</time></trkpt><trkpt lat="37.88620902995475" lon="14.149502117652382"><ele>840.0</ele><time>2026-04-09T10:16:23Z</time></trkpt><trkpt lat="37.88632778986907" lon="14.149371977690063"><ele>840.0</ele><time>2026-04-09T10:16:24Z</time></trkpt><trkpt lat="37.88647861927932" lon="14.149314232414607"><ele>840.0</ele><time>2026-04-09T10:16:25Z</time></trkpt><trkpt lat="37.88663040445681" lon="14.149277335773174"><ele>840.0</ele><time>2026-04-09T10:16:26Z</time></trkpt><trkpt lat="37.886819900293595" lon="14.14926930953013"><ele>836.3333333333333</ele><time>2026-04-09T10:16:27Z</time></trkpt><trkpt lat="37.88703567055572" lon="14.149261629079444"><ele>832.6666666666666</ele><time>2026-04-09T10:16:28Z</time></trkpt><trkpt lat="37.88722494867315" lon="14.1492435479024"><ele>829.0</ele><time>2026-04-09T10:16:29Z</time></trkpt><trkpt lat="37.88738203465461" lon="14.149244302061629"><ele>829.0</ele><time>2026-04-09T10:16:30Z</time></trkpt><trkpt lat="37.88753060366324" lon="14.149202601003374"><ele>829.0</ele><time>2026-04-09T10:16:31Z</time></trkpt><trkpt lat="37.88768716313622" lon="14.149101920418781"><ele>829.0</ele><time>2026-04-09T10:16:32Z</time></trkpt><trkpt lat="37.887813257047426" lon="14.148981309827054"><ele>831.0</ele><time>2026-04-09T10:16:33Z</time></trkpt><trkpt lat="37.887925478202895" lon="14.148901605680445"><ele>833.0</ele><time>2026-04-09T10:16:34Z</time></trkpt><trkpt lat="37.888037804940176" lon="14.148953330994495"><ele>835.0</ele><time>2026-04-09T10:16:35Z</time></trkpt><trkpt lat="37.88817659658428" lon="14.148981198616086"><ele>837.0</ele><time>2026-04-09T10:16:36Z</time></trkpt><trkpt lat="37.88830938924594" lon="14.148998101484962"><ele>834.0</ele><time>2026-04-09T10:16:37Z</time></trkpt><trkpt lat="37.88843002899985" lon="14.14898379494954"><ele>831.0</ele><time>2026-04-09T10:16:38Z</time></trkpt><trkpt lat="37.88855792708195" lon="14.148914611330829"><ele>828.0</ele><time>2026-04-09T10:16:39Z</time></trkpt><trkpt lat="37.88865908110987" lon="14.148824322574397"><ele>825.0</ele><time>2026-04-09T10:16:40Z</time></trkpt><trkpt lat="37.8887342113337" lon="14.14868556908149"><ele>825.0</ele><time>2026-04-09T10:16:41Z</time></trkpt><trkpt lat="37.88878509244857" lon="14.14852217048175"><ele>825.0</ele><time>2026-04-09T10:16:42Z</time></trkpt><trkpt lat="37.88883185324947" lon="14.148394111510978"><ele>825.0</ele><time>2026-04-09T10:16:43Z</time></trkpt><trkpt lat="37.888893830793" lon="14.148323287930618"><ele>825.0</ele><time>2026-04-09T10:16:44Z</time></trkpt><trkpt lat="37.88896925379047" lon="14.148337523426166"><ele>825.0</ele><time>2026-04-09T10:16:45Z</time></trkpt><trkpt lat="37.88903538715081" lon="14.148422077181616"><ele>825.0</ele><time>2026-04-09T10:16:46Z</time></trkpt><trkpt lat="37.88915311230568" lon="14.148483445765493"><ele>825.0</ele><time>2026-04-09T10:16:47Z</time></trkpt><trkpt lat="37.88926362042914" lon="14.148519146299403"><ele>825.0</ele><time>2026-04-09T10:16:48Z</time></trkpt><trkpt lat="37.88938384403861" lon="14.14850520849142"><ele>825.0</ele><time>2026-04-09T10:16:49Z</time></trkpt><trkpt lat="37.889498569254215" lon="14.148431277503397"><ele>824.8</ele><time>2026-04-09T10:16:50Z</time></trkpt><trkpt lat="37.889583822854156" lon="14.148342725942038"><ele>824.6</ele><time>2026-04-09T10:16:51Z</time></trkpt><trkpt lat="37.88966103892227" lon="14.148312956733196"><ele>824.4000000000001</ele><time>2026-04-09T10:16:52Z</time></trkpt><trkpt lat="37.8897451469658" lon="14.148348555772301"><ele>824.2</ele><time>2026-04-09T10:16:53Z</time></trkpt><trkpt lat="37.889795471166615" lon="14.14848126115955"><ele>824.0</ele><time>2026-04-09T10:16:54Z</time></trkpt><trkpt lat="37.88990494011307" lon="14.148605518787676"><ele>824.0</ele><time>2026-04-09T10:16:55Z</time></trkpt><trkpt lat="37.890019751996796" lon="14.148722142479773"><ele>824.0</ele><time>2026-04-09T10:16:56Z</time></trkpt><trkpt lat="37.89009396372409" lon="14.14881357994621"><ele>824.0</ele><time>2026-04-09T10:16:57Z</time></trkpt><trkpt lat="37.890176034400746" lon="14.148856535922672"><ele>824.0</ele><time>2026-04-09T10:16:58Z</time></trkpt><trkpt lat="37.89027106144538" lon="14.148838589629227"><ele>824.0</ele><time>2026-04-09T10:16:59Z</time></trkpt><trkpt lat="37.890385061639584" lon="14.148756794432169"><ele>818.6666666666667</ele><time>2026-04-09T10:17:00Z</time></trkpt><trkpt lat="37.890531480980805" lon="14.148635032170311"><ele>813.3333333333333</ele><time>2026-04-09T10:17:01Z</time></trkpt><trkpt lat="37.89070926611541" lon="14.148495007564337"><ele>808.0</ele><time>2026-04-09T10:17:02Z</time></trkpt><trkpt lat="37.890924072150725" lon="14.148348555272674"><ele>807.0</ele><time>2026-04-09T10:17:03Z</time></trkpt><trkpt lat="37.8911511526951" lon="14.148193497181033"><ele>806.0</ele><time>2026-04-09T10:17:04Z</time></trkpt><trkpt lat="37.89135237639153" lon="14.148051871222357"><ele>806.0</ele><time>2026-04-09T10:17:05Z</time></trkpt><trkpt lat="37.89152829390522" lon="14.147930142937254"><ele>806.0</ele><time>2026-04-09T10:17:06Z</time></trkpt><trkpt lat="37.89166994383543" lon="14.147834239958597"><ele>806.0</ele><time>2026-04-09T10:17:07Z</time></trkpt><trkpt lat="37.89178015361159" lon="14.147716029898044"><ele>807.3333333333334</ele><time>2026-04-09T10:17:08Z</time></trkpt><trkpt lat="37.891888860928695" lon="14.147536797589972"><ele>808.6666666666667</ele><time>2026-04-09T10:17:09Z</time></trkpt><trkpt lat="37.89199477093441" lon="14.147334109248312"><ele>810.0</ele><time>2026-04-09T10:17:10Z</time></trkpt><trkpt lat="37.89209125344672" lon="14.147169032899534"><ele>810.0</ele><time>2026-04-09T10:17:11Z</time></trkpt><trkpt lat="37.89221871297726" lon="14.147064194098322"><ele>810.0</ele><time>2026-04-09T10:17:12Z</time></trkpt><trkpt lat="37.89237832910672" lon="14.147011347075399"><ele>810.0</ele><time>2026-04-09T10:17:13Z</time></trkpt><trkpt lat="37.89257642413934" lon="14.146944348981338"><ele>801.0</ele><time>2026-04-09T10:17:14Z</time></trkpt><trkpt lat="37.892764179041116" lon="14.146884887124918"><ele>792.0</ele><time>2026-04-09T10:17:15Z</time></trkpt><trkpt lat="37.892924906756384" lon="14.146853284870048"><ele>783.0</ele><time>2026-04-09T10:17:16Z</time></trkpt><trkpt lat="37.89307664284637" lon="14.14685062954102"><ele>783.0</ele><time>2026-04-09T10:17:17Z</time></trkpt><trkpt lat="37.89321139611863" lon="14.146835852598269"><ele>783.0</ele><time>2026-04-09T10:17:18Z</time></trkpt><trkpt lat="37.89330173118797" lon="14.146845518048519"><ele>783.0</ele><time>2026-04-09T10:17:19Z</time></trkpt><trkpt lat="37.89337345352244" lon="14.146742699375638"><ele>783.0</ele><time>2026-04-09T10:17:21Z</time></trkpt><trkpt lat="37.893346486315274" lon="14.14662752038127"><ele>783.0</ele><time>2026-04-09T10:17:22Z</time></trkpt><trkpt lat="37.89327130617358" lon="14.146490369862441"><ele>781.3333333333333</ele><time>2026-04-09T10:17:23Z</time></trkpt><trkpt lat="37.893168427499006" lon="14.14631100529992"><ele>779.6666666666666</ele><time>2026-04-09T10:17:24Z</time></trkpt><trkpt lat="37.893060758719955" lon="14.146099189400969"><ele>778.0</ele><time>2026-04-09T10:17:25Z</time></trkpt><trkpt lat="37.89293738993595" lon="14.145890087581448"><ele>778.0</ele><time>2026-04-09T10:17:26Z</time></trkpt><trkpt lat="37.89282956699019" lon="14.145733057911654"><ele>778.0</ele><time>2026-04-09T10:17:27Z</time></trkpt><trkpt lat="37.89274050988943" lon="14.145618286449846"><ele>778.0</ele><time>2026-04-09T10:17:28Z</time></trkpt><trkpt lat="37.89267949258532" lon="14.14551998913444"><ele>778.0</ele><time>2026-04-09T10:17:29Z</time></trkpt><trkpt lat="37.89269198793202" lon="14.145428913609562"><ele>780.0</ele><time>2026-04-09T10:17:30Z</time></trkpt><trkpt lat="37.89274420651293" lon="14.14535789173067"><ele>782.0</ele><time>2026-04-09T10:17:31Z</time></trkpt><trkpt lat="37.89279763563648" lon="14.145257806789948"><ele>784.0</ele><time>2026-04-09T10:17:32Z</time></trkpt><trkpt lat="37.89289586272397" lon="14.145159376839661"><ele>786.0</ele><time>2026-04-09T10:17:33Z</time></trkpt><trkpt lat="37.89302993082518" lon="14.145076564796694"><ele>788.0</ele><time>2026-04-09T10:17:34Z</time></trkpt><trkpt lat="37.89318162532913" lon="14.145019207844957"><ele>788.0</ele><time>2026-04-09T10:17:35Z</time></trkpt><trkpt lat="37.89337895096131" lon="14.144990354578258"><ele>788.0</ele><time>2026-04-09T10:17:36Z</time></trkpt><trkpt lat="37.89360189956472" lon="14.144970015541835"><ele>788.0</ele><time>2026-04-09T10:17:37Z</time></trkpt><trkpt lat="37.893810469207615" lon="14.144932709414613"><ele>785.6666666666667</ele><time>2026-04-09T10:17:38Z</time></trkpt><trkpt lat="37.89399723887574" lon="14.144920662880319"><ele>783.3333333333333</ele><time>2026-04-09T10:17:39Z</time></trkpt><trkpt lat="37.894167315999084" lon="14.144889981230106"><ele>781.0</ele><time>2026-04-09T10:17:40Z</time></trkpt><trkpt lat="37.894327826121035" lon="14.144820266663665"><ele>781.0</ele><time>2026-04-09T10:17:41Z</time></trkpt><trkpt lat="37.89450602928362" lon="14.144687925874882"><ele>781.0</ele><time>2026-04-09T10:17:42Z</time></trkpt><trkpt lat="37.894706297392744" lon="14.144561008217611"><ele>781.0</ele><time>2026-04-09T10:17:43Z</time></trkpt><trkpt lat="37.89493074367399" lon="14.144465694298988"><ele>774.3333333333333</ele><time>2026-04-09T10:17:44Z</time></trkpt><trkpt lat="37.895139881597586" lon="14.14439261425396"><ele>767.6666666666666</ele><time>2026-04-09T10:17:45Z</time></trkpt><trkpt lat="37.89532651576796" lon="14.144322344133151"><ele>761.0</ele><time>2026-04-09T10:17:46Z</time></trkpt><trkpt lat="37.89548817517402" lon="14.144254374284818"><ele>761.0</ele><time>2026-04-09T10:17:47Z</time></trkpt><trkpt lat="37.89561196999746" lon="14.14420713951437"><ele>761.0</ele><time>2026-04-09T10:17:48Z</time></trkpt><trkpt lat="37.89569948919817" lon="14.144165182912946"><ele>761.0</ele><time>2026-04-09T10:17:49Z</time></trkpt><trkpt lat="37.89576437138726" lon="14.144125013008894"><ele>761.0</ele><time>2026-04-09T10:17:50Z</time></trkpt><trkpt lat="37.89580818448084" lon="14.144049997056548"><ele>761.0</ele><time>2026-04-09T10:17:51Z</time></trkpt><trkpt lat="37.8958146815134" lon="14.143945264088693"><ele>758.5</ele><time>2026-04-09T10:17:52Z</time></trkpt><trkpt lat="37.89577503090368" lon="14.143835883629823"><ele>756.0</ele><time>2026-04-09T10:17:53Z</time></trkpt><trkpt lat="37.89569456844482" lon="14.14374074855182"><ele>753.5</ele><time>2026-04-09T10:17:54Z</time></trkpt><trkpt lat="37.89557593992845" lon="14.143643193309163"><ele>751.0</ele><time>2026-04-09T10:17:55Z</time></trkpt><trkpt lat="37.895446004414815" lon="14.14353722895865"><ele>751.0</ele><time>2026-04-09T10:17:56Z</time></trkpt><trkpt lat="37.895333288151065" lon="14.1434382770273"><ele>751.0</ele><time>2026-04-09T10:17:57Z</time></trkpt><trkpt lat="37.895239472638934" lon="14.143312788597656"><ele>751.0</ele><time>2026-04-09T10:17:58Z</time></trkpt><trkpt lat="37.895209435093406" lon="14.143116849790372"><ele>751.0</ele><time>2026-04-09T10:17:59Z</time></trkpt><trkpt lat="37.8951619727346" lon="14.14289097109889"><ele>752.25</ele><time>2026-04-09T10:18:00Z</time></trkpt><trkpt lat="37.895108685954476" lon="14.14270538754969"><ele>753.5</ele><time>2026-04-09T10:18:01Z</time></trkpt><trkpt lat="37.89508641634101" lon="14.142555754946931"><ele>754.75</ele><time>2026-04-09T10:18:02Z</time></trkpt><trkpt lat="37.89505092641264" lon="14.142436228198171"><ele>756.0</ele><time>2026-04-09T10:18:03Z</time></trkpt><trkpt lat="37.894978414581345" lon="14.142358775541314"><ele>756.0</ele><time>2026-04-09T10:18:04Z</time></trkpt><trkpt lat="37.894873611657474" lon="14.142338646687461"><ele>756.0</ele><time>2026-04-09T10:18:05Z</time></trkpt><trkpt lat="37.89473849844351" lon="14.14236495825683"><ele>756.0</ele><time>2026-04-09T10:18:06Z</time></trkpt><trkpt lat="37.894558276465595" lon="14.142418254755937"><ele>756.0</ele><time>2026-04-09T10:18:07Z</time></trkpt><trkpt lat="37.89436679599049" lon="14.142458230993958"><ele>754.5999999999999</ele><time>2026-04-09T10:18:08Z</time></trkpt><trkpt lat="37.89422880918352" lon="14.142459055084409"><ele>753.2</ele><time>2026-04-09T10:18:09Z</time></trkpt><trkpt lat="37.89413138006504" lon="14.142451857607242"><ele>751.8</ele><time>2026-04-09T10:18:10Z</time></trkpt><trkpt lat="37.89405833092101" lon="14.142423737882512"><ele>750.4000000000001</ele><time>2026-04-09T10:18:11Z</time></trkpt><trkpt lat="37.894026125679915" lon="14.142335799697596"><ele>749.0</ele><time>2026-04-09T10:18:12Z</time></trkpt><trkpt lat="37.894014116255526" lon="14.14222402229133"><ele>749.0</ele><time>2026-04-09T10:18:13Z</time></trkpt><trkpt lat="37.8940248439911" lon="14.142021287037604"><ele>749.0</ele><time>2026-04-09T10:18:14Z</time></trkpt><trkpt lat="37.8940224746857" lon="14.141792474279635"><ele>749.0</ele><time>2026-04-09T10:18:15Z</time></trkpt><trkpt lat="37.894042036163285" lon="14.141530468373173"><ele>747.0</ele><time>2026-04-09T10:18:16Z</time></trkpt><trkpt lat="37.894051970020804" lon="14.141316133394927"><ele>745.0</ele><time>2026-04-09T10:18:17Z</time></trkpt><trkpt lat="37.89403690785383" lon="14.141143468070236"><ele>743.0</ele><time>2026-04-09T10:18:18Z</time></trkpt><trkpt lat="37.893976931356484" lon="14.14097926675617"><ele>741.0</ele><time>2026-04-09T10:18:19Z</time></trkpt><trkpt lat="37.89386875985837" lon="14.140795810792241"><ele>735.6666666666666</ele><time>2026-04-09T10:18:20Z</time></trkpt><trkpt lat="37.893740956452376" lon="14.140593493292762"><ele>730.3333333333333</ele><time>2026-04-09T10:18:21Z</time></trkpt><trkpt lat="37.89363668464336" lon="14.140420416582387"><ele>725.0</ele><time>2026-04-09T10:18:22Z</time></trkpt><trkpt lat="37.89353039316314" lon="14.140279539227128"><ele>730.3333333333333</ele><time>2026-04-09T10:18:23Z</time></trkpt><trkpt lat="37.893376184512135" lon="14.140179794023316"><ele>735.6666666666666</ele><time>2026-04-09T10:18:24Z</time></trkpt><trkpt lat="37.89324710302088" lon="14.140080572679878"><ele>741.0</ele><time>2026-04-09T10:18:25Z</time></trkpt><trkpt lat="37.89314843102055" lon="14.13997382700628"><ele>734.6666666666666</ele><time>2026-04-09T10:18:26Z</time></trkpt><trkpt lat="37.893088198089636" lon="14.139801927954062"><ele>728.3333333333333</ele><time>2026-04-09T10:18:27Z</time></trkpt><trkpt lat="37.893000792683466" lon="14.13959122267471"><ele>722.0</ele><time>2026-04-09T10:18:28Z</time></trkpt><trkpt lat="37.89295045403303" lon="14.139379165179239"><ele>722.0</ele><time>2026-04-09T10:18:29Z</time></trkpt><trkpt lat="37.89290098935654" lon="14.139221131815038"><ele>722.0</ele><time>2026-04-09T10:18:30Z</time></trkpt><trkpt lat="37.892816654410076" lon="14.139106035878525"><ele>722.0</ele><time>2026-04-09T10:18:31Z</time></trkpt><trkpt lat="37.89267575233223" lon="14.139018775588232"><ele>722.0</ele><time>2026-04-09T10:18:32Z</time></trkpt><trkpt lat="37.89249324393479" lon="14.138921615304291"><ele>720.0</ele><time>2026-04-09T10:18:33Z</time></trkpt><trkpt lat="37.89230136725881" lon="14.138806441007027"><ele>718.0</ele><time>2026-04-09T10:18:34Z</time></trkpt><trkpt lat="37.89213774589339" lon="14.138701160031662"><ele>716.0</ele><time>2026-04-09T10:18:35Z</time></trkpt><trkpt lat="37.89199121293708" lon="14.138618883447549"><ele>716.0</ele><time>2026-04-09T10:18:36Z</time></trkpt><trkpt lat="37.891819217936415" lon="14.138627758514412"><ele>716.0</ele><time>2026-04-09T10:18:37Z</time></trkpt><trkpt lat="37.89165371830204" lon="14.138556711041879"><ele>716.0</ele><time>2026-04-09T10:18:38Z</time></trkpt><trkpt lat="37.89148458339271" lon="14.138444794533978"><ele>720.0</ele><time>2026-04-09T10:18:39Z</time></trkpt><trkpt lat="37.891298258270226" lon="14.138354650493936"><ele>724.0</ele><time>2026-04-09T10:18:40Z</time></trkpt><trkpt lat="37.891111404625164" lon="14.13829170397561"><ele>728.0</ele><time>2026-04-09T10:18:41Z</time></trkpt><trkpt lat="37.890914988324425" lon="14.138277168333984"><ele>730.3333333333333</ele><time>2026-04-09T10:18:42Z</time></trkpt><trkpt lat="37.89073645662656" lon="14.138241115673635"><ele>732.6666666666666</ele><time>2026-04-09T10:18:43Z</time></trkpt><trkpt lat="37.89057161195079" lon="14.138190343833356"><ele>735.0</ele><time>2026-04-09T10:18:44Z</time></trkpt><trkpt lat="37.89043227062302" lon="14.138111469003"><ele>726.6666666666666</ele><time>2026-04-09T10:18:45Z</time></trkpt><trkpt lat="37.89032363061668" lon="14.138013586598873"><ele>718.3333333333333</ele><time>2026-04-09T10:18:46Z</time></trkpt><trkpt lat="37.89024650490746" lon="14.137868437301202"><ele>710.0</ele><time>2026-04-09T10:18:47Z</time></trkpt><trkpt lat="37.890164591342334" lon="14.137666557094876"><ele>710.5</ele><time>2026-04-09T10:18:48Z</time></trkpt><trkpt lat="37.890041967426306" lon="14.137435827754436"><ele>711.0</ele><time>2026-04-09T10:18:49Z</time></trkpt><trkpt lat="37.8899160700481" lon="14.137174282497943"><ele>711.0</ele><time>2026-04-09T10:18:50Z</time></trkpt><trkpt lat="37.88977788846698" lon="14.136900047001719"><ele>711.0</ele><time>2026-04-09T10:18:51Z</time></trkpt><trkpt lat="37.88964252100621" lon="14.136639203724304"><ele>708.6666666666666</ele><time>2026-04-09T10:18:52Z</time></trkpt><trkpt lat="37.88952437823295" lon="14.136411430295462"><ele>706.3333333333333</ele><time>2026-04-09T10:18:53Z</time></trkpt><trkpt lat="37.88941327588082" lon="14.136196929802324"><ele>704.0</ele><time>2026-04-09T10:18:54Z</time></trkpt><trkpt lat="37.889313252172485" lon="14.136008757629694"><ele>703.6</ele><time>2026-04-09T10:18:55Z</time></trkpt><trkpt lat="37.88923474375816" lon="14.135851977984885"><ele>703.2</ele><time>2026-04-09T10:18:56Z</time></trkpt><trkpt lat="37.88917798182607" lon="14.13572476382141"><ele>702.8000000000001</ele><time>2026-04-09T10:18:57Z</time></trkpt><trkpt lat="37.889141794805454" lon="14.135618177555632"><ele>702.4000000000001</ele><time>2026-04-09T10:18:58Z</time></trkpt><trkpt lat="37.889134839456204" lon="14.135497674731232"><ele>702.0</ele><time>2026-04-09T10:18:59Z</time></trkpt><trkpt lat="37.88918246078005" lon="14.135358974294618"><ele>700.6666666666666</ele><time>2026-04-09T10:19:00Z</time></trkpt><trkpt lat="37.88926998678927" lon="14.135230794811005"><ele>699.3333333333333</ele><time>2026-04-09T10:19:01Z</time></trkpt><trkpt lat="37.889396699911444" lon="14.13509028931589"><ele>698.0</ele><time>2026-04-09T10:19:02Z</time></trkpt><trkpt lat="37.88951558337508" lon="14.134977373246091"><ele>698.0</ele><time>2026-04-09T10:19:03Z</time></trkpt><trkpt lat="37.88963075343423" lon="14.134902187889997"><ele>698.0</ele><time>2026-04-09T10:19:04Z</time></trkpt><trkpt lat="37.88974044632672" lon="14.13486790939208"><ele>698.0</ele><time>2026-04-09T10:19:05Z</time></trkpt><trkpt lat="37.889832010638564" lon="14.13489656060743"><ele>698.0</ele><time>2026-04-09T10:19:06Z</time></trkpt><trkpt lat="37.88991651723843" lon="14.13496165160183"><ele>698.0</ele><time>2026-04-09T10:19:07Z</time></trkpt><trkpt lat="37.88997000746329" lon="14.135081164863033"><ele>698.0</ele><time>2026-04-09T10:19:08Z</time></trkpt><trkpt lat="37.889993049236516" lon="14.135215424540002"><ele>698.0</ele><time>2026-04-09T10:19:09Z</time></trkpt><trkpt lat="37.89000971269406" lon="14.135392137139773"><ele>698.0</ele><time>2026-04-09T10:19:10Z</time></trkpt><trkpt lat="37.89003821119735" lon="14.135635837806364"><ele>698.0</ele><time>2026-04-09T10:19:11Z</time></trkpt><trkpt lat="37.890080787237785" lon="14.135885426908636"><ele>694.75</ele><time>2026-04-09T10:19:12Z</time></trkpt><trkpt lat="37.890102175489275" lon="14.136092634691979"><ele>691.5</ele><time>2026-04-09T10:19:13Z</time></trkpt><trkpt lat="37.890121397461314" lon="14.136249480967935"><ele>688.25</ele><time>2026-04-09T10:19:14Z</time></trkpt><trkpt lat="37.890156294509445" lon="14.136385711141426"><ele>685.0</ele><time>2026-04-09T10:19:15Z</time></trkpt><trkpt lat="37.89023778716426" lon="14.136507754816726"><ele>688.3333333333334</ele><time>2026-04-09T10:19:16Z</time></trkpt><trkpt lat="37.89037471108731" lon="14.136597632284115"><ele>691.6666666666666</ele><time>2026-04-09T10:19:17Z</time></trkpt><trkpt lat="37.89056059457844" lon="14.136666003221068"><ele>695.0</ele><time>2026-04-09T10:19:18Z</time></trkpt><trkpt lat="37.89076597784084" lon="14.136749946527038"><ele>693.0</ele><time>2026-04-09T10:19:19Z</time></trkpt><trkpt lat="37.890977754876786" lon="14.136844212776003"><ele>691.0</ele><time>2026-04-09T10:19:20Z</time></trkpt><trkpt lat="37.89120346092207" lon="14.136929146925798"><ele>691.0</ele><time>2026-04-09T10:19:21Z</time></trkpt><trkpt lat="37.89141493193316" lon="14.136997767108385"><ele>691.0</ele><time>2026-04-09T10:19:22Z</time></trkpt><trkpt lat="37.89161814340122" lon="14.137040010427407"><ele>691.0</ele><time>2026-04-09T10:19:23Z</time></trkpt><trkpt lat="37.89182192768243" lon="14.137052497037356"><ele>686.0</ele><time>2026-04-09T10:19:24Z</time></trkpt><trkpt lat="37.89200197077758" lon="14.137055252741941"><ele>681.0</ele><time>2026-04-09T10:19:25Z</time></trkpt><trkpt lat="37.89213410442512" lon="14.137101874112194"><ele>676.0</ele><time>2026-04-09T10:19:26Z</time></trkpt><trkpt lat="37.892247129371725" lon="14.137181766141781"><ele>671.0</ele><time>2026-04-09T10:19:27Z</time></trkpt><trkpt lat="37.892379369601045" lon="14.137285225151764"><ele>670.6666666666666</ele><time>2026-04-09T10:19:28Z</time></trkpt><trkpt lat="37.8925035182516" lon="14.137428722191308"><ele>670.3333333333334</ele><time>2026-04-09T10:19:29Z</time></trkpt><trkpt lat="37.89264676249653" lon="14.13760793552846"><ele>670.0</ele><time>2026-04-09T10:19:30Z</time></trkpt><trkpt lat="37.89282439902341" lon="14.13772595333066"><ele>670.0</ele><time>2026-04-09T10:19:31Z</time></trkpt><trkpt lat="37.89300375860463" lon="14.137837434084915"><ele>670.0</ele><time>2026-04-09T10:19:32Z</time></trkpt><trkpt lat="37.893154493499345" lon="14.13795514988012"><ele>670.0</ele><time>2026-04-09T10:19:33Z</time></trkpt><trkpt lat="37.89327358672511" lon="14.138079915235869"><ele>670.0</ele><time>2026-04-09T10:19:34Z</time></trkpt><trkpt lat="37.89337897066242" lon="14.138167977538993"><ele>670.0</ele><time>2026-04-09T10:19:35Z</time></trkpt><trkpt lat="37.89350284221755" lon="14.138180848313246"><ele>670.0</ele><time>2026-04-09T10:19:36Z</time></trkpt><trkpt lat="37.8936680445612" lon="14.138144885990021"><ele>670.0</ele><time>2026-04-09T10:19:37Z</time></trkpt><trkpt lat="37.89387273401952" lon="14.138091167710481"><ele>666.0</ele><time>2026-04-09T10:19:38Z</time></trkpt><trkpt lat="37.894101528845894" lon="14.138045390191165"><ele>662.0</ele><time>2026-04-09T10:19:39Z</time></trkpt><trkpt lat="37.89432669242821" lon="14.13800911345835"><ele>661.3333333333333</ele><time>2026-04-09T10:19:40Z</time></trkpt><trkpt lat="37.89452633089486" lon="14.137978133755553"><ele>660.6666666666666</ele><time>2026-04-09T10:19:41Z</time></trkpt><trkpt lat="37.894694573858416" lon="14.137948390851237"><ele>660.0</ele><time>2026-04-09T10:19:42Z</time></trkpt><trkpt lat="37.894833783597846" lon="14.1379231573243"><ele>660.0</ele><time>2026-04-09T10:19:43Z</time></trkpt><trkpt lat="37.89494792124186" lon="14.137911534436002"><ele>660.0</ele><time>2026-04-09T10:19:44Z</time></trkpt><trkpt lat="37.89505024465338" lon="14.13794375222701"><ele>660.0</ele><time>2026-04-09T10:19:45Z</time></trkpt><trkpt lat="37.895106842963806" lon="14.138075371428554"><ele>660.0</ele><time>2026-04-09T10:19:46Z</time></trkpt><trkpt lat="37.89518659295271" lon="14.138232382510061"><ele>659.3333333333334</ele><time>2026-04-09T10:19:47Z</time></trkpt><trkpt lat="37.89529291638998" lon="14.138426317224027"><ele>658.6666666666667</ele><time>2026-04-09T10:19:48Z</time></trkpt><trkpt lat="37.8954178455371" lon="14.13862514828189"><ele>658.0</ele><time>2026-04-09T10:19:49Z</time></trkpt><trkpt lat="37.89550716894978" lon="14.138803744319597"><ele>658.0</ele><time>2026-04-09T10:19:50Z</time></trkpt><trkpt lat="37.89558360399162" lon="14.13894749407957"><ele>658.0</ele><time>2026-04-09T10:19:51Z</time></trkpt><trkpt lat="37.89565158041254" lon="14.139053446860823"><ele>658.0</ele><time>2026-04-09T10:19:52Z</time></trkpt><trkpt lat="37.895712096479755" lon="14.139106579410186"><ele>658.0</ele><time>2026-04-09T10:19:53Z</time></trkpt><trkpt lat="37.895782398636854" lon="14.139099754989136"><ele>658.0</ele><time>2026-04-09T10:19:54Z</time></trkpt><trkpt lat="37.89585524399425" lon="14.139050696549802"><ele>658.0</ele><time>2026-04-09T10:19:55Z</time></trkpt><trkpt lat="37.895896371796375" lon="14.138967421046248"><ele>658.0</ele><time>2026-04-09T10:19:56Z</time></trkpt><trkpt lat="37.895900977080885" lon="14.1388765517979"><ele>658.0</ele><time>2026-04-09T10:19:57Z</time></trkpt><trkpt lat="37.895873746984904" lon="14.138795062774793"><ele>658.0</ele><time>2026-04-09T10:19:58Z</time></trkpt><trkpt lat="37.89583375720652" lon="14.1386792504583"><ele>658.0</ele><time>2026-04-09T10:19:59Z</time></trkpt><trkpt lat="37.89579119871051" lon="14.138506037389345"><ele>658.0</ele><time>2026-04-09T10:20:00Z</time></trkpt><trkpt lat="37.89574460402996" lon="14.138311213756513"><ele>658.0</ele><time>2026-04-09T10:20:01Z</time></trkpt><trkpt lat="37.89569202155404" lon="14.138092172511614"><ele>658.0</ele><time>2026-04-09T10:20:02Z</time></trkpt><trkpt lat="37.89564615875362" lon="14.137895232338217"><ele>655.75</ele><time>2026-04-09T10:20:03Z</time></trkpt><trkpt lat="37.89558649001264" lon="14.137717246477784"><ele>653.5</ele><time>2026-04-09T10:20:04Z</time></trkpt><trkpt lat="37.89551653425646" lon="14.137547437901743"><ele>651.25</ele><time>2026-04-09T10:20:05Z</time></trkpt><trkpt lat="37.895424953327975" lon="14.137412045502298"><ele>649.0</ele><time>2026-04-09T10:20:06Z</time></trkpt><trkpt lat="37.8953188990947" lon="14.137317473207146"><ele>646.75</ele><time>2026-04-09T10:20:07Z</time></trkpt><trkpt lat="37.895199112490005" lon="14.137256520871986"><ele>644.5</ele><time>2026-04-09T10:20:08Z</time></trkpt><trkpt lat="37.895069955582606" lon="14.137254750910758"><ele>642.25</ele><time>2026-04-09T10:20:09Z</time></trkpt><trkpt lat="37.89494320063477" lon="14.137293672586829"><ele>640.0</ele><time>2026-04-09T10:20:10Z</time></trkpt><trkpt lat="37.89481343720207" lon="14.13739147414171"><ele>645.0</ele><time>2026-04-09T10:20:11Z</time></trkpt><trkpt lat="37.894696835438594" lon="14.137454298029906"><ele>650.0</ele><time>2026-04-09T10:20:12Z</time></trkpt><trkpt lat="37.894577257165594" lon="14.137482482966737"><ele>655.0</ele><time>2026-04-09T10:20:13Z</time></trkpt><trkpt lat="37.894429628109314" lon="14.137457248271852"><ele>660.0</ele><time>2026-04-09T10:20:14Z</time></trkpt><trkpt lat="37.89424525452304" lon="14.137426458850182"><ele>660.6666666666666</ele><time>2026-04-09T10:20:15Z</time></trkpt><trkpt lat="37.89409320871932" lon="14.137394741844293"><ele>661.3333333333333</ele><time>2026-04-09T10:20:16Z</time></trkpt><trkpt lat="37.89395411645052" lon="14.137325524682124"><ele>662.0</ele><time>2026-04-09T10:20:17Z</time></trkpt><trkpt lat="37.89381714449921" lon="14.137199404394423"><ele>657.3333333333333</ele><time>2026-04-09T10:20:18Z</time></trkpt><trkpt lat="37.893659811331766" lon="14.137027651986605"><ele>652.6666666666666</ele><time>2026-04-09T10:20:19Z</time></trkpt><trkpt lat="37.893487325988325" lon="14.136876922440054"><ele>648.0</ele><time>2026-04-09T10:20:20Z</time></trkpt><trkpt lat="37.89331413422148" lon="14.136796951269497"><ele>648.0</ele><time>2026-04-09T10:20:21Z</time></trkpt><trkpt lat="37.89317102077849" lon="14.13665172007772"><ele>648.0</ele><time>2026-04-09T10:20:22Z</time></trkpt><trkpt lat="37.893048144291136" lon="14.136481533893729"><ele>648.0</ele><time>2026-04-09T10:20:23Z</time></trkpt><trkpt lat="37.89293301664629" lon="14.136340866794848"><ele>644.3333333333334</ele><time>2026-04-09T10:20:24Z</time></trkpt><trkpt lat="37.89285721625415" lon="14.136169953559769"><ele>640.6666666666667</ele><time>2026-04-09T10:20:25Z</time></trkpt><trkpt lat="37.89281808329296" lon="14.135959129733047"><ele>637.0</ele><time>2026-04-09T10:20:26Z</time></trkpt><trkpt lat="37.8928022803687" lon="14.135717520281915"><ele>635.0</ele><time>2026-04-09T10:20:27Z</time></trkpt><trkpt lat="37.89272287390628" lon="14.13551805774031"><ele>633.0</ele><time>2026-04-09T10:20:28Z</time></trkpt><trkpt lat="37.89266638372212" lon="14.13531549128983"><ele>631.0</ele><time>2026-04-09T10:20:29Z</time></trkpt><trkpt lat="37.89264345335249" lon="14.135064360071874"><ele>630.3333333333334</ele><time>2026-04-09T10:20:30Z</time></trkpt><trkpt lat="37.89263579701191" lon="14.134797394330057"><ele>629.6666666666666</ele><time>2026-04-09T10:20:31Z</time></trkpt><trkpt lat="37.8926263485788" lon="14.134568171553285"><ele>629.0</ele><time>2026-04-09T10:20:32Z</time></trkpt><trkpt lat="37.89261597497039" lon="14.134380551975037"><ele>629.0</ele><time>2026-04-09T10:20:33Z</time></trkpt><trkpt lat="37.892612159590904" lon="14.134205611756059"><ele>629.0</ele><time>2026-04-09T10:20:34Z</time></trkpt><trkpt lat="37.89259276427165" lon="14.134046230254134"><ele>629.0</ele><time>2026-04-09T10:20:35Z</time></trkpt><trkpt lat="37.89253164651853" lon="14.133882028365118"><ele>629.0</ele><time>2026-04-09T10:20:36Z</time></trkpt><trkpt lat="37.89246106746113" lon="14.13371004315819"><ele>630.3333333333333</ele><time>2026-04-09T10:20:37Z</time></trkpt><trkpt lat="37.89235738467805" lon="14.133555743613757"><ele>631.6666666666666</ele><time>2026-04-09T10:20:38Z</time></trkpt><trkpt lat="37.892204647843535" lon="14.1334053259016"><ele>633.0</ele><time>2026-04-09T10:20:39Z</time></trkpt><trkpt lat="37.89201403236146" lon="14.133256771897528"><ele>629.25</ele><time>2026-04-09T10:20:40Z</time></trkpt><trkpt lat="37.89185189267207" lon="14.13314783178649"><ele>625.5</ele><time>2026-04-09T10:20:41Z</time></trkpt><trkpt lat="37.8917222305493" lon="14.133066964958852"><ele>621.75</ele><time>2026-04-09T10:20:42Z</time></trkpt><trkpt lat="37.89161373129817" lon="14.133002802438822"><ele>618.0</ele><time>2026-04-09T10:20:43Z</time></trkpt><trkpt lat="37.891548981216275" lon="14.132896483520852"><ele>618.0</ele><time>2026-04-09T10:20:44Z</time></trkpt><trkpt lat="37.89153130718702" lon="14.13274996411558"><ele>618.0</ele><time>2026-04-09T10:20:45Z</time></trkpt><trkpt lat="37.89145878134067" lon="14.132624529705653"><ele>618.0</ele><time>2026-04-09T10:20:46Z</time></trkpt><trkpt lat="37.891378948446736" lon="14.132508306805997"><ele>618.0</ele><time>2026-04-09T10:20:47Z</time></trkpt><trkpt lat="37.8912798511232" lon="14.132435651454685"><ele>620.5</ele><time>2026-04-09T10:20:48Z</time></trkpt><trkpt lat="37.89117743405966" lon="14.132381134182786"><ele>623.0</ele><time>2026-04-09T10:20:49Z</time></trkpt><trkpt lat="37.891048053534185" lon="14.13236839763076"><ele>625.5</ele><time>2026-04-09T10:20:50Z</time></trkpt><trkpt lat="37.89090274940687" lon="14.13239246536542"><ele>628.0</ele><time>2026-04-09T10:20:51Z</time></trkpt><trkpt lat="37.890753519803766" lon="14.132387687008347"><ele>622.25</ele><time>2026-04-09T10:20:52Z</time></trkpt><trkpt lat="37.89061078900006" lon="14.132291060747523"><ele>616.5</ele><time>2026-04-09T10:20:53Z</time></trkpt><trkpt lat="37.890476144419" lon="14.13225061931349"><ele>610.75</ele><time>2026-04-09T10:20:54Z</time></trkpt><trkpt lat="37.890362860278685" lon="14.132209644339124"><ele>605.0</ele><time>2026-04-09T10:20:55Z</time></trkpt><trkpt lat="37.89023225376109" lon="14.132233450207426"><ele>601.3333333333333</ele><time>2026-04-09T10:20:56Z</time></trkpt><trkpt lat="37.89008094333472" lon="14.13231934712598"><ele>597.6666666666666</ele><time>2026-04-09T10:20:57Z</time></trkpt><trkpt lat="37.88993588169572" lon="14.132416345904447"><ele>594.0</ele><time>2026-04-09T10:20:58Z</time></trkpt><trkpt lat="37.88979452164517" lon="14.132442391889246"><ele>594.0</ele><time>2026-04-09T10:20:59Z</time></trkpt><trkpt lat="37.88963568695003" lon="14.132421845093457"><ele>594.0</ele><time>2026-04-09T10:21:00Z</time></trkpt><trkpt lat="37.88943623068914" lon="14.132385634605756"><ele>594.0</ele><time>2026-04-09T10:21:01Z</time></trkpt><trkpt lat="37.88925280164858" lon="14.13235054955246"><ele>595.0</ele><time>2026-04-09T10:21:02Z</time></trkpt><trkpt lat="37.88909929473657" lon="14.132303624354062"><ele>596.0</ele><time>2026-04-09T10:21:03Z</time></trkpt><trkpt lat="37.88894993127526" lon="14.132214036869394"><ele>597.0</ele><time>2026-04-09T10:21:04Z</time></trkpt><trkpt lat="37.8888084703256" lon="14.132085113840164"><ele>597.0</ele><time>2026-04-09T10:21:05Z</time></trkpt><trkpt lat="37.88868893261414" lon="14.131973617056188"><ele>597.0</ele><time>2026-04-09T10:21:06Z</time></trkpt><trkpt lat="37.88859824110706" lon="14.13186180262723"><ele>597.0</ele><time>2026-04-09T10:21:07Z</time></trkpt><trkpt lat="37.888543544678264" lon="14.131748467474692"><ele>597.0</ele><time>2026-04-09T10:21:08Z</time></trkpt><trkpt lat="37.888525096252074" lon="14.131662818137302"><ele>597.0</ele><time>2026-04-09T10:21:09Z</time></trkpt><trkpt lat="37.88858955267172" lon="14.131558452251431"><ele>597.0</ele><time>2026-04-09T10:21:11Z</time></trkpt><trkpt lat="37.888652223483874" lon="14.131518827294375"><ele>597.0</ele><time>2026-04-09T10:21:12Z</time></trkpt><trkpt lat="37.88874707990855" lon="14.131543642289108"><ele>597.0</ele><time>2026-04-09T10:21:13Z</time></trkpt><trkpt lat="37.88884193072388" lon="14.131648002183814"><ele>597.0</ele><time>2026-04-09T10:21:14Z</time></trkpt><trkpt lat="37.88896335466501" lon="14.131773570347193"><ele>597.0</ele><time>2026-04-09T10:21:15Z</time></trkpt><trkpt lat="37.88910436469784" lon="14.1319021240516"><ele>597.0</ele><time>2026-04-09T10:21:16Z</time></trkpt><trkpt lat="37.88920771553533" lon="14.13203013248671"><ele>597.0</ele><time>2026-04-09T10:21:17Z</time></trkpt><trkpt lat="37.88929676154414" lon="14.132121800484212"><ele>597.0</ele><time>2026-04-09T10:21:18Z</time></trkpt><trkpt lat="37.88939886978515" lon="14.132169784546338"><ele>596.0</ele><time>2026-04-09T10:21:19Z</time></trkpt><trkpt lat="37.889524187541575" lon="14.132147075536077"><ele>595.0</ele><time>2026-04-09T10:21:20Z</time></trkpt><trkpt lat="37.88969532824709" lon="14.1320760761182"><ele>594.0</ele><time>2026-04-09T10:21:21Z</time></trkpt><trkpt lat="37.88990023687864" lon="14.131987568811835"><ele>597.6666666666666</ele><time>2026-04-09T10:21:22Z</time></trkpt><trkpt lat="37.890098037778124" lon="14.131915124718557"><ele>601.3333333333333</ele><time>2026-04-09T10:21:23Z</time></trkpt><trkpt lat="37.8902521241934" lon="14.131849045757527"><ele>605.0</ele><time>2026-04-09T10:21:24Z</time></trkpt><trkpt lat="37.890386431437484" lon="14.131734677078983"><ele>599.6666666666666</ele><time>2026-04-09T10:21:25Z</time></trkpt><trkpt lat="37.89053075331931" lon="14.131549649228221"><ele>594.3333333333334</ele><time>2026-04-09T10:21:26Z</time></trkpt><trkpt lat="37.89064836172744" lon="14.131360447121553"><ele>589.0</ele><time>2026-04-09T10:21:27Z</time></trkpt><trkpt lat="37.89075468760605" lon="14.131205939095171"><ele>589.0</ele><time>2026-04-09T10:21:28Z</time></trkpt><trkpt lat="37.89083483085987" lon="14.131080739809532"><ele>589.0</ele><time>2026-04-09T10:21:29Z</time></trkpt><trkpt lat="37.89083920317893" lon="14.130930978184574"><ele>589.0</ele><time>2026-04-09T10:21:30Z</time></trkpt><trkpt lat="37.89084003821624" lon="14.130782352249678"><ele>589.0</ele><time>2026-04-09T10:21:31Z</time></trkpt><trkpt lat="37.89084784369839" lon="14.130669026297133"><ele>585.4</ele><time>2026-04-09T10:21:32Z</time></trkpt><trkpt lat="37.89089577672352" lon="14.130580446332656"><ele>581.8</ele><time>2026-04-09T10:21:33Z</time></trkpt><trkpt lat="37.890977347969596" lon="14.13050980110482"><ele>578.2</ele><time>2026-04-09T10:21:34Z</time></trkpt><trkpt lat="37.89108514830272" lon="14.130490949325093"><ele>574.6</ele><time>2026-04-09T10:21:35Z</time></trkpt><trkpt lat="37.89120630368739" lon="14.130536664671666"><ele>571.0</ele><time>2026-04-09T10:21:36Z</time></trkpt><trkpt lat="37.89136386578339" lon="14.13061071938981"><ele>570.3333333333334</ele><time>2026-04-09T10:21:37Z</time></trkpt><trkpt lat="37.89153598880625" lon="14.130698792383651"><ele>569.6666666666666</ele><time>2026-04-09T10:21:38Z</time></trkpt><trkpt lat="37.89168944239189" lon="14.130780028791072"><ele>569.0</ele><time>2026-04-09T10:21:39Z</time></trkpt><trkpt lat="37.891811835271014" lon="14.130875158450532"><ele>569.0</ele><time>2026-04-09T10:21:40Z</time></trkpt><trkpt lat="37.891915189801956" lon="14.131003519724661"><ele>569.0</ele><time>2026-04-09T10:21:41Z</time></trkpt><trkpt lat="37.89199602375481" lon="14.13112837346682"><ele>569.0</ele><time>2026-04-09T10:21:42Z</time></trkpt><trkpt lat="37.89208751416676" lon="14.131211404802832"><ele>569.0</ele><time>2026-04-09T10:21:43Z</time></trkpt><trkpt lat="37.89223481795895" lon="14.131248734620355"><ele>569.0</ele><time>2026-04-09T10:21:44Z</time></trkpt><trkpt lat="37.89240484051905" lon="14.131284306245911"><ele>569.0</ele><time>2026-04-09T10:21:45Z</time></trkpt><trkpt lat="37.892539476104304" lon="14.131355004204893"><ele>569.0</ele><time>2026-04-09T10:21:46Z</time></trkpt><trkpt lat="37.892659014242454" lon="14.131421951594088"><ele>569.0</ele><time>2026-04-09T10:21:47Z</time></trkpt><trkpt lat="37.8928160197954" lon="14.131431443038291"><ele>569.0</ele><time>2026-04-09T10:21:48Z</time></trkpt><trkpt lat="37.89299714466571" lon="14.131399243999468"><ele>569.0</ele><time>2026-04-09T10:21:49Z</time></trkpt><trkpt lat="37.89314908593428" lon="14.131369058406435"><ele>569.0</ele><time>2026-04-09T10:21:50Z</time></trkpt><trkpt lat="37.893276338816655" lon="14.131321838328208"><ele>569.0</ele><time>2026-04-09T10:21:51Z</time></trkpt><trkpt lat="37.893392035593365" lon="14.131213593552578"><ele>569.0</ele><time>2026-04-09T10:21:52Z</time></trkpt><trkpt lat="37.893499992681015" lon="14.131051827687074"><ele>569.0</ele><time>2026-04-09T10:21:53Z</time></trkpt><trkpt lat="37.89359126637671" lon="14.13090410177968"><ele>569.4</ele><time>2026-04-09T10:21:54Z</time></trkpt><trkpt lat="37.89367169515298" lon="14.1308096260585"><ele>569.8</ele><time>2026-04-09T10:21:55Z</time></trkpt><trkpt lat="37.89376141551824" lon="14.130752491131933"><ele>570.2</ele><time>2026-04-09T10:21:56Z</time></trkpt><trkpt lat="37.89386213143881" lon="14.130730335351599"><ele>570.6</ele><time>2026-04-09T10:21:57Z</time></trkpt><trkpt lat="37.89397259498776" lon="14.130762463539305"><ele>571.0</ele><time>2026-04-09T10:21:58Z</time></trkpt><trkpt lat="37.89408349905718" lon="14.130846554465432"><ele>571.0</ele><time>2026-04-09T10:21:59Z</time></trkpt><trkpt lat="37.89417859660624" lon="14.13093561354685"><ele>571.0</ele><time>2026-04-09T10:22:00Z</time></trkpt><trkpt lat="37.89428224659208" lon="14.130982291138636"><ele>571.0</ele><time>2026-04-09T10:22:01Z</time></trkpt><trkpt lat="37.894399665738106" lon="14.130967000087459"><ele>571.0</ele><time>2026-04-09T10:22:02Z</time></trkpt><trkpt lat="37.894502340136455" lon="14.130889541395874"><ele>569.6</ele><time>2026-04-09T10:22:03Z</time></trkpt><trkpt lat="37.89458806783273" lon="14.130796676193569"><ele>568.2</ele><time>2026-04-09T10:22:04Z</time></trkpt><trkpt lat="37.89467367099985" lon="14.130739407969827"><ele>566.8</ele><time>2026-04-09T10:22:05Z</time></trkpt><trkpt lat="37.894778952704634" lon="14.130734422318536"><ele>565.4</ele><time>2026-04-09T10:22:06Z</time></trkpt><trkpt lat="37.89490212970885" lon="14.130766872493563"><ele>564.0</ele><time>2026-04-09T10:22:07Z</time></trkpt><trkpt lat="37.89503387852758" lon="14.130806075691133"><ele>558.75</ele><time>2026-04-09T10:22:08Z</time></trkpt><trkpt lat="37.895157404609655" lon="14.130841308721969"><ele>553.5</ele><time>2026-04-09T10:22:09Z</time></trkpt><trkpt lat="37.895261170266984" lon="14.130880603718268"><ele>548.25</ele><time>2026-04-09T10:22:10Z</time></trkpt><trkpt lat="37.895349739897746" lon="14.130955754846152"><ele>543.0</ele><time>2026-04-09T10:22:11Z</time></trkpt><trkpt lat="37.89539719588515" lon="14.131093253911327"><ele>543.0</ele><time>2026-04-09T10:22:12Z</time></trkpt><trkpt lat="37.89546668477785" lon="14.131237007586948"><ele>543.0</ele><time>2026-04-09T10:22:13Z</time></trkpt><trkpt lat="37.89554826113521" lon="14.131399532694958"><ele>543.0</ele><time>2026-04-09T10:22:14Z</time></trkpt><trkpt lat="37.89567462758371" lon="14.131583167719276"><ele>538.6666666666666</ele><time>2026-04-09T10:22:15Z</time></trkpt><trkpt lat="37.89579695320569" lon="14.131744360102118"><ele>534.3333333333333</ele><time>2026-04-09T10:22:16Z</time></trkpt><trkpt lat="37.8959024421262" lon="14.131886525907449"><ele>530.0</ele><time>2026-04-09T10:22:17Z</time></trkpt><trkpt lat="37.89597237597087" lon="14.132041439530635"><ele>530.0</ele><time>2026-04-09T10:22:18Z</time></trkpt><trkpt lat="37.89602311161888" lon="14.1322295856515"><ele>530.0</ele><time>2026-04-09T10:22:19Z</time></trkpt><trkpt lat="37.89607645176072" lon="14.132470634995487"><ele>530.0</ele><time>2026-04-09T10:22:20Z</time></trkpt><trkpt lat="37.89612827123958" lon="14.13270415372195"><ele>531.25</ele><time>2026-04-09T10:22:21Z</time></trkpt><trkpt lat="37.8961731359775" lon="14.132904736449412"><ele>532.5</ele><time>2026-04-09T10:22:22Z</time></trkpt><trkpt lat="37.89620474483039" lon="14.133077940692585"><ele>533.75</ele><time>2026-04-09T10:22:23Z</time></trkpt><trkpt lat="37.89620116298772" lon="14.133236336077859"><ele>535.0</ele><time>2026-04-09T10:22:24Z</time></trkpt><trkpt lat="37.896176483629525" lon="14.133380669936209"><ele>535.0</ele><time>2026-04-09T10:22:25Z</time></trkpt><trkpt lat="37.89612304878506" lon="14.133508350264675"><ele>535.0</ele><time>2026-04-09T10:22:26Z</time></trkpt><trkpt lat="37.89603763602572" lon="14.133620168008598"><ele>535.0</ele><time>2026-04-09T10:22:27Z</time></trkpt><trkpt lat="37.89594881843178" lon="14.13371496090702"><ele>535.0</ele><time>2026-04-09T10:22:28Z</time></trkpt><trkpt lat="37.895905429376874" lon="14.133809222812415"><ele>535.0</ele><time>2026-04-09T10:22:29Z</time></trkpt><trkpt lat="37.89588605723892" lon="14.133892762193792"><ele>535.0</ele><time>2026-04-09T10:22:30Z</time></trkpt><trkpt lat="37.895944308555535" lon="14.133999096313865"><ele>535.0</ele><time>2026-04-09T10:22:31Z</time></trkpt><trkpt lat="37.89601082254329" lon="14.134067219384505"><ele>535.0</ele><time>2026-04-09T10:22:32Z</time></trkpt><trkpt lat="37.89611889723164" lon="14.134074257455516"><ele>535.0</ele><time>2026-04-09T10:22:33Z</time></trkpt><trkpt lat="37.896234817353864" lon="14.134042716542933"><ele>535.0</ele><time>2026-04-09T10:22:34Z</time></trkpt><trkpt lat="37.89633408614123" lon="14.134026104023441"><ele>536.0</ele><time>2026-04-09T10:22:35Z</time></trkpt><trkpt lat="37.89640885068752" lon="14.13408934452784"><ele>537.0</ele><time>2026-04-09T10:22:36Z</time></trkpt><trkpt lat="37.896460492285456" lon="14.134181341768324"><ele>538.0</ele><time>2026-04-09T10:22:37Z</time></trkpt><trkpt lat="37.89650051921428" lon="14.134308175364092"><ele>539.0</ele><time>2026-04-09T10:22:38Z</time></trkpt><trkpt lat="37.89657625485132" lon="14.13441480800163"><ele>540.0</ele><time>2026-04-09T10:22:39Z</time></trkpt><trkpt lat="37.89669914316521" lon="14.13446516114521"><ele>534.6666666666666</ele><time>2026-04-09T10:22:40Z</time></trkpt><trkpt lat="37.89686117978667" lon="14.134513004152826"><ele>529.3333333333333</ele><time>2026-04-09T10:22:41Z</time></trkpt><trkpt lat="37.89704384934713" lon="14.134570297339772"><ele>524.0</ele><time>2026-04-09T10:22:42Z</time></trkpt><trkpt lat="37.89726245477435" lon="14.134612259357596"><ele>524.0</ele><time>2026-04-09T10:22:43Z</time></trkpt><trkpt lat="37.89750942563113" lon="14.134624203183506"><ele>524.0</ele><time>2026-04-09T10:22:44Z</time></trkpt><trkpt lat="37.897762509814555" lon="14.134618485596906"><ele>520.0</ele><time>2026-04-09T10:22:45Z</time></trkpt><trkpt lat="37.89798140649523" lon="14.134604549801013"><ele>516.0</ele><time>2026-04-09T10:22:46Z</time></trkpt><trkpt lat="37.89817989248932" lon="14.134609188087142"><ele>512.0</ele><time>2026-04-09T10:22:47Z</time></trkpt><trkpt lat="37.89837620199263" lon="14.134648361561533"><ele>509.3333333333333</ele><time>2026-04-09T10:22:48Z</time></trkpt><trkpt lat="37.89858262222117" lon="14.134710007167046"><ele>506.66666666666663</ele><time>2026-04-09T10:22:49Z</time></trkpt><trkpt lat="37.898761290684426" lon="14.134781389093966"><ele>504.0</ele><time>2026-04-09T10:22:50Z</time></trkpt><trkpt lat="37.898899400189066" lon="14.13484459924977"><ele>504.0</ele><time>2026-04-09T10:22:51Z</time></trkpt><trkpt lat="37.89901397445095" lon="14.13488623014473"><ele>504.0</ele><time>2026-04-09T10:22:52Z</time></trkpt><trkpt lat="37.89913309851088" lon="14.134871061691504"><ele>504.0</ele><time>2026-04-09T10:22:53Z</time></trkpt><trkpt lat="37.89927397948293" lon="14.13480514121086"><ele>504.0</ele><time>2026-04-09T10:22:54Z</time></trkpt><trkpt lat="37.89941580385846" lon="14.134738126607129"><ele>503.0</ele><time>2026-04-09T10:22:55Z</time></trkpt><trkpt lat="37.899544350036805" lon="14.134738592909915"><ele>502.0</ele><time>2026-04-09T10:22:56Z</time></trkpt><trkpt lat="37.899646965882724" lon="14.134724901244054"><ele>501.0</ele><time>2026-04-09T10:22:57Z</time></trkpt><trkpt lat="37.89973763467932" lon="14.134762027926847"><ele>500.0</ele><time>2026-04-09T10:22:58Z</time></trkpt><trkpt lat="37.899805846845126" lon="14.134856890301856"><ele>499.0</ele><time>2026-04-09T10:22:59Z</time></trkpt><trkpt lat="37.89982706802581" lon="14.135005201374621"><ele>502.79999999999995</ele><time>2026-04-09T10:23:00Z</time></trkpt><trkpt lat="37.89989301801002" lon="14.135102844147944"><ele>506.59999999999997</ele><time>2026-04-09T10:23:01Z</time></trkpt><trkpt lat="37.89996549820418" lon="14.135151788505095"><ele>510.4</ele><time>2026-04-09T10:23:02Z</time></trkpt><trkpt lat="37.90007153188699" lon="14.135121485498512"><ele>514.1999999999999</ele><time>2026-04-09T10:23:03Z</time></trkpt><trkpt lat="37.90019419383267" lon="14.135039342888424"><ele>518.0</ele><time>2026-04-09T10:23:04Z</time></trkpt><trkpt lat="37.9003294917225" lon="14.134930174566788"><ele>512.0</ele><time>2026-04-09T10:23:05Z</time></trkpt><trkpt lat="37.90044338070747" lon="14.13484442126281"><ele>506.0</ele><time>2026-04-09T10:23:06Z</time></trkpt><trkpt lat="37.90056787116921" lon="14.1348027917968"><ele>500.0</ele><time>2026-04-09T10:23:07Z</time></trkpt><trkpt lat="37.900721077687194" lon="14.134835169140223"><ele>494.0</ele><time>2026-04-09T10:23:08Z</time></trkpt><trkpt lat="37.9009206878438" lon="14.134811053790637"><ele>491.3333333333333</ele><time>2026-04-09T10:23:09Z</time></trkpt><trkpt lat="37.90112153995621" lon="14.134777395180837"><ele>488.66666666666663</ele><time>2026-04-09T10:23:10Z</time></trkpt><trkpt lat="37.9012824189005" lon="14.134735706248241"><ele>486.0</ele><time>2026-04-09T10:23:11Z</time></trkpt><trkpt lat="37.90139761102189" lon="14.134701960944563"><ele>486.0</ele><time>2026-04-09T10:23:12Z</time></trkpt><trkpt lat="37.90150859581931" lon="14.134709902458793"><ele>486.0</ele><time>2026-04-09T10:23:13Z</time></trkpt><trkpt lat="37.90161396983894" lon="14.13476401820131"><ele>486.0</ele><time>2026-04-09T10:23:14Z</time></trkpt><trkpt lat="37.901687318295224" lon="14.13488172344296"><ele>486.0</ele><time>2026-04-09T10:23:15Z</time></trkpt><trkpt lat="37.90172494110444" lon="14.134994466387415"><ele>486.0</ele><time>2026-04-09T10:23:16Z</time></trkpt><trkpt lat="37.90171210665551" lon="14.13511170754812"><ele>491.25</ele><time>2026-04-09T10:23:17Z</time></trkpt><trkpt lat="37.90169896451023" lon="14.135260377127365"><ele>496.5</ele><time>2026-04-09T10:23:18Z</time></trkpt><trkpt lat="37.90164303028761" lon="14.135433507121768"><ele>501.75</ele><time>2026-04-09T10:23:19Z</time></trkpt><trkpt lat="37.901601219771344" lon="14.135645980055362"><ele>507.0</ele><time>2026-04-09T10:23:20Z</time></trkpt><trkpt lat="37.90159260424615" lon="14.135849779789126"><ele>507.40000000000003</ele><time>2026-04-09T10:23:21Z</time></trkpt><trkpt lat="37.90158565241656" lon="14.136008707026372"><ele>507.80000000000007</ele><time>2026-04-09T10:23:22Z</time></trkpt><trkpt lat="37.9015792682686" lon="14.1361388574651"><ele>508.2</ele><time>2026-04-09T10:23:23Z</time></trkpt><trkpt lat="37.90160264916257" lon="14.136246117666644"><ele>508.6</ele><time>2026-04-09T10:23:24Z</time></trkpt><trkpt lat="37.9016787825976" lon="14.136321062711884"><ele>509.0</ele><time>2026-04-09T10:23:25Z</time></trkpt><trkpt lat="37.9017896562811" lon="14.136363310357977"><ele>503.3333333333333</ele><time>2026-04-09T10:23:26Z</time></trkpt><trkpt lat="37.90194086192874" lon="14.136356640348863"><ele>497.66666666666663</ele><time>2026-04-09T10:23:27Z</time></trkpt><trkpt lat="37.902110921492124" lon="14.136361207413126"><ele>492.0</ele><time>2026-04-09T10:23:28Z</time></trkpt><trkpt lat="37.902251959715116" lon="14.136376117901746"><ele>492.0</ele><time>2026-04-09T10:23:29Z</time></trkpt><trkpt lat="37.902357398948986" lon="14.136396741706672"><ele>492.00000000000006</ele><time>2026-04-09T10:23:30Z</time></trkpt><trkpt lat="37.90244197009635" lon="14.136450627455355"><ele>492.00000000000006</ele><time>2026-04-09T10:23:31Z</time></trkpt><trkpt lat="37.90249398589816" lon="14.136541957858817"><ele>492.0</ele><time>2026-04-09T10:23:32Z</time></trkpt><trkpt lat="37.90249659275864" lon="14.136678970355275"><ele>492.0</ele><time>2026-04-09T10:23:33Z</time></trkpt><trkpt lat="37.902474625974186" lon="14.136836168634115"><ele>492.5</ele><time>2026-04-09T10:23:34Z</time></trkpt><trkpt lat="37.90245287841205" lon="14.137025773518989"><ele>493.0</ele><time>2026-04-09T10:23:35Z</time></trkpt><trkpt lat="37.902396972927534" lon="14.137197580707593"><ele>493.5</ele><time>2026-04-09T10:23:36Z</time></trkpt><trkpt lat="37.90233154321576" lon="14.137351264122275"><ele>494.0</ele><time>2026-04-09T10:23:37Z</time></trkpt><trkpt lat="37.9022985808979" lon="14.13749709458831"><ele>494.0</ele><time>2026-04-09T10:23:38Z</time></trkpt><trkpt lat="37.90229170835224" lon="14.137635976641869"><ele>494.0</ele><time>2026-04-09T10:23:39Z</time></trkpt><trkpt lat="37.90233666332715" lon="14.137797671691379"><ele>494.0</ele><time>2026-04-09T10:23:40Z</time></trkpt><trkpt lat="37.90239196751615" lon="14.13792239387209"><ele>494.0</ele><time>2026-04-09T10:23:41Z</time></trkpt><trkpt lat="37.90246595885749" lon="14.138015638368513"><ele>494.0</ele><time>2026-04-09T10:23:42Z</time></trkpt><trkpt lat="37.90257967162802" lon="14.138078025987946"><ele>494.0</ele><time>2026-04-09T10:23:43Z</time></trkpt><trkpt lat="37.90270605564078" lon="14.13811612043947"><ele>494.0</ele><time>2026-04-09T10:23:44Z</time></trkpt><trkpt lat="37.90283329082541" lon="14.138157510447178"><ele>494.0</ele><time>2026-04-09T10:23:45Z</time></trkpt><trkpt lat="37.90295777036293" lon="14.138237395640505"><ele>492.2</ele><time>2026-04-09T10:23:46Z</time></trkpt><trkpt lat="37.903060149312026" lon="14.138348770357561"><ele>490.4</ele><time>2026-04-09T10:23:47Z</time></trkpt><trkpt lat="37.903135934908676" lon="14.138455043113453"><ele>488.6</ele><time>2026-04-09T10:23:48Z</time></trkpt><trkpt lat="37.90320869587179" lon="14.13849983962827"><ele>486.8</ele><time>2026-04-09T10:23:49Z</time></trkpt><trkpt lat="37.90329598263367" lon="14.138492232179713"><ele>485.0</ele><time>2026-04-09T10:23:50Z</time></trkpt><trkpt lat="37.9033955714994" lon="14.138404415633536"><ele>482.66666666666663</ele><time>2026-04-09T10:23:51Z</time></trkpt><trkpt lat="37.90350332096107" lon="14.13826500544321"><ele>480.33333333333337</ele><time>2026-04-09T10:23:52Z</time></trkpt><trkpt lat="37.90361945749065" lon="14.138145163466787"><ele>478.0</ele><time>2026-04-09T10:23:53Z</time></trkpt><trkpt lat="37.9037637606507" lon="14.13804531051341"><ele>478.0</ele><time>2026-04-09T10:23:55Z</time></trkpt><trkpt lat="37.903876255674696" lon="14.13806438142121"><ele>478.0</ele><time>2026-04-09T10:23:56Z</time></trkpt><trkpt lat="37.903997763919286" lon="14.138106265448211"><ele>478.0</ele><time>2026-04-09T10:23:57Z</time></trkpt><trkpt lat="37.904129254557525" lon="14.138179870499856"><ele>478.0</ele><time>2026-04-09T10:23:58Z</time></trkpt><trkpt lat="37.90423663225787" lon="14.13826496805812"><ele>472.75</ele><time>2026-04-09T10:23:59Z</time></trkpt><trkpt lat="37.90429676738691" lon="14.138379797788552"><ele>467.5</ele><time>2026-04-09T10:24:00Z</time></trkpt><trkpt lat="37.90434474240585" lon="14.138511719630676"><ele>462.25</ele><time>2026-04-09T10:24:01Z</time></trkpt><trkpt lat="37.9043918773817" lon="14.138697007898353"><ele>457.0</ele><time>2026-04-09T10:24:02Z</time></trkpt><trkpt lat="37.90443472289673" lon="14.138936661151424"><ele>457.5</ele><time>2026-04-09T10:24:03Z</time></trkpt><trkpt lat="37.904450030208245" lon="14.139133032142514"><ele>458.0</ele><time>2026-04-09T10:24:04Z</time></trkpt><trkpt lat="37.90444075339672" lon="14.139309814426843"><ele>458.5</ele><time>2026-04-09T10:24:05Z</time></trkpt><trkpt lat="37.9043880649264" lon="14.13948512642922"><ele>459.0</ele><time>2026-04-09T10:24:06Z</time></trkpt><trkpt lat="37.90431288555556" lon="14.139687175267072"><ele>456.33333333333337</ele><time>2026-04-09T10:24:07Z</time></trkpt><trkpt lat="37.9043003749358" lon="14.139926692736017"><ele>453.6666666666667</ele><time>2026-04-09T10:24:08Z</time></trkpt><trkpt lat="37.90428831463479" lon="14.14021985789411"><ele>451.0</ele><time>2026-04-09T10:24:09Z</time></trkpt><trkpt lat="37.904283819169116" lon="14.140526277730656"><ele>451.33333333333337</ele><time>2026-04-09T10:24:10Z</time></trkpt><trkpt lat="37.904277712190144" lon="14.140773452387124"><ele>451.66666666666663</ele><time>2026-04-09T10:24:11Z</time></trkpt><trkpt lat="37.90426550537113" lon="14.140972623396893"><ele>452.0</ele><time>2026-04-09T10:24:12Z</time></trkpt><trkpt lat="37.90426236653349" lon="14.141139721876579"><ele>452.0</ele><time>2026-04-09T10:24:13Z</time></trkpt><trkpt lat="37.90427116850014" lon="14.141287548770233"><ele>452.0</ele><time>2026-04-09T10:24:14Z</time></trkpt><trkpt lat="37.904313247362964" lon="14.14142246206939"><ele>452.0</ele><time>2026-04-09T10:24:15Z</time></trkpt><trkpt lat="37.904446183913635" lon="14.141538400555792"><ele>452.0</ele><time>2026-04-09T10:24:16Z</time></trkpt><trkpt lat="37.9046041290103" lon="14.141698270774095"><ele>453.3333333333333</ele><time>2026-04-09T10:24:17Z</time></trkpt><trkpt lat="37.90476066451812" lon="14.141866913743351"><ele>454.66666666666663</ele><time>2026-04-09T10:24:18Z</time></trkpt><trkpt lat="37.90488878828695" lon="14.142020231952317"><ele>456.0</ele><time>2026-04-09T10:24:19Z</time></trkpt><trkpt lat="37.90498773223082" lon="14.142141943762038"><ele>456.0</ele><time>2026-04-09T10:24:20Z</time></trkpt><trkpt lat="37.90507018764067" lon="14.142238103356787"><ele>456.0</ele><time>2026-04-09T10:24:21Z</time></trkpt><trkpt lat="37.90515003928235" lon="14.142316112642096"><ele>456.0</ele><time>2026-04-09T10:24:22Z</time></trkpt><trkpt lat="37.905236126166876" lon="14.142364905714313"><ele>456.0</ele><time>2026-04-09T10:24:23Z</time></trkpt><trkpt lat="37.905330598420335" lon="14.142371205293859"><ele>456.0</ele><time>2026-04-09T10:24:24Z</time></trkpt><trkpt lat="37.90541809506434" lon="14.142337902881847"><ele>451.0</ele><time>2026-04-09T10:24:25Z</time></trkpt><trkpt lat="37.90549267634433" lon="14.142250738104812"><ele>446.0</ele><time>2026-04-09T10:24:26Z</time></trkpt><trkpt lat="37.90554057011864" lon="14.142136625521717"><ele>441.0</ele><time>2026-04-09T10:24:27Z</time></trkpt><trkpt lat="37.905546332052104" lon="14.141990775939394"><ele>436.0</ele><time>2026-04-09T10:24:28Z</time></trkpt><trkpt lat="37.905513969522005" lon="14.14181637964162"><ele>436.0</ele><time>2026-04-09T10:24:29Z</time></trkpt><trkpt lat="37.90546918994137" lon="14.141624864697132"><ele>436.0</ele><time>2026-04-09T10:24:30Z</time></trkpt><trkpt lat="37.90542509093985" lon="14.141385926868908"><ele>436.0</ele><time>2026-04-09T10:24:31Z</time></trkpt><trkpt lat="37.905387625454274" lon="14.141118509924198"><ele>435.0</ele><time>2026-04-09T10:24:32Z</time></trkpt><trkpt lat="37.90534130930377" lon="14.140853760006074"><ele>434.0</ele><time>2026-04-09T10:24:33Z</time></trkpt><trkpt lat="37.905296539399146" lon="14.14062436865652"><ele>433.0</ele><time>2026-04-09T10:24:34Z</time></trkpt><trkpt lat="37.90525840815554" lon="14.140413305286314"><ele>433.0</ele><time>2026-04-09T10:24:35Z</time></trkpt><trkpt lat="37.90524644861098" lon="14.140203608347361"><ele>433.0</ele><time>2026-04-09T10:24:36Z</time></trkpt><trkpt lat="37.905267031597155" lon="14.139981708346825"><ele>433.0</ele><time>2026-04-09T10:24:37Z</time></trkpt><trkpt lat="37.905319643842354" lon="14.139727888241723"><ele>435.0</ele><time>2026-04-09T10:24:38Z</time></trkpt><trkpt lat="37.90539630743398" lon="14.139436225064868"><ele>437.0</ele><time>2026-04-09T10:24:39Z</time></trkpt><trkpt lat="37.90547877485755" lon="14.139128790705211"><ele>438.0</ele><time>2026-04-09T10:24:40Z</time></trkpt><trkpt lat="37.905561027235024" lon="14.138814332569599"><ele>439.0</ele><time>2026-04-09T10:24:41Z</time></trkpt><trkpt lat="37.905635182222184" lon="14.138538170692591"><ele>439.0</ele><time>2026-04-09T10:24:42Z</time></trkpt><trkpt lat="37.905697200355334" lon="14.13829517135281"><ele>439.0</ele><time>2026-04-09T10:24:43Z</time></trkpt><trkpt lat="37.90575426413708" lon="14.138085071716082"><ele>439.0</ele><time>2026-04-09T10:24:44Z</time></trkpt><trkpt lat="37.905802679950405" lon="14.137902838845864"><ele>438.79999999999995</ele><time>2026-04-09T10:24:45Z</time></trkpt><trkpt lat="37.90584358217647" lon="14.137754229309486"><ele>438.59999999999997</ele><time>2026-04-09T10:24:46Z</time></trkpt><trkpt lat="37.90587449422576" lon="14.137634304615327"><ele>438.4</ele><time>2026-04-09T10:24:47Z</time></trkpt><trkpt lat="37.90588993480402" lon="14.137519300596745"><ele>438.2</ele><time>2026-04-09T10:24:48Z</time></trkpt><trkpt lat="37.90585516300014" lon="14.137382353438971"><ele>438.0</ele><time>2026-04-09T10:24:49Z</time></trkpt><trkpt lat="37.90578421358294" lon="14.137248906169908"><ele>435.75</ele><time>2026-04-09T10:24:50Z</time></trkpt><trkpt lat="37.90566892308928" lon="14.137144180521519"><ele>433.5</ele><time>2026-04-09T10:24:51Z</time></trkpt><trkpt lat="37.905538774948205" lon="14.137070562534126"><ele>431.25</ele><time>2026-04-09T10:24:52Z</time></trkpt><trkpt lat="37.90543182024121" lon="14.137027360081246"><ele>429.0</ele><time>2026-04-09T10:24:53Z</time></trkpt><trkpt lat="37.90532679268286" lon="14.13701434837561"><ele>429.0</ele><time>2026-04-09T10:24:54Z</time></trkpt><trkpt lat="37.905216374794314" lon="14.137108109661444"><ele>429.0</ele><time>2026-04-09T10:24:55Z</time></trkpt><trkpt lat="37.90510795633147" lon="14.13717444294717"><ele>429.0</ele><time>2026-04-09T10:24:56Z</time></trkpt><trkpt lat="37.90499653617687" lon="14.137180093071015"><ele>429.0</ele><time>2026-04-09T10:24:57Z</time></trkpt><trkpt lat="37.90484802592959" lon="14.137147717010851"><ele>429.0</ele><time>2026-04-09T10:24:58Z</time></trkpt><trkpt lat="37.904707007343234" lon="14.137115230442955"><ele>429.0</ele><time>2026-04-09T10:24:59Z</time></trkpt><trkpt lat="37.90459484038992" lon="14.137071598047184"><ele>429.0</ele><time>2026-04-09T10:25:00Z</time></trkpt><trkpt lat="37.90449707617079" lon="14.13699849827113"><ele>429.0</ele><time>2026-04-09T10:25:01Z</time></trkpt><trkpt lat="37.90441451669497" lon="14.136902165851707"><ele>429.0</ele><time>2026-04-09T10:25:02Z</time></trkpt><trkpt lat="37.90434269755569" lon="14.136821127456841"><ele>429.0</ele><time>2026-04-09T10:25:03Z</time></trkpt><trkpt lat="37.90434569676379" lon="14.136686980906553"><ele>429.0</ele><time>2026-04-09T10:25:04Z</time></trkpt><trkpt lat="37.90434710041885" lon="14.136522133569061"><ele>429.0</ele><time>2026-04-09T10:25:05Z</time></trkpt><trkpt lat="37.9043512799961" lon="14.136340302210042"><ele>426.33333333333337</ele><time>2026-04-09T10:25:06Z</time></trkpt><trkpt lat="37.904394135038984" lon="14.13615615469588"><ele>423.6666666666667</ele><time>2026-04-09T10:25:07Z</time></trkpt><trkpt lat="37.90447309888964" lon="14.135937692460805"><ele>421.0</ele><time>2026-04-09T10:25:08Z</time></trkpt><trkpt lat="37.90456256216895" lon="14.135730794476489"><ele>420.0</ele><time>2026-04-09T10:25:09Z</time></trkpt><trkpt lat="37.904643359895104" lon="14.135546585312134"><ele>419.0</ele><time>2026-04-09T10:25:10Z</time></trkpt><trkpt lat="37.904707293872264" lon="14.135374133070673"><ele>418.0</ele><time>2026-04-09T10:25:11Z</time></trkpt><trkpt lat="37.90474612720769" lon="14.135176872535661"><ele>418.0</ele><time>2026-04-09T10:25:12Z</time></trkpt><trkpt lat="37.90475182252743" lon="14.134996660613885"><ele>418.0</ele><time>2026-04-09T10:25:13Z</time></trkpt><trkpt lat="37.904730968099614" lon="14.134838291604593"><ele>418.0</ele><time>2026-04-09T10:25:14Z</time></trkpt><trkpt lat="37.90466209628122" lon="14.134675714382253"><ele>418.0</ele><time>2026-04-09T10:25:15Z</time></trkpt><trkpt lat="37.90458869866598" lon="14.134513322913946"><ele>416.33333333333337</ele><time>2026-04-09T10:25:16Z</time></trkpt><trkpt lat="37.90456982736533" lon="14.134331601679808"><ele>414.66666666666663</ele><time>2026-04-09T10:25:17Z</time></trkpt><trkpt lat="37.90453868932782" lon="14.13410967750073"><ele>413.0</ele><time>2026-04-09T10:25:18Z</time></trkpt><trkpt lat="37.9045310338917" lon="14.133891537318933"><ele>411.25</ele><time>2026-04-09T10:25:19Z</time></trkpt><trkpt lat="37.90452011663002" lon="14.133715048111785"><ele>409.5</ele><time>2026-04-09T10:25:20Z</time></trkpt><trkpt lat="37.90448816824462" lon="14.133570888354845"><ele>407.75</ele><time>2026-04-09T10:25:21Z</time></trkpt><trkpt lat="37.90441771276787" lon="14.133444079648056"><ele>406.0</ele><time>2026-04-09T10:25:22Z</time></trkpt><trkpt lat="37.90431018300101" lon="14.133307183870828"><ele>405.5</ele><time>2026-04-09T10:25:23Z</time></trkpt><trkpt lat="37.904191442993856" lon="14.133175943381307"><ele>405.0</ele><time>2026-04-09T10:25:24Z</time></trkpt><trkpt lat="37.90408986141271" lon="14.133054843933573"><ele>404.5</ele><time>2026-04-09T10:25:25Z</time></trkpt><trkpt lat="37.903979944634855" lon="14.132965625852206"><ele>404.0</ele><time>2026-04-09T10:25:26Z</time></trkpt><trkpt lat="37.903828225487814" lon="14.132907466369733"><ele>404.0</ele><time>2026-04-09T10:25:27Z</time></trkpt><trkpt lat="37.90364748190378" lon="14.132852532120694"><ele>404.0</ele><time>2026-04-09T10:25:28Z</time></trkpt><trkpt lat="37.90346832393241" lon="14.132806582573544"><ele>404.0</ele><time>2026-04-09T10:25:29Z</time></trkpt><trkpt lat="37.90331934806907" lon="14.132814676376576"><ele>403.66666666666663</ele><time>2026-04-09T10:25:30Z</time></trkpt><trkpt lat="37.90320891707483" lon="14.132823165175799"><ele>403.3333333333333</ele><time>2026-04-09T10:25:31Z</time></trkpt><trkpt lat="37.903127208963205" lon="14.13283085624078"><ele>403.0</ele><time>2026-04-09T10:25:32Z</time></trkpt><trkpt lat="37.90306747918257" lon="14.132781213137637"><ele>402.66666666666663</ele><time>2026-04-09T10:25:33Z</time></trkpt><trkpt lat="37.903044550273094" lon="14.132696305783153"><ele>402.3333333333333</ele><time>2026-04-09T10:25:34Z</time></trkpt><trkpt lat="37.90307125835164" lon="14.13257438868639"><ele>402.0</ele><time>2026-04-09T10:25:35Z</time></trkpt><trkpt lat="37.90305197885739" lon="14.132385747045925"><ele>402.0</ele><time>2026-04-09T10:25:36Z</time></trkpt><trkpt lat="37.903054887141735" lon="14.132162900831856"><ele>402.0</ele><time>2026-04-09T10:25:37Z</time></trkpt><trkpt lat="37.903053493882496" lon="14.131914201712714"><ele>402.0</ele><time>2026-04-09T10:25:38Z</time></trkpt><trkpt lat="37.90304778164108" lon="14.131708530444145"><ele>399.8</ele><time>2026-04-09T10:25:39Z</time></trkpt><trkpt lat="37.90305643792815" lon="14.131542474798472"><ele>397.6</ele><time>2026-04-09T10:25:40Z</time></trkpt><trkpt lat="37.90308211402332" lon="14.131412647117958"><ele>395.40000000000003</ele><time>2026-04-09T10:25:41Z</time></trkpt><trkpt lat="37.9030903759717" lon="14.131301710813922"><ele>393.20000000000005</ele><time>2026-04-09T10:25:42Z</time></trkpt><trkpt lat="37.903033559820955" lon="14.131198232390398"><ele>391.0</ele><time>2026-04-09T10:25:43Z</time></trkpt><trkpt lat="37.90292690288823" lon="14.131092071403897"><ele>391.0</ele><time>2026-04-09T10:25:44Z</time></trkpt><trkpt lat="37.9027664134077" lon="14.130971479609546"><ele>391.0</ele><time>2026-04-09T10:25:45Z</time></trkpt><trkpt lat="37.90261247939533" lon="14.130869938692486"><ele>391.0</ele><time>2026-04-09T10:25:46Z</time></trkpt><trkpt lat="37.902497740883305" lon="14.130789861638082"><ele>390.83333333333337</ele><time>2026-04-09T10:25:47Z</time></trkpt><trkpt lat="37.90241375774567" lon="14.130751147110155"><ele>390.6666666666667</ele><time>2026-04-09T10:25:48Z</time></trkpt><trkpt lat="37.902346810563785" lon="14.130728913320027"><ele>390.5</ele><time>2026-04-09T10:25:49Z</time></trkpt><trkpt lat="37.90230030700226" lon="14.130650843852914"><ele>390.33333333333337</ele><time>2026-04-09T10:25:50Z</time></trkpt><trkpt lat="37.90226915044402" lon="14.1305461563915"><ele>390.1666666666667</ele><time>2026-04-09T10:25:51Z</time></trkpt><trkpt lat="37.9022703104806" lon="14.130421049675899"><ele>390.0</ele><time>2026-04-09T10:25:52Z</time></trkpt><trkpt lat="37.90229219475414" lon="14.130278774991776"><ele>390.0</ele><time>2026-04-09T10:25:53Z</time></trkpt><trkpt lat="37.90231808632112" lon="14.130155420899142"><ele>390.0</ele><time>2026-04-09T10:25:54Z</time></trkpt><trkpt lat="37.902324659893885" lon="14.130060115030094"><ele>390.0</ele><time>2026-04-09T10:25:55Z</time></trkpt><trkpt lat="37.902289836468746" lon="14.129971460640313"><ele>390.0</ele><time>2026-04-09T10:25:56Z</time></trkpt><trkpt lat="37.90221775649857" lon="14.129903525397244"><ele>390.0</ele><time>2026-04-09T10:25:57Z</time></trkpt><trkpt lat="37.90211370908193" lon="14.129897658669258"><ele>390.0</ele><time>2026-04-09T10:25:58Z</time></trkpt><trkpt lat="37.90199851973418" lon="14.129934949797914"><ele>390.0</ele><time>2026-04-09T10:25:59Z</time></trkpt><trkpt lat="37.90185103633228" lon="14.130023825926752"><ele>390.0</ele><time>2026-04-09T10:26:00Z</time></trkpt><trkpt lat="37.901702205178296" lon="14.130119893814825"><ele>390.0</ele><time>2026-04-09T10:26:01Z</time></trkpt><trkpt lat="37.901571606862355" lon="14.130199235924263"><ele>389.8</ele><time>2026-04-09T10:26:02Z</time></trkpt><trkpt lat="37.90147060323625" lon="14.13030256116915"><ele>389.6</ele><time>2026-04-09T10:26:03Z</time></trkpt><trkpt lat="37.901402780627144" lon="14.130417584600732"><ele>389.4</ele><time>2026-04-09T10:26:04Z</time></trkpt><trkpt lat="37.9013613345582" lon="14.13049843378038"><ele>389.2</ele><time>2026-04-09T10:26:05Z</time></trkpt><trkpt lat="37.90129831337431" lon="14.130544874962936"><ele>389.0</ele><time>2026-04-09T10:26:06Z</time></trkpt><trkpt lat="37.90121659660124" lon="14.130508066490501"><ele>389.0</ele><time>2026-04-09T10:26:07Z</time></trkpt><trkpt lat="37.90114458476412" lon="14.130489128375672"><ele>389.0</ele><time>2026-04-09T10:26:08Z</time></trkpt><trkpt lat="37.90109644899043" lon="14.13038428881541"><ele>389.0</ele><time>2026-04-09T10:26:09Z</time></trkpt><trkpt lat="37.9011026729289" lon="14.130227337014599"><ele>389.0</ele><time>2026-04-09T10:26:10Z</time></trkpt><trkpt lat="37.90110437304186" lon="14.130037319178953"><ele>389.0</ele><time>2026-04-09T10:26:11Z</time></trkpt><trkpt lat="37.901097714531915" lon="14.129790386581197"><ele>384.0</ele><time>2026-04-09T10:26:12Z</time></trkpt><trkpt lat="37.90111717766024" lon="14.129522688018167"><ele>379.0</ele><time>2026-04-09T10:26:13Z</time></trkpt><trkpt lat="37.901151917495866" lon="14.129274918575883"><ele>374.0</ele><time>2026-04-09T10:26:14Z</time></trkpt><trkpt lat="37.901193840271006" lon="14.129058193998283"><ele>369.6666666666667</ele><time>2026-04-09T10:26:15Z</time></trkpt><trkpt lat="37.901222049525536" lon="14.128861049889506"><ele>365.3333333333333</ele><time>2026-04-09T10:26:16Z</time></trkpt><trkpt lat="37.90122660741327" lon="14.128666197020685"><ele>361.0</ele><time>2026-04-09T10:26:17Z</time></trkpt><trkpt lat="37.9012202565866" lon="14.128485612371026"><ele>361.0</ele><time>2026-04-09T10:26:18Z</time></trkpt><trkpt lat="37.901202338728815" lon="14.12832705386485"><ele>361.0</ele><time>2026-04-09T10:26:19Z</time></trkpt><trkpt lat="37.9011625921931" lon="14.128199215078258"><ele>361.0</ele><time>2026-04-09T10:26:20Z</time></trkpt><trkpt lat="37.90109901821319" lon="14.12809891918959"><ele>361.0</ele><time>2026-04-09T10:26:21Z</time></trkpt><trkpt lat="37.90098589830807" lon="14.12802512764468"><ele>361.66666666666663</ele><time>2026-04-09T10:26:22Z</time></trkpt><trkpt lat="37.900836469956076" lon="14.127950333305693"><ele>362.3333333333333</ele><time>2026-04-09T10:26:23Z</time></trkpt><trkpt lat="37.90069621752756" lon="14.127798783379937"><ele>363.0</ele><time>2026-04-09T10:26:24Z</time></trkpt><trkpt lat="37.900560797064266" lon="14.127628009427605"><ele>363.0</ele><time>2026-04-09T10:26:25Z</time></trkpt><trkpt lat="37.90045024066349" lon="14.127503271558979"><ele>363.0</ele><time>2026-04-09T10:26:26Z</time></trkpt><trkpt lat="37.900371352068234" lon="14.127396323486968"><ele>363.0</ele><time>2026-04-09T10:26:27Z</time></trkpt><trkpt lat="37.90028801755088" lon="14.12730949534287"><ele>363.0</ele><time>2026-04-09T10:26:28Z</time></trkpt><trkpt lat="37.900185416933525" lon="14.127235074546206"><ele>358.75</ele><time>2026-04-09T10:26:29Z</time></trkpt><trkpt lat="37.90004547623087" lon="14.127246643629116"><ele>354.5</ele><time>2026-04-09T10:26:30Z</time></trkpt><trkpt lat="37.89990551005797" lon="14.127299325762184"><ele>350.25</ele><time>2026-04-09T10:26:31Z</time></trkpt><trkpt lat="37.89978499697639" lon="14.127318399768606"><ele>346.0</ele><time>2026-04-09T10:26:32Z</time></trkpt><trkpt lat="37.899666300216715" lon="14.127310119581143"><ele>346.0</ele><time>2026-04-09T10:26:33Z</time></trkpt><trkpt lat="37.89953580733076" lon="14.127262039259573"><ele>346.0</ele><time>2026-04-09T10:26:34Z</time></trkpt><trkpt lat="37.899398454213376" lon="14.127166074330475"><ele>346.0</ele><time>2026-04-09T10:26:35Z</time></trkpt><trkpt lat="37.899257268596884" lon="14.127063865885393"><ele>349.75</ele><time>2026-04-09T10:26:36Z</time></trkpt><trkpt lat="37.89913581936435" lon="14.126951432074515"><ele>353.5</ele><time>2026-04-09T10:26:37Z</time></trkpt><trkpt lat="37.89903833209289" lon="14.126827271711287"><ele>357.25</ele><time>2026-04-09T10:26:38Z</time></trkpt><trkpt lat="37.89896055831728" lon="14.126675396763376"><ele>361.0</ele><time>2026-04-09T10:26:39Z</time></trkpt><trkpt lat="37.89890268307004" lon="14.126506763145342"><ele>361.0</ele><time>2026-04-09T10:26:40Z</time></trkpt><trkpt lat="37.89885641101127" lon="14.12634237213524"><ele>361.0</ele><time>2026-04-09T10:26:41Z</time></trkpt><trkpt lat="37.89881889497746" lon="14.126197990458996"><ele>361.0</ele><time>2026-04-09T10:26:42Z</time></trkpt><trkpt lat="37.89881319111938" lon="14.126065701544555"><ele>361.0</ele><time>2026-04-09T10:26:43Z</time></trkpt><trkpt lat="37.89884686984758" lon="14.125933731330989"><ele>361.0</ele><time>2026-04-09T10:26:44Z</time></trkpt><trkpt lat="37.8988852892953" lon="14.125781255725341"><ele>361.0</ele><time>2026-04-09T10:26:45Z</time></trkpt><trkpt lat="37.89891906684999" lon="14.125668452317585"><ele>361.0</ele><time>2026-04-09T10:26:46Z</time></trkpt><trkpt lat="37.89897492559752" lon="14.125619040592284"><ele>361.0</ele><time>2026-04-09T10:26:47Z</time></trkpt><trkpt lat="37.899035599620255" lon="14.125587058625763"><ele>361.0</ele><time>2026-04-09T10:26:48Z</time></trkpt><trkpt lat="37.8991249726332" lon="14.125651670032676"><ele>359.75</ele><time>2026-04-09T10:26:49Z</time></trkpt><trkpt lat="37.89923535603843" lon="14.125699161651225"><ele>358.5</ele><time>2026-04-09T10:26:50Z</time></trkpt><trkpt lat="37.899376612733306" lon="14.125740218904939"><ele>357.25</ele><time>2026-04-09T10:26:51Z</time></trkpt><trkpt lat="37.8995021953505" lon="14.125800406099891"><ele>356.0</ele><time>2026-04-09T10:26:52Z</time></trkpt><trkpt lat="37.89961980071471" lon="14.125829050490623"><ele>356.0</ele><time>2026-04-09T10:26:53Z</time></trkpt><trkpt lat="37.899749692851465" lon="14.125794237787174"><ele>356.0</ele><time>2026-04-09T10:26:54Z</time></trkpt><trkpt lat="37.899914041545486" lon="14.125707265460397"><ele>356.0</ele><time>2026-04-09T10:26:55Z</time></trkpt><trkpt lat="37.900087627769615" lon="14.125610576471814"><ele>364.33333333333337</ele><time>2026-04-09T10:26:56Z</time></trkpt><trkpt lat="37.9002534698133" lon="14.125570796108224"><ele>372.6666666666667</ele><time>2026-04-09T10:26:57Z</time></trkpt><trkpt lat="37.900404155332375" lon="14.125548092358699"><ele>381.0</ele><time>2026-04-09T10:26:58Z</time></trkpt><trkpt lat="37.90055857932448" lon="14.125613806948317"><ele>381.0</ele><time>2026-04-09T10:26:59Z</time></trkpt><trkpt lat="37.90074624505494" lon="14.12567626334132"><ele>381.0</ele><time>2026-04-09T10:27:00Z</time></trkpt><trkpt lat="37.900941201353966" lon="14.125729323364839"><ele>381.0</ele><time>2026-04-09T10:27:01Z</time></trkpt><trkpt lat="37.90111394574686" lon="14.125770128049542"><ele>373.6666666666667</ele><time>2026-04-09T10:27:02Z</time></trkpt><trkpt lat="37.90131214457583" lon="14.125769801481988"><ele>366.33333333333337</ele><time>2026-04-09T10:27:03Z</time></trkpt><trkpt lat="37.90154455243183" lon="14.125739420889701"><ele>359.0</ele><time>2026-04-09T10:27:04Z</time></trkpt><trkpt lat="37.901799880793575" lon="14.125669640926679"><ele>359.0</ele><time>2026-04-09T10:27:05Z</time></trkpt><trkpt lat="37.9020101324013" lon="14.125620405917983"><ele>359.0</ele><time>2026-04-09T10:27:06Z</time></trkpt><trkpt lat="37.90218349320114" lon="14.125582721987522"><ele>359.0</ele><time>2026-04-09T10:27:07Z</time></trkpt><trkpt lat="37.9023254045262" lon="14.125556604216733"><ele>359.0</ele><time>2026-04-09T10:27:08Z</time></trkpt><trkpt lat="37.90243918881389" lon="14.125531237376665"><ele>359.0</ele><time>2026-04-09T10:27:09Z</time></trkpt><trkpt lat="37.902530202838804" lon="14.125474297958682"><ele>359.0</ele><time>2026-04-09T10:27:10Z</time></trkpt><trkpt lat="37.90260226744704" lon="14.125351301004923"><ele>359.0</ele><time>2026-04-09T10:27:11Z</time></trkpt><trkpt lat="37.902663180394256" lon="14.125177101764901"><ele>355.75</ele><time>2026-04-09T10:27:12Z</time></trkpt><trkpt lat="37.90272770631732" lon="14.125025950244419"><ele>352.5</ele><time>2026-04-09T10:27:13Z</time></trkpt><trkpt lat="37.90282494976157" lon="14.124900183471656"><ele>349.25</ele><time>2026-04-09T10:27:14Z</time></trkpt><trkpt lat="37.902949220293095" lon="14.124785695885274"><ele>346.0</ele><time>2026-04-09T10:27:15Z</time></trkpt><trkpt lat="37.90309568633222" lon="14.124697522642254"><ele>346.0</ele><time>2026-04-09T10:27:16Z</time></trkpt><trkpt lat="37.90323556810891" lon="14.124628962097255"><ele>346.0</ele><time>2026-04-09T10:27:17Z</time></trkpt><trkpt lat="37.90334843445418" lon="14.124539724704439"><ele>346.0</ele><time>2026-04-09T10:27:18Z</time></trkpt><trkpt lat="37.903436619405355" lon="14.124399355655298"><ele>346.0</ele><time>2026-04-09T10:27:19Z</time></trkpt><trkpt lat="37.903508019095895" lon="14.124205301517163"><ele>340.3333333333333</ele><time>2026-04-09T10:27:20Z</time></trkpt><trkpt lat="37.903570834916735" lon="14.123961288775483"><ele>334.6666666666667</ele><time>2026-04-09T10:27:21Z</time></trkpt><trkpt lat="37.903651297010484" lon="14.123721740463184"><ele>329.0</ele><time>2026-04-09T10:27:22Z</time></trkpt><trkpt lat="37.90377053290408" lon="14.123474676547277"><ele>336.5</ele><time>2026-04-09T10:27:23Z</time></trkpt><trkpt lat="37.903925474296564" lon="14.123214367729254"><ele>344.0</ele><time>2026-04-09T10:27:24Z</time></trkpt><trkpt lat="37.90407968862873" lon="14.122922464500528"><ele>344.0</ele><time>2026-04-09T10:27:25Z</time></trkpt><trkpt lat="37.904207078399644" lon="14.122617855168542"><ele>344.0</ele><time>2026-04-09T10:27:26Z</time></trkpt><trkpt lat="37.90430196573985" lon="14.122345199386878"><ele>340.33333333333337</ele><time>2026-04-09T10:27:27Z</time></trkpt><trkpt lat="37.90439432416047" lon="14.122098969960764"><ele>336.6666666666667</ele><time>2026-04-09T10:27:28Z</time></trkpt><trkpt lat="37.90453890466523" lon="14.12186558518768"><ele>333.0</ele><time>2026-04-09T10:27:29Z</time></trkpt><trkpt lat="37.90465048107483" lon="14.121641236315602"><ele>334.25</ele><time>2026-04-09T10:27:30Z</time></trkpt><trkpt lat="37.90475034796797" lon="14.121446582236729"><ele>335.5</ele><time>2026-04-09T10:27:31Z</time></trkpt><trkpt lat="37.904821875415905" lon="14.121282933768217"><ele>336.75</ele><time>2026-04-09T10:27:32Z</time></trkpt><trkpt lat="37.904873218758866" lon="14.121159380706004"><ele>338.0</ele><time>2026-04-09T10:27:33Z</time></trkpt><trkpt lat="37.904910259020255" lon="14.121081300088852"><ele>338.0</ele><time>2026-04-09T10:27:34Z</time></trkpt><trkpt lat="37.904969664187206" lon="14.121025097444678"><ele>338.0</ele><time>2026-04-09T10:27:35Z</time></trkpt><trkpt lat="37.90504877393469" lon="14.12100642899014"><ele>338.0</ele><time>2026-04-09T10:27:36Z</time></trkpt><trkpt lat="37.90512600433287" lon="14.121050873075102"><ele>338.0</ele><time>2026-04-09T10:27:37Z</time></trkpt><trkpt lat="37.90519476889835" lon="14.121169451508084"><ele>338.0</ele><time>2026-04-09T10:27:38Z</time></trkpt><trkpt lat="37.90526924176113" lon="14.121287800997802"><ele>341.5</ele><time>2026-04-09T10:27:39Z</time></trkpt><trkpt lat="37.905314809597414" lon="14.1214117876439"><ele>345.0</ele><time>2026-04-09T10:27:40Z</time></trkpt><trkpt lat="37.90531771056787" lon="14.121541747292007"><ele>348.5</ele><time>2026-04-09T10:27:41Z</time></trkpt><trkpt lat="37.90528567991854" lon="14.121683122347074"><ele>352.0</ele><time>2026-04-09T10:27:42Z</time></trkpt><trkpt lat="37.90526874142945" lon="14.121861986834796"><ele>352.0</ele><time>2026-04-09T10:27:43Z</time></trkpt><trkpt lat="37.905266378509175" lon="14.122022610754483"><ele>352.0</ele><time>2026-04-09T10:27:44Z</time></trkpt><trkpt lat="37.905324127714955" lon="14.122190499276154"><ele>352.0</ele><time>2026-04-09T10:27:45Z</time></trkpt><trkpt lat="37.90535106391371" lon="14.122374492526195"><ele>352.0</ele><time>2026-04-09T10:27:46Z</time></trkpt><trkpt lat="37.90534618182461" lon="14.122543845620234"><ele>352.66666666666663</ele><time>2026-04-09T10:27:47Z</time></trkpt><trkpt lat="37.90531194540241" lon="14.12272482373417"><ele>353.3333333333333</ele><time>2026-04-09T10:27:48Z</time></trkpt><trkpt lat="37.905242535757914" lon="14.122943906097856"><ele>354.0</ele><time>2026-04-09T10:27:49Z</time></trkpt><trkpt lat="37.905184768807715" lon="14.123186663036238"><ele>355.0</ele><time>2026-04-09T10:27:50Z</time></trkpt><trkpt lat="37.905123048050754" lon="14.123408206073897"><ele>356.0</ele><time>2026-04-09T10:27:51Z</time></trkpt><trkpt lat="37.905088692216815" lon="14.123613885183964"><ele>357.0</ele><time>2026-04-09T10:27:52Z</time></trkpt><trkpt lat="37.90507901126975" lon="14.12386189732487"><ele>350.3333333333333</ele><time>2026-04-09T10:27:53Z</time></trkpt><trkpt lat="37.9050705516488" lon="14.124149001417752"><ele>343.66666666666663</ele><time>2026-04-09T10:27:54Z</time></trkpt><trkpt lat="37.90505649225286" lon="14.124410096272909"><ele>337.0</ele><time>2026-04-09T10:27:55Z</time></trkpt><trkpt lat="37.905048405616895" lon="14.124635021928372"><ele>337.0</ele><time>2026-04-09T10:27:56Z</time></trkpt><trkpt lat="37.90505778903252" lon="14.124851204234064"><ele>337.0</ele><time>2026-04-09T10:27:57Z</time></trkpt><trkpt lat="37.90510347482904" lon="14.125076508659417"><ele>337.0</ele><time>2026-04-09T10:27:58Z</time></trkpt><trkpt lat="37.90516918907415" lon="14.125281209315714"><ele>340.40000000000003</ele><time>2026-04-09T10:27:59Z</time></trkpt><trkpt lat="37.90522380378825" lon="14.125441737601573"><ele>343.8</ele><time>2026-04-09T10:28:00Z</time></trkpt><trkpt lat="37.905278785497224" lon="14.125549189246266"><ele>347.2</ele><time>2026-04-09T10:28:01Z</time></trkpt><trkpt lat="37.90535545112289" lon="14.125620409784336"><ele>350.6</ele><time>2026-04-09T10:28:02Z</time></trkpt><trkpt lat="37.90545715015265" lon="14.125654246872152"><ele>354.0</ele><time>2026-04-09T10:28:03Z</time></trkpt><trkpt lat="37.90559317365646" lon="14.125640975681168"><ele>354.0</ele><time>2026-04-09T10:28:04Z</time></trkpt><trkpt lat="37.90576152324747" lon="14.125620282395959"><ele>354.0</ele><time>2026-04-09T10:28:05Z</time></trkpt><trkpt lat="37.90589723723755" lon="14.125614184419677"><ele>354.0</ele><time>2026-04-09T10:28:06Z</time></trkpt><trkpt lat="37.90600624258353" lon="14.125601100893608"><ele>354.0</ele><time>2026-04-09T10:28:07Z</time></trkpt><trkpt lat="37.906095838536025" lon="14.125544129012086"><ele>353.25</ele><time>2026-04-09T10:28:08Z</time></trkpt><trkpt lat="37.90615686828279" lon="14.125420399454036"><ele>352.5</ele><time>2026-04-09T10:28:09Z</time></trkpt><trkpt lat="37.90618167231209" lon="14.12525220236689"><ele>351.75</ele><time>2026-04-09T10:28:10Z</time></trkpt><trkpt lat="37.90619353230283" lon="14.125038891984541"><ele>351.0</ele><time>2026-04-09T10:28:11Z</time></trkpt><trkpt lat="37.9062156128819" lon="14.124798054811938"><ele>351.0</ele><time>2026-04-09T10:28:12Z</time></trkpt><trkpt lat="37.906246169952155" lon="14.124571838894525"><ele>351.0</ele><time>2026-04-09T10:28:13Z</time></trkpt><trkpt lat="37.90626373375723" lon="14.124404745669672"><ele>351.0</ele><time>2026-04-09T10:28:14Z</time></trkpt><trkpt lat="37.90629181181916" lon="14.124279622077122"><ele>351.0</ele><time>2026-04-09T10:28:15Z</time></trkpt><trkpt lat="37.90634969649156" lon="14.124191458087243"><ele>351.0</ele><time>2026-04-09T10:28:16Z</time></trkpt><trkpt lat="37.90644551891333" lon="14.124148909608301"><ele>351.0</ele><time>2026-04-09T10:28:17Z</time></trkpt><trkpt lat="37.906578359960044" lon="14.124135298557981"><ele>351.0</ele><time>2026-04-09T10:28:18Z</time></trkpt><trkpt lat="37.90671754128138" lon="14.12413205158381"><ele>351.0</ele><time>2026-04-09T10:28:19Z</time></trkpt><trkpt lat="37.9068476136418" lon="14.124073577594414"><ele>351.6666666666667</ele><time>2026-04-09T10:28:20Z</time></trkpt><trkpt lat="37.90697244455893" lon="14.123944861858094"><ele>352.33333333333337</ele><time>2026-04-09T10:28:21Z</time></trkpt><trkpt lat="37.90707819683459" lon="14.123773484422431"><ele>353.0</ele><time>2026-04-09T10:28:22Z</time></trkpt><trkpt lat="37.90716123290261" lon="14.123575690322886"><ele>353.0</ele><time>2026-04-09T10:28:23Z</time></trkpt><trkpt lat="37.90721502332737" lon="14.12337488910008"><ele>353.0</ele><time>2026-04-09T10:28:24Z</time></trkpt><trkpt lat="37.907230270456466" lon="14.123188756561067"><ele>353.0</ele><time>2026-04-09T10:28:25Z</time></trkpt><trkpt lat="37.90721209742377" lon="14.123008550982078"><ele>351.75</ele><time>2026-04-09T10:28:26Z</time></trkpt><trkpt lat="37.907145496268704" lon="14.122838815590812"><ele>350.5</ele><time>2026-04-09T10:28:27Z</time></trkpt><trkpt lat="37.90708136283589" lon="14.122689117417364"><ele>349.25</ele><time>2026-04-09T10:28:28Z</time></trkpt><trkpt lat="37.907054533873946" lon="14.122547406306706"><ele>348.0</ele><time>2026-04-09T10:28:29Z</time></trkpt><trkpt lat="37.90707468907512" lon="14.122406167501769"><ele>349.5</ele><time>2026-04-09T10:28:30Z</time></trkpt><trkpt lat="37.907151564228094" lon="14.122265308651102"><ele>351.0</ele><time>2026-04-09T10:28:31Z</time></trkpt><trkpt lat="37.907247606514154" lon="14.122131749554821"><ele>352.5</ele><time>2026-04-09T10:28:32Z</time></trkpt><trkpt lat="37.90732081415764" lon="14.12200633940633"><ele>354.0</ele><time>2026-04-09T10:28:33Z</time></trkpt><trkpt lat="37.907333933060826" lon="14.121838285334164"><ele>354.0</ele><time>2026-04-09T10:28:34Z</time></trkpt><trkpt lat="37.90731353010981" lon="14.1216591340171"><ele>354.0</ele><time>2026-04-09T10:28:35Z</time></trkpt><trkpt lat="37.90729018746495" lon="14.12150273053808"><ele>354.0</ele><time>2026-04-09T10:28:36Z</time></trkpt><trkpt lat="37.90730780369445" lon="14.121358285266876"><ele>354.0</ele><time>2026-04-09T10:28:37Z</time></trkpt><trkpt lat="37.907398961147216" lon="14.121265701402725"><ele>352.6666666666667</ele><time>2026-04-09T10:28:38Z</time></trkpt><trkpt lat="37.90751376779417" lon="14.121169089213433"><ele>351.33333333333337</ele><time>2026-04-09T10:28:39Z</time></trkpt><trkpt lat="37.90765329663646" lon="14.121033176337107"><ele>350.0</ele><time>2026-04-09T10:28:40Z</time></trkpt><trkpt lat="37.90779843058722" lon="14.120917309493498"><ele>350.0</ele><time>2026-04-09T10:28:41Z</time></trkpt><trkpt lat="37.90791021255354" lon="14.120813633519797"><ele>350.0</ele><time>2026-04-09T10:28:42Z</time></trkpt><trkpt lat="37.907984132126536" lon="14.120703564336266"><ele>350.0</ele><time>2026-04-09T10:28:43Z</time></trkpt><trkpt lat="37.908019782734364" lon="14.12055963579744"><ele>350.0</ele><time>2026-04-09T10:28:44Z</time></trkpt><trkpt lat="37.90800346730916" lon="14.120391393004802"><ele>350.6666666666667</ele><time>2026-04-09T10:28:45Z</time></trkpt><trkpt lat="37.90794644573574" lon="14.120202042436146"><ele>351.3333333333333</ele><time>2026-04-09T10:28:46Z</time></trkpt><trkpt lat="37.90786794461052" lon="14.119976280025337"><ele>352.0</ele><time>2026-04-09T10:28:47Z</time></trkpt><trkpt lat="37.907797205513155" lon="14.119738336884295"><ele>353.25</ele><time>2026-04-09T10:28:48Z</time></trkpt><trkpt lat="37.90774733963653" lon="14.119522558036593"><ele>354.5</ele><time>2026-04-09T10:28:49Z</time></trkpt><trkpt lat="37.9077057606655" lon="14.119344602742688"><ele>355.75</ele><time>2026-04-09T10:28:50Z</time></trkpt><trkpt lat="37.90765071439653" lon="14.119203117929825"><ele>357.0</ele><time>2026-04-09T10:28:51Z</time></trkpt><trkpt lat="37.90755707683629" lon="14.119075060365775"><ele>361.5</ele><time>2026-04-09T10:28:52Z</time></trkpt><trkpt lat="37.907432134994" lon="14.118959922795352"><ele>366.0</ele><time>2026-04-09T10:28:53Z</time></trkpt><trkpt lat="37.907341328583925" lon="14.118875229725345"><ele>370.5</ele><time>2026-04-09T10:28:54Z</time></trkpt><trkpt lat="37.90728464816375" lon="14.118813599449057"><ele>375.0</ele><time>2026-04-09T10:28:55Z</time></trkpt><trkpt lat="37.907285045414596" lon="14.11865709106049"><ele>375.0</ele><time>2026-04-09T10:28:57Z</time></trkpt><trkpt lat="37.90735477828937" lon="14.11860641596519"><ele>375.0</ele><time>2026-04-09T10:28:58Z</time></trkpt><trkpt lat="37.907443795347945" lon="14.118605993913727"><ele>375.0</ele><time>2026-04-09T10:28:59Z</time></trkpt><trkpt lat="37.90754337734228" lon="14.118642866521366"><ele>375.0</ele><time>2026-04-09T10:29:00Z</time></trkpt><trkpt lat="37.907667161373524" lon="14.118643266670523"><ele>375.0</ele><time>2026-04-09T10:29:01Z</time></trkpt><trkpt lat="37.90776609148044" lon="14.118582489092002"><ele>374.0</ele><time>2026-04-09T10:29:02Z</time></trkpt><trkpt lat="37.90784835467855" lon="14.118548086408252"><ele>373.0</ele><time>2026-04-09T10:29:03Z</time></trkpt><trkpt lat="37.907931415730516" lon="14.118616490557088"><ele>372.0</ele><time>2026-04-09T10:29:04Z</time></trkpt><trkpt lat="37.90803698020801" lon="14.118706022427967"><ele>371.0</ele><time>2026-04-09T10:29:05Z</time></trkpt><trkpt lat="37.90813142094422" lon="14.118807735421207"><ele>370.0</ele><time>2026-04-09T10:29:06Z</time></trkpt><trkpt lat="37.90821566835201" lon="14.118850484098317"><ele>370.0</ele><time>2026-04-09T10:29:07Z</time></trkpt><trkpt lat="37.9083038748847" lon="14.118833322543082"><ele>370.0</ele><time>2026-04-09T10:29:08Z</time></trkpt><trkpt lat="37.90837678505779" lon="14.118749331468205"><ele>370.0</ele><time>2026-04-09T10:29:09Z</time></trkpt><trkpt lat="37.9084085374341" lon="14.118617194668948"><ele>370.0</ele><time>2026-04-09T10:29:10Z</time></trkpt><trkpt lat="37.90841192197181" lon="14.118457686233887"><ele>370.0</ele><time>2026-04-09T10:29:11Z</time></trkpt><trkpt lat="37.90843701459062" lon="14.118309624185382"><ele>373.6</ele><time>2026-04-09T10:29:12Z</time></trkpt><trkpt lat="37.908498091278496" lon="14.118180357411614"><ele>377.2</ele><time>2026-04-09T10:29:13Z</time></trkpt><trkpt lat="37.90857200850003" lon="14.118102484947228"><ele>380.79999999999995</ele><time>2026-04-09T10:29:14Z</time></trkpt><trkpt lat="37.90865142906991" lon="14.118082893204509"><ele>384.4</ele><time>2026-04-09T10:29:15Z</time></trkpt><trkpt lat="37.90874415670981" lon="14.118116333947283"><ele>388.0</ele><time>2026-04-09T10:29:16Z</time></trkpt><trkpt lat="37.908870500230194" lon="14.11817530879732"><ele>388.0</ele><time>2026-04-09T10:29:17Z</time></trkpt><trkpt lat="37.90900328680505" lon="14.118230573792218"><ele>388.0</ele><time>2026-04-09T10:29:18Z</time></trkpt><trkpt lat="37.90913874998453" lon="14.118244235604868"><ele>388.0</ele><time>2026-04-09T10:29:19Z</time></trkpt><trkpt lat="37.909273988931766" lon="14.118212720535686"><ele>388.0</ele><time>2026-04-09T10:29:20Z</time></trkpt><trkpt lat="37.90937615221519" lon="14.11813645063668"><ele>384.6666666666667</ele><time>2026-04-09T10:29:21Z</time></trkpt><trkpt lat="37.90947872523193" lon="14.118012507577102"><ele>381.33333333333337</ele><time>2026-04-09T10:29:22Z</time></trkpt><trkpt lat="37.90958589617024" lon="14.11783994131737"><ele>378.0</ele><time>2026-04-09T10:29:23Z</time></trkpt><trkpt lat="37.909689241862885" lon="14.117639511910667"><ele>378.0</ele><time>2026-04-09T10:29:24Z</time></trkpt><trkpt lat="37.90977360526728" lon="14.117476403762382"><ele>378.0</ele><time>2026-04-09T10:29:25Z</time></trkpt><trkpt lat="37.90984633705331" lon="14.117339950687771"><ele>378.0</ele><time>2026-04-09T10:29:26Z</time></trkpt><trkpt lat="37.90990566854006" lon="14.117234604549743"><ele>378.0</ele><time>2026-04-09T10:29:27Z</time></trkpt><trkpt lat="37.90996593627392" lon="14.117163087469066"><ele>379.2</ele><time>2026-04-09T10:29:28Z</time></trkpt><trkpt lat="37.910034811237345" lon="14.117154029460615"><ele>380.4</ele><time>2026-04-09T10:29:29Z</time></trkpt><trkpt lat="37.91010367758907" lon="14.117169813371673"><ele>381.59999999999997</ele><time>2026-04-09T10:29:30Z</time></trkpt><trkpt lat="37.910123036056376" lon="14.117307531093903"><ele>382.79999999999995</ele><time>2026-04-09T10:29:32Z</time></trkpt><trkpt lat="37.91013373808292" lon="14.117427584659973"><ele>384.0</ele><time>2026-04-09T10:29:33Z</time></trkpt><trkpt lat="37.910126824070026" lon="14.117589080403128"><ele>384.0</ele><time>2026-04-09T10:29:34Z</time></trkpt><trkpt lat="37.91012779784335" lon="14.117790686773874"><ele>384.0</ele><time>2026-04-09T10:29:35Z</time></trkpt><trkpt lat="37.91012623097071" lon="14.11799458561842"><ele>384.0</ele><time>2026-04-09T10:29:36Z</time></trkpt><trkpt lat="37.910127026614376" lon="14.118163765982588"><ele>382.0</ele><time>2026-04-09T10:29:37Z</time></trkpt><trkpt lat="37.910132196721975" lon="14.118317008529685"><ele>380.0</ele><time>2026-04-09T10:29:38Z</time></trkpt><trkpt lat="37.91015932320918" lon="14.11845561001929"><ele>378.0</ele><time>2026-04-09T10:29:39Z</time></trkpt><trkpt lat="37.9102115268054" lon="14.118577019549829"><ele>376.0</ele><time>2026-04-09T10:29:40Z</time></trkpt><trkpt lat="37.91029608214071" lon="14.118665759138171"><ele>376.0</ele><time>2026-04-09T10:29:41Z</time></trkpt><trkpt lat="37.91038998229035" lon="14.118704429839275"><ele>376.0</ele><time>2026-04-09T10:29:42Z</time></trkpt><trkpt lat="37.91050163236346" lon="14.118685779686448"><ele>376.0</ele><time>2026-04-09T10:29:43Z</time></trkpt><trkpt lat="37.910670404012244" lon="14.118615322872335"><ele>376.0</ele><time>2026-04-09T10:29:44Z</time></trkpt><trkpt lat="37.91080820668958" lon="14.118529316029829"><ele>376.0</ele><time>2026-04-09T10:29:45Z</time></trkpt><trkpt lat="37.91091676644522" lon="14.118428733988305"><ele>376.0</ele><time>2026-04-09T10:29:46Z</time></trkpt><trkpt lat="37.91100382590087" lon="14.118288715910905"><ele>376.0</ele><time>2026-04-09T10:29:47Z</time></trkpt><trkpt lat="37.91106605735006" lon="14.118106448919733"><ele>376.0</ele><time>2026-04-09T10:29:48Z</time></trkpt><trkpt lat="37.91113019896393" lon="14.117887769095667"><ele>374.66666666666663</ele><time>2026-04-09T10:29:49Z</time></trkpt><trkpt lat="37.91120741934998" lon="14.117674966105"><ele>373.3333333333333</ele><time>2026-04-09T10:29:50Z</time></trkpt><trkpt lat="37.911265205085776" lon="14.11749666767563"><ele>372.0</ele><time>2026-04-09T10:29:51Z</time></trkpt><trkpt lat="37.91129704981768" lon="14.117300452851854"><ele>371.6666666666667</ele><time>2026-04-09T10:29:52Z</time></trkpt><trkpt lat="37.91128897016252" lon="14.117077695774473"><ele>371.33333333333337</ele><time>2026-04-09T10:29:53Z</time></trkpt><trkpt lat="37.911256216716694" lon="14.116861829445067"><ele>371.0</ele><time>2026-04-09T10:29:54Z</time></trkpt><trkpt lat="37.91124572274733" lon="14.116676186985432"><ele>373.25</ele><time>2026-04-09T10:29:55Z</time></trkpt><trkpt lat="37.911265215620574" lon="14.11651708862627"><ele>375.5</ele><time>2026-04-09T10:29:56Z</time></trkpt><trkpt lat="37.911317227178344" lon="14.116349565800077"><ele>377.75</ele><time>2026-04-09T10:29:57Z</time></trkpt><trkpt lat="37.91140877164128" lon="14.116158526501186"><ele>380.0</ele><time>2026-04-09T10:29:58Z</time></trkpt><trkpt lat="37.91151065465252" lon="14.115939739432351"><ele>381.6666666666667</ele><time>2026-04-09T10:29:59Z</time></trkpt><trkpt lat="37.911594629199875" lon="14.115734502464193"><ele>383.33333333333337</ele><time>2026-04-09T10:30:00Z</time></trkpt><trkpt lat="37.911647988201516" lon="14.115537811277393"><ele>385.0</ele><time>2026-04-09T10:30:01Z</time></trkpt><trkpt lat="37.91167920672494" lon="14.11535233765923"><ele>385.0</ele><time>2026-04-09T10:30:02Z</time></trkpt><trkpt lat="37.911680552394564" lon="14.115195337451388"><ele>385.0</ele><time>2026-04-09T10:30:03Z</time></trkpt><trkpt lat="37.91165970880005" lon="14.115054865043978"><ele>385.0</ele><time>2026-04-09T10:30:04Z</time></trkpt><trkpt lat="37.911621366524244" lon="14.114904700036137"><ele>385.0</ele><time>2026-04-09T10:30:05Z</time></trkpt><trkpt lat="37.91152106543039" lon="14.114744856216348"><ele>389.0</ele><time>2026-04-09T10:30:06Z</time></trkpt><trkpt lat="37.9013613345582" lon="14.13049843378038"><ele>389.0</ele><time>2026-04-09T10:26:05Z</time></trkpt><trkpt lat="37.90129831337431" lon="14.130544874962936"><ele>389.0</ele><time>2026-04-09T10:26:06Z</time></trkpt><trkpt lat="37.90121659660124" lon="14.130508066490501"><ele>389.0</ele><time>2026-04-09T10:26:07Z</time></trkpt><trkpt lat="37.90114458476412" lon="14.130489128375672"><ele>389.0</ele><time>2026-04-09T10:26:08Z</time></trkpt><trkpt lat="37.90109644899043" lon="14.13038428881541"><ele>389.0</ele><time>2026-04-09T10:26:09Z</time></trkpt><trkpt lat="37.9011026729289" lon="14.130227337014599"><ele>389.0</ele><time>2026-04-09T10:26:10Z</time></trkpt><trkpt lat="37.90110437304186" lon="14.130037319178953"><ele>389.0</ele><time>2026-04-09T10:26:11Z</time></trkpt><trkpt lat="37.901097714531915" lon="14.129790386581197"><ele>389.0</ele><time>2026-04-09T10:26:12Z</time></trkpt><trkpt lat="37.90111717766024" lon="14.129522688018167"><ele>384.0</ele><time>2026-04-09T10:26:13Z</time></trkpt><trkpt lat="37.901151917495866" lon="14.129274918575883"><ele>379.0</ele><time>2026-04-09T10:26:14Z</time></trkpt><trkpt lat="37.901193840271006" lon="14.129058193998283"><ele>374.0</ele><time>2026-04-09T10:26:15Z</time></trkpt><trkpt lat="37.901222049525536" lon="14.128861049889506"><ele>370.75</ele><time>2026-04-09T10:26:16Z</time></trkpt><trkpt lat="37.90122660741327" lon="14.128666197020685"><ele>367.5</ele><time>2026-04-09T10:26:17Z</time></trkpt><trkpt lat="37.9012202565866" lon="14.128485612371026"><ele>364.25</ele><time>2026-04-09T10:26:18Z</time></trkpt><trkpt lat="37.901202338728815" lon="14.12832705386485"><ele>361.0</ele><time>2026-04-09T10:26:19Z</time></trkpt><trkpt lat="37.9011625921931" lon="14.128199215078258"><ele>361.5</ele><time>2026-04-09T10:26:20Z</time></trkpt><trkpt lat="37.90109901821319" lon="14.12809891918959"><ele>362.0</ele><time>2026-04-09T10:26:21Z</time></trkpt><trkpt lat="37.90098589830807" lon="14.12802512764468"><ele>362.5</ele><time>2026-04-09T10:26:22Z</time></trkpt><trkpt lat="37.900836469956076" lon="14.127950333305693"><ele>363.0</ele><time>2026-04-09T10:26:23Z</time></trkpt><trkpt lat="37.90069621752756" lon="14.127798783379937"><ele>363.0</ele><time>2026-04-09T10:26:24Z</time></trkpt><trkpt lat="37.900560797064266" lon="14.127628009427605"><ele>363.0</ele><time>2026-04-09T10:26:25Z</time></trkpt><trkpt lat="37.90045024066349" lon="14.127503271558979"><ele>363.0</ele><time>2026-04-09T10:26:26Z</time></trkpt><trkpt lat="37.900371352068234" lon="14.127396323486968"><ele>358.75</ele><time>2026-04-09T10:26:27Z</time></trkpt><trkpt lat="37.90028801755088" lon="14.12730949534287"><ele>354.5</ele><time>2026-04-09T10:26:28Z</time></trkpt><trkpt lat="37.900185416933525" lon="14.127235074546206"><ele>350.25</ele><time>2026-04-09T10:26:29Z</time></trkpt><trkpt lat="37.90004547623087" lon="14.127246643629116"><ele>346.0</ele><time>2026-04-09T10:26:30Z</time></trkpt><trkpt lat="37.89990551005797" lon="14.127299325762184"><ele>346.0</ele><time>2026-04-09T10:26:31Z</time></trkpt><trkpt lat="37.89978499697639" lon="14.127318399768606"><ele>346.0</ele><time>2026-04-09T10:26:32Z</time></trkpt><trkpt lat="37.899666300216715" lon="14.127310119581143"><ele>346.0</ele><time>2026-04-09T10:26:33Z</time></trkpt><trkpt lat="37.89953580733076" lon="14.127262039259573"><ele>346.0</ele><time>2026-04-09T10:26:34Z</time></trkpt><trkpt lat="37.899398454213376" lon="14.127166074330475"><ele>346.0</ele><time>2026-04-09T10:26:35Z</time></trkpt><trkpt lat="37.899257268596884" lon="14.127063865885393"><ele>346.0</ele><time>2026-04-09T10:26:36Z</time></trkpt><trkpt lat="37.89913581936435" lon="14.126951432074515"><ele>346.0</ele><time>2026-04-09T10:26:37Z</time></trkpt><trkpt lat="37.89903833209289" lon="14.126827271711287"><ele>349.75</ele><time>2026-04-09T10:26:38Z</time></trkpt><trkpt lat="37.89896055831728" lon="14.126675396763376"><ele>353.5</ele><time>2026-04-09T10:26:39Z</time></trkpt><trkpt lat="37.89890268307004" lon="14.126506763145342"><ele>357.25</ele><time>2026-04-09T10:26:40Z</time></trkpt><trkpt lat="37.89885641101127" lon="14.12634237213524"><ele>361.0</ele><time>2026-04-09T10:26:41Z</time></trkpt><trkpt lat="37.89881889497746" lon="14.126197990458996"><ele>361.0</ele><time>2026-04-09T10:26:42Z</time></trkpt><trkpt lat="37.89881319111938" lon="14.126065701544555"><ele>361.0</ele><time>2026-04-09T10:26:43Z</time></trkpt><trkpt lat="37.89884686984758" lon="14.125933731330989"><ele>361.0</ele><time>2026-04-09T10:26:44Z</time></trkpt><trkpt lat="37.8988852892953" lon="14.125781255725341"><ele>361.0</ele><time>2026-04-09T10:26:45Z</time></trkpt><trkpt lat="37.89891906684999" lon="14.125668452317585"><ele>361.0</ele><time>2026-04-09T10:26:46Z</time></trkpt><trkpt lat="37.89897492559752" lon="14.125619040592284"><ele>360.0</ele><time>2026-04-09T10:26:47Z</time></trkpt><trkpt lat="37.899035599620255" lon="14.125587058625763"><ele>359.0</ele><time>2026-04-09T10:26:48Z</time></trkpt><trkpt lat="37.8991249726332" lon="14.125651670032676"><ele>358.0</ele><time>2026-04-09T10:26:49Z</time></trkpt><trkpt lat="37.89923535603843" lon="14.125699161651225"><ele>357.0</ele><time>2026-04-09T10:26:50Z</time></trkpt><trkpt lat="37.899376612733306" lon="14.125740218904939"><ele>356.0</ele><time>2026-04-09T10:26:51Z</time></trkpt><trkpt lat="37.8995021953505" lon="14.125800406099891"><ele>356.0</ele><time>2026-04-09T10:26:52Z</time></trkpt><trkpt lat="37.89961980071471" lon="14.125829050490623"><ele>356.0</ele><time>2026-04-09T10:26:53Z</time></trkpt><trkpt lat="37.899749692851465" lon="14.125794237787174"><ele>356.0</ele><time>2026-04-09T10:26:54Z</time></trkpt><trkpt lat="37.899914041545486" lon="14.125707265460397"><ele>356.0</ele><time>2026-04-09T10:26:55Z</time></trkpt><trkpt lat="37.900087627769615" lon="14.125610576471814"><ele>364.33333333333337</ele><time>2026-04-09T10:26:56Z</time></trkpt><trkpt lat="37.9002534698133" lon="14.125570796108224"><ele>372.6666666666667</ele><time>2026-04-09T10:26:57Z</time></trkpt><trkpt lat="37.900404155332375" lon="14.125548092358699"><ele>381.0</ele><time>2026-04-09T10:26:58Z</time></trkpt><trkpt lat="37.90055857932448" lon="14.125613806948317"><ele>381.0</ele><time>2026-04-09T10:26:59Z</time></trkpt><trkpt lat="37.90074624505494" lon="14.12567626334132"><ele>381.0</ele><time>2026-04-09T10:27:00Z</time></trkpt><trkpt lat="37.900941201353966" lon="14.125729323364839"><ele>381.0</ele><time>2026-04-09T10:27:01Z</time></trkpt><trkpt lat="37.90111394574686" lon="14.125770128049542"><ele>373.6666666666667</ele><time>2026-04-09T10:27:02Z</time></trkpt><trkpt lat="37.90131214457583" lon="14.125769801481988"><ele>366.33333333333337</ele><time>2026-04-09T10:27:03Z</time></trkpt><trkpt lat="37.90154455243183" lon="14.125739420889701"><ele>359.0</ele><time>2026-04-09T10:27:04Z</time></trkpt><trkpt lat="37.901799880793575" lon="14.125669640926679"><ele>359.0</ele><time>2026-04-09T10:27:05Z</time></trkpt><trkpt lat="37.9020101324013" lon="14.125620405917983"><ele>359.0</ele><time>2026-04-09T10:27:06Z</time></trkpt><trkpt lat="37.90218349320114" lon="14.125582721987522"><ele>359.0</ele><time>2026-04-09T10:27:07Z</time></trkpt><trkpt lat="37.9023254045262" lon="14.125556604216733"><ele>359.0</ele><time>2026-04-09T10:27:08Z</time></trkpt><trkpt lat="37.90243918881389" lon="14.125531237376665"><ele>359.0</ele><time>2026-04-09T10:27:09Z</time></trkpt><trkpt lat="37.902530202838804" lon="14.125474297958682"><ele>359.0</ele><time>2026-04-09T10:27:10Z</time></trkpt><trkpt lat="37.90260226744704" lon="14.125351301004923"><ele>359.0</ele><time>2026-04-09T10:27:11Z</time></trkpt><trkpt lat="37.902663180394256" lon="14.125177101764901"><ele>355.75</ele><time>2026-04-09T10:27:12Z</time></trkpt><trkpt lat="37.90272770631732" lon="14.125025950244419"><ele>352.5</ele><time>2026-04-09T10:27:13Z</time></trkpt><trkpt lat="37.90282494976157" lon="14.124900183471656"><ele>349.25</ele><time>2026-04-09T10:27:14Z</time></trkpt><trkpt lat="37.902949220293095" lon="14.124785695885274"><ele>346.0</ele><time>2026-04-09T10:27:15Z</time></trkpt><trkpt lat="37.90309568633222" lon="14.124697522642254"><ele>346.0</ele><time>2026-04-09T10:27:16Z</time></trkpt><trkpt lat="37.90323556810891" lon="14.124628962097255"><ele>346.0</ele><time>2026-04-09T10:27:17Z</time></trkpt><trkpt lat="37.90334843445418" lon="14.124539724704439"><ele>346.0</ele><time>2026-04-09T10:27:18Z</time></trkpt><trkpt lat="37.903436619405355" lon="14.124399355655298"><ele>346.0</ele><time>2026-04-09T10:27:19Z</time></trkpt><trkpt lat="37.903508019095895" lon="14.124205301517163"><ele>340.3333333333333</ele><time>2026-04-09T10:27:20Z</time></trkpt><trkpt lat="37.903570834916735" lon="14.123961288775483"><ele>334.6666666666667</ele><time>2026-04-09T10:27:21Z</time></trkpt><trkpt lat="37.903651297010484" lon="14.123721740463184"><ele>329.0</ele><time>2026-04-09T10:27:22Z</time></trkpt><trkpt lat="37.90377053290408" lon="14.123474676547277"><ele>336.5</ele><time>2026-04-09T10:27:23Z</time></trkpt><trkpt lat="37.903925474296564" lon="14.123214367729254"><ele>344.0</ele><time>2026-04-09T10:27:24Z</time></trkpt><trkpt lat="37.90407968862873" lon="14.122922464500528"><ele>344.0</ele><time>2026-04-09T10:27:25Z</time></trkpt><trkpt lat="37.904207078399644" lon="14.122617855168542"><ele>344.0</ele><time>2026-04-09T10:27:26Z</time></trkpt><trkpt lat="37.90430196573985" lon="14.122345199386878"><ele>340.33333333333337</ele><time>2026-04-09T10:27:27Z</time></trkpt><trkpt lat="37.90439432416047" lon="14.122098969960764"><ele>336.6666666666667</ele><time>2026-04-09T10:27:28Z</time></trkpt><trkpt lat="37.90453890466523" lon="14.12186558518768"><ele>333.0</ele><time>2026-04-09T10:27:29Z</time></trkpt><trkpt lat="37.90465048107483" lon="14.121641236315602"><ele>334.25</ele><time>2026-04-09T10:27:30Z</time></trkpt><trkpt lat="37.90475034796797" lon="14.121446582236729"><ele>335.5</ele><time>2026-04-09T10:27:31Z</time></trkpt><trkpt lat="37.904821875415905" lon="14.121282933768217"><ele>336.75</ele><time>2026-04-09T10:27:32Z</time></trkpt><trkpt lat="37.904873218758866" lon="14.121159380706004"><ele>338.0</ele><time>2026-04-09T10:27:33Z</time></trkpt><trkpt lat="37.904910259020255" lon="14.121081300088852"><ele>338.0</ele><time>2026-04-09T10:27:34Z</time></trkpt><trkpt lat="37.904969664187206" lon="14.121025097444678"><ele>338.0</ele><time>2026-04-09T10:27:35Z</time></trkpt><trkpt lat="37.90504877393469" lon="14.12100642899014"><ele>338.0</ele><time>2026-04-09T10:27:36Z</time></trkpt><trkpt lat="37.90512600433287" lon="14.121050873075102"><ele>338.0</ele><time>2026-04-09T10:27:37Z</time></trkpt><trkpt lat="37.90519476889835" lon="14.121169451508084"><ele>338.0</ele><time>2026-04-09T10:27:38Z</time></trkpt><trkpt lat="37.90526924176113" lon="14.121287800997802"><ele>341.5</ele><time>2026-04-09T10:27:39Z</time></trkpt><trkpt lat="37.905314809597414" lon="14.1214117876439"><ele>345.0</ele><time>2026-04-09T10:27:40Z</time></trkpt><trkpt lat="37.90531771056787" lon="14.121541747292007"><ele>348.5</ele><time>2026-04-09T10:27:41Z</time></trkpt><trkpt lat="37.90528567991854" lon="14.121683122347074"><ele>352.0</ele><time>2026-04-09T10:27:42Z</time></trkpt><trkpt lat="37.90526874142945" lon="14.121861986834796"><ele>352.0</ele><time>2026-04-09T10:27:43Z</time></trkpt><trkpt lat="37.905266378509175" lon="14.122022610754483"><ele>352.0</ele><time>2026-04-09T10:27:44Z</time></trkpt><trkpt lat="37.905324127714955" lon="14.122190499276154"><ele>352.0</ele><time>2026-04-09T10:27:45Z</time></trkpt><trkpt lat="37.90535106391371" lon="14.122374492526195"><ele>352.0</ele><time>2026-04-09T10:27:46Z</time></trkpt><trkpt lat="37.90534618182461" lon="14.122543845620234"><ele>352.66666666666663</ele><time>2026-04-09T10:27:47Z</time></trkpt><trkpt lat="37.90531194540241" lon="14.12272482373417"><ele>353.3333333333333</ele><time>2026-04-09T10:27:48Z</time></trkpt><trkpt lat="37.905242535757914" lon="14.122943906097856"><ele>354.0</ele><time>2026-04-09T10:27:49Z</time></trkpt><trkpt lat="37.905184768807715" lon="14.123186663036238"><ele>355.0</ele><time>2026-04-09T10:27:50Z</time></trkpt><trkpt lat="37.905123048050754" lon="14.123408206073897"><ele>356.0</ele><time>2026-04-09T10:27:51Z</time></trkpt><trkpt lat="37.905088692216815" lon="14.123613885183964"><ele>357.0</ele><time>2026-04-09T10:27:52Z</time></trkpt><trkpt lat="37.90507901126975" lon="14.12386189732487"><ele>350.3333333333333</ele><time>2026-04-09T10:27:53Z</time></trkpt><trkpt lat="37.9050705516488" lon="14.124149001417752"><ele>343.66666666666663</ele><time>2026-04-09T10:27:54Z</time></trkpt><trkpt lat="37.90505649225286" lon="14.124410096272909"><ele>337.0</ele><time>2026-04-09T10:27:55Z</time></trkpt><trkpt lat="37.905048405616895" lon="14.124635021928372"><ele>337.0</ele><time>2026-04-09T10:27:56Z</time></trkpt><trkpt lat="37.90505778903252" lon="14.124851204234064"><ele>337.0</ele><time>2026-04-09T10:27:57Z</time></trkpt><trkpt lat="37.90510347482904" lon="14.125076508659417"><ele>337.0</ele><time>2026-04-09T10:27:58Z</time></trkpt><trkpt lat="37.90516918907415" lon="14.125281209315714"><ele>340.40000000000003</ele><time>2026-04-09T10:27:59Z</time></trkpt><trkpt lat="37.90522380378825" lon="14.125441737601573"><ele>343.8</ele><time>2026-04-09T10:28:00Z</time></trkpt><trkpt lat="37.905278785497224" lon="14.125549189246266"><ele>347.2</ele><time>2026-04-09T10:28:01Z</time></trkpt><trkpt lat="37.90535545112289" lon="14.125620409784336"><ele>350.6</ele><time>2026-04-09T10:28:02Z</time></trkpt><trkpt lat="37.90545715015265" lon="14.125654246872152"><ele>354.0</ele><time>2026-04-09T10:28:03Z</time></trkpt><trkpt lat="37.90559317365646" lon="14.125640975681168"><ele>354.0</ele><time>2026-04-09T10:28:04Z</time></trkpt><trkpt lat="37.90576152324747" lon="14.125620282395959"><ele>354.0</ele><time>2026-04-09T10:28:05Z</time></trkpt><trkpt lat="37.90589723723755" lon="14.125614184419677"><ele>354.0</ele><time>2026-04-09T10:28:06Z</time></trkpt><trkpt lat="37.90600624258353" lon="14.125601100893608"><ele>354.0</ele><time>2026-04-09T10:28:07Z</time></trkpt><trkpt lat="37.906095838536025" lon="14.125544129012086"><ele>353.25</ele><time>2026-04-09T10:28:08Z</time></trkpt><trkpt lat="37.90615686828279" lon="14.125420399454036"><ele>352.5</ele><time>2026-04-09T10:28:09Z</time></trkpt><trkpt lat="37.90618167231209" lon="14.12525220236689"><ele>351.75</ele><time>2026-04-09T10:28:10Z</time></trkpt><trkpt lat="37.90619353230283" lon="14.125038891984541"><ele>351.0</ele><time>2026-04-09T10:28:11Z</time></trkpt><trkpt lat="37.9062156128819" lon="14.124798054811938"><ele>351.0</ele><time>2026-04-09T10:28:12Z</time></trkpt><trkpt lat="37.906246169952155" lon="14.124571838894525"><ele>351.0</ele><time>2026-04-09T10:28:13Z</time></trkpt><trkpt lat="37.90626373375723" lon="14.124404745669672"><ele>351.0</ele><time>2026-04-09T10:28:14Z</time></trkpt><trkpt lat="37.90629181181916" lon="14.124279622077122"><ele>351.0</ele><time>2026-04-09T10:28:15Z</time></trkpt><trkpt lat="37.90634969649156" lon="14.124191458087243"><ele>351.0</ele><time>2026-04-09T10:28:16Z</time></trkpt><trkpt lat="37.90644551891333" lon="14.124148909608301"><ele>351.0</ele><time>2026-04-09T10:28:17Z</time></trkpt><trkpt lat="37.906578359960044" lon="14.124135298557981"><ele>351.0</ele><time>2026-04-09T10:28:18Z</time></trkpt><trkpt lat="37.90671754128138" lon="14.12413205158381"><ele>351.0</ele><time>2026-04-09T10:28:19Z</time></trkpt><trkpt lat="37.9068476136418" lon="14.124073577594414"><ele>351.6666666666667</ele><time>2026-04-09T10:28:20Z</time></trkpt><trkpt lat="37.90697244455893" lon="14.123944861858094"><ele>352.33333333333337</ele><time>2026-04-09T10:28:21Z</time></trkpt><trkpt lat="37.90707819683459" lon="14.123773484422431"><ele>353.0</ele><time>2026-04-09T10:28:22Z</time></trkpt><trkpt lat="37.90716123290261" lon="14.123575690322886"><ele>353.0</ele><time>2026-04-09T10:28:23Z</time></trkpt><trkpt lat="37.90721502332737" lon="14.12337488910008"><ele>353.0</ele><time>2026-04-09T10:28:24Z</time></trkpt><trkpt lat="37.907230270456466" lon="14.123188756561067"><ele>353.0</ele><time>2026-04-09T10:28:25Z</time></trkpt><trkpt lat="37.90721209742377" lon="14.123008550982078"><ele>351.75</ele><time>2026-04-09T10:28:26Z</time></trkpt><trkpt lat="37.907145496268704" lon="14.122838815590812"><ele>350.5</ele><time>2026-04-09T10:28:27Z</time></trkpt><trkpt lat="37.90708136283589" lon="14.122689117417364"><ele>349.25</ele><time>2026-04-09T10:28:28Z</time></trkpt><trkpt lat="37.907054533873946" lon="14.122547406306706"><ele>348.0</ele><time>2026-04-09T10:28:29Z</time></trkpt><trkpt lat="37.90707468907512" lon="14.122406167501769"><ele>349.5</ele><time>2026-04-09T10:28:30Z</time></trkpt><trkpt lat="37.907151564228094" lon="14.122265308651102"><ele>351.0</ele><time>2026-04-09T10:28:31Z</time></trkpt><trkpt lat="37.907247606514154" lon="14.122131749554821"><ele>352.5</ele><time>2026-04-09T10:28:32Z</time></trkpt><trkpt lat="37.90732081415764" lon="14.12200633940633"><ele>354.0</ele><time>2026-04-09T10:28:33Z</time></trkpt><trkpt lat="37.907333933060826" lon="14.121838285334164"><ele>354.0</ele><time>2026-04-09T10:28:34Z</time></trkpt><trkpt lat="37.90731353010981" lon="14.1216591340171"><ele>354.0</ele><time>2026-04-09T10:28:35Z</time></trkpt><trkpt lat="37.90729018746495" lon="14.12150273053808"><ele>354.0</ele><time>2026-04-09T10:28:36Z</time></trkpt><trkpt lat="37.90730780369445" lon="14.121358285266876"><ele>354.0</ele><time>2026-04-09T10:28:37Z</time></trkpt><trkpt lat="37.907398961147216" lon="14.121265701402725"><ele>352.6666666666667</ele><time>2026-04-09T10:28:38Z</time></trkpt><trkpt lat="37.90751376779417" lon="14.121169089213433"><ele>351.33333333333337</ele><time>2026-04-09T10:28:39Z</time></trkpt><trkpt lat="37.90765329663646" lon="14.121033176337107"><ele>350.0</ele><time>2026-04-09T10:28:40Z</time></trkpt><trkpt lat="37.90779843058722" lon="14.120917309493498"><ele>350.0</ele><time>2026-04-09T10:28:41Z</time></trkpt><trkpt lat="37.90791021255354" lon="14.120813633519797"><ele>350.0</ele><time>2026-04-09T10:28:42Z</time></trkpt><trkpt lat="37.907984132126536" lon="14.120703564336266"><ele>350.0</ele><time>2026-04-09T10:28:43Z</time></trkpt><trkpt lat="37.908019782734364" lon="14.12055963579744"><ele>350.0</ele><time>2026-04-09T10:28:44Z</time></trkpt><trkpt lat="37.90800346730916" lon="14.120391393004802"><ele>350.6666666666667</ele><time>2026-04-09T10:28:45Z</time></trkpt><trkpt lat="37.90794644573574" lon="14.120202042436146"><ele>351.3333333333333</ele><time>2026-04-09T10:28:46Z</time></trkpt><trkpt lat="37.90786794461052" lon="14.119976280025337"><ele>352.0</ele><time>2026-04-09T10:28:47Z</time></trkpt><trkpt lat="37.907797205513155" lon="14.119738336884295"><ele>353.25</ele><time>2026-04-09T10:28:48Z</time></trkpt><trkpt lat="37.90774733963653" lon="14.119522558036593"><ele>354.5</ele><time>2026-04-09T10:28:49Z</time></trkpt><trkpt lat="37.9077057606655" lon="14.119344602742688"><ele>355.75</ele><time>2026-04-09T10:28:50Z</time></trkpt><trkpt lat="37.90765071439653" lon="14.119203117929825"><ele>357.0</ele><time>2026-04-09T10:28:51Z</time></trkpt><trkpt lat="37.90755707683629" lon="14.119075060365775"><ele>361.5</ele><time>2026-04-09T10:28:52Z</time></trkpt><trkpt lat="37.907432134994" lon="14.118959922795352"><ele>366.0</ele><time>2026-04-09T10:28:53Z</time></trkpt><trkpt lat="37.907341328583925" lon="14.118875229725345"><ele>370.5</ele><time>2026-04-09T10:28:54Z</time></trkpt><trkpt lat="37.90728464816375" lon="14.118813599449057"><ele>375.0</ele><time>2026-04-09T10:28:55Z</time></trkpt><trkpt lat="37.907285045414596" lon="14.11865709106049"><ele>375.0</ele><time>2026-04-09T10:28:57Z</time></trkpt><trkpt lat="37.90735477828937" lon="14.11860641596519"><ele>375.0</ele><time>2026-04-09T10:28:58Z</time></trkpt><trkpt lat="37.907443795347945" lon="14.118605993913727"><ele>375.0</ele><time>2026-04-09T10:28:59Z</time></trkpt><trkpt lat="37.90754337734228" lon="14.118642866521366"><ele>375.0</ele><time>2026-04-09T10:29:00Z</time></trkpt><trkpt lat="37.907667161373524" lon="14.118643266670523"><ele>375.0</ele><time>2026-04-09T10:29:01Z</time></trkpt><trkpt lat="37.90776609148044" lon="14.118582489092002"><ele>374.0</ele><time>2026-04-09T10:29:02Z</time></trkpt><trkpt lat="37.90784835467855" lon="14.118548086408252"><ele>373.0</ele><time>2026-04-09T10:29:03Z</time></trkpt><trkpt lat="37.907931415730516" lon="14.118616490557088"><ele>372.0</ele><time>2026-04-09T10:29:04Z</time></trkpt><trkpt lat="37.90803698020801" lon="14.118706022427967"><ele>371.0</ele><time>2026-04-09T10:29:05Z</time></trkpt><trkpt lat="37.90813142094422" lon="14.118807735421207"><ele>370.0</ele><time>2026-04-09T10:29:06Z</time></trkpt><trkpt lat="37.90821566835201" lon="14.118850484098317"><ele>370.0</ele><time>2026-04-09T10:29:07Z</time></trkpt><trkpt lat="37.9083038748847" lon="14.118833322543082"><ele>370.0</ele><time>2026-04-09T10:29:08Z</time></trkpt><trkpt lat="37.90837678505779" lon="14.118749331468205"><ele>370.0</ele><time>2026-04-09T10:29:09Z</time></trkpt><trkpt lat="37.9084085374341" lon="14.118617194668948"><ele>370.0</ele><time>2026-04-09T10:29:10Z</time></trkpt><trkpt lat="37.90841192197181" lon="14.118457686233887"><ele>370.0</ele><time>2026-04-09T10:29:11Z</time></trkpt><trkpt lat="37.90843701459062" lon="14.118309624185382"><ele>373.6</ele><time>2026-04-09T10:29:12Z</time></trkpt><trkpt lat="37.908498091278496" lon="14.118180357411614"><ele>377.2</ele><time>2026-04-09T10:29:13Z</time></trkpt><trkpt lat="37.90857200850003" lon="14.118102484947228"><ele>380.79999999999995</ele><time>2026-04-09T10:29:14Z</time></trkpt><trkpt lat="37.90865142906991" lon="14.118082893204509"><ele>384.4</ele><time>2026-04-09T10:29:15Z</time></trkpt><trkpt lat="37.90874415670981" lon="14.118116333947283"><ele>388.0</ele><time>2026-04-09T10:29:16Z</time></trkpt><trkpt lat="37.908870500230194" lon="14.11817530879732"><ele>388.0</ele><time>2026-04-09T10:29:17Z</time></trkpt><trkpt lat="37.90900328680505" lon="14.118230573792218"><ele>388.0</ele><time>2026-04-09T10:29:18Z</time></trkpt><trkpt lat="37.90913874998453" lon="14.118244235604868"><ele>388.0</ele><time>2026-04-09T10:29:19Z</time></trkpt><trkpt lat="37.909273988931766" lon="14.118212720535686"><ele>388.0</ele><time>2026-04-09T10:29:20Z</time></trkpt><trkpt lat="37.90937615221519" lon="14.11813645063668"><ele>384.6666666666667</ele><time>2026-04-09T10:29:21Z</time></trkpt><trkpt lat="37.90947872523193" lon="14.118012507577102"><ele>381.33333333333337</ele><time>2026-04-09T10:29:22Z</time></trkpt><trkpt lat="37.90958589617024" lon="14.11783994131737"><ele>378.0</ele><time>2026-04-09T10:29:23Z</time></trkpt><trkpt lat="37.909689241862885" lon="14.117639511910667"><ele>378.0</ele><time>2026-04-09T10:29:24Z</time></trkpt><trkpt lat="37.90977360526728" lon="14.117476403762382"><ele>378.0</ele><time>2026-04-09T10:29:25Z</time></trkpt><trkpt lat="37.90984633705331" lon="14.117339950687771"><ele>378.0</ele><time>2026-04-09T10:29:26Z</time></trkpt><trkpt lat="37.90990566854006" lon="14.117234604549743"><ele>378.0</ele><time>2026-04-09T10:29:27Z</time></trkpt><trkpt lat="37.90996593627392" lon="14.117163087469066"><ele>379.2</ele><time>2026-04-09T10:29:28Z</time></trkpt><trkpt lat="37.910034811237345" lon="14.117154029460615"><ele>380.4</ele><time>2026-04-09T10:29:29Z</time></trkpt><trkpt lat="37.91010367758907" lon="14.117169813371673"><ele>381.59999999999997</ele><time>2026-04-09T10:29:30Z</time></trkpt><trkpt lat="37.910123036056376" lon="14.117307531093903"><ele>382.79999999999995</ele><time>2026-04-09T10:29:32Z</time></trkpt><trkpt lat="37.91013373808292" lon="14.117427584659973"><ele>384.0</ele><time>2026-04-09T10:29:33Z</time></trkpt><trkpt lat="37.910126824070026" lon="14.117589080403128"><ele>384.0</ele><time>2026-04-09T10:29:34Z</time></trkpt><trkpt lat="37.91012779784335" lon="14.117790686773874"><ele>384.0</ele><time>2026-04-09T10:29:35Z</time></trkpt><trkpt lat="37.91012623097071" lon="14.11799458561842"><ele>384.0</ele><time>2026-04-09T10:29:36Z</time></trkpt><trkpt lat="37.910127026614376" lon="14.118163765982588"><ele>382.0</ele><time>2026-04-09T10:29:37Z</time></trkpt><trkpt lat="37.910132196721975" lon="14.118317008529685"><ele>380.0</ele><time>2026-04-09T10:29:38Z</time></trkpt><trkpt lat="37.91015932320918" lon="14.11845561001929"><ele>378.0</ele><time>2026-04-09T10:29:39Z</time></trkpt><trkpt lat="37.9102115268054" lon="14.118577019549829"><ele>376.0</ele><time>2026-04-09T10:29:40Z</time></trkpt><trkpt lat="37.91029608214071" lon="14.118665759138171"><ele>376.0</ele><time>2026-04-09T10:29:41Z</time></trkpt><trkpt lat="37.91038998229035" lon="14.118704429839275"><ele>376.0</ele><time>2026-04-09T10:29:42Z</time></trkpt><trkpt lat="37.91050163236346" lon="14.118685779686448"><ele>376.0</ele><time>2026-04-09T10:29:43Z</time></trkpt><trkpt lat="37.910670404012244" lon="14.118615322872335"><ele>376.0</ele><time>2026-04-09T10:29:44Z</time></trkpt><trkpt lat="37.91080820668958" lon="14.118529316029829"><ele>376.0</ele><time>2026-04-09T10:29:45Z</time></trkpt><trkpt lat="37.91091676644522" lon="14.118428733988305"><ele>376.0</ele><time>2026-04-09T10:29:46Z</time></trkpt><trkpt lat="37.91100382590087" lon="14.118288715910905"><ele>376.0</ele><time>2026-04-09T10:29:47Z</time></trkpt><trkpt lat="37.91106605735006" lon="14.118106448919733"><ele>376.0</ele><time>2026-04-09T10:29:48Z</time></trkpt><trkpt lat="37.91113019896393" lon="14.117887769095667"><ele>374.66666666666663</ele><time>2026-04-09T10:29:49Z</time></trkpt><trkpt lat="37.91120741934998" lon="14.117674966105"><ele>373.3333333333333</ele><time>2026-04-09T10:29:50Z</time></trkpt><trkpt lat="37.911265205085776" lon="14.11749666767563"><ele>372.0</ele><time>2026-04-09T10:29:51Z</time></trkpt><trkpt lat="37.91129704981768" lon="14.117300452851854"><ele>371.6666666666667</ele><time>2026-04-09T10:29:52Z</time></trkpt><trkpt lat="37.91128897016252" lon="14.117077695774473"><ele>371.33333333333337</ele><time>2026-04-09T10:29:53Z</time></trkpt><trkpt lat="37.911256216716694" lon="14.116861829445067"><ele>371.0</ele><time>2026-04-09T10:29:54Z</time></trkpt><trkpt lat="37.91124572274733" lon="14.116676186985432"><ele>373.25</ele><time>2026-04-09T10:29:55Z</time></trkpt><trkpt lat="37.911265215620574" lon="14.11651708862627"><ele>375.5</ele><time>2026-04-09T10:29:56Z</time></trkpt><trkpt lat="37.911317227178344" lon="14.116349565800077"><ele>377.75</ele><time>2026-04-09T10:29:57Z</time></trkpt><trkpt lat="37.91140877164128" lon="14.116158526501186"><ele>380.0</ele><time>2026-04-09T10:29:58Z</time></trkpt><trkpt lat="37.91151065465252" lon="14.115939739432351"><ele>381.6666666666667</ele><time>2026-04-09T10:29:59Z</time></trkpt><trkpt lat="37.911594629199875" lon="14.115734502464193"><ele>383.33333333333337</ele><time>2026-04-09T10:30:00Z</time></trkpt><trkpt lat="37.911647988201516" lon="14.115537811277393"><ele>385.0</ele><time>2026-04-09T10:30:01Z</time></trkpt><trkpt lat="37.91167920672494" lon="14.11535233765923"><ele>385.0</ele><time>2026-04-09T10:30:02Z</time></trkpt><trkpt lat="37.911680552394564" lon="14.115195337451388"><ele>385.0</ele><time>2026-04-09T10:30:03Z</time></trkpt><trkpt lat="37.91165970880005" lon="14.115054865043978"><ele>385.0</ele><time>2026-04-09T10:30:04Z</time></trkpt><trkpt lat="37.911621366524244" lon="14.114904700036137"><ele>385.0</ele><time>2026-04-09T10:30:05Z</time></trkpt><trkpt lat="37.91152106543039" lon="14.114744856216348"><ele>381.75</ele><time>2026-04-09T10:30:06Z</time></trkpt><trkpt lat="37.91145204119097" lon="14.114556640776971"><ele>378.5</ele><time>2026-04-09T10:30:07Z</time></trkpt><trkpt lat="37.911371721264224" lon="14.114408355089903"><ele>375.25</ele><time>2026-04-09T10:30:08Z</time></trkpt><trkpt lat="37.91130971543612" lon="14.114272012327586"><ele>372.0</ele><time>2026-04-09T10:30:09Z</time></trkpt><trkpt lat="37.911223478641254" lon="14.114176527405816"><ele>372.0</ele><time>2026-04-09T10:30:10Z</time></trkpt><trkpt lat="37.91110522802262" lon="14.114127128284325"><ele>372.0</ele><time>2026-04-09T10:30:11Z</time></trkpt><trkpt lat="37.910961442706316" lon="14.114090584831773"><ele>372.0</ele><time>2026-04-09T10:30:12Z</time></trkpt><trkpt lat="37.91083454280926" lon="14.11402417001473"><ele>372.0</ele><time>2026-04-09T10:30:13Z</time></trkpt><trkpt lat="37.91072410532219" lon="14.113968011083847"><ele>370.75</ele><time>2026-04-09T10:30:14Z</time></trkpt><trkpt lat="37.910626555488484" lon="14.113891444160604"><ele>369.5</ele><time>2026-04-09T10:30:15Z</time></trkpt><trkpt lat="37.910522697370816" lon="14.113781202200263"><ele>368.25</ele><time>2026-04-09T10:30:16Z</time></trkpt><trkpt lat="37.91042404627763" lon="14.113665384661461"><ele>367.0</ele><time>2026-04-09T10:30:17Z</time></trkpt><trkpt lat="37.91033930854217" lon="14.113569205448112"><ele>367.0</ele><time>2026-04-09T10:30:18Z</time></trkpt><trkpt lat="37.910280753477295" lon="14.113489760718677"><ele>367.0</ele><time>2026-04-09T10:30:19Z</time></trkpt><trkpt lat="37.91025328336069" lon="14.113411247651836"><ele>367.0</ele><time>2026-04-09T10:30:20Z</time></trkpt><trkpt lat="37.91028180470056" lon="14.113310357327968"><ele>367.0</ele><time>2026-04-09T10:30:21Z</time></trkpt><trkpt lat="37.91035543798741" lon="14.113210120209063"><ele>367.0</ele><time>2026-04-09T10:30:22Z</time></trkpt><trkpt lat="37.91040618962394" lon="14.113068647580468"><ele>367.75</ele><time>2026-04-09T10:30:23Z</time></trkpt><trkpt lat="37.91043539618945" lon="14.112906987725752"><ele>368.5</ele><time>2026-04-09T10:30:24Z</time></trkpt><trkpt lat="37.910407451491835" lon="14.112717157257267"><ele>369.25</ele><time>2026-04-09T10:30:25Z</time></trkpt><trkpt lat="37.91038803220497" lon="14.112540506198618"><ele>370.0</ele><time>2026-04-09T10:30:26Z</time></trkpt><trkpt lat="37.91038014751166" lon="14.112418454118485"><ele>370.0</ele><time>2026-04-09T10:30:27Z</time></trkpt><trkpt lat="37.91046555445885" lon="14.112341191387118"><ele>370.0</ele><time>2026-04-09T10:30:29Z</time></trkpt><trkpt lat="37.910533309998264" lon="14.112345249830144"><ele>370.0</ele><time>2026-04-09T10:30:30Z</time></trkpt><trkpt lat="37.91062933154295" lon="14.112390052598874"><ele>370.0</ele><time>2026-04-09T10:30:31Z</time></trkpt><trkpt lat="37.91074489403613" lon="14.112454876725016"><ele>370.0</ele><time>2026-04-09T10:30:31.999Z</time></trkpt><trkpt lat="37.91085574954936" lon="14.11248137551852"><ele>368.5</ele><time>2026-04-09T10:30:32.999Z</time></trkpt><trkpt lat="37.91097175887202" lon="14.11245890829191"><ele>367.0</ele><time>2026-04-09T10:30:33.999Z</time></trkpt><trkpt lat="37.91109744903158" lon="14.112372588498522"><ele>365.5</ele><time>2026-04-09T10:30:34.999Z</time></trkpt><trkpt lat="37.91124748293227" lon="14.112241060198414"><ele>364.0</ele><time>2026-04-09T10:30:35.999Z</time></trkpt><trkpt lat="37.91139324468991" lon="14.112119392970458"><ele>364.0</ele><time>2026-04-09T10:30:36.999Z</time></trkpt><trkpt lat="37.91153060400521" lon="14.112030919268312"><ele>364.0</ele><time>2026-04-09T10:30:37.999Z</time></trkpt><trkpt lat="37.9116393024637" lon="14.111944645065385"><ele>364.0</ele><time>2026-04-09T10:30:38.999Z</time></trkpt><trkpt lat="37.911728527685234" lon="14.111855919891623"><ele>364.0</ele><time>2026-04-09T10:30:39.999Z</time></trkpt><trkpt lat="37.9117811361875" lon="14.11174678843161"><ele>363.75</ele><time>2026-04-09T10:30:40.999Z</time></trkpt><trkpt lat="37.9117991376215" lon="14.111609076750034"><ele>363.5</ele><time>2026-04-09T10:30:41.999Z</time></trkpt><trkpt lat="37.91176618845769" lon="14.11146281715921"><ele>363.25</ele><time>2026-04-09T10:30:42.999Z</time></trkpt><trkpt lat="37.911691503133845" lon="14.111291041267714"><ele>363.0</ele><time>2026-04-09T10:30:43.999Z</time></trkpt><trkpt lat="37.911602649526124" lon="14.111132412384384"><ele>363.0</ele><time>2026-04-09T10:30:44.999Z</time></trkpt><trkpt lat="37.91153738392324" lon="14.110986589300918"><ele>363.0</ele><time>2026-04-09T10:30:45.999Z</time></trkpt><trkpt lat="37.911509292168425" lon="14.11084667263809"><ele>363.0</ele><time>2026-04-09T10:30:46.999Z</time></trkpt><trkpt lat="37.911540229317104" lon="14.110717637732632"><ele>363.0</ele><time>2026-04-09T10:30:47.999Z</time></trkpt><trkpt lat="37.911593518620556" lon="14.110605631063297"><ele>364.0</ele><time>2026-04-09T10:30:48.999Z</time></trkpt><trkpt lat="37.9116912335636" lon="14.110546520465382"><ele>365.0</ele><time>2026-04-09T10:30:49.999Z</time></trkpt><trkpt lat="37.91179750352909" lon="14.110463676604658"><ele>366.0</ele><time>2026-04-09T10:30:50.999Z</time></trkpt><trkpt lat="37.91188044994973" lon="14.110420244733913"><ele>367.0</ele><time>2026-04-09T10:30:51.999Z</time></trkpt><trkpt lat="37.91196713829085" lon="14.110408775516564"><ele>368.0</ele><time>2026-04-09T10:30:52.999Z</time></trkpt><trkpt lat="37.91203816904421" lon="14.110517887733149"><ele>368.75</ele><time>2026-04-09T10:30:53.999Z</time></trkpt><trkpt lat="37.91215293132159" lon="14.110581414628946"><ele>369.5</ele><time>2026-04-09T10:30:54.999Z</time></trkpt><trkpt lat="37.9122799442797" lon="14.110641499800142"><ele>370.25</ele><time>2026-04-09T10:30:55.999Z</time></trkpt><trkpt lat="37.91244859565551" lon="14.110644844399811"><ele>371.0</ele><time>2026-04-09T10:30:56.999Z</time></trkpt><trkpt lat="37.912649538538716" lon="14.110611812805576"><ele>366.33333333333337</ele><time>2026-04-09T10:30:57.999Z</time></trkpt><trkpt lat="37.91284202547977" lon="14.110554458899678"><ele>361.6666666666667</ele><time>2026-04-09T10:30:58.999Z</time></trkpt><trkpt lat="37.91301402448578" lon="14.110469772011669"><ele>357.0</ele><time>2026-04-09T10:30:59.999Z</time></trkpt><trkpt lat="37.91315667600745" lon="14.110348510086242"><ele>357.0</ele><time>2026-04-09T10:31:00.999Z</time></trkpt><trkpt lat="37.91328253388316" lon="14.110243494625411"><ele>357.0</ele><time>2026-04-09T10:31:01.999Z</time></trkpt><trkpt lat="37.91338900886233" lon="14.110120368583186"><ele>357.0</ele><time>2026-04-09T10:31:02.999Z</time></trkpt><trkpt lat="37.913477596084725" lon="14.10993613132046"><ele>355.75</ele><time>2026-04-09T10:31:03.999Z</time></trkpt><trkpt lat="37.913545351722554" lon="14.109763182296879"><ele>354.5</ele><time>2026-04-09T10:31:04.999Z</time></trkpt><trkpt lat="37.91360483494729" lon="14.109628386900285"><ele>353.25</ele><time>2026-04-09T10:31:05.999Z</time></trkpt><trkpt lat="37.91371667739712" lon="14.109551078800303"><ele>352.0</ele><time>2026-04-09T10:31:06.999Z</time></trkpt><trkpt lat="37.913866117395145" lon="14.10944010937195"><ele>352.0</ele><time>2026-04-09T10:31:07.999Z</time></trkpt><trkpt lat="37.91405206775818" lon="14.109343283872082"><ele>352.0</ele><time>2026-04-09T10:31:08.999Z</time></trkpt><trkpt lat="37.91423163696378" lon="14.109244839761843"><ele>352.0</ele><time>2026-04-09T10:31:09.999Z</time></trkpt><trkpt lat="37.914381767057485" lon="14.109153722996753"><ele>353.6</ele><time>2026-04-09T10:31:10.999Z</time></trkpt><trkpt lat="37.91449301285896" lon="14.109083748918216"><ele>355.20000000000005</ele><time>2026-04-09T10:31:11.999Z</time></trkpt><trkpt lat="37.914584619680205" lon="14.109033071809142"><ele>356.8</ele><time>2026-04-09T10:31:12.999Z</time></trkpt><trkpt lat="37.914658325530944" lon="14.109038500072153"><ele>358.4</ele><time>2026-04-09T10:31:13.999Z</time></trkpt><trkpt lat="37.91473085920344" lon="14.109087172777462"><ele>360.0</ele><time>2026-04-09T10:31:15Z</time></trkpt><trkpt lat="37.91479802426905" lon="14.109174855415477"><ele>360.0</ele><time>2026-04-09T10:31:16Z</time></trkpt><trkpt lat="37.91484302708312" lon="14.109337771347672"><ele>360.0</ele><time>2026-04-09T10:31:17Z</time></trkpt><trkpt lat="37.91492630045329" lon="14.10952833937661"><ele>360.0</ele><time>2026-04-09T10:31:18Z</time></trkpt><trkpt lat="37.91502354146143" lon="14.109734985953"><ele>356.3333333333333</ele><time>2026-04-09T10:31:19Z</time></trkpt><trkpt lat="37.91510012746957" lon="14.10994198841578"><ele>352.66666666666663</ele><time>2026-04-09T10:31:20Z</time></trkpt><trkpt lat="37.915173699134726" lon="14.110101297919837"><ele>349.0</ele><time>2026-04-09T10:31:21Z</time></trkpt><trkpt lat="37.91525822254393" lon="14.110215856983878"><ele>349.0</ele><time>2026-04-09T10:31:22Z</time></trkpt><trkpt lat="37.91536043334152" lon="14.11028370387315"><ele>349.0</ele><time>2026-04-09T10:31:23Z</time></trkpt><trkpt lat="37.91548788407492" lon="14.110298323664628"><ele>349.0</ele><time>2026-04-09T10:31:24Z</time></trkpt><trkpt lat="37.91564321135582" lon="14.110288418515479"><ele>349.0</ele><time>2026-04-09T10:31:25Z</time></trkpt><trkpt lat="37.91580446229851" lon="14.110281300539667"><ele>345.25</ele><time>2026-04-09T10:31:26Z</time></trkpt><trkpt lat="37.91594179898105" lon="14.110283296284377"><ele>341.5</ele><time>2026-04-09T10:31:27Z</time></trkpt><trkpt lat="37.91606161267778" lon="14.110245231720148"><ele>337.75</ele><time>2026-04-09T10:31:28Z</time></trkpt><trkpt lat="37.91619008254775" lon="14.110129980697153"><ele>334.0</ele><time>2026-04-09T10:31:29Z</time></trkpt><trkpt lat="37.916345518145135" lon="14.109985971388726"><ele>338.0</ele><time>2026-04-09T10:31:30Z</time></trkpt><trkpt lat="37.91653467219445" lon="14.109852169280748"><ele>342.0</ele><time>2026-04-09T10:31:31Z</time></trkpt><trkpt lat="37.91674608093292" lon="14.109732032991644"><ele>346.0</ele><time>2026-04-09T10:31:32Z</time></trkpt><trkpt lat="37.91694036667059" lon="14.109626741569521"><ele>346.0</ele><time>2026-04-09T10:31:33Z</time></trkpt><trkpt lat="37.91711160033188" lon="14.109534528007556"><ele>346.0</ele><time>2026-04-09T10:31:34Z</time></trkpt><trkpt lat="37.917258588795754" lon="14.10944700526845"><ele>346.0</ele><time>2026-04-09T10:31:35Z</time></trkpt><trkpt lat="37.91738378155387" lon="14.109378089275376"><ele>346.0</ele><time>2026-04-09T10:31:36Z</time></trkpt><trkpt lat="37.91750150178968" lon="14.10935113959972"><ele>346.0</ele><time>2026-04-09T10:31:37Z</time></trkpt><trkpt lat="37.91762121600556" lon="14.109418280185267"><ele>346.0</ele><time>2026-04-09T10:31:38Z</time></trkpt><trkpt lat="37.91778599826998" lon="14.109458136098809"><ele>346.0</ele><time>2026-04-09T10:31:39Z</time></trkpt><trkpt lat="37.9179849870713" lon="14.10954403837512"><ele>349.0</ele><time>2026-04-09T10:31:40Z</time></trkpt><trkpt lat="37.91819921570753" lon="14.10962046222332"><ele>352.0</ele><time>2026-04-09T10:31:41Z</time></trkpt><trkpt lat="37.918416212822564" lon="14.109691855717628"><ele>355.0</ele><time>2026-04-09T10:31:42Z</time></trkpt><trkpt lat="37.918608479686995" lon="14.10975176719989"><ele>349.0</ele><time>2026-04-09T10:31:43Z</time></trkpt><trkpt lat="37.91878832448847" lon="14.109794854078402"><ele>343.0</ele><time>2026-04-09T10:31:44Z</time></trkpt><trkpt lat="37.91894244184284" lon="14.10982159829911"><ele>337.0</ele><time>2026-04-09T10:31:45Z</time></trkpt><trkpt lat="37.919066786748594" lon="14.109833215439233"><ele>337.0</ele><time>2026-04-09T10:31:46Z</time></trkpt><trkpt lat="37.919163446128316" lon="14.109823206004107"><ele>337.0</ele><time>2026-04-09T10:31:47Z</time></trkpt><trkpt lat="37.91924682708404" lon="14.109766893713635"><ele>337.0</ele><time>2026-04-09T10:31:48Z</time></trkpt><trkpt lat="37.91931525727564" lon="14.10965207813939"><ele>337.0</ele><time>2026-04-09T10:31:49Z</time></trkpt><trkpt lat="37.919372787203805" lon="14.109496425428308"><ele>337.0</ele><time>2026-04-09T10:31:50Z</time></trkpt><trkpt lat="37.91943797518061" lon="14.109322681196586"><ele>332.25</ele><time>2026-04-09T10:31:51Z</time></trkpt><trkpt lat="37.91949980829238" lon="14.109174967137283"><ele>327.5</ele><time>2026-04-09T10:31:52Z</time></trkpt><trkpt lat="37.919525500998816" lon="14.109031516405862"><ele>322.75</ele><time>2026-04-09T10:31:53Z</time></trkpt><trkpt lat="37.91950295358532" lon="14.10886218570352"><ele>318.0</ele><time>2026-04-09T10:31:54Z</time></trkpt><trkpt lat="37.9194680212219" lon="14.108691412963141"><ele>318.0</ele><time>2026-04-09T10:31:55Z</time></trkpt><trkpt lat="37.91947240742756" lon="14.108517307855259"><ele>318.0</ele><time>2026-04-09T10:31:56Z</time></trkpt><trkpt lat="37.91952058856614" lon="14.10833363341225"><ele>318.0</ele><time>2026-04-09T10:31:57Z</time></trkpt><trkpt lat="37.91958234801131" lon="14.108171996739538"><ele>318.0</ele><time>2026-04-09T10:31:58Z</time></trkpt><trkpt lat="37.919614508780384" lon="14.108016025376154"><ele>318.6666666666667</ele><time>2026-04-09T10:31:59Z</time></trkpt><trkpt lat="37.91959386013062" lon="14.107835525910593"><ele>319.33333333333337</ele><time>2026-04-09T10:32:00Z</time></trkpt><trkpt lat="37.91952260570262" lon="14.10762837066069"><ele>320.0</ele><time>2026-04-09T10:32:01Z</time></trkpt><trkpt lat="37.919437396318344" lon="14.107434485252034"><ele>322.4</ele><time>2026-04-09T10:32:02Z</time></trkpt><trkpt lat="37.91938611728401" lon="14.107271843605346"><ele>324.8</ele><time>2026-04-09T10:32:03Z</time></trkpt><trkpt lat="37.91934570684679" lon="14.10713998128198"><ele>327.20000000000005</ele><time>2026-04-09T10:32:04Z</time></trkpt><trkpt lat="37.919324556459294" lon="14.107028824387156"><ele>329.6</ele><time>2026-04-09T10:32:05Z</time></trkpt><trkpt lat="37.919366326425795" lon="14.106925045625122"><ele>332.0</ele><time>2026-04-09T10:32:06Z</time></trkpt><trkpt lat="37.9194398961726" lon="14.10684585353595"><ele>332.0</ele><time>2026-04-09T10:32:07Z</time></trkpt><trkpt lat="37.91952649412046" lon="14.106786913399029"><ele>332.0</ele><time>2026-04-09T10:32:08Z</time></trkpt><trkpt lat="37.919621668573605" lon="14.10675776550039"><ele>332.0</ele><time>2026-04-09T10:32:09Z</time></trkpt><trkpt lat="37.91972982456242" lon="14.10678580583317"><ele>332.0</ele><time>2026-04-09T10:32:10Z</time></trkpt><trkpt lat="37.919856895622935" lon="14.106871868085971"><ele>332.0</ele><time>2026-04-09T10:32:11Z</time></trkpt><trkpt lat="37.91998813988386" lon="14.106961552600211"><ele>332.0</ele><time>2026-04-09T10:32:12Z</time></trkpt><trkpt lat="37.92012453087367" lon="14.107010082555885"><ele>332.0</ele><time>2026-04-09T10:32:13Z</time></trkpt><trkpt lat="37.92028844625723" lon="14.107000393349441"><ele>332.33333333333337</ele><time>2026-04-09T10:32:14Z</time></trkpt><trkpt lat="37.92048705755627" lon="14.106933080435063"><ele>332.6666666666667</ele><time>2026-04-09T10:32:15Z</time></trkpt><trkpt lat="37.920715387339165" lon="14.106851608025279"><ele>333.0</ele><time>2026-04-09T10:32:16Z</time></trkpt><trkpt lat="37.92097682411103" lon="14.106772233094826"><ele>333.0</ele><time>2026-04-09T10:32:17Z</time></trkpt><trkpt lat="37.92122610099923" lon="14.106707915134116"><ele>333.0</ele><time>2026-04-09T10:32:18Z</time></trkpt><trkpt lat="37.921438044693346" lon="14.106653366879973"><ele>333.0</ele><time>2026-04-09T10:32:19Z</time></trkpt><trkpt lat="37.92162175755921" lon="14.106608477619018"><ele>333.0</ele><time>2026-04-09T10:32:20Z</time></trkpt><trkpt lat="37.92178197505728" lon="14.10656996618351"><ele>333.0</ele><time>2026-04-09T10:32:21Z</time></trkpt><trkpt lat="37.92192613769761" lon="14.106530571771433"><ele>333.0</ele><time>2026-04-09T10:32:22Z</time></trkpt><trkpt lat="37.922052414770846" lon="14.106469531931891"><ele>333.0</ele><time>2026-04-09T10:32:23Z</time></trkpt><trkpt lat="37.9221560745753" lon="14.106373828879823"><ele>333.0</ele><time>2026-04-09T10:32:24Z</time></trkpt><trkpt lat="37.92223827962375" lon="14.10622701409774"><ele>333.0</ele><time>2026-04-09T10:32:25Z</time></trkpt><trkpt lat="37.92229820177422" lon="14.10601043374085"><ele>333.0</ele><time>2026-04-09T10:32:26Z</time></trkpt><trkpt lat="37.92235085881954" lon="14.10575639178353"><ele>333.0</ele><time>2026-04-09T10:32:27Z</time></trkpt><trkpt lat="37.9224118750233" lon="14.105480617550128"><ele>333.0</ele><time>2026-04-09T10:32:28Z</time></trkpt><trkpt lat="37.92248675737011" lon="14.105191169714352"><ele>332.3333333333333</ele><time>2026-04-09T10:32:29Z</time></trkpt><trkpt lat="37.92256203475728" lon="14.104934970235231"><ele>331.66666666666663</ele><time>2026-04-09T10:32:30Z</time></trkpt><trkpt lat="37.92262610197367" lon="14.10471612485537"><ele>331.0</ele><time>2026-04-09T10:32:31Z</time></trkpt><trkpt lat="37.92268007563352" lon="14.104523959619657"><ele>331.0</ele><time>2026-04-09T10:32:32Z</time></trkpt><trkpt lat="37.9227127668809" lon="14.104318261890944"><ele>331.0</ele><time>2026-04-09T10:32:33Z</time></trkpt><trkpt lat="37.92270313976898" lon="14.104100719469336"><ele>331.0</ele><time>2026-04-09T10:32:34Z</time></trkpt><trkpt lat="37.922671072123" lon="14.103897759203965"><ele>332.5</ele><time>2026-04-09T10:32:35Z</time></trkpt><trkpt lat="37.922636537762045" lon="14.103702290673537"><ele>334.0</ele><time>2026-04-09T10:32:36Z</time></trkpt><trkpt lat="37.9225941697228" lon="14.103526663245892"><ele>335.5</ele><time>2026-04-09T10:32:37Z</time></trkpt><trkpt lat="37.92253629719543" lon="14.103368154161528"><ele>337.0</ele><time>2026-04-09T10:32:37.999Z</time></trkpt><trkpt lat="37.92247150218741" lon="14.103232098279907"><ele>339.25</ele><time>2026-04-09T10:32:38.999Z</time></trkpt><trkpt lat="37.9224240388541" lon="14.10308855733339"><ele>341.5</ele><time>2026-04-09T10:32:39.999Z</time></trkpt><trkpt lat="37.922431514320735" lon="14.102941264385159"><ele>343.75</ele><time>2026-04-09T10:32:40.999Z</time></trkpt><trkpt lat="37.92240863870426" lon="14.102796328271664"><ele>346.0</ele><time>2026-04-09T10:32:41.999Z</time></trkpt><trkpt lat="37.92240819746708" lon="14.10264973022943"><ele>346.0</ele><time>2026-04-09T10:32:42.999Z</time></trkpt><trkpt lat="37.922396211481995" lon="14.102508567096093"><ele>346.0</ele><time>2026-04-09T10:32:43.999Z</time></trkpt><trkpt lat="37.922388275620584" lon="14.10237380583078"><ele>346.0</ele><time>2026-04-09T10:32:44.999Z</time></trkpt><trkpt lat="37.92238221879721" lon="14.10225046199815"><ele>346.0</ele><time>2026-04-09T10:32:45.999Z</time></trkpt><trkpt lat="37.92238043602462" lon="14.102147704139567"><ele>346.0</ele><time>2026-04-09T10:32:46.999Z</time></trkpt><trkpt lat="37.922378916733926" lon="14.1020532995007"><ele>346.5</ele><time>2026-04-09T10:32:47.999Z</time></trkpt><trkpt lat="37.922399245767345" lon="14.101970895021807"><ele>347.0</ele><time>2026-04-09T10:32:48.999Z</time></trkpt><trkpt lat="37.92245634829774" lon="14.101904976799265"><ele>347.5</ele><time>2026-04-09T10:32:49.999Z</time></trkpt><trkpt lat="37.9225385687469" lon="14.10185173073907"><ele>348.0</ele><time>2026-04-09T10:32:50.999Z</time></trkpt><trkpt lat="37.922616335113275" lon="14.101789220198683"><ele>348.5</ele><time>2026-04-09T10:32:51.999Z</time></trkpt><trkpt lat="37.92267683166081" lon="14.101697776425523"><ele>349.0</ele><time>2026-04-09T10:32:52.999Z</time></trkpt><trkpt lat="37.92272314145243" lon="14.101582442504487"><ele>351.25</ele><time>2026-04-09T10:32:53.999Z</time></trkpt><trkpt lat="37.92275792934897" lon="14.101443660087893"><ele>353.5</ele><time>2026-04-09T10:32:54.999Z</time></trkpt><trkpt lat="37.92278324674258" lon="14.10128892613136"><ele>355.75</ele><time>2026-04-09T10:32:55.999Z</time></trkpt><trkpt lat="37.92278506845988" lon="14.101118342538188"><ele>358.0</ele><time>2026-04-09T10:32:56.999Z</time></trkpt><trkpt lat="37.922784130415444" lon="14.100944556971896"><ele>358.0</ele><time>2026-04-09T10:32:57.999Z</time></trkpt><trkpt lat="37.922781675518536" lon="14.100769838052228"><ele>358.0</ele><time>2026-04-09T10:32:58.999Z</time></trkpt><trkpt lat="37.922779245686655" lon="14.100594770270735"><ele>358.0</ele><time>2026-04-09T10:32:59.999Z</time></trkpt><trkpt lat="37.92277826746259" lon="14.10043275962199"><ele>358.0</ele><time>2026-04-09T10:33:00.999Z</time></trkpt><trkpt lat="37.922776929334006" lon="14.100292192291828"><ele>359.5</ele><time>2026-04-09T10:33:01.999Z</time></trkpt><trkpt lat="37.9227727814382" lon="14.100189576759936"><ele>361.0</ele><time>2026-04-09T10:33:02.999Z</time></trkpt><trkpt lat="37.92279921814872" lon="14.100046713508608"><ele>362.5</ele><time>2026-04-09T10:33:04.999Z</time></trkpt><trkpt lat="37.922851296301616" lon="14.099994646294157"><ele>364.0</ele><time>2026-04-09T10:33:05.999Z</time></trkpt><trkpt lat="37.922927130101804" lon="14.099969018450354"><ele>365.5</ele><time>2026-04-09T10:33:06.999Z</time></trkpt><trkpt lat="37.92301180316527" lon="14.099976699063312"><ele>367.0</ele><time>2026-04-09T10:33:07.999Z</time></trkpt><trkpt lat="37.923094387836144" lon="14.100031612036078"><ele>367.0</ele><time>2026-04-09T10:33:08.999Z</time></trkpt><trkpt lat="37.923144346260244" lon="14.10014137757208"><ele>367.0</ele><time>2026-04-09T10:33:09.999Z</time></trkpt><trkpt lat="37.92320194038007" lon="14.100247349681563"><ele>367.0</ele><time>2026-04-09T10:33:10.999Z</time></trkpt><trkpt lat="37.92324390896202" lon="14.100366214805113"><ele>367.0</ele><time>2026-04-09T10:33:11.999Z</time></trkpt><trkpt lat="37.92330388009443" lon="14.100477031069833"><ele>367.0</ele><time>2026-04-09T10:33:12.999Z</time></trkpt><trkpt lat="37.92338614019803" lon="14.100573266212248"><ele>368.0</ele><time>2026-04-09T10:33:13.999Z</time></trkpt><trkpt lat="37.923491492459505" lon="14.100675184885654"><ele>369.0</ele><time>2026-04-09T10:33:14.999Z</time></trkpt><trkpt lat="37.92364172422636" lon="14.100777547398623"><ele>370.0</ele><time>2026-04-09T10:33:15.999Z</time></trkpt><trkpt lat="37.9238126178761" lon="14.100894089519413"><ele>370.0</ele><time>2026-04-09T10:33:16.999Z</time></trkpt><trkpt lat="37.924018700732226" lon="14.101016616578082"><ele>370.0</ele><time>2026-04-09T10:33:17.999Z</time></trkpt><trkpt lat="37.924223346849274" lon="14.10116512894415"><ele>373.3333333333333</ele><time>2026-04-09T10:33:18.999Z</time></trkpt><trkpt lat="37.924405955979886" lon="14.101294856375294"><ele>376.6666666666667</ele><time>2026-04-09T10:33:19.999Z</time></trkpt><trkpt lat="37.92456391290951" lon="14.101399712078035"><ele>380.0</ele><time>2026-04-09T10:33:21Z</time></trkpt><trkpt lat="37.92470071410195" lon="14.10149215363266"><ele>377.0</ele><time>2026-04-09T10:33:22Z</time></trkpt><trkpt lat="37.92481909883168" lon="14.101593233724772"><ele>374.0</ele><time>2026-04-09T10:33:23Z</time></trkpt><trkpt lat="37.92491870998619" lon="14.101726237422552"><ele>371.0</ele><time>2026-04-09T10:33:24Z</time></trkpt><trkpt lat="37.92498685659682" lon="14.10188972856869"><ele>368.0</ele><time>2026-04-09T10:33:25Z</time></trkpt><trkpt lat="37.925012571477566" lon="14.102076147898496"><ele>368.0</ele><time>2026-04-09T10:33:26Z</time></trkpt><trkpt lat="37.925051579777964" lon="14.102205208354526"><ele>368.0</ele><time>2026-04-09T10:33:27Z</time></trkpt><trkpt lat="37.925105342973914" lon="14.10230674680045"><ele>368.0</ele><time>2026-04-09T10:33:28Z</time></trkpt><trkpt lat="37.92518038048718" lon="14.102367199972495"><ele>368.0</ele><time>2026-04-09T10:33:29Z</time></trkpt><trkpt lat="37.92526065603571" lon="14.102366037004954"><ele>368.0</ele><time>2026-04-09T10:33:30Z</time></trkpt><trkpt lat="37.9253478558582" lon="14.102323869488016"><ele>367.5</ele><time>2026-04-09T10:33:31Z</time></trkpt><trkpt lat="37.925437236337146" lon="14.102244316802716"><ele>367.0</ele><time>2026-04-09T10:33:32Z</time></trkpt><trkpt lat="37.92552281920903" lon="14.102136110602324"><ele>366.5</ele><time>2026-04-09T10:33:33Z</time></trkpt><trkpt lat="37.92557474928741" lon="14.101981927111122"><ele>366.0</ele><time>2026-04-09T10:33:34Z</time></trkpt><trkpt lat="37.925601848518106" lon="14.101784451892103"><ele>367.0</ele><time>2026-04-09T10:33:35Z</time></trkpt><trkpt lat="37.92563539279661" lon="14.101546794389376"><ele>368.0</ele><time>2026-04-09T10:33:36Z</time></trkpt><trkpt lat="37.92567322219178" lon="14.101302550352036"><ele>369.0</ele><time>2026-04-09T10:33:37Z</time></trkpt><trkpt lat="37.9257087645291" lon="14.101084010929057"><ele>369.0</ele><time>2026-04-09T10:33:38Z</time></trkpt><trkpt lat="37.925736417858936" lon="14.100818043501988"><ele>369.0</ele><time>2026-04-09T10:33:39Z</time></trkpt><trkpt lat="37.925740037196114" lon="14.10051449126298"><ele>369.6666666666667</ele><time>2026-04-09T10:33:40Z</time></trkpt><trkpt lat="37.925721581410166" lon="14.10025156006669"><ele>370.33333333333337</ele><time>2026-04-09T10:33:41Z</time></trkpt><trkpt lat="37.92571038563179" lon="14.100029663725882"><ele>371.0</ele><time>2026-04-09T10:33:42Z</time></trkpt><trkpt lat="37.92569261813773" lon="14.099821264790018"><ele>372.25</ele><time>2026-04-09T10:33:43Z</time></trkpt><trkpt lat="37.9256398797715" lon="14.099631712974292"><ele>373.5</ele><time>2026-04-09T10:33:44Z</time></trkpt><trkpt lat="37.92557468409335" lon="14.099469549769513"><ele>374.75</ele><time>2026-04-09T10:33:45Z</time></trkpt><trkpt lat="37.9255245624173" lon="14.099317596214908"><ele>376.0</ele><time>2026-04-09T10:33:46Z</time></trkpt><trkpt lat="37.9255242199408" lon="14.099175060293351"><ele>378.75</ele><time>2026-04-09T10:33:47Z</time></trkpt><trkpt lat="37.92561037294704" lon="14.099058547000718"><ele>381.5</ele><time>2026-04-09T10:33:48Z</time></trkpt><trkpt lat="37.92567487652386" lon="14.098894924049727"><ele>384.25</ele><time>2026-04-09T10:33:49Z</time></trkpt><trkpt lat="37.92574225634704" lon="14.098736148148244"><ele>387.0</ele><time>2026-04-09T10:33:50Z</time></trkpt><trkpt lat="37.925802123970726" lon="14.098589856034652"><ele>387.0</ele><time>2026-04-09T10:33:51Z</time></trkpt><trkpt lat="37.92586045446878" lon="14.098443844317668"><ele>387.0</ele><time>2026-04-09T10:33:52Z</time></trkpt><trkpt lat="37.92590738653013" lon="14.098270937658121"><ele>387.0</ele><time>2026-04-09T10:33:53Z</time></trkpt><trkpt lat="37.92594988600867" lon="14.09808666336794"><ele>387.0</ele><time>2026-04-09T10:33:54Z</time></trkpt><trkpt lat="37.92597239375134" lon="14.097895428075548"><ele>384.25</ele><time>2026-04-09T10:33:55Z</time></trkpt><trkpt lat="37.92599411979793" lon="14.09771459469685"><ele>381.5</ele><time>2026-04-09T10:33:56Z</time></trkpt><trkpt lat="37.92599218879845" lon="14.097562159992822"><ele>378.75</ele><time>2026-04-09T10:33:57Z</time></trkpt><trkpt lat="37.925954756803456" lon="14.09742159322469"><ele>376.0</ele><time>2026-04-09T10:33:58Z</time></trkpt><trkpt lat="37.92588728371744" lon="14.097307409267387"><ele>376.0</ele><time>2026-04-09T10:33:59Z</time></trkpt><trkpt lat="37.92579954552423" lon="14.097243889960987"><ele>376.0</ele><time>2026-04-09T10:34:00Z</time></trkpt><trkpt lat="37.92568406798978" lon="14.097227496293556"><ele>376.0</ele><time>2026-04-09T10:34:01Z</time></trkpt><trkpt lat="37.9255635190596" lon="14.097246927799468"><ele>376.0</ele><time>2026-04-09T10:34:02Z</time></trkpt><trkpt lat="37.925458002282696" lon="14.097224109498182"><ele>376.0</ele><time>2026-04-09T10:34:03Z</time></trkpt><trkpt lat="37.92537039689856" lon="14.097099326945028"><ele>376.0</ele><time>2026-04-09T10:34:04Z</time></trkpt><trkpt lat="37.92525533222585" lon="14.096963842287643"><ele>376.0</ele><time>2026-04-09T10:34:05Z</time></trkpt><trkpt lat="37.92516131951834" lon="14.096847290774"><ele>376.0</ele><time>2026-04-09T10:34:06Z</time></trkpt><trkpt lat="37.92509054966353" lon="14.096744619597052"><ele>376.0</ele><time>2026-04-09T10:34:07Z</time></trkpt><trkpt lat="37.92506160944177" lon="14.096631734828273"><ele>379.75</ele><time>2026-04-09T10:34:08Z</time></trkpt><trkpt lat="37.925043621977004" lon="14.096492079330973"><ele>383.5</ele><time>2026-04-09T10:34:09Z</time></trkpt><trkpt lat="37.92513826842774" lon="14.096314993520982"><ele>387.25</ele><time>2026-04-09T10:34:10Z</time></trkpt><trkpt lat="37.92518553420928" lon="14.096160788082924"><ele>391.0</ele><time>2026-04-09T10:34:11Z</time></trkpt><trkpt lat="37.9252698770885" lon="14.096058413377543"><ele>391.0</ele><time>2026-04-09T10:34:12Z</time></trkpt><trkpt lat="37.92539964320886" lon="14.095967072672023"><ele>391.0</ele><time>2026-04-09T10:34:13Z</time></trkpt><trkpt lat="37.925550533596386" lon="14.095888705099581"><ele>391.0</ele><time>2026-04-09T10:34:14Z</time></trkpt><trkpt lat="37.92566557823199" lon="14.095838573924045"><ele>391.0</ele><time>2026-04-09T10:34:15Z</time></trkpt><trkpt lat="37.925738249524116" lon="14.095778424255984"><ele>391.0</ele><time>2026-04-09T10:34:16Z</time></trkpt><trkpt lat="37.92577751653405" lon="14.09568112964271"><ele>391.0</ele><time>2026-04-09T10:34:17Z</time></trkpt><trkpt lat="37.92578488384613" lon="14.095558070119818"><ele>391.0</ele><time>2026-04-09T10:34:18Z</time></trkpt><trkpt lat="37.92575238173875" lon="14.095420606677894"><ele>391.0</ele><time>2026-04-09T10:34:19Z</time></trkpt><trkpt lat="37.92569375071934" lon="14.09527004585254"><ele>391.0</ele><time>2026-04-09T10:34:20Z</time></trkpt><trkpt lat="37.925638170990766" lon="14.095114899919439"><ele>391.0</ele><time>2026-04-09T10:34:21Z</time></trkpt><trkpt lat="37.92556184954908" lon="14.094976245069601"><ele>391.0</ele><time>2026-04-09T10:34:22Z</time></trkpt><trkpt lat="37.925434649029484" lon="14.094851832944652"><ele>391.0</ele><time>2026-04-09T10:34:23Z</time></trkpt><trkpt lat="37.925302063565304" lon="14.094728507532315"><ele>391.20000000000005</ele><time>2026-04-09T10:34:24Z</time></trkpt><trkpt lat="37.92520073653748" lon="14.094596604197555"><ele>391.40000000000003</ele><time>2026-04-09T10:34:25Z</time></trkpt><trkpt lat="37.925123998176595" lon="14.094509788559302"><ele>391.6</ele><time>2026-04-09T10:34:26Z</time></trkpt><trkpt lat="37.92507460613154" lon="14.094434949903217"><ele>391.8</ele><time>2026-04-09T10:34:27Z</time></trkpt><trkpt lat="37.925044528528154" lon="14.094358443983488"><ele>392.0</ele><time>2026-04-09T10:34:28Z</time></trkpt><trkpt lat="37.92506443738609" lon="14.094271165067585"><ele>392.0</ele><time>2026-04-09T10:34:29Z</time></trkpt><trkpt lat="37.925115876720675" lon="14.09420428363408"><ele>392.0</ele><time>2026-04-09T10:34:30Z</time></trkpt><trkpt lat="37.92519042257473" lon="14.094166905014378"><ele>392.0</ele><time>2026-04-09T10:34:31Z</time></trkpt><trkpt lat="37.92528932697061" lon="14.094157042490105"><ele>392.0</ele><time>2026-04-09T10:34:32Z</time></trkpt><trkpt lat="37.925407391918995" lon="14.094148461849993"><ele>392.0</ele><time>2026-04-09T10:34:33Z</time></trkpt><trkpt lat="37.92551220746607" lon="14.094115233456984"><ele>394.20000000000005</ele><time>2026-04-09T10:34:33.999Z</time></trkpt><trkpt lat="37.92559562627002" lon="14.09406134715761"><ele>396.4</ele><time>2026-04-09T10:34:34.999Z</time></trkpt><trkpt lat="37.92566088994486" lon="14.09397524641946"><ele>398.6</ele><time>2026-04-09T10:34:35.999Z</time></trkpt><trkpt lat="37.92571204956503" lon="14.093851275666777"><ele>400.79999999999995</ele><time>2026-04-09T10:34:36.999Z</time></trkpt><trkpt lat="37.925742810463866" lon="14.093692953624583"><ele>403.0</ele><time>2026-04-09T10:34:37.999Z</time></trkpt><trkpt lat="37.92575865964396" lon="14.09352254001131"><ele>403.0</ele><time>2026-04-09T10:34:38.999Z</time></trkpt><trkpt lat="37.925797629335335" lon="14.09337399894206"><ele>403.0</ele><time>2026-04-09T10:34:39.999Z</time></trkpt><trkpt lat="37.925821923081685" lon="14.093247199995638"><ele>403.0</ele><time>2026-04-09T10:34:40.999Z</time></trkpt><trkpt lat="37.92584083331921" lon="14.093144548242307"><ele>403.0</ele><time>2026-04-09T10:34:41.999Z</time></trkpt><trkpt lat="37.92590899844249" lon="14.093059941562599"><ele>403.0</ele><time>2026-04-09T10:34:42.999Z</time></trkpt><trkpt lat="37.925997757108576" lon="14.092963358569229"><ele>402.75</ele><time>2026-04-09T10:34:43.999Z</time></trkpt><trkpt lat="37.92610156465155" lon="14.09283908682568"><ele>402.5</ele><time>2026-04-09T10:34:44.999Z</time></trkpt><trkpt lat="37.926207480752446" lon="14.092697217919566"><ele>402.25</ele><time>2026-04-09T10:34:45.999Z</time></trkpt><trkpt lat="37.92632971272614" lon="14.092600180460916"><ele>402.0</ele><time>2026-04-09T10:34:46.999Z</time></trkpt><trkpt lat="37.926439727608795" lon="14.092516407850812"><ele>402.0</ele><time>2026-04-09T10:34:47.999Z</time></trkpt><trkpt lat="37.92653870452098" lon="14.092453672372448"><ele>402.0</ele><time>2026-04-09T10:34:48.999Z</time></trkpt><trkpt lat="37.92662048590025" lon="14.09239148458352"><ele>402.0</ele><time>2026-04-09T10:34:49.999Z</time></trkpt><trkpt lat="37.92669199386714" lon="14.092371210494509"><ele>402.0</ele><time>2026-04-09T10:34:50.999Z</time></trkpt><trkpt lat="37.926752011329086" lon="14.092396440255209"><ele>402.0</ele><time>2026-04-09T10:34:51.999Z</time></trkpt><trkpt lat="37.9268143196421" lon="14.09241663132186"><ele>402.0</ele><time>2026-04-09T10:34:52.999Z</time></trkpt><trkpt lat="37.92689290389262" lon="14.092436348943947"><ele>402.20000000000005</ele><time>2026-04-09T10:34:53.999Z</time></trkpt><trkpt lat="37.92696740513722" lon="14.0924922792202"><ele>402.4</ele><time>2026-04-09T10:34:54.999Z</time></trkpt><trkpt lat="37.927040729054696" lon="14.092550923210116"><ele>402.6</ele><time>2026-04-09T10:34:55.999Z</time></trkpt><trkpt lat="37.92711278619012" lon="14.09261726085268"><ele>402.79999999999995</ele><time>2026-04-09T10:34:56.999Z</time></trkpt><trkpt lat="37.92719684353492" lon="14.092693606892157"><ele>403.0</ele><time>2026-04-09T10:34:57.999Z</time></trkpt><trkpt lat="37.92728638079869" lon="14.092779623658886"><ele>403.0</ele><time>2026-04-09T10:34:58.999Z</time></trkpt><trkpt lat="37.927361088456486" lon="14.092849077685663"><ele>403.0</ele><time>2026-04-09T10:34:59.999Z</time></trkpt><trkpt lat="37.927429328350094" lon="14.092891174210253"><ele>403.0</ele><time>2026-04-09T10:35:00.999Z</time></trkpt><trkpt lat="37.92754021788352" lon="14.092893006994597"><ele>403.0</ele><time>2026-04-09T10:35:02.999Z</time></trkpt><trkpt lat="37.92763711878952" lon="14.092818892861008"><ele>403.0</ele><time>2026-04-09T10:35:04.999Z</time></trkpt><trkpt lat="37.92770979170451" lon="14.092761118099222"><ele>400.83333333333337</ele><time>2026-04-09T10:35:05.999Z</time></trkpt><trkpt lat="37.92778755643125" lon="14.092698108924244"><ele>398.6666666666667</ele><time>2026-04-09T10:35:06.999Z</time></trkpt><trkpt lat="37.92787239469351" lon="14.092656989098142"><ele>396.5</ele><time>2026-04-09T10:35:07.999Z</time></trkpt><trkpt lat="37.9279511950478" lon="14.092598432225895"><ele>394.33333333333337</ele><time>2026-04-09T10:35:08.999Z</time></trkpt><trkpt lat="37.928026213416985" lon="14.092543152246275"><ele>392.1666666666667</ele><time>2026-04-09T10:35:09.999Z</time></trkpt><trkpt lat="37.92809536451518" lon="14.092492195774822"><ele>390.0</ele><time>2026-04-09T10:35:10.999Z</time></trkpt><trkpt lat="37.92815749362169" lon="14.092428397795247"><ele>390.2</ele><time>2026-04-09T10:35:11.999Z</time></trkpt><trkpt lat="37.928231657273635" lon="14.092378064656636"><ele>390.4</ele><time>2026-04-09T10:35:12.999Z</time></trkpt><trkpt lat="37.928309498590636" lon="14.092323833686104"><ele>390.6</ele><time>2026-04-09T10:35:13.999Z</time></trkpt><trkpt lat="37.92838727729345" lon="14.092263724750369"><ele>390.8</ele><time>2026-04-09T10:35:14.999Z</time></trkpt><trkpt lat="37.92846509719711" lon="14.092202731208179"><ele>391.0</ele><time>2026-04-09T10:35:15.999Z</time></trkpt><trkpt lat="37.92855401192591" lon="14.092141144353562"><ele>391.0</ele><time>2026-04-09T10:35:16.999Z</time></trkpt><trkpt lat="37.928658153751876" lon="14.092071450582974"><ele>391.0</ele><time>2026-04-09T10:35:17.999Z</time></trkpt><trkpt lat="37.92876284744433" lon="14.09199830030784"><ele>391.0</ele><time>2026-04-09T10:35:18.999Z</time></trkpt><trkpt lat="37.92886087477142" lon="14.091924641233122"><ele>391.0</ele><time>2026-04-09T10:35:19.999Z</time></trkpt><trkpt lat="37.92895662368481" lon="14.091851782902893"><ele>391.0</ele><time>2026-04-09T10:35:20.999Z</time></trkpt><trkpt lat="37.92905692416939" lon="14.091774106307957"><ele>391.0</ele><time>2026-04-09T10:35:21.999Z</time></trkpt><trkpt lat="37.929168967972245" lon="14.091717693304542"><ele>391.0</ele><time>2026-04-09T10:35:22.999Z</time></trkpt><trkpt lat="37.92926917040647" lon="14.091645778496703"><ele>391.0</ele><time>2026-04-09T10:35:23.999Z</time></trkpt><trkpt lat="37.92935657550968" lon="14.091562487097436"><ele>391.8</ele><time>2026-04-09T10:35:24.999Z</time></trkpt><trkpt lat="37.92944533089364" lon="14.09149751029696"><ele>392.6</ele><time>2026-04-09T10:35:25.999Z</time></trkpt><trkpt lat="37.9295307863155" lon="14.091436170478252"><ele>393.4</ele><time>2026-04-09T10:35:26.999Z</time></trkpt><trkpt lat="37.92962061231792" lon="14.091393550284632"><ele>394.2</ele><time>2026-04-09T10:35:27.999Z</time></trkpt><trkpt lat="37.92970185707493" lon="14.091335025550999"><ele>395.0</ele><time>2026-04-09T10:35:28.999Z</time></trkpt><trkpt lat="37.92978411000751" lon="14.091275750569638"><ele>394.99999999999994</ele><time>2026-04-09T10:35:29.999Z</time></trkpt><trkpt lat="37.929865692335895" lon="14.091216958883878"><ele>395.0</ele><time>2026-04-09T10:35:30.999Z</time></trkpt><trkpt lat="37.92993882077595" lon="14.09116425945554"><ele>395.0</ele><time>2026-04-09T10:35:31.999Z</time></trkpt><trkpt lat="37.930015968539145" lon="14.091108664155628"><ele>395.0</ele><time>2026-04-09T10:35:32.999Z</time></trkpt><trkpt lat="37.93009333017507" lon="14.091053160866027"><ele>394.99999999999994</ele><time>2026-04-09T10:35:33.999Z</time></trkpt><trkpt lat="37.930162744112444" lon="14.091003341801558"><ele>395.0</ele><time>2026-04-09T10:35:34.999Z</time></trkpt><trkpt lat="37.93022334145164" lon="14.09095984945509"><ele>394.8333333333333</ele><time>2026-04-09T10:35:35.999Z</time></trkpt><trkpt lat="37.930287580112655" lon="14.090913743625624"><ele>394.66666666666663</ele><time>2026-04-09T10:35:36.999Z</time></trkpt><trkpt lat="37.93036396088746" lon="14.090858923072222"><ele>394.5</ele><time>2026-04-09T10:35:37.999Z</time></trkpt><trkpt lat="37.930449530107026" lon="14.090797507723162"><ele>394.33333333333337</ele><time>2026-04-09T10:35:38.999Z</time></trkpt><trkpt lat="37.93052991411835" lon="14.090739813943488"><ele>394.1666666666667</ele><time>2026-04-09T10:35:39.999Z</time></trkpt><trkpt lat="37.93060353766434" lon="14.090687195949656"><ele>394.0</ele><time>2026-04-09T10:35:40.999Z</time></trkpt><trkpt lat="37.93067426168795" lon="14.090636743570238"><ele>394.00000000000006</ele><time>2026-04-09T10:35:41.999Z</time></trkpt><trkpt lat="37.930742424830186" lon="14.090588118048172"><ele>394.0</ele><time>2026-04-09T10:35:42.999Z</time></trkpt><trkpt lat="37.93080850537886" lon="14.090540978183503"><ele>394.0</ele><time>2026-04-09T10:35:43.999Z</time></trkpt><trkpt lat="37.93087138360298" lon="14.090496122759415"><ele>394.0</ele><time>2026-04-09T10:35:44.999Z</time></trkpt><trkpt lat="37.93093212328409" lon="14.090452792909238"><ele>394.00000000000006</ele><time>2026-04-09T10:35:45.999Z</time></trkpt><trkpt lat="37.93099679867617" lon="14.0904066554217"><ele>394.0</ele><time>2026-04-09T10:35:46.999Z</time></trkpt><trkpt lat="37.931061043662076" lon="14.090337646028374"><ele>392.83333333333337</ele><time>2026-04-09T10:35:47.999Z</time></trkpt><trkpt lat="37.93113352831324" lon="14.090289198416656"><ele>391.6666666666667</ele><time>2026-04-09T10:35:48.999Z</time></trkpt><trkpt lat="37.931208990845704" lon="14.090243916121494"><ele>390.5</ele><time>2026-04-09T10:35:49.999Z</time></trkpt><trkpt lat="37.9312910037229" lon="14.090210957825773"><ele>389.33333333333337</ele><time>2026-04-09T10:35:51Z</time></trkpt><trkpt lat="37.93136898578686" lon="14.090194192953916"><ele>388.1666666666667</ele><time>2026-04-09T10:35:52Z</time></trkpt><trkpt lat="37.931447620241514" lon="14.090196059645063"><ele>387.0</ele><time>2026-04-09T10:35:53Z</time></trkpt><trkpt lat="37.93152780696083" lon="14.090214178958737"><ele>387.0</ele><time>2026-04-09T10:35:54Z</time></trkpt><trkpt lat="37.93161294566343" lon="14.090240853245229"><ele>387.0</ele><time>2026-04-09T10:35:55Z</time></trkpt><trkpt lat="37.93168736872156" lon="14.090264272187289"><ele>387.0</ele><time>2026-04-09T10:35:56Z</time></trkpt><trkpt lat="37.931750603004936" lon="14.090286335502048"><ele>387.0</ele><time>2026-04-09T10:35:57Z</time></trkpt><trkpt lat="37.931859386539124" lon="14.09031493654677"><ele>387.0</ele><time>2026-04-09T10:35:59Z</time></trkpt><trkpt lat="37.931963653910586" lon="14.090325785682781"><ele>387.0</ele><time>2026-04-09T10:36:01Z</time></trkpt><trkpt lat="37.9320545541532" lon="14.090275721883076"><ele>385.40000000000003</ele><time>2026-04-09T10:36:03Z</time></trkpt><trkpt lat="37.93213155281604" lon="14.090216425920472"><ele>383.8</ele><time>2026-04-09T10:36:05.999Z</time></trkpt><trkpt lat="37.93219776850387" lon="14.090068395654436"><ele>382.2</ele><time>2026-04-09T10:36:07.999Z</time></trkpt><trkpt lat="37.93221446664795" lon="14.089961598689124"><ele>380.6</ele><time>2026-04-09T10:36:08.999Z</time></trkpt><trkpt lat="37.93222589834502" lon="14.089878641485049"><ele>379.0</ele><time>2026-04-09T10:36:09.999Z</time></trkpt><trkpt lat="37.93218870270264" lon="14.089793135177427"><ele>379.0</ele><time>2026-04-09T10:36:10.999Z</time></trkpt><trkpt lat="37.93211166401755" lon="14.089649417888184"><ele>379.0</ele><time>2026-04-09T10:36:12.999Z</time></trkpt><trkpt lat="37.93205298778283" lon="14.089562001683166"><ele>379.0</ele><time>2026-04-09T10:36:13.999Z</time></trkpt><trkpt lat="37.93198056373685" lon="14.08949385275948"><ele>379.0</ele><time>2026-04-09T10:36:14.999Z</time></trkpt><trkpt lat="37.93193671434312" lon="14.089408144146361"><ele>379.0</ele><time>2026-04-09T10:36:15.999Z</time></trkpt><trkpt lat="37.931905928314144" lon="14.089251360861692"><ele>379.0</ele><time>2026-04-09T10:36:17.999Z</time></trkpt><trkpt lat="37.93195769334263" lon="14.089174052982118"><ele>379.0</ele><time>2026-04-09T10:36:18.999Z</time></trkpt><trkpt lat="37.9319985637524" lon="14.089092074467125"><ele>379.0</ele><time>2026-04-09T10:36:19.999Z</time></trkpt><trkpt lat="37.93202557245387" lon="14.088997291513246"><ele>379.0</ele><time>2026-04-09T10:36:20.999Z</time></trkpt><trkpt lat="37.93206413427574" lon="14.088902914992042"><ele>379.0</ele><time>2026-04-09T10:36:21.999Z</time></trkpt><trkpt lat="37.93210048093349" lon="14.088820032765536"><ele>379.0</ele><time>2026-04-09T10:36:22.999Z</time></trkpt><trkpt lat="37.932140554234685" lon="14.088749994050378"><ele>381.0</ele><time>2026-04-09T10:36:25.999Z</time></trkpt><trkpt lat="37.93217760651437" lon="14.088675530634797"><ele>383.0</ele><time>2026-04-09T10:36:34.999Z</time></trkpt><trkpt lat="37.932236152031514" lon="14.0886187447296"><ele>385.0</ele><time>2026-04-09T10:36:37.999Z</time></trkpt><trkpt lat="37.93237852220952" lon="14.08862068225887"><ele>387.0</ele><time>2026-04-09T10:36:39.999Z</time></trkpt><trkpt lat="37.93246832659677" lon="14.08867876142874"><ele>389.0</ele><time>2026-04-09T10:36:40.999Z</time></trkpt><trkpt lat="37.93255878542378" lon="14.088740576810894"><ele>390.2</ele><time>2026-04-09T10:36:41.999Z</time></trkpt><trkpt lat="37.93265755125744" lon="14.088800603610672"><ele>391.4</ele><time>2026-04-09T10:36:42.999Z</time></trkpt><trkpt lat="37.93274406346385" lon="14.088876170273007"><ele>392.6</ele><time>2026-04-09T10:36:43.999Z</time></trkpt><trkpt lat="37.932835274617815" lon="14.088916952977574"><ele>393.8</ele><time>2026-04-09T10:36:44.999Z</time></trkpt><trkpt lat="37.93292286125445" lon="14.088985288549312"><ele>395.0</ele><time>2026-04-09T10:36:45.999Z</time></trkpt><trkpt lat="37.93299334051229" lon="14.08903311217621"><ele>395.0</ele><time>2026-04-09T10:36:46.999Z</time></trkpt><trkpt lat="37.93308636870116" lon="14.089085509474799"><ele>395.0</ele><time>2026-04-09T10:36:48.999Z</time></trkpt><trkpt lat="37.933136500220535" lon="14.089134320346247"><ele>395.0</ele><time>2026-04-09T10:36:51.999Z</time></trkpt><trkpt lat="37.93324448806838" lon="14.089205299397495"><ele>395.0</ele><time>2026-04-09T10:36:53.999Z</time></trkpt><trkpt lat="37.9333364036139" lon="14.08924957402031"><ele>395.0</ele><time>2026-04-09T10:36:55.999Z</time></trkpt><trkpt lat="37.933403299001746" lon="14.089309683827306"><ele>393.99999999999994</ele><time>2026-04-09T10:37:07.999Z</time></trkpt><trkpt lat="37.93350772788516" lon="14.089355225158927"><ele>393.0</ele><time>2026-04-09T10:37:09.999Z</time></trkpt><trkpt lat="37.93361170999933" lon="14.089445495173193"><ele>392.0</ele><time>2026-04-09T10:37:11.999Z</time></trkpt><trkpt lat="37.933663215489375" lon="14.089491572827827"><ele>391.0</ele><time>2026-04-09T10:37:12.999Z</time></trkpt><trkpt lat="37.933713537178505" lon="14.089543970477827"><ele>389.99999999999994</ele><time>2026-04-09T10:37:13.999Z</time></trkpt><trkpt lat="37.933766380808606" lon="14.089600168880146"><ele>389.0</ele><time>2026-04-09T10:37:14.999Z</time></trkpt><trkpt lat="37.93380740524286" lon="14.089676431951057"><ele>389.0</ele><time>2026-04-09T10:37:15.999Z</time></trkpt><trkpt lat="37.93385340310387" lon="14.089732458415666"><ele>389.0</ele><time>2026-04-09T10:37:16.999Z</time></trkpt><trkpt lat="37.93390062234398" lon="14.089790163216398"><ele>389.0</ele><time>2026-04-09T10:37:17.999Z</time></trkpt><trkpt lat="37.93395819810815" lon="14.089836618464384"><ele>389.0</ele><time>2026-04-09T10:37:18.999Z</time></trkpt><trkpt lat="37.934004826448316" lon="14.089900564234323"><ele>389.0</ele><time>2026-04-09T10:37:19.999Z</time></trkpt><trkpt lat="37.9340533472022" lon="14.089959114083587"><ele>389.0</ele><time>2026-04-09T10:37:20.999Z</time></trkpt><trkpt lat="37.93413794668541" lon="14.090053522015562"><ele>389.0</ele><time>2026-04-09T10:37:22.999Z</time></trkpt><trkpt lat="37.93420450098313" lon="14.090124466337045"><ele>387.2</ele><time>2026-04-09T10:37:24.999Z</time></trkpt><trkpt lat="37.934253742569545" lon="14.090182827285116"><ele>385.4</ele><time>2026-04-09T10:37:26.999Z</time></trkpt><trkpt lat="37.934288244604275" lon="14.090261818946887"><ele>383.6</ele><time>2026-04-09T10:37:28.999Z</time></trkpt><trkpt lat="37.93436660601474" lon="14.090354780842494"><ele>381.8</ele><time>2026-04-09T10:37:30.999Z</time></trkpt><trkpt lat="37.93443332518472" lon="14.090434474110838"><ele>380.0</ele><time>2026-04-09T10:37:31.999Z</time></trkpt><trkpt lat="37.9345166646872" lon="14.090536511194552"><ele>380.0</ele><time>2026-04-09T10:37:32.999Z</time></trkpt><trkpt lat="37.93462234636993" lon="14.090666149903104"><ele>380.0</ele><time>2026-04-09T10:37:33.999Z</time></trkpt><trkpt lat="37.934723147624204" lon="14.090789801845519"><ele>380.0</ele><time>2026-04-09T10:37:34.999Z</time></trkpt><trkpt lat="37.934812710046096" lon="14.090899667215705"><ele>380.0</ele><time>2026-04-09T10:37:35.999Z</time></trkpt><trkpt lat="37.934899383755535" lon="14.091005989920072"><ele>378.0</ele><time>2026-04-09T10:37:36.999Z</time></trkpt><trkpt lat="37.93497750110617" lon="14.091101815846299"><ele>376.0</ele><time>2026-04-09T10:37:37.999Z</time></trkpt><trkpt lat="37.935044505063765" lon="14.091184008947042"><ele>374.0</ele><time>2026-04-09T10:37:38.999Z</time></trkpt><trkpt lat="37.93509752293639" lon="14.091248396883683"><ele>372.0</ele><time>2026-04-09T10:37:39.999Z</time></trkpt><trkpt lat="37.93514775210285" lon="14.091309227487844"><ele>370.0</ele><time>2026-04-09T10:37:40.999Z</time></trkpt><trkpt lat="37.93520625637274" lon="14.09138007972465"><ele>368.0</ele><time>2026-04-09T10:37:41.999Z</time></trkpt><trkpt lat="37.93528580311606" lon="14.091476415713645"><ele>367.75</ele><time>2026-04-09T10:37:42.999Z</time></trkpt><trkpt lat="37.93537444186597" lon="14.091583762664051"><ele>367.5</ele><time>2026-04-09T10:37:43.999Z</time></trkpt><trkpt lat="37.93548689489005" lon="14.091676731392644"><ele>367.25</ele><time>2026-04-09T10:37:44.999Z</time></trkpt><trkpt lat="37.93557510814472" lon="14.091794357466531"><ele>367.0</ele><time>2026-04-09T10:37:45.999Z</time></trkpt><trkpt lat="37.93565138890164" lon="14.09192139632828"><ele>365.25</ele><time>2026-04-09T10:37:46.999Z</time></trkpt><trkpt lat="37.93572852055162" lon="14.09203666187353"><ele>363.5</ele><time>2026-04-09T10:37:47.999Z</time></trkpt><trkpt lat="37.9358368389954" lon="14.092144489712178"><ele>361.75</ele><time>2026-04-09T10:37:48.999Z</time></trkpt><trkpt lat="37.93592657075163" lon="14.0922537843897"><ele>360.0</ele><time>2026-04-09T10:37:49.999Z</time></trkpt><trkpt lat="37.93601197202499" lon="14.092357804445946"><ele>359.0</ele><time>2026-04-09T10:37:50.999Z</time></trkpt><trkpt lat="37.93609659785062" lon="14.092460880011325"><ele>358.0</ele><time>2026-04-09T10:37:51.999Z</time></trkpt><trkpt lat="37.936173593680465" lon="14.092554475869028"><ele>357.0</ele><time>2026-04-09T10:37:52.999Z</time></trkpt><trkpt lat="37.93623835487033" lon="14.092632645384942"><ele>356.0</ele><time>2026-04-09T10:37:53.999Z</time></trkpt><trkpt lat="37.93630571507392" lon="14.092713952036966"><ele>355.0</ele><time>2026-04-09T10:37:54.999Z</time></trkpt><trkpt lat="37.93637885342732" lon="14.092802233140157"><ele>355.0</ele><time>2026-04-09T10:37:55.999Z</time></trkpt><trkpt lat="37.93646644428949" lon="14.092907959062154"><ele>355.0</ele><time>2026-04-09T10:37:56.999Z</time></trkpt><trkpt lat="37.936577054348525" lon="14.09304222177393"><ele>355.0</ele><time>2026-04-09T10:37:57.999Z</time></trkpt><trkpt lat="37.93670237053971" lon="14.09319441276392"><ele>355.0</ele><time>2026-04-09T10:37:58.999Z</time></trkpt><trkpt lat="37.936820292423974" lon="14.093337623684336"><ele>354.0</ele><time>2026-04-09T10:37:59.999Z</time></trkpt><trkpt lat="37.93692759094293" lon="14.093467277534035"><ele>353.0</ele><time>2026-04-09T10:38:00.999Z</time></trkpt><trkpt lat="37.93702502917892" lon="14.093584751501691"><ele>352.0</ele><time>2026-04-09T10:38:01.999Z</time></trkpt><trkpt lat="37.937109776081" lon="14.093683704331601"><ele>351.0</ele><time>2026-04-09T10:38:02.999Z</time></trkpt><trkpt lat="37.93718364882158" lon="14.09375526809405"><ele>351.0</ele><time>2026-04-09T10:38:03.999Z</time></trkpt><trkpt lat="37.9372463606122" lon="14.093807361433177"><ele>351.0</ele><time>2026-04-09T10:38:04.999Z</time></trkpt><trkpt lat="37.937308637040985" lon="14.093853507095947"><ele>351.0</ele><time>2026-04-09T10:38:05.999Z</time></trkpt><trkpt lat="37.93738335676138" lon="14.093894982165319"><ele>351.0</ele><time>2026-04-09T10:38:06.999Z</time></trkpt><trkpt lat="37.9374624403003" lon="14.093930156132947"><ele>351.0</ele><time>2026-04-09T10:38:07.999Z</time></trkpt><trkpt lat="37.93758273930956" lon="14.093958806866752"><ele>351.0</ele><time>2026-04-09T10:38:08.999Z</time></trkpt><trkpt lat="37.93772395184543" lon="14.09396034986539"><ele>351.3333333333333</ele><time>2026-04-09T10:38:09.999Z</time></trkpt><trkpt lat="37.9378648868777" lon="14.09392740905686"><ele>351.66666666666663</ele><time>2026-04-09T10:38:10.999Z</time></trkpt><trkpt lat="37.938026329893184" lon="14.093922844542528"><ele>352.0</ele><time>2026-04-09T10:38:11.999Z</time></trkpt><trkpt lat="37.93820877944277" lon="14.093889771585362"><ele>349.3333333333333</ele><time>2026-04-09T10:38:12.999Z</time></trkpt><trkpt lat="37.93841959990427" lon="14.09385089619766"><ele>346.6666666666667</ele><time>2026-04-09T10:38:13.999Z</time></trkpt><trkpt lat="37.93862671957179" lon="14.093795277920185"><ele>344.0</ele><time>2026-04-09T10:38:14.999Z</time></trkpt><trkpt lat="37.93885157489389" lon="14.093757217379473"><ele>344.0</ele><time>2026-04-09T10:38:15.999Z</time></trkpt><trkpt lat="37.939074730758286" lon="14.093711975844199"><ele>344.0</ele><time>2026-04-09T10:38:16.999Z</time></trkpt><trkpt lat="37.93928179171655" lon="14.093670401251932"><ele>344.0</ele><time>2026-04-09T10:38:17.999Z</time></trkpt><trkpt lat="37.93948217421715" lon="14.093632244977941"><ele>341.0</ele><time>2026-04-09T10:38:18.999Z</time></trkpt><trkpt lat="37.939670289633476" lon="14.093593375272867"><ele>338.0</ele><time>2026-04-09T10:38:19.999Z</time></trkpt><trkpt lat="37.939844251172474" lon="14.093552984941956"><ele>335.0</ele><time>2026-04-09T10:38:20.999Z</time></trkpt><trkpt lat="37.939995968878875" lon="14.093522693051943"><ele>333.5</ele><time>2026-04-09T10:38:21.999Z</time></trkpt><trkpt lat="37.94014100794105" lon="14.093507261825316"><ele>332.0</ele><time>2026-04-09T10:38:22.999Z</time></trkpt><trkpt lat="37.94029361491196" lon="14.09352623303672"><ele>330.5</ele><time>2026-04-09T10:38:23.999Z</time></trkpt><trkpt lat="37.940438406547706" lon="14.093577290787564"><ele>329.0</ele><time>2026-04-09T10:38:24.999Z</time></trkpt><trkpt lat="37.94057073455143" lon="14.093660661956118"><ele>329.0</ele><time>2026-04-09T10:38:25.999Z</time></trkpt><trkpt lat="37.94068509773581" lon="14.09377608492715"><ele>329.0</ele><time>2026-04-09T10:38:26.999Z</time></trkpt><trkpt lat="37.940780008611426" lon="14.093901210642702"><ele>329.0</ele><time>2026-04-09T10:38:27.999Z</time></trkpt><trkpt lat="37.94083556138693" lon="14.094033844992657"><ele>329.0</ele><time>2026-04-09T10:38:28.999Z</time></trkpt><trkpt lat="37.94086363294698" lon="14.094195330550358"><ele>328.25</ele><time>2026-04-09T10:38:29.999Z</time></trkpt><trkpt lat="37.94085836768532" lon="14.094365861955968"><ele>327.5</ele><time>2026-04-09T10:38:30.999Z</time></trkpt><trkpt lat="37.94081870101611" lon="14.094527058586714"><ele>326.75</ele><time>2026-04-09T10:38:31.999Z</time></trkpt><trkpt lat="37.940747957602355" lon="14.094698825523732"><ele>326.0</ele><time>2026-04-09T10:38:32.999Z</time></trkpt><trkpt lat="37.94065486784102" lon="14.094912463675026"><ele>325.5</ele><time>2026-04-09T10:38:33.999Z</time></trkpt><trkpt lat="37.94054818086982" lon="14.095157306988352"><ele>325.0</ele><time>2026-04-09T10:38:34.999Z</time></trkpt><trkpt lat="37.94043386248209" lon="14.095427145112778"><ele>325.0</ele><time>2026-04-09T10:38:35.999Z</time></trkpt><trkpt lat="37.94030815358204" lon="14.095717768577666"><ele>325.0</ele><time>2026-04-09T10:38:36.999Z</time></trkpt><trkpt lat="37.94019884256062" lon="14.096012258028981"><ele>325.0</ele><time>2026-04-09T10:38:37.999Z</time></trkpt><trkpt lat="37.94008651191556" lon="14.096269900610537"><ele>325.0</ele><time>2026-04-09T10:38:38.999Z</time></trkpt><trkpt lat="37.93998051997168" lon="14.096514451138532"><ele>323.0</ele><time>2026-04-09T10:38:39.999Z</time></trkpt><trkpt lat="37.93987735990809" lon="14.09675222975193"><ele>321.0</ele><time>2026-04-09T10:38:40.999Z</time></trkpt><trkpt lat="37.939779483231945" lon="14.09697446901192"><ele>319.0</ele><time>2026-04-09T10:38:41.999Z</time></trkpt><trkpt lat="37.93969211643349" lon="14.097164960780098"><ele>319.0</ele><time>2026-04-09T10:38:42.999Z</time></trkpt><trkpt lat="37.939619352350505" lon="14.097314814856736"><ele>319.0</ele><time>2026-04-09T10:38:43.999Z</time></trkpt><trkpt lat="37.939560665665574" lon="14.097452679327528"><ele>319.0</ele><time>2026-04-09T10:38:44.999Z</time></trkpt><trkpt lat="37.93953180701603" lon="14.09759330010824"><ele>319.0</ele><time>2026-04-09T10:38:45.999Z</time></trkpt><trkpt lat="37.93955015416096" lon="14.097752296995132"><ele>317.0</ele><time>2026-04-09T10:38:46.999Z</time></trkpt><trkpt lat="37.93964247907304" lon="14.09789513852924"><ele>315.0</ele><time>2026-04-09T10:38:47.999Z</time></trkpt><trkpt lat="37.93973415141055" lon="14.098007677289898"><ele>313.0</ele><time>2026-04-09T10:38:48.999Z</time></trkpt><trkpt lat="37.93985876279203" lon="14.098077583642187"><ele>311.0</ele><time>2026-04-09T10:38:49.999Z</time></trkpt><trkpt lat="37.93999995120105" lon="14.098104934187944"><ele>308.6666666666667</ele><time>2026-04-09T10:38:50.999Z</time></trkpt><trkpt lat="37.94015877503256" lon="14.098082483168668"><ele>306.3333333333333</ele><time>2026-04-09T10:38:51.999Z</time></trkpt><trkpt lat="37.94033982476555" lon="14.098031165691035"><ele>304.0</ele><time>2026-04-09T10:38:52.999Z</time></trkpt><trkpt lat="37.94054055232867" lon="14.097971876217148"><ele>304.0</ele><time>2026-04-09T10:38:53.999Z</time></trkpt><trkpt lat="37.940735151910765" lon="14.097918783705214"><ele>304.0</ele><time>2026-04-09T10:38:54.999Z</time></trkpt><trkpt lat="37.940915203890114" lon="14.097877658424522"><ele>304.0</ele><time>2026-04-09T10:38:55.999Z</time></trkpt><trkpt lat="37.94107961272935" lon="14.097860059631492"><ele>301.75</ele><time>2026-04-09T10:38:56.999Z</time></trkpt><trkpt lat="37.94122243214909" lon="14.097839575424066"><ele>299.5</ele><time>2026-04-09T10:38:57.999Z</time></trkpt><trkpt lat="37.94135281942014" lon="14.097787964196973"><ele>297.25</ele><time>2026-04-09T10:38:58.999Z</time></trkpt><trkpt lat="37.94148721348302" lon="14.097702663070688"><ele>295.0</ele><time>2026-04-09T10:38:59.999Z</time></trkpt><trkpt lat="37.94163420455672" lon="14.09757121119748"><ele>292.3333333333333</ele><time>2026-04-09T10:39:00.999Z</time></trkpt><trkpt lat="37.9417971310518" lon="14.097411709318681"><ele>289.6666666666667</ele><time>2026-04-09T10:39:01.999Z</time></trkpt><trkpt lat="37.94197977700317" lon="14.097231426008024"><ele>287.0</ele><time>2026-04-09T10:39:02.999Z</time></trkpt><trkpt lat="37.942150973355275" lon="14.097080740427117"><ele>287.0</ele><time>2026-04-09T10:39:03.999Z</time></trkpt><trkpt lat="37.9422890390747" lon="14.096970553916426"><ele>287.0</ele><time>2026-04-09T10:39:04.999Z</time></trkpt><trkpt lat="37.94240362555897" lon="14.096881772808457"><ele>287.0</ele><time>2026-04-09T10:39:05.999Z</time></trkpt><trkpt lat="37.94250600975678" lon="14.096788498084749"><ele>287.0</ele><time>2026-04-09T10:39:06.999Z</time></trkpt><trkpt lat="37.94256877677084" lon="14.09666903413276"><ele>283.0</ele><time>2026-04-09T10:39:07.999Z</time></trkpt><trkpt lat="37.94260590612637" lon="14.096516239987361"><ele>279.0</ele><time>2026-04-09T10:39:08.999Z</time></trkpt><trkpt lat="37.94261148957826" lon="14.096353337962695"><ele>275.0</ele><time>2026-04-09T10:39:09.999Z</time></trkpt><trkpt lat="37.94260691798801" lon="14.096215583490508"><ele>271.0</ele><time>2026-04-09T10:39:10.999Z</time></trkpt><trkpt lat="37.942667522197496" lon="14.096116541495745"><ele>271.0</ele><time>2026-04-09T10:39:11.999Z</time></trkpt><trkpt lat="37.94276156077267" lon="14.096036948884432"><ele>271.0</ele><time>2026-04-09T10:39:12.999Z</time></trkpt><trkpt lat="37.942881336595974" lon="14.095902257182244"><ele>271.0</ele><time>2026-04-09T10:39:13.999Z</time></trkpt><trkpt lat="37.943045461352774" lon="14.095756891515308"><ele>267.0</ele><time>2026-04-09T10:39:14.999Z</time></trkpt><trkpt lat="37.94321100580143" lon="14.0955967940739"><ele>263.0</ele><time>2026-04-09T10:39:15.999Z</time></trkpt><trkpt lat="37.94336824358409" lon="14.095443278493327"><ele>259.0</ele><time>2026-04-09T10:39:16.999Z</time></trkpt><trkpt lat="37.943506878182276" lon="14.09531303309448"><ele>259.0</ele><time>2026-04-09T10:39:17.999Z</time></trkpt><trkpt lat="37.94362244512853" lon="14.095201836507401"><ele>259.0</ele><time>2026-04-09T10:39:18.999Z</time></trkpt><trkpt lat="37.94371152336624" lon="14.095084466706224"><ele>259.0</ele><time>2026-04-09T10:39:19.999Z</time></trkpt><trkpt lat="37.943770821137996" lon="14.094930474475683"><ele>259.0</ele><time>2026-04-09T10:39:20.999Z</time></trkpt><trkpt lat="37.94380013848451" lon="14.094728237374024"><ele>257.3333333333333</ele><time>2026-04-09T10:39:21.999Z</time></trkpt><trkpt lat="37.94380473572091" lon="14.094497617421917"><ele>255.66666666666669</ele><time>2026-04-09T10:39:22.999Z</time></trkpt><trkpt lat="37.94377780916982" lon="14.094266298174093"><ele>254.0</ele><time>2026-04-09T10:39:23.999Z</time></trkpt><trkpt lat="37.94372403848248" lon="14.094039501504778"><ele>252.0</ele><time>2026-04-09T10:39:24.999Z</time></trkpt><trkpt lat="37.94367668767298" lon="14.093841804790241"><ele>250.0</ele><time>2026-04-09T10:39:25.999Z</time></trkpt><trkpt lat="37.94368596460331" lon="14.093650566468773"><ele>248.0</ele><time>2026-04-09T10:39:26.999Z</time></trkpt><trkpt lat="37.94368188609718" lon="14.093468359463575"><ele>248.0</ele><time>2026-04-09T10:39:27.999Z</time></trkpt><trkpt lat="37.94367592304404" lon="14.093301186634426"><ele>248.0</ele><time>2026-04-09T10:39:28.999Z</time></trkpt><trkpt lat="37.943616956892924" lon="14.09315214425194"><ele>248.0</ele><time>2026-04-09T10:39:29.999Z</time></trkpt><trkpt lat="37.94350387236628" lon="14.093008055691522"><ele>248.0</ele><time>2026-04-09T10:39:30.999Z</time></trkpt><trkpt lat="37.94340906294594" lon="14.092857813346619"><ele>249.5</ele><time>2026-04-09T10:39:31.999Z</time></trkpt><trkpt lat="37.94334211184372" lon="14.092739937356285"><ele>251.0</ele><time>2026-04-09T10:39:32.999Z</time></trkpt><trkpt lat="37.94330537551095" lon="14.092612236939425"><ele>252.5</ele><time>2026-04-09T10:39:33.999Z</time></trkpt><trkpt lat="37.943293702237504" lon="14.092442671901495"><ele>254.0</ele><time>2026-04-09T10:39:34.999Z</time></trkpt><trkpt lat="37.94331285217768" lon="14.092227542370633"><ele>254.0</ele><time>2026-04-09T10:39:35.999Z</time></trkpt><trkpt lat="37.94331361506712" lon="14.092025684134512"><ele>254.0</ele><time>2026-04-09T10:39:36.999Z</time></trkpt><trkpt lat="37.94331707558988" lon="14.09186414536131"><ele>254.0</ele><time>2026-04-09T10:39:37.999Z</time></trkpt><trkpt lat="37.94328166314576" lon="14.091706107055238"><ele>254.0</ele><time>2026-04-09T10:39:38.999Z</time></trkpt><trkpt lat="37.94319595769373" lon="14.091539621877054"><ele>251.66666666666669</ele><time>2026-04-09T10:39:39.999Z</time></trkpt><trkpt lat="37.9430557985161" lon="14.091375086197628"><ele>249.33333333333331</ele><time>2026-04-09T10:39:40.999Z</time></trkpt><trkpt lat="37.94294989720899" lon="14.091224449346212"><ele>247.0</ele><time>2026-04-09T10:39:41.999Z</time></trkpt><trkpt lat="37.9428670881142" lon="14.091100775667618"><ele>247.0</ele><time>2026-04-09T10:39:42.999Z</time></trkpt><trkpt lat="37.94282061855676" lon="14.090972701195675"><ele>247.0</ele><time>2026-04-09T10:39:43.999Z</time></trkpt><trkpt lat="37.942813127824365" lon="14.090806458396594"><ele>247.0</ele><time>2026-04-09T10:39:44.999Z</time></trkpt><trkpt lat="37.94281708894286" lon="14.09058034063581"><ele>247.0</ele><time>2026-04-09T10:39:45.999Z</time></trkpt><trkpt lat="37.9428124855122" lon="14.090316676881667"><ele>247.0</ele><time>2026-04-09T10:39:46.999Z</time></trkpt><trkpt lat="37.94281732079422" lon="14.090023624999066"><ele>247.0</ele><time>2026-04-09T10:39:47.999Z</time></trkpt><trkpt lat="37.94283620971535" lon="14.089722102285599"><ele>246.66666666666666</ele><time>2026-04-09T10:39:48.999Z</time></trkpt><trkpt lat="37.942823295373465" lon="14.089458330621207"><ele>246.33333333333331</ele><time>2026-04-09T10:39:49.999Z</time></trkpt><trkpt lat="37.942829328089914" lon="14.089257009084669"><ele>246.0</ele><time>2026-04-09T10:39:50.999Z</time></trkpt><trkpt lat="37.942838083005086" lon="14.089077734670742"><ele>248.0</ele><time>2026-04-09T10:39:51.999Z</time></trkpt><trkpt lat="37.942897342191074" lon="14.08891764777329"><ele>250.0</ele><time>2026-04-09T10:39:52.999Z</time></trkpt><trkpt lat="37.94297096119678" lon="14.088754912979747"><ele>252.0</ele><time>2026-04-09T10:39:53.999Z</time></trkpt><trkpt lat="37.94311497417461" lon="14.088627007347181"><ele>252.0</ele><time>2026-04-09T10:39:54.999Z</time></trkpt><trkpt lat="37.94326942245571" lon="14.08845666966983"><ele>252.0</ele><time>2026-04-09T10:39:55.999Z</time></trkpt><trkpt lat="37.94343531276745" lon="14.088320303390756"><ele>252.0</ele><time>2026-04-09T10:39:56.999Z</time></trkpt><trkpt lat="37.943569209322355" lon="14.088182427332288"><ele>251.0</ele><time>2026-04-09T10:39:57.999Z</time></trkpt><trkpt lat="37.943677640657725" lon="14.088029527715435"><ele>250.0</ele><time>2026-04-09T10:39:58.999Z</time></trkpt><trkpt lat="37.94375718000364" lon="14.087854381407698"><ele>249.0</ele><time>2026-04-09T10:39:59.999Z</time></trkpt><trkpt lat="37.943810502096845" lon="14.087697990052522"><ele>249.0</ele><time>2026-04-09T10:40:00.999Z</time></trkpt><trkpt lat="37.94388858564429" lon="14.08758876698953"><ele>249.0</ele><time>2026-04-09T10:40:01.999Z</time></trkpt><trkpt lat="37.94396289224768" lon="14.087501760077519"><ele>249.0</ele><time>2026-04-09T10:40:02.999Z</time></trkpt><trkpt lat="37.944073850286664" lon="14.08746938304196"><ele>249.0</ele><time>2026-04-09T10:40:03.999Z</time></trkpt><trkpt lat="37.94420823548967" lon="14.087510751074944"><ele>251.0</ele><time>2026-04-09T10:40:04.999Z</time></trkpt><trkpt lat="37.944380240191855" lon="14.087548785998218"><ele>253.0</ele><time>2026-04-09T10:40:05.999Z</time></trkpt><trkpt lat="37.94457529887137" lon="14.087628004290236"><ele>255.0</ele><time>2026-04-09T10:40:06.999Z</time></trkpt><trkpt lat="37.94480264062505" lon="14.087711584605616"><ele>255.0</ele><time>2026-04-09T10:40:07.999Z</time></trkpt><trkpt lat="37.945057466246" lon="14.087796521772528"><ele>255.0</ele><time>2026-04-09T10:40:08.999Z</time></trkpt><trkpt lat="37.9453146087432" lon="14.087885930816311"><ele>255.0</ele><time>2026-04-09T10:40:09.999Z</time></trkpt><trkpt lat="37.9455742905615" lon="14.087974242793594"><ele>255.0</ele><time>2026-04-09T10:40:10.999Z</time></trkpt><trkpt lat="37.9458038090451" lon="14.088051380828393"><ele>253.0</ele><time>2026-04-09T10:40:11.999Z</time></trkpt><trkpt lat="37.94600342149723" lon="14.088116738867585"><ele>251.0</ele><time>2026-04-09T10:40:12.999Z</time></trkpt><trkpt lat="37.94616686511437" lon="14.088174106992382"><ele>249.0</ele><time>2026-04-09T10:40:13.999Z</time></trkpt><trkpt lat="37.94630684088462" lon="14.088232610642601"><ele>247.75</ele><time>2026-04-09T10:40:14.999Z</time></trkpt><trkpt lat="37.94642451945254" lon="14.088316735697012"><ele>246.5</ele><time>2026-04-09T10:40:15.999Z</time></trkpt><trkpt lat="37.946518547175515" lon="14.08843889569944"><ele>245.25</ele><time>2026-04-09T10:40:16.999Z</time></trkpt><trkpt lat="37.946571938114715" lon="14.088607405009203"><ele>244.0</ele><time>2026-04-09T10:40:17.999Z</time></trkpt><trkpt lat="37.94662484486379" lon="14.088798016898915"><ele>244.0</ele><time>2026-04-09T10:40:18.999Z</time></trkpt><trkpt lat="37.94665760257196" lon="14.08904133220269"><ele>244.0</ele><time>2026-04-09T10:40:19.999Z</time></trkpt><trkpt lat="37.94670070695255" lon="14.08932456790043"><ele>244.0</ele><time>2026-04-09T10:40:20.999Z</time></trkpt><trkpt lat="37.946747915555456" lon="14.08962817283522"><ele>245.0</ele><time>2026-04-09T10:40:21.999Z</time></trkpt><trkpt lat="37.94679852732906" lon="14.089956557325047"><ele>246.0</ele><time>2026-04-09T10:40:22.999Z</time></trkpt><trkpt lat="37.946847460439756" lon="14.090283861168569"><ele>246.0</ele><time>2026-04-09T10:40:23.999Z</time></trkpt><trkpt lat="37.94689475350803" lon="14.090581605218789"><ele>246.0</ele><time>2026-04-09T10:40:24.999Z</time></trkpt><trkpt lat="37.9469402822715" lon="14.09085780198052"><ele>244.66666666666669</ele><time>2026-04-09T10:40:25.999Z</time></trkpt><trkpt lat="37.94697575324088" lon="14.091090935623127"><ele>243.33333333333334</ele><time>2026-04-09T10:40:26.999Z</time></trkpt><trkpt lat="37.94700891748778" lon="14.09128315990086"><ele>242.0</ele><time>2026-04-09T10:40:27.999Z</time></trkpt><trkpt lat="37.94702935698141" lon="14.091445835440556"><ele>240.66666666666669</ele><time>2026-04-09T10:40:28.999Z</time></trkpt><trkpt lat="37.94701118711448" lon="14.091610549514614"><ele>239.33333333333331</ele><time>2026-04-09T10:40:29.999Z</time></trkpt><trkpt lat="37.94692543541613" lon="14.091791101272316"><ele>238.0</ele><time>2026-04-09T10:40:30.999Z</time></trkpt><trkpt lat="37.94686488487658" lon="14.092024292621884"><ele>238.0</ele><time>2026-04-09T10:40:31.999Z</time></trkpt><trkpt lat="37.94677381615745" lon="14.092271600784908"><ele>238.0</ele><time>2026-04-09T10:40:32.999Z</time></trkpt><trkpt lat="37.946697899150216" lon="14.092488580177227"><ele>238.0</ele><time>2026-04-09T10:40:33.999Z</time></trkpt><trkpt lat="37.946633605528895" lon="14.092657510832092"><ele>237.2</ele><time>2026-04-09T10:40:34.999Z</time></trkpt><trkpt lat="37.94658846725218" lon="14.092791640127183"><ele>236.4</ele><time>2026-04-09T10:40:35.999Z</time></trkpt><trkpt lat="37.946572166955114" lon="14.092908163420665"><ele>235.59999999999997</ele><time>2026-04-09T10:40:36.999Z</time></trkpt><trkpt lat="37.94659516646939" lon="14.093020924128567"><ele>234.79999999999998</ele><time>2026-04-09T10:40:37.999Z</time></trkpt><trkpt lat="37.94666039165581" lon="14.093112047911019"><ele>234.0</ele><time>2026-04-09T10:40:38.999Z</time></trkpt><trkpt lat="37.94676582138413" lon="14.093159397443573"><ele>234.0</ele><time>2026-04-09T10:40:39.999Z</time></trkpt><trkpt lat="37.94690366387594" lon="14.093162419200203"><ele>234.0</ele><time>2026-04-09T10:40:40.999Z</time></trkpt><trkpt lat="37.94707748464361" lon="14.09315482260046"><ele>234.0</ele><time>2026-04-09T10:40:41.999Z</time></trkpt><trkpt lat="37.947247947494446" lon="14.093159756591042"><ele>234.0</ele><time>2026-04-09T10:40:42.999Z</time></trkpt><trkpt lat="37.947391449753816" lon="14.093189071555082"><ele>234.0</ele><time>2026-04-09T10:40:43.999Z</time></trkpt><trkpt lat="37.94753668799426" lon="14.093265820274215"><ele>234.0</ele><time>2026-04-09T10:40:44.999Z</time></trkpt><trkpt lat="37.94768138049832" lon="14.093384933275173"><ele>230.66666666666669</ele><time>2026-04-09T10:40:45.999Z</time></trkpt><trkpt lat="37.947805670664344" lon="14.09349017023865"><ele>227.33333333333334</ele><time>2026-04-09T10:40:46.999Z</time></trkpt><trkpt lat="37.9478985930397" lon="14.093625346128118"><ele>224.0</ele><time>2026-04-09T10:40:47.999Z</time></trkpt><trkpt lat="37.94798690311415" lon="14.093806295801372"><ele>224.0</ele><time>2026-04-09T10:40:48.999Z</time></trkpt><trkpt lat="37.94810944491024" lon="14.094006725393687"><ele>224.0</ele><time>2026-04-09T10:40:49.999Z</time></trkpt><trkpt lat="37.948224900451926" lon="14.094195357689433"><ele>224.0</ele><time>2026-04-09T10:40:50.999Z</time></trkpt><trkpt lat="37.94834822576095" lon="14.094361873805097"><ele>220.66666666666669</ele><time>2026-04-09T10:40:51.999Z</time></trkpt><trkpt lat="37.94851399437905" lon="14.094531142756665"><ele>217.33333333333331</ele><time>2026-04-09T10:40:52.999Z</time></trkpt><trkpt lat="37.94867117256041" lon="14.09467674233137"><ele>214.0</ele><time>2026-04-09T10:40:53.999Z</time></trkpt><trkpt lat="37.94879416222534" lon="14.094785813672042"><ele>214.0</ele><time>2026-04-09T10:40:54.999Z</time></trkpt><trkpt lat="37.94889188189499" lon="14.094876255700928"><ele>213.99999999999997</ele><time>2026-04-09T10:40:55.999Z</time></trkpt><trkpt lat="37.94897863356616" lon="14.094955895337453"><ele>213.99999999999997</ele><time>2026-04-09T10:40:56.999Z</time></trkpt><trkpt lat="37.949063514272844" lon="14.095013910881747"><ele>214.0</ele><time>2026-04-09T10:40:57.999Z</time></trkpt><trkpt lat="37.94915474656091" lon="14.095020661745195"><ele>214.0</ele><time>2026-04-09T10:40:58.999Z</time></trkpt><trkpt lat="37.9492456242876" lon="14.094963383715108"><ele>211.0</ele><time>2026-04-09T10:40:59.999Z</time></trkpt><trkpt lat="37.94932684273605" lon="14.094848416551455"><ele>208.0</ele><time>2026-04-09T10:41:00.999Z</time></trkpt><trkpt lat="37.94940758030921" lon="14.094695383996019"><ele>205.0</ele><time>2026-04-09T10:41:01.999Z</time></trkpt><trkpt lat="37.94947886898501" lon="14.094560876290224"><ele>202.0</ele><time>2026-04-09T10:41:02.999Z</time></trkpt><trkpt lat="37.94955578694988" lon="14.094455298724085"><ele>202.0</ele><time>2026-04-09T10:41:03.999Z</time></trkpt><trkpt lat="37.94964631412047" lon="14.09438756304386"><ele>202.0</ele><time>2026-04-09T10:41:04.999Z</time></trkpt><trkpt lat="37.94974909514845" lon="14.094374643746601"><ele>202.0</ele><time>2026-04-09T10:41:05.999Z</time></trkpt><trkpt lat="37.949872414590786" lon="14.094417929273748"><ele>202.0</ele><time>2026-04-09T10:41:06.999Z</time></trkpt><trkpt lat="37.95002796548912" lon="14.094525047112606"><ele>200.33333333333331</ele><time>2026-04-09T10:41:07.999Z</time></trkpt><trkpt lat="37.95020446395765" lon="14.094659764862207"><ele>198.66666666666669</ele><time>2026-04-09T10:41:08.999Z</time></trkpt><trkpt lat="37.95037253286069" lon="14.094771041186632"><ele>197.0</ele><time>2026-04-09T10:41:09.999Z</time></trkpt><trkpt lat="37.95057131849747" lon="14.094890363417026"><ele>200.0</ele><time>2026-04-09T10:41:10.999Z</time></trkpt><trkpt lat="37.95078835024472" lon="14.09502466536739"><ele>203.0</ele><time>2026-04-09T10:41:11.999Z</time></trkpt><trkpt lat="37.95100881853242" lon="14.09516796416905"><ele>206.0</ele><time>2026-04-09T10:41:12.999Z</time></trkpt><trkpt lat="37.95120123018375" lon="14.095289225347702"><ele>209.0</ele><time>2026-04-09T10:41:13.999Z</time></trkpt><trkpt lat="37.95137394334263" lon="14.095397457808103"><ele>212.0</ele><time>2026-04-09T10:41:14.999Z</time></trkpt><trkpt lat="37.95152496399651" lon="14.09549285152048"><ele>212.0</ele><time>2026-04-09T10:41:15.999Z</time></trkpt><trkpt lat="37.95166316083477" lon="14.095589113918514"><ele>212.0</ele><time>2026-04-09T10:41:16.999Z</time></trkpt><trkpt lat="37.951786666138" lon="14.095711586898055"><ele>212.0</ele><time>2026-04-09T10:41:17.999Z</time></trkpt><trkpt lat="37.951868593486815" lon="14.095813727153281"><ele>212.0</ele><time>2026-04-09T10:41:18.999Z</time></trkpt><trkpt lat="37.9519156853218" lon="14.095923548150076"><ele>213.0</ele><time>2026-04-09T10:41:19.999Z</time></trkpt><trkpt lat="37.95191838044556" lon="14.09605859139548"><ele>214.0</ele><time>2026-04-09T10:41:20.999Z</time></trkpt><trkpt lat="37.951866132396425" lon="14.096202282404857"><ele>215.0</ele><time>2026-04-09T10:41:21.999Z</time></trkpt><trkpt lat="37.95183254041296" lon="14.096368031760749"><ele>216.0</ele><time>2026-04-09T10:41:22.999Z</time></trkpt><trkpt lat="37.95176550375023" lon="14.096570691007846"><ele>214.25</ele><time>2026-04-09T10:41:23.999Z</time></trkpt><trkpt lat="37.95170212568958" lon="14.096766778085986"><ele>212.5</ele><time>2026-04-09T10:41:24.999Z</time></trkpt><trkpt lat="37.95165837815845" lon="14.096935399665114"><ele>210.75</ele><time>2026-04-09T10:41:25.999Z</time></trkpt><trkpt lat="37.951615786361586" lon="14.097097280956618"><ele>209.0</ele><time>2026-04-09T10:41:26.999Z</time></trkpt><trkpt lat="37.951614002122156" lon="14.097256907821572"><ele>209.0</ele><time>2026-04-09T10:41:27.999Z</time></trkpt><trkpt lat="37.95163719449216" lon="14.097413297174613"><ele>209.0</ele><time>2026-04-09T10:41:28.999Z</time></trkpt><trkpt lat="37.95169928424393" lon="14.097556104188778"><ele>209.0</ele><time>2026-04-09T10:41:29.999Z</time></trkpt><trkpt lat="37.95179825664622" lon="14.097677474324081"><ele>209.0</ele><time>2026-04-09T10:41:30.999Z</time></trkpt><trkpt lat="37.95193831528928" lon="14.097772610970244"><ele>211.0</ele><time>2026-04-09T10:41:31.999Z</time></trkpt><trkpt lat="37.952123242150705" lon="14.097852909329792"><ele>213.0</ele><time>2026-04-09T10:41:32.999Z</time></trkpt><trkpt lat="37.95231591883941" lon="14.097931042366488"><ele>215.0</ele><time>2026-04-09T10:41:33.999Z</time></trkpt><trkpt lat="37.95252932994866" lon="14.098029174526937"><ele>217.5</ele><time>2026-04-09T10:41:34.999Z</time></trkpt><trkpt lat="37.95275236566943" lon="14.098144647530445"><ele>220.0</ele><time>2026-04-09T10:41:35.999Z</time></trkpt><trkpt lat="37.95298187533652" lon="14.098271445664565"><ele>221.5</ele><time>2026-04-09T10:41:36.999Z</time></trkpt><trkpt lat="37.95322902744192" lon="14.09840915759509"><ele>223.0</ele><time>2026-04-09T10:41:37.999Z</time></trkpt><trkpt lat="37.953485706591515" lon="14.098548109907757"><ele>226.5</ele><time>2026-04-09T10:41:38.999Z</time></trkpt><trkpt lat="37.95373986808121" lon="14.098679105970467"><ele>230.0</ele><time>2026-04-09T10:41:39.999Z</time></trkpt><trkpt lat="37.953965169335554" lon="14.098791003531149"><ele>230.0</ele><time>2026-04-09T10:41:40.999Z</time></trkpt><trkpt lat="37.954155579259634" lon="14.09889125320671"><ele>230.0</ele><time>2026-04-09T10:41:41.999Z</time></trkpt><trkpt lat="37.9543222360546" lon="14.098980942387769"><ele>230.0</ele><time>2026-04-09T10:41:42.999Z</time></trkpt><trkpt lat="37.95447219355234" lon="14.099063231856503"><ele>232.0</ele><time>2026-04-09T10:41:43.999Z</time></trkpt><trkpt lat="37.95460249179051" lon="14.09917965941107"><ele>234.0</ele><time>2026-04-09T10:41:44.999Z</time></trkpt><trkpt lat="37.954706748565805" lon="14.099363728493834"><ele>236.0</ele><time>2026-04-09T10:41:45.999Z</time></trkpt><trkpt lat="37.95478591360997" lon="14.099564916656487"><ele>236.0</ele><time>2026-04-09T10:41:46.999Z</time></trkpt><trkpt lat="37.95484677029711" lon="14.099793604505756"><ele>236.0</ele><time>2026-04-09T10:41:47.999Z</time></trkpt><trkpt lat="37.95491732639568" lon="14.100068767747054"><ele>236.0</ele><time>2026-04-09T10:41:48.999Z</time></trkpt><trkpt lat="37.95499418391255" lon="14.100374344599736"><ele>240.0</ele><time>2026-04-09T10:41:49.999Z</time></trkpt><trkpt lat="37.95507482495648" lon="14.100695782320102"><ele>244.0</ele><time>2026-04-09T10:41:50.999Z</time></trkpt><trkpt lat="37.95516660873458" lon="14.100992783752044"><ele>244.0</ele><time>2026-04-09T10:41:51.999Z</time></trkpt><trkpt lat="37.95523794455039" lon="14.101289561538616"><ele>244.0</ele><time>2026-04-09T10:41:52.999Z</time></trkpt><trkpt lat="37.955299011379324" lon="14.101547914088309"><ele>244.33333333333331</ele><time>2026-04-09T10:41:53.999Z</time></trkpt><trkpt lat="37.95535665193676" lon="14.101779141007944"><ele>244.66666666666669</ele><time>2026-04-09T10:41:54.999Z</time></trkpt><trkpt lat="37.955399555206654" lon="14.101982621393969"><ele>245.0</ele><time>2026-04-09T10:41:55.999Z</time></trkpt><trkpt lat="37.95542994738915" lon="14.102150164204655"><ele>245.0</ele><time>2026-04-09T10:41:56.999Z</time></trkpt><trkpt lat="37.955462413175574" lon="14.102285022376067"><ele>245.0</ele><time>2026-04-09T10:41:57.999Z</time></trkpt><trkpt lat="37.955540424273885" lon="14.102400060917573"><ele>245.0</ele><time>2026-04-09T10:41:58.999Z</time></trkpt><trkpt lat="37.95565727911392" lon="14.102481125102967"><ele>245.0</ele><time>2026-04-09T10:41:59.999Z</time></trkpt><trkpt lat="37.95579807620499" lon="14.102500815811382"><ele>245.0</ele><time>2026-04-09T10:42:00.999Z</time></trkpt><trkpt lat="37.95594911963128" lon="14.102452433195452"><ele>245.0</ele><time>2026-04-09T10:42:01.999Z</time></trkpt><trkpt lat="37.956109835932104" lon="14.102351210302565"><ele>245.0</ele><time>2026-04-09T10:42:02.999Z</time></trkpt><trkpt lat="37.9562953275622" lon="14.102215741850703"><ele>245.0</ele><time>2026-04-09T10:42:03.999Z</time></trkpt><trkpt lat="37.956460008051955" lon="14.102104837925257"><ele>245.0</ele><time>2026-04-09T10:42:04.999Z</time></trkpt><trkpt lat="37.95660772917068" lon="14.102038170550331"><ele>245.0</ele><time>2026-04-09T10:42:05.999Z</time></trkpt><trkpt lat="37.95675147315021" lon="14.102038044014423"><ele>247.33333333333334</ele><time>2026-04-09T10:42:06.999Z</time></trkpt><trkpt lat="37.95690190633122" lon="14.102072898196214"><ele>249.66666666666669</ele><time>2026-04-09T10:42:07.999Z</time></trkpt><trkpt lat="37.95707388481477" lon="14.102146015234654"><ele>252.0</ele><time>2026-04-09T10:42:08.999Z</time></trkpt><trkpt lat="37.95727894831693" lon="14.102243068681808"><ele>252.0</ele><time>2026-04-09T10:42:09.999Z</time></trkpt><trkpt lat="37.957491431106696" lon="14.102332162952262"><ele>252.0</ele><time>2026-04-09T10:42:10.999Z</time></trkpt><trkpt lat="37.95772675793293" lon="14.102428527127596"><ele>249.66666666666669</ele><time>2026-04-09T10:42:11.999Z</time></trkpt><trkpt lat="37.95793870947582" lon="14.10247844105656"><ele>247.33333333333334</ele><time>2026-04-09T10:42:12.999Z</time></trkpt><trkpt lat="37.95816616033515" lon="14.102491605347348"><ele>245.0</ele><time>2026-04-09T10:42:13.999Z</time></trkpt><trkpt lat="37.95842230210728" lon="14.102471667387968"><ele>244.5</ele><time>2026-04-09T10:42:14.999Z</time></trkpt><trkpt lat="37.95869385087257" lon="14.102449321962352"><ele>244.0</ele><time>2026-04-09T10:42:15.999Z</time></trkpt><trkpt lat="37.95895779525552" lon="14.102429983661928"><ele>248.33333333333331</ele><time>2026-04-09T10:42:16.999Z</time></trkpt><trkpt lat="37.959190150814905" lon="14.102412112149036"><ele>252.66666666666669</ele><time>2026-04-09T10:42:17.999Z</time></trkpt><trkpt lat="37.95939184369526" lon="14.102394911055185"><ele>257.0</ele><time>2026-04-09T10:42:18.999Z</time></trkpt><trkpt lat="37.95954784082801" lon="14.102392640288889"><ele>257.0</ele><time>2026-04-09T10:42:19.999Z</time></trkpt><trkpt lat="37.959674338727076" lon="14.102382672250355"><ele>257.0</ele><time>2026-04-09T10:42:20.999Z</time></trkpt><trkpt lat="37.95980923412631" lon="14.102320801749102"><ele>257.0</ele><time>2026-04-09T10:42:21.999Z</time></trkpt><trkpt lat="37.959941733197766" lon="14.102164926175854"><ele>255.33333333333334</ele><time>2026-04-09T10:42:22.999Z</time></trkpt><trkpt lat="37.96008675468869" lon="14.10198046688415"><ele>253.66666666666669</ele><time>2026-04-09T10:42:23.999Z</time></trkpt><trkpt lat="37.96021035326702" lon="14.101817024156533"><ele>252.0</ele><time>2026-04-09T10:42:24.999Z</time></trkpt><trkpt lat="37.96032554730487" lon="14.10169319573365"><ele>252.0</ele><time>2026-04-09T10:42:25.999Z</time></trkpt><trkpt lat="37.960449491326486" lon="14.101620650293173"><ele>252.0</ele><time>2026-04-09T10:42:26.999Z</time></trkpt><trkpt lat="37.96059303435898" lon="14.10158894927724"><ele>252.0</ele><time>2026-04-09T10:42:27.999Z</time></trkpt><trkpt lat="37.960744972288374" lon="14.101634968858558"><ele>252.0</ele><time>2026-04-09T10:42:28.999Z</time></trkpt><trkpt lat="37.96092082740203" lon="14.101713724795584"><ele>251.0</ele><time>2026-04-09T10:42:29.999Z</time></trkpt><trkpt lat="37.96112130365962" lon="14.101793881839244"><ele>250.0</ele><time>2026-04-09T10:42:30.999Z</time></trkpt><trkpt lat="37.961275230984825" lon="14.101884810928265"><ele>249.0</ele><time>2026-04-09T10:42:31.999Z</time></trkpt><trkpt lat="37.96139902612625" lon="14.101937977892863"><ele>249.0</ele><time>2026-04-09T10:42:32.999Z</time></trkpt><trkpt lat="37.9615136936536" lon="14.101946198179437"><ele>249.0</ele><time>2026-04-09T10:42:33.999Z</time></trkpt><trkpt lat="37.96162899736556" lon="14.101898713951716"><ele>249.0</ele><time>2026-04-09T10:42:34.999Z</time></trkpt><trkpt lat="37.96172469915495" lon="14.101797095380489"><ele>249.0</ele><time>2026-04-09T10:42:35.999Z</time></trkpt><trkpt lat="37.96178000835298" lon="14.101641590957636"><ele>250.0</ele><time>2026-04-09T10:42:36.999Z</time></trkpt><trkpt lat="37.9617936046306" lon="14.101451978285983"><ele>251.0</ele><time>2026-04-09T10:42:37.999Z</time></trkpt><trkpt lat="37.96178516939966" lon="14.101243770604833"><ele>252.0</ele><time>2026-04-09T10:42:38.999Z</time></trkpt><trkpt lat="37.96176972545688" lon="14.101043627879285"><ele>252.0</ele><time>2026-04-09T10:42:39.999Z</time></trkpt><trkpt lat="37.96177175906408" lon="14.100876844045077"><ele>252.0</ele><time>2026-04-09T10:42:40.999Z</time></trkpt><trkpt lat="37.9617743763883" lon="14.100717528119892"><ele>252.0</ele><time>2026-04-09T10:42:41.999Z</time></trkpt><trkpt lat="37.961798097300935" lon="14.100554540522845"><ele>252.0</ele><time>2026-04-09T10:42:42.999Z</time></trkpt><trkpt lat="37.96185236077645" lon="14.100355491786386"><ele>253.0</ele><time>2026-04-09T10:42:43.999Z</time></trkpt><trkpt lat="37.96192633272685" lon="14.100105025361474"><ele>254.0</ele><time>2026-04-09T10:42:44.999Z</time></trkpt><trkpt lat="37.962006090732714" lon="14.099835511329541"><ele>255.0</ele><time>2026-04-09T10:42:45.999Z</time></trkpt><trkpt lat="37.96208193800422" lon="14.099553100322348"><ele>256.6666666666667</ele><time>2026-04-09T10:42:46.999Z</time></trkpt><trkpt lat="37.962156110148406" lon="14.099302020436548"><ele>258.33333333333337</ele><time>2026-04-09T10:42:47.999Z</time></trkpt><trkpt lat="37.96220756860796" lon="14.099079798113905"><ele>260.0</ele><time>2026-04-09T10:42:48.999Z</time></trkpt><trkpt lat="37.96223233183018" lon="14.098857236787437"><ele>261.75</ele><time>2026-04-09T10:42:49.999Z</time></trkpt><trkpt lat="37.96223139254489" lon="14.098641016428877"><ele>263.5</ele><time>2026-04-09T10:42:50.999Z</time></trkpt><trkpt lat="37.96221584114558" lon="14.098464073302699"><ele>265.25</ele><time>2026-04-09T10:42:51.999Z</time></trkpt><trkpt lat="37.96220604204095" lon="14.098332635907942"><ele>267.0</ele><time>2026-04-09T10:42:52.999Z</time></trkpt><trkpt lat="37.9622985138791" lon="14.09823222394448"><ele>269.25</ele><time>2026-04-09T10:42:54.999Z</time></trkpt><trkpt lat="37.96239033563222" lon="14.098224671960354"><ele>271.5</ele><time>2026-04-09T10:42:55.999Z</time></trkpt><trkpt lat="37.96250535474375" lon="14.09824640600303"><ele>273.75</ele><time>2026-04-09T10:42:56.999Z</time></trkpt><trkpt lat="37.96260997003544" lon="14.09832120455435"><ele>276.0</ele><time>2026-04-09T10:42:57.999Z</time></trkpt><trkpt lat="37.9626952598848" lon="14.098463242064035"><ele>277.6666666666667</ele><time>2026-04-09T10:42:58.999Z</time></trkpt><trkpt lat="37.96278163813133" lon="14.098646197697525"><ele>279.33333333333337</ele><time>2026-04-09T10:42:59.999Z</time></trkpt><trkpt lat="37.962873985010404" lon="14.098869150838297"><ele>281.0</ele><time>2026-04-09T10:43:00.999Z</time></trkpt><trkpt lat="37.962979799587046" lon="14.099113288621695"><ele>281.0</ele><time>2026-04-09T10:43:01.999Z</time></trkpt><trkpt lat="37.96310138577618" lon="14.099378460536444"><ele>281.0</ele><time>2026-04-09T10:43:02.999Z</time></trkpt><trkpt lat="37.96322692548437" lon="14.099646555468818"><ele>281.0</ele><time>2026-04-09T10:43:03.999Z</time></trkpt><trkpt lat="37.96334313053872" lon="14.099892015748017"><ele>281.0</ele><time>2026-04-09T10:43:04.999Z</time></trkpt><trkpt lat="37.96344249841139" lon="14.10010658210455"><ele>281.0</ele><time>2026-04-09T10:43:05.999Z</time></trkpt><trkpt lat="37.963532327482994" lon="14.100303806220978"><ele>281.6666666666667</ele><time>2026-04-09T10:43:06.999Z</time></trkpt><trkpt lat="37.96361203151355" lon="14.100485411859344"><ele>282.3333333333333</ele><time>2026-04-09T10:43:07.999Z</time></trkpt><trkpt lat="37.96370497040374" lon="14.100633639035118"><ele>283.0</ele><time>2026-04-09T10:43:08.999Z</time></trkpt><trkpt lat="37.96384622218187" lon="14.100752448671729"><ele>283.0</ele><time>2026-04-09T10:43:09.999Z</time></trkpt><trkpt lat="37.964030064736114" lon="14.10086664353963"><ele>283.0</ele><time>2026-04-09T10:43:10.999Z</time></trkpt><trkpt lat="37.96424079259502" lon="14.1009995765547"><ele>283.0</ele><time>2026-04-09T10:43:11.999Z</time></trkpt><trkpt lat="37.96443710339076" lon="14.101141813287251"><ele>289.66666666666663</ele><time>2026-04-09T10:43:12.999Z</time></trkpt><trkpt lat="37.96460443584972" lon="14.101265351185328"><ele>296.3333333333333</ele><time>2026-04-09T10:43:13.999Z</time></trkpt><trkpt lat="37.96477380217641" lon="14.101365209450455"><ele>303.0</ele><time>2026-04-09T10:43:14.999Z</time></trkpt><trkpt lat="37.964980933746034" lon="14.10142774088757"><ele>312.0</ele><time>2026-04-09T10:43:15.999Z</time></trkpt><trkpt lat="37.965225146439806" lon="14.101472963853563"><ele>321.0</ele><time>2026-04-09T10:43:16.999Z</time></trkpt><trkpt lat="37.96543972513436" lon="14.10150983089456"><ele>321.0</ele><time>2026-04-09T10:43:17.999Z</time></trkpt><trkpt lat="37.965614864213" lon="14.10153164653451"><ele>321.0</ele><time>2026-04-09T10:43:18.999Z</time></trkpt><trkpt lat="37.96575877895865" lon="14.101552558488876"><ele>321.0</ele><time>2026-04-09T10:43:19.999Z</time></trkpt><trkpt lat="37.96587676671458" lon="14.101578871290423"><ele>321.0</ele><time>2026-04-09T10:43:20.999Z</time></trkpt><trkpt lat="37.96597270987625" lon="14.101621991361814"><ele>317.0</ele><time>2026-04-09T10:43:21.999Z</time></trkpt><trkpt lat="37.96603849056183" lon="14.101694191608194"><ele>313.0</ele><time>2026-04-09T10:43:22.999Z</time></trkpt><trkpt lat="37.96607305991133" lon="14.101799430951319"><ele>309.0</ele><time>2026-04-09T10:43:23.999Z</time></trkpt><trkpt lat="37.96606582775322" lon="14.101920882964809"><ele>305.0</ele><time>2026-04-09T10:43:24.999Z</time></trkpt><trkpt lat="37.96600617446953" lon="14.102061507447647"><ele>301.0</ele><time>2026-04-09T10:43:25.999Z</time></trkpt><trkpt lat="37.96595262357505" lon="14.102248644019534"><ele>304.66666666666663</ele><time>2026-04-09T10:43:26.999Z</time></trkpt><trkpt lat="37.9658919304704" lon="14.102462989753617"><ele>308.3333333333333</ele><time>2026-04-09T10:43:27.999Z</time></trkpt><trkpt lat="37.965840140819" lon="14.102654360457949"><ele>312.0</ele><time>2026-04-09T10:43:28.999Z</time></trkpt><trkpt lat="37.96579330061311" lon="14.102797088052414"><ele>305.75</ele><time>2026-04-09T10:43:29.999Z</time></trkpt><trkpt lat="37.965744987879944" lon="14.10290956102732"><ele>299.5</ele><time>2026-04-09T10:43:30.999Z</time></trkpt><trkpt lat="37.96561798945705" lon="14.102961055014289"><ele>293.25</ele><time>2026-04-09T10:43:31.999Z</time></trkpt><trkpt lat="37.965478664429874" lon="14.103076781793568"><ele>287.0</ele><time>2026-04-09T10:43:32.999Z</time></trkpt><trkpt lat="37.96531900430384" lon="14.103201305428453"><ele>288.0</ele><time>2026-04-09T10:43:33.999Z</time></trkpt><trkpt lat="37.96518858732664" lon="14.103339105114497"><ele>289.0</ele><time>2026-04-09T10:43:34.999Z</time></trkpt><trkpt lat="37.96509151831149" lon="14.103465395377862"><ele>290.0</ele><time>2026-04-09T10:43:35.999Z</time></trkpt><trkpt lat="37.965034254191835" lon="14.103582330588226"><ele>291.0</ele><time>2026-04-09T10:43:36.999Z</time></trkpt><trkpt lat="37.96500239484724" lon="14.103719955585037"><ele>291.0</ele><time>2026-04-09T10:43:37.999Z</time></trkpt><trkpt lat="37.965013361063214" lon="14.103882723175422"><ele>291.0</ele><time>2026-04-09T10:43:38.999Z</time></trkpt><trkpt lat="37.965058101788564" lon="14.10403866239719"><ele>291.0</ele><time>2026-04-09T10:43:39.999Z</time></trkpt><trkpt lat="37.965147168633116" lon="14.10417182904266"><ele>291.0</ele><time>2026-04-09T10:43:40.999Z</time></trkpt><trkpt lat="37.96527287785783" lon="14.104291120489133"><ele>298.3333333333333</ele><time>2026-04-09T10:43:41.999Z</time></trkpt><trkpt lat="37.965406103852025" lon="14.104420999585878"><ele>305.66666666666663</ele><time>2026-04-09T10:43:42.999Z</time></trkpt><trkpt lat="37.96553066918841" lon="14.104525224878346"><ele>313.0</ele><time>2026-04-09T10:43:43.999Z</time></trkpt><trkpt lat="37.96566601832726" lon="14.104579093553074"><ele>313.0</ele><time>2026-04-09T10:43:44.999Z</time></trkpt><trkpt lat="37.96581127412122" lon="14.104590739123504"><ele>313.0</ele><time>2026-04-09T10:43:45.999Z</time></trkpt><trkpt lat="37.965950060801305" lon="14.104612390015275"><ele>313.0</ele><time>2026-04-09T10:43:46.999Z</time></trkpt><trkpt lat="37.966076234347376" lon="14.104675169482665"><ele>313.0</ele><time>2026-04-09T10:43:47.999Z</time></trkpt><trkpt lat="37.966189679231874" lon="14.104755111431208"><ele>313.16666666666663</ele><time>2026-04-09T10:43:48.999Z</time></trkpt><trkpt lat="37.96626662872376" lon="14.104829229806494"><ele>313.3333333333333</ele><time>2026-04-09T10:43:49.999Z</time></trkpt><trkpt lat="37.96631955050086" lon="14.104892870319329"><ele>313.5</ele><time>2026-04-09T10:43:50.999Z</time></trkpt><trkpt lat="37.966345700109315" lon="14.10501114759193"><ele>313.6666666666667</ele><time>2026-04-09T10:43:52.999Z</time></trkpt><trkpt lat="37.96632156034783" lon="14.105108920444911"><ele>313.83333333333337</ele><time>2026-04-09T10:43:54.999Z</time></trkpt><trkpt lat="37.96629472618392" lon="14.105185886970602"><ele>314.0</ele><time>2026-04-09T10:44:01.999Z</time></trkpt><trkpt lat="37.96632911050107" lon="14.105283968255888"><ele>314.0</ele><time>2026-04-09T10:44:20Z</time></trkpt><trkpt lat="37.966304764813245" lon="14.105365358122633"><ele>314.0</ele><time>2026-04-09T10:48:10Z</time></trkpt><trkpt lat="37.966327589718105" lon="14.105279098535663"><ele>314.0</ele><time>2026-04-09T10:48:16Z</time></trkpt><trkpt lat="37.96639567152373" lon="14.105146789145707"><ele>314.0</ele><time>2026-04-09T10:48:18Z</time></trkpt><trkpt lat="37.966761190183824" lon="14.105250294387197"><ele>314.8</ele><time>2026-04-09T10:48:19Z</time></trkpt><trkpt lat="37.966824520815656" lon="14.105405993582618"><ele>315.59999999999997</ele><time>2026-04-09T10:48:20Z</time></trkpt><trkpt lat="37.96689023341547" lon="14.105478096354238"><ele>316.4</ele><time>2026-04-09T10:48:21Z</time></trkpt><trkpt lat="37.96695814419916" lon="14.105549873919987"><ele>317.2</ele><time>2026-04-09T10:48:22Z</time></trkpt><trkpt lat="37.9670241111878" lon="14.105625135873801"><ele>318.0</ele><time>2026-04-09T10:48:23Z</time></trkpt><trkpt lat="37.96708933950486" lon="14.105695451547808"><ele>316.3333333333333</ele><time>2026-04-09T10:48:24Z</time></trkpt><trkpt lat="37.96715281084146" lon="14.105759317806356"><ele>314.6666666666667</ele><time>2026-04-09T10:48:25Z</time></trkpt><trkpt lat="37.96721943652086" lon="14.105827166012132"><ele>313.0</ele><time>2026-04-09T10:48:26Z</time></trkpt><trkpt lat="37.967284079289854" lon="14.105899185216519"><ele>311.33333333333337</ele><time>2026-04-09T10:48:27Z</time></trkpt><trkpt lat="37.967348831147575" lon="14.105970330901762"><ele>309.6666666666667</ele><time>2026-04-09T10:48:28Z</time></trkpt><trkpt lat="37.96741580094192" lon="14.106030671631581"><ele>308.0</ele><time>2026-04-09T10:48:29Z</time></trkpt><trkpt lat="37.96748494499045" lon="14.106081227362797"><ele>305.5</ele><time>2026-04-09T10:48:30Z</time></trkpt><trkpt lat="37.967560247349375" lon="14.106125318894366"><ele>303.0</ele><time>2026-04-09T10:48:31Z</time></trkpt><trkpt lat="37.96763798005679" lon="14.106161413485253"><ele>300.5</ele><time>2026-04-09T10:48:32Z</time></trkpt><trkpt lat="37.96771660099115" lon="14.106194154428861"><ele>298.0</ele><time>2026-04-09T10:48:33Z</time></trkpt><trkpt lat="37.967795523635004" lon="14.106219004046466"><ele>295.5</ele><time>2026-04-09T10:48:34Z</time></trkpt><trkpt lat="37.96787213862463" lon="14.106234297224889"><ele>293.0</ele><time>2026-04-09T10:48:35Z</time></trkpt><trkpt lat="37.96794117751301" lon="14.106240173477165"><ele>293.0</ele><time>2026-04-09T10:48:36Z</time></trkpt><trkpt lat="37.96800900744961" lon="14.106243842870445"><ele>293.0</ele><time>2026-04-09T10:48:37Z</time></trkpt><trkpt lat="37.96808241991389" lon="14.106237754406335"><ele>293.0</ele><time>2026-04-09T10:48:38Z</time></trkpt><trkpt lat="37.968163210054165" lon="14.106229389854159"><ele>293.0</ele><time>2026-04-09T10:48:39Z</time></trkpt><trkpt lat="37.968244931806105" lon="14.10622221772099"><ele>293.0</ele><time>2026-04-09T10:48:40Z</time></trkpt><trkpt lat="37.968327381978256" lon="14.106212470473375"><ele>293.0</ele><time>2026-04-09T10:48:41Z</time></trkpt><trkpt lat="37.96841058659184" lon="14.106208770623862"><ele>291.33333333333337</ele><time>2026-04-09T10:48:42Z</time></trkpt><trkpt lat="37.968493234212005" lon="14.106217497409197"><ele>289.6666666666667</ele><time>2026-04-09T10:48:43Z</time></trkpt><trkpt lat="37.96857240508681" lon="14.106255036965111"><ele>288.0</ele><time>2026-04-09T10:48:44Z</time></trkpt><trkpt lat="37.968644340361344" lon="14.106310222616976"><ele>286.3333333333333</ele><time>2026-04-09T10:48:45Z</time></trkpt><trkpt lat="37.96870713136913" lon="14.106384613528851"><ele>284.66666666666663</ele><time>2026-04-09T10:48:46Z</time></trkpt><trkpt lat="37.968757191455225" lon="14.106471578842225"><ele>283.0</ele><time>2026-04-09T10:48:47Z</time></trkpt><trkpt lat="37.96879851412268" lon="14.106564475861832"><ele>285.8571428571429</ele><time>2026-04-09T10:48:48Z</time></trkpt><trkpt lat="37.9688336144137" lon="14.10665974168724"><ele>288.7142857142857</ele><time>2026-04-09T10:48:49Z</time></trkpt><trkpt lat="37.96887254810627" lon="14.106741423855294"><ele>291.57142857142856</ele><time>2026-04-09T10:48:50Z</time></trkpt><trkpt lat="37.96892536430658" lon="14.106805482111161"><ele>294.42857142857144</ele><time>2026-04-09T10:48:51Z</time></trkpt><trkpt lat="37.96899057717061" lon="14.106842479681593"><ele>297.2857142857143</ele><time>2026-04-09T10:48:52Z</time></trkpt><trkpt lat="37.969059939669464" lon="14.1068396143612"><ele>300.14285714285717</ele><time>2026-04-09T10:48:53Z</time></trkpt><trkpt lat="37.969122381979886" lon="14.106790803519678"><ele>303.0</ele><time>2026-04-09T10:48:54Z</time></trkpt><trkpt lat="37.969175558239684" lon="14.106729789381774"><ele>302.0</ele><time>2026-04-09T10:48:55Z</time></trkpt><trkpt lat="37.96922181671802" lon="14.106659470849822"><ele>301.0</ele><time>2026-04-09T10:48:56Z</time></trkpt><trkpt lat="37.96927165879578" lon="14.106574468350601"><ele>300.0</ele><time>2026-04-09T10:48:57Z</time></trkpt><trkpt lat="37.96932260016752" lon="14.106493644618297"><ele>299.0</ele><time>2026-04-09T10:48:58Z</time></trkpt><trkpt lat="37.96937410448341" lon="14.10640881530795"><ele>298.0</ele><time>2026-04-09T10:48:59Z</time></trkpt><trkpt lat="37.969431320093896" lon="14.106318805732732"><ele>297.0</ele><time>2026-04-09T10:49:00Z</time></trkpt><trkpt lat="37.96949975760401" lon="14.10621187052866"><ele>297.0</ele><time>2026-04-09T10:49:01Z</time></trkpt><trkpt lat="37.969568621775544" lon="14.10609382032453"><ele>297.0</ele><time>2026-04-09T10:49:02Z</time></trkpt><trkpt lat="37.96963071439125" lon="14.10594564202854"><ele>297.0</ele><time>2026-04-09T10:49:03Z</time></trkpt><trkpt lat="37.96968549825368" lon="14.105791979328272"><ele>297.0</ele><time>2026-04-09T10:49:04Z</time></trkpt><trkpt lat="37.9697472648255" lon="14.105649333883088"><ele>291.0</ele><time>2026-04-09T10:49:05Z</time></trkpt><trkpt lat="37.969800100432536" lon="14.10551918963659"><ele>285.0</ele><time>2026-04-09T10:49:06Z</time></trkpt><trkpt lat="37.96987707696709" lon="14.105410949905592"><ele>279.0</ele><time>2026-04-09T10:49:07Z</time></trkpt><trkpt lat="37.96998233321403" lon="14.105322957357284"><ele>273.0</ele><time>2026-04-09T10:49:08Z</time></trkpt><trkpt lat="37.97013232442767" lon="14.105240800540377"><ele>273.0</ele><time>2026-04-09T10:49:09Z</time></trkpt><trkpt lat="37.97028826712084" lon="14.105162570130773"><ele>273.0</ele><time>2026-04-09T10:49:10Z</time></trkpt><trkpt lat="37.97041901000676" lon="14.105091011332089"><ele>273.0</ele><time>2026-04-09T10:49:11Z</time></trkpt><trkpt lat="37.970523861753925" lon="14.105034595002525"><ele>273.0</ele><time>2026-04-09T10:49:12Z</time></trkpt><trkpt lat="37.97061366604231" lon="14.105011929899899"><ele>273.0</ele><time>2026-04-09T10:49:13Z</time></trkpt><trkpt lat="37.970705235540244" lon="14.105022947291513"><ele>273.0</ele><time>2026-04-09T10:49:14Z</time></trkpt><trkpt lat="37.970793258535295" lon="14.10508892765006"><ele>273.0</ele><time>2026-04-09T10:49:15Z</time></trkpt><trkpt lat="37.97086763902741" lon="14.105181219086779"><ele>273.0</ele><time>2026-04-09T10:49:16Z</time></trkpt><trkpt lat="37.97094261177958" lon="14.105256376871312"><ele>273.0</ele><time>2026-04-09T10:49:17Z</time></trkpt><trkpt lat="37.97102713242906" lon="14.105283817149296"><ele>271.4</ele><time>2026-04-09T10:49:18Z</time></trkpt><trkpt lat="37.97113270539138" lon="14.105273845145256"><ele>269.8</ele><time>2026-04-09T10:49:19Z</time></trkpt><trkpt lat="37.97124513495372" lon="14.105239571714229"><ele>268.2</ele><time>2026-04-09T10:49:20Z</time></trkpt><trkpt lat="37.97134175490983" lon="14.105217206015066"><ele>266.6</ele><time>2026-04-09T10:49:21Z</time></trkpt><trkpt lat="37.97143656525553" lon="14.10523990979397"><ele>265.0</ele><time>2026-04-09T10:49:22Z</time></trkpt><trkpt lat="37.971526225772685" lon="14.105301582232071"><ele>265.0</ele><time>2026-04-09T10:49:23Z</time></trkpt><trkpt lat="37.971602860595475" lon="14.105408389535809"><ele>265.0</ele><time>2026-04-09T10:49:24Z</time></trkpt><trkpt lat="37.971669575456026" lon="14.10555048063918"><ele>265.0</ele><time>2026-04-09T10:49:25Z</time></trkpt><trkpt lat="37.97172387695672" lon="14.105691198224644"><ele>265.0</ele><time>2026-04-09T10:49:26Z</time></trkpt><trkpt lat="37.97178558223014" lon="14.10579688058018"><ele>266.2</ele><time>2026-04-09T10:49:27Z</time></trkpt><trkpt lat="37.971861561057096" lon="14.105861554180402"><ele>267.4</ele><time>2026-04-09T10:49:28Z</time></trkpt><trkpt lat="37.971957700853366" lon="14.10589362415183"><ele>268.6</ele><time>2026-04-09T10:49:29Z</time></trkpt><trkpt lat="37.97206522035329" lon="14.105894241871875"><ele>269.8</ele><time>2026-04-09T10:49:30Z</time></trkpt><trkpt lat="37.972180866408245" lon="14.105862421422197"><ele>271.0</ele><time>2026-04-09T10:49:31Z</time></trkpt><trkpt lat="37.97229490343983" lon="14.10581389756002"><ele>271.0</ele><time>2026-04-09T10:49:32Z</time></trkpt><trkpt lat="37.97241380777385" lon="14.105746096896613"><ele>271.0</ele><time>2026-04-09T10:49:33Z</time></trkpt><trkpt lat="37.97254317453354" lon="14.105641367364534"><ele>271.0</ele><time>2026-04-09T10:49:34Z</time></trkpt><trkpt lat="37.97266172095567" lon="14.105502650836543"><ele>271.0</ele><time>2026-04-09T10:49:35Z</time></trkpt><trkpt lat="37.972768367060524" lon="14.105331908115968"><ele>267.66666666666663</ele><time>2026-04-09T10:49:36Z</time></trkpt><trkpt lat="37.97286591277108" lon="14.105132543432887"><ele>264.3333333333333</ele><time>2026-04-09T10:49:37Z</time></trkpt><trkpt lat="37.972942815103586" lon="14.104966078487932"><ele>261.0</ele><time>2026-04-09T10:49:38Z</time></trkpt><trkpt lat="37.97302412843306" lon="14.10482240509764"><ele>255.75</ele><time>2026-04-09T10:49:39Z</time></trkpt><trkpt lat="37.9731296377442" lon="14.104719973302867"><ele>250.5</ele><time>2026-04-09T10:49:40Z</time></trkpt><trkpt lat="37.973249190543086" lon="14.104664393959197"><ele>245.25</ele><time>2026-04-09T10:49:41Z</time></trkpt><trkpt lat="37.973379253356114" lon="14.10464532502381"><ele>240.0</ele><time>2026-04-09T10:49:42Z</time></trkpt><trkpt lat="37.97351666795625" lon="14.104649662415255"><ele>239.66666666666669</ele><time>2026-04-09T10:49:43Z</time></trkpt><trkpt lat="37.97366571527384" lon="14.104699168551619"><ele>239.33333333333334</ele><time>2026-04-09T10:49:44Z</time></trkpt><trkpt lat="37.97382472189615" lon="14.104786534700132"><ele>239.0</ele><time>2026-04-09T10:49:45Z</time></trkpt><trkpt lat="37.97396338311442" lon="14.104864249002127"><ele>239.0</ele><time>2026-04-09T10:49:46Z</time></trkpt><trkpt lat="37.9740875703875" lon="14.104911329810694"><ele>238.99999999999997</ele><time>2026-04-09T10:49:47Z</time></trkpt><trkpt lat="37.97418591075508" lon="14.104937712652534"><ele>238.99999999999997</ele><time>2026-04-09T10:49:48Z</time></trkpt><trkpt lat="37.974273432424816" lon="14.104927351541818"><ele>239.0</ele><time>2026-04-09T10:49:49Z</time></trkpt><trkpt lat="37.97436402311744" lon="14.104887232222538"><ele>239.0</ele><time>2026-04-09T10:49:50Z</time></trkpt><trkpt lat="37.9744267770681" lon="14.104790702721097"><ele>243.75</ele><time>2026-04-09T10:49:51Z</time></trkpt><trkpt lat="37.97444766463328" lon="14.104665980535813"><ele>248.5</ele><time>2026-04-09T10:49:52Z</time></trkpt><trkpt lat="37.9744298449812" lon="14.104512374268163"><ele>253.25</ele><time>2026-04-09T10:49:53Z</time></trkpt><trkpt lat="37.97439688943502" lon="14.104357479799841"><ele>258.0</ele><time>2026-04-09T10:49:54Z</time></trkpt><trkpt lat="37.97437836390296" lon="14.104211455642792"><ele>253.75</ele><time>2026-04-09T10:49:55Z</time></trkpt><trkpt lat="37.97439064450619" lon="14.104063067181801"><ele>249.5</ele><time>2026-04-09T10:49:56Z</time></trkpt><trkpt lat="37.974432102250354" lon="14.103914388334342"><ele>245.25</ele><time>2026-04-09T10:49:57Z</time></trkpt><trkpt lat="37.97449709215985" lon="14.103772069735655"><ele>241.0</ele><time>2026-04-09T10:49:58Z</time></trkpt><trkpt lat="37.97459616077416" lon="14.103646920089238"><ele>241.0</ele><time>2026-04-09T10:49:59Z</time></trkpt><trkpt lat="37.97474073491483" lon="14.103536503057132"><ele>241.0</ele><time>2026-04-09T10:50:00Z</time></trkpt><trkpt lat="37.97489508028591" lon="14.103434064769722"><ele>241.0</ele><time>2026-04-09T10:50:01Z</time></trkpt><trkpt lat="37.97504684164341" lon="14.103329452832318"><ele>238.66666666666666</ele><time>2026-04-09T10:50:02Z</time></trkpt><trkpt lat="37.975171163669195" lon="14.103204587584035"><ele>236.33333333333331</ele><time>2026-04-09T10:50:03Z</time></trkpt><trkpt lat="37.97528410378795" lon="14.103038892531195"><ele>234.0</ele><time>2026-04-09T10:50:04Z</time></trkpt><trkpt lat="37.97538794307854" lon="14.102814173264543"><ele>234.0</ele><time>2026-04-09T10:50:05Z</time></trkpt><trkpt lat="37.97548521341741" lon="14.102575148602684"><ele>234.0</ele><time>2026-04-09T10:50:06Z</time></trkpt><trkpt lat="37.97557011109648" lon="14.102360519305458"><ele>234.0</ele><time>2026-04-09T10:50:07Z</time></trkpt><trkpt lat="37.975650289438214" lon="14.102172290711357"><ele>230.33333333333331</ele><time>2026-04-09T10:50:08Z</time></trkpt><trkpt lat="37.975742566773405" lon="14.102001442238592"><ele>226.66666666666666</ele><time>2026-04-09T10:50:08.999Z</time></trkpt><trkpt lat="37.97585915299687" lon="14.101853681027194"><ele>223.0</ele><time>2026-04-09T10:50:09.999Z</time></trkpt><trkpt lat="37.97598342246977" lon="14.101710687621233"><ele>220.33333333333331</ele><time>2026-04-09T10:50:10.999Z</time></trkpt><trkpt lat="37.97614482013499" lon="14.101566605709714"><ele>217.66666666666669</ele><time>2026-04-09T10:50:11.999Z</time></trkpt><trkpt lat="37.97633422271975" lon="14.101425370216893"><ele>215.0</ele><time>2026-04-09T10:50:12.999Z</time></trkpt><trkpt lat="37.97651853583658" lon="14.101309039668319"><ele>215.0</ele><time>2026-04-09T10:50:13.999Z</time></trkpt><trkpt lat="37.976673607031174" lon="14.101227266732627"><ele>215.0</ele><time>2026-04-09T10:50:14.999Z</time></trkpt><trkpt lat="37.97680129171899" lon="14.101162464058316"><ele>215.0</ele><time>2026-04-09T10:50:15.999Z</time></trkpt><trkpt lat="37.9769029088295" lon="14.101116311614861"><ele>215.0</ele><time>2026-04-09T10:50:16.999Z</time></trkpt><trkpt lat="37.97698666550978" lon="14.101099634599228"><ele>213.2</ele><time>2026-04-09T10:50:17.999Z</time></trkpt><trkpt lat="37.977061181292974" lon="14.101129734949648"><ele>211.4</ele><time>2026-04-09T10:50:18.999Z</time></trkpt><trkpt lat="37.97712235385347" lon="14.101195673273624"><ele>209.60000000000002</ele><time>2026-04-09T10:50:19.999Z</time></trkpt><trkpt lat="37.977152652706586" lon="14.101300186210592"><ele>207.8</ele><time>2026-04-09T10:50:20.999Z</time></trkpt><trkpt lat="37.97714565864983" lon="14.101429950583345"><ele>206.0</ele><time>2026-04-09T10:50:21.999Z</time></trkpt><trkpt lat="37.97708257237344" lon="14.101573412069778"><ele>206.75</ele><time>2026-04-09T10:50:22.999Z</time></trkpt><trkpt lat="37.97702976269897" lon="14.101747720548893"><ele>207.5</ele><time>2026-04-09T10:50:23.999Z</time></trkpt><trkpt lat="37.9769655209572" lon="14.101892627433218"><ele>208.25</ele><time>2026-04-09T10:50:24.999Z</time></trkpt><trkpt lat="37.97693668270192" lon="14.102015672290257"><ele>209.0</ele><time>2026-04-09T10:50:25.999Z</time></trkpt><trkpt lat="37.9769513831349" lon="14.102125312127425"><ele>209.0</ele><time>2026-04-09T10:50:26.999Z</time></trkpt><trkpt lat="37.97699918058353" lon="14.102234517039944"><ele>209.0</ele><time>2026-04-09T10:50:27.999Z</time></trkpt><trkpt lat="37.97708187781139" lon="14.102340170666961"><ele>209.0</ele><time>2026-04-09T10:50:28.999Z</time></trkpt><trkpt lat="37.97716773517906" lon="14.10243303386682"><ele>209.0</ele><time>2026-04-09T10:50:29.999Z</time></trkpt><trkpt lat="37.97725049245264" lon="14.102476485179585"><ele>209.0</ele><time>2026-04-09T10:50:30.999Z</time></trkpt><trkpt lat="37.977348138294346" lon="14.102465362588742"><ele>209.0</ele><time>2026-04-09T10:50:31.999Z</time></trkpt><trkpt lat="37.977457942613235" lon="14.10238826129104"><ele>209.0</ele><time>2026-04-09T10:50:32.999Z</time></trkpt><trkpt lat="37.97758369460158" lon="14.102272634906294"><ele>209.0</ele><time>2026-04-09T10:50:33.999Z</time></trkpt><trkpt lat="37.9777228089631" lon="14.102124693694618"><ele>212.66666666666669</ele><time>2026-04-09T10:50:34.999Z</time></trkpt><trkpt lat="37.97788788067087" lon="14.10196392946182"><ele>216.33333333333331</ele><time>2026-04-09T10:50:35.999Z</time></trkpt><trkpt lat="37.97807028393809" lon="14.101794441740816"><ele>220.0</ele><time>2026-04-09T10:50:36.999Z</time></trkpt><trkpt lat="37.97823910881092" lon="14.101639863612931"><ele>223.33333333333331</ele><time>2026-04-09T10:50:37.999Z</time></trkpt><trkpt lat="37.978376988240626" lon="14.10149742104455"><ele>226.66666666666669</ele><time>2026-04-09T10:50:38.999Z</time></trkpt><trkpt lat="37.97849097721349" lon="14.10135722165097"><ele>230.0</ele><time>2026-04-09T10:50:39.999Z</time></trkpt><trkpt lat="37.97857646368645" lon="14.101196498239558"><ele>230.0</ele><time>2026-04-09T10:50:40.999Z</time></trkpt><trkpt lat="37.978630242400264" lon="14.100992355247833"><ele>230.0</ele><time>2026-04-09T10:50:41.999Z</time></trkpt><trkpt lat="37.97865165965394" lon="14.100755117385695"><ele>230.0</ele><time>2026-04-09T10:50:42.999Z</time></trkpt><trkpt lat="37.97865380114006" lon="14.100541507489568"><ele>226.66666666666669</ele><time>2026-04-09T10:50:43.999Z</time></trkpt><trkpt lat="37.97867549639763" lon="14.100350270780936"><ele>223.33333333333331</ele><time>2026-04-09T10:50:44.999Z</time></trkpt><trkpt lat="37.978727576257164" lon="14.100174974318612"><ele>220.0</ele><time>2026-04-09T10:50:45.999Z</time></trkpt><trkpt lat="37.978808870437405" lon="14.100002121855544"><ele>219.33333333333331</ele><time>2026-04-09T10:50:46.999Z</time></trkpt><trkpt lat="37.978923694895904" lon="14.099819716055599"><ele>218.66666666666669</ele><time>2026-04-09T10:50:47.999Z</time></trkpt><trkpt lat="37.97907819979717" lon="14.099616203571605"><ele>218.0</ele><time>2026-04-09T10:50:48.999Z</time></trkpt><trkpt lat="37.97924548037148" lon="14.099396049815741"><ele>218.0</ele><time>2026-04-09T10:50:49.999Z</time></trkpt><trkpt lat="37.979399367508634" lon="14.099188971240176"><ele>218.0</ele><time>2026-04-09T10:50:50.999Z</time></trkpt><trkpt lat="37.979537139128055" lon="14.099000708288932"><ele>218.0</ele><time>2026-04-09T10:50:51.999Z</time></trkpt><trkpt lat="37.97966628510025" lon="14.098829505378845"><ele>212.33333333333334</ele><time>2026-04-09T10:50:52.999Z</time></trkpt><trkpt lat="37.979777757499086" lon="14.09863769757191"><ele>206.66666666666669</ele><time>2026-04-09T10:50:53.999Z</time></trkpt><trkpt lat="37.97989127544346" lon="14.098381405909855"><ele>201.0</ele><time>2026-04-09T10:50:54.999Z</time></trkpt><trkpt lat="37.97997421887086" lon="14.098152940537606"><ele>200.66666666666669</ele><time>2026-04-09T10:50:55.999Z</time></trkpt><trkpt lat="37.980046535587476" lon="14.097952569897032"><ele>200.33333333333334</ele><time>2026-04-09T10:50:56.999Z</time></trkpt><trkpt lat="37.98014307674845" lon="14.097758394398273"><ele>200.0</ele><time>2026-04-09T10:50:57.999Z</time></trkpt><trkpt lat="37.980294704680304" lon="14.09756190636722"><ele>192.0</ele><time>2026-04-09T10:50:58.999Z</time></trkpt><trkpt lat="37.98047185440356" lon="14.097360796770978"><ele>184.0</ele><time>2026-04-09T10:50:59.999Z</time></trkpt><trkpt lat="37.98064703118629" lon="14.097165430155885"><ele>184.0</ele><time>2026-04-09T10:51:00.999Z</time></trkpt><trkpt lat="37.98079225209763" lon="14.096987255257247"><ele>184.0</ele><time>2026-04-09T10:51:01.999Z</time></trkpt><trkpt lat="37.98091677876448" lon="14.096832588942922"><ele>184.0</ele><time>2026-04-09T10:51:02.999Z</time></trkpt><trkpt lat="37.98103901289928" lon="14.09670618559988"><ele>185.33333333333334</ele><time>2026-04-09T10:51:03.999Z</time></trkpt><trkpt lat="37.98117765444183" lon="14.096613840771774"><ele>186.66666666666666</ele><time>2026-04-09T10:51:04.999Z</time></trkpt><trkpt lat="37.981345299142326" lon="14.096573015881216"><ele>188.0</ele><time>2026-04-09T10:51:05.999Z</time></trkpt><trkpt lat="37.98150349196348" lon="14.096582294617056"><ele>188.0</ele><time>2026-04-09T10:51:06.999Z</time></trkpt><trkpt lat="37.981643413842164" lon="14.096601761801368"><ele>188.0</ele><time>2026-04-09T10:51:07.999Z</time></trkpt><trkpt lat="37.9817780826588" lon="14.096592629847848"><ele>188.0</ele><time>2026-04-09T10:51:08.999Z</time></trkpt><trkpt lat="37.98191317578043" lon="14.096511994989266"><ele>188.0</ele><time>2026-04-09T10:51:09.999Z</time></trkpt><trkpt lat="37.98205443588727" lon="14.096383736292646"><ele>184.33333333333331</ele><time>2026-04-09T10:51:10.999Z</time></trkpt><trkpt lat="37.98221535567156" lon="14.096221086700691"><ele>180.66666666666666</ele><time>2026-04-09T10:51:11.999Z</time></trkpt><trkpt lat="37.9823626261287" lon="14.09607914866034"><ele>177.0</ele><time>2026-04-09T10:51:12.999Z</time></trkpt><trkpt lat="37.98248796402354" lon="14.095933875620426"><ele>176.0</ele><time>2026-04-09T10:51:13.999Z</time></trkpt><trkpt lat="37.98258314087393" lon="14.095779849009158"><ele>175.0</ele><time>2026-04-09T10:51:14.999Z</time></trkpt><trkpt lat="37.982661544120724" lon="14.09563517600009"><ele>174.0</ele><time>2026-04-09T10:51:15.999Z</time></trkpt><trkpt lat="37.98275221962637" lon="14.09552105070501"><ele>173.0</ele><time>2026-04-09T10:51:16.999Z</time></trkpt><trkpt lat="37.98288316777664" lon="14.095441300214794"><ele>173.0</ele><time>2026-04-09T10:51:17.999Z</time></trkpt><trkpt lat="37.98304402739756" lon="14.095364114867323"><ele>173.0</ele><time>2026-04-09T10:51:18.999Z</time></trkpt><trkpt lat="37.9832078735819" lon="14.095244112704943"><ele>173.0</ele><time>2026-04-09T10:51:19.999Z</time></trkpt><trkpt lat="37.98336213906165" lon="14.095089137356121"><ele>176.5</ele><time>2026-04-09T10:51:20.999Z</time></trkpt><trkpt lat="37.983484214105864" lon="14.094948294243522"><ele>180.0</ele><time>2026-04-09T10:51:21.999Z</time></trkpt><trkpt lat="37.9835926198634" lon="14.094829225971155"><ele>183.5</ele><time>2026-04-09T10:51:22.999Z</time></trkpt><trkpt lat="37.983713465222145" lon="14.094738982506193"><ele>187.0</ele><time>2026-04-09T10:51:23.999Z</time></trkpt><trkpt lat="37.98387139844374" lon="14.094671115989875"><ele>178.66666666666669</ele><time>2026-04-09T10:51:24.999Z</time></trkpt><trkpt lat="37.984071898947114" lon="14.094606498187101"><ele>170.33333333333334</ele><time>2026-04-09T10:51:25.999Z</time></trkpt><trkpt lat="37.98427045575438" lon="14.094526111780247"><ele>162.0</ele><time>2026-04-09T10:51:26.999Z</time></trkpt><trkpt lat="37.98444996571699" lon="14.09443937701794"><ele>162.0</ele><time>2026-04-09T10:51:27.999Z</time></trkpt><trkpt lat="37.98462633525013" lon="14.09437657583282"><ele>162.0</ele><time>2026-04-09T10:51:28.999Z</time></trkpt><trkpt lat="37.98483963401738" lon="14.094328426445777"><ele>162.0</ele><time>2026-04-09T10:51:29.999Z</time></trkpt><trkpt lat="37.98507186119699" lon="14.094270987171376"><ele>160.66666666666666</ele><time>2026-04-09T10:51:30.999Z</time></trkpt><trkpt lat="37.98528181166007" lon="14.094219169346607"><ele>159.33333333333331</ele><time>2026-04-09T10:51:31.999Z</time></trkpt><trkpt lat="37.98546322728115" lon="14.094177297646933"><ele>158.0</ele><time>2026-04-09T10:51:32.999Z</time></trkpt><trkpt lat="37.985622835826334" lon="14.094141797471027"><ele>158.0</ele><time>2026-04-09T10:51:33.999Z</time></trkpt><trkpt lat="37.9857682765948" lon="14.094105138482734"><ele>158.0</ele><time>2026-04-09T10:51:34.999Z</time></trkpt><trkpt lat="37.98590370085593" lon="14.094089233079666"><ele>158.0</ele><time>2026-04-09T10:51:35.999Z</time></trkpt><trkpt lat="37.9860421172491" lon="14.09411264489056"><ele>158.0</ele><time>2026-04-09T10:51:36.999Z</time></trkpt><trkpt lat="37.98621016909739" lon="14.094188355683697"><ele>155.33333333333331</ele><time>2026-04-09T10:51:37.999Z</time></trkpt><trkpt lat="37.98639820410566" lon="14.094284782480818"><ele>152.66666666666666</ele><time>2026-04-09T10:51:38.999Z</time></trkpt><trkpt lat="37.986604063229784" lon="14.09439068329948"><ele>150.0</ele><time>2026-04-09T10:51:39.999Z</time></trkpt><trkpt lat="37.98683356324783" lon="14.094507415806017"><ele>146.66666666666666</ele><time>2026-04-09T10:51:40.999Z</time></trkpt><trkpt lat="37.98704846054143" lon="14.094616506802273"><ele>143.33333333333331</ele><time>2026-04-09T10:51:41.999Z</time></trkpt><trkpt lat="37.987240843419706" lon="14.094707696330952"><ele>140.0</ele><time>2026-04-09T10:51:42.999Z</time></trkpt><trkpt lat="37.9874178165752" lon="14.094802738330978"><ele>139.33333333333331</ele><time>2026-04-09T10:51:43.999Z</time></trkpt><trkpt lat="37.98760070603714" lon="14.094933407977473"><ele>138.66666666666666</ele><time>2026-04-09T10:51:44.999Z</time></trkpt><trkpt lat="37.98777287932034" lon="14.095086859876188"><ele>138.0</ele><time>2026-04-09T10:51:45.999Z</time></trkpt><trkpt lat="37.98790245819262" lon="14.095220623288387"><ele>138.0</ele><time>2026-04-09T10:51:46.999Z</time></trkpt><trkpt lat="37.98801032400734" lon="14.095317960105708"><ele>138.0</ele><time>2026-04-09T10:51:47.999Z</time></trkpt><trkpt lat="37.988119693870765" lon="14.095388297065979"><ele>138.0</ele><time>2026-04-09T10:51:48.999Z</time></trkpt><trkpt lat="37.98825012030777" lon="14.095407580576877"><ele>138.0</ele><time>2026-04-09T10:51:49.999Z</time></trkpt><trkpt lat="37.98839192479903" lon="14.095400767734354"><ele>136.33333333333334</ele><time>2026-04-09T10:51:50.999Z</time></trkpt><trkpt lat="37.98853241041727" lon="14.095427011062158"><ele>134.66666666666669</ele><time>2026-04-09T10:51:51.999Z</time></trkpt><trkpt lat="37.98869115637384" lon="14.095514672201425"><ele>133.0</ele><time>2026-04-09T10:51:52.999Z</time></trkpt><trkpt lat="37.98885545275582" lon="14.095635432444128"><ele>133.0</ele><time>2026-04-09T10:51:53.999Z</time></trkpt><trkpt lat="37.98900964434285" lon="14.095748968956253"><ele>133.0</ele><time>2026-04-09T10:51:54.999Z</time></trkpt><trkpt lat="37.98917817561297" lon="14.09583150824978"><ele>133.0</ele><time>2026-04-09T10:51:55.999Z</time></trkpt><trkpt lat="37.98935978691804" lon="14.095875121698407"><ele>133.66666666666669</ele><time>2026-04-09T10:51:56.999Z</time></trkpt><trkpt lat="37.989547855148885" lon="14.095868730447256"><ele>134.33333333333334</ele><time>2026-04-09T10:51:57.999Z</time></trkpt><trkpt lat="37.98975856965262" lon="14.095823310466562"><ele>135.0</ele><time>2026-04-09T10:51:58.999Z</time></trkpt><trkpt lat="37.98999132648268" lon="14.09577492273109"><ele>134.0</ele><time>2026-04-09T10:51:59.999Z</time></trkpt><trkpt lat="37.99020251743983" lon="14.095735078654409"><ele>133.0</ele><time>2026-04-09T10:52:00.999Z</time></trkpt><trkpt lat="37.990376270123356" lon="14.095704866382516"><ele>132.0</ele><time>2026-04-09T10:52:01.999Z</time></trkpt><trkpt lat="37.99054417822785" lon="14.095685961179054"><ele>132.0</ele><time>2026-04-09T10:52:02.999Z</time></trkpt><trkpt lat="37.99070039678195" lon="14.095696138624646"><ele>132.0</ele><time>2026-04-09T10:52:03.999Z</time></trkpt><trkpt lat="37.99083834267708" lon="14.095733259921925"><ele>132.0</ele><time>2026-04-09T10:52:04.999Z</time></trkpt><trkpt lat="37.990966581513725" lon="14.095809754926497"><ele>132.0</ele><time>2026-04-09T10:52:05.999Z</time></trkpt><trkpt lat="37.9910968299234" lon="14.095926549195926"><ele>129.66666666666666</ele><time>2026-04-09T10:52:06.999Z</time></trkpt><trkpt lat="37.99122298573055" lon="14.096064599561425"><ele>127.33333333333333</ele><time>2026-04-09T10:52:07.999Z</time></trkpt><trkpt lat="37.99135269147885" lon="14.096160416972914"><ele>125.0</ele><time>2026-04-09T10:52:08.999Z</time></trkpt><trkpt lat="37.991490516855265" lon="14.096247802814469"><ele>125.0</ele><time>2026-04-09T10:52:09.999Z</time></trkpt><trkpt lat="37.99163505624879" lon="14.096317134137518"><ele>125.0</ele><time>2026-04-09T10:52:10.999Z</time></trkpt><trkpt lat="37.991800084580426" lon="14.096370018237065"><ele>125.0</ele><time>2026-04-09T10:52:11.999Z</time></trkpt><trkpt lat="37.99196989888459" lon="14.096407563558705"><ele>124.33333333333333</ele><time>2026-04-09T10:52:12.999Z</time></trkpt><trkpt lat="37.99212864848379" lon="14.096419004001504"><ele>123.66666666666666</ele><time>2026-04-09T10:52:13.999Z</time></trkpt><trkpt lat="37.992299540424185" lon="14.096380022743267"><ele>123.0</ele><time>2026-04-09T10:52:14.999Z</time></trkpt><trkpt lat="37.99248113282419" lon="14.096329675383231"><ele>123.66666666666666</ele><time>2026-04-09T10:52:15.999Z</time></trkpt><trkpt lat="37.99265025239182" lon="14.096322901784138"><ele>124.33333333333333</ele><time>2026-04-09T10:52:16.999Z</time></trkpt><trkpt lat="37.99279913177154" lon="14.096319785586585"><ele>125.0</ele><time>2026-04-09T10:52:17.999Z</time></trkpt><trkpt lat="37.992931866663454" lon="14.096260331058819"><ele>125.0</ele><time>2026-04-09T10:52:18.999Z</time></trkpt><trkpt lat="37.99307447165902" lon="14.096137855287944"><ele>125.0</ele><time>2026-04-09T10:52:19.999Z</time></trkpt><trkpt lat="37.99320286201783" lon="14.096018047875202"><ele>125.0</ele><time>2026-04-09T10:52:20.999Z</time></trkpt><trkpt lat="37.99331728834353" lon="14.095946673792463"><ele>125.25</ele><time>2026-04-09T10:52:21.999Z</time></trkpt><trkpt lat="37.99343170072465" lon="14.095933963607237"><ele>125.5</ele><time>2026-04-09T10:52:22.999Z</time></trkpt><trkpt lat="37.993545013119785" lon="14.096011048128727"><ele>125.75</ele><time>2026-04-09T10:52:23.999Z</time></trkpt><trkpt lat="37.993703206843776" lon="14.096081393153767"><ele>126.0</ele><time>2026-04-09T10:52:24.999Z</time></trkpt><trkpt lat="37.99385172843427" lon="14.096133725353802"><ele>126.0</ele><time>2026-04-09T10:52:25.999Z</time></trkpt><trkpt lat="37.993978917250104" lon="14.09615484644875"><ele>126.0</ele><time>2026-04-09T10:52:26.999Z</time></trkpt><trkpt lat="37.99411559623391" lon="14.09612033594539"><ele>126.0</ele><time>2026-04-09T10:52:27.999Z</time></trkpt><trkpt lat="37.99426163192682" lon="14.096035412662838"><ele>126.0</ele><time>2026-04-09T10:52:28.999Z</time></trkpt><trkpt lat="37.99439726124963" lon="14.095912290263968"><ele>127.5</ele><time>2026-04-09T10:52:29.999Z</time></trkpt><trkpt lat="37.994511587861986" lon="14.095795218596182"><ele>129.0</ele><time>2026-04-09T10:52:30.999Z</time></trkpt><trkpt lat="37.99461861708338" lon="14.095699504851023"><ele>130.5</ele><time>2026-04-09T10:52:31.999Z</time></trkpt><trkpt lat="37.99472200440494" lon="14.095616528852851"><ele>132.0</ele><time>2026-04-09T10:52:32.999Z</time></trkpt><trkpt lat="37.994825527521144" lon="14.095530563262185"><ele>129.4</ele><time>2026-04-09T10:52:33.999Z</time></trkpt><trkpt lat="37.994922226370576" lon="14.095449647836569"><ele>126.79999999999998</ele><time>2026-04-09T10:52:34.999Z</time></trkpt><trkpt lat="37.99501056065807" lon="14.095376442002205"><ele>124.2</ele><time>2026-04-09T10:52:35.999Z</time></trkpt><trkpt lat="37.99509923989012" lon="14.095305993755577"><ele>121.6</ele><time>2026-04-09T10:52:36.999Z</time></trkpt><trkpt lat="37.995179438683785" lon="14.095249768741526"><ele>119.0</ele><time>2026-04-09T10:52:37.999Z</time></trkpt><trkpt lat="37.995261737332065" lon="14.095225807065598"><ele>118.4</ele><time>2026-04-09T10:52:38.999Z</time></trkpt><trkpt lat="37.99535255953913" lon="14.095262189670633"><ele>117.80000000000001</ele><time>2026-04-09T10:52:39.999Z</time></trkpt><trkpt lat="37.9954355133245" lon="14.095332491207477"><ele>117.19999999999999</ele><time>2026-04-09T10:52:40.999Z</time></trkpt><trkpt lat="37.995510452803096" lon="14.095422203263258"><ele>116.6</ele><time>2026-04-09T10:52:41.999Z</time></trkpt><trkpt lat="37.99559810751106" lon="14.095496395906327"><ele>116.0</ele><time>2026-04-09T10:52:42.999Z</time></trkpt><trkpt lat="37.99568442436827" lon="14.095572563562898"><ele>116.0</ele><time>2026-04-09T10:52:43.999Z</time></trkpt><trkpt lat="37.99578963330568" lon="14.095613091170922"><ele>116.0</ele><time>2026-04-09T10:52:44.999Z</time></trkpt><trkpt lat="37.995909862722" lon="14.095621757900522"><ele>116.0</ele><time>2026-04-09T10:52:45.999Z</time></trkpt><trkpt lat="37.996048626883514" lon="14.095599288696677"><ele>116.0</ele><time>2026-04-09T10:52:46.999Z</time></trkpt><trkpt lat="37.99621689544661" lon="14.095551725273495"><ele>115.0</ele><time>2026-04-09T10:52:47.999Z</time></trkpt><trkpt lat="37.996424847034994" lon="14.095514691726658"><ele>114.0</ele><time>2026-04-09T10:52:48.999Z</time></trkpt><trkpt lat="37.99660426098719" lon="14.095499940642291"><ele>113.0</ele><time>2026-04-09T10:52:49.999Z</time></trkpt><trkpt lat="37.99675467767468" lon="14.095476964923124"><ele>112.25</ele><time>2026-04-09T10:52:50.999Z</time></trkpt><trkpt lat="37.99688391754836" lon="14.095449864730528"><ele>111.5</ele><time>2026-04-09T10:52:51.999Z</time></trkpt><trkpt lat="37.99700995505272" lon="14.095424460533552"><ele>110.75</ele><time>2026-04-09T10:52:52.999Z</time></trkpt><trkpt lat="37.99712716191284" lon="14.095404814044995"><ele>110.0</ele><time>2026-04-09T10:52:53.999Z</time></trkpt><trkpt lat="37.9972509606808" lon="14.095405361025424"><ele>110.0</ele><time>2026-04-09T10:52:54.999Z</time></trkpt><trkpt lat="37.99737619109162" lon="14.095435328335629"><ele>110.0</ele><time>2026-04-09T10:52:55.999Z</time></trkpt><trkpt lat="37.99749803439267" lon="14.095484885461781"><ele>110.0</ele><time>2026-04-09T10:52:56.999Z</time></trkpt><trkpt lat="37.99762445439615" lon="14.095551918834744"><ele>110.0</ele><time>2026-04-09T10:52:57.999Z</time></trkpt><trkpt lat="37.997757129335994" lon="14.095631948842312"><ele>111.0</ele><time>2026-04-09T10:52:58.999Z</time></trkpt><trkpt lat="37.997894450807024" lon="14.09572220519556"><ele>112.0</ele><time>2026-04-09T10:52:59.999Z</time></trkpt><trkpt lat="37.998050066091295" lon="14.09581586887311"><ele>113.0</ele><time>2026-04-09T10:53:00.999Z</time></trkpt><trkpt lat="37.99823669718988" lon="14.095910922594673"><ele>107.0</ele><time>2026-04-09T10:53:01.999Z</time></trkpt><trkpt lat="37.998432771755205" lon="14.096054892325418"><ele>101.0</ele><time>2026-04-09T10:53:02.999Z</time></trkpt><trkpt lat="37.998664447230304" lon="14.096182556373362"><ele>101.0</ele><time>2026-04-09T10:53:03.999Z</time></trkpt><trkpt lat="37.9988730277012" lon="14.096348690210995"><ele>101.0</ele><time>2026-04-09T10:53:04.999Z</time></trkpt><trkpt lat="37.99907183177665" lon="14.096499859892056"><ele>102.5</ele><time>2026-04-09T10:53:05.999Z</time></trkpt><trkpt lat="37.99930462973071" lon="14.096648251124744"><ele>104.0</ele><time>2026-04-09T10:53:06.999Z</time></trkpt><trkpt lat="37.99954538549705" lon="14.096774224467953"><ele>104.0</ele><time>2026-04-09T10:53:07.999Z</time></trkpt><trkpt lat="37.99976851605456" lon="14.096864364094031"><ele>104.0</ele><time>2026-04-09T10:53:08.999Z</time></trkpt><trkpt lat="37.99996125148378" lon="14.096936768747382"><ele>104.0</ele><time>2026-04-09T10:53:09.999Z</time></trkpt><trkpt lat="38.00014150304056" lon="14.097007277903712"><ele>104.0</ele><time>2026-04-09T10:53:10.999Z</time></trkpt><trkpt lat="38.00029591978095" lon="14.09709795364596"><ele>104.0</ele><time>2026-04-09T10:53:11.999Z</time></trkpt><trkpt lat="38.00043491561136" lon="14.097239884293119"><ele>104.0</ele><time>2026-04-09T10:53:12.999Z</time></trkpt><trkpt lat="38.00059114796835" lon="14.09739597785199"><ele>104.33333333333333</ele><time>2026-04-09T10:53:13.999Z</time></trkpt><trkpt lat="38.00074744776044" lon="14.097578204371542"><ele>104.66666666666666</ele><time>2026-04-09T10:53:14.999Z</time></trkpt><trkpt lat="38.00089989259408" lon="14.097743217446272"><ele>105.0</ele><time>2026-04-09T10:53:15.999Z</time></trkpt><trkpt lat="38.001041694874786" lon="14.097894610434249"><ele>105.0</ele><time>2026-04-09T10:53:16.999Z</time></trkpt><trkpt lat="38.00117575424798" lon="14.098043713428762"><ele>105.0</ele><time>2026-04-09T10:53:17.999Z</time></trkpt><trkpt lat="38.001308402095006" lon="14.098187911656048"><ele>105.0</ele><time>2026-04-09T10:53:18.999Z</time></trkpt><trkpt lat="38.00144317955788" lon="14.098327130634596"><ele>104.0</ele><time>2026-04-09T10:53:19.999Z</time></trkpt><trkpt lat="38.00157947352027" lon="14.098468894577461"><ele>103.0</ele><time>2026-04-09T10:53:20.999Z</time></trkpt><trkpt lat="38.00171857496148" lon="14.098600838204112"><ele>102.0</ele><time>2026-04-09T10:53:21.999Z</time></trkpt><trkpt lat="38.001863314247224" lon="14.098722976612029"><ele>102.0</ele><time>2026-04-09T10:53:22.999Z</time></trkpt><trkpt lat="38.00200644933124" lon="14.098836125219158"><ele>102.0</ele><time>2026-04-09T10:53:23.999Z</time></trkpt><trkpt lat="38.00215998439786" lon="14.098951556161678"><ele>102.0</ele><time>2026-04-09T10:53:24.999Z</time></trkpt><trkpt lat="38.00231967229397" lon="14.099068255579203"><ele>101.66666666666666</ele><time>2026-04-09T10:53:25.999Z</time></trkpt><trkpt lat="38.002480255310296" lon="14.099183935643712"><ele>101.33333333333333</ele><time>2026-04-09T10:53:26.999Z</time></trkpt><trkpt lat="38.00262741541768" lon="14.09929121225954"><ele>101.0</ele><time>2026-04-09T10:53:27.999Z</time></trkpt><trkpt lat="38.00275823380799" lon="14.099387597207619"><ele>101.0</ele><time>2026-04-09T10:53:28.999Z</time></trkpt><trkpt lat="38.00287720377052" lon="14.099470953167671"><ele>101.0</ele><time>2026-04-09T10:53:29.999Z</time></trkpt><trkpt lat="38.00301018807242" lon="14.099514019178615"><ele>101.0</ele><time>2026-04-09T10:53:30.999Z</time></trkpt><trkpt lat="38.00317474928946" lon="14.09952181570921"><ele>101.0</ele><time>2026-04-09T10:53:31.999Z</time></trkpt><trkpt lat="38.003375784857404" lon="14.099519566494937"><ele>99.33333333333333</ele><time>2026-04-09T10:53:32.999Z</time></trkpt><trkpt lat="38.00359340829601" lon="14.099538796725843"><ele>97.66666666666666</ele><time>2026-04-09T10:53:33.999Z</time></trkpt><trkpt lat="38.00382279199172" lon="14.099573519293926"><ele>96.0</ele><time>2026-04-09T10:53:34.999Z</time></trkpt><trkpt lat="38.00403677022896" lon="14.099617043036847"><ele>94.66666666666667</ele><time>2026-04-09T10:53:35.999Z</time></trkpt><trkpt lat="38.00422585693859" lon="14.099663016490464"><ele>93.33333333333334</ele><time>2026-04-09T10:53:36.999Z</time></trkpt><trkpt lat="38.00440800374973" lon="14.099708801213033"><ele>92.0</ele><time>2026-04-09T10:53:37.999Z</time></trkpt><trkpt lat="38.00458027623625" lon="14.099749451342598"><ele>92.0</ele><time>2026-04-09T10:53:38.999Z</time></trkpt><trkpt lat="38.004740834403364" lon="14.099772532759605"><ele>92.0</ele><time>2026-04-09T10:53:39.999Z</time></trkpt><trkpt lat="38.004911025183176" lon="14.099768218363605"><ele>92.0</ele><time>2026-04-09T10:53:40.999Z</time></trkpt><trkpt lat="38.00510687721745" lon="14.099735255474613"><ele>89.66666666666667</ele><time>2026-04-09T10:53:41.999Z</time></trkpt><trkpt lat="38.005296921305614" lon="14.099699893604233"><ele>87.33333333333333</ele><time>2026-04-09T10:53:42.999Z</time></trkpt><trkpt lat="38.00546668129028" lon="14.099674492333094"><ele>85.0</ele><time>2026-04-09T10:53:43.999Z</time></trkpt><trkpt lat="38.00561299079059" lon="14.099660090810918"><ele>85.0</ele><time>2026-04-09T10:53:44.999Z</time></trkpt><trkpt lat="38.005737018544686" lon="14.099650096584604"><ele>85.0</ele><time>2026-04-09T10:53:45.999Z</time></trkpt><trkpt lat="38.005839650096945" lon="14.099640050716637"><ele>85.0</ele><time>2026-04-09T10:53:46.999Z</time></trkpt><trkpt lat="38.00592249498569" lon="14.099642080130442"><ele>85.0</ele><time>2026-04-09T10:53:47.999Z</time></trkpt><trkpt lat="38.005986561251376" lon="14.099636635186265"><ele>85.0</ele><time>2026-04-09T10:53:48.999Z</time></trkpt><trkpt lat="38.00601674152482" lon="14.099465624626648"><ele>84.75</ele><time>2026-04-09T10:53:49.999Z</time></trkpt><trkpt lat="38.006032624930995" lon="14.099339930425362"><ele>84.5</ele><time>2026-04-09T10:53:50.999Z</time></trkpt><trkpt lat="38.006020915838725" lon="14.099173298059036"><ele>84.25</ele><time>2026-04-09T10:53:51.999Z</time></trkpt><trkpt lat="38.005971741655415" lon="14.098997361187697"><ele>84.0</ele><time>2026-04-09T10:53:52.999Z</time></trkpt><trkpt lat="38.00601451148673" lon="14.098792520982897"><ele>87.0</ele><time>2026-04-09T10:53:53.999Z</time></trkpt><trkpt lat="38.006054244669556" lon="14.098607148956862"><ele>90.0</ele><time>2026-04-09T10:53:54.999Z</time></trkpt><trkpt lat="38.006109644968745" lon="14.0984259136922"><ele>93.0</ele><time>2026-04-09T10:53:55.999Z</time></trkpt><trkpt lat="38.006170744006816" lon="14.098267054159662"><ele>96.0</ele><time>2026-04-09T10:53:56.999Z</time></trkpt><trkpt lat="38.00623633407493" lon="14.09814147316607"><ele>101.0</ele><time>2026-04-09T10:53:57.999Z</time></trkpt><trkpt lat="38.0063123648339" lon="14.09805778323303"><ele>106.0</ele><time>2026-04-09T10:53:58.999Z</time></trkpt><trkpt lat="38.006391973982915" lon="14.097980571017487"><ele>111.0</ele><time>2026-04-09T10:53:59.999Z</time></trkpt><trkpt lat="38.00647116812298" lon="14.097904591263108"><ele>116.0</ele><time>2026-04-09T10:54:00.999Z</time></trkpt><trkpt lat="38.00654468854128" lon="14.09782258578993"><ele>121.0</ele><time>2026-04-09T10:54:01.999Z</time></trkpt><trkpt lat="38.006625440224475" lon="14.097729849628346"><ele>124.5</ele><time>2026-04-09T10:54:02.999Z</time></trkpt><trkpt lat="38.00671527007907" lon="14.097674010456672"><ele>128.0</ele><time>2026-04-09T10:54:04.073Z</time></trkpt><trkpt lat="38.006803403852885" lon="14.097629482063422"><ele>131.5</ele><time>2026-04-09T10:54:05.069Z</time></trkpt><trkpt lat="38.006887749802246" lon="14.097601612665757"><ele>135.0</ele><time>2026-04-09T10:54:06.065Z</time></trkpt><trkpt lat="38.00724564118938" lon="14.097526387291744"><ele>135.0</ele><time>2026-04-09T10:54:09.816Z</time></trkpt><trkpt lat="38.0073425131737" lon="14.097531565298338"><ele>135.0</ele><time>2026-04-09T10:54:10.812Z</time></trkpt><trkpt lat="38.007438892168025" lon="14.097549124844052"><ele>135.0</ele><time>2026-04-09T10:54:11.811Z</time></trkpt><trkpt lat="38.00752964389862" lon="14.097598636267938"><ele>135.0</ele><time>2026-04-09T10:54:12.815Z</time></trkpt><trkpt lat="38.00762199613926" lon="14.097633345360777"><ele>135.0</ele><time>2026-04-09T10:54:13.816Z</time></trkpt><trkpt lat="38.007712017405986" lon="14.097676277631837"><ele>140.5</ele><time>2026-04-09T10:54:14.812Z</time></trkpt><trkpt lat="38.00780594278356" lon="14.097710110757449"><ele>146.0</ele><time>2026-04-09T10:54:15.812Z</time></trkpt><trkpt lat="38.007890472469896" lon="14.097771984472137"><ele>151.5</ele><time>2026-04-09T10:54:16.815Z</time></trkpt><trkpt lat="38.007961763519724" lon="14.097857278882447"><ele>157.0</ele><time>2026-04-09T10:54:17.812Z</time></trkpt><trkpt lat="38.008721419848555" lon="14.099255704098171"><ele>133.66666666666669</ele><time>2026-04-09T10:54:18.999Z</time></trkpt><trkpt lat="38.00880420732447" lon="14.099464786120976"><ele>110.33333333333334</ele><time>2026-04-09T10:54:19.999Z</time></trkpt><trkpt lat="38.00890437988483" lon="14.09974689943612"><ele>87.0</ele><time>2026-04-09T10:54:20.999Z</time></trkpt><trkpt lat="38.008994112093916" lon="14.099955605375472"><ele>86.5</ele><time>2026-04-09T10:54:21.999Z</time></trkpt><trkpt lat="38.00906409515179" lon="14.100143332320423"><ele>86.0</ele><time>2026-04-09T10:54:22.999Z</time></trkpt><trkpt lat="38.00912893403853" lon="14.100308341657414"><ele>85.5</ele><time>2026-04-09T10:54:23.999Z</time></trkpt><trkpt lat="38.00921391468664" lon="14.100449791732652"><ele>85.0</ele><time>2026-04-09T10:54:25Z</time></trkpt><trkpt lat="38.00928484411225" lon="14.100575863204842"><ele>84.0</ele><time>2026-04-09T10:54:26Z</time></trkpt><trkpt lat="38.009353789116155" lon="14.100691970551221"><ele>83.0</ele><time>2026-04-09T10:54:27Z</time></trkpt><trkpt lat="38.009415468153136" lon="14.100791212321825"><ele>82.0</ele><time>2026-04-09T10:54:28Z</time></trkpt><trkpt lat="38.00945758061446" lon="14.100885683269553"><ele>81.0</ele><time>2026-04-09T10:54:29Z</time></trkpt><trkpt lat="38.009496092225355" lon="14.100976550999988"><ele>80.0</ele><time>2026-04-09T10:54:30Z</time></trkpt><trkpt lat="38.009532555945164" lon="14.101057416871742"><ele>83.6</ele><time>2026-04-09T10:54:31Z</time></trkpt><trkpt lat="38.0095715198795" lon="14.101134031215402"><ele>87.2</ele><time>2026-04-09T10:54:33Z</time></trkpt><trkpt lat="38.00958789898876" lon="14.101253718576043"><ele>90.80000000000001</ele><time>2026-04-09T10:55:12.001Z</time></trkpt><trkpt lat="38.00962300656018" lon="14.101356066867767"><ele>94.4</ele><time>2026-04-09T10:55:13.001Z</time></trkpt><trkpt lat="38.009657855247895" lon="14.101459400674793"><ele>98.0</ele><time>2026-04-09T10:55:14.001Z</time></trkpt><trkpt lat="38.00970533197169" lon="14.101582528286764"><ele>100.0</ele><time>2026-04-09T10:55:15.001Z</time></trkpt><trkpt lat="38.009752551146576" lon="14.101730365800325"><ele>102.0</ele><time>2026-04-09T10:55:16.001Z</time></trkpt><trkpt lat="38.00980096223429" lon="14.101887511413866"><ele>104.0</ele><time>2026-04-09T10:55:17.001Z</time></trkpt><trkpt lat="38.00986189593852" lon="14.102072987872777"><ele>106.0</ele><time>2026-04-09T10:55:18.001Z</time></trkpt><trkpt lat="38.00992661467961" lon="14.102278191468056"><ele>102.0</ele><time>2026-04-09T10:55:19.001Z</time></trkpt><trkpt lat="38.01000241096763" lon="14.102486601319736"><ele>98.0</ele><time>2026-04-09T10:55:20.001Z</time></trkpt><trkpt lat="38.01009667388596" lon="14.102723036952431"><ele>94.0</ele><time>2026-04-09T10:55:21.001Z</time></trkpt><trkpt lat="38.010192657287035" lon="14.102964178474863"><ele>94.0</ele><time>2026-04-09T10:55:22.001Z</time></trkpt><trkpt lat="38.01029200441743" lon="14.103212260979591"><ele>94.0</ele><time>2026-04-09T10:55:23.001Z</time></trkpt><trkpt lat="38.010402704544646" lon="14.103481892936822"><ele>100.0</ele><time>2026-04-09T10:55:24.001Z</time></trkpt><trkpt lat="38.01051671271102" lon="14.103757260442366"><ele>106.0</ele><time>2026-04-09T10:55:25.001Z</time></trkpt><trkpt lat="38.01062394996422" lon="14.104020105466248"><ele>110.0</ele><time>2026-04-09T10:55:26.001Z</time></trkpt><trkpt lat="38.010729649092255" lon="14.104276304221457"><ele>114.0</ele><time>2026-04-09T10:55:27.001Z</time></trkpt><trkpt lat="38.01083531097233" lon="14.104530836020938"><ele>105.5</ele><time>2026-04-09T10:55:28.001Z</time></trkpt><trkpt lat="38.0109435893361" lon="14.104789212561547"><ele>97.0</ele><time>2026-04-09T10:55:29.001Z</time></trkpt><trkpt lat="38.01105598013123" lon="14.105058714727729"><ele>97.0</ele><time>2026-04-09T10:55:30.001Z</time></trkpt><trkpt lat="38.01116539265812" lon="14.1053233890965"><ele>97.0</ele><time>2026-04-09T10:55:31.001Z</time></trkpt><trkpt lat="38.01126664005576" lon="14.105572239544742"><ele>102.66666666666667</ele><time>2026-04-09T10:55:32.001Z</time></trkpt><trkpt lat="38.01136470358643" lon="14.10579967281047"><ele>108.33333333333334</ele><time>2026-04-09T10:55:33.001Z</time></trkpt><trkpt lat="38.01145215648669" lon="14.106014305335565"><ele>114.0</ele><time>2026-04-09T10:55:34.001Z</time></trkpt><trkpt lat="38.01153080616738" lon="14.106210900253785"><ele>114.0</ele><time>2026-04-09T10:55:35.001Z</time></trkpt><trkpt lat="38.01159396798305" lon="14.106385664146627"><ele>114.0</ele><time>2026-04-09T10:55:36.001Z</time></trkpt><trkpt lat="38.0116641650417" lon="14.106558415761793"><ele>114.0</ele><time>2026-04-09T10:55:37.001Z</time></trkpt><trkpt lat="38.01171353654863" lon="14.106732107914958"><ele>114.0</ele><time>2026-04-09T10:55:38.001Z</time></trkpt><trkpt lat="38.01173159417479" lon="14.106909341995403"><ele>114.0</ele><time>2026-04-09T10:55:39.001Z</time></trkpt><trkpt lat="38.0117292886633" lon="14.107084585905572"><ele>114.0</ele><time>2026-04-09T10:55:40.001Z</time></trkpt><trkpt lat="38.011690343726144" lon="14.107276870212495"><ele>114.0</ele><time>2026-04-09T10:55:41.001Z</time></trkpt><trkpt lat="38.01162983679779" lon="14.107505474547356"><ele>124.66666666666666</ele><time>2026-04-09T10:55:42.001Z</time></trkpt><trkpt lat="38.01156823047037" lon="14.10776102148754"><ele>135.33333333333331</ele><time>2026-04-09T10:55:43.001Z</time></trkpt><trkpt lat="38.01150914676817" lon="14.108028753950306"><ele>146.0</ele><time>2026-04-09T10:55:44.001Z</time></trkpt><trkpt lat="38.01144749126741" lon="14.108303352526061"><ele>146.0</ele><time>2026-04-09T10:55:45.001Z</time></trkpt><trkpt lat="38.01139244460145" lon="14.10857054703719"><ele>146.0</ele><time>2026-04-09T10:55:46.001Z</time></trkpt><trkpt lat="38.01134439117367" lon="14.1088083044611"><ele>146.0</ele><time>2026-04-09T10:55:47.001Z</time></trkpt><trkpt lat="38.01130016392851" lon="14.109041982164923"><ele>144.33333333333331</ele><time>2026-04-09T10:55:48.001Z</time></trkpt><trkpt lat="38.01126361058384" lon="14.109262641818429"><ele>142.66666666666666</ele><time>2026-04-09T10:55:49.001Z</time></trkpt><trkpt lat="38.01123237854466" lon="14.109456491263101"><ele>141.0</ele><time>2026-04-09T10:55:50.001Z</time></trkpt><trkpt lat="38.01122089526478" lon="14.10963399343346"><ele>141.0</ele><time>2026-04-09T10:55:51.001Z</time></trkpt><trkpt lat="38.01120462766972" lon="14.109807076446819"><ele>141.0</ele><time>2026-04-09T10:55:52.001Z</time></trkpt><trkpt lat="38.01127690730171" lon="14.109985581990685"><ele>141.0</ele><time>2026-04-09T10:55:53.001Z</time></trkpt><trkpt lat="38.011334034222436" lon="14.110160595962931"><ele>141.0</ele><time>2026-04-09T10:55:54.001Z</time></trkpt><trkpt lat="38.0114079855584" lon="14.110342890658732"><ele>140.5</ele><time>2026-04-09T10:55:55.001Z</time></trkpt><trkpt lat="38.01153476591798" lon="14.110478804994901"><ele>140.0</ele><time>2026-04-09T10:55:56.001Z</time></trkpt><trkpt lat="38.01164515788362" lon="14.110604523504833"><ele>139.5</ele><time>2026-04-09T10:55:57.001Z</time></trkpt><trkpt lat="38.01171320840085" lon="14.110744778321887"><ele>139.0</ele><time>2026-04-09T10:55:58.001Z</time></trkpt><trkpt lat="38.01174220182635" lon="14.110888610777712"><ele>139.0</ele><time>2026-04-09T10:55:59.001Z</time></trkpt><trkpt lat="38.011715765947216" lon="14.111028686923772"><ele>139.0</ele><time>2026-04-09T10:56:00.001Z</time></trkpt><trkpt lat="38.0116658450781" lon="14.11115702187074"><ele>139.0</ele><time>2026-04-09T10:56:01.001Z</time></trkpt><trkpt lat="38.01160261466682" lon="14.11128436052305"><ele>139.0</ele><time>2026-04-09T10:56:02.001Z</time></trkpt><trkpt lat="38.011490653760795" lon="14.111369191920698"><ele>139.0</ele><time>2026-04-09T10:56:03.001Z</time></trkpt><trkpt lat="38.011357449835465" lon="14.111383579278371"><ele>139.0</ele><time>2026-04-09T10:56:04.001Z</time></trkpt><trkpt lat="38.01123811954715" lon="14.11136337428349"><ele>139.0</ele><time>2026-04-09T10:56:05.001Z</time></trkpt><trkpt lat="38.01113854993928" lon="14.111304788190443"><ele>139.0</ele><time>2026-04-09T10:56:06.001Z</time></trkpt><trkpt lat="38.011058838800736" lon="14.111194486219508"><ele>139.0</ele><time>2026-04-09T10:56:07.001Z</time></trkpt><trkpt lat="38.0110074277274" lon="14.111042724672458"><ele>139.0</ele><time>2026-04-09T10:56:08.001Z</time></trkpt><trkpt lat="38.0109710295197" lon="14.110868581184759"><ele>139.0</ele><time>2026-04-09T10:56:09.001Z</time></trkpt><trkpt lat="38.01095965095813" lon="14.11066759572376"><ele>139.0</ele><time>2026-04-09T10:56:10.001Z</time></trkpt><trkpt lat="38.01094373728294" lon="14.110422255006576"><ele>139.0</ele><time>2026-04-09T10:56:11.001Z</time></trkpt><trkpt lat="38.01094902990409" lon="14.11015265648187"><ele>139.0</ele><time>2026-04-09T10:56:12.001Z</time></trkpt><trkpt lat="38.01094902274774" lon="14.109841798099245"><ele>140.0</ele><time>2026-04-09T10:56:13.001Z</time></trkpt><trkpt lat="38.01095535294255" lon="14.109513318887412"><ele>141.0</ele><time>2026-04-09T10:56:14.001Z</time></trkpt><trkpt lat="38.01096864257226" lon="14.109164065954916"><ele>143.5</ele><time>2026-04-09T10:56:15.001Z</time></trkpt><trkpt lat="38.01099856421119" lon="14.108796167190185"><ele>146.0</ele><time>2026-04-09T10:56:16.001Z</time></trkpt><trkpt lat="38.011060389298514" lon="14.108404949421777"><ele>146.5</ele><time>2026-04-09T10:56:17.001Z</time></trkpt><trkpt lat="38.011118523702976" lon="14.10802552619633"><ele>147.0</ele><time>2026-04-09T10:56:18.001Z</time></trkpt><trkpt lat="38.01118452306212" lon="14.107637317874346"><ele>141.5</ele><time>2026-04-09T10:56:19.001Z</time></trkpt><trkpt lat="38.0112515822743" lon="14.107241542793204"><ele>136.0</ele><time>2026-04-09T10:56:20.001Z</time></trkpt><trkpt lat="38.01131765676219" lon="14.106845125644591"><ele>125.0</ele><time>2026-04-09T10:56:21.001Z</time></trkpt><trkpt lat="38.01138514429718" lon="14.106452485193929"><ele>114.0</ele><time>2026-04-09T10:56:22.001Z</time></trkpt><trkpt lat="38.01145887892601" lon="14.106052582196964"><ele>105.5</ele><time>2026-04-09T10:56:23.001Z</time></trkpt><trkpt lat="38.01153469087758" lon="14.105655711338144"><ele>97.0</ele><time>2026-04-09T10:56:24.001Z</time></trkpt><trkpt lat="38.011606729352835" lon="14.105251264866373"><ele>74.0</ele><time>2026-04-09T10:56:25.001Z</time></trkpt><trkpt lat="38.011673718773956" lon="14.104844893871107"><ele>51.0</ele><time>2026-04-09T10:56:26.001Z</time></trkpt><trkpt lat="38.01174237763922" lon="14.10443377672684"><ele>45.5</ele><time>2026-04-09T10:56:27.001Z</time></trkpt><trkpt lat="38.01181407465232" lon="14.104021795065181"><ele>40.0</ele><time>2026-04-09T10:56:28.001Z</time></trkpt><trkpt lat="38.01188521481588" lon="14.10361799323781"><ele>42.5</ele><time>2026-04-09T10:56:29.001Z</time></trkpt><trkpt lat="38.011954921633375" lon="14.10321229114513"><ele>45.0</ele><time>2026-04-09T10:56:30.001Z</time></trkpt><trkpt lat="38.01202398845443" lon="14.102811876551849"><ele>48.5</ele><time>2026-04-09T10:56:31.001Z</time></trkpt><trkpt lat="38.012093093239564" lon="14.102414644101865"><ele>52.0</ele><time>2026-04-09T10:56:32.001Z</time></trkpt><trkpt lat="38.012161975221645" lon="14.102010263225717"><ele>52.0</ele><time>2026-04-09T10:56:33.001Z</time></trkpt><trkpt lat="38.01223019105559" lon="14.10160832754166"><ele>52.0</ele><time>2026-04-09T10:56:34.001Z</time></trkpt><trkpt lat="38.012301486434126" lon="14.10120422852624"><ele>62.0</ele><time>2026-04-09T10:56:35.001Z</time></trkpt><trkpt lat="38.01237190511591" lon="14.100805928036108"><ele>72.0</ele><time>2026-04-09T10:56:36.001Z</time></trkpt><trkpt lat="38.01243695003629" lon="14.100426087739462"><ele>99.0</ele><time>2026-04-09T10:56:37.001Z</time></trkpt><trkpt lat="38.01250056103913" lon="14.100061087308251"><ele>126.0</ele><time>2026-04-09T10:56:38.001Z</time></trkpt><trkpt lat="38.012562347047954" lon="14.099706146999463"><ele>154.5</ele><time>2026-04-09T10:56:39.001Z</time></trkpt><trkpt lat="38.01262216898104" lon="14.099356823952787"><ele>183.0</ele><time>2026-04-09T10:56:40.001Z</time></trkpt><trkpt lat="38.01268191082123" lon="14.098996873886437"><ele>204.0</ele><time>2026-04-09T10:56:41.001Z</time></trkpt><trkpt lat="38.01274002462081" lon="14.098640431079007"><ele>225.0</ele><time>2026-04-09T10:56:42.001Z</time></trkpt><trkpt lat="38.01279813851445" lon="14.09828121574473"><ele>246.0</ele><time>2026-04-09T10:56:43.001Z</time></trkpt><trkpt lat="38.012858589546134" lon="14.09792053892865"><ele>267.0</ele><time>2026-04-09T10:56:44.001Z</time></trkpt><trkpt lat="38.01291921334021" lon="14.097562074339471"><ele>281.0</ele><time>2026-04-09T10:56:45.001Z</time></trkpt><trkpt lat="38.01297795118057" lon="14.09722300817767"><ele>295.0</ele><time>2026-04-09T10:56:46.001Z</time></trkpt><trkpt lat="38.013047915743975" lon="14.096851771710138"><ele>309.0</ele><time>2026-04-09T10:56:47.066Z</time></trkpt><trkpt lat="38.01311791479217" lon="14.096496780073945"><ele>323.0</ele><time>2026-04-09T10:56:48.067Z</time></trkpt><trkpt lat="38.013184253556716" lon="14.096133802724122"><ele>325.0</ele><time>2026-04-09T10:56:49.069Z</time></trkpt><trkpt lat="38.0131539" lon="14.095459"><ele>130.0</ele><time>2026-04-09T10:56:52.816Z</time></trkpt><trkpt lat="38.01392759168791" lon="14.078121627307551"><ele>130.0</ele><time>2026-04-09T10:57:32.001Z</time></trkpt><trkpt lat="38.01399626540938" lon="14.077733177799784"><ele>130.0</ele><time>2026-04-09T10:57:33.001Z</time></trkpt><trkpt lat="38.01412405294125" lon="14.077384197607174"><ele>135.0</ele><time>2026-04-09T10:57:34.001Z</time></trkpt><trkpt lat="38.01357164750771" lon="14.077072267415742"><ele>135.0</ele><time>2026-04-09T10:57:35.001Z</time></trkpt><trkpt lat="38.01347948065156" lon="14.076724089272755"><ele>135.0</ele><time>2026-04-09T10:57:36.001Z</time></trkpt><trkpt lat="38.0134093135596" lon="14.076348477987926"><ele>143.0</ele><time>2026-04-09T10:57:37.001Z</time></trkpt><trkpt lat="38.01335284692035" lon="14.075962707508602"><ele>151.0</ele><time>2026-04-09T10:57:38.001Z</time></trkpt><trkpt lat="38.01331423054756" lon="14.075578176021063"><ele>147.5</ele><time>2026-04-09T10:57:39.001Z</time></trkpt><trkpt lat="38.01328105899547" lon="14.075187444827561"><ele>144.0</ele><time>2026-04-09T10:57:40.001Z</time></trkpt><trkpt lat="38.01254973620699" lon="14.063230300361072"><ele>144.0</ele><time>2026-04-09T10:58:07.001Z</time></trkpt><trkpt lat="38.01255321369514" lon="14.062789992166532"><ele>144.0</ele><time>2026-04-09T10:58:08.001Z</time></trkpt><trkpt lat="38.012507009845464" lon="14.062368968223183"><ele>140.0</ele><time>2026-04-09T10:58:09.001Z</time></trkpt><trkpt lat="38.012539070524866" lon="14.061920535550263"><ele>136.0</ele><time>2026-04-09T10:58:10.001Z</time></trkpt><trkpt lat="38.01256715950602" lon="14.061503252555301"><ele>134.5</ele><time>2026-04-09T10:58:11.001Z</time></trkpt><trkpt lat="38.012605673254214" lon="14.06107799942958"><ele>133.0</ele><time>2026-04-09T10:58:12.001Z</time></trkpt><trkpt lat="38.0126521047985" lon="14.060655345578619"><ele>128.0</ele><time>2026-04-09T10:58:13.001Z</time></trkpt><trkpt lat="38.01270632884852" lon="14.06023493794918"><ele>123.0</ele><time>2026-04-09T10:58:14.001Z</time></trkpt><trkpt lat="38.012758483167616" lon="14.05981678003213"><ele>118.0</ele><time>2026-04-09T10:58:15.001Z</time></trkpt><trkpt lat="38.01281311779103" lon="14.059392823247101"><ele>113.0</ele><time>2026-04-09T10:58:16.001Z</time></trkpt><trkpt lat="38.012880049026" lon="14.05896263331085"><ele>113.0</ele><time>2026-04-09T10:58:17.001Z</time></trkpt><trkpt lat="38.01296119454591" lon="14.058523911676838"><ele>113.0</ele><time>2026-04-09T10:58:18.001Z</time></trkpt><trkpt lat="38.01305545408507" lon="14.058088703379466"><ele>117.0</ele><time>2026-04-09T10:58:19.001Z</time></trkpt><trkpt lat="38.01315934207122" lon="14.057655656336"><ele>121.0</ele><time>2026-04-09T10:58:20.001Z</time></trkpt><trkpt lat="38.01326394387681" lon="14.057224525889547"><ele>131.5</ele><time>2026-04-09T10:58:21.001Z</time></trkpt><trkpt lat="38.01337650270077" lon="14.056799799947225"><ele>142.0</ele><time>2026-04-09T10:58:22.001Z</time></trkpt><trkpt lat="38.01349763257945" lon="14.056390075629324"><ele>155.0</ele><time>2026-04-09T10:58:23.001Z</time></trkpt><trkpt lat="38.013629146607784" lon="14.055986714217036"><ele>168.0</ele><time>2026-04-09T10:58:24.001Z</time></trkpt><trkpt lat="38.013769125966675" lon="14.055591521518402"><ele>180.0</ele><time>2026-04-09T10:58:25.001Z</time></trkpt><trkpt lat="38.01391354721101" lon="14.055194194982422"><ele>192.0</ele><time>2026-04-09T10:58:26.001Z</time></trkpt><trkpt lat="38.014050659410664" lon="14.054788737897352"><ele>189.5</ele><time>2026-04-09T10:58:27.001Z</time></trkpt><trkpt lat="38.01418868301423" lon="14.054376267979077"><ele>187.0</ele><time>2026-04-09T10:58:28.001Z</time></trkpt><trkpt lat="38.01439178169353" lon="14.053889854618548"><ele>194.5</ele><time>2026-04-09T10:58:29.001Z</time></trkpt><trkpt lat="38.01460106296216" lon="14.053460247896577"><ele>202.0</ele><time>2026-04-09T10:58:30.067Z</time></trkpt><trkpt lat="38.01479810850874" lon="14.053070742720532"><ele>202.5</ele><time>2026-04-09T10:58:31.069Z</time></trkpt><trkpt lat="38.015003989299636" lon="14.052695863205548"><ele>203.0</ele><time>2026-04-09T10:58:32.068Z</time></trkpt><trkpt lat="38.015221698507666" lon="14.052319741925686"><ele>209.5</ele><time>2026-04-09T10:58:33.067Z</time></trkpt><trkpt lat="38.01544008955783" lon="14.051960011389234"><ele>216.0</ele><time>2026-04-09T10:58:34.06Z</time></trkpt><trkpt lat="38.01565054065785" lon="14.051627966035175"><ele>213.0</ele><time>2026-04-09T10:58:35.038Z</time></trkpt><trkpt lat="38.01584419393118" lon="14.051262054499965"><ele>210.0</ele><time>2026-04-09T10:58:36.031Z</time></trkpt><trkpt lat="38.01730859179468" lon="14.049483369455555"><ele>266.0</ele><time>2026-04-09T10:58:39.815Z</time></trkpt><trkpt lat="38.017817290648125" lon="14.048836275106243"><ele>297.0</ele><time>2026-04-09T10:58:40.816Z</time></trkpt><trkpt lat="38.018324226515716" lon="14.048187776658992"><ele>297.0</ele><time>2026-04-09T10:58:41.817Z</time></trkpt><trkpt lat="38.018828028344856" lon="14.04754221503719"><ele>328.0</ele><time>2026-04-09T10:58:42.812Z</time></trkpt><trkpt lat="38.019334161374985" lon="14.046894729484348"><ele>353.0</ele><time>2026-04-09T10:58:43.811Z</time></trkpt><trkpt lat="38.01984324158548" lon="14.046243587530181"><ele>332.0</ele><time>2026-04-09T10:58:44.816Z</time></trkpt><trkpt lat="38.02034777124224" lon="14.045592980605951"><ele>323.0</ele><time>2026-04-09T10:58:45.816Z</time></trkpt><trkpt lat="38.02085127836996" lon="14.044941117702848"><ele>323.0</ele><time>2026-04-09T10:58:46.816Z</time></trkpt><trkpt lat="38.021359747500014" lon="14.044299433413267"><ele>326.0</ele><time>2026-04-09T10:58:47.813Z</time></trkpt><trkpt lat="38.021866234788796" lon="14.04365097544017"><ele>326.0</ele><time>2026-04-09T10:58:48.813Z</time></trkpt><trkpt lat="38.0221315" lon="14.0433132"><ele>326.0</ele><time>2026-04-09T10:58:49.812Z</time></trkpt><trkpt lat="38.02689932220877" lon="14.029998406593922"><ele>239.0</ele><time>2026-04-09T10:59:32.001Z</time></trkpt><trkpt lat="38.02686141074921" lon="14.029548356256239"><ele>152.0</ele><time>2026-04-09T10:59:33.001Z</time></trkpt><trkpt lat="38.02700794952151" lon="14.029193315300128"><ele>155.5</ele><time>2026-04-09T10:59:34.001Z</time></trkpt><trkpt lat="38.02692175952327" lon="14.028759620624133"><ele>159.0</ele><time>2026-04-09T10:59:35.001Z</time></trkpt><trkpt lat="38.02683486800217" lon="14.028324363848116"><ele>168.0</ele><time>2026-04-09T10:59:36.001Z</time></trkpt><trkpt lat="38.0267345173257" lon="14.027904031057266"><ele>177.0</ele><time>2026-04-09T10:59:37.001Z</time></trkpt><trkpt lat="38.02662740484837" lon="14.02748942476776"><ele>189.5</ele><time>2026-04-09T10:59:38.002Z</time></trkpt><trkpt lat="38.02651328121073" lon="14.027069087994631"><ele>202.0</ele><time>2026-04-09T10:59:39.002Z</time></trkpt><trkpt lat="38.02640538046055" lon="14.026649739647343"><ele>219.0</ele><time>2026-04-09T10:59:40.002Z</time></trkpt><trkpt lat="38.026299706567166" lon="14.026231091159543"><ele>236.0</ele><time>2026-04-09T10:59:41.002Z</time></trkpt><trkpt lat="38.02619022598849" lon="14.025813792703728"><ele>257.0</ele><time>2026-04-09T10:59:42.002Z</time></trkpt><trkpt lat="38.02606996797402" lon="14.025372447350987"><ele>278.0</ele><time>2026-04-09T10:59:43.061Z</time></trkpt><trkpt lat="38.025948398635315" lon="14.02495897798497"><ele>294.5</ele><time>2026-04-09T10:59:44.058Z</time></trkpt><trkpt lat="38.025821745724926" lon="14.024555772062588"><ele>311.0</ele><time>2026-04-09T10:59:45.057Z</time></trkpt><trkpt lat="38.02569559352498" lon="14.024152014481414"><ele>327.5</ele><time>2026-04-09T10:59:46.059Z</time></trkpt><trkpt lat="38.02557318215781" lon="14.023749754169462"><ele>344.0</ele><time>2026-04-09T10:59:47.057Z</time></trkpt><trkpt lat="38.02545863753819" lon="14.023343370956818"><ele>158.0</ele><time>2026-04-09T10:59:48.042Z</time></trkpt><trkpt lat="38.02398374768556" lon="14.01613238056514"><ele>167.0</ele><time>2026-04-09T11:00:05.001Z</time></trkpt><trkpt lat="38.02402388683891" lon="14.015710946848031"><ele>176.0</ele><time>2026-04-09T11:00:06.001Z</time></trkpt><trkpt lat="38.02394396182745" lon="14.014968602891056"><ele>185.5</ele><time>2026-04-09T11:00:07.001Z</time></trkpt><trkpt lat="38.02399139212212" lon="14.014516355740332"><ele>195.0</ele><time>2026-04-09T11:00:08.001Z</time></trkpt><trkpt lat="38.02404173574662" lon="14.014065822304282"><ele>195.0</ele><time>2026-04-09T11:00:09.001Z</time></trkpt><trkpt lat="38.02409322291359" lon="14.01362903478569"><ele>195.0</ele><time>2026-04-09T11:00:10.001Z</time></trkpt><trkpt lat="38.024144332908236" lon="14.013191692233463"><ele>193.5</ele><time>2026-04-09T11:00:11.001Z</time></trkpt><trkpt lat="38.024176200668215" lon="14.01274251524562"><ele>192.0</ele><time>2026-04-09T11:00:12.001Z</time></trkpt><trkpt lat="38.02425509671443" lon="14.012284773226584"><ele>192.0</ele><time>2026-04-09T11:00:13.001Z</time></trkpt><trkpt lat="38.02431492539008" lon="14.011843345471028"><ele>192.0</ele><time>2026-04-09T11:00:14.001Z</time></trkpt><trkpt lat="38.02435218088887" lon="14.011383413050202"><ele>189.0</ele><time>2026-04-09T11:00:15.001Z</time></trkpt><trkpt lat="38.02439317985057" lon="14.010908529747713"><ele>186.0</ele><time>2026-04-09T11:00:16.001Z</time></trkpt><trkpt lat="38.024437786069754" lon="14.010437871415593"><ele>186.0</ele><time>2026-04-09T11:00:17.001Z</time></trkpt><trkpt lat="38.02439133534801" lon="14.010061801354505"><ele>186.0</ele><time>2026-04-09T11:00:18.001Z</time></trkpt><trkpt lat="38.02438987082795" lon="14.00961323108594"><ele>214.5</ele><time>2026-04-09T11:00:19.001Z</time></trkpt><trkpt lat="38.024374206738564" lon="14.00913412846356"><ele>243.0</ele><time>2026-04-09T11:00:20.001Z</time></trkpt><trkpt lat="38.02434234780151" lon="14.008640347171154"><ele>239.5</ele><time>2026-04-09T11:00:21.001Z</time></trkpt><trkpt lat="38.02430008956212" lon="14.008119058531175"><ele>236.0</ele><time>2026-04-09T11:00:22.001Z</time></trkpt><trkpt lat="38.02425438819914" lon="14.007570681781225"><ele>230.0</ele><time>2026-04-09T11:00:23.001Z</time></trkpt><trkpt lat="38.02419905680864" lon="14.006961384232431"><ele>216.0</ele><time>2026-04-09T11:00:24.068Z</time></trkpt><trkpt lat="38.024156987231" lon="14.006369355086417"><ele>190.0</ele><time>2026-04-09T11:00:25.063Z</time></trkpt><trkpt lat="38.024186524281156" lon="14.005792088807146"><ele>190.0</ele><time>2026-04-09T11:00:26.064Z</time></trkpt><trkpt lat="38.024157747666635" lon="14.005177359809379"><ele>182.0</ele><time>2026-04-09T11:00:27.058Z</time></trkpt><trkpt lat="38.02496999091201" lon="14.003195032303735"><ele>182.0</ele><time>2026-04-09T11:00:33.001Z</time></trkpt><trkpt lat="38.02492962172848" lon="14.002706408153328"><ele>182.0</ele><time>2026-04-09T11:00:34.001Z</time></trkpt><trkpt lat="38.02489779838822" lon="14.002204205076312"><ele>194.0</ele><time>2026-04-09T11:00:35.001Z</time></trkpt><trkpt lat="38.0248895737464" lon="14.001698947986545"><ele>206.0</ele><time>2026-04-09T11:00:36.001Z</time></trkpt><trkpt lat="38.02486438370641" lon="14.001179339983901"><ele>248.0</ele><time>2026-04-09T11:00:37.001Z</time></trkpt><trkpt lat="38.0248218153684" lon="14.00060359084304"><ele>248.0</ele><time>2026-04-09T11:00:38.067Z</time></trkpt><trkpt lat="38.02476668222595" lon="14.000048105904435"><ele>248.0</ele><time>2026-04-09T11:00:39.068Z</time></trkpt><trkpt lat="38.02469836430956" lon="13.999487508508897"><ele>125.0</ele><time>2026-04-09T11:00:40.067Z</time></trkpt><trkpt lat="38.02596468481952" lon="13.993804560851817"><ele>125.0</ele><time>2026-04-09T11:00:53.001Z</time></trkpt><trkpt lat="38.02592726874761" lon="13.993377923858649"><ele>125.0</ele><time>2026-04-09T11:00:54.001Z</time></trkpt><trkpt lat="38.02585008771638" lon="13.992951877120465"><ele>125.5</ele><time>2026-04-09T11:00:55.001Z</time></trkpt><trkpt lat="38.02583364771758" lon="13.992551911538722"><ele>126.0</ele><time>2026-04-09T11:00:56.001Z</time></trkpt><trkpt lat="38.02580131731979" lon="13.992151939782032"><ele>126.0</ele><time>2026-04-09T11:00:57.001Z</time></trkpt><trkpt lat="38.02572286312697" lon="13.991739439688468"><ele>126.0</ele><time>2026-04-09T11:00:58.001Z</time></trkpt><trkpt lat="38.02562582497328" lon="13.991320483625689"><ele>122.0</ele><time>2026-04-09T11:00:59.001Z</time></trkpt><trkpt lat="38.02551478067594" lon="13.990903617648975"><ele>118.0</ele><time>2026-04-09T11:01:00.001Z</time></trkpt><trkpt lat="38.02538849092277" lon="13.990494111374689"><ele>116.0</ele><time>2026-04-09T11:01:01.001Z</time></trkpt><trkpt lat="38.02524213885546" lon="13.990069684035806"><ele>114.0</ele><time>2026-04-09T11:01:02.001Z</time></trkpt><trkpt lat="38.02508575053143" lon="13.989645127326245"><ele>118.5</ele><time>2026-04-09T11:01:03.001Z</time></trkpt><trkpt lat="38.02492200007437" lon="13.989222548762205"><ele>123.0</ele><time>2026-04-09T11:01:04.001Z</time></trkpt><trkpt lat="38.02476038345109" lon="13.988801600599968"><ele>123.0</ele><time>2026-04-09T11:01:05.001Z</time></trkpt><trkpt lat="38.02459611401265" lon="13.988381470317233"><ele>123.0</ele><time>2026-04-09T11:01:06.001Z</time></trkpt><trkpt lat="38.02443749581294" lon="13.98797101540359"><ele>123.0</ele><time>2026-04-09T11:01:07.001Z</time></trkpt><trkpt lat="38.02428253932317" lon="13.9875619746094"><ele>123.0</ele><time>2026-04-09T11:01:08.001Z</time></trkpt><trkpt lat="38.02412227628332" lon="13.987157412135799"><ele>137.5</ele><time>2026-04-09T11:01:09.001Z</time></trkpt><trkpt lat="38.023971729459944" lon="13.986744975626687"><ele>152.0</ele><time>2026-04-09T11:01:10.001Z</time></trkpt><trkpt lat="38.02381075488744" lon="13.986326946088653"><ele>152.0</ele><time>2026-04-09T11:01:11.001Z</time></trkpt><trkpt lat="38.02365367168541" lon="13.985913402961364"><ele>152.0</ele><time>2026-04-09T11:01:12.001Z</time></trkpt><trkpt lat="38.02379142697971" lon="13.980633141247587"><ele>123.5</ele><time>2026-04-09T11:01:24.001Z</time></trkpt><trkpt lat="38.02377076913951" lon="13.980185191457007"><ele>95.0</ele><time>2026-04-09T11:01:25.001Z</time></trkpt><trkpt lat="38.023704902753394" lon="13.979743666876768"><ele>92.0</ele><time>2026-04-09T11:01:26.001Z</time></trkpt><trkpt lat="38.02369008665209" lon="13.97933512765123"><ele>89.0</ele><time>2026-04-09T11:01:27.001Z</time></trkpt><trkpt lat="38.02365594116306" lon="13.978914020120282"><ele>87.0</ele><time>2026-04-09T11:01:28.001Z</time></trkpt><trkpt lat="38.02363004307232" lon="13.978497887101978"><ele>85.0</ele><time>2026-04-09T11:01:29.001Z</time></trkpt><trkpt lat="38.023617472659396" lon="13.978076903705517"><ele>83.0</ele><time>2026-04-09T11:01:30.001Z</time></trkpt><trkpt lat="38.02361908547926" lon="13.977643570473159"><ele>81.0</ele><time>2026-04-09T11:01:31.001Z</time></trkpt><trkpt lat="38.02363377138338" lon="13.97720594258305"><ele>79.5</ele><time>2026-04-09T11:01:32.001Z</time></trkpt><trkpt lat="38.0236616285009" lon="13.9767716326889"><ele>78.0</ele><time>2026-04-09T11:01:33.001Z</time></trkpt><trkpt lat="38.02370756701499" lon="13.976336442974844"><ele>77.5</ele><time>2026-04-09T11:01:34.001Z</time></trkpt><trkpt lat="38.02377144394628" lon="13.975893952268791"><ele>77.0</ele><time>2026-04-09T11:01:35.001Z</time></trkpt><trkpt lat="38.02384689937202" lon="13.975448668733904"><ele>74.0</ele><time>2026-04-09T11:01:36.001Z</time></trkpt><trkpt lat="38.02393442361567" lon="13.974994713565843"><ele>71.0</ele><time>2026-04-09T11:01:37.001Z</time></trkpt><trkpt lat="38.024031230135016" lon="13.974537520378865"><ele>70.0</ele><time>2026-04-09T11:01:38.001Z</time></trkpt><trkpt lat="38.02413892290266" lon="13.974081304497094"><ele>69.0</ele><time>2026-04-09T11:01:39.001Z</time></trkpt><trkpt lat="38.024253516117255" lon="13.973624030241549"><ele>64.5</ele><time>2026-04-09T11:01:40.001Z</time></trkpt><trkpt lat="38.024372099227364" lon="13.973175329967727"><ele>60.0</ele><time>2026-04-09T11:01:41.001Z</time></trkpt><trkpt lat="38.02449416313688" lon="13.972727254219759"><ele>61.5</ele><time>2026-04-09T11:01:42.001Z</time></trkpt><trkpt lat="38.02461507822485" lon="13.972278726118963"><ele>63.0</ele><time>2026-04-09T11:01:43.002Z</time></trkpt><trkpt lat="38.02473454415062" lon="13.971828225987501"><ele>62.5</ele><time>2026-04-09T11:01:44.002Z</time></trkpt><trkpt lat="38.02484610245072" lon="13.971380860819023"><ele>62.0</ele><time>2026-04-09T11:01:45.002Z</time></trkpt><trkpt lat="38.02494800006552" lon="13.97093228419077"><ele>56.0</ele><time>2026-04-09T11:01:46.002Z</time></trkpt><trkpt lat="38.02503814517145" lon="13.970480728270436"><ele>50.0</ele><time>2026-04-09T11:01:47.002Z</time></trkpt><trkpt lat="38.02512291570582" lon="13.970033199462964"><ele>50.0</ele><time>2026-04-09T11:01:48.002Z</time></trkpt><trkpt lat="38.02520477717914" lon="13.969589178064592"><ele>50.0</ele><time>2026-04-09T11:01:49.002Z</time></trkpt><trkpt lat="38.02528103027842" lon="13.969147755941306"><ele>49.5</ele><time>2026-04-09T11:01:50.002Z</time></trkpt><trkpt lat="38.0253453989085" lon="13.968704273090097"><ele>49.0</ele><time>2026-04-09T11:01:51.002Z</time></trkpt><trkpt lat="38.02540349389742" lon="13.968254031152773"><ele>48.0</ele><time>2026-04-09T11:01:52.002Z</time></trkpt><trkpt lat="38.02546015346084" lon="13.967802047856091"><ele>47.0</ele><time>2026-04-09T11:01:53.002Z</time></trkpt><trkpt lat="38.02551280809602" lon="13.967348478319806"><ele>47.0</ele><time>2026-04-09T11:01:54.002Z</time></trkpt><trkpt lat="38.02555268749988" lon="13.966889166107881"><ele>47.0</ele><time>2026-04-09T11:01:55.002Z</time></trkpt><trkpt lat="38.025584078992495" lon="13.96643145547919"><ele>47.0</ele><time>2026-04-09T11:01:56.002Z</time></trkpt><trkpt lat="38.02560901100219" lon="13.965969052773259"><ele>47.0</ele><time>2026-04-09T11:01:57.002Z</time></trkpt><trkpt lat="38.02562763092895" lon="13.965507884869151"><ele>47.0</ele><time>2026-04-09T11:01:58.002Z</time></trkpt><trkpt lat="38.02563712849565" lon="13.965054669302994"><ele>47.0</ele><time>2026-04-09T11:01:59.002Z</time></trkpt><trkpt lat="38.025642467462525" lon="13.964598673140545"><ele>48.5</ele><time>2026-04-09T11:02:00.002Z</time></trkpt><trkpt lat="38.02563852741453" lon="13.964146583862936"><ele>50.0</ele><time>2026-04-09T11:02:01.002Z</time></trkpt><trkpt lat="38.025630478020155" lon="13.963695426262241"><ele>50.0</ele><time>2026-04-09T11:02:02.002Z</time></trkpt><trkpt lat="38.025617611985034" lon="13.963249945329718"><ele>50.0</ele><time>2026-04-09T11:02:03.001Z</time></trkpt><trkpt lat="38.02559783190367" lon="13.962805242053133"><ele>50.0</ele><time>2026-04-09T11:02:04.001Z</time></trkpt><trkpt lat="38.02557810963417" lon="13.96236635945886"><ele>50.0</ele><time>2026-04-09T11:02:05.001Z</time></trkpt><trkpt lat="38.02555809273324" lon="13.961932007646228"><ele>51.0</ele><time>2026-04-09T11:02:06.001Z</time></trkpt><trkpt lat="38.02554182782587" lon="13.96149956307126"><ele>52.0</ele><time>2026-04-09T11:02:07.001Z</time></trkpt><trkpt lat="38.02552429455229" lon="13.961062884793696"><ele>51.5</ele><time>2026-04-09T11:02:08.001Z</time></trkpt><trkpt lat="38.02551116956096" lon="13.960627705695805"><ele>51.0</ele><time>2026-04-09T11:02:09.001Z</time></trkpt><trkpt lat="38.025500709460154" lon="13.9601919637453"><ele>50.5</ele><time>2026-04-09T11:02:10.001Z</time></trkpt><trkpt lat="38.025491686261354" lon="13.95975784090829"><ele>50.0</ele><time>2026-04-09T11:02:11.001Z</time></trkpt><trkpt lat="38.025482713926124" lon="13.959323864946432"><ele>49.5</ele><time>2026-04-09T11:02:12.001Z</time></trkpt><trkpt lat="38.0254657344522" lon="13.958888427697874"><ele>49.0</ele><time>2026-04-09T11:02:13.001Z</time></trkpt><trkpt lat="38.02544775218604" lon="13.95845138292697"><ele>49.0</ele><time>2026-04-09T11:02:14.001Z</time></trkpt><trkpt lat="38.02542878686186" lon="13.958018135810695"><ele>49.0</ele><time>2026-04-09T11:02:15.001Z</time></trkpt><trkpt lat="38.02541372269643" lon="13.957584924168357"><ele>50.0</ele><time>2026-04-09T11:02:16.001Z</time></trkpt><trkpt lat="38.025398718172895" lon="13.95715217458583"><ele>51.0</ele><time>2026-04-09T11:02:17.001Z</time></trkpt><trkpt lat="38.02538292245524" lon="13.956724272311996"><ele>51.0</ele><time>2026-04-09T11:02:18.001Z</time></trkpt><trkpt lat="38.025366564240144" lon="13.956294838081648"><ele>51.0</ele><time>2026-04-09T11:02:19.001Z</time></trkpt><trkpt lat="38.02535059416541" lon="13.955870052205931"><ele>51.0</ele><time>2026-04-09T11:02:20.001Z</time></trkpt><trkpt lat="38.02533171096555" lon="13.95544895700156"><ele>51.0</ele><time>2026-04-09T11:02:21.001Z</time></trkpt><trkpt lat="38.02530418701944" lon="13.955033097313189"><ele>50.5</ele><time>2026-04-09T11:02:22.001Z</time></trkpt><trkpt lat="38.02525867444287" lon="13.954626290884454"><ele>50.0</ele><time>2026-04-09T11:02:23.001Z</time></trkpt><trkpt lat="38.02518984668544" lon="13.954227701717128"><ele>48.0</ele><time>2026-04-09T11:02:24.001Z</time></trkpt><trkpt lat="38.025102140606414" lon="13.953844272617951"><ele>46.0</ele><time>2026-04-09T11:02:25.001Z</time></trkpt><trkpt lat="38.02499360275065" lon="13.953475039515505"><ele>50.5</ele><time>2026-04-09T11:02:26.001Z</time></trkpt><trkpt lat="38.02486408687791" lon="13.953112570373497"><ele>55.0</ele><time>2026-04-09T11:02:27.001Z</time></trkpt><trkpt lat="38.024717419763206" lon="13.95276772663816"><ele>53.5</ele><time>2026-04-09T11:02:28.001Z</time></trkpt><trkpt lat="38.024553817118665" lon="13.952437006773419"><ele>52.0</ele><time>2026-04-09T11:02:29.001Z</time></trkpt><trkpt lat="38.024373338551165" lon="13.952118264367611"><ele>52.0</ele><time>2026-04-09T11:02:30.001Z</time></trkpt><trkpt lat="38.02417720333561" lon="13.951820391347868"><ele>52.0</ele><time>2026-04-09T11:02:31.001Z</time></trkpt><trkpt lat="38.023966233259024" lon="13.951537686072912"><ele>53.0</ele><time>2026-04-09T11:02:32.001Z</time></trkpt><trkpt lat="38.02374147052045" lon="13.951267606751006"><ele>54.0</ele><time>2026-04-09T11:02:33.001Z</time></trkpt><trkpt lat="38.023496370441556" lon="13.951012280070348"><ele>53.5</ele><time>2026-04-09T11:02:34.001Z</time></trkpt><trkpt lat="38.02322773797136" lon="13.95077220962742"><ele>53.0</ele><time>2026-04-09T11:02:35.001Z</time></trkpt><trkpt lat="38.02294607945079" lon="13.950558671255756"><ele>53.0</ele><time>2026-04-09T11:02:36.001Z</time></trkpt><trkpt lat="38.022652604517965" lon="13.950374499344834"><ele>53.0</ele><time>2026-04-09T11:02:37.001Z</time></trkpt><trkpt lat="38.02234743536852" lon="13.950214268702705"><ele>51.0</ele><time>2026-04-09T11:02:38.001Z</time></trkpt><trkpt lat="38.02203784922931" lon="13.950065734030483"><ele>49.0</ele><time>2026-04-09T11:02:39.001Z</time></trkpt><trkpt lat="38.02172114543528" lon="13.94992609018719"><ele>51.0</ele><time>2026-04-09T11:02:40.001Z</time></trkpt><trkpt lat="38.021396880085" lon="13.949781303401595"><ele>53.0</ele><time>2026-04-09T11:02:41.001Z</time></trkpt><trkpt lat="38.021065804431274" lon="13.94963148960337"><ele>55.5</ele><time>2026-04-09T11:02:42.001Z</time></trkpt><trkpt lat="38.02073034843842" lon="13.949471332642302"><ele>58.0</ele><time>2026-04-09T11:02:43.001Z</time></trkpt><trkpt lat="38.02041661322545" lon="13.949316450622215"><ele>54.5</ele><time>2026-04-09T11:02:44.001Z</time></trkpt><trkpt lat="38.02011787163107" lon="13.949167866709514"><ele>51.0</ele><time>2026-04-09T11:02:45.001Z</time></trkpt><trkpt lat="38.019823344328756" lon="13.949018549953003"><ele>51.0</ele><time>2026-04-09T11:02:46.001Z</time></trkpt><trkpt lat="38.01952814692815" lon="13.948862762915333"><ele>51.0</ele><time>2026-04-09T11:02:47.001Z</time></trkpt><trkpt lat="38.019237565170464" lon="13.948708096520402"><ele>49.0</ele><time>2026-04-09T11:02:48.001Z</time></trkpt><trkpt lat="38.018947666278486" lon="13.948549705420229"><ele>47.0</ele><time>2026-04-09T11:02:49.001Z</time></trkpt><trkpt lat="38.01866013773065" lon="13.94837522894265"><ele>47.0</ele><time>2026-04-09T11:02:50.001Z</time></trkpt><trkpt lat="38.01837289160173" lon="13.948183515414732"><ele>47.0</ele><time>2026-04-09T11:02:51.001Z</time></trkpt><trkpt lat="38.018113289632396" lon="13.947985599401866"><ele>47.0</ele><time>2026-04-09T11:02:52.001Z</time></trkpt><trkpt lat="38.017878308478764" lon="13.947787331971707"><ele>47.0</ele><time>2026-04-09T11:02:53.001Z</time></trkpt><trkpt lat="38.017653477660986" lon="13.947584696944013"><ele>48.0</ele><time>2026-04-09T11:02:54.001Z</time></trkpt><trkpt lat="38.017437783430495" lon="13.947380410736367"><ele>49.0</ele><time>2026-04-09T11:02:55.001Z</time></trkpt><trkpt lat="38.01722336840871" lon="13.947158902109454"><ele>49.0</ele><time>2026-04-09T11:02:56.001Z</time></trkpt><trkpt lat="38.01701459157262" lon="13.946917335482478"><ele>49.0</ele><time>2026-04-09T11:02:57.001Z</time></trkpt><trkpt lat="38.01681393474592" lon="13.946666222925415"><ele>52.0</ele><time>2026-04-09T11:02:58.001Z</time></trkpt><trkpt lat="38.01662084291223" lon="13.946409199324924"><ele>55.0</ele><time>2026-04-09T11:02:59.001Z</time></trkpt><trkpt lat="38.01643479480717" lon="13.946141489856062"><ele>52.5</ele><time>2026-04-09T11:03:00.001Z</time></trkpt><trkpt lat="38.01625677216286" lon="13.945869253221957"><ele>50.0</ele><time>2026-04-09T11:03:01.001Z</time></trkpt><trkpt lat="38.0161001552941" lon="13.945604007496026"><ele>50.0</ele><time>2026-04-09T11:03:02.001Z</time></trkpt><trkpt lat="38.015960011425726" lon="13.94534478542577"><ele>50.0</ele><time>2026-04-09T11:03:03.001Z</time></trkpt><trkpt lat="38.015827592795404" lon="13.945087868626006"><ele>51.5</ele><time>2026-04-09T11:03:04.001Z</time></trkpt><trkpt lat="38.01570460538189" lon="13.94482458800691"><ele>53.0</ele><time>2026-04-09T11:03:05.001Z</time></trkpt><trkpt lat="38.015590930039096" lon="13.944563811021833"><ele>53.0</ele><time>2026-04-09T11:03:06.001Z</time></trkpt><trkpt lat="38.015487623721576" lon="13.944303596941909"><ele>53.0</ele><time>2026-04-09T11:03:07.001Z</time></trkpt><trkpt lat="38.01537376725627" lon="13.94402805993165"><ele>52.0</ele><time>2026-04-09T11:03:08.001Z</time></trkpt><trkpt lat="38.01524236266229" lon="13.943720995243128"><ele>51.0</ele><time>2026-04-09T11:03:09.001Z</time></trkpt><trkpt lat="38.015112218989614" lon="13.943397917831199"><ele>50.5</ele><time>2026-04-09T11:03:10.001Z</time></trkpt><trkpt lat="38.01498783901154" lon="13.943064873164364"><ele>50.0</ele><time>2026-04-09T11:03:11.001Z</time></trkpt><trkpt lat="38.01485756569947" lon="13.942721325116741"><ele>50.5</ele><time>2026-04-09T11:03:12.001Z</time></trkpt><trkpt lat="38.01471731502844" lon="13.942372644654043"><ele>51.0</ele><time>2026-04-09T11:03:13.001Z</time></trkpt><trkpt lat="38.01456803099744" lon="13.942016473918688"><ele>50.0</ele><time>2026-04-09T11:03:14.001Z</time></trkpt><trkpt lat="38.0144209285167" lon="13.941654555200905"><ele>49.0</ele><time>2026-04-09T11:03:15.001Z</time></trkpt><trkpt lat="38.01427121375274" lon="13.941286081622769"><ele>49.5</ele><time>2026-04-09T11:03:16.001Z</time></trkpt><trkpt lat="38.014122568499275" lon="13.940914609031815"><ele>50.0</ele><time>2026-04-09T11:03:17Z</time></trkpt><trkpt lat="38.01397159860195" lon="13.940539068889905"><ele>50.0</ele><time>2026-04-09T11:03:18Z</time></trkpt><trkpt lat="38.01382009890157" lon="13.940160058407892"><ele>50.0</ele><time>2026-04-09T11:03:19Z</time></trkpt><trkpt lat="38.01366348010687" lon="13.939777653584263"><ele>49.0</ele><time>2026-04-09T11:03:20Z</time></trkpt><trkpt lat="38.013506775616534" lon="13.939394975099267"><ele>48.0</ele><time>2026-04-09T11:03:21Z</time></trkpt><trkpt lat="38.01335001102266" lon="13.939008728073146"><ele>48.0</ele><time>2026-04-09T11:03:22Z</time></trkpt><trkpt lat="38.01319389473812" lon="13.938621500047153"><ele>48.0</ele><time>2026-04-09T11:03:23Z</time></trkpt><trkpt lat="38.013036777393445" lon="13.938231433418505"><ele>47.0</ele><time>2026-04-09T11:03:24Z</time></trkpt><trkpt lat="38.01288343329368" lon="13.937843350916733"><ele>46.0</ele><time>2026-04-09T11:03:25Z</time></trkpt><trkpt lat="38.01273009061455" lon="13.93745595696132"><ele>46.0</ele><time>2026-04-09T11:03:26Z</time></trkpt><trkpt lat="38.012579113684126" lon="13.937070421422074"><ele>46.0</ele><time>2026-04-09T11:03:27Z</time></trkpt><trkpt lat="38.01242758622558" lon="13.936686840928331"><ele>46.0</ele><time>2026-04-09T11:03:28Z</time></trkpt><trkpt lat="38.01227844052139" lon="13.936317056992108"><ele>46.0</ele><time>2026-04-09T11:03:29Z</time></trkpt><trkpt lat="38.01212578696217" lon="13.935955974393309"><ele>46.0</ele><time>2026-04-09T11:03:30Z</time></trkpt><trkpt lat="38.01196111533946" lon="13.935597207743566"><ele>46.0</ele><time>2026-04-09T11:03:31Z</time></trkpt><trkpt lat="38.01178723409757" lon="13.935251190256148"><ele>47.0</ele><time>2026-04-09T11:03:32Z</time></trkpt><trkpt lat="38.011597693035355" lon="13.934913832788952"><ele>48.0</ele><time>2026-04-09T11:03:33Z</time></trkpt><trkpt lat="38.01140070429845" lon="13.934593369345913"><ele>48.0</ele><time>2026-04-09T11:03:34Z</time></trkpt><trkpt lat="38.01119374841106" lon="13.934281010849693"><ele>48.0</ele><time>2026-04-09T11:03:35Z</time></trkpt><trkpt lat="38.010975821820296" lon="13.933982655253365"><ele>46.0</ele><time>2026-04-09T11:03:36Z</time></trkpt><trkpt lat="38.01074955850831" lon="13.933697327940214"><ele>44.0</ele><time>2026-04-09T11:03:37Z</time></trkpt><trkpt lat="38.0105121005349" lon="13.933424698396605"><ele>41.5</ele><time>2026-04-09T11:03:38Z</time></trkpt><trkpt lat="38.01026276850268" lon="13.93315703295495"><ele>39.0</ele><time>2026-04-09T11:03:39Z</time></trkpt><trkpt lat="38.01001010346592" lon="13.93289810030668"><ele>36.5</ele><time>2026-04-09T11:03:40Z</time></trkpt><trkpt lat="38.00975398488546" lon="13.932641116114203"><ele>34.0</ele><time>2026-04-09T11:03:41Z</time></trkpt><trkpt lat="38.00949522465886" lon="13.93237398926079"><ele>34.0</ele><time>2026-04-09T11:03:42Z</time></trkpt><trkpt lat="38.009231877795045" lon="13.932102708550214"><ele>34.0</ele><time>2026-04-09T11:03:43Z</time></trkpt><trkpt lat="38.0089649369054" lon="13.93183323278839"><ele>31.5</ele><time>2026-04-09T11:03:44Z</time></trkpt><trkpt lat="38.00869761381772" lon="13.931564593370172"><ele>29.0</ele><time>2026-04-09T11:03:45Z</time></trkpt><trkpt lat="38.00843051182704" lon="13.931296470927956"><ele>26.5</ele><time>2026-04-09T11:03:46Z</time></trkpt><trkpt lat="38.00816173139779" lon="13.931027912830146"><ele>24.0</ele><time>2026-04-09T11:03:47Z</time></trkpt><trkpt lat="38.007895682732" lon="13.930758588151512"><ele>29.0</ele><time>2026-04-09T11:03:48Z</time></trkpt><trkpt lat="38.00763166365588" lon="13.93048858532416"><ele>34.0</ele><time>2026-04-09T11:03:49.001Z</time></trkpt><trkpt lat="38.007369665859045" lon="13.9302208138592"><ele>45.0</ele><time>2026-04-09T11:03:50.001Z</time></trkpt><trkpt lat="38.007106234014586" lon="13.929955493921597"><ele>56.0</ele><time>2026-04-09T11:03:51.001Z</time></trkpt><trkpt lat="38.006842056253454" lon="13.929691386281638"><ele>56.5</ele><time>2026-04-09T11:03:52.001Z</time></trkpt><trkpt lat="38.006579185677666" lon="13.92942595448194"><ele>57.0</ele><time>2026-04-09T11:03:53.001Z</time></trkpt><trkpt lat="38.00631617767027" lon="13.929161159154223"><ele>57.0</ele><time>2026-04-09T11:03:54.001Z</time></trkpt><trkpt lat="38.00605024678447" lon="13.928892114042544"><ele>57.0</ele><time>2026-04-09T11:03:55.001Z</time></trkpt><trkpt lat="38.00578295361756" lon="13.928623493330248"><ele>57.5</ele><time>2026-04-09T11:03:56.001Z</time></trkpt><trkpt lat="38.00551492909537" lon="13.928355814145831"><ele>58.0</ele><time>2026-04-09T11:03:57.001Z</time></trkpt><trkpt lat="38.005249985231224" lon="13.928087840919964"><ele>59.0</ele><time>2026-04-09T11:03:58.001Z</time></trkpt><trkpt lat="38.00498538768951" lon="13.92781810473892"><ele>60.0</ele><time>2026-04-09T11:03:59.001Z</time></trkpt><trkpt lat="38.00471991725998" lon="13.92754870820762"><ele>60.0</ele><time>2026-04-09T11:04:00.001Z</time></trkpt><trkpt lat="38.004452232981706" lon="13.927281611059882"><ele>60.0</ele><time>2026-04-09T11:04:01.001Z</time></trkpt><trkpt lat="38.00418235831292" lon="13.927014569084744"><ele>60.5</ele><time>2026-04-09T11:04:02.001Z</time></trkpt><trkpt lat="38.00391493923967" lon="13.926745300370083"><ele>61.0</ele><time>2026-04-09T11:04:03.001Z</time></trkpt><trkpt lat="38.00365022868425" lon="13.926479333961652"><ele>61.0</ele><time>2026-04-09T11:04:04.001Z</time></trkpt><trkpt lat="38.00338864931091" lon="13.926213701991689"><ele>61.0</ele><time>2026-04-09T11:04:05.001Z</time></trkpt><trkpt lat="38.00312816935622" lon="13.9259466285924"><ele>61.0</ele><time>2026-04-09T11:04:06.001Z</time></trkpt><trkpt lat="38.0028734711388" lon="13.92567577892191"><ele>61.0</ele><time>2026-04-09T11:04:07.001Z</time></trkpt><trkpt lat="38.00262358176191" lon="13.925396406350721"><ele>61.0</ele><time>2026-04-09T11:04:08.001Z</time></trkpt><trkpt lat="38.00238073747679" lon="13.925106764088534"><ele>61.0</ele><time>2026-04-09T11:04:09.001Z</time></trkpt><trkpt lat="38.00214574005012" lon="13.924809196510417"><ele>61.0</ele><time>2026-04-09T11:04:10.001Z</time></trkpt><trkpt lat="38.00191251271355" lon="13.924508739225729"><ele>61.0</ele><time>2026-04-09T11:04:11.001Z</time></trkpt><trkpt lat="38.001684277962504" lon="13.92420262002611"><ele>60.5</ele><time>2026-04-09T11:04:12.001Z</time></trkpt><trkpt lat="38.00146235876401" lon="13.923887928049934"><ele>60.0</ele><time>2026-04-09T11:04:13.001Z</time></trkpt><trkpt lat="38.001243851816795" lon="13.923562860078718"><ele>60.0</ele><time>2026-04-09T11:04:14.001Z</time></trkpt><trkpt lat="38.00103231669612" lon="13.923229120706722"><ele>60.0</ele><time>2026-04-09T11:04:15.001Z</time></trkpt><trkpt lat="38.000826709262405" lon="13.922890635407143"><ele>64.0</ele><time>2026-04-09T11:04:16.001Z</time></trkpt><trkpt lat="38.000628761062856" lon="13.922545366709754"><ele>68.0</ele><time>2026-04-09T11:04:17.001Z</time></trkpt><trkpt lat="38.000439290255905" lon="13.922197919286818"><ele>68.0</ele><time>2026-04-09T11:04:18.001Z</time></trkpt><trkpt lat="38.00025821850678" lon="13.921846395202238"><ele>68.0</ele><time>2026-04-09T11:04:19.001Z</time></trkpt><trkpt lat="38.00007974148086" lon="13.9214863924263"><ele>67.0</ele><time>2026-04-09T11:04:20.001Z</time></trkpt><trkpt lat="37.999908410969695" lon="13.92112293009271"><ele>66.0</ele><time>2026-04-09T11:04:21.001Z</time></trkpt><trkpt lat="37.99974069353822" lon="13.920756606741124"><ele>66.0</ele><time>2026-04-09T11:04:22.001Z</time></trkpt><trkpt lat="37.999571232838385" lon="13.920386490386703"><ele>66.0</ele><time>2026-04-09T11:04:23.001Z</time></trkpt><trkpt lat="37.999401618583065" lon="13.92001557205906"><ele>66.0</ele><time>2026-04-09T11:04:24.001Z</time></trkpt><trkpt lat="37.99922959918289" lon="13.91964141904431"><ele>66.0</ele><time>2026-04-09T11:04:25.001Z</time></trkpt><trkpt lat="37.99905804483446" lon="13.919263469088092"><ele>64.0</ele><time>2026-04-09T11:04:26.001Z</time></trkpt><trkpt lat="37.9988852370758" lon="13.918886216566287"><ele>62.0</ele><time>2026-04-09T11:04:27.001Z</time></trkpt><trkpt lat="37.998711790518506" lon="13.918507204379507"><ele>57.5</ele><time>2026-04-09T11:04:28.001Z</time></trkpt><trkpt lat="37.99853679768012" lon="13.918123169529267"><ele>53.0</ele><time>2026-04-09T11:04:29.001Z</time></trkpt><trkpt lat="37.9983564834019" lon="13.917734469657937"><ele>45.0</ele><time>2026-04-09T11:04:30.001Z</time></trkpt><trkpt lat="37.99817195505479" lon="13.917344174354746"><ele>37.0</ele><time>2026-04-09T11:04:31.001Z</time></trkpt><trkpt lat="37.99802994037367" lon="13.916993102802756"><ele>40.5</ele><time>2026-04-09T11:04:32.001Z</time></trkpt><trkpt lat="37.99785738439459" lon="13.916615460502568"><ele>44.0</ele><time>2026-04-09T11:04:33.001Z</time></trkpt><trkpt lat="37.99768210714672" lon="13.916238127892477"><ele>49.0</ele><time>2026-04-09T11:04:34.001Z</time></trkpt><trkpt lat="37.99751035910017" lon="13.915863151660016"><ele>54.0</ele><time>2026-04-09T11:04:35.001Z</time></trkpt><trkpt lat="37.99733940642859" lon="13.91548266116109"><ele>55.0</ele><time>2026-04-09T11:04:36.001Z</time></trkpt><trkpt lat="37.99716933688641" lon="13.915097937365616"><ele>56.0</ele><time>2026-04-09T11:04:37.001Z</time></trkpt><trkpt lat="37.99699996328383" lon="13.91471522151905"><ele>56.0</ele><time>2026-04-09T11:04:38.001Z</time></trkpt><trkpt lat="37.99683831086288" lon="13.914334010856997"><ele>56.0</ele><time>2026-04-09T11:04:39.001Z</time></trkpt><trkpt lat="37.996676778312214" lon="13.913956465844871"><ele>55.5</ele><time>2026-04-09T11:04:40Z</time></trkpt><trkpt lat="37.996520297792216" lon="13.913575092137714"><ele>55.0</ele><time>2026-04-09T11:04:41Z</time></trkpt><trkpt lat="37.996362712469505" lon="13.913189417363125"><ele>55.0</ele><time>2026-04-09T11:04:42Z</time></trkpt><trkpt lat="37.99621337502579" lon="13.912806399177764"><ele>55.0</ele><time>2026-04-09T11:04:43Z</time></trkpt><trkpt lat="37.996080764086805" lon="13.912446069519397"><ele>56.0</ele><time>2026-04-09T11:04:44Z</time></trkpt><trkpt lat="37.99595323049968" lon="13.912088577135126"><ele>57.0</ele><time>2026-04-09T11:04:45Z</time></trkpt><trkpt lat="37.995823333335146" lon="13.911725257466927"><ele>60.5</ele><time>2026-04-09T11:04:46Z</time></trkpt><trkpt lat="37.995697869173014" lon="13.911356174105977"><ele>64.0</ele><time>2026-04-09T11:04:47Z</time></trkpt><trkpt lat="37.99557684217864" lon="13.910993336199482"><ele>60.5</ele><time>2026-04-09T11:04:48Z</time></trkpt><trkpt lat="37.995467972800206" lon="13.910652068427028"><ele>57.0</ele><time>2026-04-09T11:04:49Z</time></trkpt><trkpt lat="37.99536395427872" lon="13.910322255412284"><ele>50.0</ele><time>2026-04-09T11:04:50Z</time></trkpt><trkpt lat="37.99526127487703" lon="13.909997568490631"><ele>43.0</ele><time>2026-04-09T11:04:51Z</time></trkpt><trkpt lat="37.99516004374477" lon="13.90966581072381"><ele>43.0</ele><time>2026-04-09T11:04:52Z</time></trkpt><trkpt lat="37.99506112662119" lon="13.909338483813746"><ele>43.0</ele><time>2026-04-09T11:04:53Z</time></trkpt><trkpt lat="37.99497038866229" lon="13.909009700076961"><ele>43.5</ele><time>2026-04-09T11:04:54Z</time></trkpt><trkpt lat="37.994874899951796" lon="13.90867801100944"><ele>44.0</ele><time>2026-04-09T11:04:55Z</time></trkpt><trkpt lat="37.9947853680704" lon="13.9083575667897"><ele>47.0</ele><time>2026-04-09T11:04:56Z</time></trkpt><trkpt lat="37.994697923407855" lon="13.908047136328507"><ele>50.0</ele><time>2026-04-09T11:04:57Z</time></trkpt><trkpt lat="37.99460910107552" lon="13.90773655807035"><ele>57.5</ele><time>2026-04-09T11:04:58Z</time></trkpt><trkpt lat="37.994522410556144" lon="13.907424060096636"><ele>65.0</ele><time>2026-04-09T11:04:59Z</time></trkpt><trkpt lat="37.99443475583635" lon="13.907112886295714"><ele>65.0</ele><time>2026-04-09T11:05:00Z</time></trkpt><trkpt lat="37.994344276247624" lon="13.906803581843768"><ele>65.0</ele><time>2026-04-09T11:05:01Z</time></trkpt><trkpt lat="37.99425156735264" lon="13.906491542390793"><ele>68.0</ele><time>2026-04-09T11:05:02Z</time></trkpt><trkpt lat="37.994156355909745" lon="13.906172637290684"><ele>71.0</ele><time>2026-04-09T11:05:03Z</time></trkpt><trkpt lat="37.99405712803954" lon="13.905849223439782"><ele>71.0</ele><time>2026-04-09T11:05:04Z</time></trkpt><trkpt lat="37.99395080587501" lon="13.905513098240341"><ele>71.0</ele><time>2026-04-09T11:05:05Z</time></trkpt><trkpt lat="37.99382983031376" lon="13.90515743582456"><ele>69.5</ele><time>2026-04-09T11:05:06Z</time></trkpt><trkpt lat="37.99370666332939" lon="13.90478060875024"><ele>68.0</ele><time>2026-04-09T11:05:07Z</time></trkpt><trkpt lat="37.993584203058305" lon="13.904397079988097"><ele>68.0</ele><time>2026-04-09T11:05:08Z</time></trkpt><trkpt lat="37.993455518467066" lon="13.904003645432033"><ele>68.0</ele><time>2026-04-09T11:05:09Z</time></trkpt><trkpt lat="37.993321439171446" lon="13.903609834942314"><ele>70.0</ele><time>2026-04-09T11:05:10Z</time></trkpt><trkpt lat="37.99318302390754" lon="13.903214432832796"><ele>72.0</ele><time>2026-04-09T11:05:11Z</time></trkpt><trkpt lat="37.9930365649448" lon="13.902820376042698"><ele>71.0</ele><time>2026-04-09T11:05:12Z</time></trkpt><trkpt lat="37.992886374862906" lon="13.902425073955971"><ele>70.0</ele><time>2026-04-09T11:05:13Z</time></trkpt><trkpt lat="37.992731891993884" lon="13.902029963513609"><ele>70.5</ele><time>2026-04-09T11:05:14Z</time></trkpt><trkpt lat="37.99257180339529" lon="13.901638646114053"><ele>71.0</ele><time>2026-04-09T11:05:15Z</time></trkpt><trkpt lat="37.99240712550419" lon="13.901248496199553"><ele>73.0</ele><time>2026-04-09T11:05:16Z</time></trkpt><trkpt lat="37.992239671398856" lon="13.900857154925834"><ele>75.0</ele><time>2026-04-09T11:05:17Z</time></trkpt><trkpt lat="37.99206852940268" lon="13.90047000595704"><ele>75.0</ele><time>2026-04-09T11:05:18Z</time></trkpt><trkpt lat="37.99188995972118" lon="13.900084019205744"><ele>75.0</ele><time>2026-04-09T11:05:19Z</time></trkpt><trkpt lat="37.99170967943215" lon="13.89970067195443"><ele>75.0</ele><time>2026-04-09T11:05:20Z</time></trkpt><trkpt lat="37.9915273451248" lon="13.899320012556858"><ele>75.0</ele><time>2026-04-09T11:05:21Z</time></trkpt><trkpt lat="37.99134577748124" lon="13.898941736556367"><ele>75.0</ele><time>2026-04-09T11:05:22Z</time></trkpt><trkpt lat="37.99116375093305" lon="13.89856386641825"><ele>75.0</ele><time>2026-04-09T11:05:23Z</time></trkpt><trkpt lat="37.99097868026689" lon="13.898187178243576"><ele>76.5</ele><time>2026-04-09T11:05:24Z</time></trkpt><trkpt lat="37.990795762277244" lon="13.897811970935486"><ele>78.0</ele><time>2026-04-09T11:05:25Z</time></trkpt><trkpt lat="37.99061170899275" lon="13.897437864428833"><ele>78.0</ele><time>2026-04-09T11:05:26Z</time></trkpt><trkpt lat="37.990426959985285" lon="13.897065478477149"><ele>78.0</ele><time>2026-04-09T11:05:27Z</time></trkpt><trkpt lat="37.99024185914769" lon="13.8966906702733"><ele>77.0</ele><time>2026-04-09T11:05:28Z</time></trkpt><trkpt lat="37.99005817537964" lon="13.896313408990435"><ele>76.0</ele><time>2026-04-09T11:05:29Z</time></trkpt><trkpt lat="37.989874305502795" lon="13.895934461478653"><ele>79.0</ele><time>2026-04-09T11:05:30Z</time></trkpt><trkpt lat="37.98968994285238" lon="13.895552762532985"><ele>82.0</ele><time>2026-04-09T11:05:31Z</time></trkpt><trkpt lat="37.98950326620073" lon="13.895172817080233"><ele>81.0</ele><time>2026-04-09T11:05:32Z</time></trkpt><trkpt lat="37.98931797196132" lon="13.894792480670418"><ele>80.0</ele><time>2026-04-09T11:05:33Z</time></trkpt><trkpt lat="37.989134277037586" lon="13.894406129049697"><ele>71.5</ele><time>2026-04-09T11:05:34Z</time></trkpt><trkpt lat="37.988951685297984" lon="13.89401759667846"><ele>63.0</ele><time>2026-04-09T11:05:35Z</time></trkpt><trkpt lat="37.98876850875865" lon="13.893629303056963"><ele>53.0</ele><time>2026-04-09T11:05:36Z</time></trkpt><trkpt lat="37.98857976066234" lon="13.89323685647877"><ele>43.0</ele><time>2026-04-09T11:05:37Z</time></trkpt><trkpt lat="37.988392463644296" lon="13.892853264709434"><ele>39.0</ele><time>2026-04-09T11:05:38Z</time></trkpt><trkpt lat="37.98820356284267" lon="13.892457707916558"><ele>35.0</ele><time>2026-04-09T11:05:39Z</time></trkpt><trkpt lat="37.9880154612136" lon="13.892067599217844"><ele>33.0</ele><time>2026-04-09T11:05:40Z</time></trkpt><trkpt lat="37.987826585258304" lon="13.891682082744559"><ele>31.0</ele><time>2026-04-09T11:05:41Z</time></trkpt><trkpt lat="37.98763553076768" lon="13.891289453880656"><ele>33.0</ele><time>2026-04-09T11:05:42Z</time></trkpt><trkpt lat="37.98744373341814" lon="13.890901891497906"><ele>35.0</ele><time>2026-04-09T11:05:43Z</time></trkpt><trkpt lat="37.98725206302006" lon="13.890515873060911"><ele>35.0</ele><time>2026-04-09T11:05:44Z</time></trkpt><trkpt lat="37.98705889943887" lon="13.89012414691592"><ele>35.0</ele><time>2026-04-09T11:05:45Z</time></trkpt><trkpt lat="37.98686859969638" lon="13.88973442720765"><ele>36.0</ele><time>2026-04-09T11:05:46Z</time></trkpt><trkpt lat="37.98667928582975" lon="13.889343112867794"><ele>37.0</ele><time>2026-04-09T11:05:47Z</time></trkpt><trkpt lat="37.98648900030999" lon="13.88894968016028"><ele>44.0</ele><time>2026-04-09T11:05:48Z</time></trkpt><trkpt lat="37.986295866122965" lon="13.888556239580398"><ele>51.0</ele><time>2026-04-09T11:05:49Z</time></trkpt><trkpt lat="37.98610277165638" lon="13.888165084022658"><ele>54.5</ele><time>2026-04-09T11:05:50Z</time></trkpt><trkpt lat="37.98590888158149" lon="13.88776805820253"><ele>58.0</ele><time>2026-04-09T11:05:51Z</time></trkpt><trkpt lat="37.9857150993663" lon="13.887372838449068"><ele>64.5</ele><time>2026-04-09T11:05:52Z</time></trkpt><trkpt lat="37.985527073964874" lon="13.886987992420021"><ele>71.0</ele><time>2026-04-09T11:05:53Z</time></trkpt><trkpt lat="37.98533949909184" lon="13.886605867139618"><ele>75.5</ele><time>2026-04-09T11:05:54Z</time></trkpt><trkpt lat="37.98516091930578" lon="13.88624935361754"><ele>80.0</ele><time>2026-04-09T11:05:55.001Z</time></trkpt><trkpt lat="37.98498206827723" lon="13.885896982686104"><ele>84.5</ele><time>2026-04-09T11:05:56.001Z</time></trkpt><trkpt lat="37.98479253305095" lon="13.885551276671197"><ele>89.0</ele><time>2026-04-09T11:05:57.001Z</time></trkpt><trkpt lat="37.9846015773671" lon="13.88520589812032"><ele>89.0</ele><time>2026-04-09T11:05:58.001Z</time></trkpt><trkpt lat="37.9844096025407" lon="13.884859511413513"><ele>89.0</ele><time>2026-04-09T11:05:59.001Z</time></trkpt><trkpt lat="37.98423671859811" lon="13.884498267683318"><ele>92.0</ele><time>2026-04-09T11:06:00.001Z</time></trkpt><trkpt lat="37.98406872583056" lon="13.884134999886603"><ele>95.0</ele><time>2026-04-09T11:06:01.001Z</time></trkpt><trkpt lat="37.983913222919746" lon="13.88376817449817"><ele>97.0</ele><time>2026-04-09T11:06:02.001Z</time></trkpt><trkpt lat="37.98376573780362" lon="13.88339566689489"><ele>99.0</ele><time>2026-04-09T11:06:03.001Z</time></trkpt><trkpt lat="37.98362914440363" lon="13.88300803249302"><ele>91.0</ele><time>2026-04-09T11:06:04.069Z</time></trkpt><trkpt lat="37.983050881922566" lon="13.880287333819068"><ele>88.5</ele><time>2026-04-09T11:06:11.001Z</time></trkpt><trkpt lat="37.982989867296666" lon="13.879875017848166"><ele>86.0</ele><time>2026-04-09T11:06:12.001Z</time></trkpt><trkpt lat="37.982988416270004" lon="13.879462809713145"><ele>83.0</ele><time>2026-04-09T11:06:13Z</time></trkpt><trkpt lat="37.98296547500249" lon="13.879036169538775"><ele>80.0</ele><time>2026-04-09T11:06:14Z</time></trkpt><trkpt lat="37.982962413594606" lon="13.878608446915901"><ele>77.0</ele><time>2026-04-09T11:06:15Z</time></trkpt><trkpt lat="37.98296469359957" lon="13.8781740482026"><ele>74.0</ele><time>2026-04-09T11:06:16Z</time></trkpt><trkpt lat="37.9829935993744" lon="13.877724894542688"><ele>75.5</ele><time>2026-04-09T11:06:17Z</time></trkpt><trkpt lat="37.98302534006172" lon="13.877280478789817"><ele>77.0</ele><time>2026-04-09T11:06:18Z</time></trkpt><trkpt lat="37.983075432629114" lon="13.876833058078914"><ele>77.5</ele><time>2026-04-09T11:06:19Z</time></trkpt><trkpt lat="37.983136334607885" lon="13.876375783637723"><ele>78.0</ele><time>2026-04-09T11:06:20Z</time></trkpt><trkpt lat="37.98321967641401" lon="13.875914547259361"><ele>78.0</ele><time>2026-04-09T11:06:21Z</time></trkpt><trkpt lat="37.98331159302257" lon="13.875452842339612"><ele>78.0</ele><time>2026-04-09T11:06:22Z</time></trkpt><trkpt lat="37.98342596428594" lon="13.874994418293012"><ele>69.0</ele><time>2026-04-09T11:06:23Z</time></trkpt><trkpt lat="37.9835351919129" lon="13.874540279206304"><ele>60.0</ele><time>2026-04-09T11:06:24Z</time></trkpt><trkpt lat="37.983657530526635" lon="13.874082030820222"><ele>60.0</ele><time>2026-04-09T11:06:25Z</time></trkpt><trkpt lat="37.98378528779348" lon="13.873625252748342"><ele>60.0</ele><time>2026-04-09T11:06:26Z</time></trkpt><trkpt lat="37.98391910173945" lon="13.8731724476788"><ele>59.5</ele><time>2026-04-09T11:06:27Z</time></trkpt><trkpt lat="37.98404034680734" lon="13.872714085354163"><ele>59.0</ele><time>2026-04-09T11:06:28Z</time></trkpt><trkpt lat="37.98415152502953" lon="13.872252330912454"><ele>55.5</ele><time>2026-04-09T11:06:29Z</time></trkpt><trkpt lat="37.984247715363466" lon="13.871796118015144"><ele>52.0</ele><time>2026-04-09T11:06:30Z</time></trkpt><trkpt lat="37.98431637484483" lon="13.87133981980345"><ele>53.0</ele><time>2026-04-09T11:06:31Z</time></trkpt><trkpt lat="37.98436975946825" lon="13.87087860897998"><ele>54.0</ele><time>2026-04-09T11:06:32Z</time></trkpt><trkpt lat="37.98440190126486" lon="13.870417097373746"><ele>51.0</ele><time>2026-04-09T11:06:33Z</time></trkpt><trkpt lat="37.98441067575609" lon="13.869949811076198"><ele>48.0</ele><time>2026-04-09T11:06:34Z</time></trkpt><trkpt lat="37.98440394800545" lon="13.869484918111112"><ele>45.5</ele><time>2026-04-09T11:06:35Z</time></trkpt><trkpt lat="37.98438441452747" lon="13.869016993797946"><ele>43.0</ele><time>2026-04-09T11:06:36Z</time></trkpt><trkpt lat="37.984350204498874" lon="13.86854165983546"><ele>42.0</ele><time>2026-04-09T11:06:37Z</time></trkpt><trkpt lat="37.98431184395587" lon="13.868068013513712"><ele>41.0</ele><time>2026-04-09T11:06:38Z</time></trkpt><trkpt lat="37.98427298820756" lon="13.867592790810669"><ele>38.5</ele><time>2026-04-09T11:06:39Z</time></trkpt><trkpt lat="37.984236524162384" lon="13.867117718225217"><ele>36.0</ele><time>2026-04-09T11:06:40Z</time></trkpt><trkpt lat="37.984197655342996" lon="13.866638720295116"><ele>38.5</ele><time>2026-04-09T11:06:41Z</time></trkpt><trkpt lat="37.98416242276337" lon="13.866163426535444"><ele>41.0</ele><time>2026-04-09T11:06:42Z</time></trkpt><trkpt lat="37.98412591539547" lon="13.865686669512664"><ele>41.0</ele><time>2026-04-09T11:06:43Z</time></trkpt><trkpt lat="37.98408633987642" lon="13.865209341612383"><ele>41.0</ele><time>2026-04-09T11:06:44Z</time></trkpt><trkpt lat="37.98404182364877" lon="13.864737960934722"><ele>37.0</ele><time>2026-04-09T11:06:45Z</time></trkpt><trkpt lat="37.98399718784731" lon="13.864263968755973"><ele>33.0</ele><time>2026-04-09T11:06:46Z</time></trkpt><trkpt lat="37.98395920449595" lon="13.863791757537445"><ele>31.0</ele><time>2026-04-09T11:06:47Z</time></trkpt><trkpt lat="37.983918648098914" lon="13.863316689070018"><ele>29.0</ele><time>2026-04-09T11:06:48Z</time></trkpt><trkpt lat="37.98388191322732" lon="13.862845390968143"><ele>27.5</ele><time>2026-04-09T11:06:49Z</time></trkpt><trkpt lat="37.983844835594496" lon="13.862377076298129"><ele>26.0</ele><time>2026-04-09T11:06:50Z</time></trkpt><trkpt lat="37.98380699861838" lon="13.861904408763845"><ele>23.5</ele><time>2026-04-09T11:06:51Z</time></trkpt><trkpt lat="37.983765165593624" lon="13.86143367483818"><ele>21.0</ele><time>2026-04-09T11:06:52Z</time></trkpt><trkpt lat="37.983725766135485" lon="13.860968882346317"><ele>19.5</ele><time>2026-04-09T11:06:53Z</time></trkpt><trkpt lat="37.98368710525544" lon="13.860501354365496"><ele>18.0</ele><time>2026-04-09T11:06:54Z</time></trkpt><trkpt lat="37.98364169275348" lon="13.860045131839783"><ele>17.0</ele><time>2026-04-09T11:06:55Z</time></trkpt><trkpt lat="37.983578783919576" lon="13.859594154706578"><ele>16.0</ele><time>2026-04-09T11:06:56Z</time></trkpt><trkpt lat="37.98350110032766" lon="13.859145008504996"><ele>16.5</ele><time>2026-04-09T11:06:57Z</time></trkpt><trkpt lat="37.98340566217767" lon="13.858707166874968"><ele>17.0</ele><time>2026-04-09T11:06:58Z</time></trkpt><trkpt lat="37.98329308372077" lon="13.858271749376208"><ele>17.0</ele><time>2026-04-09T11:06:59Z</time></trkpt><trkpt lat="37.983160344593955" lon="13.857840836042037"><ele>17.0</ele><time>2026-04-09T11:07:00Z</time></trkpt><trkpt lat="37.98301465106496" lon="13.857416921940077"><ele>15.0</ele><time>2026-04-09T11:07:01Z</time></trkpt><trkpt lat="37.982857759527704" lon="13.856996979593474"><ele>13.0</ele><time>2026-04-09T11:07:02Z</time></trkpt><trkpt lat="37.982702855823845" lon="13.856575095471404"><ele>13.0</ele><time>2026-04-09T11:07:03Z</time></trkpt><trkpt lat="37.982548133594804" lon="13.856149294037419"><ele>13.0</ele><time>2026-04-09T11:07:04Z</time></trkpt><trkpt lat="37.98239722095606" lon="13.855721940749282"><ele>13.0</ele><time>2026-04-09T11:07:05Z</time></trkpt><trkpt lat="37.982247560621104" lon="13.855299929300745"><ele>13.0</ele><time>2026-04-09T11:07:06Z</time></trkpt><trkpt lat="37.9820982478907" lon="13.854874559304873"><ele>11.0</ele><time>2026-04-09T11:07:07Z</time></trkpt><trkpt lat="37.98194130841415" lon="13.854447180099193"><ele>9.0</ele><time>2026-04-09T11:07:08Z</time></trkpt><trkpt lat="37.981787050310935" lon="13.854021982880024"><ele>10.0</ele><time>2026-04-09T11:07:09Z</time></trkpt><trkpt lat="37.981632289882896" lon="13.853592435560202"><ele>11.0</ele><time>2026-04-09T11:07:10Z</time></trkpt><trkpt lat="37.98147717820374" lon="13.853167930625386"><ele>11.0</ele><time>2026-04-09T11:07:11Z</time></trkpt><trkpt lat="37.981323764804095" lon="13.852742995101954"><ele>11.0</ele><time>2026-04-09T11:07:12Z</time></trkpt><trkpt lat="37.98117171047384" lon="13.852319584339382"><ele>10.0</ele><time>2026-04-09T11:07:13Z</time></trkpt><trkpt lat="37.98102134652173" lon="13.851897170443145"><ele>9.0</ele><time>2026-04-09T11:07:14Z</time></trkpt><trkpt lat="37.98087158499583" lon="13.85147474100347"><ele>10.5</ele><time>2026-04-09T11:07:15Z</time></trkpt><trkpt lat="37.98072194472255" lon="13.851056319313349"><ele>12.0</ele><time>2026-04-09T11:07:16Z</time></trkpt><trkpt lat="37.98057732892483" lon="13.850640828855884"><ele>12.0</ele><time>2026-04-09T11:07:17Z</time></trkpt><trkpt lat="37.98045140763069" lon="13.850248840687641"><ele>12.0</ele><time>2026-04-09T11:07:18Z</time></trkpt><trkpt lat="37.980345727198085" lon="13.849877198257701"><ele>10.0</ele><time>2026-04-09T11:07:19Z</time></trkpt><trkpt lat="37.9802501701034" lon="13.849514493132524"><ele>8.0</ele><time>2026-04-09T11:07:20Z</time></trkpt><trkpt lat="37.98017267145061" lon="13.84916133566563"><ele>6.5</ele><time>2026-04-09T11:07:21Z</time></trkpt><trkpt lat="37.98010273202546" lon="13.848808371343317"><ele>5.0</ele><time>2026-04-09T11:07:22Z</time></trkpt><trkpt lat="37.98004130670638" lon="13.84845631013395"><ele>8.5</ele><time>2026-04-09T11:07:23Z</time></trkpt><trkpt lat="37.9799881554587" lon="13.84811651362949"><ele>12.0</ele><time>2026-04-09T11:07:24Z</time></trkpt><trkpt lat="37.97994492496924" lon="13.847787746746345"><ele>12.0</ele><time>2026-04-09T11:07:25Z</time></trkpt><trkpt lat="37.979909073854415" lon="13.847465182516038"><ele>12.0</ele><time>2026-04-09T11:07:26Z</time></trkpt><trkpt lat="37.9798801938083" lon="13.847157020631565"><ele>12.0</ele><time>2026-04-09T11:07:27Z</time></trkpt><trkpt lat="37.97986087583823" lon="13.846869722600555"><ele>12.0</ele><time>2026-04-09T11:07:28Z</time></trkpt><trkpt lat="37.97984969829738" lon="13.846596154264304"><ele>12.0</ele><time>2026-04-09T11:07:29Z</time></trkpt><trkpt lat="37.979853688112705" lon="13.846341827988631"><ele>12.0</ele><time>2026-04-09T11:07:30Z</time></trkpt><trkpt lat="37.97987100603463" lon="13.846102662560781"><ele>12.0</ele><time>2026-04-09T11:07:31Z</time></trkpt><trkpt lat="37.979894831294814" lon="13.845879272808412"><ele>12.0</ele><time>2026-04-09T11:07:32Z</time></trkpt><trkpt lat="37.97992148542242" lon="13.845670760319216"><ele>12.25</ele><time>2026-04-09T11:07:33Z</time></trkpt><trkpt lat="37.979943889297914" lon="13.845479045313017"><ele>12.5</ele><time>2026-04-09T11:07:34Z</time></trkpt><trkpt lat="37.97995930738621" lon="13.845305096765218"><ele>12.75</ele><time>2026-04-09T11:07:35Z</time></trkpt><trkpt lat="37.979972186281294" lon="13.84516172557814"><ele>13.0</ele><time>2026-04-09T11:07:36Z</time></trkpt><trkpt lat="37.97997996555787" lon="13.84505052525075"><ele>13.0</ele><time>2026-04-09T11:07:37Z</time></trkpt><trkpt lat="37.97999186713654" lon="13.844926145795222"><ele>13.0</ele><time>2026-04-09T11:07:38Z</time></trkpt><trkpt lat="37.97999120949279" lon="13.844795262432104"><ele>13.0</ele><time>2026-04-09T11:07:40Z</time></trkpt><trkpt lat="37.97999369577355" lon="13.844647349205111"><ele>13.0</ele><time>2026-04-09T11:08:30Z</time></trkpt><trkpt lat="37.98000128169011" lon="13.844522544362365"><ele>13.0</ele><time>2026-04-09T11:08:31Z</time></trkpt><trkpt lat="37.98001645713783" lon="13.84439977079526"><ele>13.5</ele><time>2026-04-09T11:08:32Z</time></trkpt><trkpt lat="37.98001155247602" lon="13.844265425879069"><ele>14.0</ele><time>2026-04-09T11:08:33Z</time></trkpt><trkpt lat="37.98002072324421" lon="13.844100858578237"><ele>14.5</ele><time>2026-04-09T11:08:34Z</time></trkpt><trkpt lat="37.980018146786044" lon="13.84391601721836"><ele>15.0</ele><time>2026-04-09T11:08:35Z</time></trkpt><trkpt lat="37.98002259848183" lon="13.843710602570432"><ele>12.666666666666666</ele><time>2026-04-09T11:08:36Z</time></trkpt><trkpt lat="37.98001696678743" lon="13.843471223749694"><ele>10.333333333333332</ele><time>2026-04-09T11:08:37Z</time></trkpt><trkpt lat="37.980028125664504" lon="13.84320324559459"><ele>8.0</ele><time>2026-04-09T11:08:38Z</time></trkpt><trkpt lat="37.98003643205215" lon="13.84291847296529"><ele>8.0</ele><time>2026-04-09T11:08:39Z</time></trkpt><trkpt lat="37.98005675829267" lon="13.842608510285942"><ele>8.0</ele><time>2026-04-09T11:08:40Z</time></trkpt><trkpt lat="37.98008026554112" lon="13.842272898988085"><ele>8.0</ele><time>2026-04-09T11:08:41Z</time></trkpt><trkpt lat="37.98010835273721" lon="13.841922616664895"><ele>8.0</ele><time>2026-04-09T11:08:42Z</time></trkpt><trkpt lat="37.98013596650806" lon="13.841558331544357"><ele>7.5</ele><time>2026-04-09T11:08:43Z</time></trkpt><trkpt lat="37.98016206403795" lon="13.84116690606436"><ele>7.0</ele><time>2026-04-09T11:08:44Z</time></trkpt><trkpt lat="37.98019501337322" lon="13.840770455495038"><ele>7.0</ele><time>2026-04-09T11:08:45Z</time></trkpt><trkpt lat="37.98021986412756" lon="13.840371054471534"><ele>7.0</ele><time>2026-04-09T11:08:46Z</time></trkpt><trkpt lat="37.980240150678526" lon="13.839963665672022"><ele>7.0</ele><time>2026-04-09T11:08:47Z</time></trkpt><trkpt lat="37.9802541067183" lon="13.839549910761608"><ele>7.0</ele><time>2026-04-09T11:08:48Z</time></trkpt><trkpt lat="37.980260226467635" lon="13.8391367085973"><ele>6.5</ele><time>2026-04-09T11:08:49Z</time></trkpt><trkpt lat="37.98025441146818" lon="13.838715182032535"><ele>6.0</ele><time>2026-04-09T11:08:50Z</time></trkpt><trkpt lat="37.98023900550013" lon="13.838294738119416"><ele>6.5</ele><time>2026-04-09T11:08:51Z</time></trkpt><trkpt lat="37.980218316653634" lon="13.83787368688301"><ele>7.0</ele><time>2026-04-09T11:08:52Z</time></trkpt><trkpt lat="37.980196965690574" lon="13.837452344984154"><ele>7.0</ele><time>2026-04-09T11:08:53Z</time></trkpt><trkpt lat="37.980174163553016" lon="13.837029123536249"><ele>7.0</ele><time>2026-04-09T11:08:54Z</time></trkpt><trkpt lat="37.9801539991733" lon="13.836606315614647"><ele>7.0</ele><time>2026-04-09T11:08:55Z</time></trkpt><trkpt lat="37.98013500666214" lon="13.836183593716033"><ele>7.0</ele><time>2026-04-09T11:08:56Z</time></trkpt><trkpt lat="37.98011674021155" lon="13.835755840778756"><ele>6.5</ele><time>2026-04-09T11:08:57Z</time></trkpt><trkpt lat="37.98009688173405" lon="13.835328191325537"><ele>6.0</ele><time>2026-04-09T11:08:58Z</time></trkpt><trkpt lat="37.98007738254935" lon="13.83489831659023"><ele>6.0</ele><time>2026-04-09T11:08:59Z</time></trkpt><trkpt lat="37.98005692333493" lon="13.83446970137773"><ele>6.0</ele><time>2026-04-09T11:09:00Z</time></trkpt><trkpt lat="37.9800353181669" lon="13.834040271235308"><ele>7.0</ele><time>2026-04-09T11:09:01Z</time></trkpt><trkpt lat="37.98001190666741" lon="13.833613557928272"><ele>8.0</ele><time>2026-04-09T11:09:02Z</time></trkpt><trkpt lat="37.97999052537327" lon="13.833185527594456"><ele>8.0</ele><time>2026-04-09T11:09:03Z</time></trkpt><trkpt lat="37.979974327304085" lon="13.83275801856048"><ele>8.0</ele><time>2026-04-09T11:09:04Z</time></trkpt><trkpt lat="37.979955632389526" lon="13.832337342974117"><ele>8.5</ele><time>2026-04-09T11:09:05Z</time></trkpt><trkpt lat="37.97993472851907" lon="13.831923322704084"><ele>9.0</ele><time>2026-04-09T11:09:06Z</time></trkpt><trkpt lat="37.97991363117658" lon="13.83150341160331"><ele>10.0</ele><time>2026-04-09T11:09:07Z</time></trkpt><trkpt lat="37.97989330551903" lon="13.831074737336099"><ele>11.0</ele><time>2026-04-09T11:09:08Z</time></trkpt><trkpt lat="37.97987474658773" lon="13.830646390851697"><ele>11.0</ele><time>2026-04-09T11:09:09Z</time></trkpt><trkpt lat="37.97985538937125" lon="13.830217368487139"><ele>11.0</ele><time>2026-04-09T11:09:10Z</time></trkpt><trkpt lat="37.97983705637102" lon="13.829789562323493"><ele>12.0</ele><time>2026-04-09T11:09:11Z</time></trkpt><trkpt lat="37.97981581182731" lon="13.829364836020755"><ele>13.0</ele><time>2026-04-09T11:09:12Z</time></trkpt><trkpt lat="37.979798710086264" lon="13.828943264708904"><ele>13.5</ele><time>2026-04-09T11:09:13Z</time></trkpt><trkpt lat="37.979778455539545" lon="13.82852125842628"><ele>14.0</ele><time>2026-04-09T11:09:14Z</time></trkpt><trkpt lat="37.97975847154542" lon="13.828102884611706"><ele>12.5</ele><time>2026-04-09T11:09:15Z</time></trkpt><trkpt lat="37.979735968819206" lon="13.82769064892492"><ele>11.0</ele><time>2026-04-09T11:09:16Z</time></trkpt><trkpt lat="37.97971682831852" lon="13.827279171258171"><ele>10.0</ele><time>2026-04-09T11:09:17Z</time></trkpt><trkpt lat="37.97970062241967" lon="13.826874113036727"><ele>9.0</ele><time>2026-04-09T11:09:18Z</time></trkpt><trkpt lat="37.97968280933412" lon="13.826469452820575"><ele>8.0</ele><time>2026-04-09T11:09:19Z</time></trkpt><trkpt lat="37.97966122037252" lon="13.826063601674738"><ele>7.0</ele><time>2026-04-09T11:09:20Z</time></trkpt><trkpt lat="37.97963544935299" lon="13.825652178976947"><ele>7.0</ele><time>2026-04-09T11:09:21Z</time></trkpt><trkpt lat="37.97960204018888" lon="13.825244879715783"><ele>7.0</ele><time>2026-04-09T11:09:22Z</time></trkpt><trkpt lat="37.979560558408906" lon="13.824837560034151"><ele>6.5</ele><time>2026-04-09T11:09:23Z</time></trkpt><trkpt lat="37.97950516834186" lon="13.824430052869308"><ele>6.0</ele><time>2026-04-09T11:09:24Z</time></trkpt><trkpt lat="37.97943538872403" lon="13.82401824149746"><ele>6.0</ele><time>2026-04-09T11:09:25Z</time></trkpt><trkpt lat="37.97935157491022" lon="13.823613762126891"><ele>6.0</ele><time>2026-04-09T11:09:26Z</time></trkpt><trkpt lat="37.979254479052734" lon="13.823207458376622"><ele>6.5</ele><time>2026-04-09T11:09:27Z</time></trkpt><trkpt lat="37.97914818683414" lon="13.822803494521873"><ele>7.0</ele><time>2026-04-09T11:09:28Z</time></trkpt><trkpt lat="37.97903069619561" lon="13.822395656235964"><ele>7.5</ele><time>2026-04-09T11:09:29Z</time></trkpt><trkpt lat="37.97890842812405" lon="13.82199545989859"><ele>8.0</ele><time>2026-04-09T11:09:30Z</time></trkpt><trkpt lat="37.97877813826182" lon="13.821595402430102"><ele>8.0</ele><time>2026-04-09T11:09:31Z</time></trkpt><trkpt lat="37.97864535187591" lon="13.821204909454442"><ele>8.0</ele><time>2026-04-09T11:09:32Z</time></trkpt><trkpt lat="37.9785113113462" lon="13.820810197093085"><ele>7.0</ele><time>2026-04-09T11:09:33Z</time></trkpt><trkpt lat="37.978380477846855" lon="13.820403637322233"><ele>6.0</ele><time>2026-04-09T11:09:34Z</time></trkpt><trkpt lat="37.978254766418644" lon="13.819990018453279"><ele>6.0</ele><time>2026-04-09T11:09:35Z</time></trkpt><trkpt lat="37.97813281912118" lon="13.819568542505241"><ele>6.0</ele><time>2026-04-09T11:09:36Z</time></trkpt><trkpt lat="37.97800839163718" lon="13.819139413843363"><ele>6.0</ele><time>2026-04-09T11:09:37Z</time></trkpt><trkpt lat="37.97788499318143" lon="13.818709320169816"><ele>6.0</ele><time>2026-04-09T11:09:38Z</time></trkpt><trkpt lat="37.9777612522869" lon="13.818279103202896"><ele>6.0</ele><time>2026-04-09T11:09:38.999Z</time></trkpt><trkpt lat="37.977633185673774" lon="13.817843963085716"><ele>6.0</ele><time>2026-04-09T11:09:39.999Z</time></trkpt><trkpt lat="37.97750387306668" lon="13.817404332434007"><ele>6.5</ele><time>2026-04-09T11:09:40.999Z</time></trkpt><trkpt lat="37.9773775203194" lon="13.81696341073058"><ele>7.0</ele><time>2026-04-09T11:09:41.999Z</time></trkpt><trkpt lat="37.977250889028134" lon="13.816520296616607"><ele>6.0</ele><time>2026-04-09T11:09:42.999Z</time></trkpt><trkpt lat="37.97712464715456" lon="13.816079255982507"><ele>5.0</ele><time>2026-04-09T11:09:43.999Z</time></trkpt><trkpt lat="37.97699743874296" lon="13.81563668110637"><ele>4.5</ele><time>2026-04-09T11:09:44.999Z</time></trkpt><trkpt lat="37.97687049562863" lon="13.815193297009488"><ele>4.0</ele><time>2026-04-09T11:09:45.999Z</time></trkpt><trkpt lat="37.976744679946" lon="13.814753220785795"><ele>4.5</ele><time>2026-04-09T11:09:46.999Z</time></trkpt><trkpt lat="37.97661926562827" lon="13.814312859188012"><ele>5.0</ele><time>2026-04-09T11:09:47.999Z</time></trkpt><trkpt lat="37.976493097385685" lon="13.813872789504812"><ele>6.0</ele><time>2026-04-09T11:09:48.999Z</time></trkpt><trkpt lat="37.976364519261836" lon="13.813430278719263"><ele>7.0</ele><time>2026-04-09T11:09:49.999Z</time></trkpt><trkpt lat="37.976237573522546" lon="13.812992278383003"><ele>7.0</ele><time>2026-04-09T11:09:50.999Z</time></trkpt><trkpt lat="37.97611191402813" lon="13.81255289134898"><ele>7.0</ele><time>2026-04-09T11:09:51.999Z</time></trkpt><trkpt lat="37.97598688796594" lon="13.8121141355373"><ele>7.0</ele><time>2026-04-09T11:09:52.999Z</time></trkpt><trkpt lat="37.975860659130554" lon="13.811678161671889"><ele>7.0</ele><time>2026-04-09T11:09:53.999Z</time></trkpt><trkpt lat="37.975733320303846" lon="13.811236528706438"><ele>6.5</ele><time>2026-04-09T11:09:54.999Z</time></trkpt><trkpt lat="37.97560824530446" lon="13.81080183973198"><ele>6.0</ele><time>2026-04-09T11:09:55.999Z</time></trkpt><trkpt lat="37.97548082612352" lon="13.81036732883965"><ele>6.0</ele><time>2026-04-09T11:09:56.999Z</time></trkpt><trkpt lat="37.97535633875487" lon="13.809933036905978"><ele>6.0</ele><time>2026-04-09T11:09:57.999Z</time></trkpt><trkpt lat="37.97523255237895" lon="13.809497757563136"><ele>6.0</ele><time>2026-04-09T11:09:58.999Z</time></trkpt><trkpt lat="37.97510746721728" lon="13.809060205061877"><ele>6.0</ele><time>2026-04-09T11:09:59.999Z</time></trkpt><trkpt lat="37.974982308059424" lon="13.808626369462626"><ele>7.5</ele><time>2026-04-09T11:10:00.999Z</time></trkpt><trkpt lat="37.9748551982798" lon="13.808193323286527"><ele>9.0</ele><time>2026-04-09T11:10:01.999Z</time></trkpt><trkpt lat="37.97472187753896" lon="13.807756360514508"><ele>9.0</ele><time>2026-04-09T11:10:02.999Z</time></trkpt><trkpt lat="37.97459339430871" lon="13.807318245491428"><ele>9.0</ele><time>2026-04-09T11:10:03.999Z</time></trkpt><trkpt lat="37.97446404487558" lon="13.806880168986854"><ele>8.0</ele><time>2026-04-09T11:10:04.999Z</time></trkpt><trkpt lat="37.97433598075154" lon="13.806440915647157"><ele>7.0</ele><time>2026-04-09T11:10:05.999Z</time></trkpt><trkpt lat="37.974206891624846" lon="13.805998337794371"><ele>7.0</ele><time>2026-04-09T11:10:07Z</time></trkpt><trkpt lat="37.97408125151506" lon="13.805557520925344"><ele>7.0</ele><time>2026-04-09T11:10:08Z</time></trkpt><trkpt lat="37.973954063556924" lon="13.805117702442878"><ele>7.0</ele><time>2026-04-09T11:10:09Z</time></trkpt><trkpt lat="37.97382731582707" lon="13.804675462598007"><ele>7.0</ele><time>2026-04-09T11:10:10Z</time></trkpt><trkpt lat="37.97370036956198" lon="13.804235134813014"><ele>7.0</ele><time>2026-04-09T11:10:11Z</time></trkpt><trkpt lat="37.97357292643013" lon="13.803797689069828"><ele>7.0</ele><time>2026-04-09T11:10:12Z</time></trkpt><trkpt lat="37.97344870394323" lon="13.803361088935686"><ele>7.0</ele><time>2026-04-09T11:10:13Z</time></trkpt><trkpt lat="37.97332472242449" lon="13.80292312438216"><ele>7.0</ele><time>2026-04-09T11:10:14Z</time></trkpt><trkpt lat="37.97320057673321" lon="13.802486461017388"><ele>7.0</ele><time>2026-04-09T11:10:15Z</time></trkpt><trkpt lat="37.973078584959566" lon="13.802052886112198"><ele>7.0</ele><time>2026-04-09T11:10:16Z</time></trkpt><trkpt lat="37.97295700611431" lon="13.801614542198426"><ele>7.0</ele><time>2026-04-09T11:10:17Z</time></trkpt><trkpt lat="37.97283577510113" lon="13.801183464478786"><ele>7.0</ele><time>2026-04-09T11:10:18Z</time></trkpt><trkpt lat="37.972712961643815" lon="13.800751632317807"><ele>6.5</ele><time>2026-04-09T11:10:19Z</time></trkpt><trkpt lat="37.972589626641934" lon="13.800321756448849"><ele>6.0</ele><time>2026-04-09T11:10:20Z</time></trkpt><trkpt lat="37.972465330734956" lon="13.799891875826201"><ele>6.0</ele><time>2026-04-09T11:10:21Z</time></trkpt><trkpt lat="37.97234485980862" lon="13.799461425934346"><ele>6.0</ele><time>2026-04-09T11:10:22Z</time></trkpt><trkpt lat="37.972221048170596" lon="13.799027580863871"><ele>6.0</ele><time>2026-04-09T11:10:23Z</time></trkpt><trkpt lat="37.97209756520305" lon="13.798595905757901"><ele>6.0</ele><time>2026-04-09T11:10:24Z</time></trkpt><trkpt lat="37.9719734695028" lon="13.798164768776054"><ele>6.0</ele><time>2026-04-09T11:10:25Z</time></trkpt><trkpt lat="37.9718506639407" lon="13.797739823655933"><ele>6.0</ele><time>2026-04-09T11:10:26Z</time></trkpt><trkpt lat="37.97172616646769" lon="13.797305847513451"><ele>6.5</ele><time>2026-04-09T11:10:27Z</time></trkpt><trkpt lat="37.971601817935415" lon="13.796872364556908"><ele>7.0</ele><time>2026-04-09T11:10:28Z</time></trkpt><trkpt lat="37.971477123737756" lon="13.796436114113831"><ele>7.0</ele><time>2026-04-09T11:10:29Z</time></trkpt><trkpt lat="37.971352397747424" lon="13.796000064648222"><ele>7.0</ele><time>2026-04-09T11:10:30Z</time></trkpt><trkpt lat="37.97122590496174" lon="13.7955619816984"><ele>7.5</ele><time>2026-04-09T11:10:31Z</time></trkpt><trkpt lat="37.97109949168623" lon="13.79512047538723"><ele>8.0</ele><time>2026-04-09T11:10:32Z</time></trkpt><trkpt lat="37.9709741721704" lon="13.794678343267247"><ele>8.0</ele><time>2026-04-09T11:10:33Z</time></trkpt><trkpt lat="37.970845621961296" lon="13.794235033874921"><ele>8.0</ele><time>2026-04-09T11:10:34Z</time></trkpt><trkpt lat="37.970715704388084" lon="13.793794207030093"><ele>8.5</ele><time>2026-04-09T11:10:35Z</time></trkpt><trkpt lat="37.97058416794491" lon="13.793357369848463"><ele>9.0</ele><time>2026-04-09T11:10:36Z</time></trkpt><trkpt lat="37.970455527676435" lon="13.792923620403702"><ele>7.5</ele><time>2026-04-09T11:10:37Z</time></trkpt><trkpt lat="37.97032642567386" lon="13.792489852631014"><ele>6.0</ele><time>2026-04-09T11:10:38Z</time></trkpt><trkpt lat="37.97019856176295" lon="13.792049695973548"><ele>6.0</ele><time>2026-04-09T11:10:39Z</time></trkpt><trkpt lat="37.970078052139684" lon="13.791611846821974"><ele>6.0</ele><time>2026-04-09T11:10:40Z</time></trkpt><trkpt lat="37.96996267964068" lon="13.791171777396222"><ele>6.0</ele><time>2026-04-09T11:10:41Z</time></trkpt><trkpt lat="37.96985219889899" lon="13.790728913642909"><ele>6.0</ele><time>2026-04-09T11:10:42Z</time></trkpt><trkpt lat="37.9697469049169" lon="13.790285725251453"><ele>6.0</ele><time>2026-04-09T11:10:43Z</time></trkpt><trkpt lat="37.9696484579297" lon="13.789854854663929"><ele>6.0</ele><time>2026-04-09T11:10:44Z</time></trkpt><trkpt lat="37.96955465861728" lon="13.78943265137394"><ele>6.0</ele><time>2026-04-09T11:10:45Z</time></trkpt><trkpt lat="37.96946773860061" lon="13.789014884375813"><ele>6.0</ele><time>2026-04-09T11:10:46Z</time></trkpt><trkpt lat="37.969384555155116" lon="13.788603166743961"><ele>6.0</ele><time>2026-04-09T11:10:47Z</time></trkpt><trkpt lat="37.96930361640893" lon="13.788195356489675"><ele>6.0</ele><time>2026-04-09T11:10:48Z</time></trkpt><trkpt lat="37.96922583979835" lon="13.78778811823019"><ele>7.0</ele><time>2026-04-09T11:10:49Z</time></trkpt><trkpt lat="37.969153926929664" lon="13.787381488383705"><ele>8.0</ele><time>2026-04-09T11:10:50Z</time></trkpt><trkpt lat="37.96908440402085" lon="13.786975239499029"><ele>7.5</ele><time>2026-04-09T11:10:51Z</time></trkpt><trkpt lat="37.96901750917238" lon="13.786558822853547"><ele>7.0</ele><time>2026-04-09T11:10:52Z</time></trkpt><trkpt lat="37.968955455069114" lon="13.786134267747844"><ele>7.0</ele><time>2026-04-09T11:10:53Z</time></trkpt><trkpt lat="37.9688948012032" lon="13.78570384756605"><ele>7.0</ele><time>2026-04-09T11:10:54Z</time></trkpt><trkpt lat="37.96883303486239" lon="13.785264628775383"><ele>6.5</ele><time>2026-04-09T11:10:55Z</time></trkpt><trkpt lat="37.96876844600032" lon="13.78481136138013"><ele>6.0</ele><time>2026-04-09T11:10:56Z</time></trkpt><trkpt lat="37.96870421449332" lon="13.784351305505737"><ele>6.5</ele><time>2026-04-09T11:10:57Z</time></trkpt><trkpt lat="37.96863941296706" lon="13.783887813579208"><ele>7.0</ele><time>2026-04-09T11:10:58Z</time></trkpt><trkpt lat="37.96857568231351" lon="13.783423000031332"><ele>7.0</ele><time>2026-04-09T11:10:59Z</time></trkpt><trkpt lat="37.968510242221" lon="13.782956988458304"><ele>7.0</ele><time>2026-04-09T11:11:00Z</time></trkpt><trkpt lat="37.968443107208834" lon="13.782491244515404"><ele>7.0</ele><time>2026-04-09T11:11:01Z</time></trkpt><trkpt lat="37.96837745744858" lon="13.782023460525945"><ele>7.0</ele><time>2026-04-09T11:11:02Z</time></trkpt><trkpt lat="37.968309025505036" lon="13.781557569519864"><ele>7.0</ele><time>2026-04-09T11:11:03Z</time></trkpt><trkpt lat="37.96824011302879" lon="13.78109291221837"><ele>7.0</ele><time>2026-04-09T11:11:04Z</time></trkpt><trkpt lat="37.96817644989061" lon="13.780630311747334"><ele>8.5</ele><time>2026-04-09T11:11:05Z</time></trkpt><trkpt lat="37.968118026046355" lon="13.780163206115855"><ele>10.0</ele><time>2026-04-09T11:11:06Z</time></trkpt><trkpt lat="37.968057929978194" lon="13.77969677750869"><ele>9.5</ele><time>2026-04-09T11:11:07Z</time></trkpt><trkpt lat="37.967997403421" lon="13.779231441273879"><ele>9.0</ele><time>2026-04-09T11:11:08Z</time></trkpt><trkpt lat="37.967936255184746" lon="13.778767747797291"><ele>9.5</ele><time>2026-04-09T11:11:09Z</time></trkpt><trkpt lat="37.967872677150204" lon="13.778305591206097"><ele>10.0</ele><time>2026-04-09T11:11:10Z</time></trkpt><trkpt lat="37.967807490872275" lon="13.777845450129632"><ele>9.0</ele><time>2026-04-09T11:11:11Z</time></trkpt><trkpt lat="37.96774285035396" lon="13.777385476054336"><ele>8.0</ele><time>2026-04-09T11:11:12Z</time></trkpt><trkpt lat="37.96767701434684" lon="13.776927327625597"><ele>8.0</ele><time>2026-04-09T11:11:13Z</time></trkpt><trkpt lat="37.967608755966936" lon="13.776470205437912"><ele>8.0</ele><time>2026-04-09T11:11:14Z</time></trkpt><trkpt lat="37.9675409329213" lon="13.776011616751623"><ele>8.5</ele><time>2026-04-09T11:11:15Z</time></trkpt><trkpt lat="37.96747150739109" lon="13.775549569332524"><ele>9.0</ele><time>2026-04-09T11:11:16Z</time></trkpt><trkpt lat="37.967404523322536" lon="13.775089681597636"><ele>9.5</ele><time>2026-04-09T11:11:17Z</time></trkpt><trkpt lat="37.96734217125829" lon="13.774627620967857"><ele>10.0</ele><time>2026-04-09T11:11:18Z</time></trkpt><trkpt lat="37.96728295745885" lon="13.774166639602575"><ele>10.0</ele><time>2026-04-09T11:11:19Z</time></trkpt><trkpt lat="37.9672258581737" lon="13.773705569618148"><ele>10.0</ele><time>2026-04-09T11:11:20Z</time></trkpt><trkpt lat="37.96716788018838" lon="13.773245280605888"><ele>10.0</ele><time>2026-04-09T11:11:21Z</time></trkpt><trkpt lat="37.967108517074" lon="13.772791660804003"><ele>10.0</ele><time>2026-04-09T11:11:22Z</time></trkpt><trkpt lat="37.967045956300275" lon="13.772337897536552"><ele>9.0</ele><time>2026-04-09T11:11:23Z</time></trkpt><trkpt lat="37.96697873402505" lon="13.77188099451783"><ele>8.0</ele><time>2026-04-09T11:11:24Z</time></trkpt><trkpt lat="37.96691313145232" lon="13.771427230895505"><ele>7.0</ele><time>2026-04-09T11:11:25Z</time></trkpt><trkpt lat="37.96684881231053" lon="13.770975363810013"><ele>6.0</ele><time>2026-04-09T11:11:26Z</time></trkpt><trkpt lat="37.96678301066665" lon="13.770522416275414"><ele>6.0</ele><time>2026-04-09T11:11:27Z</time></trkpt><trkpt lat="37.966715764260556" lon="13.770066817973898"><ele>6.0</ele><time>2026-04-09T11:11:28Z</time></trkpt><trkpt lat="37.96664798005908" lon="13.769612529237063"><ele>6.0</ele><time>2026-04-09T11:11:29Z</time></trkpt><trkpt lat="37.966582081074236" lon="13.769161522087677"><ele>6.0</ele><time>2026-04-09T11:11:30Z</time></trkpt><trkpt lat="37.966518205058605" lon="13.768714551432607"><ele>8.0</ele><time>2026-04-09T11:11:31Z</time></trkpt><trkpt lat="37.966452920170475" lon="13.768269929902297"><ele>10.0</ele><time>2026-04-09T11:11:32Z</time></trkpt><trkpt lat="37.966385139775895" lon="13.767824254538024"><ele>10.0</ele><time>2026-04-09T11:11:33Z</time></trkpt><trkpt lat="37.96631282296022" lon="13.767373462183231"><ele>10.0</ele><time>2026-04-09T11:11:33.999Z</time></trkpt><trkpt lat="37.96623712265183" lon="13.76692327145175"><ele>9.5</ele><time>2026-04-09T11:11:34.999Z</time></trkpt><trkpt lat="37.96615265214" lon="13.766473259996335"><ele>9.0</ele><time>2026-04-09T11:11:35.999Z</time></trkpt><trkpt lat="37.96606127644795" lon="13.766025535614988"><ele>9.0</ele><time>2026-04-09T11:11:36.999Z</time></trkpt><trkpt lat="37.965960924063616" lon="13.765579671190508"><ele>9.0</ele><time>2026-04-09T11:11:37.999Z</time></trkpt><trkpt lat="37.965855138545244" lon="13.765136179459867"><ele>11.5</ele><time>2026-04-09T11:11:38.999Z</time></trkpt><trkpt lat="37.96574381311221" lon="13.764694975751125"><ele>14.0</ele><time>2026-04-09T11:11:39.999Z</time></trkpt><trkpt lat="37.96563164880135" lon="13.764256529192249"><ele>14.5</ele><time>2026-04-09T11:11:40.999Z</time></trkpt><trkpt lat="37.965518909568694" lon="13.763821342941457"><ele>15.0</ele><time>2026-04-09T11:11:41.999Z</time></trkpt><trkpt lat="37.96540425344824" lon="13.763383474744254"><ele>15.0</ele><time>2026-04-09T11:11:42.999Z</time></trkpt><trkpt lat="37.9652890487135" lon="13.762945615994212"><ele>15.0</ele><time>2026-04-09T11:11:43.999Z</time></trkpt><trkpt lat="37.965168657374846" lon="13.762503693742946"><ele>15.0</ele><time>2026-04-09T11:11:44.999Z</time></trkpt><trkpt lat="37.96505075630285" lon="13.762069699974385"><ele>15.0</ele><time>2026-04-09T11:11:45.999Z</time></trkpt><trkpt lat="37.96493293948629" lon="13.761633955631694"><ele>20.5</ele><time>2026-04-09T11:11:46.999Z</time></trkpt><trkpt lat="37.9648186471592" lon="13.761200891625572"><ele>26.0</ele><time>2026-04-09T11:11:47.999Z</time></trkpt><trkpt lat="37.96471003093374" lon="13.760770213231263"><ele>26.0</ele><time>2026-04-09T11:11:48.999Z</time></trkpt><trkpt lat="37.964611980063395" lon="13.76033288618946"><ele>26.0</ele><time>2026-04-09T11:11:49.999Z</time></trkpt><trkpt lat="37.96451960654167" lon="13.759887399396659"><ele>26.0</ele><time>2026-04-09T11:11:50.999Z</time></trkpt><trkpt lat="37.96444062127757" lon="13.759437264553904"><ele>26.0</ele><time>2026-04-09T11:11:51.999Z</time></trkpt><trkpt lat="37.96435875692672" lon="13.758986654745074"><ele>26.0</ele><time>2026-04-09T11:11:52.999Z</time></trkpt><trkpt lat="37.964279883773344" lon="13.758534767180521"><ele>26.0</ele><time>2026-04-09T11:11:53.999Z</time></trkpt><trkpt lat="37.96420804404155" lon="13.758079022706426"><ele>34.5</ele><time>2026-04-09T11:11:54.999Z</time></trkpt><trkpt lat="37.96414015563038" lon="13.757622650535675"><ele>43.0</ele><time>2026-04-09T11:11:55.999Z</time></trkpt><trkpt lat="37.96407614113133" lon="13.757164632261073"><ele>43.5</ele><time>2026-04-09T11:11:56.999Z</time></trkpt><trkpt lat="37.96401804466723" lon="13.75670067129972"><ele>44.0</ele><time>2026-04-09T11:11:57.999Z</time></trkpt><trkpt lat="37.96396645239096" lon="13.756232277088204"><ele>44.5</ele><time>2026-04-09T11:11:58.999Z</time></trkpt><trkpt lat="37.96391731763473" lon="13.75576164761924"><ele>45.0</ele><time>2026-04-09T11:11:59.999Z</time></trkpt><trkpt lat="37.96386916216145" lon="13.755285473238287"><ele>44.5</ele><time>2026-04-09T11:12:00.999Z</time></trkpt><trkpt lat="37.963819010222316" lon="13.754812619040182"><ele>44.0</ele><time>2026-04-09T11:12:01.999Z</time></trkpt><trkpt lat="37.96376339547034" lon="13.754337570411952"><ele>45.5</ele><time>2026-04-09T11:12:02.999Z</time></trkpt><trkpt lat="37.963708739835944" lon="13.753859901314494"><ele>47.0</ele><time>2026-04-09T11:12:03.999Z</time></trkpt><trkpt lat="37.96365593343638" lon="13.753381577680853"><ele>47.5</ele><time>2026-04-09T11:12:04.999Z</time></trkpt><trkpt lat="37.96360430689412" lon="13.752898382626976"><ele>48.0</ele><time>2026-04-09T11:12:05.999Z</time></trkpt><trkpt lat="37.963560380507964" lon="13.752419056133913"><ele>48.0</ele><time>2026-04-09T11:12:06.999Z</time></trkpt><trkpt lat="37.96352215615275" lon="13.751937928005466"><ele>48.0</ele><time>2026-04-09T11:12:07.999Z</time></trkpt><trkpt lat="37.96350209292972" lon="13.751465445926561"><ele>50.0</ele><time>2026-04-09T11:12:08.999Z</time></trkpt><trkpt lat="37.96347007939821" lon="13.750961355587776"><ele>52.0</ele><time>2026-04-09T11:12:09.999Z</time></trkpt><trkpt lat="37.96346042972513" lon="13.750469682973637"><ele>52.5</ele><time>2026-04-09T11:12:10.999Z</time></trkpt><trkpt lat="37.96345512910706" lon="13.749971248659813"><ele>53.0</ele><time>2026-04-09T11:12:11.999Z</time></trkpt><trkpt lat="37.96346203238863" lon="13.749478659367"><ele>53.5</ele><time>2026-04-09T11:12:13Z</time></trkpt><trkpt lat="37.9634791786504" lon="13.748978179865107"><ele>54.0</ele><time>2026-04-09T11:12:14Z</time></trkpt><trkpt lat="37.96350807177034" lon="13.748481933924227"><ele>54.0</ele><time>2026-04-09T11:12:15Z</time></trkpt><trkpt lat="37.96354644917277" lon="13.74798920857932"><ele>54.0</ele><time>2026-04-09T11:12:16Z</time></trkpt><trkpt lat="37.963593064938095" lon="13.747500832893815"><ele>57.0</ele><time>2026-04-09T11:12:17Z</time></trkpt><trkpt lat="37.96364353223998" lon="13.747009749990925"><ele>60.0</ele><time>2026-04-09T11:12:18Z</time></trkpt><trkpt lat="37.96369837239302" lon="13.746520585986685"><ele>65.5</ele><time>2026-04-09T11:12:19Z</time></trkpt><trkpt lat="37.96375666300203" lon="13.74603832442093"><ele>71.0</ele><time>2026-04-09T11:12:20Z</time></trkpt><trkpt lat="37.96381368866229" lon="13.745554686286713"><ele>73.5</ele><time>2026-04-09T11:12:21Z</time></trkpt><trkpt lat="37.963868308900764" lon="13.745078511576512"><ele>76.0</ele><time>2026-04-09T11:12:22Z</time></trkpt><trkpt lat="37.9639252077061" lon="13.744609191016872"><ele>78.5</ele><time>2026-04-09T11:12:23Z</time></trkpt><trkpt lat="37.9639877173841" lon="13.744141709498154"><ele>81.0</ele><time>2026-04-09T11:12:24Z</time></trkpt><trkpt lat="37.964051553994416" lon="13.743677511583707"><ele>84.5</ele><time>2026-04-09T11:12:25Z</time></trkpt><trkpt lat="37.96411633385185" lon="13.743215045772402"><ele>88.0</ele><time>2026-04-09T11:12:26Z</time></trkpt><trkpt lat="37.96417965584527" lon="13.742747054718969"><ele>85.5</ele><time>2026-04-09T11:12:27Z</time></trkpt><trkpt lat="37.96423881329711" lon="13.742287240347135"><ele>83.0</ele><time>2026-04-09T11:12:28Z</time></trkpt><trkpt lat="37.96429889907883" lon="13.7418217323118"><ele>83.0</ele><time>2026-04-09T11:12:29Z</time></trkpt><trkpt lat="37.964362206702326" lon="13.74136141652778"><ele>83.0</ele><time>2026-04-09T11:12:30Z</time></trkpt><trkpt lat="37.96442880159474" lon="13.740901419663532"><ele>89.5</ele><time>2026-04-09T11:12:31Z</time></trkpt><trkpt lat="37.96450167927312" lon="13.740440995187557"><ele>96.0</ele><time>2026-04-09T11:12:32Z</time></trkpt><trkpt lat="37.964564947339106" lon="13.739984047686871"><ele>99.0</ele><time>2026-04-09T11:12:33Z</time></trkpt><trkpt lat="37.96462887471006" lon="13.739522853503379"><ele>102.0</ele><time>2026-04-09T11:12:34Z</time></trkpt><trkpt lat="37.96469183073688" lon="13.739066017658704"><ele>103.5</ele><time>2026-04-09T11:12:35Z</time></trkpt><trkpt lat="37.964751021216976" lon="13.738603615818345"><ele>105.0</ele><time>2026-04-09T11:12:36Z</time></trkpt><trkpt lat="37.96481001090129" lon="13.738141919141308"><ele>108.0</ele><time>2026-04-09T11:12:37Z</time></trkpt><trkpt lat="37.964870015325275" lon="13.737679904050154"><ele>111.0</ele><time>2026-04-09T11:12:38Z</time></trkpt><trkpt lat="37.96493157789652" lon="13.737217444890197"><ele>110.5</ele><time>2026-04-09T11:12:39Z</time></trkpt><trkpt lat="37.964991359662875" lon="13.73675060636871"><ele>110.0</ele><time>2026-04-09T11:12:40Z</time></trkpt><trkpt lat="37.9650519083196" lon="13.736281983532518"><ele>107.5</ele><time>2026-04-09T11:12:41Z</time></trkpt><trkpt lat="37.9651099428931" lon="13.735808998220765"><ele>105.0</ele><time>2026-04-09T11:12:42Z</time></trkpt><trkpt lat="37.96516824049978" lon="13.735339303762553"><ele>104.5</ele><time>2026-04-09T11:12:43Z</time></trkpt><trkpt lat="37.965225071655276" lon="13.734864066439158"><ele>104.0</ele><time>2026-04-09T11:12:44Z</time></trkpt><trkpt lat="37.96528225712351" lon="13.73438621772827"><ele>104.0</ele><time>2026-04-09T11:12:45Z</time></trkpt><trkpt lat="37.965344854141705" lon="13.733921339948823"><ele>104.0</ele><time>2026-04-09T11:12:46Z</time></trkpt><trkpt lat="37.96539911199082" lon="13.733488188079928"><ele>103.5</ele><time>2026-04-09T11:12:47Z</time></trkpt><trkpt lat="37.96545531198339" lon="13.733077232703202"><ele>103.0</ele><time>2026-04-09T11:12:48Z</time></trkpt><trkpt lat="37.96551554029368" lon="13.732668962583027"><ele>104.0</ele><time>2026-04-09T11:12:49Z</time></trkpt><trkpt lat="37.9655741968191" lon="13.732271356835971"><ele>105.0</ele><time>2026-04-09T11:12:50Z</time></trkpt><trkpt lat="37.965630646260585" lon="13.731887497218954"><ele>108.0</ele><time>2026-04-09T11:12:51Z</time></trkpt><trkpt lat="37.965682682087866" lon="13.731528763410353"><ele>111.0</ele><time>2026-04-09T11:12:52Z</time></trkpt><trkpt lat="37.965733092063466" lon="13.731180166430505"><ele>111.0</ele><time>2026-04-09T11:12:53Z</time></trkpt><trkpt lat="37.96578139069074" lon="13.73083055095305"><ele>111.0</ele><time>2026-04-09T11:12:54Z</time></trkpt><trkpt lat="37.96582897498806" lon="13.730484336642586"><ele>107.0</ele><time>2026-04-09T11:12:55Z</time></trkpt><trkpt lat="37.965879065286785" lon="13.730134830108812"><ele>103.0</ele><time>2026-04-09T11:12:56Z</time></trkpt><trkpt lat="37.96592782165469" lon="13.729790068170454"><ele>103.0</ele><time>2026-04-09T11:12:57Z</time></trkpt><trkpt lat="37.965974291603516" lon="13.729449988610138"><ele>103.0</ele><time>2026-04-09T11:12:58Z</time></trkpt><trkpt lat="37.96601740611604" lon="13.729128968257836"><ele>104.5</ele><time>2026-04-09T11:12:59Z</time></trkpt><trkpt lat="37.96605656043912" lon="13.728824144549941"><ele>106.0</ele><time>2026-04-09T11:13:00Z</time></trkpt><trkpt lat="37.966095245621176" lon="13.728531592993727"><ele>107.0</ele><time>2026-04-09T11:13:01Z</time></trkpt><trkpt lat="37.96613637174604" lon="13.728245951536628"><ele>108.0</ele><time>2026-04-09T11:13:02Z</time></trkpt><trkpt lat="37.96617660374161" lon="13.72797878011128"><ele>109.0</ele><time>2026-04-09T11:13:03Z</time></trkpt><trkpt lat="37.966215443975486" lon="13.72772560035391"><ele>109.33333333333334</ele><time>2026-04-09T11:13:04Z</time></trkpt><trkpt lat="37.96625239285609" lon="13.727494321749537"><ele>109.66666666666666</ele><time>2026-04-09T11:13:05Z</time></trkpt><trkpt lat="37.96629043711102" lon="13.727293081385094"><ele>110.0</ele><time>2026-04-09T11:13:06Z</time></trkpt><trkpt lat="37.96633907620755" lon="13.727112119088469"><ele>110.0</ele><time>2026-04-09T11:13:07Z</time></trkpt><trkpt lat="37.96639789844371" lon="13.726948812858149"><ele>110.0</ele><time>2026-04-09T11:13:08Z</time></trkpt><trkpt lat="37.9664512513725" lon="13.72679338248596"><ele>110.0</ele><time>2026-04-09T11:13:09Z</time></trkpt><trkpt lat="37.966486408462366" lon="13.726631479535428"><ele>110.0</ele><time>2026-04-09T11:13:10Z</time></trkpt><trkpt lat="37.96651382751271" lon="13.726478226345627"><ele>109.6</ele><time>2026-04-09T11:13:11Z</time></trkpt><trkpt lat="37.96654815204526" lon="13.726351821295225"><ele>109.2</ele><time>2026-04-09T11:13:12Z</time></trkpt><trkpt lat="37.96658569505385" lon="13.726257055627405"><ele>108.80000000000001</ele><time>2026-04-09T11:13:13Z</time></trkpt><trkpt lat="37.96664885772339" lon="13.726184362737653"><ele>108.4</ele><time>2026-04-09T11:13:14Z</time></trkpt><trkpt lat="37.96673569682244" lon="13.726130038116228"><ele>108.0</ele><time>2026-04-09T11:13:15Z</time></trkpt><trkpt lat="37.96683558605647" lon="13.726088179932423"><ele>106.4</ele><time>2026-04-09T11:13:16Z</time></trkpt><trkpt lat="37.966916956499595" lon="13.726041473468658"><ele>104.80000000000001</ele><time>2026-04-09T11:13:17Z</time></trkpt><trkpt lat="37.96695400544413" lon="13.725897079492675"><ele>103.2</ele><time>2026-04-09T11:13:19Z</time></trkpt><trkpt lat="37.96695281545888" lon="13.725765495198543"><ele>101.6</ele><time>2026-04-09T11:13:21Z</time></trkpt><trkpt lat="37.9669683611491" lon="13.725675874077876"><ele>100.0</ele><time>2026-04-09T11:13:23Z</time></trkpt><trkpt lat="37.96700733554749" lon="13.725604095722215"><ele>100.0</ele><time>2026-04-09T11:13:26Z</time></trkpt><trkpt lat="37.96702939219361" lon="13.72552612605076"><ele>100.0</ele><time>2026-04-09T11:14:52Z</time></trkpt><trkpt lat="37.96703862104077" lon="13.725439950315383"><ele>100.0</ele><time>2026-04-09T11:15:06Z</time></trkpt><trkpt lat="37.967083691652626" lon="13.725375369563773"><ele>100.0</ele><time>2026-04-09T11:15:13Z</time></trkpt><trkpt lat="37.96713815577266" lon="13.725309010862722"><ele>100.0</ele><time>2026-04-09T11:15:18Z</time></trkpt><trkpt lat="37.96694505018419" lon="13.725411806928188"><ele>100.0</ele><time>2026-04-09T11:16:52.016Z</time></trkpt><trkpt lat="37.967026340658336" lon="13.725507998004359"><ele>100.0</ele><time>2026-04-09T11:16:56.999Z</time></trkpt><trkpt lat="37.966992294367735" lon="13.725590920813826"><ele>100.0</ele><time>2026-04-09T11:17:01Z</time></trkpt></trkseg></trk></gpx>